<?xml version="1.0" encoding="UTF-8" standalone="no" ?>
<gpx xmlns="http://www.topografix.com/GPX/1/1" xmlns:xsi="http://www.w3.org/2001/XMLSchema-instance" xsi:schemaLocation="http://www.topografix.com/GPX/1/1 http://www.topografix.com/GPX/1/1/gpx.xsd" version="1.1" creator="VisuGPX - https://www.visugpx.com">
  <metadata>
    <name>balade chartreuse 30 mars 2016</name>
    <desc><![CDATA[Saint Egrève (départ)
La Tronche
Cornec
Le Sapey en Chartreuse
Saint Pierre de Chartreuse
Saint Laurent Du Pont
Voreppe
Saint Egrève
]]></desc>
  </metadata>
  <trk>
    <name><![CDATA[balade chartreuse 30/03/16]]></name>
    <trkseg>
      <trkpt lat="45.22175" lon="5.69008">
        <ele>284</ele>
        <time>2016-03-30T11:49:08.286Z</time>
      </trkpt>
      <trkpt lat="45.22204" lon="5.6899">
        <ele>289</ele>
        <time>2016-03-30T11:49:10.000Z</time>
      </trkpt>
      <trkpt lat="45.22188" lon="5.68988">
        <ele>329</ele>
        <time>2016-03-30T11:49:12.000Z</time>
      </trkpt>
      <trkpt lat="45.2217" lon="5.68997">
        <ele>308</ele>
        <time>2016-03-30T11:49:48.000Z</time>
      </trkpt>
      <trkpt lat="45.22157" lon="5.69011">
        <ele>304</ele>
        <time>2016-03-30T11:49:49.000Z</time>
      </trkpt>
      <trkpt lat="45.22147" lon="5.6902">
        <ele>303</ele>
        <time>2016-03-30T11:49:50.000Z</time>
      </trkpt>
      <trkpt lat="45.22131" lon="5.69034">
        <ele>295</ele>
        <time>2016-03-30T11:49:52.000Z</time>
      </trkpt>
      <trkpt lat="45.22122" lon="5.69042">
        <ele>291</ele>
        <time>2016-03-30T11:49:53.000Z</time>
      </trkpt>
      <trkpt lat="45.22105" lon="5.69052">
        <ele>285</ele>
        <time>2016-03-30T11:49:55.000Z</time>
      </trkpt>
      <trkpt lat="45.22088" lon="5.69066">
        <ele>278</ele>
        <time>2016-03-30T11:49:57.000Z</time>
      </trkpt>
      <trkpt lat="45.22079" lon="5.69075">
        <ele>277</ele>
        <time>2016-03-30T11:49:58.000Z</time>
      </trkpt>
      <trkpt lat="45.22067" lon="5.69091">
        <ele>284</ele>
        <time>2016-03-30T11:49:59.000Z</time>
      </trkpt>
      <trkpt lat="45.22056" lon="5.69102">
        <ele>278</ele>
        <time>2016-03-30T11:50:01.000Z</time>
      </trkpt>
      <trkpt lat="45.22049" lon="5.69112">
        <ele>270</ele>
        <time>2016-03-30T11:50:04.000Z</time>
      </trkpt>
      <trkpt lat="45.22041" lon="5.69119">
        <ele>267</ele>
        <time>2016-03-30T11:50:11.000Z</time>
      </trkpt>
      <trkpt lat="45.22031" lon="5.69126">
        <ele>265</ele>
        <time>2016-03-30T11:50:14.000Z</time>
      </trkpt>
      <trkpt lat="45.22022" lon="5.6913">
        <ele>261</ele>
        <time>2016-03-30T11:50:17.000Z</time>
      </trkpt>
      <trkpt lat="45.22011" lon="5.69136">
        <ele>261</ele>
        <time>2016-03-30T11:50:19.000Z</time>
      </trkpt>
      <trkpt lat="45.21996" lon="5.69144">
        <ele>257</ele>
        <time>2016-03-30T11:50:22.000Z</time>
      </trkpt>
      <trkpt lat="45.21975" lon="5.69167">
        <ele>258</ele>
        <time>2016-03-30T11:50:24.000Z</time>
      </trkpt>
      <trkpt lat="45.21967" lon="5.69181">
        <ele>258</ele>
        <time>2016-03-30T11:50:25.000Z</time>
      </trkpt>
      <trkpt lat="45.21957" lon="5.69194">
        <ele>257</ele>
        <time>2016-03-30T11:50:26.000Z</time>
      </trkpt>
      <trkpt lat="45.21946" lon="5.69204">
        <ele>258</ele>
        <time>2016-03-30T11:50:27.000Z</time>
      </trkpt>
      <trkpt lat="45.21933" lon="5.69211">
        <ele>257</ele>
        <time>2016-03-30T11:50:29.000Z</time>
      </trkpt>
      <trkpt lat="45.21917" lon="5.69225">
        <ele>254</ele>
        <time>2016-03-30T11:50:31.000Z</time>
      </trkpt>
      <trkpt lat="45.21908" lon="5.69234">
        <ele>255</ele>
        <time>2016-03-30T11:50:32.000Z</time>
      </trkpt>
      <trkpt lat="45.21893" lon="5.69246">
        <ele>254</ele>
        <time>2016-03-30T11:50:34.000Z</time>
      </trkpt>
      <trkpt lat="45.21884" lon="5.69254">
        <ele>254</ele>
        <time>2016-03-30T11:50:35.000Z</time>
      </trkpt>
      <trkpt lat="45.21877" lon="5.69262">
        <ele>253</ele>
        <time>2016-03-30T11:50:36.000Z</time>
      </trkpt>
      <trkpt lat="45.21867" lon="5.69271">
        <ele>252</ele>
        <time>2016-03-30T11:50:37.000Z</time>
      </trkpt>
      <trkpt lat="45.21857" lon="5.6928">
        <ele>253</ele>
        <time>2016-03-30T11:50:38.000Z</time>
      </trkpt>
      <trkpt lat="45.21849" lon="5.69286">
        <ele>254</ele>
        <time>2016-03-30T11:50:39.000Z</time>
      </trkpt>
      <trkpt lat="45.2184" lon="5.69294">
        <ele>252</ele>
        <time>2016-03-30T11:50:40.000Z</time>
      </trkpt>
      <trkpt lat="45.21832" lon="5.69301">
        <ele>252</ele>
        <time>2016-03-30T11:50:41.000Z</time>
      </trkpt>
      <trkpt lat="45.21817" lon="5.69312">
        <ele>251</ele>
        <time>2016-03-30T11:50:43.000Z</time>
      </trkpt>
      <trkpt lat="45.21801" lon="5.69323">
        <ele>250</ele>
        <time>2016-03-30T11:50:45.000Z</time>
      </trkpt>
      <trkpt lat="45.21791" lon="5.69331">
        <ele>249</ele>
        <time>2016-03-30T11:50:47.000Z</time>
      </trkpt>
      <trkpt lat="45.21782" lon="5.69334">
        <ele>247</ele>
        <time>2016-03-30T11:50:49.000Z</time>
      </trkpt>
      <trkpt lat="45.21768" lon="5.69347">
        <ele>249</ele>
        <time>2016-03-30T11:50:51.000Z</time>
      </trkpt>
      <trkpt lat="45.21758" lon="5.69358">
        <ele>252</ele>
        <time>2016-03-30T11:50:54.000Z</time>
      </trkpt>
      <trkpt lat="45.21746" lon="5.69365">
        <ele>252</ele>
        <time>2016-03-30T11:50:57.000Z</time>
      </trkpt>
      <trkpt lat="45.21739" lon="5.69376">
        <ele>263</ele>
        <time>2016-03-30T11:51:25.000Z</time>
      </trkpt>
      <trkpt lat="45.21729" lon="5.69377">
        <ele>265</ele>
        <time>2016-03-30T11:51:29.000Z</time>
      </trkpt>
      <trkpt lat="45.21715" lon="5.69386">
        <ele>262</ele>
        <time>2016-03-30T11:51:31.000Z</time>
      </trkpt>
      <trkpt lat="45.21706" lon="5.69397">
        <ele>260</ele>
        <time>2016-03-30T11:51:32.000Z</time>
      </trkpt>
      <trkpt lat="45.21693" lon="5.69406">
        <ele>261</ele>
        <time>2016-03-30T11:51:33.000Z</time>
      </trkpt>
      <trkpt lat="45.21674" lon="5.69423">
        <ele>259</ele>
        <time>2016-03-30T11:51:34.000Z</time>
      </trkpt>
      <trkpt lat="45.21659" lon="5.69436">
        <ele>260</ele>
        <time>2016-03-30T11:51:35.000Z</time>
      </trkpt>
      <trkpt lat="45.21644" lon="5.69451">
        <ele>260</ele>
        <time>2016-03-30T11:51:36.000Z</time>
      </trkpt>
      <trkpt lat="45.21635" lon="5.69459">
        <ele>257</ele>
        <time>2016-03-30T11:51:37.000Z</time>
      </trkpt>
      <trkpt lat="45.21626" lon="5.69472">
        <ele>256</ele>
        <time>2016-03-30T11:51:38.000Z</time>
      </trkpt>
      <trkpt lat="45.21614" lon="5.69483">
        <ele>256</ele>
        <time>2016-03-30T11:51:39.000Z</time>
      </trkpt>
      <trkpt lat="45.21602" lon="5.69494">
        <ele>255</ele>
        <time>2016-03-30T11:51:40.000Z</time>
      </trkpt>
      <trkpt lat="45.2159" lon="5.69506">
        <ele>255</ele>
        <time>2016-03-30T11:51:41.000Z</time>
      </trkpt>
      <trkpt lat="45.21578" lon="5.69516">
        <ele>255</ele>
        <time>2016-03-30T11:51:42.000Z</time>
      </trkpt>
      <trkpt lat="45.21569" lon="5.69522">
        <ele>253</ele>
        <time>2016-03-30T11:51:43.000Z</time>
      </trkpt>
      <trkpt lat="45.21556" lon="5.69536">
        <ele>252</ele>
        <time>2016-03-30T11:51:44.000Z</time>
      </trkpt>
      <trkpt lat="45.21544" lon="5.69546">
        <ele>252</ele>
        <time>2016-03-30T11:51:45.000Z</time>
      </trkpt>
      <trkpt lat="45.21534" lon="5.69557">
        <ele>251</ele>
        <time>2016-03-30T11:51:46.000Z</time>
      </trkpt>
      <trkpt lat="45.21524" lon="5.69567">
        <ele>250</ele>
        <time>2016-03-30T11:51:47.000Z</time>
      </trkpt>
      <trkpt lat="45.21515" lon="5.69576">
        <ele>249</ele>
        <time>2016-03-30T11:51:48.000Z</time>
      </trkpt>
      <trkpt lat="45.21505" lon="5.69587">
        <ele>248</ele>
        <time>2016-03-30T11:51:49.000Z</time>
      </trkpt>
      <trkpt lat="45.21496" lon="5.69599">
        <ele>247</ele>
        <time>2016-03-30T11:51:50.000Z</time>
      </trkpt>
      <trkpt lat="45.21487" lon="5.69613">
        <ele>246</ele>
        <time>2016-03-30T11:51:51.000Z</time>
      </trkpt>
      <trkpt lat="45.21479" lon="5.69624">
        <ele>245</ele>
        <time>2016-03-30T11:51:52.000Z</time>
      </trkpt>
      <trkpt lat="45.2147" lon="5.69639">
        <ele>248</ele>
        <time>2016-03-30T11:51:53.000Z</time>
      </trkpt>
      <trkpt lat="45.2146" lon="5.69654">
        <ele>249</ele>
        <time>2016-03-30T11:51:54.000Z</time>
      </trkpt>
      <trkpt lat="45.21452" lon="5.6967">
        <ele>249</ele>
        <time>2016-03-30T11:51:55.000Z</time>
      </trkpt>
      <trkpt lat="45.21442" lon="5.69682">
        <ele>250</ele>
        <time>2016-03-30T11:51:56.000Z</time>
      </trkpt>
      <trkpt lat="45.21434" lon="5.69699">
        <ele>250</ele>
        <time>2016-03-30T11:51:57.000Z</time>
      </trkpt>
      <trkpt lat="45.21424" lon="5.69713">
        <ele>250</ele>
        <time>2016-03-30T11:51:58.000Z</time>
      </trkpt>
      <trkpt lat="45.21419" lon="5.69729">
        <ele>250</ele>
        <time>2016-03-30T11:51:59.000Z</time>
      </trkpt>
      <trkpt lat="45.21415" lon="5.69748">
        <ele>250</ele>
        <time>2016-03-30T11:52:00.000Z</time>
      </trkpt>
      <trkpt lat="45.2141" lon="5.69765">
        <ele>250</ele>
        <time>2016-03-30T11:52:01.000Z</time>
      </trkpt>
      <trkpt lat="45.21404" lon="5.69779">
        <ele>250</ele>
        <time>2016-03-30T11:52:02.000Z</time>
      </trkpt>
      <trkpt lat="45.21401" lon="5.69793">
        <ele>249</ele>
        <time>2016-03-30T11:52:03.000Z</time>
      </trkpt>
      <trkpt lat="45.21396" lon="5.69805">
        <ele>249</ele>
        <time>2016-03-30T11:52:04.000Z</time>
      </trkpt>
      <trkpt lat="45.21391" lon="5.69817">
        <ele>249</ele>
        <time>2016-03-30T11:52:05.000Z</time>
      </trkpt>
      <trkpt lat="45.21383" lon="5.69836">
        <ele>248</ele>
        <time>2016-03-30T11:52:07.000Z</time>
      </trkpt>
      <trkpt lat="45.21378" lon="5.6985">
        <ele>246</ele>
        <time>2016-03-30T11:52:09.000Z</time>
      </trkpt>
      <trkpt lat="45.21376" lon="5.69863">
        <ele>245</ele>
        <time>2016-03-30T11:52:12.000Z</time>
      </trkpt>
      <trkpt lat="45.21365" lon="5.6988">
        <ele>248</ele>
        <time>2016-03-30T11:52:26.000Z</time>
      </trkpt>
      <trkpt lat="45.21358" lon="5.69899">
        <ele>248</ele>
        <time>2016-03-30T11:52:27.000Z</time>
      </trkpt>
      <trkpt lat="45.21352" lon="5.69921">
        <ele>248</ele>
        <time>2016-03-30T11:52:28.000Z</time>
      </trkpt>
      <trkpt lat="45.2134" lon="5.69934">
        <ele>249</ele>
        <time>2016-03-30T11:52:29.000Z</time>
      </trkpt>
      <trkpt lat="45.21333" lon="5.69948">
        <ele>251</ele>
        <time>2016-03-30T11:52:30.000Z</time>
      </trkpt>
      <trkpt lat="45.21326" lon="5.69959">
        <ele>252</ele>
        <time>2016-03-30T11:52:31.000Z</time>
      </trkpt>
      <trkpt lat="45.21319" lon="5.6997">
        <ele>252</ele>
        <time>2016-03-30T11:52:32.000Z</time>
      </trkpt>
      <trkpt lat="45.21312" lon="5.6998">
        <ele>252</ele>
        <time>2016-03-30T11:52:33.000Z</time>
      </trkpt>
      <trkpt lat="45.21303" lon="5.69991">
        <ele>252</ele>
        <time>2016-03-30T11:52:34.000Z</time>
      </trkpt>
      <trkpt lat="45.21296" lon="5.70002">
        <ele>252</ele>
        <time>2016-03-30T11:52:35.000Z</time>
      </trkpt>
      <trkpt lat="45.21288" lon="5.70014">
        <ele>253</ele>
        <time>2016-03-30T11:52:37.000Z</time>
      </trkpt>
      <trkpt lat="45.21275" lon="5.70018">
        <ele>252</ele>
        <time>2016-03-30T11:52:49.000Z</time>
      </trkpt>
      <trkpt lat="45.21264" lon="5.70029">
        <ele>252</ele>
        <time>2016-03-30T11:52:50.000Z</time>
      </trkpt>
      <trkpt lat="45.21256" lon="5.70039">
        <ele>251</ele>
        <time>2016-03-30T11:52:52.000Z</time>
      </trkpt>
      <trkpt lat="45.21247" lon="5.7005">
        <ele>251</ele>
        <time>2016-03-30T11:52:53.000Z</time>
      </trkpt>
      <trkpt lat="45.21238" lon="5.70061">
        <ele>251</ele>
        <time>2016-03-30T11:52:54.000Z</time>
      </trkpt>
      <trkpt lat="45.21227" lon="5.70071">
        <ele>251</ele>
        <time>2016-03-30T11:52:55.000Z</time>
      </trkpt>
      <trkpt lat="45.21217" lon="5.70086">
        <ele>251</ele>
        <time>2016-03-30T11:52:56.000Z</time>
      </trkpt>
      <trkpt lat="45.21206" lon="5.70098">
        <ele>252</ele>
        <time>2016-03-30T11:52:57.000Z</time>
      </trkpt>
      <trkpt lat="45.21194" lon="5.70111">
        <ele>252</ele>
        <time>2016-03-30T11:52:58.000Z</time>
      </trkpt>
      <trkpt lat="45.21184" lon="5.70123">
        <ele>252</ele>
        <time>2016-03-30T11:52:59.000Z</time>
      </trkpt>
      <trkpt lat="45.21173" lon="5.70134">
        <ele>254</ele>
        <time>2016-03-30T11:53:00.000Z</time>
      </trkpt>
      <trkpt lat="45.21162" lon="5.70144">
        <ele>252</ele>
        <time>2016-03-30T11:53:01.000Z</time>
      </trkpt>
      <trkpt lat="45.21151" lon="5.70155">
        <ele>252</ele>
        <time>2016-03-30T11:53:02.000Z</time>
      </trkpt>
      <trkpt lat="45.21141" lon="5.70167">
        <ele>253</ele>
        <time>2016-03-30T11:53:03.000Z</time>
      </trkpt>
      <trkpt lat="45.21129" lon="5.7018">
        <ele>254</ele>
        <time>2016-03-30T11:53:04.000Z</time>
      </trkpt>
      <trkpt lat="45.21117" lon="5.70195">
        <ele>255</ele>
        <time>2016-03-30T11:53:05.000Z</time>
      </trkpt>
      <trkpt lat="45.21106" lon="5.70207">
        <ele>256</ele>
        <time>2016-03-30T11:53:06.000Z</time>
      </trkpt>
      <trkpt lat="45.21096" lon="5.70217">
        <ele>256</ele>
        <time>2016-03-30T11:53:07.000Z</time>
      </trkpt>
      <trkpt lat="45.21086" lon="5.70228">
        <ele>256</ele>
        <time>2016-03-30T11:53:08.000Z</time>
      </trkpt>
      <trkpt lat="45.21075" lon="5.70238">
        <ele>257</ele>
        <time>2016-03-30T11:53:09.000Z</time>
      </trkpt>
      <trkpt lat="45.21067" lon="5.70247">
        <ele>258</ele>
        <time>2016-03-30T11:53:10.000Z</time>
      </trkpt>
      <trkpt lat="45.21059" lon="5.70261">
        <ele>262</ele>
        <time>2016-03-30T11:53:35.000Z</time>
      </trkpt>
      <trkpt lat="45.2105" lon="5.70265">
        <ele>260</ele>
        <time>2016-03-30T11:53:36.000Z</time>
      </trkpt>
      <trkpt lat="45.21038" lon="5.70273">
        <ele>259</ele>
        <time>2016-03-30T11:53:37.000Z</time>
      </trkpt>
      <trkpt lat="45.21026" lon="5.70286">
        <ele>257</ele>
        <time>2016-03-30T11:53:38.000Z</time>
      </trkpt>
      <trkpt lat="45.21008" lon="5.70302">
        <ele>256</ele>
        <time>2016-03-30T11:53:39.000Z</time>
      </trkpt>
      <trkpt lat="45.20987" lon="5.7033">
        <ele>257</ele>
        <time>2016-03-30T11:53:40.000Z</time>
      </trkpt>
      <trkpt lat="45.20971" lon="5.70355">
        <ele>255</ele>
        <time>2016-03-30T11:53:41.000Z</time>
      </trkpt>
      <trkpt lat="45.20959" lon="5.70374">
        <ele>257</ele>
        <time>2016-03-30T11:53:42.000Z</time>
      </trkpt>
      <trkpt lat="45.20947" lon="5.70399">
        <ele>258</ele>
        <time>2016-03-30T11:53:43.000Z</time>
      </trkpt>
      <trkpt lat="45.20935" lon="5.70424">
        <ele>256</ele>
        <time>2016-03-30T11:53:44.000Z</time>
      </trkpt>
      <trkpt lat="45.20929" lon="5.7044">
        <ele>254</ele>
        <time>2016-03-30T11:53:45.000Z</time>
      </trkpt>
      <trkpt lat="45.20923" lon="5.70454">
        <ele>252</ele>
        <time>2016-03-30T11:53:46.000Z</time>
      </trkpt>
      <trkpt lat="45.20914" lon="5.7047">
        <ele>253</ele>
        <time>2016-03-30T11:53:47.000Z</time>
      </trkpt>
      <trkpt lat="45.2091" lon="5.70484">
        <ele>252</ele>
        <time>2016-03-30T11:53:48.000Z</time>
      </trkpt>
      <trkpt lat="45.20902" lon="5.70498">
        <ele>253</ele>
        <time>2016-03-30T11:53:49.000Z</time>
      </trkpt>
      <trkpt lat="45.20892" lon="5.70515">
        <ele>253</ele>
        <time>2016-03-30T11:53:50.000Z</time>
      </trkpt>
      <trkpt lat="45.20882" lon="5.70532">
        <ele>254</ele>
        <time>2016-03-30T11:53:51.000Z</time>
      </trkpt>
      <trkpt lat="45.20871" lon="5.70544">
        <ele>255</ele>
        <time>2016-03-30T11:53:52.000Z</time>
      </trkpt>
      <trkpt lat="45.20863" lon="5.70557">
        <ele>255</ele>
        <time>2016-03-30T11:53:53.000Z</time>
      </trkpt>
      <trkpt lat="45.20853" lon="5.7057">
        <ele>256</ele>
        <time>2016-03-30T11:53:54.000Z</time>
      </trkpt>
      <trkpt lat="45.20843" lon="5.70583">
        <ele>255</ele>
        <time>2016-03-30T11:53:55.000Z</time>
      </trkpt>
      <trkpt lat="45.20834" lon="5.70597">
        <ele>255</ele>
        <time>2016-03-30T11:53:56.000Z</time>
      </trkpt>
      <trkpt lat="45.20826" lon="5.70608">
        <ele>255</ele>
        <time>2016-03-30T11:53:57.000Z</time>
      </trkpt>
      <trkpt lat="45.20818" lon="5.7062">
        <ele>256</ele>
        <time>2016-03-30T11:53:59.000Z</time>
      </trkpt>
      <trkpt lat="45.20803" lon="5.70627">
        <ele>260</ele>
        <time>2016-03-30T11:54:18.000Z</time>
      </trkpt>
      <trkpt lat="45.20792" lon="5.70639">
        <ele>260</ele>
        <time>2016-03-30T11:54:19.000Z</time>
      </trkpt>
      <trkpt lat="45.20782" lon="5.70652">
        <ele>259</ele>
        <time>2016-03-30T11:54:20.000Z</time>
      </trkpt>
      <trkpt lat="45.20768" lon="5.70666">
        <ele>260</ele>
        <time>2016-03-30T11:54:21.000Z</time>
      </trkpt>
      <trkpt lat="45.20754" lon="5.70679">
        <ele>261</ele>
        <time>2016-03-30T11:54:23.000Z</time>
      </trkpt>
      <trkpt lat="45.20741" lon="5.70693">
        <ele>261</ele>
        <time>2016-03-30T11:54:25.000Z</time>
      </trkpt>
      <trkpt lat="45.20733" lon="5.707">
        <ele>259</ele>
        <time>2016-03-30T11:54:28.000Z</time>
      </trkpt>
      <trkpt lat="45.20723" lon="5.70709">
        <ele>260</ele>
        <time>2016-03-30T11:54:32.000Z</time>
      </trkpt>
      <trkpt lat="45.20714" lon="5.70715">
        <ele>262</ele>
        <time>2016-03-30T11:54:36.000Z</time>
      </trkpt>
      <trkpt lat="45.20696" lon="5.70728">
        <ele>260</ele>
        <time>2016-03-30T11:54:39.000Z</time>
      </trkpt>
      <trkpt lat="45.20686" lon="5.70735">
        <ele>259</ele>
        <time>2016-03-30T11:54:40.000Z</time>
      </trkpt>
      <trkpt lat="45.20673" lon="5.70739">
        <ele>258</ele>
        <time>2016-03-30T11:54:41.000Z</time>
      </trkpt>
      <trkpt lat="45.20657" lon="5.70748">
        <ele>260</ele>
        <time>2016-03-30T11:54:42.000Z</time>
      </trkpt>
      <trkpt lat="45.20637" lon="5.70751">
        <ele>259</ele>
        <time>2016-03-30T11:54:43.000Z</time>
      </trkpt>
      <trkpt lat="45.20624" lon="5.70757">
        <ele>258</ele>
        <time>2016-03-30T11:54:44.000Z</time>
      </trkpt>
      <trkpt lat="45.20609" lon="5.70768">
        <ele>258</ele>
        <time>2016-03-30T11:54:45.000Z</time>
      </trkpt>
      <trkpt lat="45.20593" lon="5.70793">
        <ele>258</ele>
        <time>2016-03-30T11:54:46.000Z</time>
      </trkpt>
      <trkpt lat="45.20583" lon="5.70813">
        <ele>259</ele>
        <time>2016-03-30T11:54:47.000Z</time>
      </trkpt>
      <trkpt lat="45.20574" lon="5.70836">
        <ele>259</ele>
        <time>2016-03-30T11:54:48.000Z</time>
      </trkpt>
      <trkpt lat="45.20566" lon="5.70863">
        <ele>259</ele>
        <time>2016-03-30T11:54:49.000Z</time>
      </trkpt>
      <trkpt lat="45.20561" lon="5.70905">
        <ele>259</ele>
        <time>2016-03-30T11:54:50.000Z</time>
      </trkpt>
      <trkpt lat="45.20553" lon="5.70938">
        <ele>259</ele>
        <time>2016-03-30T11:54:51.000Z</time>
      </trkpt>
      <trkpt lat="45.20542" lon="5.70966">
        <ele>259</ele>
        <time>2016-03-30T11:54:52.000Z</time>
      </trkpt>
      <trkpt lat="45.20531" lon="5.70996">
        <ele>260</ele>
        <time>2016-03-30T11:54:53.000Z</time>
      </trkpt>
      <trkpt lat="45.20522" lon="5.71025">
        <ele>259</ele>
        <time>2016-03-30T11:54:54.000Z</time>
      </trkpt>
      <trkpt lat="45.20512" lon="5.71056">
        <ele>259</ele>
        <time>2016-03-30T11:54:55.000Z</time>
      </trkpt>
      <trkpt lat="45.20502" lon="5.71086">
        <ele>258</ele>
        <time>2016-03-30T11:54:56.000Z</time>
      </trkpt>
      <trkpt lat="45.2049" lon="5.71113">
        <ele>259</ele>
        <time>2016-03-30T11:54:57.000Z</time>
      </trkpt>
      <trkpt lat="45.20475" lon="5.71141">
        <ele>260</ele>
        <time>2016-03-30T11:54:58.000Z</time>
      </trkpt>
      <trkpt lat="45.20459" lon="5.71165">
        <ele>262</ele>
        <time>2016-03-30T11:54:59.000Z</time>
      </trkpt>
      <trkpt lat="45.20443" lon="5.71192">
        <ele>261</ele>
        <time>2016-03-30T11:55:00.000Z</time>
      </trkpt>
      <trkpt lat="45.20427" lon="5.71214">
        <ele>264</ele>
        <time>2016-03-30T11:55:01.000Z</time>
      </trkpt>
      <trkpt lat="45.20412" lon="5.71237">
        <ele>266</ele>
        <time>2016-03-30T11:55:02.000Z</time>
      </trkpt>
      <trkpt lat="45.204" lon="5.71254">
        <ele>269</ele>
        <time>2016-03-30T11:55:03.000Z</time>
      </trkpt>
      <trkpt lat="45.2038" lon="5.71277">
        <ele>269</ele>
        <time>2016-03-30T11:55:04.000Z</time>
      </trkpt>
      <trkpt lat="45.20372" lon="5.71292">
        <ele>265</ele>
        <time>2016-03-30T11:55:05.000Z</time>
      </trkpt>
      <trkpt lat="45.20358" lon="5.71311">
        <ele>264</ele>
        <time>2016-03-30T11:55:06.000Z</time>
      </trkpt>
      <trkpt lat="45.2034" lon="5.71331">
        <ele>263</ele>
        <time>2016-03-30T11:55:07.000Z</time>
      </trkpt>
      <trkpt lat="45.20329" lon="5.71346">
        <ele>265</ele>
        <time>2016-03-30T11:55:08.000Z</time>
      </trkpt>
      <trkpt lat="45.20304" lon="5.71373">
        <ele>268</ele>
        <time>2016-03-30T11:55:09.000Z</time>
      </trkpt>
      <trkpt lat="45.20287" lon="5.71395">
        <ele>266</ele>
        <time>2016-03-30T11:55:10.000Z</time>
      </trkpt>
      <trkpt lat="45.20267" lon="5.71419">
        <ele>267</ele>
        <time>2016-03-30T11:55:11.000Z</time>
      </trkpt>
      <trkpt lat="45.20252" lon="5.71438">
        <ele>269</ele>
        <time>2016-03-30T11:55:12.000Z</time>
      </trkpt>
      <trkpt lat="45.20238" lon="5.71455">
        <ele>267</ele>
        <time>2016-03-30T11:55:13.000Z</time>
      </trkpt>
      <trkpt lat="45.20225" lon="5.71473">
        <ele>266</ele>
        <time>2016-03-30T11:55:14.000Z</time>
      </trkpt>
      <trkpt lat="45.20209" lon="5.7149">
        <ele>265</ele>
        <time>2016-03-30T11:55:15.000Z</time>
      </trkpt>
      <trkpt lat="45.20192" lon="5.71508">
        <ele>264</ele>
        <time>2016-03-30T11:55:16.000Z</time>
      </trkpt>
      <trkpt lat="45.2018" lon="5.71523">
        <ele>263</ele>
        <time>2016-03-30T11:55:17.000Z</time>
      </trkpt>
      <trkpt lat="45.20164" lon="5.7154">
        <ele>264</ele>
        <time>2016-03-30T11:55:18.000Z</time>
      </trkpt>
      <trkpt lat="45.20148" lon="5.7156">
        <ele>263</ele>
        <time>2016-03-30T11:55:19.000Z</time>
      </trkpt>
      <trkpt lat="45.20131" lon="5.71575">
        <ele>262</ele>
        <time>2016-03-30T11:55:20.000Z</time>
      </trkpt>
      <trkpt lat="45.20115" lon="5.71586">
        <ele>261</ele>
        <time>2016-03-30T11:55:21.000Z</time>
      </trkpt>
      <trkpt lat="45.20097" lon="5.71599">
        <ele>264</ele>
        <time>2016-03-30T11:55:22.000Z</time>
      </trkpt>
      <trkpt lat="45.2008" lon="5.71611">
        <ele>263</ele>
        <time>2016-03-30T11:55:23.000Z</time>
      </trkpt>
      <trkpt lat="45.20061" lon="5.7162">
        <ele>263</ele>
        <time>2016-03-30T11:55:24.000Z</time>
      </trkpt>
      <trkpt lat="45.20041" lon="5.71628">
        <ele>264</ele>
        <time>2016-03-30T11:55:25.000Z</time>
      </trkpt>
      <trkpt lat="45.2002" lon="5.71639">
        <ele>264</ele>
        <time>2016-03-30T11:55:26.000Z</time>
      </trkpt>
      <trkpt lat="45.20003" lon="5.71638">
        <ele>263</ele>
        <time>2016-03-30T11:55:27.000Z</time>
      </trkpt>
      <trkpt lat="45.19986" lon="5.7164">
        <ele>262</ele>
        <time>2016-03-30T11:55:28.000Z</time>
      </trkpt>
      <trkpt lat="45.19964" lon="5.71644">
        <ele>263</ele>
        <time>2016-03-30T11:55:29.000Z</time>
      </trkpt>
      <trkpt lat="45.19941" lon="5.71643">
        <ele>264</ele>
        <time>2016-03-30T11:55:30.000Z</time>
      </trkpt>
      <trkpt lat="45.1992" lon="5.71641">
        <ele>264</ele>
        <time>2016-03-30T11:55:31.000Z</time>
      </trkpt>
      <trkpt lat="45.19901" lon="5.71641">
        <ele>263</ele>
        <time>2016-03-30T11:55:32.000Z</time>
      </trkpt>
      <trkpt lat="45.19883" lon="5.71638">
        <ele>263</ele>
        <time>2016-03-30T11:55:33.000Z</time>
      </trkpt>
      <trkpt lat="45.19864" lon="5.71629">
        <ele>262</ele>
        <time>2016-03-30T11:55:34.000Z</time>
      </trkpt>
      <trkpt lat="45.19847" lon="5.71623">
        <ele>261</ele>
        <time>2016-03-30T11:55:35.000Z</time>
      </trkpt>
      <trkpt lat="45.19826" lon="5.71616">
        <ele>262</ele>
        <time>2016-03-30T11:55:36.000Z</time>
      </trkpt>
      <trkpt lat="45.19807" lon="5.71607">
        <ele>263</ele>
        <time>2016-03-30T11:55:37.000Z</time>
      </trkpt>
      <trkpt lat="45.19788" lon="5.71602">
        <ele>262</ele>
        <time>2016-03-30T11:55:38.000Z</time>
      </trkpt>
      <trkpt lat="45.19775" lon="5.71604">
        <ele>262</ele>
        <time>2016-03-30T11:55:39.000Z</time>
      </trkpt>
      <trkpt lat="45.19754" lon="5.71597">
        <ele>262</ele>
        <time>2016-03-30T11:55:40.000Z</time>
      </trkpt>
      <trkpt lat="45.19734" lon="5.71591">
        <ele>262</ele>
        <time>2016-03-30T11:55:41.000Z</time>
      </trkpt>
      <trkpt lat="45.19714" lon="5.71587">
        <ele>262</ele>
        <time>2016-03-30T11:55:42.000Z</time>
      </trkpt>
      <trkpt lat="45.19695" lon="5.71584">
        <ele>261</ele>
        <time>2016-03-30T11:55:43.000Z</time>
      </trkpt>
      <trkpt lat="45.19675" lon="5.71584">
        <ele>260</ele>
        <time>2016-03-30T11:55:44.000Z</time>
      </trkpt>
      <trkpt lat="45.19655" lon="5.71583">
        <ele>260</ele>
        <time>2016-03-30T11:55:45.000Z</time>
      </trkpt>
      <trkpt lat="45.19635" lon="5.71584">
        <ele>258</ele>
        <time>2016-03-30T11:55:46.000Z</time>
      </trkpt>
      <trkpt lat="45.19616" lon="5.71595">
        <ele>256</ele>
        <time>2016-03-30T11:55:47.000Z</time>
      </trkpt>
      <trkpt lat="45.19603" lon="5.71587">
        <ele>255</ele>
        <time>2016-03-30T11:55:48.000Z</time>
      </trkpt>
      <trkpt lat="45.19582" lon="5.71594">
        <ele>259</ele>
        <time>2016-03-30T11:55:49.000Z</time>
      </trkpt>
      <trkpt lat="45.19562" lon="5.71605">
        <ele>260</ele>
        <time>2016-03-30T11:55:50.000Z</time>
      </trkpt>
      <trkpt lat="45.19542" lon="5.71616">
        <ele>262</ele>
        <time>2016-03-30T11:55:51.000Z</time>
      </trkpt>
      <trkpt lat="45.19522" lon="5.71629">
        <ele>262</ele>
        <time>2016-03-30T11:55:52.000Z</time>
      </trkpt>
      <trkpt lat="45.19502" lon="5.71643">
        <ele>264</ele>
        <time>2016-03-30T11:55:53.000Z</time>
      </trkpt>
      <trkpt lat="45.19484" lon="5.71662">
        <ele>263</ele>
        <time>2016-03-30T11:55:54.000Z</time>
      </trkpt>
      <trkpt lat="45.19466" lon="5.71678">
        <ele>265</ele>
        <time>2016-03-30T11:55:55.000Z</time>
      </trkpt>
      <trkpt lat="45.19452" lon="5.71688">
        <ele>263</ele>
        <time>2016-03-30T11:55:56.000Z</time>
      </trkpt>
      <trkpt lat="45.19442" lon="5.71703">
        <ele>263</ele>
        <time>2016-03-30T11:55:57.000Z</time>
      </trkpt>
      <trkpt lat="45.19432" lon="5.71715">
        <ele>263</ele>
        <time>2016-03-30T11:55:58.000Z</time>
      </trkpt>
      <trkpt lat="45.19421" lon="5.71729">
        <ele>263</ele>
        <time>2016-03-30T11:55:59.000Z</time>
      </trkpt>
      <trkpt lat="45.19411" lon="5.71744">
        <ele>264</ele>
        <time>2016-03-30T11:56:00.000Z</time>
      </trkpt>
      <trkpt lat="45.19404" lon="5.71757">
        <ele>264</ele>
        <time>2016-03-30T11:56:01.000Z</time>
      </trkpt>
      <trkpt lat="45.19397" lon="5.71771">
        <ele>264</ele>
        <time>2016-03-30T11:56:02.000Z</time>
      </trkpt>
      <trkpt lat="45.19391" lon="5.71783">
        <ele>264</ele>
        <time>2016-03-30T11:56:03.000Z</time>
      </trkpt>
      <trkpt lat="45.19386" lon="5.71794">
        <ele>267</ele>
        <time>2016-03-30T11:56:20.000Z</time>
      </trkpt>
      <trkpt lat="45.19382" lon="5.71813">
        <ele>266</ele>
        <time>2016-03-30T11:56:23.000Z</time>
      </trkpt>
      <trkpt lat="45.19375" lon="5.71838">
        <ele>265</ele>
        <time>2016-03-30T11:56:25.000Z</time>
      </trkpt>
      <trkpt lat="45.19371" lon="5.71852">
        <ele>264</ele>
        <time>2016-03-30T11:56:26.000Z</time>
      </trkpt>
      <trkpt lat="45.19368" lon="5.71866">
        <ele>265</ele>
        <time>2016-03-30T11:56:27.000Z</time>
      </trkpt>
      <trkpt lat="45.19363" lon="5.71879">
        <ele>264</ele>
        <time>2016-03-30T11:56:28.000Z</time>
      </trkpt>
      <trkpt lat="45.19356" lon="5.71902">
        <ele>263</ele>
        <time>2016-03-30T11:56:30.000Z</time>
      </trkpt>
      <trkpt lat="45.1935" lon="5.71928">
        <ele>262</ele>
        <time>2016-03-30T11:56:33.000Z</time>
      </trkpt>
      <trkpt lat="45.19348" lon="5.71945">
        <ele>260</ele>
        <time>2016-03-30T11:56:36.000Z</time>
      </trkpt>
      <trkpt lat="45.19345" lon="5.71959">
        <ele>260</ele>
        <time>2016-03-30T11:56:39.000Z</time>
      </trkpt>
      <trkpt lat="45.19346" lon="5.71978">
        <ele>260</ele>
        <time>2016-03-30T11:56:59.000Z</time>
      </trkpt>
      <trkpt lat="45.19346" lon="5.71995">
        <ele>262</ele>
        <time>2016-03-30T11:57:00.000Z</time>
      </trkpt>
      <trkpt lat="45.19346" lon="5.72009">
        <ele>262</ele>
        <time>2016-03-30T11:57:01.000Z</time>
      </trkpt>
      <trkpt lat="45.19347" lon="5.72032">
        <ele>261</ele>
        <time>2016-03-30T11:57:02.000Z</time>
      </trkpt>
      <trkpt lat="45.19345" lon="5.72049">
        <ele>263</ele>
        <time>2016-03-30T11:57:03.000Z</time>
      </trkpt>
      <trkpt lat="45.19348" lon="5.72064">
        <ele>262</ele>
        <time>2016-03-30T11:57:04.000Z</time>
      </trkpt>
      <trkpt lat="45.1935" lon="5.72082">
        <ele>263</ele>
        <time>2016-03-30T11:57:05.000Z</time>
      </trkpt>
      <trkpt lat="45.19349" lon="5.72104">
        <ele>264</ele>
        <time>2016-03-30T11:57:07.000Z</time>
      </trkpt>
      <trkpt lat="45.1935" lon="5.72128">
        <ele>266</ele>
        <time>2016-03-30T11:57:09.000Z</time>
      </trkpt>
      <trkpt lat="45.1935" lon="5.72153">
        <ele>264</ele>
        <time>2016-03-30T11:57:12.000Z</time>
      </trkpt>
      <trkpt lat="45.19351" lon="5.72166">
        <ele>264</ele>
        <time>2016-03-30T11:57:13.000Z</time>
      </trkpt>
      <trkpt lat="45.19352" lon="5.72181">
        <ele>264</ele>
        <time>2016-03-30T11:57:14.000Z</time>
      </trkpt>
      <trkpt lat="45.19352" lon="5.72196">
        <ele>264</ele>
        <time>2016-03-30T11:57:15.000Z</time>
      </trkpt>
      <trkpt lat="45.19355" lon="5.72212">
        <ele>263</ele>
        <time>2016-03-30T11:57:16.000Z</time>
      </trkpt>
      <trkpt lat="45.19356" lon="5.72237">
        <ele>264</ele>
        <time>2016-03-30T11:57:18.000Z</time>
      </trkpt>
      <trkpt lat="45.19356" lon="5.72262">
        <ele>264</ele>
        <time>2016-03-30T11:57:20.000Z</time>
      </trkpt>
      <trkpt lat="45.19356" lon="5.72275">
        <ele>264</ele>
        <time>2016-03-30T11:57:21.000Z</time>
      </trkpt>
      <trkpt lat="45.19357" lon="5.72291">
        <ele>263</ele>
        <time>2016-03-30T11:57:22.000Z</time>
      </trkpt>
      <trkpt lat="45.19357" lon="5.72306">
        <ele>263</ele>
        <time>2016-03-30T11:57:23.000Z</time>
      </trkpt>
      <trkpt lat="45.19358" lon="5.72322">
        <ele>263</ele>
        <time>2016-03-30T11:57:24.000Z</time>
      </trkpt>
      <trkpt lat="45.19358" lon="5.72337">
        <ele>263</ele>
        <time>2016-03-30T11:57:25.000Z</time>
      </trkpt>
      <trkpt lat="45.1936" lon="5.72361">
        <ele>262</ele>
        <time>2016-03-30T11:57:27.000Z</time>
      </trkpt>
      <trkpt lat="45.19362" lon="5.72381">
        <ele>262</ele>
        <time>2016-03-30T11:57:29.000Z</time>
      </trkpt>
      <trkpt lat="45.19357" lon="5.72394">
        <ele>261</ele>
        <time>2016-03-30T11:57:31.000Z</time>
      </trkpt>
      <trkpt lat="45.19347" lon="5.72402">
        <ele>261</ele>
        <time>2016-03-30T11:57:33.000Z</time>
      </trkpt>
      <trkpt lat="45.19335" lon="5.72401">
        <ele>261</ele>
        <time>2016-03-30T11:57:34.000Z</time>
      </trkpt>
      <trkpt lat="45.1932" lon="5.72401">
        <ele>259</ele>
        <time>2016-03-30T11:57:36.000Z</time>
      </trkpt>
      <trkpt lat="45.19307" lon="5.72405">
        <ele>258</ele>
        <time>2016-03-30T11:57:38.000Z</time>
      </trkpt>
      <trkpt lat="45.19296" lon="5.7241">
        <ele>259</ele>
        <time>2016-03-30T11:57:40.000Z</time>
      </trkpt>
      <trkpt lat="45.19286" lon="5.72413">
        <ele>261</ele>
        <time>2016-03-30T11:57:42.000Z</time>
      </trkpt>
      <trkpt lat="45.19276" lon="5.72417">
        <ele>260</ele>
        <time>2016-03-30T11:57:44.000Z</time>
      </trkpt>
      <trkpt lat="45.19272" lon="5.72431">
        <ele>260</ele>
        <time>2016-03-30T11:57:47.000Z</time>
      </trkpt>
      <trkpt lat="45.19274" lon="5.72447">
        <ele>261</ele>
        <time>2016-03-30T11:57:48.000Z</time>
      </trkpt>
      <trkpt lat="45.19277" lon="5.7246">
        <ele>260</ele>
        <time>2016-03-30T11:57:49.000Z</time>
      </trkpt>
      <trkpt lat="45.19281" lon="5.72473">
        <ele>260</ele>
        <time>2016-03-30T11:57:50.000Z</time>
      </trkpt>
      <trkpt lat="45.19283" lon="5.72486">
        <ele>260</ele>
        <time>2016-03-30T11:57:51.000Z</time>
      </trkpt>
      <trkpt lat="45.19287" lon="5.72499">
        <ele>260</ele>
        <time>2016-03-30T11:57:52.000Z</time>
      </trkpt>
      <trkpt lat="45.19289" lon="5.72512">
        <ele>260</ele>
        <time>2016-03-30T11:57:53.000Z</time>
      </trkpt>
      <trkpt lat="45.19294" lon="5.72536">
        <ele>260</ele>
        <time>2016-03-30T11:57:55.000Z</time>
      </trkpt>
      <trkpt lat="45.19299" lon="5.7255">
        <ele>258</ele>
        <time>2016-03-30T11:57:57.000Z</time>
      </trkpt>
      <trkpt lat="45.19303" lon="5.72563">
        <ele>259</ele>
        <time>2016-03-30T11:57:58.000Z</time>
      </trkpt>
      <trkpt lat="45.19307" lon="5.72581">
        <ele>260</ele>
        <time>2016-03-30T11:58:00.000Z</time>
      </trkpt>
      <trkpt lat="45.19312" lon="5.72602">
        <ele>259</ele>
        <time>2016-03-30T11:58:02.000Z</time>
      </trkpt>
      <trkpt lat="45.19316" lon="5.72619">
        <ele>260</ele>
        <time>2016-03-30T11:58:03.000Z</time>
      </trkpt>
      <trkpt lat="45.19318" lon="5.72635">
        <ele>261</ele>
        <time>2016-03-30T11:58:04.000Z</time>
      </trkpt>
      <trkpt lat="45.19321" lon="5.72649">
        <ele>261</ele>
        <time>2016-03-30T11:58:05.000Z</time>
      </trkpt>
      <trkpt lat="45.19324" lon="5.72663">
        <ele>260</ele>
        <time>2016-03-30T11:58:06.000Z</time>
      </trkpt>
      <trkpt lat="45.19328" lon="5.72686">
        <ele>259</ele>
        <time>2016-03-30T11:58:08.000Z</time>
      </trkpt>
      <trkpt lat="45.19332" lon="5.72698">
        <ele>259</ele>
        <time>2016-03-30T11:58:09.000Z</time>
      </trkpt>
      <trkpt lat="45.19335" lon="5.72711">
        <ele>259</ele>
        <time>2016-03-30T11:58:10.000Z</time>
      </trkpt>
      <trkpt lat="45.19338" lon="5.72726">
        <ele>260</ele>
        <time>2016-03-30T11:58:11.000Z</time>
      </trkpt>
      <trkpt lat="45.19341" lon="5.72741">
        <ele>260</ele>
        <time>2016-03-30T11:58:12.000Z</time>
      </trkpt>
      <trkpt lat="45.19344" lon="5.72757">
        <ele>260</ele>
        <time>2016-03-30T11:58:13.000Z</time>
      </trkpt>
      <trkpt lat="45.1935" lon="5.72773">
        <ele>260</ele>
        <time>2016-03-30T11:58:14.000Z</time>
      </trkpt>
      <trkpt lat="45.19356" lon="5.72789">
        <ele>260</ele>
        <time>2016-03-30T11:58:15.000Z</time>
      </trkpt>
      <trkpt lat="45.19359" lon="5.72803">
        <ele>261</ele>
        <time>2016-03-30T11:58:16.000Z</time>
      </trkpt>
      <trkpt lat="45.19361" lon="5.72816">
        <ele>261</ele>
        <time>2016-03-30T11:58:17.000Z</time>
      </trkpt>
      <trkpt lat="45.19364" lon="5.7283">
        <ele>261</ele>
        <time>2016-03-30T11:58:18.000Z</time>
      </trkpt>
      <trkpt lat="45.19367" lon="5.72842">
        <ele>262</ele>
        <time>2016-03-30T11:58:19.000Z</time>
      </trkpt>
      <trkpt lat="45.19371" lon="5.72854">
        <ele>261</ele>
        <time>2016-03-30T11:58:20.000Z</time>
      </trkpt>
      <trkpt lat="45.19378" lon="5.72875">
        <ele>262</ele>
        <time>2016-03-30T11:58:22.000Z</time>
      </trkpt>
      <trkpt lat="45.19378" lon="5.72897">
        <ele>262</ele>
        <time>2016-03-30T11:58:24.000Z</time>
      </trkpt>
      <trkpt lat="45.19387" lon="5.72917">
        <ele>262</ele>
        <time>2016-03-30T11:58:26.000Z</time>
      </trkpt>
      <trkpt lat="45.19393" lon="5.72927">
        <ele>261</ele>
        <time>2016-03-30T11:58:27.000Z</time>
      </trkpt>
      <trkpt lat="45.19397" lon="5.72951">
        <ele>258</ele>
        <time>2016-03-30T11:58:29.000Z</time>
      </trkpt>
      <trkpt lat="45.19402" lon="5.72962">
        <ele>258</ele>
        <time>2016-03-30T11:58:30.000Z</time>
      </trkpt>
      <trkpt lat="45.19406" lon="5.72973">
        <ele>258</ele>
        <time>2016-03-30T11:58:31.000Z</time>
      </trkpt>
      <trkpt lat="45.19413" lon="5.72984">
        <ele>259</ele>
        <time>2016-03-30T11:58:32.000Z</time>
      </trkpt>
      <trkpt lat="45.19424" lon="5.7299">
        <ele>259</ele>
        <time>2016-03-30T11:58:33.000Z</time>
      </trkpt>
      <trkpt lat="45.19432" lon="5.73001">
        <ele>259</ele>
        <time>2016-03-30T11:58:34.000Z</time>
      </trkpt>
      <trkpt lat="45.19442" lon="5.73012">
        <ele>259</ele>
        <time>2016-03-30T11:58:35.000Z</time>
      </trkpt>
      <trkpt lat="45.19456" lon="5.73021">
        <ele>261</ele>
        <time>2016-03-30T11:58:36.000Z</time>
      </trkpt>
      <trkpt lat="45.19468" lon="5.73034">
        <ele>261</ele>
        <time>2016-03-30T11:58:37.000Z</time>
      </trkpt>
      <trkpt lat="45.19476" lon="5.73047">
        <ele>262</ele>
        <time>2016-03-30T11:58:38.000Z</time>
      </trkpt>
      <trkpt lat="45.19486" lon="5.73061">
        <ele>262</ele>
        <time>2016-03-30T11:58:39.000Z</time>
      </trkpt>
      <trkpt lat="45.19492" lon="5.73073">
        <ele>261</ele>
        <time>2016-03-30T11:58:40.000Z</time>
      </trkpt>
      <trkpt lat="45.195" lon="5.73083">
        <ele>262</ele>
        <time>2016-03-30T11:58:41.000Z</time>
      </trkpt>
      <trkpt lat="45.19513" lon="5.731">
        <ele>262</ele>
        <time>2016-03-30T11:58:43.000Z</time>
      </trkpt>
      <trkpt lat="45.19519" lon="5.7311">
        <ele>262</ele>
        <time>2016-03-30T11:58:44.000Z</time>
      </trkpt>
      <trkpt lat="45.19533" lon="5.73127">
        <ele>262</ele>
        <time>2016-03-30T11:58:46.000Z</time>
      </trkpt>
      <trkpt lat="45.1954" lon="5.73136">
        <ele>262</ele>
        <time>2016-03-30T11:58:47.000Z</time>
      </trkpt>
      <trkpt lat="45.1955" lon="5.73152">
        <ele>262</ele>
        <time>2016-03-30T11:58:49.000Z</time>
      </trkpt>
      <trkpt lat="45.1956" lon="5.73167">
        <ele>262</ele>
        <time>2016-03-30T11:58:51.000Z</time>
      </trkpt>
      <trkpt lat="45.19569" lon="5.7318">
        <ele>262</ele>
        <time>2016-03-30T11:58:53.000Z</time>
      </trkpt>
      <trkpt lat="45.19576" lon="5.73199">
        <ele>263</ele>
        <time>2016-03-30T11:58:55.000Z</time>
      </trkpt>
      <trkpt lat="45.19575" lon="5.73211">
        <ele>262</ele>
        <time>2016-03-30T11:58:56.000Z</time>
      </trkpt>
      <trkpt lat="45.19584" lon="5.73222">
        <ele>260</ele>
        <time>2016-03-30T11:58:58.000Z</time>
      </trkpt>
      <trkpt lat="45.19596" lon="5.73239">
        <ele>262</ele>
        <time>2016-03-30T11:59:00.000Z</time>
      </trkpt>
      <trkpt lat="45.19602" lon="5.73249">
        <ele>261</ele>
        <time>2016-03-30T11:59:01.000Z</time>
      </trkpt>
      <trkpt lat="45.19614" lon="5.73265">
        <ele>260</ele>
        <time>2016-03-30T11:59:03.000Z</time>
      </trkpt>
      <trkpt lat="45.19624" lon="5.73281">
        <ele>261</ele>
        <time>2016-03-30T11:59:05.000Z</time>
      </trkpt>
      <trkpt lat="45.19638" lon="5.733">
        <ele>261</ele>
        <time>2016-03-30T11:59:07.000Z</time>
      </trkpt>
      <trkpt lat="45.19647" lon="5.73312">
        <ele>261</ele>
        <time>2016-03-30T11:59:08.000Z</time>
      </trkpt>
      <trkpt lat="45.19656" lon="5.73323">
        <ele>260</ele>
        <time>2016-03-30T11:59:09.000Z</time>
      </trkpt>
      <trkpt lat="45.19664" lon="5.73334">
        <ele>260</ele>
        <time>2016-03-30T11:59:10.000Z</time>
      </trkpt>
      <trkpt lat="45.19672" lon="5.73345">
        <ele>261</ele>
        <time>2016-03-30T11:59:11.000Z</time>
      </trkpt>
      <trkpt lat="45.19679" lon="5.73355">
        <ele>261</ele>
        <time>2016-03-30T11:59:12.000Z</time>
      </trkpt>
      <trkpt lat="45.19685" lon="5.73365">
        <ele>261</ele>
        <time>2016-03-30T11:59:13.000Z</time>
      </trkpt>
      <trkpt lat="45.19693" lon="5.7338">
        <ele>260</ele>
        <time>2016-03-30T11:59:15.000Z</time>
      </trkpt>
      <trkpt lat="45.197" lon="5.73393">
        <ele>261</ele>
        <time>2016-03-30T11:59:17.000Z</time>
      </trkpt>
      <trkpt lat="45.19714" lon="5.73386">
        <ele>258</ele>
        <time>2016-03-30T11:59:21.000Z</time>
      </trkpt>
      <trkpt lat="45.1972" lon="5.73376">
        <ele>259</ele>
        <time>2016-03-30T11:59:22.000Z</time>
      </trkpt>
      <trkpt lat="45.19728" lon="5.73355">
        <ele>259</ele>
        <time>2016-03-30T11:59:24.000Z</time>
      </trkpt>
      <trkpt lat="45.19732" lon="5.73342">
        <ele>259</ele>
        <time>2016-03-30T11:59:25.000Z</time>
      </trkpt>
      <trkpt lat="45.19736" lon="5.73328">
        <ele>259</ele>
        <time>2016-03-30T11:59:26.000Z</time>
      </trkpt>
      <trkpt lat="45.1974" lon="5.73314">
        <ele>258</ele>
        <time>2016-03-30T11:59:27.000Z</time>
      </trkpt>
      <trkpt lat="45.19744" lon="5.73303">
        <ele>258</ele>
        <time>2016-03-30T11:59:28.000Z</time>
      </trkpt>
      <trkpt lat="45.19751" lon="5.73285">
        <ele>256</ele>
        <time>2016-03-30T11:59:30.000Z</time>
      </trkpt>
      <trkpt lat="45.19755" lon="5.73271">
        <ele>256</ele>
        <time>2016-03-30T11:59:32.000Z</time>
      </trkpt>
      <trkpt lat="45.19758" lon="5.73258">
        <ele>255</ele>
        <time>2016-03-30T11:59:59.000Z</time>
      </trkpt>
      <trkpt lat="45.19773" lon="5.73253">
        <ele>262</ele>
        <time>2016-03-30T12:00:03.000Z</time>
      </trkpt>
      <trkpt lat="45.19782" lon="5.73254">
        <ele>262</ele>
        <time>2016-03-30T12:00:04.000Z</time>
      </trkpt>
      <trkpt lat="45.19793" lon="5.73257">
        <ele>259</ele>
        <time>2016-03-30T12:00:05.000Z</time>
      </trkpt>
      <trkpt lat="45.19802" lon="5.73259">
        <ele>258</ele>
        <time>2016-03-30T12:00:06.000Z</time>
      </trkpt>
      <trkpt lat="45.19812" lon="5.73263">
        <ele>258</ele>
        <time>2016-03-30T12:00:07.000Z</time>
      </trkpt>
      <trkpt lat="45.19822" lon="5.73267">
        <ele>257</ele>
        <time>2016-03-30T12:00:08.000Z</time>
      </trkpt>
      <trkpt lat="45.19833" lon="5.73268">
        <ele>256</ele>
        <time>2016-03-30T12:00:09.000Z</time>
      </trkpt>
      <trkpt lat="45.19844" lon="5.73271">
        <ele>254</ele>
        <time>2016-03-30T12:00:10.000Z</time>
      </trkpt>
      <trkpt lat="45.19856" lon="5.73274">
        <ele>256</ele>
        <time>2016-03-30T12:00:11.000Z</time>
      </trkpt>
      <trkpt lat="45.19866" lon="5.73279">
        <ele>257</ele>
        <time>2016-03-30T12:00:12.000Z</time>
      </trkpt>
      <trkpt lat="45.19877" lon="5.73284">
        <ele>257</ele>
        <time>2016-03-30T12:00:13.000Z</time>
      </trkpt>
      <trkpt lat="45.19887" lon="5.73287">
        <ele>257</ele>
        <time>2016-03-30T12:00:14.000Z</time>
      </trkpt>
      <trkpt lat="45.19899" lon="5.73288">
        <ele>257</ele>
        <time>2016-03-30T12:00:15.000Z</time>
      </trkpt>
      <trkpt lat="45.19909" lon="5.73292">
        <ele>257</ele>
        <time>2016-03-30T12:00:16.000Z</time>
      </trkpt>
      <trkpt lat="45.1992" lon="5.73295">
        <ele>256</ele>
        <time>2016-03-30T12:00:17.000Z</time>
      </trkpt>
      <trkpt lat="45.19932" lon="5.73299">
        <ele>256</ele>
        <time>2016-03-30T12:00:18.000Z</time>
      </trkpt>
      <trkpt lat="45.1995" lon="5.73307">
        <ele>257</ele>
        <time>2016-03-30T12:00:20.000Z</time>
      </trkpt>
      <trkpt lat="45.1996" lon="5.73311">
        <ele>258</ele>
        <time>2016-03-30T12:00:21.000Z</time>
      </trkpt>
      <trkpt lat="45.1997" lon="5.73317">
        <ele>258</ele>
        <time>2016-03-30T12:00:22.000Z</time>
      </trkpt>
      <trkpt lat="45.1998" lon="5.73323">
        <ele>258</ele>
        <time>2016-03-30T12:00:23.000Z</time>
      </trkpt>
      <trkpt lat="45.19991" lon="5.73329">
        <ele>257</ele>
        <time>2016-03-30T12:00:24.000Z</time>
      </trkpt>
      <trkpt lat="45.20001" lon="5.73335">
        <ele>258</ele>
        <time>2016-03-30T12:00:25.000Z</time>
      </trkpt>
      <trkpt lat="45.20013" lon="5.73339">
        <ele>258</ele>
        <time>2016-03-30T12:00:26.000Z</time>
      </trkpt>
      <trkpt lat="45.20024" lon="5.73343">
        <ele>258</ele>
        <time>2016-03-30T12:00:27.000Z</time>
      </trkpt>
      <trkpt lat="45.20035" lon="5.73347">
        <ele>257</ele>
        <time>2016-03-30T12:00:28.000Z</time>
      </trkpt>
      <trkpt lat="45.20046" lon="5.73352">
        <ele>257</ele>
        <time>2016-03-30T12:00:29.000Z</time>
      </trkpt>
      <trkpt lat="45.20056" lon="5.73356">
        <ele>257</ele>
        <time>2016-03-30T12:00:30.000Z</time>
      </trkpt>
      <trkpt lat="45.20067" lon="5.73361">
        <ele>257</ele>
        <time>2016-03-30T12:00:31.000Z</time>
      </trkpt>
      <trkpt lat="45.20078" lon="5.73365">
        <ele>256</ele>
        <time>2016-03-30T12:00:32.000Z</time>
      </trkpt>
      <trkpt lat="45.20087" lon="5.7337">
        <ele>256</ele>
        <time>2016-03-30T12:00:33.000Z</time>
      </trkpt>
      <trkpt lat="45.20097" lon="5.73373">
        <ele>257</ele>
        <time>2016-03-30T12:00:34.000Z</time>
      </trkpt>
      <trkpt lat="45.20107" lon="5.73375">
        <ele>256</ele>
        <time>2016-03-30T12:00:35.000Z</time>
      </trkpt>
      <trkpt lat="45.20117" lon="5.73378">
        <ele>257</ele>
        <time>2016-03-30T12:00:36.000Z</time>
      </trkpt>
      <trkpt lat="45.20129" lon="5.73381">
        <ele>257</ele>
        <time>2016-03-30T12:00:37.000Z</time>
      </trkpt>
      <trkpt lat="45.2014" lon="5.73386">
        <ele>256</ele>
        <time>2016-03-30T12:00:38.000Z</time>
      </trkpt>
      <trkpt lat="45.2015" lon="5.73389">
        <ele>256</ele>
        <time>2016-03-30T12:00:39.000Z</time>
      </trkpt>
      <trkpt lat="45.2016" lon="5.73394">
        <ele>257</ele>
        <time>2016-03-30T12:00:40.000Z</time>
      </trkpt>
      <trkpt lat="45.2017" lon="5.734">
        <ele>257</ele>
        <time>2016-03-30T12:00:41.000Z</time>
      </trkpt>
      <trkpt lat="45.20179" lon="5.73402">
        <ele>257</ele>
        <time>2016-03-30T12:00:42.000Z</time>
      </trkpt>
      <trkpt lat="45.20191" lon="5.73406">
        <ele>257</ele>
        <time>2016-03-30T12:00:44.000Z</time>
      </trkpt>
      <trkpt lat="45.20207" lon="5.73415">
        <ele>259</ele>
        <time>2016-03-30T12:00:46.000Z</time>
      </trkpt>
      <trkpt lat="45.20216" lon="5.7342">
        <ele>260</ele>
        <time>2016-03-30T12:00:47.000Z</time>
      </trkpt>
      <trkpt lat="45.20226" lon="5.7344">
        <ele>261</ele>
        <time>2016-03-30T12:00:49.000Z</time>
      </trkpt>
      <trkpt lat="45.20239" lon="5.73455">
        <ele>261</ele>
        <time>2016-03-30T12:00:51.000Z</time>
      </trkpt>
      <trkpt lat="45.20251" lon="5.73473">
        <ele>261</ele>
        <time>2016-03-30T12:00:53.000Z</time>
      </trkpt>
      <trkpt lat="45.20255" lon="5.73485">
        <ele>261</ele>
        <time>2016-03-30T12:00:54.000Z</time>
      </trkpt>
      <trkpt lat="45.20257" lon="5.73502">
        <ele>262</ele>
        <time>2016-03-30T12:00:55.000Z</time>
      </trkpt>
      <trkpt lat="45.20265" lon="5.73523">
        <ele>264</ele>
        <time>2016-03-30T12:00:57.000Z</time>
      </trkpt>
      <trkpt lat="45.20275" lon="5.73529">
        <ele>265</ele>
        <time>2016-03-30T12:00:58.000Z</time>
      </trkpt>
      <trkpt lat="45.20281" lon="5.73546">
        <ele>266</ele>
        <time>2016-03-30T12:01:00.000Z</time>
      </trkpt>
      <trkpt lat="45.20292" lon="5.73559">
        <ele>266</ele>
        <time>2016-03-30T12:01:02.000Z</time>
      </trkpt>
      <trkpt lat="45.20298" lon="5.73577">
        <ele>268</ele>
        <time>2016-03-30T12:01:04.000Z</time>
      </trkpt>
      <trkpt lat="45.20305" lon="5.73587">
        <ele>269</ele>
        <time>2016-03-30T12:01:05.000Z</time>
      </trkpt>
      <trkpt lat="45.20313" lon="5.73597">
        <ele>270</ele>
        <time>2016-03-30T12:01:06.000Z</time>
      </trkpt>
      <trkpt lat="45.20322" lon="5.73606">
        <ele>270</ele>
        <time>2016-03-30T12:01:07.000Z</time>
      </trkpt>
      <trkpt lat="45.20329" lon="5.73615">
        <ele>270</ele>
        <time>2016-03-30T12:01:08.000Z</time>
      </trkpt>
      <trkpt lat="45.20344" lon="5.73629">
        <ele>271</ele>
        <time>2016-03-30T12:01:10.000Z</time>
      </trkpt>
      <trkpt lat="45.20355" lon="5.73642">
        <ele>271</ele>
        <time>2016-03-30T12:01:12.000Z</time>
      </trkpt>
      <trkpt lat="45.20367" lon="5.73658">
        <ele>272</ele>
        <time>2016-03-30T12:01:14.000Z</time>
      </trkpt>
      <trkpt lat="45.20374" lon="5.73666">
        <ele>272</ele>
        <time>2016-03-30T12:01:15.000Z</time>
      </trkpt>
      <trkpt lat="45.20382" lon="5.73675">
        <ele>272</ele>
        <time>2016-03-30T12:01:16.000Z</time>
      </trkpt>
      <trkpt lat="45.20388" lon="5.73686">
        <ele>274</ele>
        <time>2016-03-30T12:01:17.000Z</time>
      </trkpt>
      <trkpt lat="45.20393" lon="5.73698">
        <ele>275</ele>
        <time>2016-03-30T12:01:18.000Z</time>
      </trkpt>
      <trkpt lat="45.20403" lon="5.73711">
        <ele>274</ele>
        <time>2016-03-30T12:01:20.000Z</time>
      </trkpt>
      <trkpt lat="45.20409" lon="5.73721">
        <ele>274</ele>
        <time>2016-03-30T12:01:21.000Z</time>
      </trkpt>
      <trkpt lat="45.20416" lon="5.73731">
        <ele>276</ele>
        <time>2016-03-30T12:01:22.000Z</time>
      </trkpt>
      <trkpt lat="45.20424" lon="5.73741">
        <ele>276</ele>
        <time>2016-03-30T12:01:23.000Z</time>
      </trkpt>
      <trkpt lat="45.20432" lon="5.73751">
        <ele>276</ele>
        <time>2016-03-30T12:01:24.000Z</time>
      </trkpt>
      <trkpt lat="45.2044" lon="5.73759">
        <ele>273</ele>
        <time>2016-03-30T12:01:25.000Z</time>
      </trkpt>
      <trkpt lat="45.20452" lon="5.73775">
        <ele>275</ele>
        <time>2016-03-30T12:01:27.000Z</time>
      </trkpt>
      <trkpt lat="45.20465" lon="5.73795">
        <ele>277</ele>
        <time>2016-03-30T12:01:29.000Z</time>
      </trkpt>
      <trkpt lat="45.20472" lon="5.73805">
        <ele>277</ele>
        <time>2016-03-30T12:01:30.000Z</time>
      </trkpt>
      <trkpt lat="45.20481" lon="5.7381">
        <ele>275</ele>
        <time>2016-03-30T12:01:31.000Z</time>
      </trkpt>
      <trkpt lat="45.20488" lon="5.73818">
        <ele>276</ele>
        <time>2016-03-30T12:01:32.000Z</time>
      </trkpt>
      <trkpt lat="45.20498" lon="5.73827">
        <ele>276</ele>
        <time>2016-03-30T12:01:33.000Z</time>
      </trkpt>
      <trkpt lat="45.2051" lon="5.73839">
        <ele>276</ele>
        <time>2016-03-30T12:01:35.000Z</time>
      </trkpt>
      <trkpt lat="45.20519" lon="5.73844">
        <ele>277</ele>
        <time>2016-03-30T12:01:57.000Z</time>
      </trkpt>
      <trkpt lat="45.20526" lon="5.73852">
        <ele>273</ele>
        <time>2016-03-30T12:02:11.000Z</time>
      </trkpt>
      <trkpt lat="45.20532" lon="5.73863">
        <ele>275</ele>
        <time>2016-03-30T12:02:12.000Z</time>
      </trkpt>
      <trkpt lat="45.20543" lon="5.7388">
        <ele>276</ele>
        <time>2016-03-30T12:02:14.000Z</time>
      </trkpt>
      <trkpt lat="45.20554" lon="5.73898">
        <ele>279</ele>
        <time>2016-03-30T12:02:16.000Z</time>
      </trkpt>
      <trkpt lat="45.20564" lon="5.73906">
        <ele>280</ele>
        <time>2016-03-30T12:02:17.000Z</time>
      </trkpt>
      <trkpt lat="45.20582" lon="5.73922">
        <ele>280</ele>
        <time>2016-03-30T12:02:19.000Z</time>
      </trkpt>
      <trkpt lat="45.20593" lon="5.73933">
        <ele>281</ele>
        <time>2016-03-30T12:02:20.000Z</time>
      </trkpt>
      <trkpt lat="45.20603" lon="5.73941">
        <ele>282</ele>
        <time>2016-03-30T12:02:21.000Z</time>
      </trkpt>
      <trkpt lat="45.20612" lon="5.73952">
        <ele>280</ele>
        <time>2016-03-30T12:02:22.000Z</time>
      </trkpt>
      <trkpt lat="45.20621" lon="5.73961">
        <ele>280</ele>
        <time>2016-03-30T12:02:23.000Z</time>
      </trkpt>
      <trkpt lat="45.20628" lon="5.73971">
        <ele>281</ele>
        <time>2016-03-30T12:02:24.000Z</time>
      </trkpt>
      <trkpt lat="45.20635" lon="5.73981">
        <ele>281</ele>
        <time>2016-03-30T12:02:25.000Z</time>
      </trkpt>
      <trkpt lat="45.20644" lon="5.73988">
        <ele>282</ele>
        <time>2016-03-30T12:02:26.000Z</time>
      </trkpt>
      <trkpt lat="45.2065" lon="5.73998">
        <ele>283</ele>
        <time>2016-03-30T12:02:27.000Z</time>
      </trkpt>
      <trkpt lat="45.2066" lon="5.7401">
        <ele>286</ele>
        <time>2016-03-30T12:02:29.000Z</time>
      </trkpt>
      <trkpt lat="45.20676" lon="5.74029">
        <ele>288</ele>
        <time>2016-03-30T12:02:31.000Z</time>
      </trkpt>
      <trkpt lat="45.20687" lon="5.74038">
        <ele>289</ele>
        <time>2016-03-30T12:02:32.000Z</time>
      </trkpt>
      <trkpt lat="45.20695" lon="5.74047">
        <ele>290</ele>
        <time>2016-03-30T12:02:33.000Z</time>
      </trkpt>
      <trkpt lat="45.20719" lon="5.74066">
        <ele>289</ele>
        <time>2016-03-30T12:02:35.000Z</time>
      </trkpt>
      <trkpt lat="45.20728" lon="5.74077">
        <ele>290</ele>
        <time>2016-03-30T12:02:36.000Z</time>
      </trkpt>
      <trkpt lat="45.20737" lon="5.74088">
        <ele>290</ele>
        <time>2016-03-30T12:02:37.000Z</time>
      </trkpt>
      <trkpt lat="45.20746" lon="5.741">
        <ele>292</ele>
        <time>2016-03-30T12:02:38.000Z</time>
      </trkpt>
      <trkpt lat="45.20755" lon="5.74106">
        <ele>294</ele>
        <time>2016-03-30T12:02:39.000Z</time>
      </trkpt>
      <trkpt lat="45.20762" lon="5.74115">
        <ele>296</ele>
        <time>2016-03-30T12:02:40.000Z</time>
      </trkpt>
      <trkpt lat="45.20769" lon="5.74123">
        <ele>297</ele>
        <time>2016-03-30T12:02:41.000Z</time>
      </trkpt>
      <trkpt lat="45.20781" lon="5.74144">
        <ele>299</ele>
        <time>2016-03-30T12:02:43.000Z</time>
      </trkpt>
      <trkpt lat="45.20789" lon="5.74155">
        <ele>302</ele>
        <time>2016-03-30T12:02:44.000Z</time>
      </trkpt>
      <trkpt lat="45.20799" lon="5.74163">
        <ele>303</ele>
        <time>2016-03-30T12:02:45.000Z</time>
      </trkpt>
      <trkpt lat="45.20807" lon="5.74169">
        <ele>304</ele>
        <time>2016-03-30T12:02:46.000Z</time>
      </trkpt>
      <trkpt lat="45.20819" lon="5.74174">
        <ele>303</ele>
        <time>2016-03-30T12:02:47.000Z</time>
      </trkpt>
      <trkpt lat="45.20829" lon="5.74181">
        <ele>304</ele>
        <time>2016-03-30T12:02:48.000Z</time>
      </trkpt>
      <trkpt lat="45.20841" lon="5.74187">
        <ele>304</ele>
        <time>2016-03-30T12:02:49.000Z</time>
      </trkpt>
      <trkpt lat="45.20857" lon="5.74194">
        <ele>305</ele>
        <time>2016-03-30T12:02:50.000Z</time>
      </trkpt>
      <trkpt lat="45.20871" lon="5.74199">
        <ele>305</ele>
        <time>2016-03-30T12:02:51.000Z</time>
      </trkpt>
      <trkpt lat="45.20882" lon="5.74202">
        <ele>306</ele>
        <time>2016-03-30T12:02:52.000Z</time>
      </trkpt>
      <trkpt lat="45.20893" lon="5.74207">
        <ele>306</ele>
        <time>2016-03-30T12:02:53.000Z</time>
      </trkpt>
      <trkpt lat="45.20903" lon="5.74212">
        <ele>307</ele>
        <time>2016-03-30T12:02:54.000Z</time>
      </trkpt>
      <trkpt lat="45.2091" lon="5.74222">
        <ele>309</ele>
        <time>2016-03-30T12:02:55.000Z</time>
      </trkpt>
      <trkpt lat="45.20918" lon="5.7423">
        <ele>310</ele>
        <time>2016-03-30T12:02:56.000Z</time>
      </trkpt>
      <trkpt lat="45.20925" lon="5.74246">
        <ele>313</ele>
        <time>2016-03-30T12:02:57.000Z</time>
      </trkpt>
      <trkpt lat="45.20932" lon="5.7426">
        <ele>315</ele>
        <time>2016-03-30T12:02:58.000Z</time>
      </trkpt>
      <trkpt lat="45.20935" lon="5.74276">
        <ele>318</ele>
        <time>2016-03-30T12:02:59.000Z</time>
      </trkpt>
      <trkpt lat="45.2094" lon="5.74292">
        <ele>319</ele>
        <time>2016-03-30T12:03:00.000Z</time>
      </trkpt>
      <trkpt lat="45.20945" lon="5.74306">
        <ele>321</ele>
        <time>2016-03-30T12:03:01.000Z</time>
      </trkpt>
      <trkpt lat="45.2095" lon="5.7432">
        <ele>323</ele>
        <time>2016-03-30T12:03:02.000Z</time>
      </trkpt>
      <trkpt lat="45.20959" lon="5.74333">
        <ele>325</ele>
        <time>2016-03-30T12:03:03.000Z</time>
      </trkpt>
      <trkpt lat="45.20966" lon="5.74346">
        <ele>325</ele>
        <time>2016-03-30T12:03:04.000Z</time>
      </trkpt>
      <trkpt lat="45.20975" lon="5.74357">
        <ele>326</ele>
        <time>2016-03-30T12:03:05.000Z</time>
      </trkpt>
      <trkpt lat="45.20983" lon="5.74367">
        <ele>327</ele>
        <time>2016-03-30T12:03:06.000Z</time>
      </trkpt>
      <trkpt lat="45.20994" lon="5.74374">
        <ele>328</ele>
        <time>2016-03-30T12:03:07.000Z</time>
      </trkpt>
      <trkpt lat="45.21002" lon="5.74385">
        <ele>329</ele>
        <time>2016-03-30T12:03:08.000Z</time>
      </trkpt>
      <trkpt lat="45.21011" lon="5.74397">
        <ele>329</ele>
        <time>2016-03-30T12:03:09.000Z</time>
      </trkpt>
      <trkpt lat="45.21017" lon="5.7441">
        <ele>330</ele>
        <time>2016-03-30T12:03:10.000Z</time>
      </trkpt>
      <trkpt lat="45.21023" lon="5.74427">
        <ele>331</ele>
        <time>2016-03-30T12:03:11.000Z</time>
      </trkpt>
      <trkpt lat="45.21031" lon="5.74438">
        <ele>332</ele>
        <time>2016-03-30T12:03:12.000Z</time>
      </trkpt>
      <trkpt lat="45.21039" lon="5.74451">
        <ele>333</ele>
        <time>2016-03-30T12:03:13.000Z</time>
      </trkpt>
      <trkpt lat="45.21046" lon="5.74464">
        <ele>334</ele>
        <time>2016-03-30T12:03:14.000Z</time>
      </trkpt>
      <trkpt lat="45.21054" lon="5.74475">
        <ele>335</ele>
        <time>2016-03-30T12:03:15.000Z</time>
      </trkpt>
      <trkpt lat="45.21062" lon="5.74486">
        <ele>336</ele>
        <time>2016-03-30T12:03:16.000Z</time>
      </trkpt>
      <trkpt lat="45.21071" lon="5.74498">
        <ele>337</ele>
        <time>2016-03-30T12:03:17.000Z</time>
      </trkpt>
      <trkpt lat="45.21079" lon="5.74511">
        <ele>337</ele>
        <time>2016-03-30T12:03:18.000Z</time>
      </trkpt>
      <trkpt lat="45.21086" lon="5.74523">
        <ele>314</ele>
        <time>2016-03-30T12:03:19.000Z</time>
      </trkpt>
      <trkpt lat="45.21093" lon="5.74536">
        <ele>322</ele>
        <time>2016-03-30T12:03:20.000Z</time>
      </trkpt>
      <trkpt lat="45.211" lon="5.7455">
        <ele>328</ele>
        <time>2016-03-30T12:03:21.000Z</time>
      </trkpt>
      <trkpt lat="45.21107" lon="5.74563">
        <ele>331</ele>
        <time>2016-03-30T12:03:22.000Z</time>
      </trkpt>
      <trkpt lat="45.21113" lon="5.74575">
        <ele>333</ele>
        <time>2016-03-30T12:03:23.000Z</time>
      </trkpt>
      <trkpt lat="45.21119" lon="5.74589">
        <ele>334</ele>
        <time>2016-03-30T12:03:24.000Z</time>
      </trkpt>
      <trkpt lat="45.21125" lon="5.7461">
        <ele>338</ele>
        <time>2016-03-30T12:03:25.000Z</time>
      </trkpt>
      <trkpt lat="45.21131" lon="5.74626">
        <ele>340</ele>
        <time>2016-03-30T12:03:26.000Z</time>
      </trkpt>
      <trkpt lat="45.21137" lon="5.74643">
        <ele>343</ele>
        <time>2016-03-30T12:03:27.000Z</time>
      </trkpt>
      <trkpt lat="45.21144" lon="5.74653">
        <ele>341</ele>
        <time>2016-03-30T12:03:28.000Z</time>
      </trkpt>
      <trkpt lat="45.21159" lon="5.7466">
        <ele>344</ele>
        <time>2016-03-30T12:03:29.000Z</time>
      </trkpt>
      <trkpt lat="45.21171" lon="5.74666">
        <ele>347</ele>
        <time>2016-03-30T12:03:30.000Z</time>
      </trkpt>
      <trkpt lat="45.21184" lon="5.7467">
        <ele>348</ele>
        <time>2016-03-30T12:03:31.000Z</time>
      </trkpt>
      <trkpt lat="45.21195" lon="5.74676">
        <ele>351</ele>
        <time>2016-03-30T12:03:32.000Z</time>
      </trkpt>
      <trkpt lat="45.21206" lon="5.74681">
        <ele>352</ele>
        <time>2016-03-30T12:03:33.000Z</time>
      </trkpt>
      <trkpt lat="45.21227" lon="5.7469">
        <ele>355</ele>
        <time>2016-03-30T12:03:35.000Z</time>
      </trkpt>
      <trkpt lat="45.21237" lon="5.74695">
        <ele>355</ele>
        <time>2016-03-30T12:03:36.000Z</time>
      </trkpt>
      <trkpt lat="45.21249" lon="5.74699">
        <ele>355</ele>
        <time>2016-03-30T12:03:37.000Z</time>
      </trkpt>
      <trkpt lat="45.2126" lon="5.74702">
        <ele>356</ele>
        <time>2016-03-30T12:03:38.000Z</time>
      </trkpt>
      <trkpt lat="45.21272" lon="5.74708">
        <ele>356</ele>
        <time>2016-03-30T12:03:39.000Z</time>
      </trkpt>
      <trkpt lat="45.21283" lon="5.74712">
        <ele>356</ele>
        <time>2016-03-30T12:03:40.000Z</time>
      </trkpt>
      <trkpt lat="45.21293" lon="5.7472">
        <ele>357</ele>
        <time>2016-03-30T12:03:41.000Z</time>
      </trkpt>
      <trkpt lat="45.21306" lon="5.74723">
        <ele>357</ele>
        <time>2016-03-30T12:03:42.000Z</time>
      </trkpt>
      <trkpt lat="45.21318" lon="5.74726">
        <ele>359</ele>
        <time>2016-03-30T12:03:43.000Z</time>
      </trkpt>
      <trkpt lat="45.21329" lon="5.74731">
        <ele>359</ele>
        <time>2016-03-30T12:03:44.000Z</time>
      </trkpt>
      <trkpt lat="45.21339" lon="5.74736">
        <ele>360</ele>
        <time>2016-03-30T12:03:45.000Z</time>
      </trkpt>
      <trkpt lat="45.21351" lon="5.74738">
        <ele>360</ele>
        <time>2016-03-30T12:03:46.000Z</time>
      </trkpt>
      <trkpt lat="45.2136" lon="5.74739">
        <ele>362</ele>
        <time>2016-03-30T12:03:47.000Z</time>
      </trkpt>
      <trkpt lat="45.21369" lon="5.74741">
        <ele>363</ele>
        <time>2016-03-30T12:03:48.000Z</time>
      </trkpt>
      <trkpt lat="45.2138" lon="5.74744">
        <ele>363</ele>
        <time>2016-03-30T12:03:49.000Z</time>
      </trkpt>
      <trkpt lat="45.2139" lon="5.74746">
        <ele>365</ele>
        <time>2016-03-30T12:03:50.000Z</time>
      </trkpt>
      <trkpt lat="45.214" lon="5.74744">
        <ele>366</ele>
        <time>2016-03-30T12:03:51.000Z</time>
      </trkpt>
      <trkpt lat="45.2141" lon="5.74742">
        <ele>366</ele>
        <time>2016-03-30T12:03:52.000Z</time>
      </trkpt>
      <trkpt lat="45.21421" lon="5.74743">
        <ele>366</ele>
        <time>2016-03-30T12:03:53.000Z</time>
      </trkpt>
      <trkpt lat="45.21431" lon="5.74747">
        <ele>355</ele>
        <time>2016-03-30T12:03:54.000Z</time>
      </trkpt>
      <trkpt lat="45.21453" lon="5.74758">
        <ele>360</ele>
        <time>2016-03-30T12:03:56.000Z</time>
      </trkpt>
      <trkpt lat="45.21463" lon="5.74782">
        <ele>364</ele>
        <time>2016-03-30T12:03:58.000Z</time>
      </trkpt>
      <trkpt lat="45.21478" lon="5.74806">
        <ele>368</ele>
        <time>2016-03-30T12:04:00.000Z</time>
      </trkpt>
      <trkpt lat="45.21482" lon="5.74818">
        <ele>370</ele>
        <time>2016-03-30T12:04:01.000Z</time>
      </trkpt>
      <trkpt lat="45.21494" lon="5.74834">
        <ele>373</ele>
        <time>2016-03-30T12:04:03.000Z</time>
      </trkpt>
      <trkpt lat="45.21515" lon="5.74841">
        <ele>376</ele>
        <time>2016-03-30T12:04:06.000Z</time>
      </trkpt>
      <trkpt lat="45.21526" lon="5.74854">
        <ele>379</ele>
        <time>2016-03-30T12:04:08.000Z</time>
      </trkpt>
      <trkpt lat="45.21537" lon="5.74871">
        <ele>381</ele>
        <time>2016-03-30T12:04:10.000Z</time>
      </trkpt>
      <trkpt lat="45.21539" lon="5.74886">
        <ele>383</ele>
        <time>2016-03-30T12:04:11.000Z</time>
      </trkpt>
      <trkpt lat="45.21545" lon="5.7492">
        <ele>387</ele>
        <time>2016-03-30T12:04:14.000Z</time>
      </trkpt>
      <trkpt lat="45.21557" lon="5.74943">
        <ele>389</ele>
        <time>2016-03-30T12:04:16.000Z</time>
      </trkpt>
      <trkpt lat="45.21565" lon="5.74955">
        <ele>388</ele>
        <time>2016-03-30T12:04:17.000Z</time>
      </trkpt>
      <trkpt lat="45.21573" lon="5.74962">
        <ele>388</ele>
        <time>2016-03-30T12:04:18.000Z</time>
      </trkpt>
      <trkpt lat="45.21592" lon="5.7497">
        <ele>388</ele>
        <time>2016-03-30T12:04:20.000Z</time>
      </trkpt>
      <trkpt lat="45.216" lon="5.74978">
        <ele>390</ele>
        <time>2016-03-30T12:04:21.000Z</time>
      </trkpt>
      <trkpt lat="45.21616" lon="5.74984">
        <ele>390</ele>
        <time>2016-03-30T12:04:23.000Z</time>
      </trkpt>
      <trkpt lat="45.21626" lon="5.74998">
        <ele>392</ele>
        <time>2016-03-30T12:04:25.000Z</time>
      </trkpt>
      <trkpt lat="45.21633" lon="5.75016">
        <ele>392</ele>
        <time>2016-03-30T12:04:27.000Z</time>
      </trkpt>
      <trkpt lat="45.21638" lon="5.75037">
        <ele>392</ele>
        <time>2016-03-30T12:04:29.000Z</time>
      </trkpt>
      <trkpt lat="45.21642" lon="5.7506">
        <ele>394</ele>
        <time>2016-03-30T12:04:31.000Z</time>
      </trkpt>
      <trkpt lat="45.21647" lon="5.75078">
        <ele>394</ele>
        <time>2016-03-30T12:04:33.000Z</time>
      </trkpt>
      <trkpt lat="45.21653" lon="5.75099">
        <ele>399</ele>
        <time>2016-03-30T12:04:36.000Z</time>
      </trkpt>
      <trkpt lat="45.21656" lon="5.75114">
        <ele>403</ele>
        <time>2016-03-30T12:04:38.000Z</time>
      </trkpt>
      <trkpt lat="45.21663" lon="5.75133">
        <ele>403</ele>
        <time>2016-03-30T12:04:40.000Z</time>
      </trkpt>
      <trkpt lat="45.21668" lon="5.75149">
        <ele>403</ele>
        <time>2016-03-30T12:04:41.000Z</time>
      </trkpt>
      <trkpt lat="45.21672" lon="5.75168">
        <ele>405</ele>
        <time>2016-03-30T12:04:42.000Z</time>
      </trkpt>
      <trkpt lat="45.21674" lon="5.75184">
        <ele>408</ele>
        <time>2016-03-30T12:04:43.000Z</time>
      </trkpt>
      <trkpt lat="45.21677" lon="5.75201">
        <ele>408</ele>
        <time>2016-03-30T12:04:44.000Z</time>
      </trkpt>
      <trkpt lat="45.21679" lon="5.75218">
        <ele>408</ele>
        <time>2016-03-30T12:04:45.000Z</time>
      </trkpt>
      <trkpt lat="45.21673" lon="5.75228">
        <ele>410</ele>
        <time>2016-03-30T12:04:46.000Z</time>
      </trkpt>
      <trkpt lat="45.21667" lon="5.7524">
        <ele>411</ele>
        <time>2016-03-30T12:04:47.000Z</time>
      </trkpt>
      <trkpt lat="45.21659" lon="5.7525">
        <ele>411</ele>
        <time>2016-03-30T12:04:48.000Z</time>
      </trkpt>
      <trkpt lat="45.21651" lon="5.75256">
        <ele>410</ele>
        <time>2016-03-30T12:04:49.000Z</time>
      </trkpt>
      <trkpt lat="45.21642" lon="5.75267">
        <ele>411</ele>
        <time>2016-03-30T12:04:50.000Z</time>
      </trkpt>
      <trkpt lat="45.21636" lon="5.75277">
        <ele>411</ele>
        <time>2016-03-30T12:04:51.000Z</time>
      </trkpt>
      <trkpt lat="45.21631" lon="5.75305">
        <ele>412</ele>
        <time>2016-03-30T12:04:53.000Z</time>
      </trkpt>
      <trkpt lat="45.21633" lon="5.7532">
        <ele>411</ele>
        <time>2016-03-30T12:04:54.000Z</time>
      </trkpt>
      <trkpt lat="45.21649" lon="5.75336">
        <ele>415</ele>
        <time>2016-03-30T12:04:55.000Z</time>
      </trkpt>
      <trkpt lat="45.21656" lon="5.75344">
        <ele>416</ele>
        <time>2016-03-30T12:04:56.000Z</time>
      </trkpt>
      <trkpt lat="45.21674" lon="5.75352">
        <ele>417</ele>
        <time>2016-03-30T12:04:58.000Z</time>
      </trkpt>
      <trkpt lat="45.21684" lon="5.75355">
        <ele>418</ele>
        <time>2016-03-30T12:04:59.000Z</time>
      </trkpt>
      <trkpt lat="45.21694" lon="5.7536">
        <ele>420</ele>
        <time>2016-03-30T12:05:00.000Z</time>
      </trkpt>
      <trkpt lat="45.21709" lon="5.75375">
        <ele>420</ele>
        <time>2016-03-30T12:05:02.000Z</time>
      </trkpt>
      <trkpt lat="45.21716" lon="5.75385">
        <ele>421</ele>
        <time>2016-03-30T12:05:03.000Z</time>
      </trkpt>
      <trkpt lat="45.21721" lon="5.75398">
        <ele>420</ele>
        <time>2016-03-30T12:05:04.000Z</time>
      </trkpt>
      <trkpt lat="45.21721" lon="5.75412">
        <ele>420</ele>
        <time>2016-03-30T12:05:05.000Z</time>
      </trkpt>
      <trkpt lat="45.21722" lon="5.75425">
        <ele>420</ele>
        <time>2016-03-30T12:05:06.000Z</time>
      </trkpt>
      <trkpt lat="45.21724" lon="5.75441">
        <ele>421</ele>
        <time>2016-03-30T12:05:07.000Z</time>
      </trkpt>
      <trkpt lat="45.21704" lon="5.75459">
        <ele>422</ele>
        <time>2016-03-30T12:05:09.000Z</time>
      </trkpt>
      <trkpt lat="45.21696" lon="5.75467">
        <ele>421</ele>
        <time>2016-03-30T12:05:10.000Z</time>
      </trkpt>
      <trkpt lat="45.2169" lon="5.75478">
        <ele>423</ele>
        <time>2016-03-30T12:05:11.000Z</time>
      </trkpt>
      <trkpt lat="45.21684" lon="5.75489">
        <ele>424</ele>
        <time>2016-03-30T12:05:12.000Z</time>
      </trkpt>
      <trkpt lat="45.21684" lon="5.75519">
        <ele>428</ele>
        <time>2016-03-30T12:05:14.000Z</time>
      </trkpt>
      <trkpt lat="45.21687" lon="5.75535">
        <ele>430</ele>
        <time>2016-03-30T12:05:15.000Z</time>
      </trkpt>
      <trkpt lat="45.21692" lon="5.7555">
        <ele>432</ele>
        <time>2016-03-30T12:05:16.000Z</time>
      </trkpt>
      <trkpt lat="45.21697" lon="5.75565">
        <ele>433</ele>
        <time>2016-03-30T12:05:17.000Z</time>
      </trkpt>
      <trkpt lat="45.21702" lon="5.75581">
        <ele>434</ele>
        <time>2016-03-30T12:05:18.000Z</time>
      </trkpt>
      <trkpt lat="45.21709" lon="5.75598">
        <ele>435</ele>
        <time>2016-03-30T12:05:19.000Z</time>
      </trkpt>
      <trkpt lat="45.21716" lon="5.75614">
        <ele>437</ele>
        <time>2016-03-30T12:05:20.000Z</time>
      </trkpt>
      <trkpt lat="45.21722" lon="5.75628">
        <ele>438</ele>
        <time>2016-03-30T12:05:21.000Z</time>
      </trkpt>
      <trkpt lat="45.21728" lon="5.75641">
        <ele>439</ele>
        <time>2016-03-30T12:05:22.000Z</time>
      </trkpt>
      <trkpt lat="45.21734" lon="5.75655">
        <ele>439</ele>
        <time>2016-03-30T12:05:23.000Z</time>
      </trkpt>
      <trkpt lat="45.2174" lon="5.7567">
        <ele>440</ele>
        <time>2016-03-30T12:05:24.000Z</time>
      </trkpt>
      <trkpt lat="45.21748" lon="5.75685">
        <ele>440</ele>
        <time>2016-03-30T12:05:25.000Z</time>
      </trkpt>
      <trkpt lat="45.21764" lon="5.7572">
        <ele>444</ele>
        <time>2016-03-30T12:05:27.000Z</time>
      </trkpt>
      <trkpt lat="45.21772" lon="5.75736">
        <ele>445</ele>
        <time>2016-03-30T12:05:28.000Z</time>
      </trkpt>
      <trkpt lat="45.2178" lon="5.7576">
        <ele>449</ele>
        <time>2016-03-30T12:05:29.000Z</time>
      </trkpt>
      <trkpt lat="45.21789" lon="5.75777">
        <ele>449</ele>
        <time>2016-03-30T12:05:30.000Z</time>
      </trkpt>
      <trkpt lat="45.21798" lon="5.75794">
        <ele>449</ele>
        <time>2016-03-30T12:05:31.000Z</time>
      </trkpt>
      <trkpt lat="45.21806" lon="5.75814">
        <ele>451</ele>
        <time>2016-03-30T12:05:32.000Z</time>
      </trkpt>
      <trkpt lat="45.21813" lon="5.7583">
        <ele>453</ele>
        <time>2016-03-30T12:05:33.000Z</time>
      </trkpt>
      <trkpt lat="45.21819" lon="5.75847">
        <ele>455</ele>
        <time>2016-03-30T12:05:34.000Z</time>
      </trkpt>
      <trkpt lat="45.21825" lon="5.7586">
        <ele>457</ele>
        <time>2016-03-30T12:05:35.000Z</time>
      </trkpt>
      <trkpt lat="45.21831" lon="5.75872">
        <ele>458</ele>
        <time>2016-03-30T12:05:36.000Z</time>
      </trkpt>
      <trkpt lat="45.21839" lon="5.75893">
        <ele>460</ele>
        <time>2016-03-30T12:05:38.000Z</time>
      </trkpt>
      <trkpt lat="45.21842" lon="5.75914">
        <ele>461</ele>
        <time>2016-03-30T12:05:40.000Z</time>
      </trkpt>
      <trkpt lat="45.21839" lon="5.7593">
        <ele>460</ele>
        <time>2016-03-30T12:05:42.000Z</time>
      </trkpt>
      <trkpt lat="45.21828" lon="5.75946">
        <ele>460</ele>
        <time>2016-03-30T12:05:43.000Z</time>
      </trkpt>
      <trkpt lat="45.21821" lon="5.7596">
        <ele>459</ele>
        <time>2016-03-30T12:05:44.000Z</time>
      </trkpt>
      <trkpt lat="45.21814" lon="5.75978">
        <ele>459</ele>
        <time>2016-03-30T12:05:45.000Z</time>
      </trkpt>
      <trkpt lat="45.21806" lon="5.75987">
        <ele>461</ele>
        <time>2016-03-30T12:05:46.000Z</time>
      </trkpt>
      <trkpt lat="45.218" lon="5.76001">
        <ele>462</ele>
        <time>2016-03-30T12:05:47.000Z</time>
      </trkpt>
      <trkpt lat="45.21786" lon="5.76009">
        <ele>462</ele>
        <time>2016-03-30T12:05:48.000Z</time>
      </trkpt>
      <trkpt lat="45.21772" lon="5.76013">
        <ele>464</ele>
        <time>2016-03-30T12:05:49.000Z</time>
      </trkpt>
      <trkpt lat="45.21761" lon="5.76016">
        <ele>465</ele>
        <time>2016-03-30T12:05:50.000Z</time>
      </trkpt>
      <trkpt lat="45.21747" lon="5.76018">
        <ele>465</ele>
        <time>2016-03-30T12:05:52.000Z</time>
      </trkpt>
      <trkpt lat="45.21742" lon="5.76036">
        <ele>467</ele>
        <time>2016-03-30T12:05:54.000Z</time>
      </trkpt>
      <trkpt lat="45.2175" lon="5.76044">
        <ele>468</ele>
        <time>2016-03-30T12:05:55.000Z</time>
      </trkpt>
      <trkpt lat="45.21764" lon="5.76055">
        <ele>472</ele>
        <time>2016-03-30T12:05:57.000Z</time>
      </trkpt>
      <trkpt lat="45.2178" lon="5.76058">
        <ele>475</ele>
        <time>2016-03-30T12:05:59.000Z</time>
      </trkpt>
      <trkpt lat="45.21796" lon="5.76055">
        <ele>479</ele>
        <time>2016-03-30T12:06:01.000Z</time>
      </trkpt>
      <trkpt lat="45.21815" lon="5.76048">
        <ele>479</ele>
        <time>2016-03-30T12:06:03.000Z</time>
      </trkpt>
      <trkpt lat="45.21825" lon="5.76045">
        <ele>480</ele>
        <time>2016-03-30T12:06:04.000Z</time>
      </trkpt>
      <trkpt lat="45.21835" lon="5.76042">
        <ele>481</ele>
        <time>2016-03-30T12:06:05.000Z</time>
      </trkpt>
      <trkpt lat="45.21847" lon="5.7604">
        <ele>482</ele>
        <time>2016-03-30T12:06:06.000Z</time>
      </trkpt>
      <trkpt lat="45.21856" lon="5.76036">
        <ele>481</ele>
        <time>2016-03-30T12:06:07.000Z</time>
      </trkpt>
      <trkpt lat="45.21867" lon="5.76035">
        <ele>482</ele>
        <time>2016-03-30T12:06:08.000Z</time>
      </trkpt>
      <trkpt lat="45.21878" lon="5.76032">
        <ele>483</ele>
        <time>2016-03-30T12:06:09.000Z</time>
      </trkpt>
      <trkpt lat="45.21888" lon="5.76049">
        <ele>488</ele>
        <time>2016-03-30T12:06:11.000Z</time>
      </trkpt>
      <trkpt lat="45.21893" lon="5.7606">
        <ele>488</ele>
        <time>2016-03-30T12:06:12.000Z</time>
      </trkpt>
      <trkpt lat="45.219" lon="5.76073">
        <ele>490</ele>
        <time>2016-03-30T12:06:13.000Z</time>
      </trkpt>
      <trkpt lat="45.21898" lon="5.76087">
        <ele>491</ele>
        <time>2016-03-30T12:06:14.000Z</time>
      </trkpt>
      <trkpt lat="45.21899" lon="5.76101">
        <ele>493</ele>
        <time>2016-03-30T12:06:15.000Z</time>
      </trkpt>
      <trkpt lat="45.21901" lon="5.76116">
        <ele>494</ele>
        <time>2016-03-30T12:06:16.000Z</time>
      </trkpt>
      <trkpt lat="45.21903" lon="5.76131">
        <ele>497</ele>
        <time>2016-03-30T12:06:17.000Z</time>
      </trkpt>
      <trkpt lat="45.2191" lon="5.76155">
        <ele>498</ele>
        <time>2016-03-30T12:06:19.000Z</time>
      </trkpt>
      <trkpt lat="45.21916" lon="5.76169">
        <ele>498</ele>
        <time>2016-03-30T12:06:20.000Z</time>
      </trkpt>
      <trkpt lat="45.21922" lon="5.76184">
        <ele>498</ele>
        <time>2016-03-30T12:06:21.000Z</time>
      </trkpt>
      <trkpt lat="45.21928" lon="5.76197">
        <ele>497</ele>
        <time>2016-03-30T12:06:22.000Z</time>
      </trkpt>
      <trkpt lat="45.21938" lon="5.76203">
        <ele>498</ele>
        <time>2016-03-30T12:06:23.000Z</time>
      </trkpt>
      <trkpt lat="45.21949" lon="5.76206">
        <ele>498</ele>
        <time>2016-03-30T12:06:24.000Z</time>
      </trkpt>
      <trkpt lat="45.21957" lon="5.76216">
        <ele>498</ele>
        <time>2016-03-30T12:06:25.000Z</time>
      </trkpt>
      <trkpt lat="45.21964" lon="5.76225">
        <ele>500</ele>
        <time>2016-03-30T12:06:26.000Z</time>
      </trkpt>
      <trkpt lat="45.21971" lon="5.76234">
        <ele>501</ele>
        <time>2016-03-30T12:06:27.000Z</time>
      </trkpt>
      <trkpt lat="45.21978" lon="5.76243">
        <ele>502</ele>
        <time>2016-03-30T12:06:28.000Z</time>
      </trkpt>
      <trkpt lat="45.21985" lon="5.76253">
        <ele>503</ele>
        <time>2016-03-30T12:06:29.000Z</time>
      </trkpt>
      <trkpt lat="45.21991" lon="5.76266">
        <ele>504</ele>
        <time>2016-03-30T12:06:30.000Z</time>
      </trkpt>
      <trkpt lat="45.2199" lon="5.76282">
        <ele>506</ele>
        <time>2016-03-30T12:06:31.000Z</time>
      </trkpt>
      <trkpt lat="45.21998" lon="5.76294">
        <ele>506</ele>
        <time>2016-03-30T12:06:32.000Z</time>
      </trkpt>
      <trkpt lat="45.22006" lon="5.76304">
        <ele>506</ele>
        <time>2016-03-30T12:06:33.000Z</time>
      </trkpt>
      <trkpt lat="45.22012" lon="5.76318">
        <ele>508</ele>
        <time>2016-03-30T12:06:34.000Z</time>
      </trkpt>
      <trkpt lat="45.22019" lon="5.76329">
        <ele>509</ele>
        <time>2016-03-30T12:06:35.000Z</time>
      </trkpt>
      <trkpt lat="45.22026" lon="5.76347">
        <ele>509</ele>
        <time>2016-03-30T12:06:36.000Z</time>
      </trkpt>
      <trkpt lat="45.22042" lon="5.76363">
        <ele>511</ele>
        <time>2016-03-30T12:06:37.000Z</time>
      </trkpt>
      <trkpt lat="45.2205" lon="5.76377">
        <ele>512</ele>
        <time>2016-03-30T12:06:38.000Z</time>
      </trkpt>
      <trkpt lat="45.22059" lon="5.7639">
        <ele>513</ele>
        <time>2016-03-30T12:06:39.000Z</time>
      </trkpt>
      <trkpt lat="45.22069" lon="5.76404">
        <ele>514</ele>
        <time>2016-03-30T12:06:40.000Z</time>
      </trkpt>
      <trkpt lat="45.2208" lon="5.76419">
        <ele>515</ele>
        <time>2016-03-30T12:06:41.000Z</time>
      </trkpt>
      <trkpt lat="45.22089" lon="5.76432">
        <ele>517</ele>
        <time>2016-03-30T12:06:42.000Z</time>
      </trkpt>
      <trkpt lat="45.22098" lon="5.76445">
        <ele>518</ele>
        <time>2016-03-30T12:06:43.000Z</time>
      </trkpt>
      <trkpt lat="45.22107" lon="5.76458">
        <ele>519</ele>
        <time>2016-03-30T12:06:44.000Z</time>
      </trkpt>
      <trkpt lat="45.22113" lon="5.76472">
        <ele>520</ele>
        <time>2016-03-30T12:06:45.000Z</time>
      </trkpt>
      <trkpt lat="45.22117" lon="5.76488">
        <ele>523</ele>
        <time>2016-03-30T12:06:46.000Z</time>
      </trkpt>
      <trkpt lat="45.22122" lon="5.76505">
        <ele>524</ele>
        <time>2016-03-30T12:06:47.000Z</time>
      </trkpt>
      <trkpt lat="45.22126" lon="5.76519">
        <ele>526</ele>
        <time>2016-03-30T12:06:48.000Z</time>
      </trkpt>
      <trkpt lat="45.22132" lon="5.76531">
        <ele>527</ele>
        <time>2016-03-30T12:06:49.000Z</time>
      </trkpt>
      <trkpt lat="45.22137" lon="5.76542">
        <ele>528</ele>
        <time>2016-03-30T12:06:50.000Z</time>
      </trkpt>
      <trkpt lat="45.22143" lon="5.76553">
        <ele>527</ele>
        <time>2016-03-30T12:06:51.000Z</time>
      </trkpt>
      <trkpt lat="45.22157" lon="5.76558">
        <ele>530</ele>
        <time>2016-03-30T12:06:52.000Z</time>
      </trkpt>
      <trkpt lat="45.22165" lon="5.76565">
        <ele>531</ele>
        <time>2016-03-30T12:06:53.000Z</time>
      </trkpt>
      <trkpt lat="45.22177" lon="5.76574">
        <ele>532</ele>
        <time>2016-03-30T12:06:54.000Z</time>
      </trkpt>
      <trkpt lat="45.22187" lon="5.76582">
        <ele>533</ele>
        <time>2016-03-30T12:06:55.000Z</time>
      </trkpt>
      <trkpt lat="45.22197" lon="5.76591">
        <ele>535</ele>
        <time>2016-03-30T12:06:56.000Z</time>
      </trkpt>
      <trkpt lat="45.22206" lon="5.76602">
        <ele>536</ele>
        <time>2016-03-30T12:06:57.000Z</time>
      </trkpt>
      <trkpt lat="45.22215" lon="5.76613">
        <ele>536</ele>
        <time>2016-03-30T12:06:58.000Z</time>
      </trkpt>
      <trkpt lat="45.22223" lon="5.76625">
        <ele>537</ele>
        <time>2016-03-30T12:06:59.000Z</time>
      </trkpt>
      <trkpt lat="45.2223" lon="5.76639">
        <ele>537</ele>
        <time>2016-03-30T12:07:00.000Z</time>
      </trkpt>
      <trkpt lat="45.22242" lon="5.76659">
        <ele>541</ele>
        <time>2016-03-30T12:07:01.000Z</time>
      </trkpt>
      <trkpt lat="45.22249" lon="5.76675">
        <ele>542</ele>
        <time>2016-03-30T12:07:02.000Z</time>
      </trkpt>
      <trkpt lat="45.22255" lon="5.76691">
        <ele>544</ele>
        <time>2016-03-30T12:07:03.000Z</time>
      </trkpt>
      <trkpt lat="45.2226" lon="5.76706">
        <ele>544</ele>
        <time>2016-03-30T12:07:04.000Z</time>
      </trkpt>
      <trkpt lat="45.22266" lon="5.76721">
        <ele>545</ele>
        <time>2016-03-30T12:07:05.000Z</time>
      </trkpt>
      <trkpt lat="45.22272" lon="5.76737">
        <ele>546</ele>
        <time>2016-03-30T12:07:06.000Z</time>
      </trkpt>
      <trkpt lat="45.22278" lon="5.76751">
        <ele>547</ele>
        <time>2016-03-30T12:07:07.000Z</time>
      </trkpt>
      <trkpt lat="45.22284" lon="5.76762">
        <ele>549</ele>
        <time>2016-03-30T12:07:08.000Z</time>
      </trkpt>
      <trkpt lat="45.22291" lon="5.76771">
        <ele>550</ele>
        <time>2016-03-30T12:07:09.000Z</time>
      </trkpt>
      <trkpt lat="45.22305" lon="5.76784">
        <ele>551</ele>
        <time>2016-03-30T12:07:11.000Z</time>
      </trkpt>
      <trkpt lat="45.22318" lon="5.76792">
        <ele>551</ele>
        <time>2016-03-30T12:07:13.000Z</time>
      </trkpt>
      <trkpt lat="45.22341" lon="5.7679">
        <ele>552</ele>
        <time>2016-03-30T12:07:15.000Z</time>
      </trkpt>
      <trkpt lat="45.22353" lon="5.76786">
        <ele>554</ele>
        <time>2016-03-30T12:07:16.000Z</time>
      </trkpt>
      <trkpt lat="45.22368" lon="5.76784">
        <ele>554</ele>
        <time>2016-03-30T12:07:17.000Z</time>
      </trkpt>
      <trkpt lat="45.22387" lon="5.76785">
        <ele>553</ele>
        <time>2016-03-30T12:07:19.000Z</time>
      </trkpt>
      <trkpt lat="45.22401" lon="5.76788">
        <ele>555</ele>
        <time>2016-03-30T12:07:20.000Z</time>
      </trkpt>
      <trkpt lat="45.22413" lon="5.76787">
        <ele>555</ele>
        <time>2016-03-30T12:07:21.000Z</time>
      </trkpt>
      <trkpt lat="45.22425" lon="5.76784">
        <ele>557</ele>
        <time>2016-03-30T12:07:22.000Z</time>
      </trkpt>
      <trkpt lat="45.22435" lon="5.76782">
        <ele>557</ele>
        <time>2016-03-30T12:07:23.000Z</time>
      </trkpt>
      <trkpt lat="45.22452" lon="5.76788">
        <ele>560</ele>
        <time>2016-03-30T12:07:25.000Z</time>
      </trkpt>
      <trkpt lat="45.22467" lon="5.76797">
        <ele>562</ele>
        <time>2016-03-30T12:07:27.000Z</time>
      </trkpt>
      <trkpt lat="45.22479" lon="5.76806">
        <ele>564</ele>
        <time>2016-03-30T12:07:28.000Z</time>
      </trkpt>
      <trkpt lat="45.2249" lon="5.76815">
        <ele>565</ele>
        <time>2016-03-30T12:07:29.000Z</time>
      </trkpt>
      <trkpt lat="45.22502" lon="5.76823">
        <ele>567</ele>
        <time>2016-03-30T12:07:30.000Z</time>
      </trkpt>
      <trkpt lat="45.22514" lon="5.76826">
        <ele>567</ele>
        <time>2016-03-30T12:07:31.000Z</time>
      </trkpt>
      <trkpt lat="45.2253" lon="5.76827">
        <ele>568</ele>
        <time>2016-03-30T12:07:33.000Z</time>
      </trkpt>
      <trkpt lat="45.22541" lon="5.76829">
        <ele>569</ele>
        <time>2016-03-30T12:07:34.000Z</time>
      </trkpt>
      <trkpt lat="45.22551" lon="5.76834">
        <ele>570</ele>
        <time>2016-03-30T12:07:35.000Z</time>
      </trkpt>
      <trkpt lat="45.22567" lon="5.76841">
        <ele>571</ele>
        <time>2016-03-30T12:07:37.000Z</time>
      </trkpt>
      <trkpt lat="45.22579" lon="5.76846">
        <ele>573</ele>
        <time>2016-03-30T12:07:39.000Z</time>
      </trkpt>
      <trkpt lat="45.22592" lon="5.7685">
        <ele>577</ele>
        <time>2016-03-30T12:07:41.000Z</time>
      </trkpt>
      <trkpt lat="45.22603" lon="5.76853">
        <ele>582</ele>
        <time>2016-03-30T12:07:46.000Z</time>
      </trkpt>
      <trkpt lat="45.22612" lon="5.76855">
        <ele>586</ele>
        <time>2016-03-30T12:08:53.000Z</time>
      </trkpt>
      <trkpt lat="45.22623" lon="5.76854">
        <ele>585</ele>
        <time>2016-03-30T12:08:56.000Z</time>
      </trkpt>
      <trkpt lat="45.22633" lon="5.76854">
        <ele>585</ele>
        <time>2016-03-30T12:08:58.000Z</time>
      </trkpt>
      <trkpt lat="45.22646" lon="5.76851">
        <ele>584</ele>
        <time>2016-03-30T12:09:00.000Z</time>
      </trkpt>
      <trkpt lat="45.22657" lon="5.76847">
        <ele>586</ele>
        <time>2016-03-30T12:09:02.000Z</time>
      </trkpt>
      <trkpt lat="45.2267" lon="5.76844">
        <ele>585</ele>
        <time>2016-03-30T12:09:03.000Z</time>
      </trkpt>
      <trkpt lat="45.22679" lon="5.76847">
        <ele>587</ele>
        <time>2016-03-30T12:09:04.000Z</time>
      </trkpt>
      <trkpt lat="45.2269" lon="5.76849">
        <ele>587</ele>
        <time>2016-03-30T12:09:05.000Z</time>
      </trkpt>
      <trkpt lat="45.22699" lon="5.76853">
        <ele>587</ele>
        <time>2016-03-30T12:09:06.000Z</time>
      </trkpt>
      <trkpt lat="45.22709" lon="5.7686">
        <ele>590</ele>
        <time>2016-03-30T12:09:07.000Z</time>
      </trkpt>
      <trkpt lat="45.22716" lon="5.76868">
        <ele>591</ele>
        <time>2016-03-30T12:09:08.000Z</time>
      </trkpt>
      <trkpt lat="45.22724" lon="5.76877">
        <ele>591</ele>
        <time>2016-03-30T12:09:09.000Z</time>
      </trkpt>
      <trkpt lat="45.22731" lon="5.7689">
        <ele>592</ele>
        <time>2016-03-30T12:09:10.000Z</time>
      </trkpt>
      <trkpt lat="45.22741" lon="5.769">
        <ele>594</ele>
        <time>2016-03-30T12:09:11.000Z</time>
      </trkpt>
      <trkpt lat="45.22749" lon="5.76907">
        <ele>596</ele>
        <time>2016-03-30T12:09:12.000Z</time>
      </trkpt>
      <trkpt lat="45.22757" lon="5.76914">
        <ele>597</ele>
        <time>2016-03-30T12:09:13.000Z</time>
      </trkpt>
      <trkpt lat="45.22769" lon="5.76914">
        <ele>597</ele>
        <time>2016-03-30T12:09:14.000Z</time>
      </trkpt>
      <trkpt lat="45.22778" lon="5.76919">
        <ele>598</ele>
        <time>2016-03-30T12:09:15.000Z</time>
      </trkpt>
      <trkpt lat="45.22789" lon="5.76923">
        <ele>599</ele>
        <time>2016-03-30T12:09:16.000Z</time>
      </trkpt>
      <trkpt lat="45.228" lon="5.76923">
        <ele>599</ele>
        <time>2016-03-30T12:09:17.000Z</time>
      </trkpt>
      <trkpt lat="45.22812" lon="5.76918">
        <ele>600</ele>
        <time>2016-03-30T12:09:18.000Z</time>
      </trkpt>
      <trkpt lat="45.22823" lon="5.76914">
        <ele>600</ele>
        <time>2016-03-30T12:09:19.000Z</time>
      </trkpt>
      <trkpt lat="45.22834" lon="5.76899">
        <ele>601</ele>
        <time>2016-03-30T12:09:20.000Z</time>
      </trkpt>
      <trkpt lat="45.22842" lon="5.76885">
        <ele>601</ele>
        <time>2016-03-30T12:09:21.000Z</time>
      </trkpt>
      <trkpt lat="45.22842" lon="5.76871">
        <ele>601</ele>
        <time>2016-03-30T12:09:22.000Z</time>
      </trkpt>
      <trkpt lat="45.22839" lon="5.76857">
        <ele>601</ele>
        <time>2016-03-30T12:09:23.000Z</time>
      </trkpt>
      <trkpt lat="45.22826" lon="5.76841">
        <ele>604</ele>
        <time>2016-03-30T12:09:24.000Z</time>
      </trkpt>
      <trkpt lat="45.22818" lon="5.76829">
        <ele>604</ele>
        <time>2016-03-30T12:09:25.000Z</time>
      </trkpt>
      <trkpt lat="45.2281" lon="5.76815">
        <ele>606</ele>
        <time>2016-03-30T12:09:26.000Z</time>
      </trkpt>
      <trkpt lat="45.22804" lon="5.76798">
        <ele>608</ele>
        <time>2016-03-30T12:09:27.000Z</time>
      </trkpt>
      <trkpt lat="45.22795" lon="5.76785">
        <ele>611</ele>
        <time>2016-03-30T12:09:28.000Z</time>
      </trkpt>
      <trkpt lat="45.22788" lon="5.76771">
        <ele>613</ele>
        <time>2016-03-30T12:09:29.000Z</time>
      </trkpt>
      <trkpt lat="45.22783" lon="5.76755">
        <ele>610</ele>
        <time>2016-03-30T12:09:30.000Z</time>
      </trkpt>
      <trkpt lat="45.22777" lon="5.7674">
        <ele>610</ele>
        <time>2016-03-30T12:09:31.000Z</time>
      </trkpt>
      <trkpt lat="45.22772" lon="5.76721">
        <ele>614</ele>
        <time>2016-03-30T12:09:32.000Z</time>
      </trkpt>
      <trkpt lat="45.22767" lon="5.76705">
        <ele>617</ele>
        <time>2016-03-30T12:09:33.000Z</time>
      </trkpt>
      <trkpt lat="45.22763" lon="5.76687">
        <ele>618</ele>
        <time>2016-03-30T12:09:34.000Z</time>
      </trkpt>
      <trkpt lat="45.22761" lon="5.7667">
        <ele>620</ele>
        <time>2016-03-30T12:09:35.000Z</time>
      </trkpt>
      <trkpt lat="45.22757" lon="5.76652">
        <ele>621</ele>
        <time>2016-03-30T12:09:36.000Z</time>
      </trkpt>
      <trkpt lat="45.22753" lon="5.76634">
        <ele>622</ele>
        <time>2016-03-30T12:09:37.000Z</time>
      </trkpt>
      <trkpt lat="45.2275" lon="5.76617">
        <ele>622</ele>
        <time>2016-03-30T12:09:38.000Z</time>
      </trkpt>
      <trkpt lat="45.22747" lon="5.76603">
        <ele>623</ele>
        <time>2016-03-30T12:09:39.000Z</time>
      </trkpt>
      <trkpt lat="45.22745" lon="5.76587">
        <ele>623</ele>
        <time>2016-03-30T12:09:40.000Z</time>
      </trkpt>
      <trkpt lat="45.22738" lon="5.76576">
        <ele>624</ele>
        <time>2016-03-30T12:09:41.000Z</time>
      </trkpt>
      <trkpt lat="45.22731" lon="5.76566">
        <ele>624</ele>
        <time>2016-03-30T12:09:42.000Z</time>
      </trkpt>
      <trkpt lat="45.22722" lon="5.76555">
        <ele>625</ele>
        <time>2016-03-30T12:09:43.000Z</time>
      </trkpt>
      <trkpt lat="45.22713" lon="5.76545">
        <ele>626</ele>
        <time>2016-03-30T12:09:44.000Z</time>
      </trkpt>
      <trkpt lat="45.22702" lon="5.76541">
        <ele>626</ele>
        <time>2016-03-30T12:09:45.000Z</time>
      </trkpt>
      <trkpt lat="45.22686" lon="5.76535">
        <ele>627</ele>
        <time>2016-03-30T12:09:46.000Z</time>
      </trkpt>
      <trkpt lat="45.22671" lon="5.76528">
        <ele>629</ele>
        <time>2016-03-30T12:09:47.000Z</time>
      </trkpt>
      <trkpt lat="45.22659" lon="5.76522">
        <ele>630</ele>
        <time>2016-03-30T12:09:48.000Z</time>
      </trkpt>
      <trkpt lat="45.22647" lon="5.76518">
        <ele>630</ele>
        <time>2016-03-30T12:09:49.000Z</time>
      </trkpt>
      <trkpt lat="45.22635" lon="5.76514">
        <ele>631</ele>
        <time>2016-03-30T12:09:50.000Z</time>
      </trkpt>
      <trkpt lat="45.22622" lon="5.76511">
        <ele>633</ele>
        <time>2016-03-30T12:09:51.000Z</time>
      </trkpt>
      <trkpt lat="45.22609" lon="5.76508">
        <ele>635</ele>
        <time>2016-03-30T12:09:52.000Z</time>
      </trkpt>
      <trkpt lat="45.22598" lon="5.76502">
        <ele>636</ele>
        <time>2016-03-30T12:09:53.000Z</time>
      </trkpt>
      <trkpt lat="45.22586" lon="5.76497">
        <ele>637</ele>
        <time>2016-03-30T12:09:54.000Z</time>
      </trkpt>
      <trkpt lat="45.22574" lon="5.76491">
        <ele>637</ele>
        <time>2016-03-30T12:09:55.000Z</time>
      </trkpt>
      <trkpt lat="45.22562" lon="5.76484">
        <ele>637</ele>
        <time>2016-03-30T12:09:56.000Z</time>
      </trkpt>
      <trkpt lat="45.22553" lon="5.76474">
        <ele>641</ele>
        <time>2016-03-30T12:09:57.000Z</time>
      </trkpt>
      <trkpt lat="45.22544" lon="5.76463">
        <ele>642</ele>
        <time>2016-03-30T12:09:58.000Z</time>
      </trkpt>
      <trkpt lat="45.22535" lon="5.76451">
        <ele>644</ele>
        <time>2016-03-30T12:09:59.000Z</time>
      </trkpt>
      <trkpt lat="45.22527" lon="5.76437">
        <ele>645</ele>
        <time>2016-03-30T12:10:00.000Z</time>
      </trkpt>
      <trkpt lat="45.22525" lon="5.76418">
        <ele>648</ele>
        <time>2016-03-30T12:10:01.000Z</time>
      </trkpt>
      <trkpt lat="45.2252" lon="5.76399">
        <ele>648</ele>
        <time>2016-03-30T12:10:02.000Z</time>
      </trkpt>
      <trkpt lat="45.22517" lon="5.76382">
        <ele>651</ele>
        <time>2016-03-30T12:10:03.000Z</time>
      </trkpt>
      <trkpt lat="45.22512" lon="5.76368">
        <ele>651</ele>
        <time>2016-03-30T12:10:04.000Z</time>
      </trkpt>
      <trkpt lat="45.22507" lon="5.76353">
        <ele>653</ele>
        <time>2016-03-30T12:10:05.000Z</time>
      </trkpt>
      <trkpt lat="45.22503" lon="5.76337">
        <ele>653</ele>
        <time>2016-03-30T12:10:06.000Z</time>
      </trkpt>
      <trkpt lat="45.22502" lon="5.76319">
        <ele>655</ele>
        <time>2016-03-30T12:10:07.000Z</time>
      </trkpt>
      <trkpt lat="45.22502" lon="5.76301">
        <ele>655</ele>
        <time>2016-03-30T12:10:08.000Z</time>
      </trkpt>
      <trkpt lat="45.22501" lon="5.76281">
        <ele>656</ele>
        <time>2016-03-30T12:10:09.000Z</time>
      </trkpt>
      <trkpt lat="45.22501" lon="5.76261">
        <ele>648</ele>
        <time>2016-03-30T12:10:10.000Z</time>
      </trkpt>
      <trkpt lat="45.22505" lon="5.76242">
        <ele>652</ele>
        <time>2016-03-30T12:10:11.000Z</time>
      </trkpt>
      <trkpt lat="45.22509" lon="5.76222">
        <ele>652</ele>
        <time>2016-03-30T12:10:12.000Z</time>
      </trkpt>
      <trkpt lat="45.22511" lon="5.76203">
        <ele>653</ele>
        <time>2016-03-30T12:10:13.000Z</time>
      </trkpt>
      <trkpt lat="45.22514" lon="5.76186">
        <ele>655</ele>
        <time>2016-03-30T12:10:14.000Z</time>
      </trkpt>
      <trkpt lat="45.22517" lon="5.7617">
        <ele>657</ele>
        <time>2016-03-30T12:10:15.000Z</time>
      </trkpt>
      <trkpt lat="45.22525" lon="5.76152">
        <ele>662</ele>
        <time>2016-03-30T12:10:16.000Z</time>
      </trkpt>
      <trkpt lat="45.22535" lon="5.76138">
        <ele>666</ele>
        <time>2016-03-30T12:10:17.000Z</time>
      </trkpt>
      <trkpt lat="45.22545" lon="5.76127">
        <ele>669</ele>
        <time>2016-03-30T12:10:18.000Z</time>
      </trkpt>
      <trkpt lat="45.22556" lon="5.76115">
        <ele>672</ele>
        <time>2016-03-30T12:10:19.000Z</time>
      </trkpt>
      <trkpt lat="45.22566" lon="5.76105">
        <ele>673</ele>
        <time>2016-03-30T12:10:20.000Z</time>
      </trkpt>
      <trkpt lat="45.22577" lon="5.76094">
        <ele>675</ele>
        <time>2016-03-30T12:10:21.000Z</time>
      </trkpt>
      <trkpt lat="45.22588" lon="5.76083">
        <ele>678</ele>
        <time>2016-03-30T12:10:22.000Z</time>
      </trkpt>
      <trkpt lat="45.22598" lon="5.76073">
        <ele>679</ele>
        <time>2016-03-30T12:10:23.000Z</time>
      </trkpt>
      <trkpt lat="45.22607" lon="5.76056">
        <ele>681</ele>
        <time>2016-03-30T12:10:24.000Z</time>
      </trkpt>
      <trkpt lat="45.22616" lon="5.7604">
        <ele>681</ele>
        <time>2016-03-30T12:10:25.000Z</time>
      </trkpt>
      <trkpt lat="45.22623" lon="5.76019">
        <ele>682</ele>
        <time>2016-03-30T12:10:26.000Z</time>
      </trkpt>
      <trkpt lat="45.2263" lon="5.75999">
        <ele>681</ele>
        <time>2016-03-30T12:10:27.000Z</time>
      </trkpt>
      <trkpt lat="45.22633" lon="5.75978">
        <ele>682</ele>
        <time>2016-03-30T12:10:28.000Z</time>
      </trkpt>
      <trkpt lat="45.22639" lon="5.75956">
        <ele>684</ele>
        <time>2016-03-30T12:10:29.000Z</time>
      </trkpt>
      <trkpt lat="45.22637" lon="5.75939">
        <ele>687</ele>
        <time>2016-03-30T12:10:30.000Z</time>
      </trkpt>
      <trkpt lat="45.2264" lon="5.75923">
        <ele>688</ele>
        <time>2016-03-30T12:10:31.000Z</time>
      </trkpt>
      <trkpt lat="45.22644" lon="5.75906">
        <ele>690</ele>
        <time>2016-03-30T12:10:32.000Z</time>
      </trkpt>
      <trkpt lat="45.22648" lon="5.75886">
        <ele>693</ele>
        <time>2016-03-30T12:10:33.000Z</time>
      </trkpt>
      <trkpt lat="45.22659" lon="5.75884">
        <ele>695</ele>
        <time>2016-03-30T12:10:34.000Z</time>
      </trkpt>
      <trkpt lat="45.22667" lon="5.75875">
        <ele>696</ele>
        <time>2016-03-30T12:10:35.000Z</time>
      </trkpt>
      <trkpt lat="45.22677" lon="5.75866">
        <ele>698</ele>
        <time>2016-03-30T12:10:36.000Z</time>
      </trkpt>
      <trkpt lat="45.22693" lon="5.75875">
        <ele>697</ele>
        <time>2016-03-30T12:10:37.000Z</time>
      </trkpt>
      <trkpt lat="45.22705" lon="5.75885">
        <ele>699</ele>
        <time>2016-03-30T12:10:39.000Z</time>
      </trkpt>
      <trkpt lat="45.22725" lon="5.75884">
        <ele>703</ele>
        <time>2016-03-30T12:10:41.000Z</time>
      </trkpt>
      <trkpt lat="45.22738" lon="5.75879">
        <ele>705</ele>
        <time>2016-03-30T12:10:42.000Z</time>
      </trkpt>
      <trkpt lat="45.22751" lon="5.75876">
        <ele>706</ele>
        <time>2016-03-30T12:10:43.000Z</time>
      </trkpt>
      <trkpt lat="45.22764" lon="5.75871">
        <ele>708</ele>
        <time>2016-03-30T12:10:44.000Z</time>
      </trkpt>
      <trkpt lat="45.22783" lon="5.75862">
        <ele>710</ele>
        <time>2016-03-30T12:10:45.000Z</time>
      </trkpt>
      <trkpt lat="45.22797" lon="5.75854">
        <ele>712</ele>
        <time>2016-03-30T12:10:46.000Z</time>
      </trkpt>
      <trkpt lat="45.22812" lon="5.75847">
        <ele>713</ele>
        <time>2016-03-30T12:10:47.000Z</time>
      </trkpt>
      <trkpt lat="45.22826" lon="5.75841">
        <ele>713</ele>
        <time>2016-03-30T12:10:48.000Z</time>
      </trkpt>
      <trkpt lat="45.2284" lon="5.7583">
        <ele>715</ele>
        <time>2016-03-30T12:10:49.000Z</time>
      </trkpt>
      <trkpt lat="45.22854" lon="5.7582">
        <ele>717</ele>
        <time>2016-03-30T12:10:50.000Z</time>
      </trkpt>
      <trkpt lat="45.22868" lon="5.75812">
        <ele>718</ele>
        <time>2016-03-30T12:10:51.000Z</time>
      </trkpt>
      <trkpt lat="45.2288" lon="5.758">
        <ele>719</ele>
        <time>2016-03-30T12:10:52.000Z</time>
      </trkpt>
      <trkpt lat="45.22891" lon="5.75784">
        <ele>720</ele>
        <time>2016-03-30T12:10:53.000Z</time>
      </trkpt>
      <trkpt lat="45.22899" lon="5.75761">
        <ele>720</ele>
        <time>2016-03-30T12:10:54.000Z</time>
      </trkpt>
      <trkpt lat="45.2291" lon="5.75747">
        <ele>721</ele>
        <time>2016-03-30T12:10:55.000Z</time>
      </trkpt>
      <trkpt lat="45.22918" lon="5.75729">
        <ele>721</ele>
        <time>2016-03-30T12:10:56.000Z</time>
      </trkpt>
      <trkpt lat="45.22928" lon="5.75707">
        <ele>723</ele>
        <time>2016-03-30T12:10:57.000Z</time>
      </trkpt>
      <trkpt lat="45.22934" lon="5.7568">
        <ele>725</ele>
        <time>2016-03-30T12:10:58.000Z</time>
      </trkpt>
      <trkpt lat="45.22937" lon="5.75663">
        <ele>726</ele>
        <time>2016-03-30T12:10:59.000Z</time>
      </trkpt>
      <trkpt lat="45.22942" lon="5.75646">
        <ele>727</ele>
        <time>2016-03-30T12:11:00.000Z</time>
      </trkpt>
      <trkpt lat="45.22949" lon="5.7563">
        <ele>729</ele>
        <time>2016-03-30T12:11:01.000Z</time>
      </trkpt>
      <trkpt lat="45.22954" lon="5.75616">
        <ele>731</ele>
        <time>2016-03-30T12:11:02.000Z</time>
      </trkpt>
      <trkpt lat="45.22957" lon="5.756">
        <ele>733</ele>
        <time>2016-03-30T12:11:03.000Z</time>
      </trkpt>
      <trkpt lat="45.2296" lon="5.75581">
        <ele>734</ele>
        <time>2016-03-30T12:11:04.000Z</time>
      </trkpt>
      <trkpt lat="45.22955" lon="5.75564">
        <ele>735</ele>
        <time>2016-03-30T12:11:05.000Z</time>
      </trkpt>
      <trkpt lat="45.22952" lon="5.75546">
        <ele>738</ele>
        <time>2016-03-30T12:11:06.000Z</time>
      </trkpt>
      <trkpt lat="45.22949" lon="5.75527">
        <ele>739</ele>
        <time>2016-03-30T12:11:07.000Z</time>
      </trkpt>
      <trkpt lat="45.22944" lon="5.75504">
        <ele>742</ele>
        <time>2016-03-30T12:11:09.000Z</time>
      </trkpt>
      <trkpt lat="45.22943" lon="5.7548">
        <ele>667</ele>
        <time>2016-03-30T12:11:11.000Z</time>
      </trkpt>
      <trkpt lat="45.22953" lon="5.75464">
        <ele>696</ele>
        <time>2016-03-30T12:11:13.000Z</time>
      </trkpt>
      <trkpt lat="45.22966" lon="5.75457">
        <ele>705</ele>
        <time>2016-03-30T12:11:14.000Z</time>
      </trkpt>
      <trkpt lat="45.22978" lon="5.75453">
        <ele>715</ele>
        <time>2016-03-30T12:11:15.000Z</time>
      </trkpt>
      <trkpt lat="45.22993" lon="5.75447">
        <ele>717</ele>
        <time>2016-03-30T12:11:16.000Z</time>
      </trkpt>
      <trkpt lat="45.23008" lon="5.75452">
        <ele>721</ele>
        <time>2016-03-30T12:11:17.000Z</time>
      </trkpt>
      <trkpt lat="45.23022" lon="5.75443">
        <ele>726</ele>
        <time>2016-03-30T12:11:18.000Z</time>
      </trkpt>
      <trkpt lat="45.23035" lon="5.75434">
        <ele>730</ele>
        <time>2016-03-30T12:11:19.000Z</time>
      </trkpt>
      <trkpt lat="45.23049" lon="5.75424">
        <ele>733</ele>
        <time>2016-03-30T12:11:20.000Z</time>
      </trkpt>
      <trkpt lat="45.23061" lon="5.75406">
        <ele>737</ele>
        <time>2016-03-30T12:11:22.000Z</time>
      </trkpt>
      <trkpt lat="45.23068" lon="5.75387">
        <ele>738</ele>
        <time>2016-03-30T12:11:23.000Z</time>
      </trkpt>
      <trkpt lat="45.23069" lon="5.75365">
        <ele>740</ele>
        <time>2016-03-30T12:11:24.000Z</time>
      </trkpt>
      <trkpt lat="45.23066" lon="5.75344">
        <ele>742</ele>
        <time>2016-03-30T12:11:25.000Z</time>
      </trkpt>
      <trkpt lat="45.23063" lon="5.75317">
        <ele>742</ele>
        <time>2016-03-30T12:11:26.000Z</time>
      </trkpt>
      <trkpt lat="45.2306" lon="5.75302">
        <ele>744</ele>
        <time>2016-03-30T12:11:27.000Z</time>
      </trkpt>
      <trkpt lat="45.23053" lon="5.75293">
        <ele>751</ele>
        <time>2016-03-30T12:11:28.000Z</time>
      </trkpt>
      <trkpt lat="45.23056" lon="5.75271">
        <ele>759</ele>
        <time>2016-03-30T12:11:30.000Z</time>
      </trkpt>
      <trkpt lat="45.23072" lon="5.75259">
        <ele>763</ele>
        <time>2016-03-30T12:11:32.000Z</time>
      </trkpt>
      <trkpt lat="45.2308" lon="5.75244">
        <ele>765</ele>
        <time>2016-03-30T12:11:33.000Z</time>
      </trkpt>
      <trkpt lat="45.23088" lon="5.75228">
        <ele>768</ele>
        <time>2016-03-30T12:11:34.000Z</time>
      </trkpt>
      <trkpt lat="45.23095" lon="5.75214">
        <ele>771</ele>
        <time>2016-03-30T12:11:35.000Z</time>
      </trkpt>
      <trkpt lat="45.23103" lon="5.75203">
        <ele>772</ele>
        <time>2016-03-30T12:11:36.000Z</time>
      </trkpt>
      <trkpt lat="45.23112" lon="5.75192">
        <ele>773</ele>
        <time>2016-03-30T12:11:37.000Z</time>
      </trkpt>
      <trkpt lat="45.23121" lon="5.75182">
        <ele>774</ele>
        <time>2016-03-30T12:11:38.000Z</time>
      </trkpt>
      <trkpt lat="45.23129" lon="5.75172">
        <ele>774</ele>
        <time>2016-03-30T12:11:39.000Z</time>
      </trkpt>
      <trkpt lat="45.23137" lon="5.75164">
        <ele>775</ele>
        <time>2016-03-30T12:11:40.000Z</time>
      </trkpt>
      <trkpt lat="45.23147" lon="5.75155">
        <ele>776</ele>
        <time>2016-03-30T12:11:42.000Z</time>
      </trkpt>
      <trkpt lat="45.23135" lon="5.75147">
        <ele>781</ele>
        <time>2016-03-30T12:11:44.000Z</time>
      </trkpt>
      <trkpt lat="45.23126" lon="5.75146">
        <ele>787</ele>
        <time>2016-03-30T12:11:55.000Z</time>
      </trkpt>
      <trkpt lat="45.23128" lon="5.7516">
        <ele>772</ele>
        <time>2016-03-30T12:13:41.466Z</time>
      </trkpt>
      <trkpt lat="45.23139" lon="5.75153">
        <ele>776</ele>
        <time>2016-03-30T12:13:42.000Z</time>
      </trkpt>
      <trkpt lat="45.2313" lon="5.75149">
        <ele>783</ele>
        <time>2016-03-30T12:13:44.000Z</time>
      </trkpt>
      <trkpt lat="45.23119" lon="5.75151">
        <ele>792</ele>
        <time>2016-03-30T12:14:08.000Z</time>
      </trkpt>
      <trkpt lat="45.23128" lon="5.75156">
        <ele>789</ele>
        <time>2016-03-30T12:14:18.000Z</time>
      </trkpt>
      <trkpt lat="45.23141" lon="5.75149">
        <ele>790</ele>
        <time>2016-03-30T12:14:21.000Z</time>
      </trkpt>
      <trkpt lat="45.23157" lon="5.75137">
        <ele>789</ele>
        <time>2016-03-30T12:14:23.000Z</time>
      </trkpt>
      <trkpt lat="45.23172" lon="5.75134">
        <ele>790</ele>
        <time>2016-03-30T12:14:24.000Z</time>
      </trkpt>
      <trkpt lat="45.23185" lon="5.75124">
        <ele>790</ele>
        <time>2016-03-30T12:14:25.000Z</time>
      </trkpt>
      <trkpt lat="45.23195" lon="5.75116">
        <ele>791</ele>
        <time>2016-03-30T12:14:26.000Z</time>
      </trkpt>
      <trkpt lat="45.23207" lon="5.75105">
        <ele>792</ele>
        <time>2016-03-30T12:14:27.000Z</time>
      </trkpt>
      <trkpt lat="45.2322" lon="5.75113">
        <ele>792</ele>
        <time>2016-03-30T12:14:28.000Z</time>
      </trkpt>
      <trkpt lat="45.23238" lon="5.75113">
        <ele>791</ele>
        <time>2016-03-30T12:14:29.000Z</time>
      </trkpt>
      <trkpt lat="45.23249" lon="5.75115">
        <ele>795</ele>
        <time>2016-03-30T12:14:30.000Z</time>
      </trkpt>
      <trkpt lat="45.23266" lon="5.75113">
        <ele>795</ele>
        <time>2016-03-30T12:14:31.000Z</time>
      </trkpt>
      <trkpt lat="45.23282" lon="5.75113">
        <ele>795</ele>
        <time>2016-03-30T12:14:32.000Z</time>
      </trkpt>
      <trkpt lat="45.23296" lon="5.75114">
        <ele>796</ele>
        <time>2016-03-30T12:14:33.000Z</time>
      </trkpt>
      <trkpt lat="45.23309" lon="5.75114">
        <ele>799</ele>
        <time>2016-03-30T12:14:34.000Z</time>
      </trkpt>
      <trkpt lat="45.23323" lon="5.75113">
        <ele>800</ele>
        <time>2016-03-30T12:14:35.000Z</time>
      </trkpt>
      <trkpt lat="45.23336" lon="5.75113">
        <ele>802</ele>
        <time>2016-03-30T12:14:36.000Z</time>
      </trkpt>
      <trkpt lat="45.23347" lon="5.75114">
        <ele>803</ele>
        <time>2016-03-30T12:14:37.000Z</time>
      </trkpt>
      <trkpt lat="45.23365" lon="5.75111">
        <ele>804</ele>
        <time>2016-03-30T12:14:39.000Z</time>
      </trkpt>
      <trkpt lat="45.23377" lon="5.75112">
        <ele>805</ele>
        <time>2016-03-30T12:14:40.000Z</time>
      </trkpt>
      <trkpt lat="45.23388" lon="5.75112">
        <ele>806</ele>
        <time>2016-03-30T12:14:41.000Z</time>
      </trkpt>
      <trkpt lat="45.23399" lon="5.75114">
        <ele>806</ele>
        <time>2016-03-30T12:14:42.000Z</time>
      </trkpt>
      <trkpt lat="45.2341" lon="5.75116">
        <ele>807</ele>
        <time>2016-03-30T12:14:43.000Z</time>
      </trkpt>
      <trkpt lat="45.23425" lon="5.75114">
        <ele>807</ele>
        <time>2016-03-30T12:14:44.000Z</time>
      </trkpt>
      <trkpt lat="45.23441" lon="5.75113">
        <ele>808</ele>
        <time>2016-03-30T12:14:45.000Z</time>
      </trkpt>
      <trkpt lat="45.23457" lon="5.75107">
        <ele>809</ele>
        <time>2016-03-30T12:14:46.000Z</time>
      </trkpt>
      <trkpt lat="45.23471" lon="5.75103">
        <ele>809</ele>
        <time>2016-03-30T12:14:47.000Z</time>
      </trkpt>
      <trkpt lat="45.23484" lon="5.75098">
        <ele>810</ele>
        <time>2016-03-30T12:14:48.000Z</time>
      </trkpt>
      <trkpt lat="45.23497" lon="5.75094">
        <ele>811</ele>
        <time>2016-03-30T12:14:49.000Z</time>
      </trkpt>
      <trkpt lat="45.23506" lon="5.7509">
        <ele>812</ele>
        <time>2016-03-30T12:14:50.000Z</time>
      </trkpt>
      <trkpt lat="45.23517" lon="5.75087">
        <ele>813</ele>
        <time>2016-03-30T12:14:51.000Z</time>
      </trkpt>
      <trkpt lat="45.23526" lon="5.75086">
        <ele>814</ele>
        <time>2016-03-30T12:14:52.000Z</time>
      </trkpt>
      <trkpt lat="45.23539" lon="5.75085">
        <ele>814</ele>
        <time>2016-03-30T12:14:53.000Z</time>
      </trkpt>
      <trkpt lat="45.23553" lon="5.75087">
        <ele>816</ele>
        <time>2016-03-30T12:14:54.000Z</time>
      </trkpt>
      <trkpt lat="45.23563" lon="5.75092">
        <ele>818</ele>
        <time>2016-03-30T12:14:55.000Z</time>
      </trkpt>
      <trkpt lat="45.23578" lon="5.75095">
        <ele>817</ele>
        <time>2016-03-30T12:14:56.000Z</time>
      </trkpt>
      <trkpt lat="45.23595" lon="5.75108">
        <ele>816</ele>
        <time>2016-03-30T12:14:57.000Z</time>
      </trkpt>
      <trkpt lat="45.2361" lon="5.75113">
        <ele>816</ele>
        <time>2016-03-30T12:14:58.000Z</time>
      </trkpt>
      <trkpt lat="45.23624" lon="5.75123">
        <ele>817</ele>
        <time>2016-03-30T12:14:59.000Z</time>
      </trkpt>
      <trkpt lat="45.2364" lon="5.75126">
        <ele>818</ele>
        <time>2016-03-30T12:15:00.000Z</time>
      </trkpt>
      <trkpt lat="45.23657" lon="5.75132">
        <ele>819</ele>
        <time>2016-03-30T12:15:01.000Z</time>
      </trkpt>
      <trkpt lat="45.23674" lon="5.75137">
        <ele>820</ele>
        <time>2016-03-30T12:15:02.000Z</time>
      </trkpt>
      <trkpt lat="45.23695" lon="5.75132">
        <ele>819</ele>
        <time>2016-03-30T12:15:03.000Z</time>
      </trkpt>
      <trkpt lat="45.23711" lon="5.75134">
        <ele>821</ele>
        <time>2016-03-30T12:15:04.000Z</time>
      </trkpt>
      <trkpt lat="45.23727" lon="5.75137">
        <ele>822</ele>
        <time>2016-03-30T12:15:05.000Z</time>
      </trkpt>
      <trkpt lat="45.23743" lon="5.75143">
        <ele>825</ele>
        <time>2016-03-30T12:15:06.000Z</time>
      </trkpt>
      <trkpt lat="45.23758" lon="5.75151">
        <ele>826</ele>
        <time>2016-03-30T12:15:07.000Z</time>
      </trkpt>
      <trkpt lat="45.23774" lon="5.7516">
        <ele>825</ele>
        <time>2016-03-30T12:15:08.000Z</time>
      </trkpt>
      <trkpt lat="45.23791" lon="5.75169">
        <ele>825</ele>
        <time>2016-03-30T12:15:09.000Z</time>
      </trkpt>
      <trkpt lat="45.23809" lon="5.75175">
        <ele>826</ele>
        <time>2016-03-30T12:15:10.000Z</time>
      </trkpt>
      <trkpt lat="45.23826" lon="5.75184">
        <ele>829</ele>
        <time>2016-03-30T12:15:11.000Z</time>
      </trkpt>
      <trkpt lat="45.23842" lon="5.75193">
        <ele>831</ele>
        <time>2016-03-30T12:15:12.000Z</time>
      </trkpt>
      <trkpt lat="45.23856" lon="5.75202">
        <ele>833</ele>
        <time>2016-03-30T12:15:13.000Z</time>
      </trkpt>
      <trkpt lat="45.23872" lon="5.7521">
        <ele>834</ele>
        <time>2016-03-30T12:15:14.000Z</time>
      </trkpt>
      <trkpt lat="45.23887" lon="5.75219">
        <ele>835</ele>
        <time>2016-03-30T12:15:15.000Z</time>
      </trkpt>
      <trkpt lat="45.23904" lon="5.7523">
        <ele>835</ele>
        <time>2016-03-30T12:15:16.000Z</time>
      </trkpt>
      <trkpt lat="45.2392" lon="5.75241">
        <ele>835</ele>
        <time>2016-03-30T12:15:17.000Z</time>
      </trkpt>
      <trkpt lat="45.23935" lon="5.75252">
        <ele>835</ele>
        <time>2016-03-30T12:15:18.000Z</time>
      </trkpt>
      <trkpt lat="45.23951" lon="5.75264">
        <ele>835</ele>
        <time>2016-03-30T12:15:19.000Z</time>
      </trkpt>
      <trkpt lat="45.23964" lon="5.75273">
        <ele>835</ele>
        <time>2016-03-30T12:15:20.000Z</time>
      </trkpt>
      <trkpt lat="45.23985" lon="5.75284">
        <ele>835</ele>
        <time>2016-03-30T12:15:21.000Z</time>
      </trkpt>
      <trkpt lat="45.24002" lon="5.75298">
        <ele>836</ele>
        <time>2016-03-30T12:15:22.000Z</time>
      </trkpt>
      <trkpt lat="45.24018" lon="5.75309">
        <ele>839</ele>
        <time>2016-03-30T12:15:23.000Z</time>
      </trkpt>
      <trkpt lat="45.24041" lon="5.75331">
        <ele>840</ele>
        <time>2016-03-30T12:15:25.000Z</time>
      </trkpt>
      <trkpt lat="45.24055" lon="5.75337">
        <ele>842</ele>
        <time>2016-03-30T12:15:26.000Z</time>
      </trkpt>
      <trkpt lat="45.24069" lon="5.75346">
        <ele>842</ele>
        <time>2016-03-30T12:15:27.000Z</time>
      </trkpt>
      <trkpt lat="45.2408" lon="5.7535">
        <ele>843</ele>
        <time>2016-03-30T12:15:28.000Z</time>
      </trkpt>
      <trkpt lat="45.24093" lon="5.75351">
        <ele>839</ele>
        <time>2016-03-30T12:15:29.000Z</time>
      </trkpt>
      <trkpt lat="45.24107" lon="5.75355">
        <ele>841</ele>
        <time>2016-03-30T12:15:30.000Z</time>
      </trkpt>
      <trkpt lat="45.24121" lon="5.75363">
        <ele>843</ele>
        <time>2016-03-30T12:15:31.000Z</time>
      </trkpt>
      <trkpt lat="45.24134" lon="5.75371">
        <ele>844</ele>
        <time>2016-03-30T12:15:32.000Z</time>
      </trkpt>
      <trkpt lat="45.24151" lon="5.75401">
        <ele>846</ele>
        <time>2016-03-30T12:15:34.000Z</time>
      </trkpt>
      <trkpt lat="45.24159" lon="5.75414">
        <ele>846</ele>
        <time>2016-03-30T12:15:35.000Z</time>
      </trkpt>
      <trkpt lat="45.24166" lon="5.75428">
        <ele>848</ele>
        <time>2016-03-30T12:15:36.000Z</time>
      </trkpt>
      <trkpt lat="45.24173" lon="5.75442">
        <ele>849</ele>
        <time>2016-03-30T12:15:37.000Z</time>
      </trkpt>
      <trkpt lat="45.24178" lon="5.75458">
        <ele>850</ele>
        <time>2016-03-30T12:15:38.000Z</time>
      </trkpt>
      <trkpt lat="45.24182" lon="5.75473">
        <ele>850</ele>
        <time>2016-03-30T12:15:39.000Z</time>
      </trkpt>
      <trkpt lat="45.24188" lon="5.75488">
        <ele>852</ele>
        <time>2016-03-30T12:15:40.000Z</time>
      </trkpt>
      <trkpt lat="45.24193" lon="5.75503">
        <ele>854</ele>
        <time>2016-03-30T12:15:41.000Z</time>
      </trkpt>
      <trkpt lat="45.24198" lon="5.75519">
        <ele>854</ele>
        <time>2016-03-30T12:15:42.000Z</time>
      </trkpt>
      <trkpt lat="45.24204" lon="5.75534">
        <ele>855</ele>
        <time>2016-03-30T12:15:43.000Z</time>
      </trkpt>
      <trkpt lat="45.24209" lon="5.75552">
        <ele>857</ele>
        <time>2016-03-30T12:15:44.000Z</time>
      </trkpt>
      <trkpt lat="45.2421" lon="5.7557">
        <ele>858</ele>
        <time>2016-03-30T12:15:45.000Z</time>
      </trkpt>
      <trkpt lat="45.24212" lon="5.75588">
        <ele>859</ele>
        <time>2016-03-30T12:15:46.000Z</time>
      </trkpt>
      <trkpt lat="45.24214" lon="5.75604">
        <ele>860</ele>
        <time>2016-03-30T12:15:47.000Z</time>
      </trkpt>
      <trkpt lat="45.24218" lon="5.75618">
        <ele>862</ele>
        <time>2016-03-30T12:15:48.000Z</time>
      </trkpt>
      <trkpt lat="45.24225" lon="5.7563">
        <ele>864</ele>
        <time>2016-03-30T12:15:49.000Z</time>
      </trkpt>
      <trkpt lat="45.24231" lon="5.75644">
        <ele>859</ele>
        <time>2016-03-30T12:15:50.000Z</time>
      </trkpt>
      <trkpt lat="45.24237" lon="5.75657">
        <ele>861</ele>
        <time>2016-03-30T12:15:51.000Z</time>
      </trkpt>
      <trkpt lat="45.24244" lon="5.7567">
        <ele>862</ele>
        <time>2016-03-30T12:15:52.000Z</time>
      </trkpt>
      <trkpt lat="45.2425" lon="5.75685">
        <ele>862</ele>
        <time>2016-03-30T12:15:53.000Z</time>
      </trkpt>
      <trkpt lat="45.24257" lon="5.75698">
        <ele>863</ele>
        <time>2016-03-30T12:15:54.000Z</time>
      </trkpt>
      <trkpt lat="45.24262" lon="5.7571">
        <ele>864</ele>
        <time>2016-03-30T12:15:55.000Z</time>
      </trkpt>
      <trkpt lat="45.2427" lon="5.75723">
        <ele>866</ele>
        <time>2016-03-30T12:15:56.000Z</time>
      </trkpt>
      <trkpt lat="45.2428" lon="5.75728">
        <ele>866</ele>
        <time>2016-03-30T12:15:57.000Z</time>
      </trkpt>
      <trkpt lat="45.24294" lon="5.75747">
        <ele>865</ele>
        <time>2016-03-30T12:15:59.000Z</time>
      </trkpt>
      <trkpt lat="45.24302" lon="5.75756">
        <ele>866</ele>
        <time>2016-03-30T12:16:00.000Z</time>
      </trkpt>
      <trkpt lat="45.24316" lon="5.75779">
        <ele>869</ele>
        <time>2016-03-30T12:16:02.000Z</time>
      </trkpt>
      <trkpt lat="45.24319" lon="5.75794">
        <ele>870</ele>
        <time>2016-03-30T12:16:03.000Z</time>
      </trkpt>
      <trkpt lat="45.24327" lon="5.75804">
        <ele>870</ele>
        <time>2016-03-30T12:16:04.000Z</time>
      </trkpt>
      <trkpt lat="45.24336" lon="5.75812">
        <ele>872</ele>
        <time>2016-03-30T12:16:05.000Z</time>
      </trkpt>
      <trkpt lat="45.24342" lon="5.75821">
        <ele>872</ele>
        <time>2016-03-30T12:16:06.000Z</time>
      </trkpt>
      <trkpt lat="45.24352" lon="5.7583">
        <ele>873</ele>
        <time>2016-03-30T12:16:07.000Z</time>
      </trkpt>
      <trkpt lat="45.24357" lon="5.75842">
        <ele>874</ele>
        <time>2016-03-30T12:16:08.000Z</time>
      </trkpt>
      <trkpt lat="45.24365" lon="5.75852">
        <ele>875</ele>
        <time>2016-03-30T12:16:09.000Z</time>
      </trkpt>
      <trkpt lat="45.24369" lon="5.75868">
        <ele>876</ele>
        <time>2016-03-30T12:16:10.000Z</time>
      </trkpt>
      <trkpt lat="45.24373" lon="5.75885">
        <ele>877</ele>
        <time>2016-03-30T12:16:11.000Z</time>
      </trkpt>
      <trkpt lat="45.24376" lon="5.75902">
        <ele>877</ele>
        <time>2016-03-30T12:16:12.000Z</time>
      </trkpt>
      <trkpt lat="45.24379" lon="5.75924">
        <ele>877</ele>
        <time>2016-03-30T12:16:13.000Z</time>
      </trkpt>
      <trkpt lat="45.24386" lon="5.75942">
        <ele>878</ele>
        <time>2016-03-30T12:16:14.000Z</time>
      </trkpt>
      <trkpt lat="45.24384" lon="5.75977">
        <ele>879</ele>
        <time>2016-03-30T12:16:15.000Z</time>
      </trkpt>
      <trkpt lat="45.24387" lon="5.76004">
        <ele>879</ele>
        <time>2016-03-30T12:16:16.000Z</time>
      </trkpt>
      <trkpt lat="45.24389" lon="5.76032">
        <ele>879</ele>
        <time>2016-03-30T12:16:17.000Z</time>
      </trkpt>
      <trkpt lat="45.24391" lon="5.7606">
        <ele>880</ele>
        <time>2016-03-30T12:16:18.000Z</time>
      </trkpt>
      <trkpt lat="45.24394" lon="5.76087">
        <ele>882</ele>
        <time>2016-03-30T12:16:19.000Z</time>
      </trkpt>
      <trkpt lat="45.24397" lon="5.76113">
        <ele>884</ele>
        <time>2016-03-30T12:16:20.000Z</time>
      </trkpt>
      <trkpt lat="45.24397" lon="5.76139">
        <ele>884</ele>
        <time>2016-03-30T12:16:21.000Z</time>
      </trkpt>
      <trkpt lat="45.244" lon="5.76164">
        <ele>886</ele>
        <time>2016-03-30T12:16:22.000Z</time>
      </trkpt>
      <trkpt lat="45.24404" lon="5.76188">
        <ele>888</ele>
        <time>2016-03-30T12:16:23.000Z</time>
      </trkpt>
      <trkpt lat="45.24409" lon="5.76212">
        <ele>890</ele>
        <time>2016-03-30T12:16:24.000Z</time>
      </trkpt>
      <trkpt lat="45.24413" lon="5.76235">
        <ele>891</ele>
        <time>2016-03-30T12:16:25.000Z</time>
      </trkpt>
      <trkpt lat="45.24421" lon="5.76258">
        <ele>894</ele>
        <time>2016-03-30T12:16:26.000Z</time>
      </trkpt>
      <trkpt lat="45.24428" lon="5.76281">
        <ele>896</ele>
        <time>2016-03-30T12:16:27.000Z</time>
      </trkpt>
      <trkpt lat="45.24435" lon="5.76305">
        <ele>898</ele>
        <time>2016-03-30T12:16:28.000Z</time>
      </trkpt>
      <trkpt lat="45.24444" lon="5.76325">
        <ele>900</ele>
        <time>2016-03-30T12:16:29.000Z</time>
      </trkpt>
      <trkpt lat="45.24453" lon="5.76344">
        <ele>901</ele>
        <time>2016-03-30T12:16:30.000Z</time>
      </trkpt>
      <trkpt lat="45.24463" lon="5.76362">
        <ele>902</ele>
        <time>2016-03-30T12:16:31.000Z</time>
      </trkpt>
      <trkpt lat="45.24476" lon="5.76381">
        <ele>904</ele>
        <time>2016-03-30T12:16:32.000Z</time>
      </trkpt>
      <trkpt lat="45.2449" lon="5.76402">
        <ele>906</ele>
        <time>2016-03-30T12:16:33.000Z</time>
      </trkpt>
      <trkpt lat="45.24501" lon="5.76419">
        <ele>907</ele>
        <time>2016-03-30T12:16:34.000Z</time>
      </trkpt>
      <trkpt lat="45.24514" lon="5.76431">
        <ele>908</ele>
        <time>2016-03-30T12:16:35.000Z</time>
      </trkpt>
      <trkpt lat="45.24528" lon="5.76441">
        <ele>909</ele>
        <time>2016-03-30T12:16:36.000Z</time>
      </trkpt>
      <trkpt lat="45.24543" lon="5.76453">
        <ele>911</ele>
        <time>2016-03-30T12:16:37.000Z</time>
      </trkpt>
      <trkpt lat="45.24554" lon="5.76465">
        <ele>911</ele>
        <time>2016-03-30T12:16:38.000Z</time>
      </trkpt>
      <trkpt lat="45.24567" lon="5.76475">
        <ele>912</ele>
        <time>2016-03-30T12:16:39.000Z</time>
      </trkpt>
      <trkpt lat="45.24579" lon="5.76485">
        <ele>913</ele>
        <time>2016-03-30T12:16:40.000Z</time>
      </trkpt>
      <trkpt lat="45.24591" lon="5.76495">
        <ele>914</ele>
        <time>2016-03-30T12:16:41.000Z</time>
      </trkpt>
      <trkpt lat="45.24607" lon="5.76498">
        <ele>915</ele>
        <time>2016-03-30T12:16:42.000Z</time>
      </trkpt>
      <trkpt lat="45.2462" lon="5.76493">
        <ele>915</ele>
        <time>2016-03-30T12:16:43.000Z</time>
      </trkpt>
      <trkpt lat="45.24633" lon="5.76485">
        <ele>916</ele>
        <time>2016-03-30T12:16:44.000Z</time>
      </trkpt>
      <trkpt lat="45.24645" lon="5.76478">
        <ele>917</ele>
        <time>2016-03-30T12:16:45.000Z</time>
      </trkpt>
      <trkpt lat="45.24659" lon="5.76461">
        <ele>918</ele>
        <time>2016-03-30T12:16:46.000Z</time>
      </trkpt>
      <trkpt lat="45.24679" lon="5.76446">
        <ele>920</ele>
        <time>2016-03-30T12:16:47.000Z</time>
      </trkpt>
      <trkpt lat="45.24694" lon="5.76424">
        <ele>920</ele>
        <time>2016-03-30T12:16:49.000Z</time>
      </trkpt>
      <trkpt lat="45.24704" lon="5.76416">
        <ele>922</ele>
        <time>2016-03-30T12:16:50.000Z</time>
      </trkpt>
      <trkpt lat="45.24717" lon="5.76412">
        <ele>923</ele>
        <time>2016-03-30T12:16:51.000Z</time>
      </trkpt>
      <trkpt lat="45.24731" lon="5.76414">
        <ele>927</ele>
        <time>2016-03-30T12:16:52.000Z</time>
      </trkpt>
      <trkpt lat="45.24741" lon="5.76423">
        <ele>934</ele>
        <time>2016-03-30T12:16:53.000Z</time>
      </trkpt>
      <trkpt lat="45.24753" lon="5.7643">
        <ele>936</ele>
        <time>2016-03-30T12:16:54.000Z</time>
      </trkpt>
      <trkpt lat="45.24767" lon="5.76438">
        <ele>938</ele>
        <time>2016-03-30T12:16:55.000Z</time>
      </trkpt>
      <trkpt lat="45.2478" lon="5.76445">
        <ele>938</ele>
        <time>2016-03-30T12:16:56.000Z</time>
      </trkpt>
      <trkpt lat="45.24794" lon="5.7645">
        <ele>939</ele>
        <time>2016-03-30T12:16:57.000Z</time>
      </trkpt>
      <trkpt lat="45.24807" lon="5.76462">
        <ele>941</ele>
        <time>2016-03-30T12:16:58.000Z</time>
      </trkpt>
      <trkpt lat="45.2482" lon="5.76473">
        <ele>944</ele>
        <time>2016-03-30T12:16:59.000Z</time>
      </trkpt>
      <trkpt lat="45.24835" lon="5.7648">
        <ele>945</ele>
        <time>2016-03-30T12:17:00.000Z</time>
      </trkpt>
      <trkpt lat="45.24845" lon="5.7649">
        <ele>945</ele>
        <time>2016-03-30T12:17:01.000Z</time>
      </trkpt>
      <trkpt lat="45.2486" lon="5.76499">
        <ele>946</ele>
        <time>2016-03-30T12:17:02.000Z</time>
      </trkpt>
      <trkpt lat="45.24875" lon="5.76507">
        <ele>947</ele>
        <time>2016-03-30T12:17:03.000Z</time>
      </trkpt>
      <trkpt lat="45.24888" lon="5.76519">
        <ele>949</ele>
        <time>2016-03-30T12:17:04.000Z</time>
      </trkpt>
      <trkpt lat="45.24902" lon="5.76527">
        <ele>949</ele>
        <time>2016-03-30T12:17:05.000Z</time>
      </trkpt>
      <trkpt lat="45.24914" lon="5.76538">
        <ele>951</ele>
        <time>2016-03-30T12:17:06.000Z</time>
      </trkpt>
      <trkpt lat="45.24928" lon="5.76546">
        <ele>952</ele>
        <time>2016-03-30T12:17:07.000Z</time>
      </trkpt>
      <trkpt lat="45.24941" lon="5.76557">
        <ele>954</ele>
        <time>2016-03-30T12:17:08.000Z</time>
      </trkpt>
      <trkpt lat="45.24953" lon="5.76567">
        <ele>955</ele>
        <time>2016-03-30T12:17:09.000Z</time>
      </trkpt>
      <trkpt lat="45.24966" lon="5.76579">
        <ele>957</ele>
        <time>2016-03-30T12:17:10.000Z</time>
      </trkpt>
      <trkpt lat="45.24984" lon="5.76589">
        <ele>959</ele>
        <time>2016-03-30T12:17:11.000Z</time>
      </trkpt>
      <trkpt lat="45.24998" lon="5.76602">
        <ele>960</ele>
        <time>2016-03-30T12:17:12.000Z</time>
      </trkpt>
      <trkpt lat="45.25012" lon="5.7662">
        <ele>963</ele>
        <time>2016-03-30T12:17:13.000Z</time>
      </trkpt>
      <trkpt lat="45.25026" lon="5.76636">
        <ele>965</ele>
        <time>2016-03-30T12:17:14.000Z</time>
      </trkpt>
      <trkpt lat="45.2504" lon="5.7665">
        <ele>966</ele>
        <time>2016-03-30T12:17:15.000Z</time>
      </trkpt>
      <trkpt lat="45.25056" lon="5.76663">
        <ele>968</ele>
        <time>2016-03-30T12:17:16.000Z</time>
      </trkpt>
      <trkpt lat="45.2507" lon="5.76675">
        <ele>970</ele>
        <time>2016-03-30T12:17:17.000Z</time>
      </trkpt>
      <trkpt lat="45.25084" lon="5.76684">
        <ele>971</ele>
        <time>2016-03-30T12:17:18.000Z</time>
      </trkpt>
      <trkpt lat="45.25103" lon="5.76681">
        <ele>972</ele>
        <time>2016-03-30T12:17:19.000Z</time>
      </trkpt>
      <trkpt lat="45.25117" lon="5.7668">
        <ele>973</ele>
        <time>2016-03-30T12:17:20.000Z</time>
      </trkpt>
      <trkpt lat="45.25132" lon="5.76679">
        <ele>973</ele>
        <time>2016-03-30T12:17:21.000Z</time>
      </trkpt>
      <trkpt lat="45.25148" lon="5.76672">
        <ele>974</ele>
        <time>2016-03-30T12:17:22.000Z</time>
      </trkpt>
      <trkpt lat="45.25165" lon="5.76667">
        <ele>974</ele>
        <time>2016-03-30T12:17:23.000Z</time>
      </trkpt>
      <trkpt lat="45.25183" lon="5.76662">
        <ele>976</ele>
        <time>2016-03-30T12:17:24.000Z</time>
      </trkpt>
      <trkpt lat="45.25198" lon="5.76654">
        <ele>976</ele>
        <time>2016-03-30T12:17:25.000Z</time>
      </trkpt>
      <trkpt lat="45.25212" lon="5.7666">
        <ele>977</ele>
        <time>2016-03-30T12:17:26.000Z</time>
      </trkpt>
      <trkpt lat="45.25227" lon="5.76666">
        <ele>977</ele>
        <time>2016-03-30T12:17:27.000Z</time>
      </trkpt>
      <trkpt lat="45.2524" lon="5.76673">
        <ele>977</ele>
        <time>2016-03-30T12:17:28.000Z</time>
      </trkpt>
      <trkpt lat="45.25258" lon="5.76686">
        <ele>979</ele>
        <time>2016-03-30T12:17:29.000Z</time>
      </trkpt>
      <trkpt lat="45.25271" lon="5.76695">
        <ele>980</ele>
        <time>2016-03-30T12:17:30.000Z</time>
      </trkpt>
      <trkpt lat="45.25285" lon="5.76712">
        <ele>982</ele>
        <time>2016-03-30T12:17:31.000Z</time>
      </trkpt>
      <trkpt lat="45.25302" lon="5.76724">
        <ele>983</ele>
        <time>2016-03-30T12:17:32.000Z</time>
      </trkpt>
      <trkpt lat="45.25318" lon="5.76734">
        <ele>983</ele>
        <time>2016-03-30T12:17:33.000Z</time>
      </trkpt>
      <trkpt lat="45.25333" lon="5.76744">
        <ele>984</ele>
        <time>2016-03-30T12:17:34.000Z</time>
      </trkpt>
      <trkpt lat="45.25346" lon="5.76755">
        <ele>985</ele>
        <time>2016-03-30T12:17:35.000Z</time>
      </trkpt>
      <trkpt lat="45.25359" lon="5.76764">
        <ele>985</ele>
        <time>2016-03-30T12:17:36.000Z</time>
      </trkpt>
      <trkpt lat="45.25371" lon="5.76775">
        <ele>986</ele>
        <time>2016-03-30T12:17:37.000Z</time>
      </trkpt>
      <trkpt lat="45.25385" lon="5.76782">
        <ele>986</ele>
        <time>2016-03-30T12:17:38.000Z</time>
      </trkpt>
      <trkpt lat="45.25397" lon="5.7679">
        <ele>987</ele>
        <time>2016-03-30T12:17:39.000Z</time>
      </trkpt>
      <trkpt lat="45.25413" lon="5.76811">
        <ele>988</ele>
        <time>2016-03-30T12:17:41.000Z</time>
      </trkpt>
      <trkpt lat="45.25421" lon="5.76823">
        <ele>990</ele>
        <time>2016-03-30T12:17:42.000Z</time>
      </trkpt>
      <trkpt lat="45.25423" lon="5.76845">
        <ele>991</ele>
        <time>2016-03-30T12:17:43.000Z</time>
      </trkpt>
      <trkpt lat="45.2543" lon="5.76864">
        <ele>992</ele>
        <time>2016-03-30T12:17:44.000Z</time>
      </trkpt>
      <trkpt lat="45.25435" lon="5.76882">
        <ele>993</ele>
        <time>2016-03-30T12:17:45.000Z</time>
      </trkpt>
      <trkpt lat="45.2544" lon="5.76902">
        <ele>994</ele>
        <time>2016-03-30T12:17:46.000Z</time>
      </trkpt>
      <trkpt lat="45.25445" lon="5.76923">
        <ele>995</ele>
        <time>2016-03-30T12:17:47.000Z</time>
      </trkpt>
      <trkpt lat="45.2545" lon="5.76945">
        <ele>996</ele>
        <time>2016-03-30T12:17:48.000Z</time>
      </trkpt>
      <trkpt lat="45.25455" lon="5.76966">
        <ele>997</ele>
        <time>2016-03-30T12:17:49.000Z</time>
      </trkpt>
      <trkpt lat="45.25458" lon="5.76986">
        <ele>998</ele>
        <time>2016-03-30T12:17:50.000Z</time>
      </trkpt>
      <trkpt lat="45.2546" lon="5.77006">
        <ele>999</ele>
        <time>2016-03-30T12:17:51.000Z</time>
      </trkpt>
      <trkpt lat="45.25463" lon="5.77027">
        <ele>999</ele>
        <time>2016-03-30T12:17:52.000Z</time>
      </trkpt>
      <trkpt lat="45.25465" lon="5.77048">
        <ele>1000</ele>
        <time>2016-03-30T12:17:53.000Z</time>
      </trkpt>
      <trkpt lat="45.25468" lon="5.77071">
        <ele>1001</ele>
        <time>2016-03-30T12:17:54.000Z</time>
      </trkpt>
      <trkpt lat="45.25469" lon="5.77093">
        <ele>1002</ele>
        <time>2016-03-30T12:17:55.000Z</time>
      </trkpt>
      <trkpt lat="45.25469" lon="5.77116">
        <ele>1002</ele>
        <time>2016-03-30T12:17:56.000Z</time>
      </trkpt>
      <trkpt lat="45.25469" lon="5.77139">
        <ele>1003</ele>
        <time>2016-03-30T12:17:57.000Z</time>
      </trkpt>
      <trkpt lat="45.2547" lon="5.77162">
        <ele>1004</ele>
        <time>2016-03-30T12:17:58.000Z</time>
      </trkpt>
      <trkpt lat="45.25471" lon="5.77183">
        <ele>1006</ele>
        <time>2016-03-30T12:17:59.000Z</time>
      </trkpt>
      <trkpt lat="45.25473" lon="5.77204">
        <ele>1007</ele>
        <time>2016-03-30T12:18:00.000Z</time>
      </trkpt>
      <trkpt lat="45.25477" lon="5.77224">
        <ele>1008</ele>
        <time>2016-03-30T12:18:01.000Z</time>
      </trkpt>
      <trkpt lat="45.25483" lon="5.77245">
        <ele>1008</ele>
        <time>2016-03-30T12:18:02.000Z</time>
      </trkpt>
      <trkpt lat="45.25489" lon="5.77266">
        <ele>1009</ele>
        <time>2016-03-30T12:18:03.000Z</time>
      </trkpt>
      <trkpt lat="45.25496" lon="5.77289">
        <ele>1010</ele>
        <time>2016-03-30T12:18:04.000Z</time>
      </trkpt>
      <trkpt lat="45.25504" lon="5.77312">
        <ele>1010</ele>
        <time>2016-03-30T12:18:05.000Z</time>
      </trkpt>
      <trkpt lat="45.25511" lon="5.77334">
        <ele>1011</ele>
        <time>2016-03-30T12:18:06.000Z</time>
      </trkpt>
      <trkpt lat="45.25518" lon="5.77354">
        <ele>1011</ele>
        <time>2016-03-30T12:18:07.000Z</time>
      </trkpt>
      <trkpt lat="45.25526" lon="5.77374">
        <ele>1012</ele>
        <time>2016-03-30T12:18:08.000Z</time>
      </trkpt>
      <trkpt lat="45.25534" lon="5.77394">
        <ele>1012</ele>
        <time>2016-03-30T12:18:09.000Z</time>
      </trkpt>
      <trkpt lat="45.25543" lon="5.77413">
        <ele>1013</ele>
        <time>2016-03-30T12:18:10.000Z</time>
      </trkpt>
      <trkpt lat="45.25551" lon="5.77431">
        <ele>1014</ele>
        <time>2016-03-30T12:18:11.000Z</time>
      </trkpt>
      <trkpt lat="45.2556" lon="5.77448">
        <ele>1015</ele>
        <time>2016-03-30T12:18:12.000Z</time>
      </trkpt>
      <trkpt lat="45.2557" lon="5.77465">
        <ele>1015</ele>
        <time>2016-03-30T12:18:13.000Z</time>
      </trkpt>
      <trkpt lat="45.25583" lon="5.77479">
        <ele>1015</ele>
        <time>2016-03-30T12:18:14.000Z</time>
      </trkpt>
      <trkpt lat="45.25595" lon="5.77494">
        <ele>1016</ele>
        <time>2016-03-30T12:18:15.000Z</time>
      </trkpt>
      <trkpt lat="45.25608" lon="5.77507">
        <ele>1017</ele>
        <time>2016-03-30T12:18:16.000Z</time>
      </trkpt>
      <trkpt lat="45.2562" lon="5.77519">
        <ele>1018</ele>
        <time>2016-03-30T12:18:17.000Z</time>
      </trkpt>
      <trkpt lat="45.25633" lon="5.77528">
        <ele>1018</ele>
        <time>2016-03-30T12:18:18.000Z</time>
      </trkpt>
      <trkpt lat="45.25645" lon="5.77535">
        <ele>1018</ele>
        <time>2016-03-30T12:18:19.000Z</time>
      </trkpt>
      <trkpt lat="45.25663" lon="5.77544">
        <ele>1021</ele>
        <time>2016-03-30T12:18:20.000Z</time>
      </trkpt>
      <trkpt lat="45.25678" lon="5.77553">
        <ele>1023</ele>
        <time>2016-03-30T12:18:21.000Z</time>
      </trkpt>
      <trkpt lat="45.25693" lon="5.77562">
        <ele>1024</ele>
        <time>2016-03-30T12:18:22.000Z</time>
      </trkpt>
      <trkpt lat="45.25707" lon="5.77572">
        <ele>1025</ele>
        <time>2016-03-30T12:18:23.000Z</time>
      </trkpt>
      <trkpt lat="45.2572" lon="5.7758">
        <ele>1026</ele>
        <time>2016-03-30T12:18:24.000Z</time>
      </trkpt>
      <trkpt lat="45.25733" lon="5.77591">
        <ele>1027</ele>
        <time>2016-03-30T12:18:25.000Z</time>
      </trkpt>
      <trkpt lat="45.25745" lon="5.77599">
        <ele>1028</ele>
        <time>2016-03-30T12:18:26.000Z</time>
      </trkpt>
      <trkpt lat="45.25759" lon="5.77607">
        <ele>1029</ele>
        <time>2016-03-30T12:18:27.000Z</time>
      </trkpt>
      <trkpt lat="45.25769" lon="5.77616">
        <ele>1030</ele>
        <time>2016-03-30T12:18:28.000Z</time>
      </trkpt>
      <trkpt lat="45.25779" lon="5.77623">
        <ele>1031</ele>
        <time>2016-03-30T12:18:29.000Z</time>
      </trkpt>
      <trkpt lat="45.25788" lon="5.7763">
        <ele>1031</ele>
        <time>2016-03-30T12:18:30.000Z</time>
      </trkpt>
      <trkpt lat="45.25798" lon="5.77637">
        <ele>1033</ele>
        <time>2016-03-30T12:18:31.000Z</time>
      </trkpt>
      <trkpt lat="45.25809" lon="5.77644">
        <ele>1035</ele>
        <time>2016-03-30T12:18:32.000Z</time>
      </trkpt>
      <trkpt lat="45.25818" lon="5.77652">
        <ele>1036</ele>
        <time>2016-03-30T12:18:33.000Z</time>
      </trkpt>
      <trkpt lat="45.2583" lon="5.77658">
        <ele>1037</ele>
        <time>2016-03-30T12:18:34.000Z</time>
      </trkpt>
      <trkpt lat="45.25841" lon="5.77663">
        <ele>1038</ele>
        <time>2016-03-30T12:18:35.000Z</time>
      </trkpt>
      <trkpt lat="45.25851" lon="5.77669">
        <ele>1039</ele>
        <time>2016-03-30T12:18:36.000Z</time>
      </trkpt>
      <trkpt lat="45.25863" lon="5.77673">
        <ele>1040</ele>
        <time>2016-03-30T12:18:37.000Z</time>
      </trkpt>
      <trkpt lat="45.25874" lon="5.77678">
        <ele>1041</ele>
        <time>2016-03-30T12:18:38.000Z</time>
      </trkpt>
      <trkpt lat="45.25884" lon="5.77682">
        <ele>1042</ele>
        <time>2016-03-30T12:18:39.000Z</time>
      </trkpt>
      <trkpt lat="45.25895" lon="5.77688">
        <ele>1043</ele>
        <time>2016-03-30T12:18:40.000Z</time>
      </trkpt>
      <trkpt lat="45.25905" lon="5.77694">
        <ele>1044</ele>
        <time>2016-03-30T12:18:41.000Z</time>
      </trkpt>
      <trkpt lat="45.25916" lon="5.777">
        <ele>1044</ele>
        <time>2016-03-30T12:18:42.000Z</time>
      </trkpt>
      <trkpt lat="45.25925" lon="5.77707">
        <ele>1044</ele>
        <time>2016-03-30T12:18:43.000Z</time>
      </trkpt>
      <trkpt lat="45.25935" lon="5.77715">
        <ele>1044</ele>
        <time>2016-03-30T12:18:44.000Z</time>
      </trkpt>
      <trkpt lat="45.25943" lon="5.77723">
        <ele>1044</ele>
        <time>2016-03-30T12:18:45.000Z</time>
      </trkpt>
      <trkpt lat="45.25955" lon="5.77728">
        <ele>1047</ele>
        <time>2016-03-30T12:18:46.000Z</time>
      </trkpt>
      <trkpt lat="45.25966" lon="5.77732">
        <ele>1049</ele>
        <time>2016-03-30T12:18:47.000Z</time>
      </trkpt>
      <trkpt lat="45.25975" lon="5.77731">
        <ele>1050</ele>
        <time>2016-03-30T12:18:48.000Z</time>
      </trkpt>
      <trkpt lat="45.25985" lon="5.7773">
        <ele>1053</ele>
        <time>2016-03-30T12:18:49.000Z</time>
      </trkpt>
      <trkpt lat="45.25994" lon="5.77729">
        <ele>1054</ele>
        <time>2016-03-30T12:18:50.000Z</time>
      </trkpt>
      <trkpt lat="45.26004" lon="5.77731">
        <ele>1055</ele>
        <time>2016-03-30T12:18:51.000Z</time>
      </trkpt>
      <trkpt lat="45.26023" lon="5.77738">
        <ele>1055</ele>
        <time>2016-03-30T12:18:53.000Z</time>
      </trkpt>
      <trkpt lat="45.26033" lon="5.77738">
        <ele>1056</ele>
        <time>2016-03-30T12:18:54.000Z</time>
      </trkpt>
      <trkpt lat="45.26043" lon="5.77736">
        <ele>1055</ele>
        <time>2016-03-30T12:18:55.000Z</time>
      </trkpt>
      <trkpt lat="45.26054" lon="5.77736">
        <ele>1058</ele>
        <time>2016-03-30T12:18:56.000Z</time>
      </trkpt>
      <trkpt lat="45.26065" lon="5.77736">
        <ele>1059</ele>
        <time>2016-03-30T12:18:57.000Z</time>
      </trkpt>
      <trkpt lat="45.26075" lon="5.77736">
        <ele>1060</ele>
        <time>2016-03-30T12:18:58.000Z</time>
      </trkpt>
      <trkpt lat="45.26085" lon="5.77735">
        <ele>1060</ele>
        <time>2016-03-30T12:18:59.000Z</time>
      </trkpt>
      <trkpt lat="45.26104" lon="5.77737">
        <ele>1063</ele>
        <time>2016-03-30T12:19:01.000Z</time>
      </trkpt>
      <trkpt lat="45.26114" lon="5.7774">
        <ele>1063</ele>
        <time>2016-03-30T12:19:02.000Z</time>
      </trkpt>
      <trkpt lat="45.26125" lon="5.77743">
        <ele>1063</ele>
        <time>2016-03-30T12:19:03.000Z</time>
      </trkpt>
      <trkpt lat="45.26134" lon="5.77749">
        <ele>1063</ele>
        <time>2016-03-30T12:19:04.000Z</time>
      </trkpt>
      <trkpt lat="45.26144" lon="5.77757">
        <ele>1064</ele>
        <time>2016-03-30T12:19:05.000Z</time>
      </trkpt>
      <trkpt lat="45.26153" lon="5.77765">
        <ele>1065</ele>
        <time>2016-03-30T12:19:06.000Z</time>
      </trkpt>
      <trkpt lat="45.26164" lon="5.77774">
        <ele>1066</ele>
        <time>2016-03-30T12:19:07.000Z</time>
      </trkpt>
      <trkpt lat="45.26173" lon="5.77781">
        <ele>1067</ele>
        <time>2016-03-30T12:19:08.000Z</time>
      </trkpt>
      <trkpt lat="45.26183" lon="5.77788">
        <ele>1067</ele>
        <time>2016-03-30T12:19:09.000Z</time>
      </trkpt>
      <trkpt lat="45.26191" lon="5.77795">
        <ele>1067</ele>
        <time>2016-03-30T12:19:10.000Z</time>
      </trkpt>
      <trkpt lat="45.262" lon="5.77798">
        <ele>1068</ele>
        <time>2016-03-30T12:19:11.000Z</time>
      </trkpt>
      <trkpt lat="45.2621" lon="5.77796">
        <ele>1069</ele>
        <time>2016-03-30T12:19:12.000Z</time>
      </trkpt>
      <trkpt lat="45.26222" lon="5.77793">
        <ele>1068</ele>
        <time>2016-03-30T12:19:13.000Z</time>
      </trkpt>
      <trkpt lat="45.26234" lon="5.77791">
        <ele>1071</ele>
        <time>2016-03-30T12:19:14.000Z</time>
      </trkpt>
      <trkpt lat="45.26249" lon="5.7779">
        <ele>1072</ele>
        <time>2016-03-30T12:19:15.000Z</time>
      </trkpt>
      <trkpt lat="45.26264" lon="5.77788">
        <ele>1075</ele>
        <time>2016-03-30T12:19:16.000Z</time>
      </trkpt>
      <trkpt lat="45.26278" lon="5.77786">
        <ele>1076</ele>
        <time>2016-03-30T12:19:17.000Z</time>
      </trkpt>
      <trkpt lat="45.26292" lon="5.77784">
        <ele>1075</ele>
        <time>2016-03-30T12:19:18.000Z</time>
      </trkpt>
      <trkpt lat="45.26307" lon="5.77783">
        <ele>1077</ele>
        <time>2016-03-30T12:19:19.000Z</time>
      </trkpt>
      <trkpt lat="45.26323" lon="5.7778">
        <ele>1078</ele>
        <time>2016-03-30T12:19:20.000Z</time>
      </trkpt>
      <trkpt lat="45.26336" lon="5.77777">
        <ele>1079</ele>
        <time>2016-03-30T12:19:21.000Z</time>
      </trkpt>
      <trkpt lat="45.26351" lon="5.77774">
        <ele>1082</ele>
        <time>2016-03-30T12:19:22.000Z</time>
      </trkpt>
      <trkpt lat="45.26366" lon="5.77772">
        <ele>1084</ele>
        <time>2016-03-30T12:19:23.000Z</time>
      </trkpt>
      <trkpt lat="45.2638" lon="5.77769">
        <ele>1086</ele>
        <time>2016-03-30T12:19:24.000Z</time>
      </trkpt>
      <trkpt lat="45.26395" lon="5.77767">
        <ele>1088</ele>
        <time>2016-03-30T12:19:25.000Z</time>
      </trkpt>
      <trkpt lat="45.2641" lon="5.77765">
        <ele>1088</ele>
        <time>2016-03-30T12:19:26.000Z</time>
      </trkpt>
      <trkpt lat="45.26425" lon="5.77763">
        <ele>1091</ele>
        <time>2016-03-30T12:19:27.000Z</time>
      </trkpt>
      <trkpt lat="45.2644" lon="5.77759">
        <ele>1091</ele>
        <time>2016-03-30T12:19:28.000Z</time>
      </trkpt>
      <trkpt lat="45.26455" lon="5.77757">
        <ele>1093</ele>
        <time>2016-03-30T12:19:29.000Z</time>
      </trkpt>
      <trkpt lat="45.2647" lon="5.77754">
        <ele>1094</ele>
        <time>2016-03-30T12:19:30.000Z</time>
      </trkpt>
      <trkpt lat="45.26483" lon="5.77751">
        <ele>1096</ele>
        <time>2016-03-30T12:19:31.000Z</time>
      </trkpt>
      <trkpt lat="45.26495" lon="5.77749">
        <ele>1098</ele>
        <time>2016-03-30T12:19:32.000Z</time>
      </trkpt>
      <trkpt lat="45.26507" lon="5.77746">
        <ele>1097</ele>
        <time>2016-03-30T12:19:33.000Z</time>
      </trkpt>
      <trkpt lat="45.26519" lon="5.77742">
        <ele>1097</ele>
        <time>2016-03-30T12:19:34.000Z</time>
      </trkpt>
      <trkpt lat="45.26531" lon="5.77735">
        <ele>1097</ele>
        <time>2016-03-30T12:19:35.000Z</time>
      </trkpt>
      <trkpt lat="45.26539" lon="5.77727">
        <ele>1097</ele>
        <time>2016-03-30T12:19:36.000Z</time>
      </trkpt>
      <trkpt lat="45.26547" lon="5.77717">
        <ele>1097</ele>
        <time>2016-03-30T12:19:37.000Z</time>
      </trkpt>
      <trkpt lat="45.26547" lon="5.77688">
        <ele>1100</ele>
        <time>2016-03-30T12:19:38.000Z</time>
      </trkpt>
      <trkpt lat="45.26551" lon="5.7767">
        <ele>1101</ele>
        <time>2016-03-30T12:19:39.000Z</time>
      </trkpt>
      <trkpt lat="45.26555" lon="5.77651">
        <ele>1101</ele>
        <time>2016-03-30T12:19:40.000Z</time>
      </trkpt>
      <trkpt lat="45.26557" lon="5.77634">
        <ele>1101</ele>
        <time>2016-03-30T12:19:41.000Z</time>
      </trkpt>
      <trkpt lat="45.26558" lon="5.77622">
        <ele>1102</ele>
        <time>2016-03-30T12:19:42.000Z</time>
      </trkpt>
      <trkpt lat="45.2656" lon="5.77608">
        <ele>1103</ele>
        <time>2016-03-30T12:19:43.000Z</time>
      </trkpt>
      <trkpt lat="45.2656" lon="5.77592">
        <ele>1103</ele>
        <time>2016-03-30T12:19:44.000Z</time>
      </trkpt>
      <trkpt lat="45.26557" lon="5.77578">
        <ele>1104</ele>
        <time>2016-03-30T12:19:45.000Z</time>
      </trkpt>
      <trkpt lat="45.26548" lon="5.77561">
        <ele>1106</ele>
        <time>2016-03-30T12:19:46.000Z</time>
      </trkpt>
      <trkpt lat="45.26536" lon="5.77554">
        <ele>1107</ele>
        <time>2016-03-30T12:19:47.000Z</time>
      </trkpt>
      <trkpt lat="45.26527" lon="5.77543">
        <ele>1107</ele>
        <time>2016-03-30T12:19:48.000Z</time>
      </trkpt>
      <trkpt lat="45.2652" lon="5.77529">
        <ele>1107</ele>
        <time>2016-03-30T12:19:49.000Z</time>
      </trkpt>
      <trkpt lat="45.26518" lon="5.77513">
        <ele>1108</ele>
        <time>2016-03-30T12:19:50.000Z</time>
      </trkpt>
      <trkpt lat="45.26511" lon="5.77499">
        <ele>1109</ele>
        <time>2016-03-30T12:19:51.000Z</time>
      </trkpt>
      <trkpt lat="45.26505" lon="5.7749">
        <ele>1109</ele>
        <time>2016-03-30T12:19:52.000Z</time>
      </trkpt>
      <trkpt lat="45.26493" lon="5.77487">
        <ele>1110</ele>
        <time>2016-03-30T12:19:53.000Z</time>
      </trkpt>
      <trkpt lat="45.26482" lon="5.77482">
        <ele>1112</ele>
        <time>2016-03-30T12:19:54.000Z</time>
      </trkpt>
      <trkpt lat="45.26475" lon="5.77472">
        <ele>1113</ele>
        <time>2016-03-30T12:19:55.000Z</time>
      </trkpt>
      <trkpt lat="45.26472" lon="5.77458">
        <ele>1114</ele>
        <time>2016-03-30T12:19:56.000Z</time>
      </trkpt>
      <trkpt lat="45.26472" lon="5.77443">
        <ele>1115</ele>
        <time>2016-03-30T12:19:57.000Z</time>
      </trkpt>
      <trkpt lat="45.26472" lon="5.7743">
        <ele>1115</ele>
        <time>2016-03-30T12:19:58.000Z</time>
      </trkpt>
      <trkpt lat="45.2648" lon="5.7742">
        <ele>1117</ele>
        <time>2016-03-30T12:19:59.000Z</time>
      </trkpt>
      <trkpt lat="45.26487" lon="5.77411">
        <ele>1118</ele>
        <time>2016-03-30T12:20:00.000Z</time>
      </trkpt>
      <trkpt lat="45.26497" lon="5.77401">
        <ele>1119</ele>
        <time>2016-03-30T12:20:01.000Z</time>
      </trkpt>
      <trkpt lat="45.26506" lon="5.77391">
        <ele>1120</ele>
        <time>2016-03-30T12:20:02.000Z</time>
      </trkpt>
      <trkpt lat="45.26515" lon="5.77379">
        <ele>1123</ele>
        <time>2016-03-30T12:20:03.000Z</time>
      </trkpt>
      <trkpt lat="45.26526" lon="5.77367">
        <ele>1123</ele>
        <time>2016-03-30T12:20:04.000Z</time>
      </trkpt>
      <trkpt lat="45.26535" lon="5.77354">
        <ele>1126</ele>
        <time>2016-03-30T12:20:05.000Z</time>
      </trkpt>
      <trkpt lat="45.26545" lon="5.77343">
        <ele>1126</ele>
        <time>2016-03-30T12:20:06.000Z</time>
      </trkpt>
      <trkpt lat="45.26554" lon="5.77332">
        <ele>1128</ele>
        <time>2016-03-30T12:20:07.000Z</time>
      </trkpt>
      <trkpt lat="45.26563" lon="5.77322">
        <ele>1130</ele>
        <time>2016-03-30T12:20:08.000Z</time>
      </trkpt>
      <trkpt lat="45.26573" lon="5.77314">
        <ele>1130</ele>
        <time>2016-03-30T12:20:09.000Z</time>
      </trkpt>
      <trkpt lat="45.26584" lon="5.77305">
        <ele>1131</ele>
        <time>2016-03-30T12:20:10.000Z</time>
      </trkpt>
      <trkpt lat="45.26597" lon="5.77297">
        <ele>1131</ele>
        <time>2016-03-30T12:20:11.000Z</time>
      </trkpt>
      <trkpt lat="45.26611" lon="5.77296">
        <ele>1131</ele>
        <time>2016-03-30T12:20:12.000Z</time>
      </trkpt>
      <trkpt lat="45.26625" lon="5.77293">
        <ele>1131</ele>
        <time>2016-03-30T12:20:13.000Z</time>
      </trkpt>
      <trkpt lat="45.26639" lon="5.7729">
        <ele>1132</ele>
        <time>2016-03-30T12:20:14.000Z</time>
      </trkpt>
      <trkpt lat="45.26654" lon="5.77288">
        <ele>1134</ele>
        <time>2016-03-30T12:20:15.000Z</time>
      </trkpt>
      <trkpt lat="45.26669" lon="5.77286">
        <ele>1136</ele>
        <time>2016-03-30T12:20:16.000Z</time>
      </trkpt>
      <trkpt lat="45.26682" lon="5.77285">
        <ele>1138</ele>
        <time>2016-03-30T12:20:17.000Z</time>
      </trkpt>
      <trkpt lat="45.26695" lon="5.7728">
        <ele>1139</ele>
        <time>2016-03-30T12:20:18.000Z</time>
      </trkpt>
      <trkpt lat="45.26706" lon="5.77276">
        <ele>1140</ele>
        <time>2016-03-30T12:20:19.000Z</time>
      </trkpt>
      <trkpt lat="45.26718" lon="5.7727">
        <ele>1141</ele>
        <time>2016-03-30T12:20:20.000Z</time>
      </trkpt>
      <trkpt lat="45.26728" lon="5.77255">
        <ele>1142</ele>
        <time>2016-03-30T12:20:21.000Z</time>
      </trkpt>
      <trkpt lat="45.26737" lon="5.7724">
        <ele>1143</ele>
        <time>2016-03-30T12:20:22.000Z</time>
      </trkpt>
      <trkpt lat="45.26745" lon="5.7723">
        <ele>1144</ele>
        <time>2016-03-30T12:20:23.000Z</time>
      </trkpt>
      <trkpt lat="45.26754" lon="5.77218">
        <ele>1146</ele>
        <time>2016-03-30T12:20:24.000Z</time>
      </trkpt>
      <trkpt lat="45.26768" lon="5.77209">
        <ele>1149</ele>
        <time>2016-03-30T12:20:25.000Z</time>
      </trkpt>
      <trkpt lat="45.26782" lon="5.772">
        <ele>1151</ele>
        <time>2016-03-30T12:20:26.000Z</time>
      </trkpt>
      <trkpt lat="45.26796" lon="5.7719">
        <ele>1153</ele>
        <time>2016-03-30T12:20:27.000Z</time>
      </trkpt>
      <trkpt lat="45.26809" lon="5.77183">
        <ele>1156</ele>
        <time>2016-03-30T12:20:28.000Z</time>
      </trkpt>
      <trkpt lat="45.26823" lon="5.77175">
        <ele>1156</ele>
        <time>2016-03-30T12:20:29.000Z</time>
      </trkpt>
      <trkpt lat="45.26836" lon="5.77167">
        <ele>1158</ele>
        <time>2016-03-30T12:20:30.000Z</time>
      </trkpt>
      <trkpt lat="45.2685" lon="5.77157">
        <ele>1159</ele>
        <time>2016-03-30T12:20:31.000Z</time>
      </trkpt>
      <trkpt lat="45.26864" lon="5.77147">
        <ele>1160</ele>
        <time>2016-03-30T12:20:32.000Z</time>
      </trkpt>
      <trkpt lat="45.26878" lon="5.77139">
        <ele>1162</ele>
        <time>2016-03-30T12:20:33.000Z</time>
      </trkpt>
      <trkpt lat="45.26893" lon="5.77129">
        <ele>1163</ele>
        <time>2016-03-30T12:20:34.000Z</time>
      </trkpt>
      <trkpt lat="45.26908" lon="5.77121">
        <ele>1163</ele>
        <time>2016-03-30T12:20:35.000Z</time>
      </trkpt>
      <trkpt lat="45.26923" lon="5.77112">
        <ele>1163</ele>
        <time>2016-03-30T12:20:36.000Z</time>
      </trkpt>
      <trkpt lat="45.26938" lon="5.77101">
        <ele>1164</ele>
        <time>2016-03-30T12:20:37.000Z</time>
      </trkpt>
      <trkpt lat="45.26953" lon="5.77091">
        <ele>1166</ele>
        <time>2016-03-30T12:20:38.000Z</time>
      </trkpt>
      <trkpt lat="45.26967" lon="5.77081">
        <ele>1166</ele>
        <time>2016-03-30T12:20:39.000Z</time>
      </trkpt>
      <trkpt lat="45.26982" lon="5.77072">
        <ele>1168</ele>
        <time>2016-03-30T12:20:40.000Z</time>
      </trkpt>
      <trkpt lat="45.26997" lon="5.77062">
        <ele>1169</ele>
        <time>2016-03-30T12:20:41.000Z</time>
      </trkpt>
      <trkpt lat="45.27012" lon="5.77056">
        <ele>1170</ele>
        <time>2016-03-30T12:20:42.000Z</time>
      </trkpt>
      <trkpt lat="45.27027" lon="5.77047">
        <ele>1171</ele>
        <time>2016-03-30T12:20:43.000Z</time>
      </trkpt>
      <trkpt lat="45.27042" lon="5.77039">
        <ele>1173</ele>
        <time>2016-03-30T12:20:44.000Z</time>
      </trkpt>
      <trkpt lat="45.27056" lon="5.7703">
        <ele>1175</ele>
        <time>2016-03-30T12:20:45.000Z</time>
      </trkpt>
      <trkpt lat="45.27069" lon="5.77024">
        <ele>1174</ele>
        <time>2016-03-30T12:20:46.000Z</time>
      </trkpt>
      <trkpt lat="45.27083" lon="5.77017">
        <ele>1175</ele>
        <time>2016-03-30T12:20:47.000Z</time>
      </trkpt>
      <trkpt lat="45.27099" lon="5.7701">
        <ele>1174</ele>
        <time>2016-03-30T12:20:48.000Z</time>
      </trkpt>
      <trkpt lat="45.27112" lon="5.77006">
        <ele>1174</ele>
        <time>2016-03-30T12:20:49.000Z</time>
      </trkpt>
      <trkpt lat="45.27129" lon="5.76998">
        <ele>1179</ele>
        <time>2016-03-30T12:20:51.000Z</time>
      </trkpt>
      <trkpt lat="45.27136" lon="5.76989">
        <ele>1179</ele>
        <time>2016-03-30T12:20:52.000Z</time>
      </trkpt>
      <trkpt lat="45.27136" lon="5.76968">
        <ele>1178</ele>
        <time>2016-03-30T12:20:53.000Z</time>
      </trkpt>
      <trkpt lat="45.27137" lon="5.76951">
        <ele>1178</ele>
        <time>2016-03-30T12:20:54.000Z</time>
      </trkpt>
      <trkpt lat="45.2714" lon="5.76933">
        <ele>1178</ele>
        <time>2016-03-30T12:20:55.000Z</time>
      </trkpt>
      <trkpt lat="45.27144" lon="5.76914">
        <ele>1178</ele>
        <time>2016-03-30T12:20:56.000Z</time>
      </trkpt>
      <trkpt lat="45.27148" lon="5.76895">
        <ele>1178</ele>
        <time>2016-03-30T12:20:57.000Z</time>
      </trkpt>
      <trkpt lat="45.27153" lon="5.76875">
        <ele>1178</ele>
        <time>2016-03-30T12:20:58.000Z</time>
      </trkpt>
      <trkpt lat="45.27157" lon="5.76855">
        <ele>1178</ele>
        <time>2016-03-30T12:20:59.000Z</time>
      </trkpt>
      <trkpt lat="45.27158" lon="5.76836">
        <ele>1178</ele>
        <time>2016-03-30T12:21:00.000Z</time>
      </trkpt>
      <trkpt lat="45.27165" lon="5.76819">
        <ele>1178</ele>
        <time>2016-03-30T12:21:01.000Z</time>
      </trkpt>
      <trkpt lat="45.27176" lon="5.768">
        <ele>1175</ele>
        <time>2016-03-30T12:21:02.000Z</time>
      </trkpt>
      <trkpt lat="45.27184" lon="5.76783">
        <ele>1175</ele>
        <time>2016-03-30T12:21:03.000Z</time>
      </trkpt>
      <trkpt lat="45.2719" lon="5.76765">
        <ele>1177</ele>
        <time>2016-03-30T12:21:04.000Z</time>
      </trkpt>
      <trkpt lat="45.27194" lon="5.76748">
        <ele>1178</ele>
        <time>2016-03-30T12:21:05.000Z</time>
      </trkpt>
      <trkpt lat="45.27195" lon="5.7673">
        <ele>1180</ele>
        <time>2016-03-30T12:21:06.000Z</time>
      </trkpt>
      <trkpt lat="45.27199" lon="5.76716">
        <ele>1181</ele>
        <time>2016-03-30T12:21:07.000Z</time>
      </trkpt>
      <trkpt lat="45.27204" lon="5.76702">
        <ele>1183</ele>
        <time>2016-03-30T12:21:08.000Z</time>
      </trkpt>
      <trkpt lat="45.2721" lon="5.7669">
        <ele>1184</ele>
        <time>2016-03-30T12:21:09.000Z</time>
      </trkpt>
      <trkpt lat="45.27218" lon="5.7668">
        <ele>1183</ele>
        <time>2016-03-30T12:21:10.000Z</time>
      </trkpt>
      <trkpt lat="45.27224" lon="5.76671">
        <ele>1184</ele>
        <time>2016-03-30T12:21:11.000Z</time>
      </trkpt>
      <trkpt lat="45.27232" lon="5.7666">
        <ele>1185</ele>
        <time>2016-03-30T12:21:12.000Z</time>
      </trkpt>
      <trkpt lat="45.2725" lon="5.76646">
        <ele>1187</ele>
        <time>2016-03-30T12:21:13.000Z</time>
      </trkpt>
      <trkpt lat="45.27253" lon="5.76628">
        <ele>1188</ele>
        <time>2016-03-30T12:21:14.000Z</time>
      </trkpt>
      <trkpt lat="45.27261" lon="5.76614">
        <ele>1189</ele>
        <time>2016-03-30T12:21:15.000Z</time>
      </trkpt>
      <trkpt lat="45.27266" lon="5.76598">
        <ele>1190</ele>
        <time>2016-03-30T12:21:16.000Z</time>
      </trkpt>
      <trkpt lat="45.27269" lon="5.76585">
        <ele>1191</ele>
        <time>2016-03-30T12:21:17.000Z</time>
      </trkpt>
      <trkpt lat="45.27271" lon="5.76573">
        <ele>1192</ele>
        <time>2016-03-30T12:21:18.000Z</time>
      </trkpt>
      <trkpt lat="45.27279" lon="5.76551">
        <ele>1198</ele>
        <time>2016-03-30T12:21:20.000Z</time>
      </trkpt>
      <trkpt lat="45.27289" lon="5.76548">
        <ele>1200</ele>
        <time>2016-03-30T12:21:22.000Z</time>
      </trkpt>
      <trkpt lat="45.27306" lon="5.7656">
        <ele>1203</ele>
        <time>2016-03-30T12:21:24.000Z</time>
      </trkpt>
      <trkpt lat="45.27316" lon="5.76566">
        <ele>1203</ele>
        <time>2016-03-30T12:21:25.000Z</time>
      </trkpt>
      <trkpt lat="45.27325" lon="5.76578">
        <ele>1204</ele>
        <time>2016-03-30T12:21:26.000Z</time>
      </trkpt>
      <trkpt lat="45.27337" lon="5.76587">
        <ele>1203</ele>
        <time>2016-03-30T12:21:27.000Z</time>
      </trkpt>
      <trkpt lat="45.27348" lon="5.76599">
        <ele>1204</ele>
        <time>2016-03-30T12:21:28.000Z</time>
      </trkpt>
      <trkpt lat="45.27359" lon="5.7661">
        <ele>1204</ele>
        <time>2016-03-30T12:21:29.000Z</time>
      </trkpt>
      <trkpt lat="45.27369" lon="5.76621">
        <ele>1206</ele>
        <time>2016-03-30T12:21:30.000Z</time>
      </trkpt>
      <trkpt lat="45.27378" lon="5.76634">
        <ele>1207</ele>
        <time>2016-03-30T12:21:31.000Z</time>
      </trkpt>
      <trkpt lat="45.27387" lon="5.7665">
        <ele>1206</ele>
        <time>2016-03-30T12:21:32.000Z</time>
      </trkpt>
      <trkpt lat="45.27388" lon="5.76669">
        <ele>1207</ele>
        <time>2016-03-30T12:21:33.000Z</time>
      </trkpt>
      <trkpt lat="45.27399" lon="5.76684">
        <ele>1208</ele>
        <time>2016-03-30T12:21:34.000Z</time>
      </trkpt>
      <trkpt lat="45.27408" lon="5.76698">
        <ele>1210</ele>
        <time>2016-03-30T12:21:35.000Z</time>
      </trkpt>
      <trkpt lat="45.27417" lon="5.76713">
        <ele>1212</ele>
        <time>2016-03-30T12:21:36.000Z</time>
      </trkpt>
      <trkpt lat="45.27426" lon="5.76721">
        <ele>1212</ele>
        <time>2016-03-30T12:21:37.000Z</time>
      </trkpt>
      <trkpt lat="45.27434" lon="5.76729">
        <ele>1214</ele>
        <time>2016-03-30T12:21:38.000Z</time>
      </trkpt>
      <trkpt lat="45.27443" lon="5.76744">
        <ele>1215</ele>
        <time>2016-03-30T12:21:40.000Z</time>
      </trkpt>
      <trkpt lat="45.27455" lon="5.76753">
        <ele>1215</ele>
        <time>2016-03-30T12:21:42.000Z</time>
      </trkpt>
      <trkpt lat="45.27471" lon="5.76744">
        <ele>1215</ele>
        <time>2016-03-30T12:21:44.000Z</time>
      </trkpt>
      <trkpt lat="45.27475" lon="5.76729">
        <ele>1214</ele>
        <time>2016-03-30T12:21:46.000Z</time>
      </trkpt>
      <trkpt lat="45.27478" lon="5.76715">
        <ele>1214</ele>
        <time>2016-03-30T12:21:47.000Z</time>
      </trkpt>
      <trkpt lat="45.27483" lon="5.76696">
        <ele>1216</ele>
        <time>2016-03-30T12:21:48.000Z</time>
      </trkpt>
      <trkpt lat="45.27486" lon="5.76684">
        <ele>1217</ele>
        <time>2016-03-30T12:21:49.000Z</time>
      </trkpt>
      <trkpt lat="45.27486" lon="5.76668">
        <ele>1218</ele>
        <time>2016-03-30T12:21:50.000Z</time>
      </trkpt>
      <trkpt lat="45.2749" lon="5.7665">
        <ele>1221</ele>
        <time>2016-03-30T12:21:51.000Z</time>
      </trkpt>
      <trkpt lat="45.27492" lon="5.76635">
        <ele>1221</ele>
        <time>2016-03-30T12:21:52.000Z</time>
      </trkpt>
      <trkpt lat="45.27495" lon="5.7662">
        <ele>1222</ele>
        <time>2016-03-30T12:21:53.000Z</time>
      </trkpt>
      <trkpt lat="45.275" lon="5.76607">
        <ele>1225</ele>
        <time>2016-03-30T12:21:54.000Z</time>
      </trkpt>
      <trkpt lat="45.27512" lon="5.76585">
        <ele>1222</ele>
        <time>2016-03-30T12:21:56.000Z</time>
      </trkpt>
      <trkpt lat="45.27539" lon="5.76594">
        <ele>1224</ele>
        <time>2016-03-30T12:21:58.000Z</time>
      </trkpt>
      <trkpt lat="45.27553" lon="5.76594">
        <ele>1223</ele>
        <time>2016-03-30T12:21:59.000Z</time>
      </trkpt>
      <trkpt lat="45.27567" lon="5.76594">
        <ele>1224</ele>
        <time>2016-03-30T12:22:00.000Z</time>
      </trkpt>
      <trkpt lat="45.27579" lon="5.76593">
        <ele>1225</ele>
        <time>2016-03-30T12:22:01.000Z</time>
      </trkpt>
      <trkpt lat="45.27592" lon="5.76592">
        <ele>1226</ele>
        <time>2016-03-30T12:22:02.000Z</time>
      </trkpt>
      <trkpt lat="45.27605" lon="5.76595">
        <ele>1228</ele>
        <time>2016-03-30T12:22:03.000Z</time>
      </trkpt>
      <trkpt lat="45.27619" lon="5.76598">
        <ele>1228</ele>
        <time>2016-03-30T12:22:04.000Z</time>
      </trkpt>
      <trkpt lat="45.27634" lon="5.76604">
        <ele>1232</ele>
        <time>2016-03-30T12:22:05.000Z</time>
      </trkpt>
      <trkpt lat="45.27647" lon="5.7661">
        <ele>1233</ele>
        <time>2016-03-30T12:22:06.000Z</time>
      </trkpt>
      <trkpt lat="45.27659" lon="5.76617">
        <ele>1234</ele>
        <time>2016-03-30T12:22:07.000Z</time>
      </trkpt>
      <trkpt lat="45.27672" lon="5.76628">
        <ele>1234</ele>
        <time>2016-03-30T12:22:08.000Z</time>
      </trkpt>
      <trkpt lat="45.27685" lon="5.76637">
        <ele>1235</ele>
        <time>2016-03-30T12:22:09.000Z</time>
      </trkpt>
      <trkpt lat="45.27696" lon="5.76648">
        <ele>1235</ele>
        <time>2016-03-30T12:22:10.000Z</time>
      </trkpt>
      <trkpt lat="45.2771" lon="5.76652">
        <ele>1236</ele>
        <time>2016-03-30T12:22:11.000Z</time>
      </trkpt>
      <trkpt lat="45.27727" lon="5.76653">
        <ele>1237</ele>
        <time>2016-03-30T12:22:12.000Z</time>
      </trkpt>
      <trkpt lat="45.27741" lon="5.76649">
        <ele>1238</ele>
        <time>2016-03-30T12:22:13.000Z</time>
      </trkpt>
      <trkpt lat="45.27758" lon="5.76649">
        <ele>1239</ele>
        <time>2016-03-30T12:22:14.000Z</time>
      </trkpt>
      <trkpt lat="45.27774" lon="5.76645">
        <ele>1238</ele>
        <time>2016-03-30T12:22:15.000Z</time>
      </trkpt>
      <trkpt lat="45.27788" lon="5.76641">
        <ele>1238</ele>
        <time>2016-03-30T12:22:16.000Z</time>
      </trkpt>
      <trkpt lat="45.27801" lon="5.76637">
        <ele>1238</ele>
        <time>2016-03-30T12:22:17.000Z</time>
      </trkpt>
      <trkpt lat="45.27815" lon="5.76633">
        <ele>1241</ele>
        <time>2016-03-30T12:22:18.000Z</time>
      </trkpt>
      <trkpt lat="45.27828" lon="5.76627">
        <ele>1241</ele>
        <time>2016-03-30T12:22:19.000Z</time>
      </trkpt>
      <trkpt lat="45.27842" lon="5.7662">
        <ele>1241</ele>
        <time>2016-03-30T12:22:20.000Z</time>
      </trkpt>
      <trkpt lat="45.27852" lon="5.76617">
        <ele>1242</ele>
        <time>2016-03-30T12:22:21.000Z</time>
      </trkpt>
      <trkpt lat="45.27869" lon="5.76614">
        <ele>1242</ele>
        <time>2016-03-30T12:22:22.000Z</time>
      </trkpt>
      <trkpt lat="45.27886" lon="5.76614">
        <ele>1242</ele>
        <time>2016-03-30T12:22:23.000Z</time>
      </trkpt>
      <trkpt lat="45.27901" lon="5.76611">
        <ele>1245</ele>
        <time>2016-03-30T12:22:24.000Z</time>
      </trkpt>
      <trkpt lat="45.27919" lon="5.76606">
        <ele>1248</ele>
        <time>2016-03-30T12:22:25.000Z</time>
      </trkpt>
      <trkpt lat="45.27931" lon="5.76609">
        <ele>1247</ele>
        <time>2016-03-30T12:22:26.000Z</time>
      </trkpt>
      <trkpt lat="45.27947" lon="5.76616">
        <ele>1248</ele>
        <time>2016-03-30T12:22:27.000Z</time>
      </trkpt>
      <trkpt lat="45.27965" lon="5.76618">
        <ele>1250</ele>
        <time>2016-03-30T12:22:28.000Z</time>
      </trkpt>
      <trkpt lat="45.27979" lon="5.76622">
        <ele>1252</ele>
        <time>2016-03-30T12:22:29.000Z</time>
      </trkpt>
      <trkpt lat="45.28001" lon="5.76625">
        <ele>1255</ele>
        <time>2016-03-30T12:22:30.000Z</time>
      </trkpt>
      <trkpt lat="45.28019" lon="5.76626">
        <ele>1256</ele>
        <time>2016-03-30T12:22:31.000Z</time>
      </trkpt>
      <trkpt lat="45.2804" lon="5.76624">
        <ele>1256</ele>
        <time>2016-03-30T12:22:32.000Z</time>
      </trkpt>
      <trkpt lat="45.28055" lon="5.7662">
        <ele>1260</ele>
        <time>2016-03-30T12:22:33.000Z</time>
      </trkpt>
      <trkpt lat="45.2807" lon="5.76619">
        <ele>1261</ele>
        <time>2016-03-30T12:22:34.000Z</time>
      </trkpt>
      <trkpt lat="45.28084" lon="5.7662">
        <ele>1262</ele>
        <time>2016-03-30T12:22:35.000Z</time>
      </trkpt>
      <trkpt lat="45.28099" lon="5.76622">
        <ele>1263</ele>
        <time>2016-03-30T12:22:36.000Z</time>
      </trkpt>
      <trkpt lat="45.28114" lon="5.76622">
        <ele>1265</ele>
        <time>2016-03-30T12:22:37.000Z</time>
      </trkpt>
      <trkpt lat="45.28128" lon="5.76632">
        <ele>1266</ele>
        <time>2016-03-30T12:22:38.000Z</time>
      </trkpt>
      <trkpt lat="45.28141" lon="5.7664">
        <ele>1268</ele>
        <time>2016-03-30T12:22:39.000Z</time>
      </trkpt>
      <trkpt lat="45.28154" lon="5.76647">
        <ele>1271</ele>
        <time>2016-03-30T12:22:40.000Z</time>
      </trkpt>
      <trkpt lat="45.28168" lon="5.76654">
        <ele>1271</ele>
        <time>2016-03-30T12:22:41.000Z</time>
      </trkpt>
      <trkpt lat="45.28186" lon="5.76667">
        <ele>1272</ele>
        <time>2016-03-30T12:22:43.000Z</time>
      </trkpt>
      <trkpt lat="45.28198" lon="5.76672">
        <ele>1275</ele>
        <time>2016-03-30T12:22:44.000Z</time>
      </trkpt>
      <trkpt lat="45.28209" lon="5.76673">
        <ele>1277</ele>
        <time>2016-03-30T12:22:45.000Z</time>
      </trkpt>
      <trkpt lat="45.28219" lon="5.76672">
        <ele>1280</ele>
        <time>2016-03-30T12:22:46.000Z</time>
      </trkpt>
      <trkpt lat="45.28229" lon="5.76665">
        <ele>1282</ele>
        <time>2016-03-30T12:22:47.000Z</time>
      </trkpt>
      <trkpt lat="45.28244" lon="5.76661">
        <ele>1282</ele>
        <time>2016-03-30T12:22:49.000Z</time>
      </trkpt>
      <trkpt lat="45.28255" lon="5.76639">
        <ele>1284</ele>
        <time>2016-03-30T12:22:51.000Z</time>
      </trkpt>
      <trkpt lat="45.28253" lon="5.76614">
        <ele>1286</ele>
        <time>2016-03-30T12:22:52.000Z</time>
      </trkpt>
      <trkpt lat="45.28255" lon="5.76597">
        <ele>1286</ele>
        <time>2016-03-30T12:22:53.000Z</time>
      </trkpt>
      <trkpt lat="45.28259" lon="5.76583">
        <ele>1286</ele>
        <time>2016-03-30T12:22:54.000Z</time>
      </trkpt>
      <trkpt lat="45.28257" lon="5.76568">
        <ele>1285</ele>
        <time>2016-03-30T12:22:55.000Z</time>
      </trkpt>
      <trkpt lat="45.28256" lon="5.76542">
        <ele>1287</ele>
        <time>2016-03-30T12:22:57.000Z</time>
      </trkpt>
      <trkpt lat="45.2826" lon="5.76528">
        <ele>1289</ele>
        <time>2016-03-30T12:22:58.000Z</time>
      </trkpt>
      <trkpt lat="45.28264" lon="5.76516">
        <ele>1289</ele>
        <time>2016-03-30T12:22:59.000Z</time>
      </trkpt>
      <trkpt lat="45.28265" lon="5.76503">
        <ele>1290</ele>
        <time>2016-03-30T12:23:00.000Z</time>
      </trkpt>
      <trkpt lat="45.28264" lon="5.76479">
        <ele>1292</ele>
        <time>2016-03-30T12:23:02.000Z</time>
      </trkpt>
      <trkpt lat="45.28262" lon="5.76462">
        <ele>1285</ele>
        <time>2016-03-30T12:23:04.000Z</time>
      </trkpt>
      <trkpt lat="45.28259" lon="5.7645">
        <ele>1286</ele>
        <time>2016-03-30T12:23:05.000Z</time>
      </trkpt>
      <trkpt lat="45.28248" lon="5.76436">
        <ele>1289</ele>
        <time>2016-03-30T12:23:07.000Z</time>
      </trkpt>
      <trkpt lat="45.28238" lon="5.7642">
        <ele>1294</ele>
        <time>2016-03-30T12:23:09.000Z</time>
      </trkpt>
      <trkpt lat="45.2823" lon="5.76409">
        <ele>1299</ele>
        <time>2016-03-30T12:23:11.000Z</time>
      </trkpt>
      <trkpt lat="45.28223" lon="5.76399">
        <ele>1300</ele>
        <time>2016-03-30T12:23:13.000Z</time>
      </trkpt>
      <trkpt lat="45.28218" lon="5.76389">
        <ele>1302</ele>
        <time>2016-03-30T12:23:15.000Z</time>
      </trkpt>
      <trkpt lat="45.28215" lon="5.76372">
        <ele>1307</ele>
        <time>2016-03-30T12:23:24.000Z</time>
      </trkpt>
      <trkpt lat="45.28227" lon="5.76364">
        <ele>1310</ele>
        <time>2016-03-30T12:23:26.000Z</time>
      </trkpt>
      <trkpt lat="45.28236" lon="5.7637">
        <ele>1311</ele>
        <time>2016-03-30T12:23:27.000Z</time>
      </trkpt>
      <trkpt lat="45.28244" lon="5.76376">
        <ele>1311</ele>
        <time>2016-03-30T12:23:28.000Z</time>
      </trkpt>
      <trkpt lat="45.28255" lon="5.76386">
        <ele>1311</ele>
        <time>2016-03-30T12:23:29.000Z</time>
      </trkpt>
      <trkpt lat="45.28263" lon="5.76393">
        <ele>1311</ele>
        <time>2016-03-30T12:23:30.000Z</time>
      </trkpt>
      <trkpt lat="45.28281" lon="5.76403">
        <ele>1311</ele>
        <time>2016-03-30T12:23:31.000Z</time>
      </trkpt>
      <trkpt lat="45.28295" lon="5.76412">
        <ele>1312</ele>
        <time>2016-03-30T12:23:32.000Z</time>
      </trkpt>
      <trkpt lat="45.2831" lon="5.76416">
        <ele>1312</ele>
        <time>2016-03-30T12:23:33.000Z</time>
      </trkpt>
      <trkpt lat="45.28325" lon="5.76421">
        <ele>1312</ele>
        <time>2016-03-30T12:23:34.000Z</time>
      </trkpt>
      <trkpt lat="45.28336" lon="5.76428">
        <ele>1313</ele>
        <time>2016-03-30T12:23:35.000Z</time>
      </trkpt>
      <trkpt lat="45.28351" lon="5.76429">
        <ele>1313</ele>
        <time>2016-03-30T12:23:36.000Z</time>
      </trkpt>
      <trkpt lat="45.28368" lon="5.76422">
        <ele>1311</ele>
        <time>2016-03-30T12:23:37.000Z</time>
      </trkpt>
      <trkpt lat="45.28383" lon="5.76418">
        <ele>1313</ele>
        <time>2016-03-30T12:23:38.000Z</time>
      </trkpt>
      <trkpt lat="45.28398" lon="5.76409">
        <ele>1313</ele>
        <time>2016-03-30T12:23:39.000Z</time>
      </trkpt>
      <trkpt lat="45.28409" lon="5.76406">
        <ele>1313</ele>
        <time>2016-03-30T12:23:40.000Z</time>
      </trkpt>
      <trkpt lat="45.28427" lon="5.76403">
        <ele>1314</ele>
        <time>2016-03-30T12:23:41.000Z</time>
      </trkpt>
      <trkpt lat="45.28443" lon="5.76399">
        <ele>1316</ele>
        <time>2016-03-30T12:23:42.000Z</time>
      </trkpt>
      <trkpt lat="45.2846" lon="5.76396">
        <ele>1315</ele>
        <time>2016-03-30T12:23:43.000Z</time>
      </trkpt>
      <trkpt lat="45.28477" lon="5.76399">
        <ele>1316</ele>
        <time>2016-03-30T12:23:44.000Z</time>
      </trkpt>
      <trkpt lat="45.28494" lon="5.76405">
        <ele>1318</ele>
        <time>2016-03-30T12:23:45.000Z</time>
      </trkpt>
      <trkpt lat="45.28512" lon="5.7641">
        <ele>1320</ele>
        <time>2016-03-30T12:23:46.000Z</time>
      </trkpt>
      <trkpt lat="45.28526" lon="5.76413">
        <ele>1321</ele>
        <time>2016-03-30T12:23:47.000Z</time>
      </trkpt>
      <trkpt lat="45.28541" lon="5.76416">
        <ele>1322</ele>
        <time>2016-03-30T12:23:48.000Z</time>
      </trkpt>
      <trkpt lat="45.28559" lon="5.76422">
        <ele>1321</ele>
        <time>2016-03-30T12:23:49.000Z</time>
      </trkpt>
      <trkpt lat="45.28574" lon="5.76425">
        <ele>1322</ele>
        <time>2016-03-30T12:23:50.000Z</time>
      </trkpt>
      <trkpt lat="45.28591" lon="5.76434">
        <ele>1320</ele>
        <time>2016-03-30T12:23:51.000Z</time>
      </trkpt>
      <trkpt lat="45.28607" lon="5.76441">
        <ele>1324</ele>
        <time>2016-03-30T12:23:52.000Z</time>
      </trkpt>
      <trkpt lat="45.28623" lon="5.76446">
        <ele>1276</ele>
        <time>2016-03-30T12:23:53.000Z</time>
      </trkpt>
      <trkpt lat="45.28637" lon="5.76453">
        <ele>1282</ele>
        <time>2016-03-30T12:23:54.000Z</time>
      </trkpt>
      <trkpt lat="45.28653" lon="5.76457">
        <ele>1292</ele>
        <time>2016-03-30T12:23:55.000Z</time>
      </trkpt>
      <trkpt lat="45.28669" lon="5.76462">
        <ele>1299</ele>
        <time>2016-03-30T12:23:56.000Z</time>
      </trkpt>
      <trkpt lat="45.28683" lon="5.7647">
        <ele>1305</ele>
        <time>2016-03-30T12:23:57.000Z</time>
      </trkpt>
      <trkpt lat="45.28697" lon="5.76476">
        <ele>1309</ele>
        <time>2016-03-30T12:23:58.000Z</time>
      </trkpt>
      <trkpt lat="45.28709" lon="5.76485">
        <ele>1310</ele>
        <time>2016-03-30T12:23:59.000Z</time>
      </trkpt>
      <trkpt lat="45.28722" lon="5.76491">
        <ele>1312</ele>
        <time>2016-03-30T12:24:00.000Z</time>
      </trkpt>
      <trkpt lat="45.28734" lon="5.76497">
        <ele>1315</ele>
        <time>2016-03-30T12:24:01.000Z</time>
      </trkpt>
      <trkpt lat="45.28742" lon="5.7651">
        <ele>1322</ele>
        <time>2016-03-30T12:24:02.000Z</time>
      </trkpt>
      <trkpt lat="45.28751" lon="5.76519">
        <ele>1327</ele>
        <time>2016-03-30T12:24:03.000Z</time>
      </trkpt>
      <trkpt lat="45.2876" lon="5.7654">
        <ele>1331</ele>
        <time>2016-03-30T12:24:05.000Z</time>
      </trkpt>
      <trkpt lat="45.28761" lon="5.76558">
        <ele>1332</ele>
        <time>2016-03-30T12:24:06.000Z</time>
      </trkpt>
      <trkpt lat="45.28762" lon="5.76573">
        <ele>1335</ele>
        <time>2016-03-30T12:24:07.000Z</time>
      </trkpt>
      <trkpt lat="45.28761" lon="5.76593">
        <ele>1336</ele>
        <time>2016-03-30T12:24:08.000Z</time>
      </trkpt>
      <trkpt lat="45.2876" lon="5.7661">
        <ele>1341</ele>
        <time>2016-03-30T12:24:10.000Z</time>
      </trkpt>
      <trkpt lat="45.28767" lon="5.76633">
        <ele>1343</ele>
        <time>2016-03-30T12:24:12.000Z</time>
      </trkpt>
      <trkpt lat="45.28777" lon="5.76638">
        <ele>1343</ele>
        <time>2016-03-30T12:24:13.000Z</time>
      </trkpt>
      <trkpt lat="45.28785" lon="5.76645">
        <ele>1340</ele>
        <time>2016-03-30T12:24:14.000Z</time>
      </trkpt>
      <trkpt lat="45.28798" lon="5.7665">
        <ele>1340</ele>
        <time>2016-03-30T12:24:15.000Z</time>
      </trkpt>
      <trkpt lat="45.2881" lon="5.76652">
        <ele>1340</ele>
        <time>2016-03-30T12:24:16.000Z</time>
      </trkpt>
      <trkpt lat="45.28825" lon="5.76658">
        <ele>1341</ele>
        <time>2016-03-30T12:24:17.000Z</time>
      </trkpt>
      <trkpt lat="45.28838" lon="5.76659">
        <ele>1343</ele>
        <time>2016-03-30T12:24:18.000Z</time>
      </trkpt>
      <trkpt lat="45.28852" lon="5.76659">
        <ele>1345</ele>
        <time>2016-03-30T12:24:19.000Z</time>
      </trkpt>
      <trkpt lat="45.28867" lon="5.76661">
        <ele>1349</ele>
        <time>2016-03-30T12:24:20.000Z</time>
      </trkpt>
      <trkpt lat="45.2888" lon="5.76664">
        <ele>1351</ele>
        <time>2016-03-30T12:24:21.000Z</time>
      </trkpt>
      <trkpt lat="45.28893" lon="5.76667">
        <ele>1352</ele>
        <time>2016-03-30T12:24:22.000Z</time>
      </trkpt>
      <trkpt lat="45.28904" lon="5.76672">
        <ele>1356</ele>
        <time>2016-03-30T12:24:23.000Z</time>
      </trkpt>
      <trkpt lat="45.28916" lon="5.76676">
        <ele>1359</ele>
        <time>2016-03-30T12:24:24.000Z</time>
      </trkpt>
      <trkpt lat="45.28926" lon="5.76681">
        <ele>1363</ele>
        <time>2016-03-30T12:24:25.000Z</time>
      </trkpt>
      <trkpt lat="45.28936" lon="5.76685">
        <ele>1364</ele>
        <time>2016-03-30T12:24:26.000Z</time>
      </trkpt>
      <trkpt lat="45.28947" lon="5.76688">
        <ele>1368</ele>
        <time>2016-03-30T12:24:27.000Z</time>
      </trkpt>
      <trkpt lat="45.28956" lon="5.76691">
        <ele>1368</ele>
        <time>2016-03-30T12:24:28.000Z</time>
      </trkpt>
      <trkpt lat="45.28966" lon="5.76696">
        <ele>1370</ele>
        <time>2016-03-30T12:24:29.000Z</time>
      </trkpt>
      <trkpt lat="45.28976" lon="5.767">
        <ele>1371</ele>
        <time>2016-03-30T12:24:30.000Z</time>
      </trkpt>
      <trkpt lat="45.28986" lon="5.76702">
        <ele>1372</ele>
        <time>2016-03-30T12:24:31.000Z</time>
      </trkpt>
      <trkpt lat="45.28997" lon="5.76703">
        <ele>1372</ele>
        <time>2016-03-30T12:24:32.000Z</time>
      </trkpt>
      <trkpt lat="45.29016" lon="5.76702">
        <ele>1371</ele>
        <time>2016-03-30T12:24:34.000Z</time>
      </trkpt>
      <trkpt lat="45.29025" lon="5.76705">
        <ele>1369</ele>
        <time>2016-03-30T12:24:35.000Z</time>
      </trkpt>
      <trkpt lat="45.29036" lon="5.76706">
        <ele>1369</ele>
        <time>2016-03-30T12:24:36.000Z</time>
      </trkpt>
      <trkpt lat="45.29048" lon="5.76705">
        <ele>1369</ele>
        <time>2016-03-30T12:24:37.000Z</time>
      </trkpt>
      <trkpt lat="45.2906" lon="5.76706">
        <ele>1370</ele>
        <time>2016-03-30T12:24:38.000Z</time>
      </trkpt>
      <trkpt lat="45.29071" lon="5.76707">
        <ele>1370</ele>
        <time>2016-03-30T12:24:39.000Z</time>
      </trkpt>
      <trkpt lat="45.29083" lon="5.76706">
        <ele>1370</ele>
        <time>2016-03-30T12:24:40.000Z</time>
      </trkpt>
      <trkpt lat="45.29096" lon="5.76708">
        <ele>1367</ele>
        <time>2016-03-30T12:24:41.000Z</time>
      </trkpt>
      <trkpt lat="45.29111" lon="5.76708">
        <ele>1366</ele>
        <time>2016-03-30T12:24:42.000Z</time>
      </trkpt>
      <trkpt lat="45.29123" lon="5.7671">
        <ele>1364</ele>
        <time>2016-03-30T12:24:43.000Z</time>
      </trkpt>
      <trkpt lat="45.29138" lon="5.76708">
        <ele>1369</ele>
        <time>2016-03-30T12:24:44.000Z</time>
      </trkpt>
      <trkpt lat="45.29153" lon="5.76708">
        <ele>1368</ele>
        <time>2016-03-30T12:24:45.000Z</time>
      </trkpt>
      <trkpt lat="45.29163" lon="5.76707">
        <ele>1367</ele>
        <time>2016-03-30T12:24:46.000Z</time>
      </trkpt>
      <trkpt lat="45.29177" lon="5.76708">
        <ele>1366</ele>
        <time>2016-03-30T12:24:47.000Z</time>
      </trkpt>
      <trkpt lat="45.2919" lon="5.76709">
        <ele>1366</ele>
        <time>2016-03-30T12:24:48.000Z</time>
      </trkpt>
      <trkpt lat="45.29205" lon="5.76714">
        <ele>1364</ele>
        <time>2016-03-30T12:24:49.000Z</time>
      </trkpt>
      <trkpt lat="45.29215" lon="5.76719">
        <ele>1363</ele>
        <time>2016-03-30T12:24:50.000Z</time>
      </trkpt>
      <trkpt lat="45.29226" lon="5.76731">
        <ele>1362</ele>
        <time>2016-03-30T12:24:51.000Z</time>
      </trkpt>
      <trkpt lat="45.29239" lon="5.7674">
        <ele>1361</ele>
        <time>2016-03-30T12:24:52.000Z</time>
      </trkpt>
      <trkpt lat="45.29251" lon="5.7675">
        <ele>1361</ele>
        <time>2016-03-30T12:24:53.000Z</time>
      </trkpt>
      <trkpt lat="45.29263" lon="5.76759">
        <ele>1361</ele>
        <time>2016-03-30T12:24:54.000Z</time>
      </trkpt>
      <trkpt lat="45.29275" lon="5.7677">
        <ele>1359</ele>
        <time>2016-03-30T12:24:55.000Z</time>
      </trkpt>
      <trkpt lat="45.29288" lon="5.76771">
        <ele>1357</ele>
        <time>2016-03-30T12:24:56.000Z</time>
      </trkpt>
      <trkpt lat="45.29304" lon="5.76776">
        <ele>1357</ele>
        <time>2016-03-30T12:24:57.000Z</time>
      </trkpt>
      <trkpt lat="45.29322" lon="5.76772">
        <ele>1357</ele>
        <time>2016-03-30T12:24:58.000Z</time>
      </trkpt>
      <trkpt lat="45.29332" lon="5.76778">
        <ele>1358</ele>
        <time>2016-03-30T12:24:59.000Z</time>
      </trkpt>
      <trkpt lat="45.29343" lon="5.76782">
        <ele>1358</ele>
        <time>2016-03-30T12:25:00.000Z</time>
      </trkpt>
      <trkpt lat="45.29358" lon="5.76784">
        <ele>1358</ele>
        <time>2016-03-30T12:25:01.000Z</time>
      </trkpt>
      <trkpt lat="45.29371" lon="5.76785">
        <ele>1357</ele>
        <time>2016-03-30T12:25:02.000Z</time>
      </trkpt>
      <trkpt lat="45.29387" lon="5.76786">
        <ele>1356</ele>
        <time>2016-03-30T12:25:03.000Z</time>
      </trkpt>
      <trkpt lat="45.294" lon="5.76793">
        <ele>1357</ele>
        <time>2016-03-30T12:25:04.000Z</time>
      </trkpt>
      <trkpt lat="45.29412" lon="5.76801">
        <ele>1356</ele>
        <time>2016-03-30T12:25:05.000Z</time>
      </trkpt>
      <trkpt lat="45.29427" lon="5.76806">
        <ele>1355</ele>
        <time>2016-03-30T12:25:06.000Z</time>
      </trkpt>
      <trkpt lat="45.29438" lon="5.76817">
        <ele>1354</ele>
        <time>2016-03-30T12:25:07.000Z</time>
      </trkpt>
      <trkpt lat="45.29449" lon="5.76827">
        <ele>1353</ele>
        <time>2016-03-30T12:25:08.000Z</time>
      </trkpt>
      <trkpt lat="45.29462" lon="5.76834">
        <ele>1353</ele>
        <time>2016-03-30T12:25:09.000Z</time>
      </trkpt>
      <trkpt lat="45.29475" lon="5.76836">
        <ele>1352</ele>
        <time>2016-03-30T12:25:10.000Z</time>
      </trkpt>
      <trkpt lat="45.29488" lon="5.76839">
        <ele>1353</ele>
        <time>2016-03-30T12:25:11.000Z</time>
      </trkpt>
      <trkpt lat="45.29499" lon="5.76835">
        <ele>1352</ele>
        <time>2016-03-30T12:25:12.000Z</time>
      </trkpt>
      <trkpt lat="45.29509" lon="5.76832">
        <ele>1351</ele>
        <time>2016-03-30T12:25:13.000Z</time>
      </trkpt>
      <trkpt lat="45.29521" lon="5.76831">
        <ele>1350</ele>
        <time>2016-03-30T12:25:14.000Z</time>
      </trkpt>
      <trkpt lat="45.29532" lon="5.76833">
        <ele>1349</ele>
        <time>2016-03-30T12:25:15.000Z</time>
      </trkpt>
      <trkpt lat="45.29544" lon="5.76837">
        <ele>1360</ele>
        <time>2016-03-30T12:25:16.000Z</time>
      </trkpt>
      <trkpt lat="45.29555" lon="5.7684">
        <ele>1357</ele>
        <time>2016-03-30T12:25:17.000Z</time>
      </trkpt>
      <trkpt lat="45.29575" lon="5.76841">
        <ele>1351</ele>
        <time>2016-03-30T12:25:19.000Z</time>
      </trkpt>
      <trkpt lat="45.29588" lon="5.76844">
        <ele>1349</ele>
        <time>2016-03-30T12:25:20.000Z</time>
      </trkpt>
      <trkpt lat="45.29599" lon="5.76859">
        <ele>1348</ele>
        <time>2016-03-30T12:25:21.000Z</time>
      </trkpt>
      <trkpt lat="45.29605" lon="5.76878">
        <ele>1345</ele>
        <time>2016-03-30T12:25:22.000Z</time>
      </trkpt>
      <trkpt lat="45.29612" lon="5.7689">
        <ele>1344</ele>
        <time>2016-03-30T12:25:23.000Z</time>
      </trkpt>
      <trkpt lat="45.2962" lon="5.76905">
        <ele>1342</ele>
        <time>2016-03-30T12:25:24.000Z</time>
      </trkpt>
      <trkpt lat="45.29628" lon="5.7692">
        <ele>1340</ele>
        <time>2016-03-30T12:25:25.000Z</time>
      </trkpt>
      <trkpt lat="45.29638" lon="5.76932">
        <ele>1339</ele>
        <time>2016-03-30T12:25:26.000Z</time>
      </trkpt>
      <trkpt lat="45.29649" lon="5.7694">
        <ele>1338</ele>
        <time>2016-03-30T12:25:27.000Z</time>
      </trkpt>
      <trkpt lat="45.2966" lon="5.76956">
        <ele>1339</ele>
        <time>2016-03-30T12:25:29.000Z</time>
      </trkpt>
      <trkpt lat="45.29669" lon="5.76964">
        <ele>1338</ele>
        <time>2016-03-30T12:25:30.000Z</time>
      </trkpt>
      <trkpt lat="45.29676" lon="5.76973">
        <ele>1337</ele>
        <time>2016-03-30T12:25:31.000Z</time>
      </trkpt>
      <trkpt lat="45.29685" lon="5.76984">
        <ele>1337</ele>
        <time>2016-03-30T12:25:32.000Z</time>
      </trkpt>
      <trkpt lat="45.29692" lon="5.76994">
        <ele>1336</ele>
        <time>2016-03-30T12:25:33.000Z</time>
      </trkpt>
      <trkpt lat="45.29705" lon="5.77004">
        <ele>1336</ele>
        <time>2016-03-30T12:25:34.000Z</time>
      </trkpt>
      <trkpt lat="45.29719" lon="5.77013">
        <ele>1334</ele>
        <time>2016-03-30T12:25:35.000Z</time>
      </trkpt>
      <trkpt lat="45.29737" lon="5.77002">
        <ele>1335</ele>
        <time>2016-03-30T12:25:36.000Z</time>
      </trkpt>
      <trkpt lat="45.29749" lon="5.76988">
        <ele>1334</ele>
        <time>2016-03-30T12:25:37.000Z</time>
      </trkpt>
      <trkpt lat="45.29776" lon="5.76965">
        <ele>1333</ele>
        <time>2016-03-30T12:25:38.000Z</time>
      </trkpt>
      <trkpt lat="45.29796" lon="5.76982">
        <ele>1331</ele>
        <time>2016-03-30T12:25:40.000Z</time>
      </trkpt>
      <trkpt lat="45.29812" lon="5.76978">
        <ele>1330</ele>
        <time>2016-03-30T12:25:41.000Z</time>
      </trkpt>
      <trkpt lat="45.29824" lon="5.76984">
        <ele>1329</ele>
        <time>2016-03-30T12:25:42.000Z</time>
      </trkpt>
      <trkpt lat="45.29838" lon="5.76978">
        <ele>1327</ele>
        <time>2016-03-30T12:25:43.000Z</time>
      </trkpt>
      <trkpt lat="45.29863" lon="5.76977">
        <ele>1326</ele>
        <time>2016-03-30T12:25:45.000Z</time>
      </trkpt>
      <trkpt lat="45.29874" lon="5.76977">
        <ele>1325</ele>
        <time>2016-03-30T12:25:46.000Z</time>
      </trkpt>
      <trkpt lat="45.2989" lon="5.76975">
        <ele>1327</ele>
        <time>2016-03-30T12:25:47.000Z</time>
      </trkpt>
      <trkpt lat="45.29903" lon="5.76977">
        <ele>1327</ele>
        <time>2016-03-30T12:25:48.000Z</time>
      </trkpt>
      <trkpt lat="45.29916" lon="5.76979">
        <ele>1327</ele>
        <time>2016-03-30T12:25:49.000Z</time>
      </trkpt>
      <trkpt lat="45.29933" lon="5.76979">
        <ele>1327</ele>
        <time>2016-03-30T12:25:50.000Z</time>
      </trkpt>
      <trkpt lat="45.29948" lon="5.76983">
        <ele>1326</ele>
        <time>2016-03-30T12:25:51.000Z</time>
      </trkpt>
      <trkpt lat="45.29958" lon="5.76995">
        <ele>1327</ele>
        <time>2016-03-30T12:25:52.000Z</time>
      </trkpt>
      <trkpt lat="45.29975" lon="5.77001">
        <ele>1327</ele>
        <time>2016-03-30T12:25:53.000Z</time>
      </trkpt>
      <trkpt lat="45.29993" lon="5.76999">
        <ele>1326</ele>
        <time>2016-03-30T12:25:54.000Z</time>
      </trkpt>
      <trkpt lat="45.30005" lon="5.77005">
        <ele>1326</ele>
        <time>2016-03-30T12:25:55.000Z</time>
      </trkpt>
      <trkpt lat="45.30001" lon="5.77026">
        <ele>1325</ele>
        <time>2016-03-30T12:25:56.000Z</time>
      </trkpt>
      <trkpt lat="45.30013" lon="5.77029">
        <ele>1324</ele>
        <time>2016-03-30T12:25:57.000Z</time>
      </trkpt>
      <trkpt lat="45.30026" lon="5.77034">
        <ele>1323</ele>
        <time>2016-03-30T12:25:58.000Z</time>
      </trkpt>
      <trkpt lat="45.30038" lon="5.77039">
        <ele>1323</ele>
        <time>2016-03-30T12:25:59.000Z</time>
      </trkpt>
      <trkpt lat="45.30053" lon="5.77037">
        <ele>1320</ele>
        <time>2016-03-30T12:26:00.000Z</time>
      </trkpt>
      <trkpt lat="45.30066" lon="5.77041">
        <ele>1319</ele>
        <time>2016-03-30T12:26:01.000Z</time>
      </trkpt>
      <trkpt lat="45.3008" lon="5.77044">
        <ele>1318</ele>
        <time>2016-03-30T12:26:02.000Z</time>
      </trkpt>
      <trkpt lat="45.30093" lon="5.77047">
        <ele>1317</ele>
        <time>2016-03-30T12:26:03.000Z</time>
      </trkpt>
      <trkpt lat="45.30109" lon="5.77046">
        <ele>1316</ele>
        <time>2016-03-30T12:26:04.000Z</time>
      </trkpt>
      <trkpt lat="45.3012" lon="5.77047">
        <ele>1316</ele>
        <time>2016-03-30T12:26:05.000Z</time>
      </trkpt>
      <trkpt lat="45.30132" lon="5.77055">
        <ele>1315</ele>
        <time>2016-03-30T12:26:06.000Z</time>
      </trkpt>
      <trkpt lat="45.30144" lon="5.77062">
        <ele>1314</ele>
        <time>2016-03-30T12:26:07.000Z</time>
      </trkpt>
      <trkpt lat="45.30158" lon="5.77068">
        <ele>1313</ele>
        <time>2016-03-30T12:26:08.000Z</time>
      </trkpt>
      <trkpt lat="45.3017" lon="5.77075">
        <ele>1312</ele>
        <time>2016-03-30T12:26:09.000Z</time>
      </trkpt>
      <trkpt lat="45.3019" lon="5.77085">
        <ele>1309</ele>
        <time>2016-03-30T12:26:11.000Z</time>
      </trkpt>
      <trkpt lat="45.30204" lon="5.77096">
        <ele>1307</ele>
        <time>2016-03-30T12:26:13.000Z</time>
      </trkpt>
      <trkpt lat="45.30218" lon="5.77079">
        <ele>1300</ele>
        <time>2016-03-30T12:26:15.000Z</time>
      </trkpt>
      <trkpt lat="45.30227" lon="5.77067">
        <ele>1298</ele>
        <time>2016-03-30T12:26:16.000Z</time>
      </trkpt>
      <trkpt lat="45.30236" lon="5.77049">
        <ele>1295</ele>
        <time>2016-03-30T12:26:18.000Z</time>
      </trkpt>
      <trkpt lat="45.30221" lon="5.77024">
        <ele>1286</ele>
        <time>2016-03-30T12:26:20.000Z</time>
      </trkpt>
      <trkpt lat="45.30216" lon="5.77">
        <ele>1285</ele>
        <time>2016-03-30T12:26:22.000Z</time>
      </trkpt>
      <trkpt lat="45.30215" lon="5.76986">
        <ele>1284</ele>
        <time>2016-03-30T12:26:23.000Z</time>
      </trkpt>
      <trkpt lat="45.30208" lon="5.76969">
        <ele>1280</ele>
        <time>2016-03-30T12:26:24.000Z</time>
      </trkpt>
      <trkpt lat="45.30202" lon="5.7695">
        <ele>1278</ele>
        <time>2016-03-30T12:26:25.000Z</time>
      </trkpt>
      <trkpt lat="45.3021" lon="5.76935">
        <ele>1275</ele>
        <time>2016-03-30T12:26:26.000Z</time>
      </trkpt>
      <trkpt lat="45.30214" lon="5.76917">
        <ele>1275</ele>
        <time>2016-03-30T12:26:27.000Z</time>
      </trkpt>
      <trkpt lat="45.3022" lon="5.769">
        <ele>1275</ele>
        <time>2016-03-30T12:26:28.000Z</time>
      </trkpt>
      <trkpt lat="45.3023" lon="5.76893">
        <ele>1272</ele>
        <time>2016-03-30T12:26:29.000Z</time>
      </trkpt>
      <trkpt lat="45.30238" lon="5.76885">
        <ele>1270</ele>
        <time>2016-03-30T12:26:30.000Z</time>
      </trkpt>
      <trkpt lat="45.30245" lon="5.76874">
        <ele>1269</ele>
        <time>2016-03-30T12:26:31.000Z</time>
      </trkpt>
      <trkpt lat="45.30251" lon="5.76863">
        <ele>1268</ele>
        <time>2016-03-30T12:26:32.000Z</time>
      </trkpt>
      <trkpt lat="45.30265" lon="5.76849">
        <ele>1265</ele>
        <time>2016-03-30T12:26:34.000Z</time>
      </trkpt>
      <trkpt lat="45.30273" lon="5.76839">
        <ele>1266</ele>
        <time>2016-03-30T12:26:35.000Z</time>
      </trkpt>
      <trkpt lat="45.30284" lon="5.76831">
        <ele>1267</ele>
        <time>2016-03-30T12:26:36.000Z</time>
      </trkpt>
      <trkpt lat="45.30296" lon="5.76825">
        <ele>1267</ele>
        <time>2016-03-30T12:26:37.000Z</time>
      </trkpt>
      <trkpt lat="45.30319" lon="5.76818">
        <ele>1269</ele>
        <time>2016-03-30T12:26:39.000Z</time>
      </trkpt>
      <trkpt lat="45.30331" lon="5.76818">
        <ele>1269</ele>
        <time>2016-03-30T12:26:40.000Z</time>
      </trkpt>
      <trkpt lat="45.30342" lon="5.76819">
        <ele>1267</ele>
        <time>2016-03-30T12:26:41.000Z</time>
      </trkpt>
      <trkpt lat="45.30353" lon="5.7682">
        <ele>1265</ele>
        <time>2016-03-30T12:26:42.000Z</time>
      </trkpt>
      <trkpt lat="45.30366" lon="5.76815">
        <ele>1265</ele>
        <time>2016-03-30T12:26:43.000Z</time>
      </trkpt>
      <trkpt lat="45.30379" lon="5.76813">
        <ele>1265</ele>
        <time>2016-03-30T12:26:44.000Z</time>
      </trkpt>
      <trkpt lat="45.3039" lon="5.76811">
        <ele>1265</ele>
        <time>2016-03-30T12:26:45.000Z</time>
      </trkpt>
      <trkpt lat="45.30401" lon="5.76809">
        <ele>1261</ele>
        <time>2016-03-30T12:26:46.000Z</time>
      </trkpt>
      <trkpt lat="45.30411" lon="5.76811">
        <ele>1262</ele>
        <time>2016-03-30T12:26:47.000Z</time>
      </trkpt>
      <trkpt lat="45.30422" lon="5.76811">
        <ele>1262</ele>
        <time>2016-03-30T12:26:48.000Z</time>
      </trkpt>
      <trkpt lat="45.30434" lon="5.76817">
        <ele>1261</ele>
        <time>2016-03-30T12:26:49.000Z</time>
      </trkpt>
      <trkpt lat="45.30445" lon="5.76823">
        <ele>1259</ele>
        <time>2016-03-30T12:26:50.000Z</time>
      </trkpt>
      <trkpt lat="45.30457" lon="5.76825">
        <ele>1259</ele>
        <time>2016-03-30T12:26:51.000Z</time>
      </trkpt>
      <trkpt lat="45.30474" lon="5.76826">
        <ele>1259</ele>
        <time>2016-03-30T12:26:52.000Z</time>
      </trkpt>
      <trkpt lat="45.30487" lon="5.76832">
        <ele>1259</ele>
        <time>2016-03-30T12:26:53.000Z</time>
      </trkpt>
      <trkpt lat="45.30496" lon="5.76852">
        <ele>1260</ele>
        <time>2016-03-30T12:26:54.000Z</time>
      </trkpt>
      <trkpt lat="45.30505" lon="5.76863">
        <ele>1260</ele>
        <time>2016-03-30T12:26:55.000Z</time>
      </trkpt>
      <trkpt lat="45.30517" lon="5.76871">
        <ele>1259</ele>
        <time>2016-03-30T12:26:56.000Z</time>
      </trkpt>
      <trkpt lat="45.30526" lon="5.76888">
        <ele>1257</ele>
        <time>2016-03-30T12:26:57.000Z</time>
      </trkpt>
      <trkpt lat="45.30534" lon="5.76902">
        <ele>1254</ele>
        <time>2016-03-30T12:26:58.000Z</time>
      </trkpt>
      <trkpt lat="45.30544" lon="5.76917">
        <ele>1253</ele>
        <time>2016-03-30T12:26:59.000Z</time>
      </trkpt>
      <trkpt lat="45.3055" lon="5.76932">
        <ele>1250</ele>
        <time>2016-03-30T12:27:00.000Z</time>
      </trkpt>
      <trkpt lat="45.3056" lon="5.76945">
        <ele>1249</ele>
        <time>2016-03-30T12:27:01.000Z</time>
      </trkpt>
      <trkpt lat="45.30559" lon="5.76962">
        <ele>1246</ele>
        <time>2016-03-30T12:27:02.000Z</time>
      </trkpt>
      <trkpt lat="45.30566" lon="5.76975">
        <ele>1245</ele>
        <time>2016-03-30T12:27:03.000Z</time>
      </trkpt>
      <trkpt lat="45.30574" lon="5.76987">
        <ele>1244</ele>
        <time>2016-03-30T12:27:04.000Z</time>
      </trkpt>
      <trkpt lat="45.30578" lon="5.77003">
        <ele>1242</ele>
        <time>2016-03-30T12:27:05.000Z</time>
      </trkpt>
      <trkpt lat="45.30585" lon="5.77017">
        <ele>1239</ele>
        <time>2016-03-30T12:27:06.000Z</time>
      </trkpt>
      <trkpt lat="45.30588" lon="5.77036">
        <ele>1237</ele>
        <time>2016-03-30T12:27:07.000Z</time>
      </trkpt>
      <trkpt lat="45.30589" lon="5.7705">
        <ele>1234</ele>
        <time>2016-03-30T12:27:08.000Z</time>
      </trkpt>
      <trkpt lat="45.30592" lon="5.77067">
        <ele>1233</ele>
        <time>2016-03-30T12:27:09.000Z</time>
      </trkpt>
      <trkpt lat="45.30597" lon="5.77083">
        <ele>1230</ele>
        <time>2016-03-30T12:27:10.000Z</time>
      </trkpt>
      <trkpt lat="45.30594" lon="5.77098">
        <ele>1231</ele>
        <time>2016-03-30T12:27:11.000Z</time>
      </trkpt>
      <trkpt lat="45.30596" lon="5.77113">
        <ele>1230</ele>
        <time>2016-03-30T12:27:12.000Z</time>
      </trkpt>
      <trkpt lat="45.30598" lon="5.77127">
        <ele>1230</ele>
        <time>2016-03-30T12:27:13.000Z</time>
      </trkpt>
      <trkpt lat="45.30614" lon="5.77151">
        <ele>1229</ele>
        <time>2016-03-30T12:27:15.000Z</time>
      </trkpt>
      <trkpt lat="45.30619" lon="5.77165">
        <ele>1226</ele>
        <time>2016-03-30T12:27:16.000Z</time>
      </trkpt>
      <trkpt lat="45.30628" lon="5.77175">
        <ele>1227</ele>
        <time>2016-03-30T12:27:17.000Z</time>
      </trkpt>
      <trkpt lat="45.30636" lon="5.77187">
        <ele>1227</ele>
        <time>2016-03-30T12:27:18.000Z</time>
      </trkpt>
      <trkpt lat="45.30643" lon="5.77197">
        <ele>1227</ele>
        <time>2016-03-30T12:27:19.000Z</time>
      </trkpt>
      <trkpt lat="45.30651" lon="5.77204">
        <ele>1228</ele>
        <time>2016-03-30T12:27:20.000Z</time>
      </trkpt>
      <trkpt lat="45.30658" lon="5.77212">
        <ele>1228</ele>
        <time>2016-03-30T12:27:21.000Z</time>
      </trkpt>
      <trkpt lat="45.30669" lon="5.77218">
        <ele>1227</ele>
        <time>2016-03-30T12:27:22.000Z</time>
      </trkpt>
      <trkpt lat="45.30683" lon="5.77223">
        <ele>1228</ele>
        <time>2016-03-30T12:27:23.000Z</time>
      </trkpt>
      <trkpt lat="45.30695" lon="5.77227">
        <ele>1228</ele>
        <time>2016-03-30T12:27:24.000Z</time>
      </trkpt>
      <trkpt lat="45.30709" lon="5.77231">
        <ele>1227</ele>
        <time>2016-03-30T12:27:25.000Z</time>
      </trkpt>
      <trkpt lat="45.3073" lon="5.77235">
        <ele>1223</ele>
        <time>2016-03-30T12:27:27.000Z</time>
      </trkpt>
      <trkpt lat="45.30742" lon="5.77237">
        <ele>1222</ele>
        <time>2016-03-30T12:27:28.000Z</time>
      </trkpt>
      <trkpt lat="45.3075" lon="5.77241">
        <ele>1220</ele>
        <time>2016-03-30T12:27:29.000Z</time>
      </trkpt>
      <trkpt lat="45.30765" lon="5.77246">
        <ele>1219</ele>
        <time>2016-03-30T12:27:30.000Z</time>
      </trkpt>
      <trkpt lat="45.30778" lon="5.77256">
        <ele>1217</ele>
        <time>2016-03-30T12:27:31.000Z</time>
      </trkpt>
      <trkpt lat="45.30791" lon="5.77264">
        <ele>1217</ele>
        <time>2016-03-30T12:27:32.000Z</time>
      </trkpt>
      <trkpt lat="45.30804" lon="5.7728">
        <ele>1216</ele>
        <time>2016-03-30T12:27:33.000Z</time>
      </trkpt>
      <trkpt lat="45.30813" lon="5.77293">
        <ele>1213</ele>
        <time>2016-03-30T12:27:34.000Z</time>
      </trkpt>
      <trkpt lat="45.30825" lon="5.77302">
        <ele>1214</ele>
        <time>2016-03-30T12:27:35.000Z</time>
      </trkpt>
      <trkpt lat="45.30834" lon="5.77312">
        <ele>1255</ele>
        <time>2016-03-30T12:27:36.000Z</time>
      </trkpt>
      <trkpt lat="45.30843" lon="5.77327">
        <ele>1251</ele>
        <time>2016-03-30T12:27:37.000Z</time>
      </trkpt>
      <trkpt lat="45.30856" lon="5.77335">
        <ele>1246</ele>
        <time>2016-03-30T12:27:38.000Z</time>
      </trkpt>
      <trkpt lat="45.30866" lon="5.7734">
        <ele>1241</ele>
        <time>2016-03-30T12:27:39.000Z</time>
      </trkpt>
      <trkpt lat="45.30895" lon="5.77333">
        <ele>1229</ele>
        <time>2016-03-30T12:27:41.000Z</time>
      </trkpt>
      <trkpt lat="45.30905" lon="5.77332">
        <ele>1225</ele>
        <time>2016-03-30T12:27:42.000Z</time>
      </trkpt>
      <trkpt lat="45.30914" lon="5.7733">
        <ele>1222</ele>
        <time>2016-03-30T12:27:43.000Z</time>
      </trkpt>
      <trkpt lat="45.30927" lon="5.77328">
        <ele>1221</ele>
        <time>2016-03-30T12:27:44.000Z</time>
      </trkpt>
      <trkpt lat="45.30936" lon="5.77322">
        <ele>1216</ele>
        <time>2016-03-30T12:27:45.000Z</time>
      </trkpt>
      <trkpt lat="45.30948" lon="5.77313">
        <ele>1214</ele>
        <time>2016-03-30T12:27:46.000Z</time>
      </trkpt>
      <trkpt lat="45.30962" lon="5.77302">
        <ele>1210</ele>
        <time>2016-03-30T12:27:47.000Z</time>
      </trkpt>
      <trkpt lat="45.30973" lon="5.77283">
        <ele>1210</ele>
        <time>2016-03-30T12:27:48.000Z</time>
      </trkpt>
      <trkpt lat="45.30969" lon="5.77265">
        <ele>1208</ele>
        <time>2016-03-30T12:27:49.000Z</time>
      </trkpt>
      <trkpt lat="45.30977" lon="5.77253">
        <ele>1208</ele>
        <time>2016-03-30T12:27:50.000Z</time>
      </trkpt>
      <trkpt lat="45.30986" lon="5.77242">
        <ele>1206</ele>
        <time>2016-03-30T12:27:51.000Z</time>
      </trkpt>
      <trkpt lat="45.31002" lon="5.77225">
        <ele>1204</ele>
        <time>2016-03-30T12:27:53.000Z</time>
      </trkpt>
      <trkpt lat="45.31009" lon="5.77212">
        <ele>1198</ele>
        <time>2016-03-30T12:27:55.000Z</time>
      </trkpt>
      <trkpt lat="45.30999" lon="5.77201">
        <ele>1195</ele>
        <time>2016-03-30T12:27:57.000Z</time>
      </trkpt>
      <trkpt lat="45.30992" lon="5.7719">
        <ele>1195</ele>
        <time>2016-03-30T12:27:58.000Z</time>
      </trkpt>
      <trkpt lat="45.30983" lon="5.7717">
        <ele>1196</ele>
        <time>2016-03-30T12:27:59.000Z</time>
      </trkpt>
      <trkpt lat="45.30977" lon="5.77158">
        <ele>1195</ele>
        <time>2016-03-30T12:28:00.000Z</time>
      </trkpt>
      <trkpt lat="45.30966" lon="5.77145">
        <ele>1195</ele>
        <time>2016-03-30T12:28:01.000Z</time>
      </trkpt>
      <trkpt lat="45.30958" lon="5.77131">
        <ele>1195</ele>
        <time>2016-03-30T12:28:02.000Z</time>
      </trkpt>
      <trkpt lat="45.30947" lon="5.77119">
        <ele>1195</ele>
        <time>2016-03-30T12:28:03.000Z</time>
      </trkpt>
      <trkpt lat="45.30954" lon="5.77091">
        <ele>1194</ele>
        <time>2016-03-30T12:28:04.000Z</time>
      </trkpt>
      <trkpt lat="45.30955" lon="5.7707">
        <ele>1195</ele>
        <time>2016-03-30T12:28:05.000Z</time>
      </trkpt>
      <trkpt lat="45.30951" lon="5.77055">
        <ele>1194</ele>
        <time>2016-03-30T12:28:06.000Z</time>
      </trkpt>
      <trkpt lat="45.30949" lon="5.77038">
        <ele>1194</ele>
        <time>2016-03-30T12:28:07.000Z</time>
      </trkpt>
      <trkpt lat="45.30947" lon="5.77022">
        <ele>1193</ele>
        <time>2016-03-30T12:28:08.000Z</time>
      </trkpt>
      <trkpt lat="45.30941" lon="5.77006">
        <ele>1192</ele>
        <time>2016-03-30T12:28:09.000Z</time>
      </trkpt>
      <trkpt lat="45.30934" lon="5.76993">
        <ele>1191</ele>
        <time>2016-03-30T12:28:10.000Z</time>
      </trkpt>
      <trkpt lat="45.30939" lon="5.7698">
        <ele>1190</ele>
        <time>2016-03-30T12:28:11.000Z</time>
      </trkpt>
      <trkpt lat="45.30939" lon="5.76965">
        <ele>1191</ele>
        <time>2016-03-30T12:28:12.000Z</time>
      </trkpt>
      <trkpt lat="45.3093" lon="5.7695">
        <ele>1192</ele>
        <time>2016-03-30T12:28:13.000Z</time>
      </trkpt>
      <trkpt lat="45.30929" lon="5.76935">
        <ele>1192</ele>
        <time>2016-03-30T12:28:14.000Z</time>
      </trkpt>
      <trkpt lat="45.3094" lon="5.7693">
        <ele>1187</ele>
        <time>2016-03-30T12:28:15.000Z</time>
      </trkpt>
      <trkpt lat="45.30964" lon="5.7693">
        <ele>1179</ele>
        <time>2016-03-30T12:28:17.000Z</time>
      </trkpt>
      <trkpt lat="45.30973" lon="5.76938">
        <ele>1178</ele>
        <time>2016-03-30T12:28:18.000Z</time>
      </trkpt>
      <trkpt lat="45.30988" lon="5.76938">
        <ele>1179</ele>
        <time>2016-03-30T12:28:19.000Z</time>
      </trkpt>
      <trkpt lat="45.30998" lon="5.76952">
        <ele>1176</ele>
        <time>2016-03-30T12:28:20.000Z</time>
      </trkpt>
      <trkpt lat="45.31004" lon="5.7697">
        <ele>1174</ele>
        <time>2016-03-30T12:28:21.000Z</time>
      </trkpt>
      <trkpt lat="45.3101" lon="5.76985">
        <ele>1173</ele>
        <time>2016-03-30T12:28:22.000Z</time>
      </trkpt>
      <trkpt lat="45.31015" lon="5.77001">
        <ele>1172</ele>
        <time>2016-03-30T12:28:23.000Z</time>
      </trkpt>
      <trkpt lat="45.31022" lon="5.77014">
        <ele>1171</ele>
        <time>2016-03-30T12:28:24.000Z</time>
      </trkpt>
      <trkpt lat="45.3103" lon="5.77027">
        <ele>1169</ele>
        <time>2016-03-30T12:28:25.000Z</time>
      </trkpt>
      <trkpt lat="45.31039" lon="5.77037">
        <ele>1169</ele>
        <time>2016-03-30T12:28:26.000Z</time>
      </trkpt>
      <trkpt lat="45.31052" lon="5.77046">
        <ele>1167</ele>
        <time>2016-03-30T12:28:27.000Z</time>
      </trkpt>
      <trkpt lat="45.31065" lon="5.77057">
        <ele>1165</ele>
        <time>2016-03-30T12:28:28.000Z</time>
      </trkpt>
      <trkpt lat="45.31076" lon="5.77069">
        <ele>1163</ele>
        <time>2016-03-30T12:28:29.000Z</time>
      </trkpt>
      <trkpt lat="45.31092" lon="5.77078">
        <ele>1160</ele>
        <time>2016-03-30T12:28:30.000Z</time>
      </trkpt>
      <trkpt lat="45.31107" lon="5.77086">
        <ele>1159</ele>
        <time>2016-03-30T12:28:31.000Z</time>
      </trkpt>
      <trkpt lat="45.3112" lon="5.77097">
        <ele>1157</ele>
        <time>2016-03-30T12:28:32.000Z</time>
      </trkpt>
      <trkpt lat="45.31133" lon="5.77109">
        <ele>1156</ele>
        <time>2016-03-30T12:28:33.000Z</time>
      </trkpt>
      <trkpt lat="45.31144" lon="5.77126">
        <ele>1155</ele>
        <time>2016-03-30T12:28:34.000Z</time>
      </trkpt>
      <trkpt lat="45.31154" lon="5.7714">
        <ele>1154</ele>
        <time>2016-03-30T12:28:35.000Z</time>
      </trkpt>
      <trkpt lat="45.31163" lon="5.77156">
        <ele>1154</ele>
        <time>2016-03-30T12:28:36.000Z</time>
      </trkpt>
      <trkpt lat="45.3117" lon="5.77173">
        <ele>1153</ele>
        <time>2016-03-30T12:28:37.000Z</time>
      </trkpt>
      <trkpt lat="45.31178" lon="5.77195">
        <ele>1151</ele>
        <time>2016-03-30T12:28:38.000Z</time>
      </trkpt>
      <trkpt lat="45.31183" lon="5.77214">
        <ele>1149</ele>
        <time>2016-03-30T12:28:39.000Z</time>
      </trkpt>
      <trkpt lat="45.31192" lon="5.77241">
        <ele>1147</ele>
        <time>2016-03-30T12:28:40.000Z</time>
      </trkpt>
      <trkpt lat="45.31199" lon="5.77265">
        <ele>1147</ele>
        <time>2016-03-30T12:28:41.000Z</time>
      </trkpt>
      <trkpt lat="45.31208" lon="5.77285">
        <ele>1146</ele>
        <time>2016-03-30T12:28:42.000Z</time>
      </trkpt>
      <trkpt lat="45.31215" lon="5.77306">
        <ele>1144</ele>
        <time>2016-03-30T12:28:43.000Z</time>
      </trkpt>
      <trkpt lat="45.31224" lon="5.77325">
        <ele>1141</ele>
        <time>2016-03-30T12:28:44.000Z</time>
      </trkpt>
      <trkpt lat="45.31231" lon="5.77345">
        <ele>1140</ele>
        <time>2016-03-30T12:28:45.000Z</time>
      </trkpt>
      <trkpt lat="45.31239" lon="5.77364">
        <ele>1139</ele>
        <time>2016-03-30T12:28:46.000Z</time>
      </trkpt>
      <trkpt lat="45.31245" lon="5.7738">
        <ele>1136</ele>
        <time>2016-03-30T12:28:47.000Z</time>
      </trkpt>
      <trkpt lat="45.31252" lon="5.77399">
        <ele>1135</ele>
        <time>2016-03-30T12:28:48.000Z</time>
      </trkpt>
      <trkpt lat="45.31256" lon="5.77414">
        <ele>1131</ele>
        <time>2016-03-30T12:28:49.000Z</time>
      </trkpt>
      <trkpt lat="45.31261" lon="5.77431">
        <ele>1128</ele>
        <time>2016-03-30T12:28:50.000Z</time>
      </trkpt>
      <trkpt lat="45.31265" lon="5.77449">
        <ele>1127</ele>
        <time>2016-03-30T12:28:51.000Z</time>
      </trkpt>
      <trkpt lat="45.31266" lon="5.77472">
        <ele>1125</ele>
        <time>2016-03-30T12:28:52.000Z</time>
      </trkpt>
      <trkpt lat="45.31267" lon="5.77494">
        <ele>1124</ele>
        <time>2016-03-30T12:28:53.000Z</time>
      </trkpt>
      <trkpt lat="45.31264" lon="5.7751">
        <ele>1123</ele>
        <time>2016-03-30T12:28:54.000Z</time>
      </trkpt>
      <trkpt lat="45.31257" lon="5.7753">
        <ele>1122</ele>
        <time>2016-03-30T12:28:55.000Z</time>
      </trkpt>
      <trkpt lat="45.31248" lon="5.77538">
        <ele>1121</ele>
        <time>2016-03-30T12:28:56.000Z</time>
      </trkpt>
      <trkpt lat="45.31234" lon="5.77546">
        <ele>1120</ele>
        <time>2016-03-30T12:28:57.000Z</time>
      </trkpt>
      <trkpt lat="45.3121" lon="5.77555">
        <ele>1119</ele>
        <time>2016-03-30T12:28:58.000Z</time>
      </trkpt>
      <trkpt lat="45.31195" lon="5.77562">
        <ele>1118</ele>
        <time>2016-03-30T12:28:59.000Z</time>
      </trkpt>
      <trkpt lat="45.31182" lon="5.77573">
        <ele>1118</ele>
        <time>2016-03-30T12:29:00.000Z</time>
      </trkpt>
      <trkpt lat="45.31175" lon="5.77583">
        <ele>1116</ele>
        <time>2016-03-30T12:29:01.000Z</time>
      </trkpt>
      <trkpt lat="45.3117" lon="5.77597">
        <ele>1114</ele>
        <time>2016-03-30T12:29:02.000Z</time>
      </trkpt>
      <trkpt lat="45.31167" lon="5.77618">
        <ele>1114</ele>
        <time>2016-03-30T12:29:03.000Z</time>
      </trkpt>
      <trkpt lat="45.31167" lon="5.77637">
        <ele>1111</ele>
        <time>2016-03-30T12:29:04.000Z</time>
      </trkpt>
      <trkpt lat="45.31168" lon="5.77652">
        <ele>1110</ele>
        <time>2016-03-30T12:29:05.000Z</time>
      </trkpt>
      <trkpt lat="45.31167" lon="5.77671">
        <ele>1109</ele>
        <time>2016-03-30T12:29:06.000Z</time>
      </trkpt>
      <trkpt lat="45.3117" lon="5.77688">
        <ele>1107</ele>
        <time>2016-03-30T12:29:07.000Z</time>
      </trkpt>
      <trkpt lat="45.3117" lon="5.77705">
        <ele>1106</ele>
        <time>2016-03-30T12:29:08.000Z</time>
      </trkpt>
      <trkpt lat="45.31172" lon="5.77724">
        <ele>1106</ele>
        <time>2016-03-30T12:29:09.000Z</time>
      </trkpt>
      <trkpt lat="45.31176" lon="5.77743">
        <ele>1102</ele>
        <time>2016-03-30T12:29:10.000Z</time>
      </trkpt>
      <trkpt lat="45.31182" lon="5.77759">
        <ele>1102</ele>
        <time>2016-03-30T12:29:11.000Z</time>
      </trkpt>
      <trkpt lat="45.31193" lon="5.77776">
        <ele>1103</ele>
        <time>2016-03-30T12:29:12.000Z</time>
      </trkpt>
      <trkpt lat="45.312" lon="5.77793">
        <ele>1102</ele>
        <time>2016-03-30T12:29:13.000Z</time>
      </trkpt>
      <trkpt lat="45.3122" lon="5.77804">
        <ele>1100</ele>
        <time>2016-03-30T12:29:14.000Z</time>
      </trkpt>
      <trkpt lat="45.31232" lon="5.77813">
        <ele>1100</ele>
        <time>2016-03-30T12:29:15.000Z</time>
      </trkpt>
      <trkpt lat="45.31245" lon="5.77826">
        <ele>1099</ele>
        <time>2016-03-30T12:29:16.000Z</time>
      </trkpt>
      <trkpt lat="45.31261" lon="5.77838">
        <ele>1100</ele>
        <time>2016-03-30T12:29:17.000Z</time>
      </trkpt>
      <trkpt lat="45.31275" lon="5.7785">
        <ele>1099</ele>
        <time>2016-03-30T12:29:18.000Z</time>
      </trkpt>
      <trkpt lat="45.31285" lon="5.77863">
        <ele>1098</ele>
        <time>2016-03-30T12:29:19.000Z</time>
      </trkpt>
      <trkpt lat="45.31299" lon="5.77875">
        <ele>1097</ele>
        <time>2016-03-30T12:29:20.000Z</time>
      </trkpt>
      <trkpt lat="45.31313" lon="5.77888">
        <ele>1097</ele>
        <time>2016-03-30T12:29:21.000Z</time>
      </trkpt>
      <trkpt lat="45.31326" lon="5.77903">
        <ele>1097</ele>
        <time>2016-03-30T12:29:22.000Z</time>
      </trkpt>
      <trkpt lat="45.31336" lon="5.77914">
        <ele>1092</ele>
        <time>2016-03-30T12:29:23.000Z</time>
      </trkpt>
      <trkpt lat="45.31346" lon="5.77926">
        <ele>1089</ele>
        <time>2016-03-30T12:29:24.000Z</time>
      </trkpt>
      <trkpt lat="45.31356" lon="5.77945">
        <ele>1087</ele>
        <time>2016-03-30T12:29:25.000Z</time>
      </trkpt>
      <trkpt lat="45.31363" lon="5.77965">
        <ele>1084</ele>
        <time>2016-03-30T12:29:26.000Z</time>
      </trkpt>
      <trkpt lat="45.31372" lon="5.77985">
        <ele>1083</ele>
        <time>2016-03-30T12:29:27.000Z</time>
      </trkpt>
      <trkpt lat="45.31381" lon="5.78005">
        <ele>1081</ele>
        <time>2016-03-30T12:29:28.000Z</time>
      </trkpt>
      <trkpt lat="45.31388" lon="5.78024">
        <ele>1080</ele>
        <time>2016-03-30T12:29:29.000Z</time>
      </trkpt>
      <trkpt lat="45.31395" lon="5.78042">
        <ele>1079</ele>
        <time>2016-03-30T12:29:30.000Z</time>
      </trkpt>
      <trkpt lat="45.31402" lon="5.78062">
        <ele>1078</ele>
        <time>2016-03-30T12:29:31.000Z</time>
      </trkpt>
      <trkpt lat="45.31408" lon="5.78082">
        <ele>1077</ele>
        <time>2016-03-30T12:29:32.000Z</time>
      </trkpt>
      <trkpt lat="45.31416" lon="5.78104">
        <ele>1076</ele>
        <time>2016-03-30T12:29:33.000Z</time>
      </trkpt>
      <trkpt lat="45.31424" lon="5.78126">
        <ele>1075</ele>
        <time>2016-03-30T12:29:34.000Z</time>
      </trkpt>
      <trkpt lat="45.31432" lon="5.78145">
        <ele>1073</ele>
        <time>2016-03-30T12:29:35.000Z</time>
      </trkpt>
      <trkpt lat="45.3144" lon="5.78163">
        <ele>1072</ele>
        <time>2016-03-30T12:29:36.000Z</time>
      </trkpt>
      <trkpt lat="45.31447" lon="5.78182">
        <ele>1071</ele>
        <time>2016-03-30T12:29:37.000Z</time>
      </trkpt>
      <trkpt lat="45.31452" lon="5.78202">
        <ele>1069</ele>
        <time>2016-03-30T12:29:38.000Z</time>
      </trkpt>
      <trkpt lat="45.31457" lon="5.78226">
        <ele>1070</ele>
        <time>2016-03-30T12:29:39.000Z</time>
      </trkpt>
      <trkpt lat="45.31462" lon="5.78249">
        <ele>1070</ele>
        <time>2016-03-30T12:29:40.000Z</time>
      </trkpt>
      <trkpt lat="45.31465" lon="5.78272">
        <ele>1069</ele>
        <time>2016-03-30T12:29:41.000Z</time>
      </trkpt>
      <trkpt lat="45.31468" lon="5.7829">
        <ele>1069</ele>
        <time>2016-03-30T12:29:42.000Z</time>
      </trkpt>
      <trkpt lat="45.31471" lon="5.78308">
        <ele>1067</ele>
        <time>2016-03-30T12:29:43.000Z</time>
      </trkpt>
      <trkpt lat="45.31474" lon="5.78322">
        <ele>1064</ele>
        <time>2016-03-30T12:29:44.000Z</time>
      </trkpt>
      <trkpt lat="45.31476" lon="5.78342">
        <ele>1063</ele>
        <time>2016-03-30T12:29:45.000Z</time>
      </trkpt>
      <trkpt lat="45.31479" lon="5.78358">
        <ele>1062</ele>
        <time>2016-03-30T12:29:46.000Z</time>
      </trkpt>
      <trkpt lat="45.31484" lon="5.78372">
        <ele>1060</ele>
        <time>2016-03-30T12:29:47.000Z</time>
      </trkpt>
      <trkpt lat="45.31489" lon="5.78392">
        <ele>1059</ele>
        <time>2016-03-30T12:29:48.000Z</time>
      </trkpt>
      <trkpt lat="45.315" lon="5.78406">
        <ele>1058</ele>
        <time>2016-03-30T12:29:49.000Z</time>
      </trkpt>
      <trkpt lat="45.31514" lon="5.78421">
        <ele>1057</ele>
        <time>2016-03-30T12:29:50.000Z</time>
      </trkpt>
      <trkpt lat="45.3153" lon="5.78434">
        <ele>1056</ele>
        <time>2016-03-30T12:29:51.000Z</time>
      </trkpt>
      <trkpt lat="45.31543" lon="5.78445">
        <ele>1053</ele>
        <time>2016-03-30T12:29:52.000Z</time>
      </trkpt>
      <trkpt lat="45.31556" lon="5.78458">
        <ele>1053</ele>
        <time>2016-03-30T12:29:53.000Z</time>
      </trkpt>
      <trkpt lat="45.31568" lon="5.78467">
        <ele>1052</ele>
        <time>2016-03-30T12:29:54.000Z</time>
      </trkpt>
      <trkpt lat="45.31578" lon="5.78467">
        <ele>1049</ele>
        <time>2016-03-30T12:29:55.000Z</time>
      </trkpt>
      <trkpt lat="45.31589" lon="5.78469">
        <ele>1050</ele>
        <time>2016-03-30T12:29:56.000Z</time>
      </trkpt>
      <trkpt lat="45.31599" lon="5.78464">
        <ele>1048</ele>
        <time>2016-03-30T12:29:57.000Z</time>
      </trkpt>
      <trkpt lat="45.31609" lon="5.78455">
        <ele>1049</ele>
        <time>2016-03-30T12:29:58.000Z</time>
      </trkpt>
      <trkpt lat="45.31617" lon="5.78441">
        <ele>1046</ele>
        <time>2016-03-30T12:30:00.000Z</time>
      </trkpt>
      <trkpt lat="45.31634" lon="5.78435">
        <ele>1044</ele>
        <time>2016-03-30T12:30:02.000Z</time>
      </trkpt>
      <trkpt lat="45.31643" lon="5.78437">
        <ele>1043</ele>
        <time>2016-03-30T12:30:03.000Z</time>
      </trkpt>
      <trkpt lat="45.31646" lon="5.78454">
        <ele>1040</ele>
        <time>2016-03-30T12:30:05.000Z</time>
      </trkpt>
      <trkpt lat="45.31646" lon="5.7847">
        <ele>1039</ele>
        <time>2016-03-30T12:30:06.000Z</time>
      </trkpt>
      <trkpt lat="45.31642" lon="5.78491">
        <ele>1037</ele>
        <time>2016-03-30T12:30:07.000Z</time>
      </trkpt>
      <trkpt lat="45.31638" lon="5.78517">
        <ele>1037</ele>
        <time>2016-03-30T12:30:08.000Z</time>
      </trkpt>
      <trkpt lat="45.31639" lon="5.78537">
        <ele>1037</ele>
        <time>2016-03-30T12:30:09.000Z</time>
      </trkpt>
      <trkpt lat="45.31643" lon="5.78553">
        <ele>1036</ele>
        <time>2016-03-30T12:30:10.000Z</time>
      </trkpt>
      <trkpt lat="45.31651" lon="5.78573">
        <ele>1036</ele>
        <time>2016-03-30T12:30:11.000Z</time>
      </trkpt>
      <trkpt lat="45.31661" lon="5.78585">
        <ele>1034</ele>
        <time>2016-03-30T12:30:12.000Z</time>
      </trkpt>
      <trkpt lat="45.31671" lon="5.78602">
        <ele>1033</ele>
        <time>2016-03-30T12:30:13.000Z</time>
      </trkpt>
      <trkpt lat="45.31682" lon="5.78616">
        <ele>1031</ele>
        <time>2016-03-30T12:30:14.000Z</time>
      </trkpt>
      <trkpt lat="45.31694" lon="5.78629">
        <ele>1029</ele>
        <time>2016-03-30T12:30:15.000Z</time>
      </trkpt>
      <trkpt lat="45.31704" lon="5.78643">
        <ele>1029</ele>
        <time>2016-03-30T12:30:16.000Z</time>
      </trkpt>
      <trkpt lat="45.31713" lon="5.7866">
        <ele>1026</ele>
        <time>2016-03-30T12:30:17.000Z</time>
      </trkpt>
      <trkpt lat="45.31723" lon="5.78675">
        <ele>1024</ele>
        <time>2016-03-30T12:30:18.000Z</time>
      </trkpt>
      <trkpt lat="45.31731" lon="5.78693">
        <ele>1024</ele>
        <time>2016-03-30T12:30:19.000Z</time>
      </trkpt>
      <trkpt lat="45.31739" lon="5.7871">
        <ele>1024</ele>
        <time>2016-03-30T12:30:20.000Z</time>
      </trkpt>
      <trkpt lat="45.31748" lon="5.78728">
        <ele>1023</ele>
        <time>2016-03-30T12:30:21.000Z</time>
      </trkpt>
      <trkpt lat="45.31757" lon="5.78739">
        <ele>1020</ele>
        <time>2016-03-30T12:30:22.000Z</time>
      </trkpt>
      <trkpt lat="45.31765" lon="5.78751">
        <ele>1020</ele>
        <time>2016-03-30T12:30:23.000Z</time>
      </trkpt>
      <trkpt lat="45.31773" lon="5.7876">
        <ele>1019</ele>
        <time>2016-03-30T12:30:24.000Z</time>
      </trkpt>
      <trkpt lat="45.31782" lon="5.78767">
        <ele>1018</ele>
        <time>2016-03-30T12:30:25.000Z</time>
      </trkpt>
      <trkpt lat="45.31791" lon="5.78763">
        <ele>1015</ele>
        <time>2016-03-30T12:30:26.000Z</time>
      </trkpt>
      <trkpt lat="45.31809" lon="5.78763">
        <ele>1014</ele>
        <time>2016-03-30T12:30:28.000Z</time>
      </trkpt>
      <trkpt lat="45.31825" lon="5.78774">
        <ele>1011</ele>
        <time>2016-03-30T12:30:30.000Z</time>
      </trkpt>
      <trkpt lat="45.31834" lon="5.78787">
        <ele>1012</ele>
        <time>2016-03-30T12:30:31.000Z</time>
      </trkpt>
      <trkpt lat="45.31842" lon="5.78801">
        <ele>1012</ele>
        <time>2016-03-30T12:30:32.000Z</time>
      </trkpt>
      <trkpt lat="45.31852" lon="5.78826">
        <ele>1011</ele>
        <time>2016-03-30T12:30:33.000Z</time>
      </trkpt>
      <trkpt lat="45.31863" lon="5.78842">
        <ele>1009</ele>
        <time>2016-03-30T12:30:34.000Z</time>
      </trkpt>
      <trkpt lat="45.31873" lon="5.78861">
        <ele>1009</ele>
        <time>2016-03-30T12:30:35.000Z</time>
      </trkpt>
      <trkpt lat="45.31883" lon="5.78876">
        <ele>1008</ele>
        <time>2016-03-30T12:30:36.000Z</time>
      </trkpt>
      <trkpt lat="45.31892" lon="5.78891">
        <ele>1007</ele>
        <time>2016-03-30T12:30:37.000Z</time>
      </trkpt>
      <trkpt lat="45.31902" lon="5.78909">
        <ele>1007</ele>
        <time>2016-03-30T12:30:38.000Z</time>
      </trkpt>
      <trkpt lat="45.31911" lon="5.78928">
        <ele>1006</ele>
        <time>2016-03-30T12:30:39.000Z</time>
      </trkpt>
      <trkpt lat="45.31921" lon="5.78947">
        <ele>1005</ele>
        <time>2016-03-30T12:30:40.000Z</time>
      </trkpt>
      <trkpt lat="45.31931" lon="5.78966">
        <ele>1004</ele>
        <time>2016-03-30T12:30:41.000Z</time>
      </trkpt>
      <trkpt lat="45.31941" lon="5.78984">
        <ele>1001</ele>
        <time>2016-03-30T12:30:42.000Z</time>
      </trkpt>
      <trkpt lat="45.31951" lon="5.79002">
        <ele>999</ele>
        <time>2016-03-30T12:30:43.000Z</time>
      </trkpt>
      <trkpt lat="45.3196" lon="5.79023">
        <ele>998</ele>
        <time>2016-03-30T12:30:44.000Z</time>
      </trkpt>
      <trkpt lat="45.31968" lon="5.79041">
        <ele>998</ele>
        <time>2016-03-30T12:30:45.000Z</time>
      </trkpt>
      <trkpt lat="45.31976" lon="5.7906">
        <ele>997</ele>
        <time>2016-03-30T12:30:46.000Z</time>
      </trkpt>
      <trkpt lat="45.31984" lon="5.79079">
        <ele>997</ele>
        <time>2016-03-30T12:30:47.000Z</time>
      </trkpt>
      <trkpt lat="45.31992" lon="5.79097">
        <ele>996</ele>
        <time>2016-03-30T12:30:48.000Z</time>
      </trkpt>
      <trkpt lat="45.32" lon="5.79116">
        <ele>995</ele>
        <time>2016-03-30T12:30:49.000Z</time>
      </trkpt>
      <trkpt lat="45.32007" lon="5.79135">
        <ele>995</ele>
        <time>2016-03-30T12:30:50.000Z</time>
      </trkpt>
      <trkpt lat="45.32015" lon="5.79147">
        <ele>992</ele>
        <time>2016-03-30T12:30:51.000Z</time>
      </trkpt>
      <trkpt lat="45.32025" lon="5.79162">
        <ele>991</ele>
        <time>2016-03-30T12:30:52.000Z</time>
      </trkpt>
      <trkpt lat="45.32035" lon="5.79179">
        <ele>989</ele>
        <time>2016-03-30T12:30:53.000Z</time>
      </trkpt>
      <trkpt lat="45.32046" lon="5.79196">
        <ele>987</ele>
        <time>2016-03-30T12:30:54.000Z</time>
      </trkpt>
      <trkpt lat="45.32056" lon="5.79215">
        <ele>988</ele>
        <time>2016-03-30T12:30:55.000Z</time>
      </trkpt>
      <trkpt lat="45.32065" lon="5.79234">
        <ele>987</ele>
        <time>2016-03-30T12:30:56.000Z</time>
      </trkpt>
      <trkpt lat="45.32071" lon="5.79253">
        <ele>985</ele>
        <time>2016-03-30T12:30:57.000Z</time>
      </trkpt>
      <trkpt lat="45.32076" lon="5.79273">
        <ele>985</ele>
        <time>2016-03-30T12:30:58.000Z</time>
      </trkpt>
      <trkpt lat="45.32081" lon="5.7929">
        <ele>985</ele>
        <time>2016-03-30T12:30:59.000Z</time>
      </trkpt>
      <trkpt lat="45.32083" lon="5.79309">
        <ele>984</ele>
        <time>2016-03-30T12:31:00.000Z</time>
      </trkpt>
      <trkpt lat="45.32086" lon="5.79327">
        <ele>985</ele>
        <time>2016-03-30T12:31:01.000Z</time>
      </trkpt>
      <trkpt lat="45.3209" lon="5.79345">
        <ele>984</ele>
        <time>2016-03-30T12:31:02.000Z</time>
      </trkpt>
      <trkpt lat="45.32094" lon="5.79362">
        <ele>984</ele>
        <time>2016-03-30T12:31:03.000Z</time>
      </trkpt>
      <trkpt lat="45.321" lon="5.79378">
        <ele>984</ele>
        <time>2016-03-30T12:31:04.000Z</time>
      </trkpt>
      <trkpt lat="45.32106" lon="5.79391">
        <ele>983</ele>
        <time>2016-03-30T12:31:05.000Z</time>
      </trkpt>
      <trkpt lat="45.32115" lon="5.79399">
        <ele>981</ele>
        <time>2016-03-30T12:31:06.000Z</time>
      </trkpt>
      <trkpt lat="45.32124" lon="5.7941">
        <ele>980</ele>
        <time>2016-03-30T12:31:07.000Z</time>
      </trkpt>
      <trkpt lat="45.32134" lon="5.79419">
        <ele>979</ele>
        <time>2016-03-30T12:31:08.000Z</time>
      </trkpt>
      <trkpt lat="45.3214" lon="5.79431">
        <ele>979</ele>
        <time>2016-03-30T12:31:09.000Z</time>
      </trkpt>
      <trkpt lat="45.3215" lon="5.79455">
        <ele>977</ele>
        <time>2016-03-30T12:31:11.000Z</time>
      </trkpt>
      <trkpt lat="45.32155" lon="5.79476">
        <ele>977</ele>
        <time>2016-03-30T12:31:12.000Z</time>
      </trkpt>
      <trkpt lat="45.32154" lon="5.79494">
        <ele>976</ele>
        <time>2016-03-30T12:31:13.000Z</time>
      </trkpt>
      <trkpt lat="45.32155" lon="5.79511">
        <ele>975</ele>
        <time>2016-03-30T12:31:14.000Z</time>
      </trkpt>
      <trkpt lat="45.32161" lon="5.79527">
        <ele>975</ele>
        <time>2016-03-30T12:31:15.000Z</time>
      </trkpt>
      <trkpt lat="45.32165" lon="5.79543">
        <ele>974</ele>
        <time>2016-03-30T12:31:16.000Z</time>
      </trkpt>
      <trkpt lat="45.32175" lon="5.79552">
        <ele>972</ele>
        <time>2016-03-30T12:31:17.000Z</time>
      </trkpt>
      <trkpt lat="45.32184" lon="5.79565">
        <ele>971</ele>
        <time>2016-03-30T12:31:18.000Z</time>
      </trkpt>
      <trkpt lat="45.32194" lon="5.79571">
        <ele>970</ele>
        <time>2016-03-30T12:31:19.000Z</time>
      </trkpt>
      <trkpt lat="45.32204" lon="5.79579">
        <ele>970</ele>
        <time>2016-03-30T12:31:20.000Z</time>
      </trkpt>
      <trkpt lat="45.32215" lon="5.79583">
        <ele>971</ele>
        <time>2016-03-30T12:31:21.000Z</time>
      </trkpt>
      <trkpt lat="45.32225" lon="5.79586">
        <ele>971</ele>
        <time>2016-03-30T12:31:22.000Z</time>
      </trkpt>
      <trkpt lat="45.32242" lon="5.79585">
        <ele>972</ele>
        <time>2016-03-30T12:31:24.000Z</time>
      </trkpt>
      <trkpt lat="45.32252" lon="5.79581">
        <ele>971</ele>
        <time>2016-03-30T12:31:25.000Z</time>
      </trkpt>
      <trkpt lat="45.32273" lon="5.79569">
        <ele>971</ele>
        <time>2016-03-30T12:31:27.000Z</time>
      </trkpt>
      <trkpt lat="45.32287" lon="5.79554">
        <ele>970</ele>
        <time>2016-03-30T12:31:29.000Z</time>
      </trkpt>
      <trkpt lat="45.32295" lon="5.79537">
        <ele>971</ele>
        <time>2016-03-30T12:31:30.000Z</time>
      </trkpt>
      <trkpt lat="45.32307" lon="5.79524">
        <ele>971</ele>
        <time>2016-03-30T12:31:31.000Z</time>
      </trkpt>
      <trkpt lat="45.32314" lon="5.79507">
        <ele>970</ele>
        <time>2016-03-30T12:31:32.000Z</time>
      </trkpt>
      <trkpt lat="45.32319" lon="5.79489">
        <ele>970</ele>
        <time>2016-03-30T12:31:33.000Z</time>
      </trkpt>
      <trkpt lat="45.32325" lon="5.7947">
        <ele>970</ele>
        <time>2016-03-30T12:31:34.000Z</time>
      </trkpt>
      <trkpt lat="45.32333" lon="5.79458">
        <ele>968</ele>
        <time>2016-03-30T12:31:35.000Z</time>
      </trkpt>
      <trkpt lat="45.32329" lon="5.79436">
        <ele>965</ele>
        <time>2016-03-30T12:31:36.000Z</time>
      </trkpt>
      <trkpt lat="45.32333" lon="5.79421">
        <ele>965</ele>
        <time>2016-03-30T12:31:37.000Z</time>
      </trkpt>
      <trkpt lat="45.32335" lon="5.79408">
        <ele>964</ele>
        <time>2016-03-30T12:31:38.000Z</time>
      </trkpt>
      <trkpt lat="45.32343" lon="5.79401">
        <ele>962</ele>
        <time>2016-03-30T12:31:39.000Z</time>
      </trkpt>
      <trkpt lat="45.32351" lon="5.79391">
        <ele>963</ele>
        <time>2016-03-30T12:31:40.000Z</time>
      </trkpt>
      <trkpt lat="45.32363" lon="5.79388">
        <ele>961</ele>
        <time>2016-03-30T12:31:42.000Z</time>
      </trkpt>
      <trkpt lat="45.32374" lon="5.794">
        <ele>960</ele>
        <time>2016-03-30T12:31:43.000Z</time>
      </trkpt>
      <trkpt lat="45.32388" lon="5.79412">
        <ele>959</ele>
        <time>2016-03-30T12:31:44.000Z</time>
      </trkpt>
      <trkpt lat="45.32397" lon="5.79432">
        <ele>959</ele>
        <time>2016-03-30T12:31:45.000Z</time>
      </trkpt>
      <trkpt lat="45.32404" lon="5.79452">
        <ele>957</ele>
        <time>2016-03-30T12:31:46.000Z</time>
      </trkpt>
      <trkpt lat="45.32415" lon="5.79469">
        <ele>958</ele>
        <time>2016-03-30T12:31:47.000Z</time>
      </trkpt>
      <trkpt lat="45.32423" lon="5.79488">
        <ele>957</ele>
        <time>2016-03-30T12:31:48.000Z</time>
      </trkpt>
      <trkpt lat="45.32434" lon="5.79505">
        <ele>957</ele>
        <time>2016-03-30T12:31:49.000Z</time>
      </trkpt>
      <trkpt lat="45.32445" lon="5.79521">
        <ele>956</ele>
        <time>2016-03-30T12:31:50.000Z</time>
      </trkpt>
      <trkpt lat="45.32456" lon="5.79537">
        <ele>955</ele>
        <time>2016-03-30T12:31:51.000Z</time>
      </trkpt>
      <trkpt lat="45.32467" lon="5.79553">
        <ele>954</ele>
        <time>2016-03-30T12:31:52.000Z</time>
      </trkpt>
      <trkpt lat="45.32479" lon="5.79568">
        <ele>952</ele>
        <time>2016-03-30T12:31:53.000Z</time>
      </trkpt>
      <trkpt lat="45.3249" lon="5.79581">
        <ele>952</ele>
        <time>2016-03-30T12:31:54.000Z</time>
      </trkpt>
      <trkpt lat="45.325" lon="5.79595">
        <ele>951</ele>
        <time>2016-03-30T12:31:55.000Z</time>
      </trkpt>
      <trkpt lat="45.32511" lon="5.79609">
        <ele>950</ele>
        <time>2016-03-30T12:31:56.000Z</time>
      </trkpt>
      <trkpt lat="45.32519" lon="5.79624">
        <ele>948</ele>
        <time>2016-03-30T12:31:57.000Z</time>
      </trkpt>
      <trkpt lat="45.32529" lon="5.79639">
        <ele>946</ele>
        <time>2016-03-30T12:31:58.000Z</time>
      </trkpt>
      <trkpt lat="45.32539" lon="5.79654">
        <ele>944</ele>
        <time>2016-03-30T12:31:59.000Z</time>
      </trkpt>
      <trkpt lat="45.3255" lon="5.79669">
        <ele>944</ele>
        <time>2016-03-30T12:32:00.000Z</time>
      </trkpt>
      <trkpt lat="45.32562" lon="5.79684">
        <ele>943</ele>
        <time>2016-03-30T12:32:01.000Z</time>
      </trkpt>
      <trkpt lat="45.32573" lon="5.79697">
        <ele>942</ele>
        <time>2016-03-30T12:32:02.000Z</time>
      </trkpt>
      <trkpt lat="45.32587" lon="5.79708">
        <ele>943</ele>
        <time>2016-03-30T12:32:03.000Z</time>
      </trkpt>
      <trkpt lat="45.32599" lon="5.79718">
        <ele>942</ele>
        <time>2016-03-30T12:32:04.000Z</time>
      </trkpt>
      <trkpt lat="45.32611" lon="5.79727">
        <ele>942</ele>
        <time>2016-03-30T12:32:05.000Z</time>
      </trkpt>
      <trkpt lat="45.32624" lon="5.79735">
        <ele>942</ele>
        <time>2016-03-30T12:32:06.000Z</time>
      </trkpt>
      <trkpt lat="45.32635" lon="5.79746">
        <ele>940</ele>
        <time>2016-03-30T12:32:07.000Z</time>
      </trkpt>
      <trkpt lat="45.32645" lon="5.79759">
        <ele>939</ele>
        <time>2016-03-30T12:32:08.000Z</time>
      </trkpt>
      <trkpt lat="45.32655" lon="5.79774">
        <ele>938</ele>
        <time>2016-03-30T12:32:09.000Z</time>
      </trkpt>
      <trkpt lat="45.32664" lon="5.7979">
        <ele>938</ele>
        <time>2016-03-30T12:32:10.000Z</time>
      </trkpt>
      <trkpt lat="45.32673" lon="5.79808">
        <ele>938</ele>
        <time>2016-03-30T12:32:11.000Z</time>
      </trkpt>
      <trkpt lat="45.32679" lon="5.79831">
        <ele>939</ele>
        <time>2016-03-30T12:32:12.000Z</time>
      </trkpt>
      <trkpt lat="45.32682" lon="5.79857">
        <ele>940</ele>
        <time>2016-03-30T12:32:13.000Z</time>
      </trkpt>
      <trkpt lat="45.32685" lon="5.7988">
        <ele>940</ele>
        <time>2016-03-30T12:32:14.000Z</time>
      </trkpt>
      <trkpt lat="45.32684" lon="5.79897">
        <ele>938</ele>
        <time>2016-03-30T12:32:15.000Z</time>
      </trkpt>
      <trkpt lat="45.32687" lon="5.79915">
        <ele>938</ele>
        <time>2016-03-30T12:32:16.000Z</time>
      </trkpt>
      <trkpt lat="45.32689" lon="5.79933">
        <ele>939</ele>
        <time>2016-03-30T12:32:17.000Z</time>
      </trkpt>
      <trkpt lat="45.32693" lon="5.79951">
        <ele>939</ele>
        <time>2016-03-30T12:32:18.000Z</time>
      </trkpt>
      <trkpt lat="45.32695" lon="5.79969">
        <ele>938</ele>
        <time>2016-03-30T12:32:19.000Z</time>
      </trkpt>
      <trkpt lat="45.32698" lon="5.79987">
        <ele>938</ele>
        <time>2016-03-30T12:32:20.000Z</time>
      </trkpt>
      <trkpt lat="45.32701" lon="5.80004">
        <ele>937</ele>
        <time>2016-03-30T12:32:21.000Z</time>
      </trkpt>
      <trkpt lat="45.32705" lon="5.80027">
        <ele>933</ele>
        <time>2016-03-30T12:32:23.000Z</time>
      </trkpt>
      <trkpt lat="45.32716" lon="5.80049">
        <ele>930</ele>
        <time>2016-03-30T12:32:25.000Z</time>
      </trkpt>
      <trkpt lat="45.32726" lon="5.80062">
        <ele>929</ele>
        <time>2016-03-30T12:32:26.000Z</time>
      </trkpt>
      <trkpt lat="45.32736" lon="5.80077">
        <ele>929</ele>
        <time>2016-03-30T12:32:27.000Z</time>
      </trkpt>
      <trkpt lat="45.32748" lon="5.8009">
        <ele>927</ele>
        <time>2016-03-30T12:32:28.000Z</time>
      </trkpt>
      <trkpt lat="45.32759" lon="5.80105">
        <ele>927</ele>
        <time>2016-03-30T12:32:29.000Z</time>
      </trkpt>
      <trkpt lat="45.32771" lon="5.80118">
        <ele>927</ele>
        <time>2016-03-30T12:32:30.000Z</time>
      </trkpt>
      <trkpt lat="45.32792" lon="5.80145">
        <ele>926</ele>
        <time>2016-03-30T12:32:32.000Z</time>
      </trkpt>
      <trkpt lat="45.32802" lon="5.80157">
        <ele>925</ele>
        <time>2016-03-30T12:32:33.000Z</time>
      </trkpt>
      <trkpt lat="45.32814" lon="5.80166">
        <ele>923</ele>
        <time>2016-03-30T12:32:34.000Z</time>
      </trkpt>
      <trkpt lat="45.32825" lon="5.80181">
        <ele>922</ele>
        <time>2016-03-30T12:32:35.000Z</time>
      </trkpt>
      <trkpt lat="45.32836" lon="5.80197">
        <ele>921</ele>
        <time>2016-03-30T12:32:36.000Z</time>
      </trkpt>
      <trkpt lat="45.32842" lon="5.80221">
        <ele>920</ele>
        <time>2016-03-30T12:32:37.000Z</time>
      </trkpt>
      <trkpt lat="45.32847" lon="5.80241">
        <ele>918</ele>
        <time>2016-03-30T12:32:38.000Z</time>
      </trkpt>
      <trkpt lat="45.32855" lon="5.8026">
        <ele>917</ele>
        <time>2016-03-30T12:32:39.000Z</time>
      </trkpt>
      <trkpt lat="45.32864" lon="5.80276">
        <ele>916</ele>
        <time>2016-03-30T12:32:40.000Z</time>
      </trkpt>
      <trkpt lat="45.3287" lon="5.80292">
        <ele>914</ele>
        <time>2016-03-30T12:32:41.000Z</time>
      </trkpt>
      <trkpt lat="45.32876" lon="5.80309">
        <ele>913</ele>
        <time>2016-03-30T12:32:42.000Z</time>
      </trkpt>
      <trkpt lat="45.32883" lon="5.80323">
        <ele>912</ele>
        <time>2016-03-30T12:32:43.000Z</time>
      </trkpt>
      <trkpt lat="45.32893" lon="5.80337">
        <ele>909</ele>
        <time>2016-03-30T12:32:44.000Z</time>
      </trkpt>
      <trkpt lat="45.32904" lon="5.80352">
        <ele>909</ele>
        <time>2016-03-30T12:32:45.000Z</time>
      </trkpt>
      <trkpt lat="45.32917" lon="5.80365">
        <ele>908</ele>
        <time>2016-03-30T12:32:46.000Z</time>
      </trkpt>
      <trkpt lat="45.32934" lon="5.80379">
        <ele>907</ele>
        <time>2016-03-30T12:32:47.000Z</time>
      </trkpt>
      <trkpt lat="45.32951" lon="5.80398">
        <ele>906</ele>
        <time>2016-03-30T12:32:48.000Z</time>
      </trkpt>
      <trkpt lat="45.32967" lon="5.80415">
        <ele>904</ele>
        <time>2016-03-30T12:32:49.000Z</time>
      </trkpt>
      <trkpt lat="45.32982" lon="5.80432">
        <ele>904</ele>
        <time>2016-03-30T12:32:50.000Z</time>
      </trkpt>
      <trkpt lat="45.32997" lon="5.80446">
        <ele>903</ele>
        <time>2016-03-30T12:32:51.000Z</time>
      </trkpt>
      <trkpt lat="45.33012" lon="5.80461">
        <ele>902</ele>
        <time>2016-03-30T12:32:52.000Z</time>
      </trkpt>
      <trkpt lat="45.33026" lon="5.80475">
        <ele>901</ele>
        <time>2016-03-30T12:32:53.000Z</time>
      </trkpt>
      <trkpt lat="45.33038" lon="5.80489">
        <ele>901</ele>
        <time>2016-03-30T12:32:54.000Z</time>
      </trkpt>
      <trkpt lat="45.3305" lon="5.80499">
        <ele>897</ele>
        <time>2016-03-30T12:32:55.000Z</time>
      </trkpt>
      <trkpt lat="45.33061" lon="5.8051">
        <ele>896</ele>
        <time>2016-03-30T12:32:56.000Z</time>
      </trkpt>
      <trkpt lat="45.33074" lon="5.80519">
        <ele>895</ele>
        <time>2016-03-30T12:32:57.000Z</time>
      </trkpt>
      <trkpt lat="45.33087" lon="5.80532">
        <ele>894</ele>
        <time>2016-03-30T12:32:58.000Z</time>
      </trkpt>
      <trkpt lat="45.33099" lon="5.80543">
        <ele>893</ele>
        <time>2016-03-30T12:32:59.000Z</time>
      </trkpt>
      <trkpt lat="45.33112" lon="5.80554">
        <ele>893</ele>
        <time>2016-03-30T12:33:00.000Z</time>
      </trkpt>
      <trkpt lat="45.33124" lon="5.80564">
        <ele>891</ele>
        <time>2016-03-30T12:33:01.000Z</time>
      </trkpt>
      <trkpt lat="45.33138" lon="5.80571">
        <ele>890</ele>
        <time>2016-03-30T12:33:02.000Z</time>
      </trkpt>
      <trkpt lat="45.33153" lon="5.80577">
        <ele>890</ele>
        <time>2016-03-30T12:33:03.000Z</time>
      </trkpt>
      <trkpt lat="45.33169" lon="5.80584">
        <ele>889</ele>
        <time>2016-03-30T12:33:04.000Z</time>
      </trkpt>
      <trkpt lat="45.33185" lon="5.8059">
        <ele>888</ele>
        <time>2016-03-30T12:33:05.000Z</time>
      </trkpt>
      <trkpt lat="45.33202" lon="5.80599">
        <ele>887</ele>
        <time>2016-03-30T12:33:06.000Z</time>
      </trkpt>
      <trkpt lat="45.33218" lon="5.80602">
        <ele>887</ele>
        <time>2016-03-30T12:33:07.000Z</time>
      </trkpt>
      <trkpt lat="45.33228" lon="5.80609">
        <ele>886</ele>
        <time>2016-03-30T12:33:08.000Z</time>
      </trkpt>
      <trkpt lat="45.33238" lon="5.80615">
        <ele>882</ele>
        <time>2016-03-30T12:33:09.000Z</time>
      </trkpt>
      <trkpt lat="45.3325" lon="5.80623">
        <ele>881</ele>
        <time>2016-03-30T12:33:10.000Z</time>
      </trkpt>
      <trkpt lat="45.33262" lon="5.80631">
        <ele>880</ele>
        <time>2016-03-30T12:33:11.000Z</time>
      </trkpt>
      <trkpt lat="45.33273" lon="5.80638">
        <ele>879</ele>
        <time>2016-03-30T12:33:12.000Z</time>
      </trkpt>
      <trkpt lat="45.33286" lon="5.80645">
        <ele>878</ele>
        <time>2016-03-30T12:33:13.000Z</time>
      </trkpt>
      <trkpt lat="45.33297" lon="5.8065">
        <ele>877</ele>
        <time>2016-03-30T12:33:14.000Z</time>
      </trkpt>
      <trkpt lat="45.33308" lon="5.80659">
        <ele>876</ele>
        <time>2016-03-30T12:33:15.000Z</time>
      </trkpt>
      <trkpt lat="45.33318" lon="5.80664">
        <ele>873</ele>
        <time>2016-03-30T12:33:16.000Z</time>
      </trkpt>
      <trkpt lat="45.33329" lon="5.80672">
        <ele>871</ele>
        <time>2016-03-30T12:33:17.000Z</time>
      </trkpt>
      <trkpt lat="45.33339" lon="5.80683">
        <ele>871</ele>
        <time>2016-03-30T12:33:18.000Z</time>
      </trkpt>
      <trkpt lat="45.3335" lon="5.80694">
        <ele>870</ele>
        <time>2016-03-30T12:33:19.000Z</time>
      </trkpt>
      <trkpt lat="45.3336" lon="5.80705">
        <ele>870</ele>
        <time>2016-03-30T12:33:20.000Z</time>
      </trkpt>
      <trkpt lat="45.3337" lon="5.80713">
        <ele>869</ele>
        <time>2016-03-30T12:33:21.000Z</time>
      </trkpt>
      <trkpt lat="45.33381" lon="5.80722">
        <ele>869</ele>
        <time>2016-03-30T12:33:22.000Z</time>
      </trkpt>
      <trkpt lat="45.33393" lon="5.80727">
        <ele>867</ele>
        <time>2016-03-30T12:33:23.000Z</time>
      </trkpt>
      <trkpt lat="45.33408" lon="5.80733">
        <ele>866</ele>
        <time>2016-03-30T12:33:24.000Z</time>
      </trkpt>
      <trkpt lat="45.33423" lon="5.80739">
        <ele>865</ele>
        <time>2016-03-30T12:33:25.000Z</time>
      </trkpt>
      <trkpt lat="45.33439" lon="5.80744">
        <ele>864</ele>
        <time>2016-03-30T12:33:26.000Z</time>
      </trkpt>
      <trkpt lat="45.33455" lon="5.8075">
        <ele>864</ele>
        <time>2016-03-30T12:33:27.000Z</time>
      </trkpt>
      <trkpt lat="45.33471" lon="5.80754">
        <ele>865</ele>
        <time>2016-03-30T12:33:28.000Z</time>
      </trkpt>
      <trkpt lat="45.33487" lon="5.80757">
        <ele>864</ele>
        <time>2016-03-30T12:33:29.000Z</time>
      </trkpt>
      <trkpt lat="45.33503" lon="5.8076">
        <ele>864</ele>
        <time>2016-03-30T12:33:30.000Z</time>
      </trkpt>
      <trkpt lat="45.33522" lon="5.80753">
        <ele>861</ele>
        <time>2016-03-30T12:33:31.000Z</time>
      </trkpt>
      <trkpt lat="45.33538" lon="5.80748">
        <ele>862</ele>
        <time>2016-03-30T12:33:32.000Z</time>
      </trkpt>
      <trkpt lat="45.33552" lon="5.80742">
        <ele>862</ele>
        <time>2016-03-30T12:33:33.000Z</time>
      </trkpt>
      <trkpt lat="45.33565" lon="5.80737">
        <ele>861</ele>
        <time>2016-03-30T12:33:34.000Z</time>
      </trkpt>
      <trkpt lat="45.33577" lon="5.80733">
        <ele>863</ele>
        <time>2016-03-30T12:33:35.000Z</time>
      </trkpt>
      <trkpt lat="45.33592" lon="5.80727">
        <ele>863</ele>
        <time>2016-03-30T12:33:36.000Z</time>
      </trkpt>
      <trkpt lat="45.33604" lon="5.80723">
        <ele>863</ele>
        <time>2016-03-30T12:33:37.000Z</time>
      </trkpt>
      <trkpt lat="45.33616" lon="5.80717">
        <ele>863</ele>
        <time>2016-03-30T12:33:38.000Z</time>
      </trkpt>
      <trkpt lat="45.33629" lon="5.80712">
        <ele>865</ele>
        <time>2016-03-30T12:33:39.000Z</time>
      </trkpt>
      <trkpt lat="45.33644" lon="5.80709">
        <ele>864</ele>
        <time>2016-03-30T12:33:40.000Z</time>
      </trkpt>
      <trkpt lat="45.33658" lon="5.8071">
        <ele>865</ele>
        <time>2016-03-30T12:33:41.000Z</time>
      </trkpt>
      <trkpt lat="45.33673" lon="5.80711">
        <ele>866</ele>
        <time>2016-03-30T12:33:42.000Z</time>
      </trkpt>
      <trkpt lat="45.33689" lon="5.80711">
        <ele>866</ele>
        <time>2016-03-30T12:33:43.000Z</time>
      </trkpt>
      <trkpt lat="45.33705" lon="5.80715">
        <ele>866</ele>
        <time>2016-03-30T12:33:44.000Z</time>
      </trkpt>
      <trkpt lat="45.33721" lon="5.80715">
        <ele>864</ele>
        <time>2016-03-30T12:33:45.000Z</time>
      </trkpt>
      <trkpt lat="45.33735" lon="5.80718">
        <ele>862</ele>
        <time>2016-03-30T12:33:46.000Z</time>
      </trkpt>
      <trkpt lat="45.33748" lon="5.80719">
        <ele>859</ele>
        <time>2016-03-30T12:33:47.000Z</time>
      </trkpt>
      <trkpt lat="45.33762" lon="5.8072">
        <ele>857</ele>
        <time>2016-03-30T12:33:48.000Z</time>
      </trkpt>
      <trkpt lat="45.33776" lon="5.80721">
        <ele>854</ele>
        <time>2016-03-30T12:33:49.000Z</time>
      </trkpt>
      <trkpt lat="45.33789" lon="5.80723">
        <ele>853</ele>
        <time>2016-03-30T12:33:50.000Z</time>
      </trkpt>
      <trkpt lat="45.33803" lon="5.80728">
        <ele>853</ele>
        <time>2016-03-30T12:33:51.000Z</time>
      </trkpt>
      <trkpt lat="45.33813" lon="5.80729">
        <ele>853</ele>
        <time>2016-03-30T12:33:52.000Z</time>
      </trkpt>
      <trkpt lat="45.33824" lon="5.80735">
        <ele>852</ele>
        <time>2016-03-30T12:33:53.000Z</time>
      </trkpt>
      <trkpt lat="45.33835" lon="5.8074">
        <ele>851</ele>
        <time>2016-03-30T12:33:54.000Z</time>
      </trkpt>
      <trkpt lat="45.33843" lon="5.80745">
        <ele>850</ele>
        <time>2016-03-30T12:33:55.000Z</time>
      </trkpt>
      <trkpt lat="45.33855" lon="5.80746">
        <ele>850</ele>
        <time>2016-03-30T12:33:56.000Z</time>
      </trkpt>
      <trkpt lat="45.33865" lon="5.8075">
        <ele>851</ele>
        <time>2016-03-30T12:33:57.000Z</time>
      </trkpt>
      <trkpt lat="45.33875" lon="5.80753">
        <ele>851</ele>
        <time>2016-03-30T12:33:58.000Z</time>
      </trkpt>
      <trkpt lat="45.33887" lon="5.80753">
        <ele>851</ele>
        <time>2016-03-30T12:33:59.000Z</time>
      </trkpt>
      <trkpt lat="45.33897" lon="5.80753">
        <ele>851</ele>
        <time>2016-03-30T12:34:00.000Z</time>
      </trkpt>
      <trkpt lat="45.33917" lon="5.80752">
        <ele>849</ele>
        <time>2016-03-30T12:34:02.000Z</time>
      </trkpt>
      <trkpt lat="45.3393" lon="5.80754">
        <ele>850</ele>
        <time>2016-03-30T12:34:03.000Z</time>
      </trkpt>
      <trkpt lat="45.33943" lon="5.80758">
        <ele>850</ele>
        <time>2016-03-30T12:34:05.000Z</time>
      </trkpt>
      <trkpt lat="45.33958" lon="5.80761">
        <ele>850</ele>
        <time>2016-03-30T12:34:07.000Z</time>
      </trkpt>
      <trkpt lat="45.33969" lon="5.80771">
        <ele>849</ele>
        <time>2016-03-30T12:34:09.000Z</time>
      </trkpt>
      <trkpt lat="45.3398" lon="5.8078">
        <ele>848</ele>
        <time>2016-03-30T12:34:12.000Z</time>
      </trkpt>
      <trkpt lat="45.3399" lon="5.80781">
        <ele>849</ele>
        <time>2016-03-30T12:34:14.000Z</time>
      </trkpt>
      <trkpt lat="45.34002" lon="5.80779">
        <ele>851</ele>
        <time>2016-03-30T12:34:16.000Z</time>
      </trkpt>
      <trkpt lat="45.34003" lon="5.80801">
        <ele>851</ele>
        <time>2016-03-30T12:34:22.000Z</time>
      </trkpt>
      <trkpt lat="45.34008" lon="5.80822">
        <ele>852</ele>
        <time>2016-03-30T12:34:24.000Z</time>
      </trkpt>
      <trkpt lat="45.34014" lon="5.80835">
        <ele>852</ele>
        <time>2016-03-30T12:34:25.000Z</time>
      </trkpt>
      <trkpt lat="45.34018" lon="5.80848">
        <ele>852</ele>
        <time>2016-03-30T12:34:26.000Z</time>
      </trkpt>
      <trkpt lat="45.34023" lon="5.80862">
        <ele>854</ele>
        <time>2016-03-30T12:34:27.000Z</time>
      </trkpt>
      <trkpt lat="45.34028" lon="5.80872">
        <ele>855</ele>
        <time>2016-03-30T12:34:28.000Z</time>
      </trkpt>
      <trkpt lat="45.34036" lon="5.80881">
        <ele>857</ele>
        <time>2016-03-30T12:34:29.000Z</time>
      </trkpt>
      <trkpt lat="45.34043" lon="5.80891">
        <ele>858</ele>
        <time>2016-03-30T12:34:30.000Z</time>
      </trkpt>
      <trkpt lat="45.34052" lon="5.80909">
        <ele>858</ele>
        <time>2016-03-30T12:34:32.000Z</time>
      </trkpt>
      <trkpt lat="45.34051" lon="5.80932">
        <ele>857</ele>
        <time>2016-03-30T12:34:34.000Z</time>
      </trkpt>
      <trkpt lat="45.34051" lon="5.80946">
        <ele>857</ele>
        <time>2016-03-30T12:34:35.000Z</time>
      </trkpt>
      <trkpt lat="45.34048" lon="5.80966">
        <ele>856</ele>
        <time>2016-03-30T12:34:37.000Z</time>
      </trkpt>
      <trkpt lat="45.34037" lon="5.80974">
        <ele>855</ele>
        <time>2016-03-30T12:34:38.000Z</time>
      </trkpt>
      <trkpt lat="45.34026" lon="5.80983">
        <ele>855</ele>
        <time>2016-03-30T12:34:39.000Z</time>
      </trkpt>
      <trkpt lat="45.34017" lon="5.80994">
        <ele>856</ele>
        <time>2016-03-30T12:34:40.000Z</time>
      </trkpt>
      <trkpt lat="45.34008" lon="5.81009">
        <ele>857</ele>
        <time>2016-03-30T12:34:42.000Z</time>
      </trkpt>
      <trkpt lat="45.34" lon="5.81034">
        <ele>858</ele>
        <time>2016-03-30T12:34:44.000Z</time>
      </trkpt>
      <trkpt lat="45.34003" lon="5.81048">
        <ele>859</ele>
        <time>2016-03-30T12:34:45.000Z</time>
      </trkpt>
      <trkpt lat="45.34013" lon="5.81073">
        <ele>860</ele>
        <time>2016-03-30T12:34:47.000Z</time>
      </trkpt>
      <trkpt lat="45.34016" lon="5.81086">
        <ele>860</ele>
        <time>2016-03-30T12:34:48.000Z</time>
      </trkpt>
      <trkpt lat="45.34021" lon="5.81101">
        <ele>861</ele>
        <time>2016-03-30T12:34:49.000Z</time>
      </trkpt>
      <trkpt lat="45.34022" lon="5.81119">
        <ele>862</ele>
        <time>2016-03-30T12:34:50.000Z</time>
      </trkpt>
      <trkpt lat="45.34024" lon="5.81136">
        <ele>861</ele>
        <time>2016-03-30T12:34:51.000Z</time>
      </trkpt>
      <trkpt lat="45.34027" lon="5.81161">
        <ele>863</ele>
        <time>2016-03-30T12:34:52.000Z</time>
      </trkpt>
      <trkpt lat="45.34031" lon="5.81183">
        <ele>863</ele>
        <time>2016-03-30T12:34:53.000Z</time>
      </trkpt>
      <trkpt lat="45.34033" lon="5.81205">
        <ele>864</ele>
        <time>2016-03-30T12:34:54.000Z</time>
      </trkpt>
      <trkpt lat="45.34036" lon="5.81227">
        <ele>864</ele>
        <time>2016-03-30T12:34:55.000Z</time>
      </trkpt>
      <trkpt lat="45.34039" lon="5.81249">
        <ele>865</ele>
        <time>2016-03-30T12:34:56.000Z</time>
      </trkpt>
      <trkpt lat="45.34043" lon="5.81271">
        <ele>866</ele>
        <time>2016-03-30T12:34:57.000Z</time>
      </trkpt>
      <trkpt lat="45.34045" lon="5.81288">
        <ele>864</ele>
        <time>2016-03-30T12:34:58.000Z</time>
      </trkpt>
      <trkpt lat="45.34048" lon="5.81308">
        <ele>864</ele>
        <time>2016-03-30T12:34:59.000Z</time>
      </trkpt>
      <trkpt lat="45.34051" lon="5.81325">
        <ele>865</ele>
        <time>2016-03-30T12:35:00.000Z</time>
      </trkpt>
      <trkpt lat="45.34054" lon="5.81341">
        <ele>867</ele>
        <time>2016-03-30T12:35:01.000Z</time>
      </trkpt>
      <trkpt lat="45.34056" lon="5.81354">
        <ele>867</ele>
        <time>2016-03-30T12:35:02.000Z</time>
      </trkpt>
      <trkpt lat="45.34057" lon="5.81366">
        <ele>867</ele>
        <time>2016-03-30T12:35:03.000Z</time>
      </trkpt>
      <trkpt lat="45.3406" lon="5.81379">
        <ele>868</ele>
        <time>2016-03-30T12:35:04.000Z</time>
      </trkpt>
      <trkpt lat="45.34064" lon="5.81394">
        <ele>873</ele>
        <time>2016-03-30T12:35:05.000Z</time>
      </trkpt>
      <trkpt lat="45.34069" lon="5.81405">
        <ele>875</ele>
        <time>2016-03-30T12:35:06.000Z</time>
      </trkpt>
      <trkpt lat="45.34081" lon="5.81415">
        <ele>881</ele>
        <time>2016-03-30T12:35:08.000Z</time>
      </trkpt>
      <trkpt lat="45.34092" lon="5.81412">
        <ele>883</ele>
        <time>2016-03-30T12:35:09.000Z</time>
      </trkpt>
      <trkpt lat="45.34106" lon="5.81397">
        <ele>887</ele>
        <time>2016-03-30T12:35:11.000Z</time>
      </trkpt>
      <trkpt lat="45.34115" lon="5.81382">
        <ele>889</ele>
        <time>2016-03-30T12:35:12.000Z</time>
      </trkpt>
      <trkpt lat="45.34109" lon="5.81355">
        <ele>891</ele>
        <time>2016-03-30T12:35:13.000Z</time>
      </trkpt>
      <trkpt lat="45.34115" lon="5.81335">
        <ele>893</ele>
        <time>2016-03-30T12:35:14.000Z</time>
      </trkpt>
      <trkpt lat="45.34108" lon="5.81316">
        <ele>893</ele>
        <time>2016-03-30T12:35:15.000Z</time>
      </trkpt>
      <trkpt lat="45.34103" lon="5.81296">
        <ele>893</ele>
        <time>2016-03-30T12:35:16.000Z</time>
      </trkpt>
      <trkpt lat="45.341" lon="5.81277">
        <ele>893</ele>
        <time>2016-03-30T12:35:17.000Z</time>
      </trkpt>
      <trkpt lat="45.34099" lon="5.81259">
        <ele>894</ele>
        <time>2016-03-30T12:35:18.000Z</time>
      </trkpt>
      <trkpt lat="45.34095" lon="5.81239">
        <ele>896</ele>
        <time>2016-03-30T12:35:19.000Z</time>
      </trkpt>
      <trkpt lat="45.34094" lon="5.81222">
        <ele>898</ele>
        <time>2016-03-30T12:35:20.000Z</time>
      </trkpt>
      <trkpt lat="45.34095" lon="5.81207">
        <ele>900</ele>
        <time>2016-03-30T12:35:21.000Z</time>
      </trkpt>
      <trkpt lat="45.34109" lon="5.81196">
        <ele>901</ele>
        <time>2016-03-30T12:35:23.000Z</time>
      </trkpt>
      <trkpt lat="45.34123" lon="5.81189">
        <ele>901</ele>
        <time>2016-03-30T12:35:25.000Z</time>
      </trkpt>
      <trkpt lat="45.34134" lon="5.81196">
        <ele>904</ele>
        <time>2016-03-30T12:35:27.000Z</time>
      </trkpt>
      <trkpt lat="45.34137" lon="5.81208">
        <ele>904</ele>
        <time>2016-03-30T12:35:29.000Z</time>
      </trkpt>
      <trkpt lat="45.34135" lon="5.81228">
        <ele>905</ele>
        <time>2016-03-30T12:35:30.000Z</time>
      </trkpt>
      <trkpt lat="45.34127" lon="5.81247">
        <ele>906</ele>
        <time>2016-03-30T12:35:31.000Z</time>
      </trkpt>
      <trkpt lat="45.34125" lon="5.81264">
        <ele>908</ele>
        <time>2016-03-30T12:35:32.000Z</time>
      </trkpt>
      <trkpt lat="45.3413" lon="5.81289">
        <ele>908</ele>
        <time>2016-03-30T12:35:34.000Z</time>
      </trkpt>
      <trkpt lat="45.34134" lon="5.81303">
        <ele>907</ele>
        <time>2016-03-30T12:35:35.000Z</time>
      </trkpt>
      <trkpt lat="45.3415" lon="5.81319">
        <ele>908</ele>
        <time>2016-03-30T12:35:37.000Z</time>
      </trkpt>
      <trkpt lat="45.34164" lon="5.81326">
        <ele>909</ele>
        <time>2016-03-30T12:35:38.000Z</time>
      </trkpt>
      <trkpt lat="45.34174" lon="5.81337">
        <ele>910</ele>
        <time>2016-03-30T12:35:39.000Z</time>
      </trkpt>
      <trkpt lat="45.34188" lon="5.81353">
        <ele>914</ele>
        <time>2016-03-30T12:35:41.000Z</time>
      </trkpt>
      <trkpt lat="45.34198" lon="5.81373">
        <ele>919</ele>
        <time>2016-03-30T12:35:43.000Z</time>
      </trkpt>
      <trkpt lat="45.34204" lon="5.81389">
        <ele>924</ele>
        <time>2016-03-30T12:35:45.000Z</time>
      </trkpt>
      <trkpt lat="45.3421" lon="5.81404">
        <ele>926</ele>
        <time>2016-03-30T12:35:47.000Z</time>
      </trkpt>
      <trkpt lat="45.34213" lon="5.81421">
        <ele>926</ele>
        <time>2016-03-30T12:35:49.000Z</time>
      </trkpt>
      <trkpt lat="45.34213" lon="5.81442">
        <ele>928</ele>
        <time>2016-03-30T12:35:51.000Z</time>
      </trkpt>
      <trkpt lat="45.34211" lon="5.81464">
        <ele>928</ele>
        <time>2016-03-30T12:35:53.000Z</time>
      </trkpt>
      <trkpt lat="45.34203" lon="5.81483">
        <ele>928</ele>
        <time>2016-03-30T12:35:55.000Z</time>
      </trkpt>
      <trkpt lat="45.34191" lon="5.81494">
        <ele>927</ele>
        <time>2016-03-30T12:35:57.000Z</time>
      </trkpt>
      <trkpt lat="45.34179" lon="5.81505">
        <ele>929</ele>
        <time>2016-03-30T12:35:59.000Z</time>
      </trkpt>
      <trkpt lat="45.34166" lon="5.81515">
        <ele>928</ele>
        <time>2016-03-30T12:36:01.000Z</time>
      </trkpt>
      <trkpt lat="45.34157" lon="5.81526">
        <ele>928</ele>
        <time>2016-03-30T12:36:03.000Z</time>
      </trkpt>
      <trkpt lat="45.34156" lon="5.81541">
        <ele>927</ele>
        <time>2016-03-30T12:36:05.000Z</time>
      </trkpt>
      <trkpt lat="45.34162" lon="5.8156">
        <ele>928</ele>
        <time>2016-03-30T12:36:08.000Z</time>
      </trkpt>
      <trkpt lat="45.34169" lon="5.81575">
        <ele>930</ele>
        <time>2016-03-30T12:36:10.000Z</time>
      </trkpt>
      <trkpt lat="45.34182" lon="5.81582">
        <ele>931</ele>
        <time>2016-03-30T12:36:12.000Z</time>
      </trkpt>
      <trkpt lat="45.34195" lon="5.81582">
        <ele>932</ele>
        <time>2016-03-30T12:36:14.000Z</time>
      </trkpt>
      <trkpt lat="45.34215" lon="5.8158">
        <ele>934</ele>
        <time>2016-03-30T12:36:16.000Z</time>
      </trkpt>
      <trkpt lat="45.34229" lon="5.81573">
        <ele>934</ele>
        <time>2016-03-30T12:36:17.000Z</time>
      </trkpt>
      <trkpt lat="45.34238" lon="5.81568">
        <ele>935</ele>
        <time>2016-03-30T12:36:18.000Z</time>
      </trkpt>
      <trkpt lat="45.34249" lon="5.81562">
        <ele>939</ele>
        <time>2016-03-30T12:36:19.000Z</time>
      </trkpt>
      <trkpt lat="45.3426" lon="5.81561">
        <ele>940</ele>
        <time>2016-03-30T12:36:20.000Z</time>
      </trkpt>
      <trkpt lat="45.34277" lon="5.8156">
        <ele>944</ele>
        <time>2016-03-30T12:36:22.000Z</time>
      </trkpt>
      <trkpt lat="45.34287" lon="5.81558">
        <ele>945</ele>
        <time>2016-03-30T12:36:23.000Z</time>
      </trkpt>
      <trkpt lat="45.343" lon="5.81558">
        <ele>944</ele>
        <time>2016-03-30T12:36:24.000Z</time>
      </trkpt>
      <trkpt lat="45.34309" lon="5.81556">
        <ele>943</ele>
        <time>2016-03-30T12:36:25.000Z</time>
      </trkpt>
      <trkpt lat="45.34319" lon="5.8156">
        <ele>945</ele>
        <time>2016-03-30T12:36:26.000Z</time>
      </trkpt>
      <trkpt lat="45.34331" lon="5.81559">
        <ele>945</ele>
        <time>2016-03-30T12:36:27.000Z</time>
      </trkpt>
      <trkpt lat="45.3434" lon="5.81561">
        <ele>946</ele>
        <time>2016-03-30T12:36:28.000Z</time>
      </trkpt>
      <trkpt lat="45.3435" lon="5.81563">
        <ele>945</ele>
        <time>2016-03-30T12:36:29.000Z</time>
      </trkpt>
      <trkpt lat="45.34365" lon="5.81571">
        <ele>946</ele>
        <time>2016-03-30T12:36:31.000Z</time>
      </trkpt>
      <trkpt lat="45.34374" lon="5.81578">
        <ele>945</ele>
        <time>2016-03-30T12:36:32.000Z</time>
      </trkpt>
      <trkpt lat="45.3438" lon="5.81587">
        <ele>945</ele>
        <time>2016-03-30T12:36:33.000Z</time>
      </trkpt>
      <trkpt lat="45.34388" lon="5.81595">
        <ele>944</ele>
        <time>2016-03-30T12:36:34.000Z</time>
      </trkpt>
      <trkpt lat="45.34396" lon="5.81604">
        <ele>946</ele>
        <time>2016-03-30T12:36:35.000Z</time>
      </trkpt>
      <trkpt lat="45.34405" lon="5.81612">
        <ele>947</ele>
        <time>2016-03-30T12:36:36.000Z</time>
      </trkpt>
      <trkpt lat="45.34412" lon="5.81622">
        <ele>950</ele>
        <time>2016-03-30T12:36:37.000Z</time>
      </trkpt>
      <trkpt lat="45.34418" lon="5.81632">
        <ele>951</ele>
        <time>2016-03-30T12:36:38.000Z</time>
      </trkpt>
      <trkpt lat="45.34426" lon="5.81641">
        <ele>951</ele>
        <time>2016-03-30T12:36:39.000Z</time>
      </trkpt>
      <trkpt lat="45.3444" lon="5.81656">
        <ele>952</ele>
        <time>2016-03-30T12:36:41.000Z</time>
      </trkpt>
      <trkpt lat="45.34447" lon="5.81664">
        <ele>955</ele>
        <time>2016-03-30T12:36:42.000Z</time>
      </trkpt>
      <trkpt lat="45.3446" lon="5.81679">
        <ele>955</ele>
        <time>2016-03-30T12:36:44.000Z</time>
      </trkpt>
      <trkpt lat="45.34475" lon="5.81683">
        <ele>956</ele>
        <time>2016-03-30T12:36:46.000Z</time>
      </trkpt>
      <trkpt lat="45.34494" lon="5.81685">
        <ele>957</ele>
        <time>2016-03-30T12:36:48.000Z</time>
      </trkpt>
      <trkpt lat="45.34515" lon="5.8168">
        <ele>955</ele>
        <time>2016-03-30T12:36:50.000Z</time>
      </trkpt>
      <trkpt lat="45.34529" lon="5.81675">
        <ele>954</ele>
        <time>2016-03-30T12:36:51.000Z</time>
      </trkpt>
      <trkpt lat="45.34548" lon="5.81679">
        <ele>954</ele>
        <time>2016-03-30T12:36:53.000Z</time>
      </trkpt>
      <trkpt lat="45.34566" lon="5.81685">
        <ele>956</ele>
        <time>2016-03-30T12:36:55.000Z</time>
      </trkpt>
      <trkpt lat="45.34581" lon="5.81695">
        <ele>955</ele>
        <time>2016-03-30T12:36:57.000Z</time>
      </trkpt>
      <trkpt lat="45.3459" lon="5.81695">
        <ele>956</ele>
        <time>2016-03-30T12:36:58.000Z</time>
      </trkpt>
      <trkpt lat="45.346" lon="5.81693">
        <ele>958</ele>
        <time>2016-03-30T12:36:59.000Z</time>
      </trkpt>
      <trkpt lat="45.34619" lon="5.8169">
        <ele>958</ele>
        <time>2016-03-30T12:37:01.000Z</time>
      </trkpt>
      <trkpt lat="45.34631" lon="5.81685">
        <ele>957</ele>
        <time>2016-03-30T12:37:02.000Z</time>
      </trkpt>
      <trkpt lat="45.34641" lon="5.81684">
        <ele>957</ele>
        <time>2016-03-30T12:37:03.000Z</time>
      </trkpt>
      <trkpt lat="45.34655" lon="5.81685">
        <ele>961</ele>
        <time>2016-03-30T12:37:05.000Z</time>
      </trkpt>
      <trkpt lat="45.3467" lon="5.81684">
        <ele>962</ele>
        <time>2016-03-30T12:37:06.000Z</time>
      </trkpt>
      <trkpt lat="45.34689" lon="5.81691">
        <ele>960</ele>
        <time>2016-03-30T12:37:08.000Z</time>
      </trkpt>
      <trkpt lat="45.34699" lon="5.81695">
        <ele>959</ele>
        <time>2016-03-30T12:37:09.000Z</time>
      </trkpt>
      <trkpt lat="45.3471" lon="5.81698">
        <ele>959</ele>
        <time>2016-03-30T12:37:10.000Z</time>
      </trkpt>
      <trkpt lat="45.34723" lon="5.81702">
        <ele>961</ele>
        <time>2016-03-30T12:37:11.000Z</time>
      </trkpt>
      <trkpt lat="45.34733" lon="5.81707">
        <ele>961</ele>
        <time>2016-03-30T12:37:12.000Z</time>
      </trkpt>
      <trkpt lat="45.34746" lon="5.81711">
        <ele>960</ele>
        <time>2016-03-30T12:37:13.000Z</time>
      </trkpt>
      <trkpt lat="45.34759" lon="5.81718">
        <ele>959</ele>
        <time>2016-03-30T12:37:14.000Z</time>
      </trkpt>
      <trkpt lat="45.34769" lon="5.81729">
        <ele>958</ele>
        <time>2016-03-30T12:37:15.000Z</time>
      </trkpt>
      <trkpt lat="45.34778" lon="5.81744">
        <ele>960</ele>
        <time>2016-03-30T12:37:16.000Z</time>
      </trkpt>
      <trkpt lat="45.34788" lon="5.81759">
        <ele>961</ele>
        <time>2016-03-30T12:37:17.000Z</time>
      </trkpt>
      <trkpt lat="45.34799" lon="5.81776">
        <ele>962</ele>
        <time>2016-03-30T12:37:18.000Z</time>
      </trkpt>
      <trkpt lat="45.34809" lon="5.81793">
        <ele>964</ele>
        <time>2016-03-30T12:37:19.000Z</time>
      </trkpt>
      <trkpt lat="45.34819" lon="5.81812">
        <ele>964</ele>
        <time>2016-03-30T12:37:20.000Z</time>
      </trkpt>
      <trkpt lat="45.3483" lon="5.81829">
        <ele>965</ele>
        <time>2016-03-30T12:37:21.000Z</time>
      </trkpt>
      <trkpt lat="45.34835" lon="5.81846">
        <ele>965</ele>
        <time>2016-03-30T12:37:22.000Z</time>
      </trkpt>
      <trkpt lat="45.34844" lon="5.81861">
        <ele>966</ele>
        <time>2016-03-30T12:37:23.000Z</time>
      </trkpt>
      <trkpt lat="45.34851" lon="5.8188">
        <ele>965</ele>
        <time>2016-03-30T12:37:24.000Z</time>
      </trkpt>
      <trkpt lat="45.3486" lon="5.81895">
        <ele>966</ele>
        <time>2016-03-30T12:37:25.000Z</time>
      </trkpt>
      <trkpt lat="45.34872" lon="5.81906">
        <ele>967</ele>
        <time>2016-03-30T12:37:26.000Z</time>
      </trkpt>
      <trkpt lat="45.34888" lon="5.81911">
        <ele>967</ele>
        <time>2016-03-30T12:37:27.000Z</time>
      </trkpt>
      <trkpt lat="45.34903" lon="5.81917">
        <ele>969</ele>
        <time>2016-03-30T12:37:28.000Z</time>
      </trkpt>
      <trkpt lat="45.34917" lon="5.81922">
        <ele>970</ele>
        <time>2016-03-30T12:37:29.000Z</time>
      </trkpt>
      <trkpt lat="45.34934" lon="5.81928">
        <ele>970</ele>
        <time>2016-03-30T12:37:30.000Z</time>
      </trkpt>
      <trkpt lat="45.34951" lon="5.81934">
        <ele>973</ele>
        <time>2016-03-30T12:37:31.000Z</time>
      </trkpt>
      <trkpt lat="45.34967" lon="5.81939">
        <ele>973</ele>
        <time>2016-03-30T12:37:32.000Z</time>
      </trkpt>
      <trkpt lat="45.34983" lon="5.81945">
        <ele>975</ele>
        <time>2016-03-30T12:37:33.000Z</time>
      </trkpt>
      <trkpt lat="45.34997" lon="5.81951">
        <ele>976</ele>
        <time>2016-03-30T12:37:34.000Z</time>
      </trkpt>
      <trkpt lat="45.3501" lon="5.81955">
        <ele>979</ele>
        <time>2016-03-30T12:37:35.000Z</time>
      </trkpt>
      <trkpt lat="45.35026" lon="5.81958">
        <ele>979</ele>
        <time>2016-03-30T12:37:36.000Z</time>
      </trkpt>
      <trkpt lat="45.35041" lon="5.81959">
        <ele>980</ele>
        <time>2016-03-30T12:37:37.000Z</time>
      </trkpt>
      <trkpt lat="45.35056" lon="5.81959">
        <ele>980</ele>
        <time>2016-03-30T12:37:38.000Z</time>
      </trkpt>
      <trkpt lat="45.35072" lon="5.81953">
        <ele>981</ele>
        <time>2016-03-30T12:37:39.000Z</time>
      </trkpt>
      <trkpt lat="45.35085" lon="5.81954">
        <ele>980</ele>
        <time>2016-03-30T12:37:41.000Z</time>
      </trkpt>
      <trkpt lat="45.35095" lon="5.8196">
        <ele>982</ele>
        <time>2016-03-30T12:37:42.000Z</time>
      </trkpt>
      <trkpt lat="45.35101" lon="5.81988">
        <ele>984</ele>
        <time>2016-03-30T12:37:44.000Z</time>
      </trkpt>
      <trkpt lat="45.35107" lon="5.82001">
        <ele>986</ele>
        <time>2016-03-30T12:37:45.000Z</time>
      </trkpt>
      <trkpt lat="45.35112" lon="5.82017">
        <ele>985</ele>
        <time>2016-03-30T12:37:46.000Z</time>
      </trkpt>
      <trkpt lat="45.35115" lon="5.82037">
        <ele>985</ele>
        <time>2016-03-30T12:37:47.000Z</time>
      </trkpt>
      <trkpt lat="45.35126" lon="5.82054">
        <ele>987</ele>
        <time>2016-03-30T12:37:48.000Z</time>
      </trkpt>
      <trkpt lat="45.35135" lon="5.82073">
        <ele>986</ele>
        <time>2016-03-30T12:37:49.000Z</time>
      </trkpt>
      <trkpt lat="45.35145" lon="5.8209">
        <ele>987</ele>
        <time>2016-03-30T12:37:50.000Z</time>
      </trkpt>
      <trkpt lat="45.35156" lon="5.82108">
        <ele>988</ele>
        <time>2016-03-30T12:37:51.000Z</time>
      </trkpt>
      <trkpt lat="45.35169" lon="5.82126">
        <ele>988</ele>
        <time>2016-03-30T12:37:52.000Z</time>
      </trkpt>
      <trkpt lat="45.35177" lon="5.82144">
        <ele>989</ele>
        <time>2016-03-30T12:37:53.000Z</time>
      </trkpt>
      <trkpt lat="45.35188" lon="5.82159">
        <ele>990</ele>
        <time>2016-03-30T12:37:54.000Z</time>
      </trkpt>
      <trkpt lat="45.35197" lon="5.82176">
        <ele>992</ele>
        <time>2016-03-30T12:37:55.000Z</time>
      </trkpt>
      <trkpt lat="45.3521" lon="5.82188">
        <ele>994</ele>
        <time>2016-03-30T12:37:56.000Z</time>
      </trkpt>
      <trkpt lat="45.3522" lon="5.82199">
        <ele>997</ele>
        <time>2016-03-30T12:37:57.000Z</time>
      </trkpt>
      <trkpt lat="45.35226" lon="5.82208">
        <ele>998</ele>
        <time>2016-03-30T12:37:58.000Z</time>
      </trkpt>
      <trkpt lat="45.35245" lon="5.82204">
        <ele>1000</ele>
        <time>2016-03-30T12:37:59.000Z</time>
      </trkpt>
      <trkpt lat="45.35256" lon="5.82211">
        <ele>1003</ele>
        <time>2016-03-30T12:38:00.000Z</time>
      </trkpt>
      <trkpt lat="45.35267" lon="5.82216">
        <ele>1004</ele>
        <time>2016-03-30T12:38:01.000Z</time>
      </trkpt>
      <trkpt lat="45.35277" lon="5.82228">
        <ele>1004</ele>
        <time>2016-03-30T12:38:02.000Z</time>
      </trkpt>
      <trkpt lat="45.3529" lon="5.82242">
        <ele>1004</ele>
        <time>2016-03-30T12:38:03.000Z</time>
      </trkpt>
      <trkpt lat="45.35303" lon="5.82251">
        <ele>1005</ele>
        <time>2016-03-30T12:38:04.000Z</time>
      </trkpt>
      <trkpt lat="45.35321" lon="5.82248">
        <ele>1004</ele>
        <time>2016-03-30T12:38:05.000Z</time>
      </trkpt>
      <trkpt lat="45.35335" lon="5.82255">
        <ele>1004</ele>
        <time>2016-03-30T12:38:06.000Z</time>
      </trkpt>
      <trkpt lat="45.35349" lon="5.82259">
        <ele>1004</ele>
        <time>2016-03-30T12:38:07.000Z</time>
      </trkpt>
      <trkpt lat="45.35358" lon="5.82266">
        <ele>1006</ele>
        <time>2016-03-30T12:38:08.000Z</time>
      </trkpt>
      <trkpt lat="45.35371" lon="5.82275">
        <ele>1006</ele>
        <time>2016-03-30T12:38:09.000Z</time>
      </trkpt>
      <trkpt lat="45.35377" lon="5.82295">
        <ele>1011</ele>
        <time>2016-03-30T12:38:10.000Z</time>
      </trkpt>
      <trkpt lat="45.35388" lon="5.82308">
        <ele>1013</ele>
        <time>2016-03-30T12:38:11.000Z</time>
      </trkpt>
      <trkpt lat="45.35398" lon="5.82324">
        <ele>1016</ele>
        <time>2016-03-30T12:38:12.000Z</time>
      </trkpt>
      <trkpt lat="45.35407" lon="5.82342">
        <ele>1016</ele>
        <time>2016-03-30T12:38:13.000Z</time>
      </trkpt>
      <trkpt lat="45.35418" lon="5.82358">
        <ele>1017</ele>
        <time>2016-03-30T12:38:14.000Z</time>
      </trkpt>
      <trkpt lat="45.35432" lon="5.82372">
        <ele>1019</ele>
        <time>2016-03-30T12:38:15.000Z</time>
      </trkpt>
      <trkpt lat="45.35444" lon="5.82387">
        <ele>1019</ele>
        <time>2016-03-30T12:38:16.000Z</time>
      </trkpt>
      <trkpt lat="45.35456" lon="5.82401">
        <ele>1020</ele>
        <time>2016-03-30T12:38:17.000Z</time>
      </trkpt>
      <trkpt lat="45.35469" lon="5.82414">
        <ele>1021</ele>
        <time>2016-03-30T12:38:18.000Z</time>
      </trkpt>
      <trkpt lat="45.35481" lon="5.8243">
        <ele>1021</ele>
        <time>2016-03-30T12:38:19.000Z</time>
      </trkpt>
      <trkpt lat="45.35494" lon="5.82445">
        <ele>1023</ele>
        <time>2016-03-30T12:38:20.000Z</time>
      </trkpt>
      <trkpt lat="45.35506" lon="5.8246">
        <ele>1025</ele>
        <time>2016-03-30T12:38:21.000Z</time>
      </trkpt>
      <trkpt lat="45.35519" lon="5.82473">
        <ele>1026</ele>
        <time>2016-03-30T12:38:22.000Z</time>
      </trkpt>
      <trkpt lat="45.35532" lon="5.82486">
        <ele>1026</ele>
        <time>2016-03-30T12:38:23.000Z</time>
      </trkpt>
      <trkpt lat="45.35545" lon="5.82497">
        <ele>1026</ele>
        <time>2016-03-30T12:38:24.000Z</time>
      </trkpt>
      <trkpt lat="45.35562" lon="5.82506">
        <ele>1026</ele>
        <time>2016-03-30T12:38:25.000Z</time>
      </trkpt>
      <trkpt lat="45.35577" lon="5.82514">
        <ele>1029</ele>
        <time>2016-03-30T12:38:26.000Z</time>
      </trkpt>
      <trkpt lat="45.35592" lon="5.82525">
        <ele>1030</ele>
        <time>2016-03-30T12:38:27.000Z</time>
      </trkpt>
      <trkpt lat="45.35605" lon="5.82535">
        <ele>1031</ele>
        <time>2016-03-30T12:38:28.000Z</time>
      </trkpt>
      <trkpt lat="45.35616" lon="5.82544">
        <ele>1033</ele>
        <time>2016-03-30T12:38:29.000Z</time>
      </trkpt>
      <trkpt lat="45.35627" lon="5.82551">
        <ele>1034</ele>
        <time>2016-03-30T12:38:30.000Z</time>
      </trkpt>
      <trkpt lat="45.35639" lon="5.82557">
        <ele>1035</ele>
        <time>2016-03-30T12:38:31.000Z</time>
      </trkpt>
      <trkpt lat="45.35651" lon="5.82556">
        <ele>1039</ele>
        <time>2016-03-30T12:38:32.000Z</time>
      </trkpt>
      <trkpt lat="45.35663" lon="5.82557">
        <ele>1042</ele>
        <time>2016-03-30T12:38:33.000Z</time>
      </trkpt>
      <trkpt lat="45.35673" lon="5.82557">
        <ele>1044</ele>
        <time>2016-03-30T12:38:34.000Z</time>
      </trkpt>
      <trkpt lat="45.35687" lon="5.82557">
        <ele>1047</ele>
        <time>2016-03-30T12:38:35.000Z</time>
      </trkpt>
      <trkpt lat="45.35697" lon="5.82557">
        <ele>1046</ele>
        <time>2016-03-30T12:38:36.000Z</time>
      </trkpt>
      <trkpt lat="45.35706" lon="5.82564">
        <ele>1047</ele>
        <time>2016-03-30T12:38:38.000Z</time>
      </trkpt>
      <trkpt lat="45.35709" lon="5.82601">
        <ele>1049</ele>
        <time>2016-03-30T12:38:40.000Z</time>
      </trkpt>
      <trkpt lat="45.35712" lon="5.82616">
        <ele>1050</ele>
        <time>2016-03-30T12:38:41.000Z</time>
      </trkpt>
      <trkpt lat="45.35715" lon="5.8263">
        <ele>1051</ele>
        <time>2016-03-30T12:38:42.000Z</time>
      </trkpt>
      <trkpt lat="45.35719" lon="5.82644">
        <ele>1052</ele>
        <time>2016-03-30T12:38:43.000Z</time>
      </trkpt>
      <trkpt lat="45.35731" lon="5.82666">
        <ele>1055</ele>
        <time>2016-03-30T12:38:44.000Z</time>
      </trkpt>
      <trkpt lat="45.35741" lon="5.82674">
        <ele>1056</ele>
        <time>2016-03-30T12:38:45.000Z</time>
      </trkpt>
      <trkpt lat="45.35751" lon="5.82692">
        <ele>1056</ele>
        <time>2016-03-30T12:38:46.000Z</time>
      </trkpt>
      <trkpt lat="45.35756" lon="5.82714">
        <ele>1057</ele>
        <time>2016-03-30T12:38:47.000Z</time>
      </trkpt>
      <trkpt lat="45.35765" lon="5.82734">
        <ele>1058</ele>
        <time>2016-03-30T12:38:48.000Z</time>
      </trkpt>
      <trkpt lat="45.35769" lon="5.82757">
        <ele>1058</ele>
        <time>2016-03-30T12:38:49.000Z</time>
      </trkpt>
      <trkpt lat="45.35775" lon="5.82774">
        <ele>1058</ele>
        <time>2016-03-30T12:38:50.000Z</time>
      </trkpt>
      <trkpt lat="45.35779" lon="5.82796">
        <ele>1058</ele>
        <time>2016-03-30T12:38:51.000Z</time>
      </trkpt>
      <trkpt lat="45.3578" lon="5.82818">
        <ele>1058</ele>
        <time>2016-03-30T12:38:52.000Z</time>
      </trkpt>
      <trkpt lat="45.35782" lon="5.82839">
        <ele>1059</ele>
        <time>2016-03-30T12:38:53.000Z</time>
      </trkpt>
      <trkpt lat="45.35788" lon="5.82857">
        <ele>1059</ele>
        <time>2016-03-30T12:38:54.000Z</time>
      </trkpt>
      <trkpt lat="45.35791" lon="5.82876">
        <ele>1060</ele>
        <time>2016-03-30T12:38:55.000Z</time>
      </trkpt>
      <trkpt lat="45.35794" lon="5.82895">
        <ele>1061</ele>
        <time>2016-03-30T12:38:56.000Z</time>
      </trkpt>
      <trkpt lat="45.35799" lon="5.82912">
        <ele>1061</ele>
        <time>2016-03-30T12:38:57.000Z</time>
      </trkpt>
      <trkpt lat="45.35807" lon="5.8293">
        <ele>1064</ele>
        <time>2016-03-30T12:38:58.000Z</time>
      </trkpt>
      <trkpt lat="45.35811" lon="5.82945">
        <ele>1065</ele>
        <time>2016-03-30T12:38:59.000Z</time>
      </trkpt>
      <trkpt lat="45.35819" lon="5.82963">
        <ele>1066</ele>
        <time>2016-03-30T12:39:00.000Z</time>
      </trkpt>
      <trkpt lat="45.35827" lon="5.82974">
        <ele>1067</ele>
        <time>2016-03-30T12:39:01.000Z</time>
      </trkpt>
      <trkpt lat="45.35836" lon="5.82986">
        <ele>1068</ele>
        <time>2016-03-30T12:39:02.000Z</time>
      </trkpt>
      <trkpt lat="45.35845" lon="5.82985">
        <ele>1069</ele>
        <time>2016-03-30T12:39:03.000Z</time>
      </trkpt>
      <trkpt lat="45.35857" lon="5.82992">
        <ele>1072</ele>
        <time>2016-03-30T12:39:04.000Z</time>
      </trkpt>
      <trkpt lat="45.3588" lon="5.82998">
        <ele>1078</ele>
        <time>2016-03-30T12:39:06.000Z</time>
      </trkpt>
      <trkpt lat="45.35891" lon="5.82999">
        <ele>1080</ele>
        <time>2016-03-30T12:39:07.000Z</time>
      </trkpt>
      <trkpt lat="45.35907" lon="5.8299">
        <ele>1084</ele>
        <time>2016-03-30T12:39:08.000Z</time>
      </trkpt>
      <trkpt lat="45.3592" lon="5.82981">
        <ele>1087</ele>
        <time>2016-03-30T12:39:09.000Z</time>
      </trkpt>
      <trkpt lat="45.35936" lon="5.82971">
        <ele>1090</ele>
        <time>2016-03-30T12:39:10.000Z</time>
      </trkpt>
      <trkpt lat="45.35946" lon="5.82969">
        <ele>1094</ele>
        <time>2016-03-30T12:39:11.000Z</time>
      </trkpt>
      <trkpt lat="45.3596" lon="5.82969">
        <ele>1094</ele>
        <time>2016-03-30T12:39:12.000Z</time>
      </trkpt>
      <trkpt lat="45.35977" lon="5.82967">
        <ele>1102</ele>
        <time>2016-03-30T12:39:14.000Z</time>
      </trkpt>
      <trkpt lat="45.35991" lon="5.82966">
        <ele>1104</ele>
        <time>2016-03-30T12:39:15.000Z</time>
      </trkpt>
      <trkpt lat="45.36002" lon="5.8297">
        <ele>1107</ele>
        <time>2016-03-30T12:39:16.000Z</time>
      </trkpt>
      <trkpt lat="45.36013" lon="5.82972">
        <ele>1109</ele>
        <time>2016-03-30T12:39:17.000Z</time>
      </trkpt>
      <trkpt lat="45.36027" lon="5.82979">
        <ele>1109</ele>
        <time>2016-03-30T12:39:18.000Z</time>
      </trkpt>
      <trkpt lat="45.36039" lon="5.82984">
        <ele>1109</ele>
        <time>2016-03-30T12:39:19.000Z</time>
      </trkpt>
      <trkpt lat="45.36055" lon="5.82986">
        <ele>1109</ele>
        <time>2016-03-30T12:39:20.000Z</time>
      </trkpt>
      <trkpt lat="45.36076" lon="5.82989">
        <ele>1110</ele>
        <time>2016-03-30T12:39:21.000Z</time>
      </trkpt>
      <trkpt lat="45.36094" lon="5.82989">
        <ele>1112</ele>
        <time>2016-03-30T12:39:22.000Z</time>
      </trkpt>
      <trkpt lat="45.3611" lon="5.82985">
        <ele>1113</ele>
        <time>2016-03-30T12:39:23.000Z</time>
      </trkpt>
      <trkpt lat="45.36131" lon="5.82984">
        <ele>1115</ele>
        <time>2016-03-30T12:39:24.000Z</time>
      </trkpt>
      <trkpt lat="45.36149" lon="5.82986">
        <ele>1119</ele>
        <time>2016-03-30T12:39:25.000Z</time>
      </trkpt>
      <trkpt lat="45.3616" lon="5.82988">
        <ele>1124</ele>
        <time>2016-03-30T12:39:26.000Z</time>
      </trkpt>
      <trkpt lat="45.36171" lon="5.82993">
        <ele>1126</ele>
        <time>2016-03-30T12:39:27.000Z</time>
      </trkpt>
      <trkpt lat="45.36184" lon="5.82998">
        <ele>1129</ele>
        <time>2016-03-30T12:39:28.000Z</time>
      </trkpt>
      <trkpt lat="45.36197" lon="5.83003">
        <ele>1129</ele>
        <time>2016-03-30T12:39:29.000Z</time>
      </trkpt>
      <trkpt lat="45.36208" lon="5.8301">
        <ele>1130</ele>
        <time>2016-03-30T12:39:30.000Z</time>
      </trkpt>
      <trkpt lat="45.36217" lon="5.83023">
        <ele>1133</ele>
        <time>2016-03-30T12:39:31.000Z</time>
      </trkpt>
      <trkpt lat="45.36229" lon="5.83034">
        <ele>1134</ele>
        <time>2016-03-30T12:39:32.000Z</time>
      </trkpt>
      <trkpt lat="45.36243" lon="5.83048">
        <ele>1135</ele>
        <time>2016-03-30T12:39:33.000Z</time>
      </trkpt>
      <trkpt lat="45.36258" lon="5.83066">
        <ele>1136</ele>
        <time>2016-03-30T12:39:34.000Z</time>
      </trkpt>
      <trkpt lat="45.36269" lon="5.83085">
        <ele>1138</ele>
        <time>2016-03-30T12:39:35.000Z</time>
      </trkpt>
      <trkpt lat="45.36282" lon="5.83101">
        <ele>1139</ele>
        <time>2016-03-30T12:39:36.000Z</time>
      </trkpt>
      <trkpt lat="45.36295" lon="5.83121">
        <ele>1142</ele>
        <time>2016-03-30T12:39:37.000Z</time>
      </trkpt>
      <trkpt lat="45.36307" lon="5.83132">
        <ele>1143</ele>
        <time>2016-03-30T12:39:38.000Z</time>
      </trkpt>
      <trkpt lat="45.36322" lon="5.83145">
        <ele>1144</ele>
        <time>2016-03-30T12:39:39.000Z</time>
      </trkpt>
      <trkpt lat="45.36335" lon="5.83158">
        <ele>1146</ele>
        <time>2016-03-30T12:39:40.000Z</time>
      </trkpt>
      <trkpt lat="45.36345" lon="5.83168">
        <ele>1149</ele>
        <time>2016-03-30T12:39:41.000Z</time>
      </trkpt>
      <trkpt lat="45.36355" lon="5.83181">
        <ele>1150</ele>
        <time>2016-03-30T12:39:42.000Z</time>
      </trkpt>
      <trkpt lat="45.36363" lon="5.83199">
        <ele>1151</ele>
        <time>2016-03-30T12:39:43.000Z</time>
      </trkpt>
      <trkpt lat="45.3637" lon="5.83222">
        <ele>1152</ele>
        <time>2016-03-30T12:39:44.000Z</time>
      </trkpt>
      <trkpt lat="45.36374" lon="5.83244">
        <ele>1154</ele>
        <time>2016-03-30T12:39:45.000Z</time>
      </trkpt>
      <trkpt lat="45.36382" lon="5.83264">
        <ele>1154</ele>
        <time>2016-03-30T12:39:46.000Z</time>
      </trkpt>
      <trkpt lat="45.36392" lon="5.83279">
        <ele>1156</ele>
        <time>2016-03-30T12:39:47.000Z</time>
      </trkpt>
      <trkpt lat="45.36402" lon="5.83297">
        <ele>1157</ele>
        <time>2016-03-30T12:39:48.000Z</time>
      </trkpt>
      <trkpt lat="45.36413" lon="5.83318">
        <ele>1157</ele>
        <time>2016-03-30T12:39:49.000Z</time>
      </trkpt>
      <trkpt lat="45.36427" lon="5.83326">
        <ele>1159</ele>
        <time>2016-03-30T12:39:50.000Z</time>
      </trkpt>
      <trkpt lat="45.36441" lon="5.83338">
        <ele>1161</ele>
        <time>2016-03-30T12:39:51.000Z</time>
      </trkpt>
      <trkpt lat="45.36452" lon="5.83353">
        <ele>1162</ele>
        <time>2016-03-30T12:39:52.000Z</time>
      </trkpt>
      <trkpt lat="45.36465" lon="5.83363">
        <ele>1163</ele>
        <time>2016-03-30T12:39:53.000Z</time>
      </trkpt>
      <trkpt lat="45.36478" lon="5.83372">
        <ele>1166</ele>
        <time>2016-03-30T12:39:54.000Z</time>
      </trkpt>
      <trkpt lat="45.36491" lon="5.83381">
        <ele>1167</ele>
        <time>2016-03-30T12:39:55.000Z</time>
      </trkpt>
      <trkpt lat="45.36503" lon="5.8339">
        <ele>1170</ele>
        <time>2016-03-30T12:39:56.000Z</time>
      </trkpt>
      <trkpt lat="45.36515" lon="5.83397">
        <ele>1170</ele>
        <time>2016-03-30T12:39:57.000Z</time>
      </trkpt>
      <trkpt lat="45.36525" lon="5.83405">
        <ele>1172</ele>
        <time>2016-03-30T12:39:58.000Z</time>
      </trkpt>
      <trkpt lat="45.36533" lon="5.8341">
        <ele>1173</ele>
        <time>2016-03-30T12:39:59.000Z</time>
      </trkpt>
      <trkpt lat="45.36549" lon="5.83418">
        <ele>1178</ele>
        <time>2016-03-30T12:40:01.000Z</time>
      </trkpt>
      <trkpt lat="45.3656" lon="5.8343">
        <ele>1179</ele>
        <time>2016-03-30T12:40:03.000Z</time>
      </trkpt>
      <trkpt lat="45.36569" lon="5.83439">
        <ele>1182</ele>
        <time>2016-03-30T12:40:06.000Z</time>
      </trkpt>
      <trkpt lat="45.36578" lon="5.83441">
        <ele>1184</ele>
        <time>2016-03-30T12:41:52.000Z</time>
      </trkpt>
      <trkpt lat="45.36589" lon="5.83446">
        <ele>1183</ele>
        <time>2016-03-30T12:41:55.000Z</time>
      </trkpt>
      <trkpt lat="45.36601" lon="5.83448">
        <ele>1184</ele>
        <time>2016-03-30T12:41:56.000Z</time>
      </trkpt>
      <trkpt lat="45.36612" lon="5.8345">
        <ele>1184</ele>
        <time>2016-03-30T12:41:57.000Z</time>
      </trkpt>
      <trkpt lat="45.36624" lon="5.83453">
        <ele>1183</ele>
        <time>2016-03-30T12:41:58.000Z</time>
      </trkpt>
      <trkpt lat="45.36636" lon="5.83455">
        <ele>1182</ele>
        <time>2016-03-30T12:41:59.000Z</time>
      </trkpt>
      <trkpt lat="45.36649" lon="5.83458">
        <ele>1182</ele>
        <time>2016-03-30T12:42:00.000Z</time>
      </trkpt>
      <trkpt lat="45.36665" lon="5.83459">
        <ele>1183</ele>
        <time>2016-03-30T12:42:01.000Z</time>
      </trkpt>
      <trkpt lat="45.36677" lon="5.83456">
        <ele>1181</ele>
        <time>2016-03-30T12:42:02.000Z</time>
      </trkpt>
      <trkpt lat="45.36694" lon="5.83454">
        <ele>1180</ele>
        <time>2016-03-30T12:42:03.000Z</time>
      </trkpt>
      <trkpt lat="45.36711" lon="5.83457">
        <ele>1180</ele>
        <time>2016-03-30T12:42:04.000Z</time>
      </trkpt>
      <trkpt lat="45.36725" lon="5.8347">
        <ele>1177</ele>
        <time>2016-03-30T12:42:05.000Z</time>
      </trkpt>
      <trkpt lat="45.36742" lon="5.83482">
        <ele>1177</ele>
        <time>2016-03-30T12:42:06.000Z</time>
      </trkpt>
      <trkpt lat="45.36755" lon="5.83497">
        <ele>1177</ele>
        <time>2016-03-30T12:42:07.000Z</time>
      </trkpt>
      <trkpt lat="45.36769" lon="5.83508">
        <ele>1175</ele>
        <time>2016-03-30T12:42:08.000Z</time>
      </trkpt>
      <trkpt lat="45.3678" lon="5.83522">
        <ele>1176</ele>
        <time>2016-03-30T12:42:09.000Z</time>
      </trkpt>
      <trkpt lat="45.3679" lon="5.83536">
        <ele>1177</ele>
        <time>2016-03-30T12:42:10.000Z</time>
      </trkpt>
      <trkpt lat="45.36792" lon="5.8355">
        <ele>1172</ele>
        <time>2016-03-30T12:42:11.000Z</time>
      </trkpt>
      <trkpt lat="45.36799" lon="5.83566">
        <ele>1174</ele>
        <time>2016-03-30T12:42:12.000Z</time>
      </trkpt>
      <trkpt lat="45.36802" lon="5.83582">
        <ele>1172</ele>
        <time>2016-03-30T12:42:13.000Z</time>
      </trkpt>
      <trkpt lat="45.36807" lon="5.83597">
        <ele>1172</ele>
        <time>2016-03-30T12:42:14.000Z</time>
      </trkpt>
      <trkpt lat="45.36813" lon="5.83614">
        <ele>1172</ele>
        <time>2016-03-30T12:42:15.000Z</time>
      </trkpt>
      <trkpt lat="45.36823" lon="5.83624">
        <ele>1170</ele>
        <time>2016-03-30T12:42:16.000Z</time>
      </trkpt>
      <trkpt lat="45.36834" lon="5.83634">
        <ele>1169</ele>
        <time>2016-03-30T12:42:17.000Z</time>
      </trkpt>
      <trkpt lat="45.36848" lon="5.83642">
        <ele>1169</ele>
        <time>2016-03-30T12:42:18.000Z</time>
      </trkpt>
      <trkpt lat="45.36866" lon="5.83653">
        <ele>1169</ele>
        <time>2016-03-30T12:42:19.000Z</time>
      </trkpt>
      <trkpt lat="45.36883" lon="5.83662">
        <ele>1168</ele>
        <time>2016-03-30T12:42:20.000Z</time>
      </trkpt>
      <trkpt lat="45.36898" lon="5.83659">
        <ele>1165</ele>
        <time>2016-03-30T12:42:21.000Z</time>
      </trkpt>
      <trkpt lat="45.36916" lon="5.83669">
        <ele>1162</ele>
        <time>2016-03-30T12:42:22.000Z</time>
      </trkpt>
      <trkpt lat="45.36934" lon="5.83677">
        <ele>1160</ele>
        <time>2016-03-30T12:42:23.000Z</time>
      </trkpt>
      <trkpt lat="45.36951" lon="5.83684">
        <ele>1160</ele>
        <time>2016-03-30T12:42:24.000Z</time>
      </trkpt>
      <trkpt lat="45.36967" lon="5.83693">
        <ele>1158</ele>
        <time>2016-03-30T12:42:25.000Z</time>
      </trkpt>
      <trkpt lat="45.36981" lon="5.83705">
        <ele>1157</ele>
        <time>2016-03-30T12:42:26.000Z</time>
      </trkpt>
      <trkpt lat="45.36997" lon="5.83726">
        <ele>1152</ele>
        <time>2016-03-30T12:42:27.000Z</time>
      </trkpt>
      <trkpt lat="45.37009" lon="5.8374">
        <ele>1152</ele>
        <time>2016-03-30T12:42:28.000Z</time>
      </trkpt>
      <trkpt lat="45.3702" lon="5.83756">
        <ele>1152</ele>
        <time>2016-03-30T12:42:29.000Z</time>
      </trkpt>
      <trkpt lat="45.37031" lon="5.83771">
        <ele>1152</ele>
        <time>2016-03-30T12:42:30.000Z</time>
      </trkpt>
      <trkpt lat="45.37039" lon="5.83787">
        <ele>1151</ele>
        <time>2016-03-30T12:42:31.000Z</time>
      </trkpt>
      <trkpt lat="45.37046" lon="5.83801">
        <ele>1150</ele>
        <time>2016-03-30T12:42:32.000Z</time>
      </trkpt>
      <trkpt lat="45.37053" lon="5.83817">
        <ele>1149</ele>
        <time>2016-03-30T12:42:33.000Z</time>
      </trkpt>
      <trkpt lat="45.3706" lon="5.83831">
        <ele>1149</ele>
        <time>2016-03-30T12:42:34.000Z</time>
      </trkpt>
      <trkpt lat="45.37066" lon="5.83843">
        <ele>1148</ele>
        <time>2016-03-30T12:42:35.000Z</time>
      </trkpt>
      <trkpt lat="45.37072" lon="5.83853">
        <ele>1148</ele>
        <time>2016-03-30T12:42:36.000Z</time>
      </trkpt>
      <trkpt lat="45.3709" lon="5.83862">
        <ele>1139</ele>
        <time>2016-03-30T12:42:38.000Z</time>
      </trkpt>
      <trkpt lat="45.37105" lon="5.83855">
        <ele>1136</ele>
        <time>2016-03-30T12:42:40.000Z</time>
      </trkpt>
      <trkpt lat="45.37114" lon="5.83846">
        <ele>1135</ele>
        <time>2016-03-30T12:42:41.000Z</time>
      </trkpt>
      <trkpt lat="45.37132" lon="5.83835">
        <ele>1133</ele>
        <time>2016-03-30T12:42:43.000Z</time>
      </trkpt>
      <trkpt lat="45.37147" lon="5.83831">
        <ele>1130</ele>
        <time>2016-03-30T12:42:45.000Z</time>
      </trkpt>
      <trkpt lat="45.37145" lon="5.83845">
        <ele>1125</ele>
        <time>2016-03-30T12:42:48.000Z</time>
      </trkpt>
      <trkpt lat="45.3714" lon="5.83864">
        <ele>1124</ele>
        <time>2016-03-30T12:42:50.000Z</time>
      </trkpt>
      <trkpt lat="45.37127" lon="5.8388">
        <ele>1122</ele>
        <time>2016-03-30T12:42:51.000Z</time>
      </trkpt>
      <trkpt lat="45.37107" lon="5.83882">
        <ele>1123</ele>
        <time>2016-03-30T12:42:52.000Z</time>
      </trkpt>
      <trkpt lat="45.37094" lon="5.83892">
        <ele>1125</ele>
        <time>2016-03-30T12:42:53.000Z</time>
      </trkpt>
      <trkpt lat="45.3708" lon="5.8389">
        <ele>1123</ele>
        <time>2016-03-30T12:42:54.000Z</time>
      </trkpt>
      <trkpt lat="45.37066" lon="5.83888">
        <ele>1124</ele>
        <time>2016-03-30T12:42:55.000Z</time>
      </trkpt>
      <trkpt lat="45.37056" lon="5.83887">
        <ele>1122</ele>
        <time>2016-03-30T12:42:56.000Z</time>
      </trkpt>
      <trkpt lat="45.37048" lon="5.83892">
        <ele>1117</ele>
        <time>2016-03-30T12:42:57.000Z</time>
      </trkpt>
      <trkpt lat="45.37037" lon="5.83895">
        <ele>1116</ele>
        <time>2016-03-30T12:42:58.000Z</time>
      </trkpt>
      <trkpt lat="45.37027" lon="5.83902">
        <ele>1116</ele>
        <time>2016-03-30T12:42:59.000Z</time>
      </trkpt>
      <trkpt lat="45.37017" lon="5.8391">
        <ele>1115</ele>
        <time>2016-03-30T12:43:00.000Z</time>
      </trkpt>
      <trkpt lat="45.37004" lon="5.83929">
        <ele>1110</ele>
        <time>2016-03-30T12:43:02.000Z</time>
      </trkpt>
      <trkpt lat="45.36998" lon="5.83943">
        <ele>1108</ele>
        <time>2016-03-30T12:43:03.000Z</time>
      </trkpt>
      <trkpt lat="45.36991" lon="5.83955">
        <ele>1110</ele>
        <time>2016-03-30T12:43:04.000Z</time>
      </trkpt>
      <trkpt lat="45.36996" lon="5.83979">
        <ele>1108</ele>
        <time>2016-03-30T12:43:06.000Z</time>
      </trkpt>
      <trkpt lat="45.37009" lon="5.83984">
        <ele>1110</ele>
        <time>2016-03-30T12:43:07.000Z</time>
      </trkpt>
      <trkpt lat="45.37015" lon="5.84">
        <ele>1109</ele>
        <time>2016-03-30T12:43:08.000Z</time>
      </trkpt>
      <trkpt lat="45.37016" lon="5.84016">
        <ele>1107</ele>
        <time>2016-03-30T12:43:09.000Z</time>
      </trkpt>
      <trkpt lat="45.37018" lon="5.84035">
        <ele>1107</ele>
        <time>2016-03-30T12:43:10.000Z</time>
      </trkpt>
      <trkpt lat="45.37021" lon="5.8405">
        <ele>1107</ele>
        <time>2016-03-30T12:43:11.000Z</time>
      </trkpt>
      <trkpt lat="45.37026" lon="5.84065">
        <ele>1107</ele>
        <time>2016-03-30T12:43:12.000Z</time>
      </trkpt>
      <trkpt lat="45.3703" lon="5.8408">
        <ele>1108</ele>
        <time>2016-03-30T12:43:13.000Z</time>
      </trkpt>
      <trkpt lat="45.37038" lon="5.84093">
        <ele>1107</ele>
        <time>2016-03-30T12:43:14.000Z</time>
      </trkpt>
      <trkpt lat="45.37046" lon="5.84108">
        <ele>1106</ele>
        <time>2016-03-30T12:43:15.000Z</time>
      </trkpt>
      <trkpt lat="45.37056" lon="5.84123">
        <ele>1105</ele>
        <time>2016-03-30T12:43:16.000Z</time>
      </trkpt>
      <trkpt lat="45.37067" lon="5.8414">
        <ele>1104</ele>
        <time>2016-03-30T12:43:17.000Z</time>
      </trkpt>
      <trkpt lat="45.3708" lon="5.84153">
        <ele>1103</ele>
        <time>2016-03-30T12:43:18.000Z</time>
      </trkpt>
      <trkpt lat="45.37097" lon="5.84161">
        <ele>1101</ele>
        <time>2016-03-30T12:43:19.000Z</time>
      </trkpt>
      <trkpt lat="45.37112" lon="5.84171">
        <ele>1100</ele>
        <time>2016-03-30T12:43:20.000Z</time>
      </trkpt>
      <trkpt lat="45.37126" lon="5.84181">
        <ele>1099</ele>
        <time>2016-03-30T12:43:21.000Z</time>
      </trkpt>
      <trkpt lat="45.3714" lon="5.84191">
        <ele>1100</ele>
        <time>2016-03-30T12:43:22.000Z</time>
      </trkpt>
      <trkpt lat="45.37153" lon="5.84203">
        <ele>1099</ele>
        <time>2016-03-30T12:43:23.000Z</time>
      </trkpt>
      <trkpt lat="45.37167" lon="5.84208">
        <ele>1098</ele>
        <time>2016-03-30T12:43:24.000Z</time>
      </trkpt>
      <trkpt lat="45.37179" lon="5.8423">
        <ele>1086</ele>
        <time>2016-03-30T12:43:26.000Z</time>
      </trkpt>
      <trkpt lat="45.37189" lon="5.84241">
        <ele>1083</ele>
        <time>2016-03-30T12:43:27.000Z</time>
      </trkpt>
      <trkpt lat="45.372" lon="5.84251">
        <ele>1081</ele>
        <time>2016-03-30T12:43:28.000Z</time>
      </trkpt>
      <trkpt lat="45.37212" lon="5.8426">
        <ele>1079</ele>
        <time>2016-03-30T12:43:29.000Z</time>
      </trkpt>
      <trkpt lat="45.37222" lon="5.84271">
        <ele>1079</ele>
        <time>2016-03-30T12:43:30.000Z</time>
      </trkpt>
      <trkpt lat="45.37235" lon="5.84288">
        <ele>1079</ele>
        <time>2016-03-30T12:43:31.000Z</time>
      </trkpt>
      <trkpt lat="45.3725" lon="5.843">
        <ele>1078</ele>
        <time>2016-03-30T12:43:32.000Z</time>
      </trkpt>
      <trkpt lat="45.37267" lon="5.84311">
        <ele>1077</ele>
        <time>2016-03-30T12:43:33.000Z</time>
      </trkpt>
      <trkpt lat="45.37282" lon="5.84325">
        <ele>1077</ele>
        <time>2016-03-30T12:43:34.000Z</time>
      </trkpt>
      <trkpt lat="45.373" lon="5.84332">
        <ele>1077</ele>
        <time>2016-03-30T12:43:35.000Z</time>
      </trkpt>
      <trkpt lat="45.37315" lon="5.84342">
        <ele>1076</ele>
        <time>2016-03-30T12:43:36.000Z</time>
      </trkpt>
      <trkpt lat="45.37328" lon="5.84357">
        <ele>1076</ele>
        <time>2016-03-30T12:43:37.000Z</time>
      </trkpt>
      <trkpt lat="45.37343" lon="5.84367">
        <ele>1077</ele>
        <time>2016-03-30T12:43:38.000Z</time>
      </trkpt>
      <trkpt lat="45.37359" lon="5.84377">
        <ele>1077</ele>
        <time>2016-03-30T12:43:39.000Z</time>
      </trkpt>
      <trkpt lat="45.37378" lon="5.84384">
        <ele>1073</ele>
        <time>2016-03-30T12:43:40.000Z</time>
      </trkpt>
      <trkpt lat="45.37388" lon="5.84398">
        <ele>1070</ele>
        <time>2016-03-30T12:43:41.000Z</time>
      </trkpt>
      <trkpt lat="45.37404" lon="5.84407">
        <ele>1068</ele>
        <time>2016-03-30T12:43:42.000Z</time>
      </trkpt>
      <trkpt lat="45.37415" lon="5.84425">
        <ele>1069</ele>
        <time>2016-03-30T12:43:43.000Z</time>
      </trkpt>
      <trkpt lat="45.37429" lon="5.84439">
        <ele>1067</ele>
        <time>2016-03-30T12:43:44.000Z</time>
      </trkpt>
      <trkpt lat="45.37439" lon="5.84461">
        <ele>1067</ele>
        <time>2016-03-30T12:43:45.000Z</time>
      </trkpt>
      <trkpt lat="45.37444" lon="5.84486">
        <ele>1066</ele>
        <time>2016-03-30T12:43:46.000Z</time>
      </trkpt>
      <trkpt lat="45.37455" lon="5.84504">
        <ele>1065</ele>
        <time>2016-03-30T12:43:47.000Z</time>
      </trkpt>
      <trkpt lat="45.37468" lon="5.8452">
        <ele>1062</ele>
        <time>2016-03-30T12:43:48.000Z</time>
      </trkpt>
      <trkpt lat="45.37478" lon="5.84538">
        <ele>1061</ele>
        <time>2016-03-30T12:43:49.000Z</time>
      </trkpt>
      <trkpt lat="45.37492" lon="5.84553">
        <ele>1059</ele>
        <time>2016-03-30T12:43:50.000Z</time>
      </trkpt>
      <trkpt lat="45.37505" lon="5.84568">
        <ele>1058</ele>
        <time>2016-03-30T12:43:51.000Z</time>
      </trkpt>
      <trkpt lat="45.37517" lon="5.84585">
        <ele>1058</ele>
        <time>2016-03-30T12:43:52.000Z</time>
      </trkpt>
      <trkpt lat="45.37528" lon="5.84602">
        <ele>1058</ele>
        <time>2016-03-30T12:43:53.000Z</time>
      </trkpt>
      <trkpt lat="45.37539" lon="5.84619">
        <ele>1058</ele>
        <time>2016-03-30T12:43:54.000Z</time>
      </trkpt>
      <trkpt lat="45.37552" lon="5.84634">
        <ele>1058</ele>
        <time>2016-03-30T12:43:55.000Z</time>
      </trkpt>
      <trkpt lat="45.37563" lon="5.84645">
        <ele>1055</ele>
        <time>2016-03-30T12:43:56.000Z</time>
      </trkpt>
      <trkpt lat="45.37576" lon="5.84657">
        <ele>1053</ele>
        <time>2016-03-30T12:43:57.000Z</time>
      </trkpt>
      <trkpt lat="45.3759" lon="5.84668">
        <ele>1051</ele>
        <time>2016-03-30T12:43:58.000Z</time>
      </trkpt>
      <trkpt lat="45.37603" lon="5.84681">
        <ele>1046</ele>
        <time>2016-03-30T12:43:59.000Z</time>
      </trkpt>
      <trkpt lat="45.37616" lon="5.84692">
        <ele>1045</ele>
        <time>2016-03-30T12:44:00.000Z</time>
      </trkpt>
      <trkpt lat="45.37631" lon="5.84703">
        <ele>1042</ele>
        <time>2016-03-30T12:44:01.000Z</time>
      </trkpt>
      <trkpt lat="45.37646" lon="5.84712">
        <ele>1041</ele>
        <time>2016-03-30T12:44:02.000Z</time>
      </trkpt>
      <trkpt lat="45.3766" lon="5.84723">
        <ele>1039</ele>
        <time>2016-03-30T12:44:03.000Z</time>
      </trkpt>
      <trkpt lat="45.37674" lon="5.84735">
        <ele>1037</ele>
        <time>2016-03-30T12:44:04.000Z</time>
      </trkpt>
      <trkpt lat="45.37689" lon="5.84747">
        <ele>1036</ele>
        <time>2016-03-30T12:44:05.000Z</time>
      </trkpt>
      <trkpt lat="45.37704" lon="5.84759">
        <ele>1033</ele>
        <time>2016-03-30T12:44:06.000Z</time>
      </trkpt>
      <trkpt lat="45.37718" lon="5.84771">
        <ele>1032</ele>
        <time>2016-03-30T12:44:07.000Z</time>
      </trkpt>
      <trkpt lat="45.37733" lon="5.84781">
        <ele>1030</ele>
        <time>2016-03-30T12:44:08.000Z</time>
      </trkpt>
      <trkpt lat="45.37747" lon="5.84792">
        <ele>1029</ele>
        <time>2016-03-30T12:44:09.000Z</time>
      </trkpt>
      <trkpt lat="45.37761" lon="5.84802">
        <ele>1027</ele>
        <time>2016-03-30T12:44:10.000Z</time>
      </trkpt>
      <trkpt lat="45.37775" lon="5.84811">
        <ele>1026</ele>
        <time>2016-03-30T12:44:11.000Z</time>
      </trkpt>
      <trkpt lat="45.37787" lon="5.8482">
        <ele>1024</ele>
        <time>2016-03-30T12:44:12.000Z</time>
      </trkpt>
      <trkpt lat="45.37799" lon="5.84829">
        <ele>1019</ele>
        <time>2016-03-30T12:44:13.000Z</time>
      </trkpt>
      <trkpt lat="45.37811" lon="5.84839">
        <ele>1017</ele>
        <time>2016-03-30T12:44:14.000Z</time>
      </trkpt>
      <trkpt lat="45.37822" lon="5.84851">
        <ele>1016</ele>
        <time>2016-03-30T12:44:15.000Z</time>
      </trkpt>
      <trkpt lat="45.37832" lon="5.84865">
        <ele>1015</ele>
        <time>2016-03-30T12:44:16.000Z</time>
      </trkpt>
      <trkpt lat="45.37843" lon="5.84879">
        <ele>1014</ele>
        <time>2016-03-30T12:44:17.000Z</time>
      </trkpt>
      <trkpt lat="45.37853" lon="5.84894">
        <ele>1013</ele>
        <time>2016-03-30T12:44:18.000Z</time>
      </trkpt>
      <trkpt lat="45.37865" lon="5.84909">
        <ele>1012</ele>
        <time>2016-03-30T12:44:19.000Z</time>
      </trkpt>
      <trkpt lat="45.37876" lon="5.84923">
        <ele>1013</ele>
        <time>2016-03-30T12:44:20.000Z</time>
      </trkpt>
      <trkpt lat="45.37888" lon="5.84934">
        <ele>1011</ele>
        <time>2016-03-30T12:44:21.000Z</time>
      </trkpt>
      <trkpt lat="45.37899" lon="5.84944">
        <ele>1009</ele>
        <time>2016-03-30T12:44:22.000Z</time>
      </trkpt>
      <trkpt lat="45.37909" lon="5.84952">
        <ele>1007</ele>
        <time>2016-03-30T12:44:23.000Z</time>
      </trkpt>
      <trkpt lat="45.37919" lon="5.84959">
        <ele>1006</ele>
        <time>2016-03-30T12:44:24.000Z</time>
      </trkpt>
      <trkpt lat="45.37931" lon="5.84966">
        <ele>1005</ele>
        <time>2016-03-30T12:44:25.000Z</time>
      </trkpt>
      <trkpt lat="45.37943" lon="5.84971">
        <ele>1004</ele>
        <time>2016-03-30T12:44:26.000Z</time>
      </trkpt>
      <trkpt lat="45.37956" lon="5.84973">
        <ele>1002</ele>
        <time>2016-03-30T12:44:27.000Z</time>
      </trkpt>
      <trkpt lat="45.3797" lon="5.84978">
        <ele>998</ele>
        <time>2016-03-30T12:44:29.000Z</time>
      </trkpt>
      <trkpt lat="45.37992" lon="5.84994">
        <ele>996</ele>
        <time>2016-03-30T12:44:31.000Z</time>
      </trkpt>
      <trkpt lat="45.38002" lon="5.85001">
        <ele>995</ele>
        <time>2016-03-30T12:44:32.000Z</time>
      </trkpt>
      <trkpt lat="45.38012" lon="5.85009">
        <ele>994</ele>
        <time>2016-03-30T12:44:33.000Z</time>
      </trkpt>
      <trkpt lat="45.38022" lon="5.85015">
        <ele>1091</ele>
        <time>2016-03-30T12:44:34.000Z</time>
      </trkpt>
      <trkpt lat="45.38033" lon="5.8502">
        <ele>1073</ele>
        <time>2016-03-30T12:44:35.000Z</time>
      </trkpt>
      <trkpt lat="45.38043" lon="5.85029">
        <ele>1057</ele>
        <time>2016-03-30T12:44:36.000Z</time>
      </trkpt>
      <trkpt lat="45.38051" lon="5.85039">
        <ele>1044</ele>
        <time>2016-03-30T12:44:37.000Z</time>
      </trkpt>
      <trkpt lat="45.38059" lon="5.8505">
        <ele>1036</ele>
        <time>2016-03-30T12:44:38.000Z</time>
      </trkpt>
      <trkpt lat="45.38067" lon="5.85065">
        <ele>1027</ele>
        <time>2016-03-30T12:44:39.000Z</time>
      </trkpt>
      <trkpt lat="45.38073" lon="5.85081">
        <ele>1022</ele>
        <time>2016-03-30T12:44:40.000Z</time>
      </trkpt>
      <trkpt lat="45.38077" lon="5.85096">
        <ele>1017</ele>
        <time>2016-03-30T12:44:41.000Z</time>
      </trkpt>
      <trkpt lat="45.38084" lon="5.8511">
        <ele>1015</ele>
        <time>2016-03-30T12:44:42.000Z</time>
      </trkpt>
      <trkpt lat="45.38088" lon="5.85124">
        <ele>1011</ele>
        <time>2016-03-30T12:44:43.000Z</time>
      </trkpt>
      <trkpt lat="45.38093" lon="5.85137">
        <ele>1009</ele>
        <time>2016-03-30T12:44:44.000Z</time>
      </trkpt>
      <trkpt lat="45.38096" lon="5.85151">
        <ele>1006</ele>
        <time>2016-03-30T12:44:45.000Z</time>
      </trkpt>
      <trkpt lat="45.38099" lon="5.85167">
        <ele>1005</ele>
        <time>2016-03-30T12:44:46.000Z</time>
      </trkpt>
      <trkpt lat="45.38102" lon="5.85182">
        <ele>1001</ele>
        <time>2016-03-30T12:44:47.000Z</time>
      </trkpt>
      <trkpt lat="45.38092" lon="5.85191">
        <ele>995</ele>
        <time>2016-03-30T12:44:48.000Z</time>
      </trkpt>
      <trkpt lat="45.38085" lon="5.85213">
        <ele>993</ele>
        <time>2016-03-30T12:44:50.000Z</time>
      </trkpt>
      <trkpt lat="45.3808" lon="5.85229">
        <ele>991</ele>
        <time>2016-03-30T12:44:51.000Z</time>
      </trkpt>
      <trkpt lat="45.3807" lon="5.85239">
        <ele>990</ele>
        <time>2016-03-30T12:44:52.000Z</time>
      </trkpt>
      <trkpt lat="45.38062" lon="5.85248">
        <ele>989</ele>
        <time>2016-03-30T12:44:53.000Z</time>
      </trkpt>
      <trkpt lat="45.38051" lon="5.85266">
        <ele>988</ele>
        <time>2016-03-30T12:44:54.000Z</time>
      </trkpt>
      <trkpt lat="45.38038" lon="5.85281">
        <ele>986</ele>
        <time>2016-03-30T12:44:55.000Z</time>
      </trkpt>
      <trkpt lat="45.38028" lon="5.85296">
        <ele>985</ele>
        <time>2016-03-30T12:44:56.000Z</time>
      </trkpt>
      <trkpt lat="45.3802" lon="5.85313">
        <ele>984</ele>
        <time>2016-03-30T12:44:57.000Z</time>
      </trkpt>
      <trkpt lat="45.38011" lon="5.8533">
        <ele>984</ele>
        <time>2016-03-30T12:44:58.000Z</time>
      </trkpt>
      <trkpt lat="45.38003" lon="5.85342">
        <ele>983</ele>
        <time>2016-03-30T12:44:59.000Z</time>
      </trkpt>
      <trkpt lat="45.37992" lon="5.85353">
        <ele>981</ele>
        <time>2016-03-30T12:45:00.000Z</time>
      </trkpt>
      <trkpt lat="45.37981" lon="5.85365">
        <ele>981</ele>
        <time>2016-03-30T12:45:01.000Z</time>
      </trkpt>
      <trkpt lat="45.37968" lon="5.85376">
        <ele>982</ele>
        <time>2016-03-30T12:45:02.000Z</time>
      </trkpt>
      <trkpt lat="45.37957" lon="5.85386">
        <ele>981</ele>
        <time>2016-03-30T12:45:03.000Z</time>
      </trkpt>
      <trkpt lat="45.37947" lon="5.85389">
        <ele>979</ele>
        <time>2016-03-30T12:45:04.000Z</time>
      </trkpt>
      <trkpt lat="45.37936" lon="5.85396">
        <ele>979</ele>
        <time>2016-03-30T12:45:05.000Z</time>
      </trkpt>
      <trkpt lat="45.37927" lon="5.85394">
        <ele>978</ele>
        <time>2016-03-30T12:45:06.000Z</time>
      </trkpt>
      <trkpt lat="45.37917" lon="5.85402">
        <ele>977</ele>
        <time>2016-03-30T12:45:07.000Z</time>
      </trkpt>
      <trkpt lat="45.37907" lon="5.85412">
        <ele>976</ele>
        <time>2016-03-30T12:45:08.000Z</time>
      </trkpt>
      <trkpt lat="45.37893" lon="5.85425">
        <ele>976</ele>
        <time>2016-03-30T12:45:09.000Z</time>
      </trkpt>
      <trkpt lat="45.3789" lon="5.85448">
        <ele>977</ele>
        <time>2016-03-30T12:45:10.000Z</time>
      </trkpt>
      <trkpt lat="45.37893" lon="5.85471">
        <ele>977</ele>
        <time>2016-03-30T12:45:11.000Z</time>
      </trkpt>
      <trkpt lat="45.37888" lon="5.85491">
        <ele>977</ele>
        <time>2016-03-30T12:45:12.000Z</time>
      </trkpt>
      <trkpt lat="45.37883" lon="5.85508">
        <ele>977</ele>
        <time>2016-03-30T12:45:13.000Z</time>
      </trkpt>
      <trkpt lat="45.37878" lon="5.85532">
        <ele>979</ele>
        <time>2016-03-30T12:45:14.000Z</time>
      </trkpt>
      <trkpt lat="45.37873" lon="5.85552">
        <ele>979</ele>
        <time>2016-03-30T12:45:15.000Z</time>
      </trkpt>
      <trkpt lat="45.37868" lon="5.85567">
        <ele>980</ele>
        <time>2016-03-30T12:45:16.000Z</time>
      </trkpt>
      <trkpt lat="45.37861" lon="5.85582">
        <ele>979</ele>
        <time>2016-03-30T12:45:17.000Z</time>
      </trkpt>
      <trkpt lat="45.37857" lon="5.856">
        <ele>976</ele>
        <time>2016-03-30T12:45:19.000Z</time>
      </trkpt>
      <trkpt lat="45.37862" lon="5.85616">
        <ele>976</ele>
        <time>2016-03-30T12:45:21.000Z</time>
      </trkpt>
      <trkpt lat="45.37885" lon="5.85625">
        <ele>972</ele>
        <time>2016-03-30T12:45:23.000Z</time>
      </trkpt>
      <trkpt lat="45.37895" lon="5.85601">
        <ele>969</ele>
        <time>2016-03-30T12:45:24.000Z</time>
      </trkpt>
      <trkpt lat="45.37917" lon="5.85596">
        <ele>968</ele>
        <time>2016-03-30T12:45:25.000Z</time>
      </trkpt>
      <trkpt lat="45.37928" lon="5.85593">
        <ele>967</ele>
        <time>2016-03-30T12:45:26.000Z</time>
      </trkpt>
      <trkpt lat="45.37943" lon="5.85584">
        <ele>967</ele>
        <time>2016-03-30T12:45:27.000Z</time>
      </trkpt>
      <trkpt lat="45.37953" lon="5.85579">
        <ele>963</ele>
        <time>2016-03-30T12:45:28.000Z</time>
      </trkpt>
      <trkpt lat="45.37975" lon="5.85585">
        <ele>964</ele>
        <time>2016-03-30T12:45:30.000Z</time>
      </trkpt>
      <trkpt lat="45.37987" lon="5.85581">
        <ele>966</ele>
        <time>2016-03-30T12:45:31.000Z</time>
      </trkpt>
      <trkpt lat="45.37997" lon="5.85581">
        <ele>969</ele>
        <time>2016-03-30T12:45:32.000Z</time>
      </trkpt>
      <trkpt lat="45.38009" lon="5.85584">
        <ele>970</ele>
        <time>2016-03-30T12:45:33.000Z</time>
      </trkpt>
      <trkpt lat="45.3802" lon="5.85589">
        <ele>968</ele>
        <time>2016-03-30T12:45:34.000Z</time>
      </trkpt>
      <trkpt lat="45.3803" lon="5.85592">
        <ele>968</ele>
        <time>2016-03-30T12:45:35.000Z</time>
      </trkpt>
      <trkpt lat="45.38042" lon="5.85588">
        <ele>967</ele>
        <time>2016-03-30T12:45:36.000Z</time>
      </trkpt>
      <trkpt lat="45.38051" lon="5.85589">
        <ele>965</ele>
        <time>2016-03-30T12:45:37.000Z</time>
      </trkpt>
      <trkpt lat="45.38062" lon="5.85584">
        <ele>964</ele>
        <time>2016-03-30T12:45:38.000Z</time>
      </trkpt>
      <trkpt lat="45.38073" lon="5.85578">
        <ele>964</ele>
        <time>2016-03-30T12:45:39.000Z</time>
      </trkpt>
      <trkpt lat="45.38081" lon="5.85549">
        <ele>968</ele>
        <time>2016-03-30T12:45:40.000Z</time>
      </trkpt>
      <trkpt lat="45.38092" lon="5.85534">
        <ele>970</ele>
        <time>2016-03-30T12:45:41.000Z</time>
      </trkpt>
      <trkpt lat="45.38105" lon="5.85521">
        <ele>971</ele>
        <time>2016-03-30T12:45:42.000Z</time>
      </trkpt>
      <trkpt lat="45.38119" lon="5.85522">
        <ele>972</ele>
        <time>2016-03-30T12:45:43.000Z</time>
      </trkpt>
      <trkpt lat="45.38131" lon="5.85518">
        <ele>973</ele>
        <time>2016-03-30T12:45:44.000Z</time>
      </trkpt>
      <trkpt lat="45.38146" lon="5.8552">
        <ele>974</ele>
        <time>2016-03-30T12:45:45.000Z</time>
      </trkpt>
      <trkpt lat="45.38159" lon="5.8552">
        <ele>975</ele>
        <time>2016-03-30T12:45:46.000Z</time>
      </trkpt>
      <trkpt lat="45.38171" lon="5.85522">
        <ele>973</ele>
        <time>2016-03-30T12:45:47.000Z</time>
      </trkpt>
      <trkpt lat="45.38184" lon="5.85516">
        <ele>974</ele>
        <time>2016-03-30T12:45:48.000Z</time>
      </trkpt>
      <trkpt lat="45.38198" lon="5.85511">
        <ele>973</ele>
        <time>2016-03-30T12:45:49.000Z</time>
      </trkpt>
      <trkpt lat="45.38211" lon="5.85506">
        <ele>973</ele>
        <time>2016-03-30T12:45:50.000Z</time>
      </trkpt>
      <trkpt lat="45.38226" lon="5.855">
        <ele>972</ele>
        <time>2016-03-30T12:45:51.000Z</time>
      </trkpt>
      <trkpt lat="45.38236" lon="5.85485">
        <ele>974</ele>
        <time>2016-03-30T12:45:52.000Z</time>
      </trkpt>
      <trkpt lat="45.38248" lon="5.85466">
        <ele>976</ele>
        <time>2016-03-30T12:45:53.000Z</time>
      </trkpt>
      <trkpt lat="45.38262" lon="5.85463">
        <ele>976</ele>
        <time>2016-03-30T12:45:54.000Z</time>
      </trkpt>
      <trkpt lat="45.38275" lon="5.85449">
        <ele>977</ele>
        <time>2016-03-30T12:45:55.000Z</time>
      </trkpt>
      <trkpt lat="45.38285" lon="5.85445">
        <ele>977</ele>
        <time>2016-03-30T12:45:56.000Z</time>
      </trkpt>
      <trkpt lat="45.383" lon="5.8544">
        <ele>977</ele>
        <time>2016-03-30T12:45:57.000Z</time>
      </trkpt>
      <trkpt lat="45.38306" lon="5.85429">
        <ele>979</ele>
        <time>2016-03-30T12:45:58.000Z</time>
      </trkpt>
      <trkpt lat="45.38319" lon="5.85422">
        <ele>979</ele>
        <time>2016-03-30T12:45:59.000Z</time>
      </trkpt>
      <trkpt lat="45.38335" lon="5.85413">
        <ele>979</ele>
        <time>2016-03-30T12:46:00.000Z</time>
      </trkpt>
      <trkpt lat="45.3835" lon="5.85408">
        <ele>979</ele>
        <time>2016-03-30T12:46:01.000Z</time>
      </trkpt>
      <trkpt lat="45.38361" lon="5.85397">
        <ele>978</ele>
        <time>2016-03-30T12:46:02.000Z</time>
      </trkpt>
      <trkpt lat="45.38372" lon="5.85387">
        <ele>981</ele>
        <time>2016-03-30T12:46:03.000Z</time>
      </trkpt>
      <trkpt lat="45.38384" lon="5.85373">
        <ele>982</ele>
        <time>2016-03-30T12:46:04.000Z</time>
      </trkpt>
      <trkpt lat="45.38395" lon="5.85371">
        <ele>981</ele>
        <time>2016-03-30T12:46:05.000Z</time>
      </trkpt>
      <trkpt lat="45.38406" lon="5.85367">
        <ele>981</ele>
        <time>2016-03-30T12:46:06.000Z</time>
      </trkpt>
      <trkpt lat="45.38416" lon="5.85362">
        <ele>980</ele>
        <time>2016-03-30T12:46:07.000Z</time>
      </trkpt>
      <trkpt lat="45.38427" lon="5.85355">
        <ele>978</ele>
        <time>2016-03-30T12:46:08.000Z</time>
      </trkpt>
      <trkpt lat="45.38433" lon="5.85341">
        <ele>977</ele>
        <time>2016-03-30T12:46:09.000Z</time>
      </trkpt>
      <trkpt lat="45.3844" lon="5.85332">
        <ele>976</ele>
        <time>2016-03-30T12:46:10.000Z</time>
      </trkpt>
      <trkpt lat="45.38451" lon="5.8532">
        <ele>978</ele>
        <time>2016-03-30T12:46:11.000Z</time>
      </trkpt>
      <trkpt lat="45.38462" lon="5.85311">
        <ele>980</ele>
        <time>2016-03-30T12:46:12.000Z</time>
      </trkpt>
      <trkpt lat="45.38474" lon="5.85305">
        <ele>979</ele>
        <time>2016-03-30T12:46:13.000Z</time>
      </trkpt>
      <trkpt lat="45.38487" lon="5.853">
        <ele>978</ele>
        <time>2016-03-30T12:46:14.000Z</time>
      </trkpt>
      <trkpt lat="45.38501" lon="5.85295">
        <ele>978</ele>
        <time>2016-03-30T12:46:15.000Z</time>
      </trkpt>
      <trkpt lat="45.3852" lon="5.85285">
        <ele>977</ele>
        <time>2016-03-30T12:46:17.000Z</time>
      </trkpt>
      <trkpt lat="45.38537" lon="5.85275">
        <ele>976</ele>
        <time>2016-03-30T12:46:18.000Z</time>
      </trkpt>
      <trkpt lat="45.38556" lon="5.85268">
        <ele>975</ele>
        <time>2016-03-30T12:46:20.000Z</time>
      </trkpt>
      <trkpt lat="45.38572" lon="5.85269">
        <ele>974</ele>
        <time>2016-03-30T12:46:21.000Z</time>
      </trkpt>
      <trkpt lat="45.38587" lon="5.85269">
        <ele>974</ele>
        <time>2016-03-30T12:46:22.000Z</time>
      </trkpt>
      <trkpt lat="45.38606" lon="5.85272">
        <ele>972</ele>
        <time>2016-03-30T12:46:23.000Z</time>
      </trkpt>
      <trkpt lat="45.38624" lon="5.85273">
        <ele>970</ele>
        <time>2016-03-30T12:46:24.000Z</time>
      </trkpt>
      <trkpt lat="45.38644" lon="5.85275">
        <ele>969</ele>
        <time>2016-03-30T12:46:25.000Z</time>
      </trkpt>
      <trkpt lat="45.38661" lon="5.85276">
        <ele>969</ele>
        <time>2016-03-30T12:46:26.000Z</time>
      </trkpt>
      <trkpt lat="45.38679" lon="5.85276">
        <ele>971</ele>
        <time>2016-03-30T12:46:27.000Z</time>
      </trkpt>
      <trkpt lat="45.38696" lon="5.85278">
        <ele>971</ele>
        <time>2016-03-30T12:46:28.000Z</time>
      </trkpt>
      <trkpt lat="45.38714" lon="5.85279">
        <ele>970</ele>
        <time>2016-03-30T12:46:29.000Z</time>
      </trkpt>
      <trkpt lat="45.38729" lon="5.85281">
        <ele>969</ele>
        <time>2016-03-30T12:46:30.000Z</time>
      </trkpt>
      <trkpt lat="45.38743" lon="5.85282">
        <ele>968</ele>
        <time>2016-03-30T12:46:31.000Z</time>
      </trkpt>
      <trkpt lat="45.38755" lon="5.85285">
        <ele>964</ele>
        <time>2016-03-30T12:46:32.000Z</time>
      </trkpt>
      <trkpt lat="45.38767" lon="5.85287">
        <ele>962</ele>
        <time>2016-03-30T12:46:33.000Z</time>
      </trkpt>
      <trkpt lat="45.3878" lon="5.85285">
        <ele>963</ele>
        <time>2016-03-30T12:46:34.000Z</time>
      </trkpt>
      <trkpt lat="45.38792" lon="5.85284">
        <ele>963</ele>
        <time>2016-03-30T12:46:35.000Z</time>
      </trkpt>
      <trkpt lat="45.38802" lon="5.85282">
        <ele>961</ele>
        <time>2016-03-30T12:46:36.000Z</time>
      </trkpt>
      <trkpt lat="45.38813" lon="5.85282">
        <ele>961</ele>
        <time>2016-03-30T12:46:37.000Z</time>
      </trkpt>
      <trkpt lat="45.38825" lon="5.85284">
        <ele>959</ele>
        <time>2016-03-30T12:46:38.000Z</time>
      </trkpt>
      <trkpt lat="45.38836" lon="5.85293">
        <ele>958</ele>
        <time>2016-03-30T12:46:39.000Z</time>
      </trkpt>
      <trkpt lat="45.38849" lon="5.85297">
        <ele>958</ele>
        <time>2016-03-30T12:46:40.000Z</time>
      </trkpt>
      <trkpt lat="45.38866" lon="5.85307">
        <ele>956</ele>
        <time>2016-03-30T12:46:42.000Z</time>
      </trkpt>
      <trkpt lat="45.38878" lon="5.85313">
        <ele>955</ele>
        <time>2016-03-30T12:46:43.000Z</time>
      </trkpt>
      <trkpt lat="45.3889" lon="5.85319">
        <ele>954</ele>
        <time>2016-03-30T12:46:44.000Z</time>
      </trkpt>
      <trkpt lat="45.389" lon="5.85329">
        <ele>953</ele>
        <time>2016-03-30T12:46:45.000Z</time>
      </trkpt>
      <trkpt lat="45.38913" lon="5.85334">
        <ele>953</ele>
        <time>2016-03-30T12:46:46.000Z</time>
      </trkpt>
      <trkpt lat="45.38923" lon="5.85333">
        <ele>955</ele>
        <time>2016-03-30T12:46:47.000Z</time>
      </trkpt>
      <trkpt lat="45.38935" lon="5.85346">
        <ele>955</ele>
        <time>2016-03-30T12:46:48.000Z</time>
      </trkpt>
      <trkpt lat="45.38948" lon="5.85354">
        <ele>953</ele>
        <time>2016-03-30T12:46:49.000Z</time>
      </trkpt>
      <trkpt lat="45.38958" lon="5.85364">
        <ele>949</ele>
        <time>2016-03-30T12:46:50.000Z</time>
      </trkpt>
      <trkpt lat="45.3897" lon="5.85373">
        <ele>950</ele>
        <time>2016-03-30T12:46:51.000Z</time>
      </trkpt>
      <trkpt lat="45.3898" lon="5.85382">
        <ele>948</ele>
        <time>2016-03-30T12:46:52.000Z</time>
      </trkpt>
      <trkpt lat="45.38989" lon="5.85392">
        <ele>947</ele>
        <time>2016-03-30T12:46:53.000Z</time>
      </trkpt>
      <trkpt lat="45.39007" lon="5.8538">
        <ele>946</ele>
        <time>2016-03-30T12:46:54.000Z</time>
      </trkpt>
      <trkpt lat="45.39021" lon="5.85378">
        <ele>945</ele>
        <time>2016-03-30T12:46:55.000Z</time>
      </trkpt>
      <trkpt lat="45.39037" lon="5.85374">
        <ele>944</ele>
        <time>2016-03-30T12:46:56.000Z</time>
      </trkpt>
      <trkpt lat="45.39053" lon="5.85369">
        <ele>944</ele>
        <time>2016-03-30T12:46:57.000Z</time>
      </trkpt>
      <trkpt lat="45.39071" lon="5.85368">
        <ele>944</ele>
        <time>2016-03-30T12:46:58.000Z</time>
      </trkpt>
      <trkpt lat="45.39088" lon="5.85369">
        <ele>945</ele>
        <time>2016-03-30T12:46:59.000Z</time>
      </trkpt>
      <trkpt lat="45.39108" lon="5.8537">
        <ele>944</ele>
        <time>2016-03-30T12:47:00.000Z</time>
      </trkpt>
      <trkpt lat="45.39124" lon="5.85374">
        <ele>943</ele>
        <time>2016-03-30T12:47:01.000Z</time>
      </trkpt>
      <trkpt lat="45.39137" lon="5.8538">
        <ele>943</ele>
        <time>2016-03-30T12:47:02.000Z</time>
      </trkpt>
      <trkpt lat="45.3915" lon="5.85384">
        <ele>941</ele>
        <time>2016-03-30T12:47:03.000Z</time>
      </trkpt>
      <trkpt lat="45.39166" lon="5.85388">
        <ele>940</ele>
        <time>2016-03-30T12:47:04.000Z</time>
      </trkpt>
      <trkpt lat="45.39183" lon="5.85391">
        <ele>939</ele>
        <time>2016-03-30T12:47:05.000Z</time>
      </trkpt>
      <trkpt lat="45.39197" lon="5.85396">
        <ele>940</ele>
        <time>2016-03-30T12:47:06.000Z</time>
      </trkpt>
      <trkpt lat="45.39211" lon="5.85402">
        <ele>937</ele>
        <time>2016-03-30T12:47:07.000Z</time>
      </trkpt>
      <trkpt lat="45.39227" lon="5.85409">
        <ele>936</ele>
        <time>2016-03-30T12:47:08.000Z</time>
      </trkpt>
      <trkpt lat="45.39244" lon="5.85416">
        <ele>937</ele>
        <time>2016-03-30T12:47:09.000Z</time>
      </trkpt>
      <trkpt lat="45.39259" lon="5.85423">
        <ele>937</ele>
        <time>2016-03-30T12:47:10.000Z</time>
      </trkpt>
      <trkpt lat="45.39277" lon="5.85431">
        <ele>935</ele>
        <time>2016-03-30T12:47:11.000Z</time>
      </trkpt>
      <trkpt lat="45.39291" lon="5.85436">
        <ele>936</ele>
        <time>2016-03-30T12:47:12.000Z</time>
      </trkpt>
      <trkpt lat="45.39307" lon="5.85438">
        <ele>938</ele>
        <time>2016-03-30T12:47:13.000Z</time>
      </trkpt>
      <trkpt lat="45.39323" lon="5.85443">
        <ele>936</ele>
        <time>2016-03-30T12:47:14.000Z</time>
      </trkpt>
      <trkpt lat="45.39339" lon="5.85448">
        <ele>936</ele>
        <time>2016-03-30T12:47:15.000Z</time>
      </trkpt>
      <trkpt lat="45.39353" lon="5.85459">
        <ele>936</ele>
        <time>2016-03-30T12:47:16.000Z</time>
      </trkpt>
      <trkpt lat="45.39366" lon="5.8547">
        <ele>935</ele>
        <time>2016-03-30T12:47:17.000Z</time>
      </trkpt>
      <trkpt lat="45.39375" lon="5.85483">
        <ele>935</ele>
        <time>2016-03-30T12:47:18.000Z</time>
      </trkpt>
      <trkpt lat="45.39386" lon="5.85494">
        <ele>935</ele>
        <time>2016-03-30T12:47:19.000Z</time>
      </trkpt>
      <trkpt lat="45.39397" lon="5.85504">
        <ele>933</ele>
        <time>2016-03-30T12:47:20.000Z</time>
      </trkpt>
      <trkpt lat="45.39406" lon="5.85511">
        <ele>933</ele>
        <time>2016-03-30T12:47:21.000Z</time>
      </trkpt>
      <trkpt lat="45.39425" lon="5.85523">
        <ele>928</ele>
        <time>2016-03-30T12:47:23.000Z</time>
      </trkpt>
      <trkpt lat="45.39436" lon="5.85525">
        <ele>924</ele>
        <time>2016-03-30T12:47:24.000Z</time>
      </trkpt>
      <trkpt lat="45.39451" lon="5.85527">
        <ele>923</ele>
        <time>2016-03-30T12:47:25.000Z</time>
      </trkpt>
      <trkpt lat="45.39464" lon="5.85526">
        <ele>921</ele>
        <time>2016-03-30T12:47:26.000Z</time>
      </trkpt>
      <trkpt lat="45.39478" lon="5.85526">
        <ele>921</ele>
        <time>2016-03-30T12:47:27.000Z</time>
      </trkpt>
      <trkpt lat="45.39492" lon="5.85524">
        <ele>920</ele>
        <time>2016-03-30T12:47:28.000Z</time>
      </trkpt>
      <trkpt lat="45.39507" lon="5.85528">
        <ele>920</ele>
        <time>2016-03-30T12:47:29.000Z</time>
      </trkpt>
      <trkpt lat="45.39524" lon="5.85528">
        <ele>919</ele>
        <time>2016-03-30T12:47:30.000Z</time>
      </trkpt>
      <trkpt lat="45.39537" lon="5.85537">
        <ele>918</ele>
        <time>2016-03-30T12:47:31.000Z</time>
      </trkpt>
      <trkpt lat="45.39555" lon="5.85546">
        <ele>918</ele>
        <time>2016-03-30T12:47:32.000Z</time>
      </trkpt>
      <trkpt lat="45.39571" lon="5.85552">
        <ele>917</ele>
        <time>2016-03-30T12:47:33.000Z</time>
      </trkpt>
      <trkpt lat="45.39586" lon="5.85558">
        <ele>915</ele>
        <time>2016-03-30T12:47:34.000Z</time>
      </trkpt>
      <trkpt lat="45.39602" lon="5.85565">
        <ele>915</ele>
        <time>2016-03-30T12:47:35.000Z</time>
      </trkpt>
      <trkpt lat="45.39616" lon="5.85567">
        <ele>913</ele>
        <time>2016-03-30T12:47:36.000Z</time>
      </trkpt>
      <trkpt lat="45.39625" lon="5.85575">
        <ele>911</ele>
        <time>2016-03-30T12:47:37.000Z</time>
      </trkpt>
      <trkpt lat="45.39641" lon="5.85577">
        <ele>910</ele>
        <time>2016-03-30T12:47:38.000Z</time>
      </trkpt>
      <trkpt lat="45.39653" lon="5.85583">
        <ele>909</ele>
        <time>2016-03-30T12:47:39.000Z</time>
      </trkpt>
      <trkpt lat="45.3966" lon="5.85597">
        <ele>909</ele>
        <time>2016-03-30T12:47:40.000Z</time>
      </trkpt>
      <trkpt lat="45.39675" lon="5.85606">
        <ele>908</ele>
        <time>2016-03-30T12:47:41.000Z</time>
      </trkpt>
      <trkpt lat="45.39683" lon="5.85619">
        <ele>908</ele>
        <time>2016-03-30T12:47:42.000Z</time>
      </trkpt>
      <trkpt lat="45.39695" lon="5.85639">
        <ele>907</ele>
        <time>2016-03-30T12:47:44.000Z</time>
      </trkpt>
      <trkpt lat="45.39705" lon="5.85645">
        <ele>906</ele>
        <time>2016-03-30T12:47:45.000Z</time>
      </trkpt>
      <trkpt lat="45.39715" lon="5.85652">
        <ele>907</ele>
        <time>2016-03-30T12:47:46.000Z</time>
      </trkpt>
      <trkpt lat="45.39727" lon="5.85656">
        <ele>905</ele>
        <time>2016-03-30T12:47:47.000Z</time>
      </trkpt>
      <trkpt lat="45.39741" lon="5.85659">
        <ele>904</ele>
        <time>2016-03-30T12:47:48.000Z</time>
      </trkpt>
      <trkpt lat="45.39755" lon="5.85657">
        <ele>903</ele>
        <time>2016-03-30T12:47:49.000Z</time>
      </trkpt>
      <trkpt lat="45.39768" lon="5.85652">
        <ele>900</ele>
        <time>2016-03-30T12:47:50.000Z</time>
      </trkpt>
      <trkpt lat="45.39782" lon="5.8565">
        <ele>899</ele>
        <time>2016-03-30T12:47:51.000Z</time>
      </trkpt>
      <trkpt lat="45.39794" lon="5.8565">
        <ele>896</ele>
        <time>2016-03-30T12:47:52.000Z</time>
      </trkpt>
      <trkpt lat="45.39806" lon="5.85651">
        <ele>896</ele>
        <time>2016-03-30T12:47:53.000Z</time>
      </trkpt>
      <trkpt lat="45.39821" lon="5.85656">
        <ele>895</ele>
        <time>2016-03-30T12:47:54.000Z</time>
      </trkpt>
      <trkpt lat="45.39834" lon="5.85659">
        <ele>894</ele>
        <time>2016-03-30T12:47:55.000Z</time>
      </trkpt>
      <trkpt lat="45.39848" lon="5.85663">
        <ele>892</ele>
        <time>2016-03-30T12:47:56.000Z</time>
      </trkpt>
      <trkpt lat="45.39861" lon="5.85667">
        <ele>891</ele>
        <time>2016-03-30T12:47:57.000Z</time>
      </trkpt>
      <trkpt lat="45.39877" lon="5.85672">
        <ele>891</ele>
        <time>2016-03-30T12:47:58.000Z</time>
      </trkpt>
      <trkpt lat="45.39895" lon="5.85679">
        <ele>891</ele>
        <time>2016-03-30T12:47:59.000Z</time>
      </trkpt>
      <trkpt lat="45.39911" lon="5.85684">
        <ele>888</ele>
        <time>2016-03-30T12:48:00.000Z</time>
      </trkpt>
      <trkpt lat="45.3992" lon="5.85687">
        <ele>885</ele>
        <time>2016-03-30T12:48:01.000Z</time>
      </trkpt>
      <trkpt lat="45.39936" lon="5.85691">
        <ele>885</ele>
        <time>2016-03-30T12:48:02.000Z</time>
      </trkpt>
      <trkpt lat="45.39949" lon="5.85699">
        <ele>884</ele>
        <time>2016-03-30T12:48:03.000Z</time>
      </trkpt>
      <trkpt lat="45.39962" lon="5.85703">
        <ele>885</ele>
        <time>2016-03-30T12:48:04.000Z</time>
      </trkpt>
      <trkpt lat="45.3998" lon="5.85708">
        <ele>884</ele>
        <time>2016-03-30T12:48:05.000Z</time>
      </trkpt>
      <trkpt lat="45.39995" lon="5.85713">
        <ele>884</ele>
        <time>2016-03-30T12:48:06.000Z</time>
      </trkpt>
      <trkpt lat="45.40008" lon="5.85716">
        <ele>884</ele>
        <time>2016-03-30T12:48:07.000Z</time>
      </trkpt>
      <trkpt lat="45.40022" lon="5.85708">
        <ele>885</ele>
        <time>2016-03-30T12:48:08.000Z</time>
      </trkpt>
      <trkpt lat="45.40033" lon="5.8571">
        <ele>882</ele>
        <time>2016-03-30T12:48:09.000Z</time>
      </trkpt>
      <trkpt lat="45.40048" lon="5.85708">
        <ele>881</ele>
        <time>2016-03-30T12:48:10.000Z</time>
      </trkpt>
      <trkpt lat="45.4006" lon="5.85711">
        <ele>877</ele>
        <time>2016-03-30T12:48:11.000Z</time>
      </trkpt>
      <trkpt lat="45.40075" lon="5.85714">
        <ele>873</ele>
        <time>2016-03-30T12:48:12.000Z</time>
      </trkpt>
      <trkpt lat="45.4009" lon="5.8572">
        <ele>870</ele>
        <time>2016-03-30T12:48:13.000Z</time>
      </trkpt>
      <trkpt lat="45.40105" lon="5.85726">
        <ele>870</ele>
        <time>2016-03-30T12:48:14.000Z</time>
      </trkpt>
      <trkpt lat="45.40121" lon="5.8573">
        <ele>870</ele>
        <time>2016-03-30T12:48:15.000Z</time>
      </trkpt>
      <trkpt lat="45.40136" lon="5.85737">
        <ele>869</ele>
        <time>2016-03-30T12:48:16.000Z</time>
      </trkpt>
      <trkpt lat="45.40149" lon="5.85747">
        <ele>868</ele>
        <time>2016-03-30T12:48:17.000Z</time>
      </trkpt>
      <trkpt lat="45.40163" lon="5.85758">
        <ele>868</ele>
        <time>2016-03-30T12:48:18.000Z</time>
      </trkpt>
      <trkpt lat="45.40177" lon="5.85767">
        <ele>868</ele>
        <time>2016-03-30T12:48:19.000Z</time>
      </trkpt>
      <trkpt lat="45.4019" lon="5.85777">
        <ele>868</ele>
        <time>2016-03-30T12:48:20.000Z</time>
      </trkpt>
      <trkpt lat="45.40201" lon="5.85785">
        <ele>864</ele>
        <time>2016-03-30T12:48:21.000Z</time>
      </trkpt>
      <trkpt lat="45.40212" lon="5.85793">
        <ele>862</ele>
        <time>2016-03-30T12:48:22.000Z</time>
      </trkpt>
      <trkpt lat="45.40223" lon="5.85801">
        <ele>860</ele>
        <time>2016-03-30T12:48:23.000Z</time>
      </trkpt>
      <trkpt lat="45.40236" lon="5.85807">
        <ele>859</ele>
        <time>2016-03-30T12:48:24.000Z</time>
      </trkpt>
      <trkpt lat="45.40247" lon="5.85812">
        <ele>859</ele>
        <time>2016-03-30T12:48:25.000Z</time>
      </trkpt>
      <trkpt lat="45.40258" lon="5.85816">
        <ele>859</ele>
        <time>2016-03-30T12:48:26.000Z</time>
      </trkpt>
      <trkpt lat="45.40271" lon="5.85813">
        <ele>858</ele>
        <time>2016-03-30T12:48:27.000Z</time>
      </trkpt>
      <trkpt lat="45.4028" lon="5.85803">
        <ele>857</ele>
        <time>2016-03-30T12:48:28.000Z</time>
      </trkpt>
      <trkpt lat="45.40286" lon="5.85794">
        <ele>854</ele>
        <time>2016-03-30T12:48:29.000Z</time>
      </trkpt>
      <trkpt lat="45.40294" lon="5.85785">
        <ele>855</ele>
        <time>2016-03-30T12:48:30.000Z</time>
      </trkpt>
      <trkpt lat="45.40296" lon="5.85764">
        <ele>852</ele>
        <time>2016-03-30T12:48:31.000Z</time>
      </trkpt>
      <trkpt lat="45.40299" lon="5.85749">
        <ele>849</ele>
        <time>2016-03-30T12:48:32.000Z</time>
      </trkpt>
      <trkpt lat="45.40301" lon="5.85735">
        <ele>847</ele>
        <time>2016-03-30T12:48:33.000Z</time>
      </trkpt>
      <trkpt lat="45.40304" lon="5.8572">
        <ele>846</ele>
        <time>2016-03-30T12:48:34.000Z</time>
      </trkpt>
      <trkpt lat="45.40307" lon="5.85706">
        <ele>843</ele>
        <time>2016-03-30T12:48:35.000Z</time>
      </trkpt>
      <trkpt lat="45.40314" lon="5.85684">
        <ele>842</ele>
        <time>2016-03-30T12:48:37.000Z</time>
      </trkpt>
      <trkpt lat="45.40327" lon="5.85671">
        <ele>841</ele>
        <time>2016-03-30T12:48:39.000Z</time>
      </trkpt>
      <trkpt lat="45.40337" lon="5.8567">
        <ele>842</ele>
        <time>2016-03-30T12:48:40.000Z</time>
      </trkpt>
      <trkpt lat="45.40355" lon="5.85676">
        <ele>837</ele>
        <time>2016-03-30T12:48:42.000Z</time>
      </trkpt>
      <trkpt lat="45.40365" lon="5.85676">
        <ele>837</ele>
        <time>2016-03-30T12:48:43.000Z</time>
      </trkpt>
      <trkpt lat="45.40376" lon="5.85677">
        <ele>837</ele>
        <time>2016-03-30T12:48:44.000Z</time>
      </trkpt>
      <trkpt lat="45.40387" lon="5.85674">
        <ele>836</ele>
        <time>2016-03-30T12:48:45.000Z</time>
      </trkpt>
      <trkpt lat="45.40397" lon="5.85666">
        <ele>837</ele>
        <time>2016-03-30T12:48:46.000Z</time>
      </trkpt>
      <trkpt lat="45.40408" lon="5.85658">
        <ele>836</ele>
        <time>2016-03-30T12:48:47.000Z</time>
      </trkpt>
      <trkpt lat="45.40417" lon="5.85654">
        <ele>834</ele>
        <time>2016-03-30T12:48:48.000Z</time>
      </trkpt>
      <trkpt lat="45.40426" lon="5.8565">
        <ele>834</ele>
        <time>2016-03-30T12:48:49.000Z</time>
      </trkpt>
      <trkpt lat="45.4044" lon="5.8565">
        <ele>834</ele>
        <time>2016-03-30T12:48:50.000Z</time>
      </trkpt>
      <trkpt lat="45.40451" lon="5.85648">
        <ele>833</ele>
        <time>2016-03-30T12:48:51.000Z</time>
      </trkpt>
      <trkpt lat="45.40463" lon="5.85647">
        <ele>834</ele>
        <time>2016-03-30T12:48:52.000Z</time>
      </trkpt>
      <trkpt lat="45.40474" lon="5.85646">
        <ele>833</ele>
        <time>2016-03-30T12:48:53.000Z</time>
      </trkpt>
      <trkpt lat="45.40486" lon="5.85645">
        <ele>833</ele>
        <time>2016-03-30T12:48:54.000Z</time>
      </trkpt>
      <trkpt lat="45.40498" lon="5.85644">
        <ele>833</ele>
        <time>2016-03-30T12:48:55.000Z</time>
      </trkpt>
      <trkpt lat="45.40509" lon="5.85644">
        <ele>833</ele>
        <time>2016-03-30T12:48:56.000Z</time>
      </trkpt>
      <trkpt lat="45.40521" lon="5.85643">
        <ele>833</ele>
        <time>2016-03-30T12:48:57.000Z</time>
      </trkpt>
      <trkpt lat="45.40534" lon="5.85641">
        <ele>832</ele>
        <time>2016-03-30T12:48:58.000Z</time>
      </trkpt>
      <trkpt lat="45.40547" lon="5.85639">
        <ele>830</ele>
        <time>2016-03-30T12:48:59.000Z</time>
      </trkpt>
      <trkpt lat="45.40561" lon="5.85637">
        <ele>831</ele>
        <time>2016-03-30T12:49:00.000Z</time>
      </trkpt>
      <trkpt lat="45.40574" lon="5.85637">
        <ele>830</ele>
        <time>2016-03-30T12:49:01.000Z</time>
      </trkpt>
      <trkpt lat="45.40587" lon="5.85636">
        <ele>830</ele>
        <time>2016-03-30T12:49:02.000Z</time>
      </trkpt>
      <trkpt lat="45.40596" lon="5.85641">
        <ele>828</ele>
        <time>2016-03-30T12:49:03.000Z</time>
      </trkpt>
      <trkpt lat="45.40609" lon="5.85644">
        <ele>828</ele>
        <time>2016-03-30T12:49:04.000Z</time>
      </trkpt>
      <trkpt lat="45.40616" lon="5.85655">
        <ele>826</ele>
        <time>2016-03-30T12:49:05.000Z</time>
      </trkpt>
      <trkpt lat="45.40626" lon="5.85667">
        <ele>825</ele>
        <time>2016-03-30T12:49:06.000Z</time>
      </trkpt>
      <trkpt lat="45.40636" lon="5.85678">
        <ele>825</ele>
        <time>2016-03-30T12:49:07.000Z</time>
      </trkpt>
      <trkpt lat="45.40646" lon="5.85691">
        <ele>823</ele>
        <time>2016-03-30T12:49:08.000Z</time>
      </trkpt>
      <trkpt lat="45.40655" lon="5.85704">
        <ele>823</ele>
        <time>2016-03-30T12:49:09.000Z</time>
      </trkpt>
      <trkpt lat="45.40664" lon="5.85716">
        <ele>823</ele>
        <time>2016-03-30T12:49:10.000Z</time>
      </trkpt>
      <trkpt lat="45.40673" lon="5.85726">
        <ele>822</ele>
        <time>2016-03-30T12:49:11.000Z</time>
      </trkpt>
      <trkpt lat="45.40682" lon="5.85736">
        <ele>821</ele>
        <time>2016-03-30T12:49:12.000Z</time>
      </trkpt>
      <trkpt lat="45.40692" lon="5.85743">
        <ele>821</ele>
        <time>2016-03-30T12:49:13.000Z</time>
      </trkpt>
      <trkpt lat="45.40702" lon="5.85744">
        <ele>820</ele>
        <time>2016-03-30T12:49:14.000Z</time>
      </trkpt>
      <trkpt lat="45.40714" lon="5.85741">
        <ele>817</ele>
        <time>2016-03-30T12:49:15.000Z</time>
      </trkpt>
      <trkpt lat="45.40726" lon="5.85733">
        <ele>817</ele>
        <time>2016-03-30T12:49:16.000Z</time>
      </trkpt>
      <trkpt lat="45.40739" lon="5.85726">
        <ele>817</ele>
        <time>2016-03-30T12:49:17.000Z</time>
      </trkpt>
      <trkpt lat="45.40752" lon="5.85717">
        <ele>817</ele>
        <time>2016-03-30T12:49:18.000Z</time>
      </trkpt>
      <trkpt lat="45.40765" lon="5.85707">
        <ele>816</ele>
        <time>2016-03-30T12:49:19.000Z</time>
      </trkpt>
      <trkpt lat="45.40777" lon="5.85699">
        <ele>817</ele>
        <time>2016-03-30T12:49:20.000Z</time>
      </trkpt>
      <trkpt lat="45.40788" lon="5.85691">
        <ele>815</ele>
        <time>2016-03-30T12:49:21.000Z</time>
      </trkpt>
      <trkpt lat="45.408" lon="5.85684">
        <ele>814</ele>
        <time>2016-03-30T12:49:22.000Z</time>
      </trkpt>
      <trkpt lat="45.40811" lon="5.85675">
        <ele>813</ele>
        <time>2016-03-30T12:49:23.000Z</time>
      </trkpt>
      <trkpt lat="45.40822" lon="5.85667">
        <ele>812</ele>
        <time>2016-03-30T12:49:24.000Z</time>
      </trkpt>
      <trkpt lat="45.40834" lon="5.85658">
        <ele>811</ele>
        <time>2016-03-30T12:49:25.000Z</time>
      </trkpt>
      <trkpt lat="45.40845" lon="5.85647">
        <ele>811</ele>
        <time>2016-03-30T12:49:26.000Z</time>
      </trkpt>
      <trkpt lat="45.40856" lon="5.85635">
        <ele>810</ele>
        <time>2016-03-30T12:49:27.000Z</time>
      </trkpt>
      <trkpt lat="45.40866" lon="5.85631">
        <ele>809</ele>
        <time>2016-03-30T12:49:28.000Z</time>
      </trkpt>
      <trkpt lat="45.40877" lon="5.85628">
        <ele>807</ele>
        <time>2016-03-30T12:49:29.000Z</time>
      </trkpt>
      <trkpt lat="45.40888" lon="5.85626">
        <ele>806</ele>
        <time>2016-03-30T12:49:30.000Z</time>
      </trkpt>
      <trkpt lat="45.40899" lon="5.85623">
        <ele>805</ele>
        <time>2016-03-30T12:49:31.000Z</time>
      </trkpt>
      <trkpt lat="45.40908" lon="5.8562">
        <ele>805</ele>
        <time>2016-03-30T12:49:32.000Z</time>
      </trkpt>
      <trkpt lat="45.40921" lon="5.8561">
        <ele>803</ele>
        <time>2016-03-30T12:49:34.000Z</time>
      </trkpt>
      <trkpt lat="45.40926" lon="5.85586">
        <ele>802</ele>
        <time>2016-03-30T12:49:36.000Z</time>
      </trkpt>
      <trkpt lat="45.40921" lon="5.85572">
        <ele>801</ele>
        <time>2016-03-30T12:49:37.000Z</time>
      </trkpt>
      <trkpt lat="45.40909" lon="5.85554">
        <ele>798</ele>
        <time>2016-03-30T12:49:38.000Z</time>
      </trkpt>
      <trkpt lat="45.40903" lon="5.85539">
        <ele>795</ele>
        <time>2016-03-30T12:49:39.000Z</time>
      </trkpt>
      <trkpt lat="45.409" lon="5.85525">
        <ele>795</ele>
        <time>2016-03-30T12:49:40.000Z</time>
      </trkpt>
      <trkpt lat="45.4089" lon="5.85505">
        <ele>791</ele>
        <time>2016-03-30T12:49:42.000Z</time>
      </trkpt>
      <trkpt lat="45.40881" lon="5.85487">
        <ele>790</ele>
        <time>2016-03-30T12:49:44.000Z</time>
      </trkpt>
      <trkpt lat="45.4088" lon="5.85471">
        <ele>787</ele>
        <time>2016-03-30T12:49:46.000Z</time>
      </trkpt>
      <trkpt lat="45.40892" lon="5.85461">
        <ele>786</ele>
        <time>2016-03-30T12:49:48.000Z</time>
      </trkpt>
      <trkpt lat="45.40904" lon="5.85459">
        <ele>785</ele>
        <time>2016-03-30T12:49:50.000Z</time>
      </trkpt>
      <trkpt lat="45.40916" lon="5.85474">
        <ele>784</ele>
        <time>2016-03-30T12:49:51.000Z</time>
      </trkpt>
      <trkpt lat="45.40928" lon="5.85485">
        <ele>783</ele>
        <time>2016-03-30T12:49:52.000Z</time>
      </trkpt>
      <trkpt lat="45.4094" lon="5.85494">
        <ele>782</ele>
        <time>2016-03-30T12:49:53.000Z</time>
      </trkpt>
      <trkpt lat="45.40952" lon="5.85502">
        <ele>782</ele>
        <time>2016-03-30T12:49:54.000Z</time>
      </trkpt>
      <trkpt lat="45.40963" lon="5.85511">
        <ele>781</ele>
        <time>2016-03-30T12:49:55.000Z</time>
      </trkpt>
      <trkpt lat="45.40973" lon="5.8552">
        <ele>780</ele>
        <time>2016-03-30T12:49:56.000Z</time>
      </trkpt>
      <trkpt lat="45.40984" lon="5.85532">
        <ele>778</ele>
        <time>2016-03-30T12:49:57.000Z</time>
      </trkpt>
      <trkpt lat="45.40994" lon="5.85544">
        <ele>776</ele>
        <time>2016-03-30T12:49:58.000Z</time>
      </trkpt>
      <trkpt lat="45.41001" lon="5.85555">
        <ele>777</ele>
        <time>2016-03-30T12:49:59.000Z</time>
      </trkpt>
      <trkpt lat="45.41004" lon="5.85567">
        <ele>775</ele>
        <time>2016-03-30T12:50:00.000Z</time>
      </trkpt>
      <trkpt lat="45.41017" lon="5.85598">
        <ele>775</ele>
        <time>2016-03-30T12:50:03.000Z</time>
      </trkpt>
      <trkpt lat="45.41037" lon="5.85597">
        <ele>773</ele>
        <time>2016-03-30T12:50:05.000Z</time>
      </trkpt>
      <trkpt lat="45.41058" lon="5.85589">
        <ele>769</ele>
        <time>2016-03-30T12:50:08.000Z</time>
      </trkpt>
      <trkpt lat="45.41066" lon="5.85603">
        <ele>768</ele>
        <time>2016-03-30T12:50:10.000Z</time>
      </trkpt>
      <trkpt lat="45.41063" lon="5.85627">
        <ele>767</ele>
        <time>2016-03-30T12:50:12.000Z</time>
      </trkpt>
      <trkpt lat="45.41055" lon="5.85639">
        <ele>766</ele>
        <time>2016-03-30T12:50:13.000Z</time>
      </trkpt>
      <trkpt lat="45.41042" lon="5.8566">
        <ele>765</ele>
        <time>2016-03-30T12:50:15.000Z</time>
      </trkpt>
      <trkpt lat="45.41034" lon="5.85668">
        <ele>764</ele>
        <time>2016-03-30T12:50:16.000Z</time>
      </trkpt>
      <trkpt lat="45.41022" lon="5.85682">
        <ele>761</ele>
        <time>2016-03-30T12:50:18.000Z</time>
      </trkpt>
      <trkpt lat="45.41025" lon="5.85707">
        <ele>760</ele>
        <time>2016-03-30T12:50:21.000Z</time>
      </trkpt>
      <trkpt lat="45.41035" lon="5.85717">
        <ele>758</ele>
        <time>2016-03-30T12:50:23.000Z</time>
      </trkpt>
      <trkpt lat="45.41056" lon="5.85719">
        <ele>756</ele>
        <time>2016-03-30T12:50:25.000Z</time>
      </trkpt>
      <trkpt lat="45.4108" lon="5.85711">
        <ele>758</ele>
        <time>2016-03-30T12:50:27.000Z</time>
      </trkpt>
      <trkpt lat="45.4109" lon="5.85704">
        <ele>757</ele>
        <time>2016-03-30T12:50:28.000Z</time>
      </trkpt>
      <trkpt lat="45.41098" lon="5.85685">
        <ele>755</ele>
        <time>2016-03-30T12:50:29.000Z</time>
      </trkpt>
      <trkpt lat="45.41106" lon="5.85676">
        <ele>754</ele>
        <time>2016-03-30T12:50:30.000Z</time>
      </trkpt>
      <trkpt lat="45.41117" lon="5.85661">
        <ele>753</ele>
        <time>2016-03-30T12:50:31.000Z</time>
      </trkpt>
      <trkpt lat="45.41128" lon="5.85649">
        <ele>753</ele>
        <time>2016-03-30T12:50:32.000Z</time>
      </trkpt>
      <trkpt lat="45.4114" lon="5.85638">
        <ele>752</ele>
        <time>2016-03-30T12:50:33.000Z</time>
      </trkpt>
      <trkpt lat="45.41164" lon="5.8562">
        <ele>752</ele>
        <time>2016-03-30T12:50:35.000Z</time>
      </trkpt>
      <trkpt lat="45.41177" lon="5.8561">
        <ele>752</ele>
        <time>2016-03-30T12:50:36.000Z</time>
      </trkpt>
      <trkpt lat="45.41188" lon="5.85599">
        <ele>752</ele>
        <time>2016-03-30T12:50:37.000Z</time>
      </trkpt>
      <trkpt lat="45.41202" lon="5.85592">
        <ele>752</ele>
        <time>2016-03-30T12:50:38.000Z</time>
      </trkpt>
      <trkpt lat="45.41215" lon="5.85584">
        <ele>752</ele>
        <time>2016-03-30T12:50:39.000Z</time>
      </trkpt>
      <trkpt lat="45.41228" lon="5.85578">
        <ele>753</ele>
        <time>2016-03-30T12:50:40.000Z</time>
      </trkpt>
      <trkpt lat="45.41239" lon="5.8557">
        <ele>752</ele>
        <time>2016-03-30T12:50:41.000Z</time>
      </trkpt>
      <trkpt lat="45.41249" lon="5.85563">
        <ele>752</ele>
        <time>2016-03-30T12:50:42.000Z</time>
      </trkpt>
      <trkpt lat="45.41257" lon="5.85556">
        <ele>751</ele>
        <time>2016-03-30T12:50:43.000Z</time>
      </trkpt>
      <trkpt lat="45.41263" lon="5.85546">
        <ele>748</ele>
        <time>2016-03-30T12:50:44.000Z</time>
      </trkpt>
      <trkpt lat="45.41272" lon="5.85525">
        <ele>743</ele>
        <time>2016-03-30T12:50:46.000Z</time>
      </trkpt>
      <trkpt lat="45.41274" lon="5.85512">
        <ele>741</ele>
        <time>2016-03-30T12:50:47.000Z</time>
      </trkpt>
      <trkpt lat="45.41255" lon="5.8548">
        <ele>731</ele>
        <time>2016-03-30T12:50:50.000Z</time>
      </trkpt>
      <trkpt lat="45.41247" lon="5.85461">
        <ele>729</ele>
        <time>2016-03-30T12:50:52.000Z</time>
      </trkpt>
      <trkpt lat="45.41245" lon="5.85448">
        <ele>728</ele>
        <time>2016-03-30T12:50:53.000Z</time>
      </trkpt>
      <trkpt lat="45.41239" lon="5.85426">
        <ele>723</ele>
        <time>2016-03-30T12:50:55.000Z</time>
      </trkpt>
      <trkpt lat="45.41232" lon="5.85414">
        <ele>721</ele>
        <time>2016-03-30T12:50:56.000Z</time>
      </trkpt>
      <trkpt lat="45.41221" lon="5.85405">
        <ele>721</ele>
        <time>2016-03-30T12:50:57.000Z</time>
      </trkpt>
      <trkpt lat="45.41211" lon="5.85401">
        <ele>720</ele>
        <time>2016-03-30T12:50:58.000Z</time>
      </trkpt>
      <trkpt lat="45.41203" lon="5.85394">
        <ele>720</ele>
        <time>2016-03-30T12:50:59.000Z</time>
      </trkpt>
      <trkpt lat="45.41192" lon="5.8539">
        <ele>715</ele>
        <time>2016-03-30T12:51:01.000Z</time>
      </trkpt>
      <trkpt lat="45.41182" lon="5.85365">
        <ele>713</ele>
        <time>2016-03-30T12:51:03.000Z</time>
      </trkpt>
      <trkpt lat="45.41188" lon="5.85353">
        <ele>712</ele>
        <time>2016-03-30T12:51:04.000Z</time>
      </trkpt>
      <trkpt lat="45.412" lon="5.85343">
        <ele>710</ele>
        <time>2016-03-30T12:51:06.000Z</time>
      </trkpt>
      <trkpt lat="45.41219" lon="5.85344">
        <ele>710</ele>
        <time>2016-03-30T12:51:08.000Z</time>
      </trkpt>
      <trkpt lat="45.41243" lon="5.85354">
        <ele>710</ele>
        <time>2016-03-30T12:51:10.000Z</time>
      </trkpt>
      <trkpt lat="45.41253" lon="5.8536">
        <ele>710</ele>
        <time>2016-03-30T12:51:11.000Z</time>
      </trkpt>
      <trkpt lat="45.41263" lon="5.85364">
        <ele>710</ele>
        <time>2016-03-30T12:51:12.000Z</time>
      </trkpt>
      <trkpt lat="45.41274" lon="5.85369">
        <ele>710</ele>
        <time>2016-03-30T12:51:13.000Z</time>
      </trkpt>
      <trkpt lat="45.41283" lon="5.85374">
        <ele>709</ele>
        <time>2016-03-30T12:51:14.000Z</time>
      </trkpt>
      <trkpt lat="45.41293" lon="5.85378">
        <ele>710</ele>
        <time>2016-03-30T12:51:15.000Z</time>
      </trkpt>
      <trkpt lat="45.41303" lon="5.85382">
        <ele>710</ele>
        <time>2016-03-30T12:51:16.000Z</time>
      </trkpt>
      <trkpt lat="45.41312" lon="5.85388">
        <ele>709</ele>
        <time>2016-03-30T12:51:17.000Z</time>
      </trkpt>
      <trkpt lat="45.41326" lon="5.85398">
        <ele>707</ele>
        <time>2016-03-30T12:51:19.000Z</time>
      </trkpt>
      <trkpt lat="45.41338" lon="5.85407">
        <ele>704</ele>
        <time>2016-03-30T12:51:21.000Z</time>
      </trkpt>
      <trkpt lat="45.41349" lon="5.85418">
        <ele>704</ele>
        <time>2016-03-30T12:51:23.000Z</time>
      </trkpt>
      <trkpt lat="45.41361" lon="5.8543">
        <ele>703</ele>
        <time>2016-03-30T12:51:25.000Z</time>
      </trkpt>
      <trkpt lat="45.41373" lon="5.85446">
        <ele>704</ele>
        <time>2016-03-30T12:51:27.000Z</time>
      </trkpt>
      <trkpt lat="45.41388" lon="5.85454">
        <ele>703</ele>
        <time>2016-03-30T12:51:29.000Z</time>
      </trkpt>
      <trkpt lat="45.41404" lon="5.85456">
        <ele>703</ele>
        <time>2016-03-30T12:51:31.000Z</time>
      </trkpt>
      <trkpt lat="45.4142" lon="5.85463">
        <ele>702</ele>
        <time>2016-03-30T12:51:33.000Z</time>
      </trkpt>
      <trkpt lat="45.41433" lon="5.85467">
        <ele>701</ele>
        <time>2016-03-30T12:51:35.000Z</time>
      </trkpt>
      <trkpt lat="45.41443" lon="5.85469">
        <ele>701</ele>
        <time>2016-03-30T12:51:36.000Z</time>
      </trkpt>
      <trkpt lat="45.41458" lon="5.8547">
        <ele>699</ele>
        <time>2016-03-30T12:51:38.000Z</time>
      </trkpt>
      <trkpt lat="45.41476" lon="5.85469">
        <ele>699</ele>
        <time>2016-03-30T12:51:40.000Z</time>
      </trkpt>
      <trkpt lat="45.41485" lon="5.85468">
        <ele>698</ele>
        <time>2016-03-30T12:51:41.000Z</time>
      </trkpt>
      <trkpt lat="45.41499" lon="5.85467">
        <ele>698</ele>
        <time>2016-03-30T12:51:43.000Z</time>
      </trkpt>
      <trkpt lat="45.4151" lon="5.85468">
        <ele>698</ele>
        <time>2016-03-30T12:51:44.000Z</time>
      </trkpt>
      <trkpt lat="45.41527" lon="5.85461">
        <ele>696</ele>
        <time>2016-03-30T12:51:47.000Z</time>
      </trkpt>
      <trkpt lat="45.41534" lon="5.85446">
        <ele>696</ele>
        <time>2016-03-30T12:51:49.000Z</time>
      </trkpt>
      <trkpt lat="45.41536" lon="5.85429">
        <ele>696</ele>
        <time>2016-03-30T12:51:50.000Z</time>
      </trkpt>
      <trkpt lat="45.41538" lon="5.85414">
        <ele>697</ele>
        <time>2016-03-30T12:51:51.000Z</time>
      </trkpt>
      <trkpt lat="45.41538" lon="5.85402">
        <ele>698</ele>
        <time>2016-03-30T12:51:52.000Z</time>
      </trkpt>
      <trkpt lat="45.41542" lon="5.85382">
        <ele>699</ele>
        <time>2016-03-30T12:51:54.000Z</time>
      </trkpt>
      <trkpt lat="45.41545" lon="5.8536">
        <ele>701</ele>
        <time>2016-03-30T12:51:56.000Z</time>
      </trkpt>
      <trkpt lat="45.41548" lon="5.85336">
        <ele>701</ele>
        <time>2016-03-30T12:51:58.000Z</time>
      </trkpt>
      <trkpt lat="45.41551" lon="5.85315">
        <ele>702</ele>
        <time>2016-03-30T12:52:00.000Z</time>
      </trkpt>
      <trkpt lat="45.41555" lon="5.85296">
        <ele>698</ele>
        <time>2016-03-30T12:52:02.000Z</time>
      </trkpt>
      <trkpt lat="45.41557" lon="5.85282">
        <ele>697</ele>
        <time>2016-03-30T12:52:03.000Z</time>
      </trkpt>
      <trkpt lat="45.41561" lon="5.8527">
        <ele>696</ele>
        <time>2016-03-30T12:52:04.000Z</time>
      </trkpt>
      <trkpt lat="45.41566" lon="5.85254">
        <ele>695</ele>
        <time>2016-03-30T12:52:05.000Z</time>
      </trkpt>
      <trkpt lat="45.41573" lon="5.85241">
        <ele>694</ele>
        <time>2016-03-30T12:52:06.000Z</time>
      </trkpt>
      <trkpt lat="45.41583" lon="5.85228">
        <ele>697</ele>
        <time>2016-03-30T12:52:07.000Z</time>
      </trkpt>
      <trkpt lat="45.41593" lon="5.85217">
        <ele>698</ele>
        <time>2016-03-30T12:52:08.000Z</time>
      </trkpt>
      <trkpt lat="45.416" lon="5.85204">
        <ele>696</ele>
        <time>2016-03-30T12:52:09.000Z</time>
      </trkpt>
      <trkpt lat="45.41611" lon="5.85193">
        <ele>696</ele>
        <time>2016-03-30T12:52:10.000Z</time>
      </trkpt>
      <trkpt lat="45.41622" lon="5.85178">
        <ele>695</ele>
        <time>2016-03-30T12:52:11.000Z</time>
      </trkpt>
      <trkpt lat="45.41628" lon="5.85161">
        <ele>695</ele>
        <time>2016-03-30T12:52:12.000Z</time>
      </trkpt>
      <trkpt lat="45.41635" lon="5.85145">
        <ele>696</ele>
        <time>2016-03-30T12:52:13.000Z</time>
      </trkpt>
      <trkpt lat="45.41641" lon="5.85131">
        <ele>696</ele>
        <time>2016-03-30T12:52:14.000Z</time>
      </trkpt>
      <trkpt lat="45.41642" lon="5.85114">
        <ele>696</ele>
        <time>2016-03-30T12:52:15.000Z</time>
      </trkpt>
      <trkpt lat="45.41645" lon="5.85098">
        <ele>697</ele>
        <time>2016-03-30T12:52:16.000Z</time>
      </trkpt>
      <trkpt lat="45.41641" lon="5.85079">
        <ele>697</ele>
        <time>2016-03-30T12:52:17.000Z</time>
      </trkpt>
      <trkpt lat="45.41639" lon="5.85063">
        <ele>698</ele>
        <time>2016-03-30T12:52:18.000Z</time>
      </trkpt>
      <trkpt lat="45.41634" lon="5.85045">
        <ele>699</ele>
        <time>2016-03-30T12:52:19.000Z</time>
      </trkpt>
      <trkpt lat="45.41629" lon="5.85026">
        <ele>699</ele>
        <time>2016-03-30T12:52:20.000Z</time>
      </trkpt>
      <trkpt lat="45.41623" lon="5.85009">
        <ele>699</ele>
        <time>2016-03-30T12:52:21.000Z</time>
      </trkpt>
      <trkpt lat="45.41617" lon="5.84991">
        <ele>700</ele>
        <time>2016-03-30T12:52:22.000Z</time>
      </trkpt>
      <trkpt lat="45.41612" lon="5.84976">
        <ele>700</ele>
        <time>2016-03-30T12:52:23.000Z</time>
      </trkpt>
      <trkpt lat="45.41605" lon="5.84959">
        <ele>700</ele>
        <time>2016-03-30T12:52:24.000Z</time>
      </trkpt>
      <trkpt lat="45.41604" lon="5.84942">
        <ele>701</ele>
        <time>2016-03-30T12:52:25.000Z</time>
      </trkpt>
      <trkpt lat="45.41604" lon="5.84924">
        <ele>701</ele>
        <time>2016-03-30T12:52:26.000Z</time>
      </trkpt>
      <trkpt lat="45.41604" lon="5.84903">
        <ele>701</ele>
        <time>2016-03-30T12:52:27.000Z</time>
      </trkpt>
      <trkpt lat="45.41606" lon="5.84881">
        <ele>702</ele>
        <time>2016-03-30T12:52:28.000Z</time>
      </trkpt>
      <trkpt lat="45.41609" lon="5.84858">
        <ele>703</ele>
        <time>2016-03-30T12:52:29.000Z</time>
      </trkpt>
      <trkpt lat="45.41612" lon="5.84834">
        <ele>704</ele>
        <time>2016-03-30T12:52:30.000Z</time>
      </trkpt>
      <trkpt lat="45.41614" lon="5.84812">
        <ele>705</ele>
        <time>2016-03-30T12:52:31.000Z</time>
      </trkpt>
      <trkpt lat="45.41617" lon="5.84789">
        <ele>705</ele>
        <time>2016-03-30T12:52:32.000Z</time>
      </trkpt>
      <trkpt lat="45.41616" lon="5.84765">
        <ele>705</ele>
        <time>2016-03-30T12:52:33.000Z</time>
      </trkpt>
      <trkpt lat="45.41616" lon="5.84743">
        <ele>705</ele>
        <time>2016-03-30T12:52:34.000Z</time>
      </trkpt>
      <trkpt lat="45.41615" lon="5.84721">
        <ele>706</ele>
        <time>2016-03-30T12:52:35.000Z</time>
      </trkpt>
      <trkpt lat="45.41619" lon="5.84681">
        <ele>707</ele>
        <time>2016-03-30T12:52:37.000Z</time>
      </trkpt>
      <trkpt lat="45.41622" lon="5.8466">
        <ele>707</ele>
        <time>2016-03-30T12:52:38.000Z</time>
      </trkpt>
      <trkpt lat="45.41625" lon="5.84641">
        <ele>707</ele>
        <time>2016-03-30T12:52:39.000Z</time>
      </trkpt>
      <trkpt lat="45.41629" lon="5.84622">
        <ele>708</ele>
        <time>2016-03-30T12:52:40.000Z</time>
      </trkpt>
      <trkpt lat="45.41633" lon="5.84604">
        <ele>708</ele>
        <time>2016-03-30T12:52:41.000Z</time>
      </trkpt>
      <trkpt lat="45.41639" lon="5.84588">
        <ele>708</ele>
        <time>2016-03-30T12:52:42.000Z</time>
      </trkpt>
      <trkpt lat="45.41645" lon="5.8457">
        <ele>708</ele>
        <time>2016-03-30T12:52:43.000Z</time>
      </trkpt>
      <trkpt lat="45.41652" lon="5.84555">
        <ele>709</ele>
        <time>2016-03-30T12:52:44.000Z</time>
      </trkpt>
      <trkpt lat="45.41662" lon="5.84544">
        <ele>709</ele>
        <time>2016-03-30T12:52:45.000Z</time>
      </trkpt>
      <trkpt lat="45.4167" lon="5.84533">
        <ele>712</ele>
        <time>2016-03-30T12:52:46.000Z</time>
      </trkpt>
      <trkpt lat="45.41674" lon="5.84512">
        <ele>712</ele>
        <time>2016-03-30T12:52:48.000Z</time>
      </trkpt>
      <trkpt lat="45.41677" lon="5.84499">
        <ele>713</ele>
        <time>2016-03-30T12:52:49.000Z</time>
      </trkpt>
      <trkpt lat="45.41681" lon="5.84477">
        <ele>714</ele>
        <time>2016-03-30T12:52:51.000Z</time>
      </trkpt>
      <trkpt lat="45.41679" lon="5.84461">
        <ele>715</ele>
        <time>2016-03-30T12:52:52.000Z</time>
      </trkpt>
      <trkpt lat="45.4168" lon="5.84446">
        <ele>715</ele>
        <time>2016-03-30T12:52:53.000Z</time>
      </trkpt>
      <trkpt lat="45.41686" lon="5.84429">
        <ele>716</ele>
        <time>2016-03-30T12:52:54.000Z</time>
      </trkpt>
      <trkpt lat="45.4169" lon="5.8441">
        <ele>716</ele>
        <time>2016-03-30T12:52:55.000Z</time>
      </trkpt>
      <trkpt lat="45.41695" lon="5.84391">
        <ele>716</ele>
        <time>2016-03-30T12:52:56.000Z</time>
      </trkpt>
      <trkpt lat="45.417" lon="5.84374">
        <ele>716</ele>
        <time>2016-03-30T12:52:57.000Z</time>
      </trkpt>
      <trkpt lat="45.41703" lon="5.84357">
        <ele>716</ele>
        <time>2016-03-30T12:52:58.000Z</time>
      </trkpt>
      <trkpt lat="45.41707" lon="5.84342">
        <ele>717</ele>
        <time>2016-03-30T12:52:59.000Z</time>
      </trkpt>
      <trkpt lat="45.41713" lon="5.84327">
        <ele>718</ele>
        <time>2016-03-30T12:53:00.000Z</time>
      </trkpt>
      <trkpt lat="45.41721" lon="5.84317">
        <ele>718</ele>
        <time>2016-03-30T12:53:01.000Z</time>
      </trkpt>
      <trkpt lat="45.41727" lon="5.84308">
        <ele>717</ele>
        <time>2016-03-30T12:53:02.000Z</time>
      </trkpt>
      <trkpt lat="45.41737" lon="5.84283">
        <ele>718</ele>
        <time>2016-03-30T12:53:04.000Z</time>
      </trkpt>
      <trkpt lat="45.41735" lon="5.8427">
        <ele>714</ele>
        <time>2016-03-30T12:53:05.000Z</time>
      </trkpt>
      <trkpt lat="45.41748" lon="5.84249">
        <ele>713</ele>
        <time>2016-03-30T12:53:07.000Z</time>
      </trkpt>
      <trkpt lat="45.41763" lon="5.84232">
        <ele>713</ele>
        <time>2016-03-30T12:53:09.000Z</time>
      </trkpt>
      <trkpt lat="45.41777" lon="5.84229">
        <ele>713</ele>
        <time>2016-03-30T12:53:11.000Z</time>
      </trkpt>
      <trkpt lat="45.4179" lon="5.84221">
        <ele>713</ele>
        <time>2016-03-30T12:53:13.000Z</time>
      </trkpt>
      <trkpt lat="45.41792" lon="5.84201">
        <ele>714</ele>
        <time>2016-03-30T12:53:15.000Z</time>
      </trkpt>
      <trkpt lat="45.41795" lon="5.84189">
        <ele>713</ele>
        <time>2016-03-30T12:53:16.000Z</time>
      </trkpt>
      <trkpt lat="45.41792" lon="5.8417">
        <ele>714</ele>
        <time>2016-03-30T12:53:17.000Z</time>
      </trkpt>
      <trkpt lat="45.41791" lon="5.84152">
        <ele>716</ele>
        <time>2016-03-30T12:53:18.000Z</time>
      </trkpt>
      <trkpt lat="45.41791" lon="5.84135">
        <ele>715</ele>
        <time>2016-03-30T12:53:19.000Z</time>
      </trkpt>
      <trkpt lat="45.41792" lon="5.84119">
        <ele>715</ele>
        <time>2016-03-30T12:53:20.000Z</time>
      </trkpt>
      <trkpt lat="45.41797" lon="5.84106">
        <ele>716</ele>
        <time>2016-03-30T12:53:21.000Z</time>
      </trkpt>
      <trkpt lat="45.41799" lon="5.84092">
        <ele>717</ele>
        <time>2016-03-30T12:53:22.000Z</time>
      </trkpt>
      <trkpt lat="45.41797" lon="5.84078">
        <ele>717</ele>
        <time>2016-03-30T12:53:23.000Z</time>
      </trkpt>
      <trkpt lat="45.4179" lon="5.84054">
        <ele>717</ele>
        <time>2016-03-30T12:53:25.000Z</time>
      </trkpt>
      <trkpt lat="45.41785" lon="5.84039">
        <ele>718</ele>
        <time>2016-03-30T12:53:26.000Z</time>
      </trkpt>
      <trkpt lat="45.41782" lon="5.84026">
        <ele>719</ele>
        <time>2016-03-30T12:53:27.000Z</time>
      </trkpt>
      <trkpt lat="45.41803" lon="5.83692">
        <ele>720</ele>
        <time>2016-03-30T12:53:44.000Z</time>
      </trkpt>
      <trkpt lat="45.41806" lon="5.83669">
        <ele>721</ele>
        <time>2016-03-30T12:53:45.000Z</time>
      </trkpt>
      <trkpt lat="45.41814" lon="5.83657">
        <ele>723</ele>
        <time>2016-03-30T12:53:46.000Z</time>
      </trkpt>
      <trkpt lat="45.41825" lon="5.83636">
        <ele>731</ele>
        <time>2016-03-30T12:53:47.000Z</time>
      </trkpt>
      <trkpt lat="45.4183" lon="5.83619">
        <ele>730</ele>
        <time>2016-03-30T12:53:48.000Z</time>
      </trkpt>
      <trkpt lat="45.41833" lon="5.83603">
        <ele>729</ele>
        <time>2016-03-30T12:53:49.000Z</time>
      </trkpt>
      <trkpt lat="45.41835" lon="5.83588">
        <ele>728</ele>
        <time>2016-03-30T12:53:50.000Z</time>
      </trkpt>
      <trkpt lat="45.41837" lon="5.8357">
        <ele>727</ele>
        <time>2016-03-30T12:53:51.000Z</time>
      </trkpt>
      <trkpt lat="45.41845" lon="5.8356">
        <ele>728</ele>
        <time>2016-03-30T12:53:52.000Z</time>
      </trkpt>
      <trkpt lat="45.41851" lon="5.83551">
        <ele>728</ele>
        <time>2016-03-30T12:53:53.000Z</time>
      </trkpt>
      <trkpt lat="45.41855" lon="5.83538">
        <ele>728</ele>
        <time>2016-03-30T12:53:54.000Z</time>
      </trkpt>
      <trkpt lat="45.41855" lon="5.83521">
        <ele>728</ele>
        <time>2016-03-30T12:53:55.000Z</time>
      </trkpt>
      <trkpt lat="45.41856" lon="5.83508">
        <ele>729</ele>
        <time>2016-03-30T12:53:56.000Z</time>
      </trkpt>
      <trkpt lat="45.41857" lon="5.83492">
        <ele>730</ele>
        <time>2016-03-30T12:53:57.000Z</time>
      </trkpt>
      <trkpt lat="45.41853" lon="5.83476">
        <ele>730</ele>
        <time>2016-03-30T12:53:58.000Z</time>
      </trkpt>
      <trkpt lat="45.41848" lon="5.8346">
        <ele>729</ele>
        <time>2016-03-30T12:53:59.000Z</time>
      </trkpt>
      <trkpt lat="45.41839" lon="5.8344">
        <ele>728</ele>
        <time>2016-03-30T12:54:00.000Z</time>
      </trkpt>
      <trkpt lat="45.41835" lon="5.83426">
        <ele>728</ele>
        <time>2016-03-30T12:54:01.000Z</time>
      </trkpt>
      <trkpt lat="45.4183" lon="5.83401">
        <ele>728</ele>
        <time>2016-03-30T12:54:03.000Z</time>
      </trkpt>
      <trkpt lat="45.41825" lon="5.83387">
        <ele>724</ele>
        <time>2016-03-30T12:54:04.000Z</time>
      </trkpt>
      <trkpt lat="45.41827" lon="5.83374">
        <ele>727</ele>
        <time>2016-03-30T12:54:05.000Z</time>
      </trkpt>
      <trkpt lat="45.41836" lon="5.83358">
        <ele>726</ele>
        <time>2016-03-30T12:54:07.000Z</time>
      </trkpt>
      <trkpt lat="45.4185" lon="5.83357">
        <ele>727</ele>
        <time>2016-03-30T12:54:08.000Z</time>
      </trkpt>
      <trkpt lat="45.4187" lon="5.83366">
        <ele>726</ele>
        <time>2016-03-30T12:54:09.000Z</time>
      </trkpt>
      <trkpt lat="45.41882" lon="5.83367">
        <ele>727</ele>
        <time>2016-03-30T12:54:10.000Z</time>
      </trkpt>
      <trkpt lat="45.41894" lon="5.83369">
        <ele>726</ele>
        <time>2016-03-30T12:54:11.000Z</time>
      </trkpt>
      <trkpt lat="45.41903" lon="5.83373">
        <ele>726</ele>
        <time>2016-03-30T12:54:12.000Z</time>
      </trkpt>
      <trkpt lat="45.41917" lon="5.8338">
        <ele>726</ele>
        <time>2016-03-30T12:54:13.000Z</time>
      </trkpt>
      <trkpt lat="45.41926" lon="5.83388">
        <ele>725</ele>
        <time>2016-03-30T12:54:14.000Z</time>
      </trkpt>
      <trkpt lat="45.41937" lon="5.83397">
        <ele>727</ele>
        <time>2016-03-30T12:54:15.000Z</time>
      </trkpt>
      <trkpt lat="45.41948" lon="5.83407">
        <ele>727</ele>
        <time>2016-03-30T12:54:16.000Z</time>
      </trkpt>
      <trkpt lat="45.41957" lon="5.8341">
        <ele>727</ele>
        <time>2016-03-30T12:54:17.000Z</time>
      </trkpt>
      <trkpt lat="45.4197" lon="5.83411">
        <ele>731</ele>
        <time>2016-03-30T12:54:18.000Z</time>
      </trkpt>
      <trkpt lat="45.41961" lon="5.8339">
        <ele>728</ele>
        <time>2016-03-30T12:54:19.000Z</time>
      </trkpt>
      <trkpt lat="45.4196" lon="5.83369">
        <ele>727</ele>
        <time>2016-03-30T12:54:21.000Z</time>
      </trkpt>
      <trkpt lat="45.41952" lon="5.83352">
        <ele>727</ele>
        <time>2016-03-30T12:54:22.000Z</time>
      </trkpt>
      <trkpt lat="45.41948" lon="5.83339">
        <ele>726</ele>
        <time>2016-03-30T12:54:23.000Z</time>
      </trkpt>
      <trkpt lat="45.41942" lon="5.83326">
        <ele>726</ele>
        <time>2016-03-30T12:54:24.000Z</time>
      </trkpt>
      <trkpt lat="45.41939" lon="5.83313">
        <ele>726</ele>
        <time>2016-03-30T12:54:25.000Z</time>
      </trkpt>
      <trkpt lat="45.41945" lon="5.83292">
        <ele>726</ele>
        <time>2016-03-30T12:54:27.000Z</time>
      </trkpt>
      <trkpt lat="45.4194" lon="5.83268">
        <ele>725</ele>
        <time>2016-03-30T12:54:29.000Z</time>
      </trkpt>
      <trkpt lat="45.41935" lon="5.83253">
        <ele>724</ele>
        <time>2016-03-30T12:54:31.000Z</time>
      </trkpt>
      <trkpt lat="45.41935" lon="5.83238">
        <ele>722</ele>
        <time>2016-03-30T12:54:32.000Z</time>
      </trkpt>
      <trkpt lat="45.41938" lon="5.83224">
        <ele>724</ele>
        <time>2016-03-30T12:54:33.000Z</time>
      </trkpt>
      <trkpt lat="45.41942" lon="5.83206">
        <ele>724</ele>
        <time>2016-03-30T12:54:34.000Z</time>
      </trkpt>
      <trkpt lat="45.41948" lon="5.83189">
        <ele>726</ele>
        <time>2016-03-30T12:54:35.000Z</time>
      </trkpt>
      <trkpt lat="45.41951" lon="5.8317">
        <ele>727</ele>
        <time>2016-03-30T12:54:36.000Z</time>
      </trkpt>
      <trkpt lat="45.41954" lon="5.83149">
        <ele>727</ele>
        <time>2016-03-30T12:54:37.000Z</time>
      </trkpt>
      <trkpt lat="45.41959" lon="5.83129">
        <ele>727</ele>
        <time>2016-03-30T12:54:38.000Z</time>
      </trkpt>
      <trkpt lat="45.41962" lon="5.83111">
        <ele>726</ele>
        <time>2016-03-30T12:54:39.000Z</time>
      </trkpt>
      <trkpt lat="45.41963" lon="5.83092">
        <ele>726</ele>
        <time>2016-03-30T12:54:40.000Z</time>
      </trkpt>
      <trkpt lat="45.41964" lon="5.83075">
        <ele>727</ele>
        <time>2016-03-30T12:54:41.000Z</time>
      </trkpt>
      <trkpt lat="45.41966" lon="5.83059">
        <ele>727</ele>
        <time>2016-03-30T12:54:42.000Z</time>
      </trkpt>
      <trkpt lat="45.41969" lon="5.83041">
        <ele>727</ele>
        <time>2016-03-30T12:54:43.000Z</time>
      </trkpt>
      <trkpt lat="45.41973" lon="5.83023">
        <ele>728</ele>
        <time>2016-03-30T12:54:44.000Z</time>
      </trkpt>
      <trkpt lat="45.41982" lon="5.83019">
        <ele>730</ele>
        <time>2016-03-30T12:54:45.000Z</time>
      </trkpt>
      <trkpt lat="45.41991" lon="5.83012">
        <ele>732</ele>
        <time>2016-03-30T12:54:46.000Z</time>
      </trkpt>
      <trkpt lat="45.42" lon="5.83001">
        <ele>729</ele>
        <time>2016-03-30T12:54:48.000Z</time>
      </trkpt>
      <trkpt lat="45.42008" lon="5.82978">
        <ele>730</ele>
        <time>2016-03-30T12:54:50.000Z</time>
      </trkpt>
      <trkpt lat="45.42011" lon="5.82966">
        <ele>732</ele>
        <time>2016-03-30T12:54:51.000Z</time>
      </trkpt>
      <trkpt lat="45.42013" lon="5.82953">
        <ele>732</ele>
        <time>2016-03-30T12:54:52.000Z</time>
      </trkpt>
      <trkpt lat="45.42015" lon="5.82931">
        <ele>730</ele>
        <time>2016-03-30T12:54:54.000Z</time>
      </trkpt>
      <trkpt lat="45.42032" lon="5.8291">
        <ele>731</ele>
        <time>2016-03-30T12:54:56.000Z</time>
      </trkpt>
      <trkpt lat="45.4204" lon="5.82899">
        <ele>729</ele>
        <time>2016-03-30T12:54:57.000Z</time>
      </trkpt>
      <trkpt lat="45.42044" lon="5.82886">
        <ele>728</ele>
        <time>2016-03-30T12:54:58.000Z</time>
      </trkpt>
      <trkpt lat="45.42046" lon="5.82872">
        <ele>727</ele>
        <time>2016-03-30T12:54:59.000Z</time>
      </trkpt>
      <trkpt lat="45.42042" lon="5.8285">
        <ele>726</ele>
        <time>2016-03-30T12:55:00.000Z</time>
      </trkpt>
      <trkpt lat="45.42041" lon="5.8283">
        <ele>724</ele>
        <time>2016-03-30T12:55:01.000Z</time>
      </trkpt>
      <trkpt lat="45.42036" lon="5.82809">
        <ele>722</ele>
        <time>2016-03-30T12:55:02.000Z</time>
      </trkpt>
      <trkpt lat="45.42033" lon="5.82786">
        <ele>721</ele>
        <time>2016-03-30T12:55:03.000Z</time>
      </trkpt>
      <trkpt lat="45.42031" lon="5.82767">
        <ele>721</ele>
        <time>2016-03-30T12:55:04.000Z</time>
      </trkpt>
      <trkpt lat="45.42028" lon="5.82749">
        <ele>719</ele>
        <time>2016-03-30T12:55:05.000Z</time>
      </trkpt>
      <trkpt lat="45.42024" lon="5.8273">
        <ele>718</ele>
        <time>2016-03-30T12:55:06.000Z</time>
      </trkpt>
      <trkpt lat="45.42023" lon="5.82711">
        <ele>718</ele>
        <time>2016-03-30T12:55:07.000Z</time>
      </trkpt>
      <trkpt lat="45.42019" lon="5.8269">
        <ele>718</ele>
        <time>2016-03-30T12:55:08.000Z</time>
      </trkpt>
      <trkpt lat="45.42019" lon="5.82671">
        <ele>719</ele>
        <time>2016-03-30T12:55:09.000Z</time>
      </trkpt>
      <trkpt lat="45.4202" lon="5.82653">
        <ele>718</ele>
        <time>2016-03-30T12:55:10.000Z</time>
      </trkpt>
      <trkpt lat="45.42022" lon="5.82635">
        <ele>718</ele>
        <time>2016-03-30T12:55:11.000Z</time>
      </trkpt>
      <trkpt lat="45.42024" lon="5.82618">
        <ele>718</ele>
        <time>2016-03-30T12:55:12.000Z</time>
      </trkpt>
      <trkpt lat="45.42025" lon="5.82602">
        <ele>718</ele>
        <time>2016-03-30T12:55:13.000Z</time>
      </trkpt>
      <trkpt lat="45.42029" lon="5.82588">
        <ele>717</ele>
        <time>2016-03-30T12:55:14.000Z</time>
      </trkpt>
      <trkpt lat="45.42035" lon="5.82578">
        <ele>717</ele>
        <time>2016-03-30T12:55:15.000Z</time>
      </trkpt>
      <trkpt lat="45.42041" lon="5.82563">
        <ele>717</ele>
        <time>2016-03-30T12:55:16.000Z</time>
      </trkpt>
      <trkpt lat="45.42051" lon="5.82558">
        <ele>717</ele>
        <time>2016-03-30T12:55:17.000Z</time>
      </trkpt>
      <trkpt lat="45.42061" lon="5.82551">
        <ele>717</ele>
        <time>2016-03-30T12:55:18.000Z</time>
      </trkpt>
      <trkpt lat="45.4207" lon="5.82545">
        <ele>718</ele>
        <time>2016-03-30T12:55:19.000Z</time>
      </trkpt>
      <trkpt lat="45.42088" lon="5.82534">
        <ele>722</ele>
        <time>2016-03-30T12:55:21.000Z</time>
      </trkpt>
      <trkpt lat="45.42087" lon="5.82513">
        <ele>718</ele>
        <time>2016-03-30T12:55:23.000Z</time>
      </trkpt>
      <trkpt lat="45.4208" lon="5.825">
        <ele>716</ele>
        <time>2016-03-30T12:55:24.000Z</time>
      </trkpt>
      <trkpt lat="45.4207" lon="5.82483">
        <ele>719</ele>
        <time>2016-03-30T12:55:25.000Z</time>
      </trkpt>
      <trkpt lat="45.42062" lon="5.8247">
        <ele>718</ele>
        <time>2016-03-30T12:55:26.000Z</time>
      </trkpt>
      <trkpt lat="45.42053" lon="5.82454">
        <ele>720</ele>
        <time>2016-03-30T12:55:27.000Z</time>
      </trkpt>
      <trkpt lat="45.42044" lon="5.82436">
        <ele>720</ele>
        <time>2016-03-30T12:55:28.000Z</time>
      </trkpt>
      <trkpt lat="45.42035" lon="5.82422">
        <ele>718</ele>
        <time>2016-03-30T12:55:29.000Z</time>
      </trkpt>
      <trkpt lat="45.42027" lon="5.82405">
        <ele>718</ele>
        <time>2016-03-30T12:55:30.000Z</time>
      </trkpt>
      <trkpt lat="45.42019" lon="5.82392">
        <ele>716</ele>
        <time>2016-03-30T12:55:31.000Z</time>
      </trkpt>
      <trkpt lat="45.42014" lon="5.82378">
        <ele>714</ele>
        <time>2016-03-30T12:55:32.000Z</time>
      </trkpt>
      <trkpt lat="45.42007" lon="5.82365">
        <ele>714</ele>
        <time>2016-03-30T12:55:33.000Z</time>
      </trkpt>
      <trkpt lat="45.42" lon="5.82351">
        <ele>714</ele>
        <time>2016-03-30T12:55:34.000Z</time>
      </trkpt>
      <trkpt lat="45.41995" lon="5.82339">
        <ele>713</ele>
        <time>2016-03-30T12:55:35.000Z</time>
      </trkpt>
      <trkpt lat="45.41989" lon="5.82326">
        <ele>712</ele>
        <time>2016-03-30T12:55:36.000Z</time>
      </trkpt>
      <trkpt lat="45.41982" lon="5.8231">
        <ele>709</ele>
        <time>2016-03-30T12:55:38.000Z</time>
      </trkpt>
      <trkpt lat="45.41975" lon="5.82299">
        <ele>708</ele>
        <time>2016-03-30T12:55:39.000Z</time>
      </trkpt>
      <trkpt lat="45.41969" lon="5.82287">
        <ele>707</ele>
        <time>2016-03-30T12:55:40.000Z</time>
      </trkpt>
      <trkpt lat="45.4196" lon="5.82276">
        <ele>705</ele>
        <time>2016-03-30T12:55:41.000Z</time>
      </trkpt>
      <trkpt lat="45.41951" lon="5.82264">
        <ele>703</ele>
        <time>2016-03-30T12:55:42.000Z</time>
      </trkpt>
      <trkpt lat="45.41941" lon="5.82254">
        <ele>704</ele>
        <time>2016-03-30T12:55:43.000Z</time>
      </trkpt>
      <trkpt lat="45.4193" lon="5.82245">
        <ele>703</ele>
        <time>2016-03-30T12:55:44.000Z</time>
      </trkpt>
      <trkpt lat="45.41921" lon="5.82238">
        <ele>703</ele>
        <time>2016-03-30T12:55:45.000Z</time>
      </trkpt>
      <trkpt lat="45.41911" lon="5.82234">
        <ele>703</ele>
        <time>2016-03-30T12:55:46.000Z</time>
      </trkpt>
      <trkpt lat="45.41901" lon="5.82226">
        <ele>704</ele>
        <time>2016-03-30T12:55:47.000Z</time>
      </trkpt>
      <trkpt lat="45.41893" lon="5.82214">
        <ele>706</ele>
        <time>2016-03-30T12:55:48.000Z</time>
      </trkpt>
      <trkpt lat="45.41886" lon="5.82207">
        <ele>706</ele>
        <time>2016-03-30T12:55:49.000Z</time>
      </trkpt>
      <trkpt lat="45.41872" lon="5.82195">
        <ele>707</ele>
        <time>2016-03-30T12:55:51.000Z</time>
      </trkpt>
      <trkpt lat="45.41869" lon="5.82177">
        <ele>705</ele>
        <time>2016-03-30T12:55:53.000Z</time>
      </trkpt>
      <trkpt lat="45.41881" lon="5.82158">
        <ele>706</ele>
        <time>2016-03-30T12:55:54.000Z</time>
      </trkpt>
      <trkpt lat="45.41874" lon="5.82139">
        <ele>701</ele>
        <time>2016-03-30T12:55:56.000Z</time>
      </trkpt>
      <trkpt lat="45.41863" lon="5.82116">
        <ele>699</ele>
        <time>2016-03-30T12:55:58.000Z</time>
      </trkpt>
      <trkpt lat="45.41853" lon="5.82103">
        <ele>699</ele>
        <time>2016-03-30T12:55:59.000Z</time>
      </trkpt>
      <trkpt lat="45.41846" lon="5.82088">
        <ele>699</ele>
        <time>2016-03-30T12:56:00.000Z</time>
      </trkpt>
      <trkpt lat="45.4184" lon="5.82074">
        <ele>700</ele>
        <time>2016-03-30T12:56:01.000Z</time>
      </trkpt>
      <trkpt lat="45.41832" lon="5.82051">
        <ele>699</ele>
        <time>2016-03-30T12:56:03.000Z</time>
      </trkpt>
      <trkpt lat="45.41828" lon="5.82035">
        <ele>697</ele>
        <time>2016-03-30T12:56:04.000Z</time>
      </trkpt>
      <trkpt lat="45.41824" lon="5.82023">
        <ele>697</ele>
        <time>2016-03-30T12:56:05.000Z</time>
      </trkpt>
      <trkpt lat="45.41816" lon="5.82012">
        <ele>695</ele>
        <time>2016-03-30T12:56:06.000Z</time>
      </trkpt>
      <trkpt lat="45.41807" lon="5.82002">
        <ele>695</ele>
        <time>2016-03-30T12:56:07.000Z</time>
      </trkpt>
      <trkpt lat="45.41797" lon="5.81994">
        <ele>695</ele>
        <time>2016-03-30T12:56:08.000Z</time>
      </trkpt>
      <trkpt lat="45.41787" lon="5.81986">
        <ele>693</ele>
        <time>2016-03-30T12:56:09.000Z</time>
      </trkpt>
      <trkpt lat="45.4178" lon="5.81974">
        <ele>693</ele>
        <time>2016-03-30T12:56:10.000Z</time>
      </trkpt>
      <trkpt lat="45.41774" lon="5.81964">
        <ele>692</ele>
        <time>2016-03-30T12:56:11.000Z</time>
      </trkpt>
      <trkpt lat="45.41765" lon="5.81948">
        <ele>691</ele>
        <time>2016-03-30T12:56:13.000Z</time>
      </trkpt>
      <trkpt lat="45.4176" lon="5.81928">
        <ele>688</ele>
        <time>2016-03-30T12:56:15.000Z</time>
      </trkpt>
      <trkpt lat="45.41761" lon="5.81914">
        <ele>688</ele>
        <time>2016-03-30T12:56:16.000Z</time>
      </trkpt>
      <trkpt lat="45.41765" lon="5.81892">
        <ele>687</ele>
        <time>2016-03-30T12:56:18.000Z</time>
      </trkpt>
      <trkpt lat="45.41771" lon="5.8188">
        <ele>686</ele>
        <time>2016-03-30T12:56:19.000Z</time>
      </trkpt>
      <trkpt lat="45.41782" lon="5.81868">
        <ele>686</ele>
        <time>2016-03-30T12:56:20.000Z</time>
      </trkpt>
      <trkpt lat="45.4179" lon="5.81857">
        <ele>686</ele>
        <time>2016-03-30T12:56:21.000Z</time>
      </trkpt>
      <trkpt lat="45.41799" lon="5.81848">
        <ele>685</ele>
        <time>2016-03-30T12:56:22.000Z</time>
      </trkpt>
      <trkpt lat="45.41806" lon="5.81832">
        <ele>684</ele>
        <time>2016-03-30T12:56:23.000Z</time>
      </trkpt>
      <trkpt lat="45.41813" lon="5.81818">
        <ele>687</ele>
        <time>2016-03-30T12:56:24.000Z</time>
      </trkpt>
      <trkpt lat="45.41819" lon="5.81807">
        <ele>687</ele>
        <time>2016-03-30T12:56:25.000Z</time>
      </trkpt>
      <trkpt lat="45.41826" lon="5.81795">
        <ele>687</ele>
        <time>2016-03-30T12:56:26.000Z</time>
      </trkpt>
      <trkpt lat="45.41832" lon="5.81782">
        <ele>687</ele>
        <time>2016-03-30T12:56:27.000Z</time>
      </trkpt>
      <trkpt lat="45.41832" lon="5.81763">
        <ele>685</ele>
        <time>2016-03-30T12:56:28.000Z</time>
      </trkpt>
      <trkpt lat="45.41833" lon="5.81745">
        <ele>684</ele>
        <time>2016-03-30T12:56:29.000Z</time>
      </trkpt>
      <trkpt lat="45.41835" lon="5.81726">
        <ele>684</ele>
        <time>2016-03-30T12:56:30.000Z</time>
      </trkpt>
      <trkpt lat="45.41837" lon="5.81708">
        <ele>683</ele>
        <time>2016-03-30T12:56:31.000Z</time>
      </trkpt>
      <trkpt lat="45.41838" lon="5.81691">
        <ele>683</ele>
        <time>2016-03-30T12:56:32.000Z</time>
      </trkpt>
      <trkpt lat="45.41841" lon="5.81674">
        <ele>683</ele>
        <time>2016-03-30T12:56:33.000Z</time>
      </trkpt>
      <trkpt lat="45.41845" lon="5.81657">
        <ele>683</ele>
        <time>2016-03-30T12:56:34.000Z</time>
      </trkpt>
      <trkpt lat="45.41848" lon="5.81637">
        <ele>684</ele>
        <time>2016-03-30T12:56:35.000Z</time>
      </trkpt>
      <trkpt lat="45.41852" lon="5.81625">
        <ele>684</ele>
        <time>2016-03-30T12:56:36.000Z</time>
      </trkpt>
      <trkpt lat="45.41868" lon="5.81623">
        <ele>685</ele>
        <time>2016-03-30T12:56:37.000Z</time>
      </trkpt>
      <trkpt lat="45.41875" lon="5.81612">
        <ele>684</ele>
        <time>2016-03-30T12:56:38.000Z</time>
      </trkpt>
      <trkpt lat="45.41892" lon="5.81608">
        <ele>685</ele>
        <time>2016-03-30T12:56:39.000Z</time>
      </trkpt>
      <trkpt lat="45.41904" lon="5.81597">
        <ele>685</ele>
        <time>2016-03-30T12:56:40.000Z</time>
      </trkpt>
      <trkpt lat="45.41917" lon="5.81592">
        <ele>685</ele>
        <time>2016-03-30T12:56:41.000Z</time>
      </trkpt>
      <trkpt lat="45.41933" lon="5.81585">
        <ele>685</ele>
        <time>2016-03-30T12:56:42.000Z</time>
      </trkpt>
      <trkpt lat="45.4195" lon="5.81592">
        <ele>686</ele>
        <time>2016-03-30T12:56:43.000Z</time>
      </trkpt>
      <trkpt lat="45.41966" lon="5.81593">
        <ele>686</ele>
        <time>2016-03-30T12:56:44.000Z</time>
      </trkpt>
      <trkpt lat="45.4198" lon="5.81596">
        <ele>687</ele>
        <time>2016-03-30T12:56:45.000Z</time>
      </trkpt>
      <trkpt lat="45.42" lon="5.81598">
        <ele>687</ele>
        <time>2016-03-30T12:56:46.000Z</time>
      </trkpt>
      <trkpt lat="45.42011" lon="5.81599">
        <ele>687</ele>
        <time>2016-03-30T12:56:47.000Z</time>
      </trkpt>
      <trkpt lat="45.42033" lon="5.81597">
        <ele>686</ele>
        <time>2016-03-30T12:56:48.000Z</time>
      </trkpt>
      <trkpt lat="45.42053" lon="5.81601">
        <ele>687</ele>
        <time>2016-03-30T12:56:49.000Z</time>
      </trkpt>
      <trkpt lat="45.42077" lon="5.81601">
        <ele>687</ele>
        <time>2016-03-30T12:56:50.000Z</time>
      </trkpt>
      <trkpt lat="45.4209" lon="5.81595">
        <ele>686</ele>
        <time>2016-03-30T12:56:51.000Z</time>
      </trkpt>
      <trkpt lat="45.42104" lon="5.81586">
        <ele>687</ele>
        <time>2016-03-30T12:56:52.000Z</time>
      </trkpt>
      <trkpt lat="45.42118" lon="5.81586">
        <ele>687</ele>
        <time>2016-03-30T12:56:53.000Z</time>
      </trkpt>
      <trkpt lat="45.4213" lon="5.81588">
        <ele>689</ele>
        <time>2016-03-30T12:56:54.000Z</time>
      </trkpt>
      <trkpt lat="45.42142" lon="5.81587">
        <ele>687</ele>
        <time>2016-03-30T12:56:55.000Z</time>
      </trkpt>
      <trkpt lat="45.42156" lon="5.81585">
        <ele>689</ele>
        <time>2016-03-30T12:56:56.000Z</time>
      </trkpt>
      <trkpt lat="45.4217" lon="5.81576">
        <ele>686</ele>
        <time>2016-03-30T12:56:58.000Z</time>
      </trkpt>
      <trkpt lat="45.42172" lon="5.81562">
        <ele>686</ele>
        <time>2016-03-30T12:56:59.000Z</time>
      </trkpt>
      <trkpt lat="45.42172" lon="5.81549">
        <ele>685</ele>
        <time>2016-03-30T12:57:00.000Z</time>
      </trkpt>
      <trkpt lat="45.42171" lon="5.81535">
        <ele>686</ele>
        <time>2016-03-30T12:57:01.000Z</time>
      </trkpt>
      <trkpt lat="45.42169" lon="5.81516">
        <ele>685</ele>
        <time>2016-03-30T12:57:02.000Z</time>
      </trkpt>
      <trkpt lat="45.42183" lon="5.81506">
        <ele>687</ele>
        <time>2016-03-30T12:57:03.000Z</time>
      </trkpt>
      <trkpt lat="45.42193" lon="5.81489">
        <ele>687</ele>
        <time>2016-03-30T12:57:04.000Z</time>
      </trkpt>
      <trkpt lat="45.42205" lon="5.81475">
        <ele>687</ele>
        <time>2016-03-30T12:57:05.000Z</time>
      </trkpt>
      <trkpt lat="45.4221" lon="5.81455">
        <ele>688</ele>
        <time>2016-03-30T12:57:06.000Z</time>
      </trkpt>
      <trkpt lat="45.4222" lon="5.81441">
        <ele>688</ele>
        <time>2016-03-30T12:57:07.000Z</time>
      </trkpt>
      <trkpt lat="45.4223" lon="5.81432">
        <ele>686</ele>
        <time>2016-03-30T12:57:08.000Z</time>
      </trkpt>
      <trkpt lat="45.42241" lon="5.81422">
        <ele>686</ele>
        <time>2016-03-30T12:57:09.000Z</time>
      </trkpt>
      <trkpt lat="45.4225" lon="5.81409">
        <ele>685</ele>
        <time>2016-03-30T12:57:10.000Z</time>
      </trkpt>
      <trkpt lat="45.42261" lon="5.81397">
        <ele>687</ele>
        <time>2016-03-30T12:57:11.000Z</time>
      </trkpt>
      <trkpt lat="45.4227" lon="5.81382">
        <ele>687</ele>
        <time>2016-03-30T12:57:12.000Z</time>
      </trkpt>
      <trkpt lat="45.4228" lon="5.81366">
        <ele>687</ele>
        <time>2016-03-30T12:57:13.000Z</time>
      </trkpt>
      <trkpt lat="45.42291" lon="5.81353">
        <ele>686</ele>
        <time>2016-03-30T12:57:14.000Z</time>
      </trkpt>
      <trkpt lat="45.42301" lon="5.81344">
        <ele>683</ele>
        <time>2016-03-30T12:57:15.000Z</time>
      </trkpt>
      <trkpt lat="45.42312" lon="5.8133">
        <ele>684</ele>
        <time>2016-03-30T12:57:16.000Z</time>
      </trkpt>
      <trkpt lat="45.42321" lon="5.81313">
        <ele>685</ele>
        <time>2016-03-30T12:57:17.000Z</time>
      </trkpt>
      <trkpt lat="45.4233" lon="5.81299">
        <ele>685</ele>
        <time>2016-03-30T12:57:18.000Z</time>
      </trkpt>
      <trkpt lat="45.42338" lon="5.81285">
        <ele>685</ele>
        <time>2016-03-30T12:57:19.000Z</time>
      </trkpt>
      <trkpt lat="45.42347" lon="5.81272">
        <ele>685</ele>
        <time>2016-03-30T12:57:20.000Z</time>
      </trkpt>
      <trkpt lat="45.4236" lon="5.81259">
        <ele>686</ele>
        <time>2016-03-30T12:57:21.000Z</time>
      </trkpt>
      <trkpt lat="45.42373" lon="5.81247">
        <ele>686</ele>
        <time>2016-03-30T12:57:22.000Z</time>
      </trkpt>
      <trkpt lat="45.42389" lon="5.81234">
        <ele>687</ele>
        <time>2016-03-30T12:57:23.000Z</time>
      </trkpt>
      <trkpt lat="45.4241" lon="5.8123">
        <ele>688</ele>
        <time>2016-03-30T12:57:24.000Z</time>
      </trkpt>
      <trkpt lat="45.42415" lon="5.8125">
        <ele>689</ele>
        <time>2016-03-30T12:57:25.000Z</time>
      </trkpt>
      <trkpt lat="45.42426" lon="5.81251">
        <ele>689</ele>
        <time>2016-03-30T12:57:26.000Z</time>
      </trkpt>
      <trkpt lat="45.42435" lon="5.8124">
        <ele>690</ele>
        <time>2016-03-30T12:57:28.000Z</time>
      </trkpt>
      <trkpt lat="45.42424" lon="5.81213">
        <ele>690</ele>
        <time>2016-03-30T12:57:29.000Z</time>
      </trkpt>
      <trkpt lat="45.4242" lon="5.81198">
        <ele>692</ele>
        <time>2016-03-30T12:57:30.000Z</time>
      </trkpt>
      <trkpt lat="45.42414" lon="5.81179">
        <ele>694</ele>
        <time>2016-03-30T12:57:31.000Z</time>
      </trkpt>
      <trkpt lat="45.42408" lon="5.8116">
        <ele>694</ele>
        <time>2016-03-30T12:57:32.000Z</time>
      </trkpt>
      <trkpt lat="45.42408" lon="5.81139">
        <ele>694</ele>
        <time>2016-03-30T12:57:33.000Z</time>
      </trkpt>
      <trkpt lat="45.42409" lon="5.81118">
        <ele>696</ele>
        <time>2016-03-30T12:57:34.000Z</time>
      </trkpt>
      <trkpt lat="45.42413" lon="5.81097">
        <ele>694</ele>
        <time>2016-03-30T12:57:35.000Z</time>
      </trkpt>
      <trkpt lat="45.42418" lon="5.81079">
        <ele>694</ele>
        <time>2016-03-30T12:57:36.000Z</time>
      </trkpt>
      <trkpt lat="45.42422" lon="5.81067">
        <ele>695</ele>
        <time>2016-03-30T12:57:37.000Z</time>
      </trkpt>
      <trkpt lat="45.42437" lon="5.81053">
        <ele>695</ele>
        <time>2016-03-30T12:57:39.000Z</time>
      </trkpt>
      <trkpt lat="45.4245" lon="5.81051">
        <ele>695</ele>
        <time>2016-03-30T12:57:40.000Z</time>
      </trkpt>
      <trkpt lat="45.42462" lon="5.81049">
        <ele>696</ele>
        <time>2016-03-30T12:57:41.000Z</time>
      </trkpt>
      <trkpt lat="45.42475" lon="5.81049">
        <ele>696</ele>
        <time>2016-03-30T12:57:42.000Z</time>
      </trkpt>
      <trkpt lat="45.42489" lon="5.81045">
        <ele>695</ele>
        <time>2016-03-30T12:57:44.000Z</time>
      </trkpt>
      <trkpt lat="45.425" lon="5.81041">
        <ele>697</ele>
        <time>2016-03-30T12:57:45.000Z</time>
      </trkpt>
      <trkpt lat="45.42503" lon="5.81025">
        <ele>696</ele>
        <time>2016-03-30T12:57:46.000Z</time>
      </trkpt>
      <trkpt lat="45.42508" lon="5.81013">
        <ele>696</ele>
        <time>2016-03-30T12:57:47.000Z</time>
      </trkpt>
      <trkpt lat="45.4251" lon="5.80991">
        <ele>697</ele>
        <time>2016-03-30T12:57:49.000Z</time>
      </trkpt>
      <trkpt lat="45.4251" lon="5.80976">
        <ele>698</ele>
        <time>2016-03-30T12:57:50.000Z</time>
      </trkpt>
      <trkpt lat="45.42509" lon="5.80963">
        <ele>696</ele>
        <time>2016-03-30T12:57:51.000Z</time>
      </trkpt>
      <trkpt lat="45.42508" lon="5.80949">
        <ele>696</ele>
        <time>2016-03-30T12:57:52.000Z</time>
      </trkpt>
      <trkpt lat="45.42508" lon="5.80928">
        <ele>699</ele>
        <time>2016-03-30T12:57:54.000Z</time>
      </trkpt>
      <trkpt lat="45.42514" lon="5.80903">
        <ele>699</ele>
        <time>2016-03-30T12:57:56.000Z</time>
      </trkpt>
      <trkpt lat="45.42518" lon="5.8089">
        <ele>699</ele>
        <time>2016-03-30T12:57:57.000Z</time>
      </trkpt>
      <trkpt lat="45.42522" lon="5.80877">
        <ele>699</ele>
        <time>2016-03-30T12:57:58.000Z</time>
      </trkpt>
      <trkpt lat="45.42529" lon="5.80865">
        <ele>699</ele>
        <time>2016-03-30T12:57:59.000Z</time>
      </trkpt>
      <trkpt lat="45.42532" lon="5.80853">
        <ele>699</ele>
        <time>2016-03-30T12:58:00.000Z</time>
      </trkpt>
      <trkpt lat="45.42535" lon="5.80838">
        <ele>699</ele>
        <time>2016-03-30T12:58:01.000Z</time>
      </trkpt>
      <trkpt lat="45.42539" lon="5.80823">
        <ele>699</ele>
        <time>2016-03-30T12:58:02.000Z</time>
      </trkpt>
      <trkpt lat="45.42542" lon="5.80811">
        <ele>699</ele>
        <time>2016-03-30T12:58:03.000Z</time>
      </trkpt>
      <trkpt lat="45.42532" lon="5.80694">
        <ele>720</ele>
        <time>2016-03-30T12:58:10.000Z</time>
      </trkpt>
      <trkpt lat="45.42532" lon="5.80668">
        <ele>718</ele>
        <time>2016-03-30T12:58:11.000Z</time>
      </trkpt>
      <trkpt lat="45.42534" lon="5.8065">
        <ele>716</ele>
        <time>2016-03-30T12:58:12.000Z</time>
      </trkpt>
      <trkpt lat="45.42529" lon="5.80639">
        <ele>714</ele>
        <time>2016-03-30T12:58:13.000Z</time>
      </trkpt>
      <trkpt lat="45.42524" lon="5.80625">
        <ele>711</ele>
        <time>2016-03-30T12:58:14.000Z</time>
      </trkpt>
      <trkpt lat="45.42521" lon="5.80608">
        <ele>710</ele>
        <time>2016-03-30T12:58:15.000Z</time>
      </trkpt>
      <trkpt lat="45.42512" lon="5.80601">
        <ele>707</ele>
        <time>2016-03-30T12:58:16.000Z</time>
      </trkpt>
      <trkpt lat="45.42511" lon="5.80584">
        <ele>707</ele>
        <time>2016-03-30T12:58:17.000Z</time>
      </trkpt>
      <trkpt lat="45.4251" lon="5.80567">
        <ele>706</ele>
        <time>2016-03-30T12:58:18.000Z</time>
      </trkpt>
      <trkpt lat="45.42508" lon="5.8055">
        <ele>703</ele>
        <time>2016-03-30T12:58:19.000Z</time>
      </trkpt>
      <trkpt lat="45.42507" lon="5.80534">
        <ele>703</ele>
        <time>2016-03-30T12:58:20.000Z</time>
      </trkpt>
      <trkpt lat="45.42507" lon="5.80516">
        <ele>704</ele>
        <time>2016-03-30T12:58:21.000Z</time>
      </trkpt>
      <trkpt lat="45.42505" lon="5.80502">
        <ele>700</ele>
        <time>2016-03-30T12:58:22.000Z</time>
      </trkpt>
      <trkpt lat="45.42508" lon="5.80486">
        <ele>699</ele>
        <time>2016-03-30T12:58:23.000Z</time>
      </trkpt>
      <trkpt lat="45.42511" lon="5.80471">
        <ele>698</ele>
        <time>2016-03-30T12:58:24.000Z</time>
      </trkpt>
      <trkpt lat="45.42523" lon="5.80469">
        <ele>696</ele>
        <time>2016-03-30T12:58:26.000Z</time>
      </trkpt>
      <trkpt lat="45.4254" lon="5.80459">
        <ele>696</ele>
        <time>2016-03-30T12:58:28.000Z</time>
      </trkpt>
      <trkpt lat="45.4255" lon="5.80452">
        <ele>695</ele>
        <time>2016-03-30T12:58:29.000Z</time>
      </trkpt>
      <trkpt lat="45.42559" lon="5.80445">
        <ele>693</ele>
        <time>2016-03-30T12:58:30.000Z</time>
      </trkpt>
      <trkpt lat="45.42566" lon="5.80434">
        <ele>692</ele>
        <time>2016-03-30T12:58:31.000Z</time>
      </trkpt>
      <trkpt lat="45.42574" lon="5.80421">
        <ele>691</ele>
        <time>2016-03-30T12:58:32.000Z</time>
      </trkpt>
      <trkpt lat="45.4258" lon="5.80388">
        <ele>689</ele>
        <time>2016-03-30T12:58:33.000Z</time>
      </trkpt>
      <trkpt lat="45.42587" lon="5.8037">
        <ele>688</ele>
        <time>2016-03-30T12:58:34.000Z</time>
      </trkpt>
      <trkpt lat="45.42592" lon="5.80351">
        <ele>686</ele>
        <time>2016-03-30T12:58:35.000Z</time>
      </trkpt>
      <trkpt lat="45.426" lon="5.8033">
        <ele>686</ele>
        <time>2016-03-30T12:58:36.000Z</time>
      </trkpt>
      <trkpt lat="45.42606" lon="5.80308">
        <ele>685</ele>
        <time>2016-03-30T12:58:37.000Z</time>
      </trkpt>
      <trkpt lat="45.42613" lon="5.80289">
        <ele>685</ele>
        <time>2016-03-30T12:58:38.000Z</time>
      </trkpt>
      <trkpt lat="45.42621" lon="5.80272">
        <ele>685</ele>
        <time>2016-03-30T12:58:39.000Z</time>
      </trkpt>
      <trkpt lat="45.42629" lon="5.80253">
        <ele>683</ele>
        <time>2016-03-30T12:58:40.000Z</time>
      </trkpt>
      <trkpt lat="45.42637" lon="5.80236">
        <ele>681</ele>
        <time>2016-03-30T12:58:41.000Z</time>
      </trkpt>
      <trkpt lat="45.4265" lon="5.80229">
        <ele>680</ele>
        <time>2016-03-30T12:58:42.000Z</time>
      </trkpt>
      <trkpt lat="45.4266" lon="5.80219">
        <ele>679</ele>
        <time>2016-03-30T12:58:43.000Z</time>
      </trkpt>
      <trkpt lat="45.42673" lon="5.8021">
        <ele>679</ele>
        <time>2016-03-30T12:58:44.000Z</time>
      </trkpt>
      <trkpt lat="45.42704" lon="5.80206">
        <ele>678</ele>
        <time>2016-03-30T12:58:46.000Z</time>
      </trkpt>
      <trkpt lat="45.4272" lon="5.80206">
        <ele>679</ele>
        <time>2016-03-30T12:58:47.000Z</time>
      </trkpt>
      <trkpt lat="45.42736" lon="5.80202">
        <ele>679</ele>
        <time>2016-03-30T12:58:48.000Z</time>
      </trkpt>
      <trkpt lat="45.42749" lon="5.80198">
        <ele>679</ele>
        <time>2016-03-30T12:58:49.000Z</time>
      </trkpt>
      <trkpt lat="45.4276" lon="5.80194">
        <ele>679</ele>
        <time>2016-03-30T12:58:50.000Z</time>
      </trkpt>
      <trkpt lat="45.42773" lon="5.80191">
        <ele>679</ele>
        <time>2016-03-30T12:58:51.000Z</time>
      </trkpt>
      <trkpt lat="45.42787" lon="5.80186">
        <ele>678</ele>
        <time>2016-03-30T12:58:52.000Z</time>
      </trkpt>
      <trkpt lat="45.42814" lon="5.80168">
        <ele>678</ele>
        <time>2016-03-30T12:58:54.000Z</time>
      </trkpt>
      <trkpt lat="45.42827" lon="5.80153">
        <ele>678</ele>
        <time>2016-03-30T12:58:55.000Z</time>
      </trkpt>
      <trkpt lat="45.42854" lon="5.80138">
        <ele>679</ele>
        <time>2016-03-30T12:58:57.000Z</time>
      </trkpt>
      <trkpt lat="45.42865" lon="5.80129">
        <ele>678</ele>
        <time>2016-03-30T12:58:58.000Z</time>
      </trkpt>
      <trkpt lat="45.42877" lon="5.8012">
        <ele>677</ele>
        <time>2016-03-30T12:58:59.000Z</time>
      </trkpt>
      <trkpt lat="45.42906" lon="5.80101">
        <ele>676</ele>
        <time>2016-03-30T12:59:01.000Z</time>
      </trkpt>
      <trkpt lat="45.4292" lon="5.80093">
        <ele>676</ele>
        <time>2016-03-30T12:59:02.000Z</time>
      </trkpt>
      <trkpt lat="45.42934" lon="5.80087">
        <ele>674</ele>
        <time>2016-03-30T12:59:03.000Z</time>
      </trkpt>
      <trkpt lat="45.42952" lon="5.80085">
        <ele>674</ele>
        <time>2016-03-30T12:59:04.000Z</time>
      </trkpt>
      <trkpt lat="45.42973" lon="5.80086">
        <ele>673</ele>
        <time>2016-03-30T12:59:05.000Z</time>
      </trkpt>
      <trkpt lat="45.43007" lon="5.80085">
        <ele>672</ele>
        <time>2016-03-30T12:59:07.000Z</time>
      </trkpt>
      <trkpt lat="45.43023" lon="5.80084">
        <ele>671</ele>
        <time>2016-03-30T12:59:08.000Z</time>
      </trkpt>
      <trkpt lat="45.43041" lon="5.80076">
        <ele>671</ele>
        <time>2016-03-30T12:59:09.000Z</time>
      </trkpt>
      <trkpt lat="45.43053" lon="5.80076">
        <ele>670</ele>
        <time>2016-03-30T12:59:10.000Z</time>
      </trkpt>
      <trkpt lat="45.4308" lon="5.80068">
        <ele>664</ele>
        <time>2016-03-30T12:59:13.000Z</time>
      </trkpt>
      <trkpt lat="45.4309" lon="5.80065">
        <ele>660</ele>
        <time>2016-03-30T12:59:14.000Z</time>
      </trkpt>
      <trkpt lat="45.43099" lon="5.80045">
        <ele>658</ele>
        <time>2016-03-30T12:59:15.000Z</time>
      </trkpt>
      <trkpt lat="45.43107" lon="5.80028">
        <ele>656</ele>
        <time>2016-03-30T12:59:16.000Z</time>
      </trkpt>
      <trkpt lat="45.43116" lon="5.80011">
        <ele>654</ele>
        <time>2016-03-30T12:59:17.000Z</time>
      </trkpt>
      <trkpt lat="45.43124" lon="5.79992">
        <ele>653</ele>
        <time>2016-03-30T12:59:18.000Z</time>
      </trkpt>
      <trkpt lat="45.43127" lon="5.7997">
        <ele>651</ele>
        <time>2016-03-30T12:59:19.000Z</time>
      </trkpt>
      <trkpt lat="45.43142" lon="5.79931">
        <ele>649</ele>
        <time>2016-03-30T12:59:21.000Z</time>
      </trkpt>
      <trkpt lat="45.43152" lon="5.79914">
        <ele>649</ele>
        <time>2016-03-30T12:59:22.000Z</time>
      </trkpt>
      <trkpt lat="45.43156" lon="5.79894">
        <ele>648</ele>
        <time>2016-03-30T12:59:23.000Z</time>
      </trkpt>
      <trkpt lat="45.43163" lon="5.79875">
        <ele>645</ele>
        <time>2016-03-30T12:59:24.000Z</time>
      </trkpt>
      <trkpt lat="45.43171" lon="5.79854">
        <ele>644</ele>
        <time>2016-03-30T12:59:25.000Z</time>
      </trkpt>
      <trkpt lat="45.43193" lon="5.79832">
        <ele>639</ele>
        <time>2016-03-30T12:59:27.000Z</time>
      </trkpt>
      <trkpt lat="45.43207" lon="5.79825">
        <ele>638</ele>
        <time>2016-03-30T12:59:28.000Z</time>
      </trkpt>
      <trkpt lat="45.43221" lon="5.79819">
        <ele>638</ele>
        <time>2016-03-30T12:59:29.000Z</time>
      </trkpt>
      <trkpt lat="45.43234" lon="5.7982">
        <ele>638</ele>
        <time>2016-03-30T12:59:30.000Z</time>
      </trkpt>
      <trkpt lat="45.43248" lon="5.79821">
        <ele>637</ele>
        <time>2016-03-30T12:59:31.000Z</time>
      </trkpt>
      <trkpt lat="45.4326" lon="5.79822">
        <ele>637</ele>
        <time>2016-03-30T12:59:32.000Z</time>
      </trkpt>
      <trkpt lat="45.43271" lon="5.79827">
        <ele>637</ele>
        <time>2016-03-30T12:59:33.000Z</time>
      </trkpt>
      <trkpt lat="45.4328" lon="5.79829">
        <ele>637</ele>
        <time>2016-03-30T12:59:34.000Z</time>
      </trkpt>
      <trkpt lat="45.43291" lon="5.79831">
        <ele>636</ele>
        <time>2016-03-30T12:59:35.000Z</time>
      </trkpt>
      <trkpt lat="45.433" lon="5.79836">
        <ele>634</ele>
        <time>2016-03-30T12:59:36.000Z</time>
      </trkpt>
      <trkpt lat="45.43316" lon="5.79839">
        <ele>634</ele>
        <time>2016-03-30T12:59:38.000Z</time>
      </trkpt>
      <trkpt lat="45.43331" lon="5.7983">
        <ele>630</ele>
        <time>2016-03-30T12:59:40.000Z</time>
      </trkpt>
      <trkpt lat="45.43341" lon="5.79814">
        <ele>627</ele>
        <time>2016-03-30T12:59:42.000Z</time>
      </trkpt>
      <trkpt lat="45.4333" lon="5.79793">
        <ele>621</ele>
        <time>2016-03-30T12:59:43.000Z</time>
      </trkpt>
      <trkpt lat="45.43319" lon="5.79772">
        <ele>618</ele>
        <time>2016-03-30T12:59:44.000Z</time>
      </trkpt>
      <trkpt lat="45.43309" lon="5.79756">
        <ele>617</ele>
        <time>2016-03-30T12:59:45.000Z</time>
      </trkpt>
      <trkpt lat="45.43298" lon="5.79738">
        <ele>617</ele>
        <time>2016-03-30T12:59:46.000Z</time>
      </trkpt>
      <trkpt lat="45.43281" lon="5.79724">
        <ele>616</ele>
        <time>2016-03-30T12:59:47.000Z</time>
      </trkpt>
      <trkpt lat="45.43266" lon="5.7971">
        <ele>616</ele>
        <time>2016-03-30T12:59:48.000Z</time>
      </trkpt>
      <trkpt lat="45.43249" lon="5.79698">
        <ele>615</ele>
        <time>2016-03-30T12:59:49.000Z</time>
      </trkpt>
      <trkpt lat="45.43231" lon="5.79689">
        <ele>615</ele>
        <time>2016-03-30T12:59:50.000Z</time>
      </trkpt>
      <trkpt lat="45.43214" lon="5.79677">
        <ele>615</ele>
        <time>2016-03-30T12:59:51.000Z</time>
      </trkpt>
      <trkpt lat="45.43182" lon="5.79658">
        <ele>614</ele>
        <time>2016-03-30T12:59:53.000Z</time>
      </trkpt>
      <trkpt lat="45.43168" lon="5.79648">
        <ele>614</ele>
        <time>2016-03-30T12:59:54.000Z</time>
      </trkpt>
      <trkpt lat="45.43155" lon="5.79638">
        <ele>620</ele>
        <time>2016-03-30T12:59:55.000Z</time>
      </trkpt>
      <trkpt lat="45.43144" lon="5.79628">
        <ele>620</ele>
        <time>2016-03-30T12:59:56.000Z</time>
      </trkpt>
      <trkpt lat="45.43133" lon="5.79617">
        <ele>619</ele>
        <time>2016-03-30T12:59:57.000Z</time>
      </trkpt>
      <trkpt lat="45.43124" lon="5.79607">
        <ele>617</ele>
        <time>2016-03-30T12:59:58.000Z</time>
      </trkpt>
      <trkpt lat="45.43116" lon="5.79596">
        <ele>617</ele>
        <time>2016-03-30T12:59:59.000Z</time>
      </trkpt>
      <trkpt lat="45.43109" lon="5.79584">
        <ele>616</ele>
        <time>2016-03-30T13:00:00.000Z</time>
      </trkpt>
      <trkpt lat="45.43103" lon="5.7957">
        <ele>616</ele>
        <time>2016-03-30T13:00:01.000Z</time>
      </trkpt>
      <trkpt lat="45.43098" lon="5.7955">
        <ele>617</ele>
        <time>2016-03-30T13:00:02.000Z</time>
      </trkpt>
      <trkpt lat="45.43097" lon="5.79533">
        <ele>614</ele>
        <time>2016-03-30T13:00:03.000Z</time>
      </trkpt>
      <trkpt lat="45.43093" lon="5.79514">
        <ele>613</ele>
        <time>2016-03-30T13:00:04.000Z</time>
      </trkpt>
      <trkpt lat="45.4309" lon="5.79495">
        <ele>613</ele>
        <time>2016-03-30T13:00:05.000Z</time>
      </trkpt>
      <trkpt lat="45.43087" lon="5.79477">
        <ele>613</ele>
        <time>2016-03-30T13:00:06.000Z</time>
      </trkpt>
      <trkpt lat="45.43084" lon="5.79446">
        <ele>609</ele>
        <time>2016-03-30T13:00:08.000Z</time>
      </trkpt>
      <trkpt lat="45.43084" lon="5.79428">
        <ele>611</ele>
        <time>2016-03-30T13:00:09.000Z</time>
      </trkpt>
      <trkpt lat="45.43085" lon="5.7941">
        <ele>612</ele>
        <time>2016-03-30T13:00:10.000Z</time>
      </trkpt>
      <trkpt lat="45.43086" lon="5.79392">
        <ele>612</ele>
        <time>2016-03-30T13:00:11.000Z</time>
      </trkpt>
      <trkpt lat="45.43087" lon="5.79374">
        <ele>612</ele>
        <time>2016-03-30T13:00:12.000Z</time>
      </trkpt>
      <trkpt lat="45.4309" lon="5.79356">
        <ele>613</ele>
        <time>2016-03-30T13:00:13.000Z</time>
      </trkpt>
      <trkpt lat="45.43094" lon="5.79337">
        <ele>613</ele>
        <time>2016-03-30T13:00:14.000Z</time>
      </trkpt>
      <trkpt lat="45.43098" lon="5.7932">
        <ele>613</ele>
        <time>2016-03-30T13:00:15.000Z</time>
      </trkpt>
      <trkpt lat="45.43103" lon="5.79301">
        <ele>613</ele>
        <time>2016-03-30T13:00:16.000Z</time>
      </trkpt>
      <trkpt lat="45.43107" lon="5.79282">
        <ele>614</ele>
        <time>2016-03-30T13:00:17.000Z</time>
      </trkpt>
      <trkpt lat="45.43112" lon="5.79264">
        <ele>613</ele>
        <time>2016-03-30T13:00:18.000Z</time>
      </trkpt>
      <trkpt lat="45.43116" lon="5.79247">
        <ele>612</ele>
        <time>2016-03-30T13:00:19.000Z</time>
      </trkpt>
      <trkpt lat="45.43121" lon="5.79228">
        <ele>612</ele>
        <time>2016-03-30T13:00:20.000Z</time>
      </trkpt>
      <trkpt lat="45.43125" lon="5.79208">
        <ele>613</ele>
        <time>2016-03-30T13:00:21.000Z</time>
      </trkpt>
      <trkpt lat="45.43129" lon="5.7919">
        <ele>611</ele>
        <time>2016-03-30T13:00:22.000Z</time>
      </trkpt>
      <trkpt lat="45.43134" lon="5.79172">
        <ele>612</ele>
        <time>2016-03-30T13:00:23.000Z</time>
      </trkpt>
      <trkpt lat="45.43138" lon="5.79153">
        <ele>612</ele>
        <time>2016-03-30T13:00:24.000Z</time>
      </trkpt>
      <trkpt lat="45.4314" lon="5.7911">
        <ele>611</ele>
        <time>2016-03-30T13:00:26.000Z</time>
      </trkpt>
      <trkpt lat="45.43139" lon="5.79088">
        <ele>609</ele>
        <time>2016-03-30T13:00:27.000Z</time>
      </trkpt>
      <trkpt lat="45.43136" lon="5.79065">
        <ele>608</ele>
        <time>2016-03-30T13:00:28.000Z</time>
      </trkpt>
      <trkpt lat="45.43134" lon="5.79045">
        <ele>607</ele>
        <time>2016-03-30T13:00:29.000Z</time>
      </trkpt>
      <trkpt lat="45.43132" lon="5.79025">
        <ele>607</ele>
        <time>2016-03-30T13:00:30.000Z</time>
      </trkpt>
      <trkpt lat="45.43129" lon="5.79007">
        <ele>606</ele>
        <time>2016-03-30T13:00:31.000Z</time>
      </trkpt>
      <trkpt lat="45.43124" lon="5.7899">
        <ele>605</ele>
        <time>2016-03-30T13:00:32.000Z</time>
      </trkpt>
      <trkpt lat="45.43119" lon="5.78974">
        <ele>605</ele>
        <time>2016-03-30T13:00:33.000Z</time>
      </trkpt>
      <trkpt lat="45.43111" lon="5.78962">
        <ele>604</ele>
        <time>2016-03-30T13:00:34.000Z</time>
      </trkpt>
      <trkpt lat="45.43102" lon="5.78949">
        <ele>604</ele>
        <time>2016-03-30T13:00:35.000Z</time>
      </trkpt>
      <trkpt lat="45.43092" lon="5.78937">
        <ele>604</ele>
        <time>2016-03-30T13:00:36.000Z</time>
      </trkpt>
      <trkpt lat="45.43081" lon="5.78923">
        <ele>604</ele>
        <time>2016-03-30T13:00:37.000Z</time>
      </trkpt>
      <trkpt lat="45.43071" lon="5.7891">
        <ele>603</ele>
        <time>2016-03-30T13:00:38.000Z</time>
      </trkpt>
      <trkpt lat="45.43061" lon="5.78897">
        <ele>602</ele>
        <time>2016-03-30T13:00:39.000Z</time>
      </trkpt>
      <trkpt lat="45.43052" lon="5.78884">
        <ele>601</ele>
        <time>2016-03-30T13:00:40.000Z</time>
      </trkpt>
      <trkpt lat="45.43046" lon="5.78873">
        <ele>600</ele>
        <time>2016-03-30T13:00:41.000Z</time>
      </trkpt>
      <trkpt lat="45.43031" lon="5.78847">
        <ele>600</ele>
        <time>2016-03-30T13:00:43.000Z</time>
      </trkpt>
      <trkpt lat="45.43024" lon="5.7883">
        <ele>601</ele>
        <time>2016-03-30T13:00:44.000Z</time>
      </trkpt>
      <trkpt lat="45.43031" lon="5.78809">
        <ele>598</ele>
        <time>2016-03-30T13:00:45.000Z</time>
      </trkpt>
      <trkpt lat="45.43034" lon="5.78791">
        <ele>597</ele>
        <time>2016-03-30T13:00:46.000Z</time>
      </trkpt>
      <trkpt lat="45.43039" lon="5.78774">
        <ele>597</ele>
        <time>2016-03-30T13:00:47.000Z</time>
      </trkpt>
      <trkpt lat="45.4304" lon="5.78757">
        <ele>596</ele>
        <time>2016-03-30T13:00:48.000Z</time>
      </trkpt>
      <trkpt lat="45.43037" lon="5.78741">
        <ele>595</ele>
        <time>2016-03-30T13:00:49.000Z</time>
      </trkpt>
      <trkpt lat="45.43034" lon="5.78723">
        <ele>594</ele>
        <time>2016-03-30T13:00:50.000Z</time>
      </trkpt>
      <trkpt lat="45.43031" lon="5.78702">
        <ele>593</ele>
        <time>2016-03-30T13:00:51.000Z</time>
      </trkpt>
      <trkpt lat="45.43025" lon="5.78687">
        <ele>591</ele>
        <time>2016-03-30T13:00:52.000Z</time>
      </trkpt>
      <trkpt lat="45.43014" lon="5.78669">
        <ele>590</ele>
        <time>2016-03-30T13:00:53.000Z</time>
      </trkpt>
      <trkpt lat="45.43005" lon="5.78654">
        <ele>589</ele>
        <time>2016-03-30T13:00:54.000Z</time>
      </trkpt>
      <trkpt lat="45.42999" lon="5.78638">
        <ele>588</ele>
        <time>2016-03-30T13:00:55.000Z</time>
      </trkpt>
      <trkpt lat="45.42993" lon="5.78622">
        <ele>587</ele>
        <time>2016-03-30T13:00:56.000Z</time>
      </trkpt>
      <trkpt lat="45.42992" lon="5.78602">
        <ele>587</ele>
        <time>2016-03-30T13:00:57.000Z</time>
      </trkpt>
      <trkpt lat="45.42992" lon="5.78579">
        <ele>585</ele>
        <time>2016-03-30T13:00:58.000Z</time>
      </trkpt>
      <trkpt lat="45.42995" lon="5.78557">
        <ele>587</ele>
        <time>2016-03-30T13:00:59.000Z</time>
      </trkpt>
      <trkpt lat="45.42997" lon="5.78535">
        <ele>585</ele>
        <time>2016-03-30T13:01:00.000Z</time>
      </trkpt>
      <trkpt lat="45.42998" lon="5.78514">
        <ele>585</ele>
        <time>2016-03-30T13:01:01.000Z</time>
      </trkpt>
      <trkpt lat="45.42999" lon="5.78494">
        <ele>585</ele>
        <time>2016-03-30T13:01:02.000Z</time>
      </trkpt>
      <trkpt lat="45.42999" lon="5.78476">
        <ele>585</ele>
        <time>2016-03-30T13:01:03.000Z</time>
      </trkpt>
      <trkpt lat="45.42999" lon="5.78459">
        <ele>585</ele>
        <time>2016-03-30T13:01:04.000Z</time>
      </trkpt>
      <trkpt lat="45.42999" lon="5.78443">
        <ele>585</ele>
        <time>2016-03-30T13:01:05.000Z</time>
      </trkpt>
      <trkpt lat="45.42999" lon="5.78428">
        <ele>586</ele>
        <time>2016-03-30T13:01:06.000Z</time>
      </trkpt>
      <trkpt lat="45.42999" lon="5.78413">
        <ele>594</ele>
        <time>2016-03-30T13:01:07.000Z</time>
      </trkpt>
      <trkpt lat="45.42997" lon="5.78396">
        <ele>592</ele>
        <time>2016-03-30T13:01:08.000Z</time>
      </trkpt>
      <trkpt lat="45.42993" lon="5.78378">
        <ele>590</ele>
        <time>2016-03-30T13:01:09.000Z</time>
      </trkpt>
      <trkpt lat="45.42989" lon="5.78362">
        <ele>588</ele>
        <time>2016-03-30T13:01:10.000Z</time>
      </trkpt>
      <trkpt lat="45.42985" lon="5.78347">
        <ele>586</ele>
        <time>2016-03-30T13:01:11.000Z</time>
      </trkpt>
      <trkpt lat="45.42982" lon="5.78331">
        <ele>586</ele>
        <time>2016-03-30T13:01:12.000Z</time>
      </trkpt>
      <trkpt lat="45.42984" lon="5.78315">
        <ele>585</ele>
        <time>2016-03-30T13:01:13.000Z</time>
      </trkpt>
      <trkpt lat="45.42986" lon="5.78296">
        <ele>583</ele>
        <time>2016-03-30T13:01:14.000Z</time>
      </trkpt>
      <trkpt lat="45.42987" lon="5.78277">
        <ele>581</ele>
        <time>2016-03-30T13:01:15.000Z</time>
      </trkpt>
      <trkpt lat="45.42989" lon="5.78258">
        <ele>580</ele>
        <time>2016-03-30T13:01:16.000Z</time>
      </trkpt>
      <trkpt lat="45.4299" lon="5.78238">
        <ele>578</ele>
        <time>2016-03-30T13:01:17.000Z</time>
      </trkpt>
      <trkpt lat="45.4299" lon="5.78219">
        <ele>577</ele>
        <time>2016-03-30T13:01:18.000Z</time>
      </trkpt>
      <trkpt lat="45.4299" lon="5.78199">
        <ele>576</ele>
        <time>2016-03-30T13:01:19.000Z</time>
      </trkpt>
      <trkpt lat="45.42988" lon="5.7818">
        <ele>576</ele>
        <time>2016-03-30T13:01:20.000Z</time>
      </trkpt>
      <trkpt lat="45.42987" lon="5.78161">
        <ele>575</ele>
        <time>2016-03-30T13:01:21.000Z</time>
      </trkpt>
      <trkpt lat="45.42985" lon="5.78144">
        <ele>575</ele>
        <time>2016-03-30T13:01:22.000Z</time>
      </trkpt>
      <trkpt lat="45.42979" lon="5.78128">
        <ele>573</ele>
        <time>2016-03-30T13:01:23.000Z</time>
      </trkpt>
      <trkpt lat="45.42971" lon="5.78113">
        <ele>572</ele>
        <time>2016-03-30T13:01:24.000Z</time>
      </trkpt>
      <trkpt lat="45.42961" lon="5.78099">
        <ele>571</ele>
        <time>2016-03-30T13:01:25.000Z</time>
      </trkpt>
      <trkpt lat="45.42951" lon="5.78087">
        <ele>570</ele>
        <time>2016-03-30T13:01:26.000Z</time>
      </trkpt>
      <trkpt lat="45.42939" lon="5.78075">
        <ele>570</ele>
        <time>2016-03-30T13:01:27.000Z</time>
      </trkpt>
      <trkpt lat="45.42928" lon="5.78064">
        <ele>568</ele>
        <time>2016-03-30T13:01:28.000Z</time>
      </trkpt>
      <trkpt lat="45.42918" lon="5.78051">
        <ele>568</ele>
        <time>2016-03-30T13:01:29.000Z</time>
      </trkpt>
      <trkpt lat="45.42899" lon="5.78027">
        <ele>567</ele>
        <time>2016-03-30T13:01:31.000Z</time>
      </trkpt>
      <trkpt lat="45.42892" lon="5.78012">
        <ele>567</ele>
        <time>2016-03-30T13:01:32.000Z</time>
      </trkpt>
      <trkpt lat="45.42887" lon="5.77994">
        <ele>566</ele>
        <time>2016-03-30T13:01:33.000Z</time>
      </trkpt>
      <trkpt lat="45.42881" lon="5.77977">
        <ele>565</ele>
        <time>2016-03-30T13:01:34.000Z</time>
      </trkpt>
      <trkpt lat="45.42875" lon="5.77962">
        <ele>565</ele>
        <time>2016-03-30T13:01:35.000Z</time>
      </trkpt>
      <trkpt lat="45.42868" lon="5.77948">
        <ele>564</ele>
        <time>2016-03-30T13:01:36.000Z</time>
      </trkpt>
      <trkpt lat="45.42865" lon="5.77933">
        <ele>564</ele>
        <time>2016-03-30T13:01:37.000Z</time>
      </trkpt>
      <trkpt lat="45.42863" lon="5.77918">
        <ele>563</ele>
        <time>2016-03-30T13:01:38.000Z</time>
      </trkpt>
      <trkpt lat="45.42865" lon="5.77903">
        <ele>563</ele>
        <time>2016-03-30T13:01:39.000Z</time>
      </trkpt>
      <trkpt lat="45.4287" lon="5.77893">
        <ele>562</ele>
        <time>2016-03-30T13:01:40.000Z</time>
      </trkpt>
      <trkpt lat="45.42873" lon="5.7788">
        <ele>561</ele>
        <time>2016-03-30T13:01:41.000Z</time>
      </trkpt>
      <trkpt lat="45.42881" lon="5.77859">
        <ele>559</ele>
        <time>2016-03-30T13:01:43.000Z</time>
      </trkpt>
      <trkpt lat="45.42884" lon="5.77845">
        <ele>559</ele>
        <time>2016-03-30T13:01:45.000Z</time>
      </trkpt>
      <trkpt lat="45.42877" lon="5.77826">
        <ele>558</ele>
        <time>2016-03-30T13:01:47.000Z</time>
      </trkpt>
      <trkpt lat="45.42863" lon="5.77804">
        <ele>557</ele>
        <time>2016-03-30T13:01:49.000Z</time>
      </trkpt>
      <trkpt lat="45.42852" lon="5.77792">
        <ele>557</ele>
        <time>2016-03-30T13:01:50.000Z</time>
      </trkpt>
      <trkpt lat="45.42842" lon="5.77779">
        <ele>557</ele>
        <time>2016-03-30T13:01:51.000Z</time>
      </trkpt>
      <trkpt lat="45.4283" lon="5.77767">
        <ele>556</ele>
        <time>2016-03-30T13:01:52.000Z</time>
      </trkpt>
      <trkpt lat="45.42819" lon="5.77755">
        <ele>558</ele>
        <time>2016-03-30T13:01:53.000Z</time>
      </trkpt>
      <trkpt lat="45.42807" lon="5.77742">
        <ele>557</ele>
        <time>2016-03-30T13:01:54.000Z</time>
      </trkpt>
      <trkpt lat="45.42798" lon="5.77729">
        <ele>555</ele>
        <time>2016-03-30T13:01:55.000Z</time>
      </trkpt>
      <trkpt lat="45.42788" lon="5.77713">
        <ele>554</ele>
        <time>2016-03-30T13:01:56.000Z</time>
      </trkpt>
      <trkpt lat="45.42778" lon="5.77697">
        <ele>553</ele>
        <time>2016-03-30T13:01:57.000Z</time>
      </trkpt>
      <trkpt lat="45.42769" lon="5.77681">
        <ele>552</ele>
        <time>2016-03-30T13:01:58.000Z</time>
      </trkpt>
      <trkpt lat="45.42763" lon="5.77661">
        <ele>550</ele>
        <time>2016-03-30T13:01:59.000Z</time>
      </trkpt>
      <trkpt lat="45.42755" lon="5.77642">
        <ele>549</ele>
        <time>2016-03-30T13:02:00.000Z</time>
      </trkpt>
      <trkpt lat="45.42745" lon="5.77626">
        <ele>548</ele>
        <time>2016-03-30T13:02:01.000Z</time>
      </trkpt>
      <trkpt lat="45.42733" lon="5.77611">
        <ele>549</ele>
        <time>2016-03-30T13:02:02.000Z</time>
      </trkpt>
      <trkpt lat="45.4272" lon="5.77596">
        <ele>548</ele>
        <time>2016-03-30T13:02:03.000Z</time>
      </trkpt>
      <trkpt lat="45.42705" lon="5.77584">
        <ele>548</ele>
        <time>2016-03-30T13:02:04.000Z</time>
      </trkpt>
      <trkpt lat="45.4269" lon="5.77572">
        <ele>547</ele>
        <time>2016-03-30T13:02:05.000Z</time>
      </trkpt>
      <trkpt lat="45.42675" lon="5.77559">
        <ele>547</ele>
        <time>2016-03-30T13:02:06.000Z</time>
      </trkpt>
      <trkpt lat="45.42664" lon="5.7755">
        <ele>545</ele>
        <time>2016-03-30T13:02:07.000Z</time>
      </trkpt>
      <trkpt lat="45.42651" lon="5.77539">
        <ele>544</ele>
        <time>2016-03-30T13:02:08.000Z</time>
      </trkpt>
      <trkpt lat="45.42637" lon="5.77527">
        <ele>545</ele>
        <time>2016-03-30T13:02:09.000Z</time>
      </trkpt>
      <trkpt lat="45.42624" lon="5.77517">
        <ele>544</ele>
        <time>2016-03-30T13:02:10.000Z</time>
      </trkpt>
      <trkpt lat="45.42611" lon="5.77505">
        <ele>543</ele>
        <time>2016-03-30T13:02:11.000Z</time>
      </trkpt>
      <trkpt lat="45.42598" lon="5.77494">
        <ele>543</ele>
        <time>2016-03-30T13:02:12.000Z</time>
      </trkpt>
      <trkpt lat="45.42586" lon="5.77484">
        <ele>543</ele>
        <time>2016-03-30T13:02:13.000Z</time>
      </trkpt>
      <trkpt lat="45.42574" lon="5.77476">
        <ele>544</ele>
        <time>2016-03-30T13:02:14.000Z</time>
      </trkpt>
      <trkpt lat="45.42562" lon="5.77469">
        <ele>543</ele>
        <time>2016-03-30T13:02:15.000Z</time>
      </trkpt>
      <trkpt lat="45.42551" lon="5.77461">
        <ele>543</ele>
        <time>2016-03-30T13:02:16.000Z</time>
      </trkpt>
      <trkpt lat="45.42535" lon="5.77453">
        <ele>544</ele>
        <time>2016-03-30T13:02:17.000Z</time>
      </trkpt>
      <trkpt lat="45.42519" lon="5.77447">
        <ele>543</ele>
        <time>2016-03-30T13:02:18.000Z</time>
      </trkpt>
      <trkpt lat="45.42505" lon="5.77439">
        <ele>543</ele>
        <time>2016-03-30T13:02:19.000Z</time>
      </trkpt>
      <trkpt lat="45.4249" lon="5.77431">
        <ele>544</ele>
        <time>2016-03-30T13:02:20.000Z</time>
      </trkpt>
      <trkpt lat="45.42478" lon="5.7742">
        <ele>544</ele>
        <time>2016-03-30T13:02:21.000Z</time>
      </trkpt>
      <trkpt lat="45.42464" lon="5.77407">
        <ele>544</ele>
        <time>2016-03-30T13:02:22.000Z</time>
      </trkpt>
      <trkpt lat="45.4245" lon="5.77392">
        <ele>544</ele>
        <time>2016-03-30T13:02:23.000Z</time>
      </trkpt>
      <trkpt lat="45.42436" lon="5.77378">
        <ele>543</ele>
        <time>2016-03-30T13:02:24.000Z</time>
      </trkpt>
      <trkpt lat="45.42419" lon="5.77364">
        <ele>544</ele>
        <time>2016-03-30T13:02:25.000Z</time>
      </trkpt>
      <trkpt lat="45.42404" lon="5.7735">
        <ele>544</ele>
        <time>2016-03-30T13:02:26.000Z</time>
      </trkpt>
      <trkpt lat="45.42389" lon="5.77336">
        <ele>543</ele>
        <time>2016-03-30T13:02:27.000Z</time>
      </trkpt>
      <trkpt lat="45.42372" lon="5.77323">
        <ele>542</ele>
        <time>2016-03-30T13:02:28.000Z</time>
      </trkpt>
      <trkpt lat="45.42355" lon="5.7731">
        <ele>541</ele>
        <time>2016-03-30T13:02:29.000Z</time>
      </trkpt>
      <trkpt lat="45.42338" lon="5.77296">
        <ele>540</ele>
        <time>2016-03-30T13:02:30.000Z</time>
      </trkpt>
      <trkpt lat="45.42321" lon="5.77282">
        <ele>541</ele>
        <time>2016-03-30T13:02:31.000Z</time>
      </trkpt>
      <trkpt lat="45.42305" lon="5.77269">
        <ele>541</ele>
        <time>2016-03-30T13:02:32.000Z</time>
      </trkpt>
      <trkpt lat="45.42289" lon="5.77256">
        <ele>541</ele>
        <time>2016-03-30T13:02:33.000Z</time>
      </trkpt>
      <trkpt lat="45.42271" lon="5.77244">
        <ele>541</ele>
        <time>2016-03-30T13:02:34.000Z</time>
      </trkpt>
      <trkpt lat="45.42257" lon="5.77231">
        <ele>540</ele>
        <time>2016-03-30T13:02:35.000Z</time>
      </trkpt>
      <trkpt lat="45.42243" lon="5.77223">
        <ele>535</ele>
        <time>2016-03-30T13:02:36.000Z</time>
      </trkpt>
      <trkpt lat="45.42227" lon="5.7721">
        <ele>535</ele>
        <time>2016-03-30T13:02:37.000Z</time>
      </trkpt>
      <trkpt lat="45.42211" lon="5.77197">
        <ele>536</ele>
        <time>2016-03-30T13:02:38.000Z</time>
      </trkpt>
      <trkpt lat="45.42196" lon="5.77185">
        <ele>536</ele>
        <time>2016-03-30T13:02:39.000Z</time>
      </trkpt>
      <trkpt lat="45.42181" lon="5.77174">
        <ele>536</ele>
        <time>2016-03-30T13:02:40.000Z</time>
      </trkpt>
      <trkpt lat="45.42167" lon="5.77163">
        <ele>536</ele>
        <time>2016-03-30T13:02:41.000Z</time>
      </trkpt>
      <trkpt lat="45.42155" lon="5.77153">
        <ele>535</ele>
        <time>2016-03-30T13:02:42.000Z</time>
      </trkpt>
      <trkpt lat="45.42144" lon="5.77144">
        <ele>535</ele>
        <time>2016-03-30T13:02:43.000Z</time>
      </trkpt>
      <trkpt lat="45.42131" lon="5.77135">
        <ele>535</ele>
        <time>2016-03-30T13:02:44.000Z</time>
      </trkpt>
      <trkpt lat="45.42119" lon="5.77125">
        <ele>536</ele>
        <time>2016-03-30T13:02:45.000Z</time>
      </trkpt>
      <trkpt lat="45.42106" lon="5.77114">
        <ele>536</ele>
        <time>2016-03-30T13:02:46.000Z</time>
      </trkpt>
      <trkpt lat="45.42093" lon="5.77105">
        <ele>535</ele>
        <time>2016-03-30T13:02:47.000Z</time>
      </trkpt>
      <trkpt lat="45.4208" lon="5.77094">
        <ele>535</ele>
        <time>2016-03-30T13:02:48.000Z</time>
      </trkpt>
      <trkpt lat="45.4207" lon="5.77086">
        <ele>535</ele>
        <time>2016-03-30T13:02:49.000Z</time>
      </trkpt>
      <trkpt lat="45.42061" lon="5.77079">
        <ele>535</ele>
        <time>2016-03-30T13:02:50.000Z</time>
      </trkpt>
      <trkpt lat="45.42051" lon="5.77072">
        <ele>534</ele>
        <time>2016-03-30T13:02:51.000Z</time>
      </trkpt>
      <trkpt lat="45.42041" lon="5.77067">
        <ele>534</ele>
        <time>2016-03-30T13:02:52.000Z</time>
      </trkpt>
      <trkpt lat="45.4203" lon="5.77061">
        <ele>535</ele>
        <time>2016-03-30T13:02:53.000Z</time>
      </trkpt>
      <trkpt lat="45.42016" lon="5.77057">
        <ele>535</ele>
        <time>2016-03-30T13:02:54.000Z</time>
      </trkpt>
      <trkpt lat="45.42003" lon="5.77051">
        <ele>537</ele>
        <time>2016-03-30T13:02:55.000Z</time>
      </trkpt>
      <trkpt lat="45.41988" lon="5.77045">
        <ele>537</ele>
        <time>2016-03-30T13:02:56.000Z</time>
      </trkpt>
      <trkpt lat="45.41974" lon="5.77039">
        <ele>537</ele>
        <time>2016-03-30T13:02:57.000Z</time>
      </trkpt>
      <trkpt lat="45.41956" lon="5.77035">
        <ele>536</ele>
        <time>2016-03-30T13:02:58.000Z</time>
      </trkpt>
      <trkpt lat="45.4194" lon="5.7703">
        <ele>536</ele>
        <time>2016-03-30T13:02:59.000Z</time>
      </trkpt>
      <trkpt lat="45.41926" lon="5.77016">
        <ele>535</ele>
        <time>2016-03-30T13:03:00.000Z</time>
      </trkpt>
      <trkpt lat="45.41908" lon="5.77005">
        <ele>536</ele>
        <time>2016-03-30T13:03:01.000Z</time>
      </trkpt>
      <trkpt lat="45.4189" lon="5.76995">
        <ele>536</ele>
        <time>2016-03-30T13:03:02.000Z</time>
      </trkpt>
      <trkpt lat="45.41876" lon="5.76984">
        <ele>535</ele>
        <time>2016-03-30T13:03:03.000Z</time>
      </trkpt>
      <trkpt lat="45.41862" lon="5.76972">
        <ele>536</ele>
        <time>2016-03-30T13:03:04.000Z</time>
      </trkpt>
      <trkpt lat="45.41848" lon="5.76964">
        <ele>537</ele>
        <time>2016-03-30T13:03:05.000Z</time>
      </trkpt>
      <trkpt lat="45.41834" lon="5.76957">
        <ele>537</ele>
        <time>2016-03-30T13:03:06.000Z</time>
      </trkpt>
      <trkpt lat="45.4182" lon="5.76953">
        <ele>537</ele>
        <time>2016-03-30T13:03:07.000Z</time>
      </trkpt>
      <trkpt lat="45.41805" lon="5.76953">
        <ele>538</ele>
        <time>2016-03-30T13:03:08.000Z</time>
      </trkpt>
      <trkpt lat="45.4179" lon="5.76953">
        <ele>537</ele>
        <time>2016-03-30T13:03:09.000Z</time>
      </trkpt>
      <trkpt lat="45.41776" lon="5.76959">
        <ele>538</ele>
        <time>2016-03-30T13:03:10.000Z</time>
      </trkpt>
      <trkpt lat="45.4176" lon="5.76966">
        <ele>538</ele>
        <time>2016-03-30T13:03:11.000Z</time>
      </trkpt>
      <trkpt lat="45.41746" lon="5.76975">
        <ele>539</ele>
        <time>2016-03-30T13:03:12.000Z</time>
      </trkpt>
      <trkpt lat="45.41731" lon="5.76985">
        <ele>538</ele>
        <time>2016-03-30T13:03:13.000Z</time>
      </trkpt>
      <trkpt lat="45.41717" lon="5.76994">
        <ele>537</ele>
        <time>2016-03-30T13:03:14.000Z</time>
      </trkpt>
      <trkpt lat="45.41706" lon="5.77001">
        <ele>536</ele>
        <time>2016-03-30T13:03:15.000Z</time>
      </trkpt>
      <trkpt lat="45.41694" lon="5.77006">
        <ele>535</ele>
        <time>2016-03-30T13:03:16.000Z</time>
      </trkpt>
      <trkpt lat="45.41681" lon="5.77012">
        <ele>533</ele>
        <time>2016-03-30T13:03:17.000Z</time>
      </trkpt>
      <trkpt lat="45.41668" lon="5.77016">
        <ele>535</ele>
        <time>2016-03-30T13:03:18.000Z</time>
      </trkpt>
      <trkpt lat="45.41654" lon="5.77018">
        <ele>534</ele>
        <time>2016-03-30T13:03:19.000Z</time>
      </trkpt>
      <trkpt lat="45.41639" lon="5.77017">
        <ele>533</ele>
        <time>2016-03-30T13:03:20.000Z</time>
      </trkpt>
      <trkpt lat="45.41624" lon="5.77012">
        <ele>532</ele>
        <time>2016-03-30T13:03:21.000Z</time>
      </trkpt>
      <trkpt lat="45.41608" lon="5.77008">
        <ele>532</ele>
        <time>2016-03-30T13:03:22.000Z</time>
      </trkpt>
      <trkpt lat="45.41589" lon="5.76999">
        <ele>532</ele>
        <time>2016-03-30T13:03:23.000Z</time>
      </trkpt>
      <trkpt lat="45.41575" lon="5.76988">
        <ele>532</ele>
        <time>2016-03-30T13:03:24.000Z</time>
      </trkpt>
      <trkpt lat="45.41559" lon="5.7698">
        <ele>532</ele>
        <time>2016-03-30T13:03:25.000Z</time>
      </trkpt>
      <trkpt lat="45.41549" lon="5.76971">
        <ele>533</ele>
        <time>2016-03-30T13:03:26.000Z</time>
      </trkpt>
      <trkpt lat="45.41534" lon="5.76965">
        <ele>533</ele>
        <time>2016-03-30T13:03:27.000Z</time>
      </trkpt>
      <trkpt lat="45.4152" lon="5.76959">
        <ele>533</ele>
        <time>2016-03-30T13:03:28.000Z</time>
      </trkpt>
      <trkpt lat="45.41507" lon="5.76952">
        <ele>532</ele>
        <time>2016-03-30T13:03:29.000Z</time>
      </trkpt>
      <trkpt lat="45.41495" lon="5.76945">
        <ele>532</ele>
        <time>2016-03-30T13:03:30.000Z</time>
      </trkpt>
      <trkpt lat="45.41482" lon="5.76939">
        <ele>532</ele>
        <time>2016-03-30T13:03:31.000Z</time>
      </trkpt>
      <trkpt lat="45.41467" lon="5.76933">
        <ele>531</ele>
        <time>2016-03-30T13:03:32.000Z</time>
      </trkpt>
      <trkpt lat="45.41454" lon="5.76926">
        <ele>531</ele>
        <time>2016-03-30T13:03:33.000Z</time>
      </trkpt>
      <trkpt lat="45.41439" lon="5.76919">
        <ele>532</ele>
        <time>2016-03-30T13:03:34.000Z</time>
      </trkpt>
      <trkpt lat="45.41425" lon="5.76912">
        <ele>531</ele>
        <time>2016-03-30T13:03:35.000Z</time>
      </trkpt>
      <trkpt lat="45.41412" lon="5.76904">
        <ele>532</ele>
        <time>2016-03-30T13:03:36.000Z</time>
      </trkpt>
      <trkpt lat="45.41398" lon="5.76897">
        <ele>531</ele>
        <time>2016-03-30T13:03:37.000Z</time>
      </trkpt>
      <trkpt lat="45.41383" lon="5.76887">
        <ele>531</ele>
        <time>2016-03-30T13:03:38.000Z</time>
      </trkpt>
      <trkpt lat="45.41368" lon="5.76878">
        <ele>532</ele>
        <time>2016-03-30T13:03:39.000Z</time>
      </trkpt>
      <trkpt lat="45.4136" lon="5.76859">
        <ele>531</ele>
        <time>2016-03-30T13:03:40.000Z</time>
      </trkpt>
      <trkpt lat="45.4135" lon="5.76839">
        <ele>530</ele>
        <time>2016-03-30T13:03:41.000Z</time>
      </trkpt>
      <trkpt lat="45.41341" lon="5.76821">
        <ele>529</ele>
        <time>2016-03-30T13:03:42.000Z</time>
      </trkpt>
      <trkpt lat="45.41331" lon="5.76799">
        <ele>528</ele>
        <time>2016-03-30T13:03:43.000Z</time>
      </trkpt>
      <trkpt lat="45.41319" lon="5.76779">
        <ele>526</ele>
        <time>2016-03-30T13:03:44.000Z</time>
      </trkpt>
      <trkpt lat="45.41306" lon="5.76758">
        <ele>526</ele>
        <time>2016-03-30T13:03:45.000Z</time>
      </trkpt>
      <trkpt lat="45.41291" lon="5.76738">
        <ele>524</ele>
        <time>2016-03-30T13:03:46.000Z</time>
      </trkpt>
      <trkpt lat="45.41278" lon="5.76718">
        <ele>524</ele>
        <time>2016-03-30T13:03:47.000Z</time>
      </trkpt>
      <trkpt lat="45.41266" lon="5.76703">
        <ele>523</ele>
        <time>2016-03-30T13:03:48.000Z</time>
      </trkpt>
      <trkpt lat="45.41253" lon="5.76685">
        <ele>523</ele>
        <time>2016-03-30T13:03:49.000Z</time>
      </trkpt>
      <trkpt lat="45.41242" lon="5.76668">
        <ele>523</ele>
        <time>2016-03-30T13:03:50.000Z</time>
      </trkpt>
      <trkpt lat="45.41231" lon="5.76651">
        <ele>521</ele>
        <time>2016-03-30T13:03:51.000Z</time>
      </trkpt>
      <trkpt lat="45.4122" lon="5.76635">
        <ele>521</ele>
        <time>2016-03-30T13:03:52.000Z</time>
      </trkpt>
      <trkpt lat="45.41208" lon="5.76618">
        <ele>520</ele>
        <time>2016-03-30T13:03:53.000Z</time>
      </trkpt>
      <trkpt lat="45.41194" lon="5.76599">
        <ele>519</ele>
        <time>2016-03-30T13:03:54.000Z</time>
      </trkpt>
      <trkpt lat="45.41184" lon="5.76581">
        <ele>519</ele>
        <time>2016-03-30T13:03:55.000Z</time>
      </trkpt>
      <trkpt lat="45.41172" lon="5.76566">
        <ele>519</ele>
        <time>2016-03-30T13:03:56.000Z</time>
      </trkpt>
      <trkpt lat="45.4116" lon="5.7655">
        <ele>518</ele>
        <time>2016-03-30T13:03:57.000Z</time>
      </trkpt>
      <trkpt lat="45.41149" lon="5.76535">
        <ele>517</ele>
        <time>2016-03-30T13:03:58.000Z</time>
      </trkpt>
      <trkpt lat="45.41137" lon="5.76519">
        <ele>516</ele>
        <time>2016-03-30T13:03:59.000Z</time>
      </trkpt>
      <trkpt lat="45.41125" lon="5.76502">
        <ele>515</ele>
        <time>2016-03-30T13:04:00.000Z</time>
      </trkpt>
      <trkpt lat="45.41113" lon="5.76485">
        <ele>516</ele>
        <time>2016-03-30T13:04:01.000Z</time>
      </trkpt>
      <trkpt lat="45.411" lon="5.76467">
        <ele>514</ele>
        <time>2016-03-30T13:04:02.000Z</time>
      </trkpt>
      <trkpt lat="45.41087" lon="5.76449">
        <ele>513</ele>
        <time>2016-03-30T13:04:03.000Z</time>
      </trkpt>
      <trkpt lat="45.41075" lon="5.76432">
        <ele>513</ele>
        <time>2016-03-30T13:04:04.000Z</time>
      </trkpt>
      <trkpt lat="45.41062" lon="5.76413">
        <ele>513</ele>
        <time>2016-03-30T13:04:05.000Z</time>
      </trkpt>
      <trkpt lat="45.4105" lon="5.76397">
        <ele>510</ele>
        <time>2016-03-30T13:04:06.000Z</time>
      </trkpt>
      <trkpt lat="45.41039" lon="5.7638">
        <ele>506</ele>
        <time>2016-03-30T13:04:07.000Z</time>
      </trkpt>
      <trkpt lat="45.41026" lon="5.76363">
        <ele>507</ele>
        <time>2016-03-30T13:04:08.000Z</time>
      </trkpt>
      <trkpt lat="45.41015" lon="5.76345">
        <ele>504</ele>
        <time>2016-03-30T13:04:09.000Z</time>
      </trkpt>
      <trkpt lat="45.41002" lon="5.76329">
        <ele>503</ele>
        <time>2016-03-30T13:04:10.000Z</time>
      </trkpt>
      <trkpt lat="45.4099" lon="5.76313">
        <ele>502</ele>
        <time>2016-03-30T13:04:11.000Z</time>
      </trkpt>
      <trkpt lat="45.4098" lon="5.76295">
        <ele>500</ele>
        <time>2016-03-30T13:04:12.000Z</time>
      </trkpt>
      <trkpt lat="45.40967" lon="5.76278">
        <ele>498</ele>
        <time>2016-03-30T13:04:13.000Z</time>
      </trkpt>
      <trkpt lat="45.40953" lon="5.76261">
        <ele>497</ele>
        <time>2016-03-30T13:04:14.000Z</time>
      </trkpt>
      <trkpt lat="45.40941" lon="5.76246">
        <ele>494</ele>
        <time>2016-03-30T13:04:15.000Z</time>
      </trkpt>
      <trkpt lat="45.40926" lon="5.7623">
        <ele>493</ele>
        <time>2016-03-30T13:04:16.000Z</time>
      </trkpt>
      <trkpt lat="45.4091" lon="5.76215">
        <ele>491</ele>
        <time>2016-03-30T13:04:17.000Z</time>
      </trkpt>
      <trkpt lat="45.40897" lon="5.762">
        <ele>489</ele>
        <time>2016-03-30T13:04:18.000Z</time>
      </trkpt>
      <trkpt lat="45.40882" lon="5.76186">
        <ele>488</ele>
        <time>2016-03-30T13:04:19.000Z</time>
      </trkpt>
      <trkpt lat="45.40869" lon="5.76173">
        <ele>488</ele>
        <time>2016-03-30T13:04:20.000Z</time>
      </trkpt>
      <trkpt lat="45.40857" lon="5.76161">
        <ele>488</ele>
        <time>2016-03-30T13:04:21.000Z</time>
      </trkpt>
      <trkpt lat="45.40845" lon="5.76147">
        <ele>487</ele>
        <time>2016-03-30T13:04:22.000Z</time>
      </trkpt>
      <trkpt lat="45.40833" lon="5.76135">
        <ele>486</ele>
        <time>2016-03-30T13:04:23.000Z</time>
      </trkpt>
      <trkpt lat="45.4082" lon="5.76122">
        <ele>484</ele>
        <time>2016-03-30T13:04:24.000Z</time>
      </trkpt>
      <trkpt lat="45.40808" lon="5.76109">
        <ele>485</ele>
        <time>2016-03-30T13:04:25.000Z</time>
      </trkpt>
      <trkpt lat="45.40796" lon="5.76098">
        <ele>484</ele>
        <time>2016-03-30T13:04:26.000Z</time>
      </trkpt>
      <trkpt lat="45.40785" lon="5.76084">
        <ele>481</ele>
        <time>2016-03-30T13:04:27.000Z</time>
      </trkpt>
      <trkpt lat="45.40774" lon="5.7607">
        <ele>477</ele>
        <time>2016-03-30T13:04:28.000Z</time>
      </trkpt>
      <trkpt lat="45.40766" lon="5.76054">
        <ele>474</ele>
        <time>2016-03-30T13:04:29.000Z</time>
      </trkpt>
      <trkpt lat="45.40759" lon="5.76038">
        <ele>471</ele>
        <time>2016-03-30T13:04:30.000Z</time>
      </trkpt>
      <trkpt lat="45.40753" lon="5.7602">
        <ele>469</ele>
        <time>2016-03-30T13:04:31.000Z</time>
      </trkpt>
      <trkpt lat="45.40747" lon="5.76001">
        <ele>469</ele>
        <time>2016-03-30T13:04:32.000Z</time>
      </trkpt>
      <trkpt lat="45.40743" lon="5.75981">
        <ele>466</ele>
        <time>2016-03-30T13:04:33.000Z</time>
      </trkpt>
      <trkpt lat="45.40739" lon="5.75961">
        <ele>465</ele>
        <time>2016-03-30T13:04:34.000Z</time>
      </trkpt>
      <trkpt lat="45.40735" lon="5.75939">
        <ele>463</ele>
        <time>2016-03-30T13:04:35.000Z</time>
      </trkpt>
      <trkpt lat="45.40731" lon="5.7592">
        <ele>461</ele>
        <time>2016-03-30T13:04:36.000Z</time>
      </trkpt>
      <trkpt lat="45.40726" lon="5.75901">
        <ele>460</ele>
        <time>2016-03-30T13:04:37.000Z</time>
      </trkpt>
      <trkpt lat="45.40717" lon="5.7588">
        <ele>460</ele>
        <time>2016-03-30T13:04:38.000Z</time>
      </trkpt>
      <trkpt lat="45.40709" lon="5.7586">
        <ele>460</ele>
        <time>2016-03-30T13:04:39.000Z</time>
      </trkpt>
      <trkpt lat="45.40699" lon="5.75842">
        <ele>459</ele>
        <time>2016-03-30T13:04:40.000Z</time>
      </trkpt>
      <trkpt lat="45.40687" lon="5.75824">
        <ele>459</ele>
        <time>2016-03-30T13:04:41.000Z</time>
      </trkpt>
      <trkpt lat="45.40676" lon="5.75807">
        <ele>458</ele>
        <time>2016-03-30T13:04:42.000Z</time>
      </trkpt>
      <trkpt lat="45.40664" lon="5.7579">
        <ele>458</ele>
        <time>2016-03-30T13:04:43.000Z</time>
      </trkpt>
      <trkpt lat="45.40654" lon="5.75775">
        <ele>459</ele>
        <time>2016-03-30T13:04:44.000Z</time>
      </trkpt>
      <trkpt lat="45.40645" lon="5.75759">
        <ele>459</ele>
        <time>2016-03-30T13:04:45.000Z</time>
      </trkpt>
      <trkpt lat="45.40635" lon="5.75743">
        <ele>460</ele>
        <time>2016-03-30T13:04:46.000Z</time>
      </trkpt>
      <trkpt lat="45.40625" lon="5.75729">
        <ele>460</ele>
        <time>2016-03-30T13:04:47.000Z</time>
      </trkpt>
      <trkpt lat="45.40613" lon="5.75716">
        <ele>460</ele>
        <time>2016-03-30T13:04:48.000Z</time>
      </trkpt>
      <trkpt lat="45.40601" lon="5.75704">
        <ele>460</ele>
        <time>2016-03-30T13:04:49.000Z</time>
      </trkpt>
      <trkpt lat="45.40588" lon="5.75691">
        <ele>461</ele>
        <time>2016-03-30T13:04:50.000Z</time>
      </trkpt>
      <trkpt lat="45.40576" lon="5.7568">
        <ele>462</ele>
        <time>2016-03-30T13:04:51.000Z</time>
      </trkpt>
      <trkpt lat="45.40566" lon="5.75673">
        <ele>461</ele>
        <time>2016-03-30T13:04:52.000Z</time>
      </trkpt>
      <trkpt lat="45.40553" lon="5.75663">
        <ele>461</ele>
        <time>2016-03-30T13:04:53.000Z</time>
      </trkpt>
      <trkpt lat="45.40541" lon="5.75652">
        <ele>461</ele>
        <time>2016-03-30T13:04:54.000Z</time>
      </trkpt>
      <trkpt lat="45.40529" lon="5.75638">
        <ele>461</ele>
        <time>2016-03-30T13:04:55.000Z</time>
      </trkpt>
      <trkpt lat="45.40517" lon="5.75624">
        <ele>461</ele>
        <time>2016-03-30T13:04:56.000Z</time>
      </trkpt>
      <trkpt lat="45.40505" lon="5.75606">
        <ele>461</ele>
        <time>2016-03-30T13:04:57.000Z</time>
      </trkpt>
      <trkpt lat="45.40495" lon="5.75587">
        <ele>461</ele>
        <time>2016-03-30T13:04:58.000Z</time>
      </trkpt>
      <trkpt lat="45.40486" lon="5.75566">
        <ele>462</ele>
        <time>2016-03-30T13:04:59.000Z</time>
      </trkpt>
      <trkpt lat="45.40477" lon="5.75548">
        <ele>460</ele>
        <time>2016-03-30T13:05:00.000Z</time>
      </trkpt>
      <trkpt lat="45.40469" lon="5.7553">
        <ele>460</ele>
        <time>2016-03-30T13:05:01.000Z</time>
      </trkpt>
      <trkpt lat="45.40462" lon="5.75511">
        <ele>460</ele>
        <time>2016-03-30T13:05:02.000Z</time>
      </trkpt>
      <trkpt lat="45.40456" lon="5.75494">
        <ele>459</ele>
        <time>2016-03-30T13:05:03.000Z</time>
      </trkpt>
      <trkpt lat="45.40451" lon="5.75476">
        <ele>458</ele>
        <time>2016-03-30T13:05:04.000Z</time>
      </trkpt>
      <trkpt lat="45.40444" lon="5.75455">
        <ele>458</ele>
        <time>2016-03-30T13:05:05.000Z</time>
      </trkpt>
      <trkpt lat="45.40437" lon="5.75433">
        <ele>458</ele>
        <time>2016-03-30T13:05:06.000Z</time>
      </trkpt>
      <trkpt lat="45.40429" lon="5.75411">
        <ele>458</ele>
        <time>2016-03-30T13:05:07.000Z</time>
      </trkpt>
      <trkpt lat="45.40421" lon="5.75389">
        <ele>457</ele>
        <time>2016-03-30T13:05:08.000Z</time>
      </trkpt>
      <trkpt lat="45.40411" lon="5.75369">
        <ele>455</ele>
        <time>2016-03-30T13:05:09.000Z</time>
      </trkpt>
      <trkpt lat="45.40399" lon="5.75348">
        <ele>455</ele>
        <time>2016-03-30T13:05:10.000Z</time>
      </trkpt>
      <trkpt lat="45.4039" lon="5.75327">
        <ele>453</ele>
        <time>2016-03-30T13:05:11.000Z</time>
      </trkpt>
      <trkpt lat="45.40381" lon="5.75308">
        <ele>451</ele>
        <time>2016-03-30T13:05:12.000Z</time>
      </trkpt>
      <trkpt lat="45.40375" lon="5.75287">
        <ele>451</ele>
        <time>2016-03-30T13:05:13.000Z</time>
      </trkpt>
      <trkpt lat="45.40369" lon="5.75263">
        <ele>449</ele>
        <time>2016-03-30T13:05:14.000Z</time>
      </trkpt>
      <trkpt lat="45.40363" lon="5.7524">
        <ele>449</ele>
        <time>2016-03-30T13:05:15.000Z</time>
      </trkpt>
      <trkpt lat="45.40359" lon="5.75215">
        <ele>450</ele>
        <time>2016-03-30T13:05:16.000Z</time>
      </trkpt>
      <trkpt lat="45.40353" lon="5.7519">
        <ele>451</ele>
        <time>2016-03-30T13:05:17.000Z</time>
      </trkpt>
      <trkpt lat="45.40347" lon="5.75167">
        <ele>451</ele>
        <time>2016-03-30T13:05:18.000Z</time>
      </trkpt>
      <trkpt lat="45.40338" lon="5.75148">
        <ele>451</ele>
        <time>2016-03-30T13:05:19.000Z</time>
      </trkpt>
      <trkpt lat="45.40329" lon="5.75132">
        <ele>450</ele>
        <time>2016-03-30T13:05:20.000Z</time>
      </trkpt>
      <trkpt lat="45.40311" lon="5.75119">
        <ele>450</ele>
        <time>2016-03-30T13:05:21.000Z</time>
      </trkpt>
      <trkpt lat="45.40301" lon="5.751">
        <ele>450</ele>
        <time>2016-03-30T13:05:22.000Z</time>
      </trkpt>
      <trkpt lat="45.4029" lon="5.75079">
        <ele>450</ele>
        <time>2016-03-30T13:05:23.000Z</time>
      </trkpt>
      <trkpt lat="45.4028" lon="5.75058">
        <ele>450</ele>
        <time>2016-03-30T13:05:24.000Z</time>
      </trkpt>
      <trkpt lat="45.40272" lon="5.75035">
        <ele>449</ele>
        <time>2016-03-30T13:05:25.000Z</time>
      </trkpt>
      <trkpt lat="45.40263" lon="5.7501">
        <ele>451</ele>
        <time>2016-03-30T13:05:26.000Z</time>
      </trkpt>
      <trkpt lat="45.40257" lon="5.74985">
        <ele>450</ele>
        <time>2016-03-30T13:05:27.000Z</time>
      </trkpt>
      <trkpt lat="45.40248" lon="5.7496">
        <ele>450</ele>
        <time>2016-03-30T13:05:28.000Z</time>
      </trkpt>
      <trkpt lat="45.40239" lon="5.74937">
        <ele>451</ele>
        <time>2016-03-30T13:05:29.000Z</time>
      </trkpt>
      <trkpt lat="45.40229" lon="5.74916">
        <ele>451</ele>
        <time>2016-03-30T13:05:30.000Z</time>
      </trkpt>
      <trkpt lat="45.4022" lon="5.74897">
        <ele>451</ele>
        <time>2016-03-30T13:05:31.000Z</time>
      </trkpt>
      <trkpt lat="45.4021" lon="5.7488">
        <ele>450</ele>
        <time>2016-03-30T13:05:32.000Z</time>
      </trkpt>
      <trkpt lat="45.40199" lon="5.74863">
        <ele>450</ele>
        <time>2016-03-30T13:05:33.000Z</time>
      </trkpt>
      <trkpt lat="45.40188" lon="5.74846">
        <ele>450</ele>
        <time>2016-03-30T13:05:34.000Z</time>
      </trkpt>
      <trkpt lat="45.40177" lon="5.74829">
        <ele>451</ele>
        <time>2016-03-30T13:05:35.000Z</time>
      </trkpt>
      <trkpt lat="45.40166" lon="5.74812">
        <ele>451</ele>
        <time>2016-03-30T13:05:36.000Z</time>
      </trkpt>
      <trkpt lat="45.40154" lon="5.74797">
        <ele>452</ele>
        <time>2016-03-30T13:05:37.000Z</time>
      </trkpt>
      <trkpt lat="45.40142" lon="5.74783">
        <ele>451</ele>
        <time>2016-03-30T13:05:38.000Z</time>
      </trkpt>
      <trkpt lat="45.4013" lon="5.74769">
        <ele>452</ele>
        <time>2016-03-30T13:05:39.000Z</time>
      </trkpt>
      <trkpt lat="45.40117" lon="5.74755">
        <ele>452</ele>
        <time>2016-03-30T13:05:40.000Z</time>
      </trkpt>
      <trkpt lat="45.40105" lon="5.74742">
        <ele>452</ele>
        <time>2016-03-30T13:05:41.000Z</time>
      </trkpt>
      <trkpt lat="45.40092" lon="5.74731">
        <ele>453</ele>
        <time>2016-03-30T13:05:42.000Z</time>
      </trkpt>
      <trkpt lat="45.40078" lon="5.7472">
        <ele>453</ele>
        <time>2016-03-30T13:05:43.000Z</time>
      </trkpt>
      <trkpt lat="45.40064" lon="5.7471">
        <ele>453</ele>
        <time>2016-03-30T13:05:44.000Z</time>
      </trkpt>
      <trkpt lat="45.4005" lon="5.74698">
        <ele>453</ele>
        <time>2016-03-30T13:05:45.000Z</time>
      </trkpt>
      <trkpt lat="45.40038" lon="5.74682">
        <ele>454</ele>
        <time>2016-03-30T13:05:46.000Z</time>
      </trkpt>
      <trkpt lat="45.40026" lon="5.74665">
        <ele>455</ele>
        <time>2016-03-30T13:05:47.000Z</time>
      </trkpt>
      <trkpt lat="45.40015" lon="5.74646">
        <ele>455</ele>
        <time>2016-03-30T13:05:48.000Z</time>
      </trkpt>
      <trkpt lat="45.40007" lon="5.74625">
        <ele>456</ele>
        <time>2016-03-30T13:05:49.000Z</time>
      </trkpt>
      <trkpt lat="45.39999" lon="5.74604">
        <ele>457</ele>
        <time>2016-03-30T13:05:50.000Z</time>
      </trkpt>
      <trkpt lat="45.39992" lon="5.74586">
        <ele>457</ele>
        <time>2016-03-30T13:05:51.000Z</time>
      </trkpt>
      <trkpt lat="45.39983" lon="5.74567">
        <ele>456</ele>
        <time>2016-03-30T13:05:52.000Z</time>
      </trkpt>
      <trkpt lat="45.39974" lon="5.74549">
        <ele>456</ele>
        <time>2016-03-30T13:05:53.000Z</time>
      </trkpt>
      <trkpt lat="45.39962" lon="5.74533">
        <ele>456</ele>
        <time>2016-03-30T13:05:54.000Z</time>
      </trkpt>
      <trkpt lat="45.3995" lon="5.74517">
        <ele>456</ele>
        <time>2016-03-30T13:05:55.000Z</time>
      </trkpt>
      <trkpt lat="45.39939" lon="5.745">
        <ele>458</ele>
        <time>2016-03-30T13:05:56.000Z</time>
      </trkpt>
      <trkpt lat="45.39928" lon="5.74486">
        <ele>458</ele>
        <time>2016-03-30T13:05:57.000Z</time>
      </trkpt>
      <trkpt lat="45.39919" lon="5.74472">
        <ele>459</ele>
        <time>2016-03-30T13:05:58.000Z</time>
      </trkpt>
      <trkpt lat="45.39911" lon="5.74459">
        <ele>458</ele>
        <time>2016-03-30T13:05:59.000Z</time>
      </trkpt>
      <trkpt lat="45.39903" lon="5.74444">
        <ele>458</ele>
        <time>2016-03-30T13:06:00.000Z</time>
      </trkpt>
      <trkpt lat="45.39895" lon="5.7443">
        <ele>457</ele>
        <time>2016-03-30T13:06:01.000Z</time>
      </trkpt>
      <trkpt lat="45.39888" lon="5.74417">
        <ele>458</ele>
        <time>2016-03-30T13:06:02.000Z</time>
      </trkpt>
      <trkpt lat="45.39882" lon="5.74405">
        <ele>458</ele>
        <time>2016-03-30T13:06:03.000Z</time>
      </trkpt>
      <trkpt lat="45.39876" lon="5.74393">
        <ele>457</ele>
        <time>2016-03-30T13:06:04.000Z</time>
      </trkpt>
      <trkpt lat="45.39871" lon="5.7438">
        <ele>457</ele>
        <time>2016-03-30T13:06:05.000Z</time>
      </trkpt>
      <trkpt lat="45.39868" lon="5.74367">
        <ele>457</ele>
        <time>2016-03-30T13:06:06.000Z</time>
      </trkpt>
      <trkpt lat="45.39869" lon="5.74346">
        <ele>457</ele>
        <time>2016-03-30T13:06:08.000Z</time>
      </trkpt>
      <trkpt lat="45.39874" lon="5.74332">
        <ele>457</ele>
        <time>2016-03-30T13:06:10.000Z</time>
      </trkpt>
      <trkpt lat="45.39883" lon="5.74324">
        <ele>455</ele>
        <time>2016-03-30T13:06:12.000Z</time>
      </trkpt>
      <trkpt lat="45.3989" lon="5.7431">
        <ele>453</ele>
        <time>2016-03-30T13:06:14.000Z</time>
      </trkpt>
      <trkpt lat="45.3989" lon="5.7429">
        <ele>451</ele>
        <time>2016-03-30T13:06:16.000Z</time>
      </trkpt>
      <trkpt lat="45.39883" lon="5.7427">
        <ele>451</ele>
        <time>2016-03-30T13:06:18.000Z</time>
      </trkpt>
      <trkpt lat="45.39866" lon="5.74259">
        <ele>450</ele>
        <time>2016-03-30T13:06:20.000Z</time>
      </trkpt>
      <trkpt lat="45.39859" lon="5.74247">
        <ele>450</ele>
        <time>2016-03-30T13:06:21.000Z</time>
      </trkpt>
      <trkpt lat="45.39842" lon="5.74238">
        <ele>450</ele>
        <time>2016-03-30T13:06:22.000Z</time>
      </trkpt>
      <trkpt lat="45.39817" lon="5.74234">
        <ele>451</ele>
        <time>2016-03-30T13:06:23.000Z</time>
      </trkpt>
      <trkpt lat="45.39802" lon="5.74227">
        <ele>451</ele>
        <time>2016-03-30T13:06:24.000Z</time>
      </trkpt>
      <trkpt lat="45.39785" lon="5.74219">
        <ele>453</ele>
        <time>2016-03-30T13:06:25.000Z</time>
      </trkpt>
      <trkpt lat="45.39768" lon="5.74213">
        <ele>451</ele>
        <time>2016-03-30T13:06:26.000Z</time>
      </trkpt>
      <trkpt lat="45.39748" lon="5.74206">
        <ele>452</ele>
        <time>2016-03-30T13:06:27.000Z</time>
      </trkpt>
      <trkpt lat="45.39732" lon="5.74199">
        <ele>451</ele>
        <time>2016-03-30T13:06:28.000Z</time>
      </trkpt>
      <trkpt lat="45.39716" lon="5.74192">
        <ele>451</ele>
        <time>2016-03-30T13:06:29.000Z</time>
      </trkpt>
      <trkpt lat="45.397" lon="5.74185">
        <ele>452</ele>
        <time>2016-03-30T13:06:30.000Z</time>
      </trkpt>
      <trkpt lat="45.39684" lon="5.74178">
        <ele>452</ele>
        <time>2016-03-30T13:06:31.000Z</time>
      </trkpt>
      <trkpt lat="45.39668" lon="5.74171">
        <ele>452</ele>
        <time>2016-03-30T13:06:32.000Z</time>
      </trkpt>
      <trkpt lat="45.39653" lon="5.74164">
        <ele>452</ele>
        <time>2016-03-30T13:06:33.000Z</time>
      </trkpt>
      <trkpt lat="45.39639" lon="5.74157">
        <ele>452</ele>
        <time>2016-03-30T13:06:34.000Z</time>
      </trkpt>
      <trkpt lat="45.39623" lon="5.74151">
        <ele>452</ele>
        <time>2016-03-30T13:06:35.000Z</time>
      </trkpt>
      <trkpt lat="45.39608" lon="5.74143">
        <ele>452</ele>
        <time>2016-03-30T13:06:36.000Z</time>
      </trkpt>
      <trkpt lat="45.39594" lon="5.74136">
        <ele>452</ele>
        <time>2016-03-30T13:06:37.000Z</time>
      </trkpt>
      <trkpt lat="45.39581" lon="5.74129">
        <ele>452</ele>
        <time>2016-03-30T13:06:38.000Z</time>
      </trkpt>
      <trkpt lat="45.39567" lon="5.74124">
        <ele>452</ele>
        <time>2016-03-30T13:06:39.000Z</time>
      </trkpt>
      <trkpt lat="45.39552" lon="5.74118">
        <ele>454</ele>
        <time>2016-03-30T13:06:40.000Z</time>
      </trkpt>
      <trkpt lat="45.39536" lon="5.74111">
        <ele>455</ele>
        <time>2016-03-30T13:06:41.000Z</time>
      </trkpt>
      <trkpt lat="45.39521" lon="5.74106">
        <ele>456</ele>
        <time>2016-03-30T13:06:42.000Z</time>
      </trkpt>
      <trkpt lat="45.39507" lon="5.74099">
        <ele>453</ele>
        <time>2016-03-30T13:06:43.000Z</time>
      </trkpt>
      <trkpt lat="45.39491" lon="5.74094">
        <ele>454</ele>
        <time>2016-03-30T13:06:44.000Z</time>
      </trkpt>
      <trkpt lat="45.39477" lon="5.74089">
        <ele>456</ele>
        <time>2016-03-30T13:06:45.000Z</time>
      </trkpt>
      <trkpt lat="45.39464" lon="5.74084">
        <ele>457</ele>
        <time>2016-03-30T13:06:46.000Z</time>
      </trkpt>
      <trkpt lat="45.39451" lon="5.74079">
        <ele>457</ele>
        <time>2016-03-30T13:06:47.000Z</time>
      </trkpt>
      <trkpt lat="45.39438" lon="5.74075">
        <ele>458</ele>
        <time>2016-03-30T13:06:48.000Z</time>
      </trkpt>
      <trkpt lat="45.39425" lon="5.7407">
        <ele>457</ele>
        <time>2016-03-30T13:06:49.000Z</time>
      </trkpt>
      <trkpt lat="45.39412" lon="5.74065">
        <ele>457</ele>
        <time>2016-03-30T13:06:50.000Z</time>
      </trkpt>
      <trkpt lat="45.39401" lon="5.7406">
        <ele>457</ele>
        <time>2016-03-30T13:06:51.000Z</time>
      </trkpt>
      <trkpt lat="45.39388" lon="5.74055">
        <ele>457</ele>
        <time>2016-03-30T13:06:52.000Z</time>
      </trkpt>
      <trkpt lat="45.39375" lon="5.7405">
        <ele>457</ele>
        <time>2016-03-30T13:06:53.000Z</time>
      </trkpt>
      <trkpt lat="45.39361" lon="5.74046">
        <ele>456</ele>
        <time>2016-03-30T13:06:54.000Z</time>
      </trkpt>
      <trkpt lat="45.39347" lon="5.7404">
        <ele>456</ele>
        <time>2016-03-30T13:06:55.000Z</time>
      </trkpt>
      <trkpt lat="45.39335" lon="5.74036">
        <ele>455</ele>
        <time>2016-03-30T13:06:56.000Z</time>
      </trkpt>
      <trkpt lat="45.39321" lon="5.74031">
        <ele>457</ele>
        <time>2016-03-30T13:06:57.000Z</time>
      </trkpt>
      <trkpt lat="45.39308" lon="5.74028">
        <ele>458</ele>
        <time>2016-03-30T13:06:58.000Z</time>
      </trkpt>
      <trkpt lat="45.39294" lon="5.74023">
        <ele>459</ele>
        <time>2016-03-30T13:06:59.000Z</time>
      </trkpt>
      <trkpt lat="45.39281" lon="5.74018">
        <ele>459</ele>
        <time>2016-03-30T13:07:00.000Z</time>
      </trkpt>
      <trkpt lat="45.39268" lon="5.74014">
        <ele>459</ele>
        <time>2016-03-30T13:07:01.000Z</time>
      </trkpt>
      <trkpt lat="45.39254" lon="5.7401">
        <ele>459</ele>
        <time>2016-03-30T13:07:02.000Z</time>
      </trkpt>
      <trkpt lat="45.39241" lon="5.74004">
        <ele>459</ele>
        <time>2016-03-30T13:07:03.000Z</time>
      </trkpt>
      <trkpt lat="45.39227" lon="5.73999">
        <ele>459</ele>
        <time>2016-03-30T13:07:04.000Z</time>
      </trkpt>
      <trkpt lat="45.39214" lon="5.73994">
        <ele>459</ele>
        <time>2016-03-30T13:07:05.000Z</time>
      </trkpt>
      <trkpt lat="45.39199" lon="5.73989">
        <ele>458</ele>
        <time>2016-03-30T13:07:06.000Z</time>
      </trkpt>
      <trkpt lat="45.39188" lon="5.73983">
        <ele>460</ele>
        <time>2016-03-30T13:07:07.000Z</time>
      </trkpt>
      <trkpt lat="45.39175" lon="5.73975">
        <ele>461</ele>
        <time>2016-03-30T13:07:08.000Z</time>
      </trkpt>
      <trkpt lat="45.39162" lon="5.73968">
        <ele>461</ele>
        <time>2016-03-30T13:07:09.000Z</time>
      </trkpt>
      <trkpt lat="45.3915" lon="5.7396">
        <ele>461</ele>
        <time>2016-03-30T13:07:10.000Z</time>
      </trkpt>
      <trkpt lat="45.39137" lon="5.73953">
        <ele>461</ele>
        <time>2016-03-30T13:07:11.000Z</time>
      </trkpt>
      <trkpt lat="45.39124" lon="5.73945">
        <ele>461</ele>
        <time>2016-03-30T13:07:12.000Z</time>
      </trkpt>
      <trkpt lat="45.39114" lon="5.73935">
        <ele>463</ele>
        <time>2016-03-30T13:07:13.000Z</time>
      </trkpt>
      <trkpt lat="45.39102" lon="5.73926">
        <ele>463</ele>
        <time>2016-03-30T13:07:14.000Z</time>
      </trkpt>
      <trkpt lat="45.39091" lon="5.73918">
        <ele>462</ele>
        <time>2016-03-30T13:07:15.000Z</time>
      </trkpt>
      <trkpt lat="45.39081" lon="5.73909">
        <ele>462</ele>
        <time>2016-03-30T13:07:16.000Z</time>
      </trkpt>
      <trkpt lat="45.39071" lon="5.73901">
        <ele>464</ele>
        <time>2016-03-30T13:07:17.000Z</time>
      </trkpt>
      <trkpt lat="45.3906" lon="5.73894">
        <ele>464</ele>
        <time>2016-03-30T13:07:18.000Z</time>
      </trkpt>
      <trkpt lat="45.39051" lon="5.73886">
        <ele>464</ele>
        <time>2016-03-30T13:07:19.000Z</time>
      </trkpt>
      <trkpt lat="45.3904" lon="5.73876">
        <ele>464</ele>
        <time>2016-03-30T13:07:20.000Z</time>
      </trkpt>
      <trkpt lat="45.3903" lon="5.73869">
        <ele>463</ele>
        <time>2016-03-30T13:07:21.000Z</time>
      </trkpt>
      <trkpt lat="45.3902" lon="5.73862">
        <ele>464</ele>
        <time>2016-03-30T13:07:22.000Z</time>
      </trkpt>
      <trkpt lat="45.3901" lon="5.73854">
        <ele>464</ele>
        <time>2016-03-30T13:07:23.000Z</time>
      </trkpt>
      <trkpt lat="45.39" lon="5.73846">
        <ele>465</ele>
        <time>2016-03-30T13:07:24.000Z</time>
      </trkpt>
      <trkpt lat="45.3899" lon="5.73838">
        <ele>465</ele>
        <time>2016-03-30T13:07:25.000Z</time>
      </trkpt>
      <trkpt lat="45.3898" lon="5.73829">
        <ele>465</ele>
        <time>2016-03-30T13:07:26.000Z</time>
      </trkpt>
      <trkpt lat="45.3897" lon="5.73821">
        <ele>465</ele>
        <time>2016-03-30T13:07:27.000Z</time>
      </trkpt>
      <trkpt lat="45.38961" lon="5.73813">
        <ele>463</ele>
        <time>2016-03-30T13:07:28.000Z</time>
      </trkpt>
      <trkpt lat="45.38951" lon="5.73805">
        <ele>463</ele>
        <time>2016-03-30T13:07:29.000Z</time>
      </trkpt>
      <trkpt lat="45.3894" lon="5.73797">
        <ele>462</ele>
        <time>2016-03-30T13:07:30.000Z</time>
      </trkpt>
      <trkpt lat="45.3893" lon="5.73789">
        <ele>463</ele>
        <time>2016-03-30T13:07:31.000Z</time>
      </trkpt>
      <trkpt lat="45.38919" lon="5.73782">
        <ele>463</ele>
        <time>2016-03-30T13:07:32.000Z</time>
      </trkpt>
      <trkpt lat="45.3891" lon="5.73775">
        <ele>462</ele>
        <time>2016-03-30T13:07:33.000Z</time>
      </trkpt>
      <trkpt lat="45.38899" lon="5.73768">
        <ele>462</ele>
        <time>2016-03-30T13:07:34.000Z</time>
      </trkpt>
      <trkpt lat="45.38889" lon="5.7376">
        <ele>462</ele>
        <time>2016-03-30T13:07:35.000Z</time>
      </trkpt>
      <trkpt lat="45.38879" lon="5.73754">
        <ele>462</ele>
        <time>2016-03-30T13:07:36.000Z</time>
      </trkpt>
      <trkpt lat="45.38868" lon="5.73749">
        <ele>460</ele>
        <time>2016-03-30T13:07:37.000Z</time>
      </trkpt>
      <trkpt lat="45.38858" lon="5.73742">
        <ele>461</ele>
        <time>2016-03-30T13:07:38.000Z</time>
      </trkpt>
      <trkpt lat="45.38847" lon="5.73736">
        <ele>462</ele>
        <time>2016-03-30T13:07:39.000Z</time>
      </trkpt>
      <trkpt lat="45.38836" lon="5.73732">
        <ele>462</ele>
        <time>2016-03-30T13:07:40.000Z</time>
      </trkpt>
      <trkpt lat="45.38826" lon="5.7373">
        <ele>462</ele>
        <time>2016-03-30T13:07:41.000Z</time>
      </trkpt>
      <trkpt lat="45.3881" lon="5.73725">
        <ele>463</ele>
        <time>2016-03-30T13:07:43.000Z</time>
      </trkpt>
      <trkpt lat="45.38798" lon="5.73722">
        <ele>465</ele>
        <time>2016-03-30T13:07:45.000Z</time>
      </trkpt>
      <trkpt lat="45.38785" lon="5.73723">
        <ele>465</ele>
        <time>2016-03-30T13:07:48.000Z</time>
      </trkpt>
      <trkpt lat="45.38775" lon="5.73722">
        <ele>466</ele>
        <time>2016-03-30T13:08:09.000Z</time>
      </trkpt>
      <trkpt lat="45.38763" lon="5.7372">
        <ele>470</ele>
        <time>2016-03-30T13:08:14.000Z</time>
      </trkpt>
      <trkpt lat="45.38753" lon="5.73719">
        <ele>473</ele>
        <time>2016-03-30T13:08:17.000Z</time>
      </trkpt>
      <trkpt lat="45.38743" lon="5.7372">
        <ele>472</ele>
        <time>2016-03-30T13:08:21.000Z</time>
      </trkpt>
      <trkpt lat="45.38734" lon="5.73718">
        <ele>472</ele>
        <time>2016-03-30T13:08:27.000Z</time>
      </trkpt>
      <trkpt lat="45.38726" lon="5.73707">
        <ele>470</ele>
        <time>2016-03-30T13:08:33.000Z</time>
      </trkpt>
      <trkpt lat="45.38721" lon="5.73692">
        <ele>468</ele>
        <time>2016-03-30T13:08:37.000Z</time>
      </trkpt>
      <trkpt lat="45.38714" lon="5.73678">
        <ele>468</ele>
        <time>2016-03-30T13:08:40.000Z</time>
      </trkpt>
      <trkpt lat="45.38709" lon="5.73665">
        <ele>469</ele>
        <time>2016-03-30T13:08:42.000Z</time>
      </trkpt>
      <trkpt lat="45.38704" lon="5.73653">
        <ele>471</ele>
        <time>2016-03-30T13:08:45.000Z</time>
      </trkpt>
      <trkpt lat="45.38701" lon="5.73636">
        <ele>467</ele>
        <time>2016-03-30T13:08:56.000Z</time>
      </trkpt>
      <trkpt lat="45.387" lon="5.73622">
        <ele>466</ele>
        <time>2016-03-30T13:08:59.000Z</time>
      </trkpt>
      <trkpt lat="45.387" lon="5.73607">
        <ele>465</ele>
        <time>2016-03-30T13:09:01.000Z</time>
      </trkpt>
      <trkpt lat="45.38699" lon="5.7358">
        <ele>465</ele>
        <time>2016-03-30T13:09:03.000Z</time>
      </trkpt>
      <trkpt lat="45.387" lon="5.73562">
        <ele>464</ele>
        <time>2016-03-30T13:09:04.000Z</time>
      </trkpt>
      <trkpt lat="45.38698" lon="5.73545">
        <ele>465</ele>
        <time>2016-03-30T13:09:05.000Z</time>
      </trkpt>
      <trkpt lat="45.38697" lon="5.7353">
        <ele>466</ele>
        <time>2016-03-30T13:09:06.000Z</time>
      </trkpt>
      <trkpt lat="45.38698" lon="5.73517">
        <ele>465</ele>
        <time>2016-03-30T13:09:07.000Z</time>
      </trkpt>
      <trkpt lat="45.38699" lon="5.73503">
        <ele>465</ele>
        <time>2016-03-30T13:09:08.000Z</time>
      </trkpt>
      <trkpt lat="45.38699" lon="5.73489">
        <ele>465</ele>
        <time>2016-03-30T13:09:09.000Z</time>
      </trkpt>
      <trkpt lat="45.38699" lon="5.73475">
        <ele>466</ele>
        <time>2016-03-30T13:09:10.000Z</time>
      </trkpt>
      <trkpt lat="45.387" lon="5.73462">
        <ele>466</ele>
        <time>2016-03-30T13:09:11.000Z</time>
      </trkpt>
      <trkpt lat="45.38694" lon="5.73447">
        <ele>468</ele>
        <time>2016-03-30T13:09:12.000Z</time>
      </trkpt>
      <trkpt lat="45.38697" lon="5.73435">
        <ele>468</ele>
        <time>2016-03-30T13:09:13.000Z</time>
      </trkpt>
      <trkpt lat="45.38699" lon="5.7342">
        <ele>469</ele>
        <time>2016-03-30T13:09:14.000Z</time>
      </trkpt>
      <trkpt lat="45.38703" lon="5.73406">
        <ele>469</ele>
        <time>2016-03-30T13:09:15.000Z</time>
      </trkpt>
      <trkpt lat="45.38717" lon="5.73388">
        <ele>468</ele>
        <time>2016-03-30T13:09:17.000Z</time>
      </trkpt>
      <trkpt lat="45.38726" lon="5.73369">
        <ele>466</ele>
        <time>2016-03-30T13:09:19.000Z</time>
      </trkpt>
      <trkpt lat="45.38728" lon="5.73356">
        <ele>466</ele>
        <time>2016-03-30T13:09:20.000Z</time>
      </trkpt>
      <trkpt lat="45.38727" lon="5.7334">
        <ele>465</ele>
        <time>2016-03-30T13:09:21.000Z</time>
      </trkpt>
      <trkpt lat="45.38732" lon="5.73328">
        <ele>465</ele>
        <time>2016-03-30T13:09:22.000Z</time>
      </trkpt>
      <trkpt lat="45.38736" lon="5.73312">
        <ele>466</ele>
        <time>2016-03-30T13:09:23.000Z</time>
      </trkpt>
      <trkpt lat="45.38738" lon="5.73295">
        <ele>465</ele>
        <time>2016-03-30T13:09:24.000Z</time>
      </trkpt>
      <trkpt lat="45.38741" lon="5.73278">
        <ele>465</ele>
        <time>2016-03-30T13:09:25.000Z</time>
      </trkpt>
      <trkpt lat="45.38742" lon="5.7326">
        <ele>466</ele>
        <time>2016-03-30T13:09:26.000Z</time>
      </trkpt>
      <trkpt lat="45.38745" lon="5.73244">
        <ele>466</ele>
        <time>2016-03-30T13:09:27.000Z</time>
      </trkpt>
      <trkpt lat="45.38747" lon="5.73225">
        <ele>467</ele>
        <time>2016-03-30T13:09:28.000Z</time>
      </trkpt>
      <trkpt lat="45.38748" lon="5.73208">
        <ele>467</ele>
        <time>2016-03-30T13:09:29.000Z</time>
      </trkpt>
      <trkpt lat="45.38751" lon="5.73191">
        <ele>467</ele>
        <time>2016-03-30T13:09:30.000Z</time>
      </trkpt>
      <trkpt lat="45.38753" lon="5.73173">
        <ele>466</ele>
        <time>2016-03-30T13:09:31.000Z</time>
      </trkpt>
      <trkpt lat="45.38755" lon="5.73156">
        <ele>465</ele>
        <time>2016-03-30T13:09:32.000Z</time>
      </trkpt>
      <trkpt lat="45.38759" lon="5.73139">
        <ele>466</ele>
        <time>2016-03-30T13:09:33.000Z</time>
      </trkpt>
      <trkpt lat="45.38762" lon="5.73123">
        <ele>467</ele>
        <time>2016-03-30T13:09:34.000Z</time>
      </trkpt>
      <trkpt lat="45.38765" lon="5.73106">
        <ele>467</ele>
        <time>2016-03-30T13:09:35.000Z</time>
      </trkpt>
      <trkpt lat="45.38766" lon="5.73089">
        <ele>465</ele>
        <time>2016-03-30T13:09:36.000Z</time>
      </trkpt>
      <trkpt lat="45.38769" lon="5.7307">
        <ele>467</ele>
        <time>2016-03-30T13:09:37.000Z</time>
      </trkpt>
      <trkpt lat="45.38772" lon="5.73051">
        <ele>467</ele>
        <time>2016-03-30T13:09:38.000Z</time>
      </trkpt>
      <trkpt lat="45.38775" lon="5.73034">
        <ele>466</ele>
        <time>2016-03-30T13:09:39.000Z</time>
      </trkpt>
      <trkpt lat="45.38778" lon="5.7302">
        <ele>467</ele>
        <time>2016-03-30T13:09:40.000Z</time>
      </trkpt>
      <trkpt lat="45.38779" lon="5.73004">
        <ele>467</ele>
        <time>2016-03-30T13:09:41.000Z</time>
      </trkpt>
      <trkpt lat="45.38783" lon="5.72988">
        <ele>467</ele>
        <time>2016-03-30T13:09:42.000Z</time>
      </trkpt>
      <trkpt lat="45.38785" lon="5.72969">
        <ele>467</ele>
        <time>2016-03-30T13:09:43.000Z</time>
      </trkpt>
      <trkpt lat="45.38787" lon="5.72956">
        <ele>465</ele>
        <time>2016-03-30T13:09:44.000Z</time>
      </trkpt>
      <trkpt lat="45.3879" lon="5.72937">
        <ele>465</ele>
        <time>2016-03-30T13:09:45.000Z</time>
      </trkpt>
      <trkpt lat="45.38793" lon="5.72919">
        <ele>464</ele>
        <time>2016-03-30T13:09:46.000Z</time>
      </trkpt>
      <trkpt lat="45.38796" lon="5.72902">
        <ele>464</ele>
        <time>2016-03-30T13:09:47.000Z</time>
      </trkpt>
      <trkpt lat="45.38797" lon="5.72882">
        <ele>464</ele>
        <time>2016-03-30T13:09:48.000Z</time>
      </trkpt>
      <trkpt lat="45.388" lon="5.72862">
        <ele>464</ele>
        <time>2016-03-30T13:09:49.000Z</time>
      </trkpt>
      <trkpt lat="45.38803" lon="5.72844">
        <ele>464</ele>
        <time>2016-03-30T13:09:50.000Z</time>
      </trkpt>
      <trkpt lat="45.38805" lon="5.7283">
        <ele>465</ele>
        <time>2016-03-30T13:09:51.000Z</time>
      </trkpt>
      <trkpt lat="45.38812" lon="5.72812">
        <ele>465</ele>
        <time>2016-03-30T13:09:53.000Z</time>
      </trkpt>
      <trkpt lat="45.38821" lon="5.728">
        <ele>463</ele>
        <time>2016-03-30T13:09:55.000Z</time>
      </trkpt>
      <trkpt lat="45.38833" lon="5.72814">
        <ele>464</ele>
        <time>2016-03-30T13:09:57.000Z</time>
      </trkpt>
      <trkpt lat="45.38844" lon="5.72826">
        <ele>464</ele>
        <time>2016-03-30T13:09:58.000Z</time>
      </trkpt>
      <trkpt lat="45.38853" lon="5.72832">
        <ele>466</ele>
        <time>2016-03-30T13:09:59.000Z</time>
      </trkpt>
      <trkpt lat="45.38872" lon="5.72843">
        <ele>466</ele>
        <time>2016-03-30T13:10:01.000Z</time>
      </trkpt>
      <trkpt lat="45.38883" lon="5.72848">
        <ele>466</ele>
        <time>2016-03-30T13:10:02.000Z</time>
      </trkpt>
      <trkpt lat="45.38893" lon="5.72852">
        <ele>466</ele>
        <time>2016-03-30T13:10:03.000Z</time>
      </trkpt>
      <trkpt lat="45.38904" lon="5.72856">
        <ele>466</ele>
        <time>2016-03-30T13:10:04.000Z</time>
      </trkpt>
      <trkpt lat="45.38914" lon="5.72859">
        <ele>464</ele>
        <time>2016-03-30T13:10:05.000Z</time>
      </trkpt>
      <trkpt lat="45.38923" lon="5.72862">
        <ele>467</ele>
        <time>2016-03-30T13:10:06.000Z</time>
      </trkpt>
      <trkpt lat="45.38932" lon="5.72865">
        <ele>466</ele>
        <time>2016-03-30T13:10:07.000Z</time>
      </trkpt>
      <trkpt lat="45.38944" lon="5.72869">
        <ele>465</ele>
        <time>2016-03-30T13:10:08.000Z</time>
      </trkpt>
      <trkpt lat="45.38956" lon="5.72871">
        <ele>465</ele>
        <time>2016-03-30T13:10:09.000Z</time>
      </trkpt>
      <trkpt lat="45.38967" lon="5.72874">
        <ele>463</ele>
        <time>2016-03-30T13:10:10.000Z</time>
      </trkpt>
      <trkpt lat="45.38981" lon="5.72876">
        <ele>463</ele>
        <time>2016-03-30T13:10:11.000Z</time>
      </trkpt>
      <trkpt lat="45.38994" lon="5.72878">
        <ele>464</ele>
        <time>2016-03-30T13:10:12.000Z</time>
      </trkpt>
      <trkpt lat="45.39012" lon="5.72883">
        <ele>466</ele>
        <time>2016-03-30T13:10:14.000Z</time>
      </trkpt>
      <trkpt lat="45.39024" lon="5.72885">
        <ele>466</ele>
        <time>2016-03-30T13:10:15.000Z</time>
      </trkpt>
      <trkpt lat="45.39037" lon="5.72891">
        <ele>466</ele>
        <time>2016-03-30T13:10:16.000Z</time>
      </trkpt>
      <trkpt lat="45.3905" lon="5.72899">
        <ele>466</ele>
        <time>2016-03-30T13:10:17.000Z</time>
      </trkpt>
      <trkpt lat="45.39063" lon="5.72908">
        <ele>464</ele>
        <time>2016-03-30T13:10:18.000Z</time>
      </trkpt>
      <trkpt lat="45.39074" lon="5.72916">
        <ele>465</ele>
        <time>2016-03-30T13:10:19.000Z</time>
      </trkpt>
      <trkpt lat="45.39083" lon="5.72923">
        <ele>464</ele>
        <time>2016-03-30T13:10:20.000Z</time>
      </trkpt>
      <trkpt lat="45.39092" lon="5.72931">
        <ele>464</ele>
        <time>2016-03-30T13:10:21.000Z</time>
      </trkpt>
      <trkpt lat="45.391" lon="5.72939">
        <ele>464</ele>
        <time>2016-03-30T13:10:22.000Z</time>
      </trkpt>
      <trkpt lat="45.39111" lon="5.72945">
        <ele>464</ele>
        <time>2016-03-30T13:10:23.000Z</time>
      </trkpt>
      <trkpt lat="45.39121" lon="5.72953">
        <ele>464</ele>
        <time>2016-03-30T13:10:24.000Z</time>
      </trkpt>
      <trkpt lat="45.39134" lon="5.72963">
        <ele>469</ele>
        <time>2016-03-30T13:10:26.000Z</time>
      </trkpt>
      <trkpt lat="45.39142" lon="5.7297">
        <ele>468</ele>
        <time>2016-03-30T13:10:27.000Z</time>
      </trkpt>
      <trkpt lat="45.3915" lon="5.72976">
        <ele>467</ele>
        <time>2016-03-30T13:10:28.000Z</time>
      </trkpt>
      <trkpt lat="45.39158" lon="5.72984">
        <ele>467</ele>
        <time>2016-03-30T13:10:29.000Z</time>
      </trkpt>
      <trkpt lat="45.39165" lon="5.72992">
        <ele>466</ele>
        <time>2016-03-30T13:10:30.000Z</time>
      </trkpt>
      <trkpt lat="45.39179" lon="5.73005">
        <ele>467</ele>
        <time>2016-03-30T13:10:32.000Z</time>
      </trkpt>
      <trkpt lat="45.39193" lon="5.73021">
        <ele>469</ele>
        <time>2016-03-30T13:10:34.000Z</time>
      </trkpt>
      <trkpt lat="45.39208" lon="5.73035">
        <ele>469</ele>
        <time>2016-03-30T13:10:36.000Z</time>
      </trkpt>
      <trkpt lat="45.39223" lon="5.73048">
        <ele>471</ele>
        <time>2016-03-30T13:10:38.000Z</time>
      </trkpt>
      <trkpt lat="45.39234" lon="5.73061">
        <ele>470</ele>
        <time>2016-03-30T13:10:40.000Z</time>
      </trkpt>
      <trkpt lat="45.39241" lon="5.73072">
        <ele>470</ele>
        <time>2016-03-30T13:10:43.000Z</time>
      </trkpt>
      <trkpt lat="45.39249" lon="5.73078">
        <ele>470</ele>
        <time>2016-03-30T13:10:45.000Z</time>
      </trkpt>
      <trkpt lat="45.3926" lon="5.73082">
        <ele>471</ele>
        <time>2016-03-30T13:10:46.000Z</time>
      </trkpt>
      <trkpt lat="45.39269" lon="5.73086">
        <ele>471</ele>
        <time>2016-03-30T13:10:47.000Z</time>
      </trkpt>
      <trkpt lat="45.39285" lon="5.73094">
        <ele>471</ele>
        <time>2016-03-30T13:10:49.000Z</time>
      </trkpt>
      <trkpt lat="45.39294" lon="5.73101">
        <ele>470</ele>
        <time>2016-03-30T13:10:50.000Z</time>
      </trkpt>
      <trkpt lat="45.39302" lon="5.73108">
        <ele>468</ele>
        <time>2016-03-30T13:10:51.000Z</time>
      </trkpt>
      <trkpt lat="45.3931" lon="5.73115">
        <ele>468</ele>
        <time>2016-03-30T13:10:52.000Z</time>
      </trkpt>
      <trkpt lat="45.39317" lon="5.73125">
        <ele>468</ele>
        <time>2016-03-30T13:10:53.000Z</time>
      </trkpt>
      <trkpt lat="45.3933" lon="5.7314">
        <ele>467</ele>
        <time>2016-03-30T13:10:55.000Z</time>
      </trkpt>
      <trkpt lat="45.39337" lon="5.73157">
        <ele>466</ele>
        <time>2016-03-30T13:10:57.000Z</time>
      </trkpt>
      <trkpt lat="45.39346" lon="5.73173">
        <ele>466</ele>
        <time>2016-03-30T13:10:59.000Z</time>
      </trkpt>
      <trkpt lat="45.39358" lon="5.73192">
        <ele>466</ele>
        <time>2016-03-30T13:11:01.000Z</time>
      </trkpt>
      <trkpt lat="45.39368" lon="5.73211">
        <ele>467</ele>
        <time>2016-03-30T13:11:03.000Z</time>
      </trkpt>
      <trkpt lat="45.39377" lon="5.7323">
        <ele>466</ele>
        <time>2016-03-30T13:11:05.000Z</time>
      </trkpt>
      <trkpt lat="45.39383" lon="5.73243">
        <ele>467</ele>
        <time>2016-03-30T13:11:07.000Z</time>
      </trkpt>
      <trkpt lat="45.39387" lon="5.73257">
        <ele>468</ele>
        <time>2016-03-30T13:11:09.000Z</time>
      </trkpt>
      <trkpt lat="45.3939" lon="5.73274">
        <ele>471</ele>
        <time>2016-03-30T13:11:11.000Z</time>
      </trkpt>
      <trkpt lat="45.39398" lon="5.73295">
        <ele>471</ele>
        <time>2016-03-30T13:11:13.000Z</time>
      </trkpt>
      <trkpt lat="45.39401" lon="5.73308">
        <ele>470</ele>
        <time>2016-03-30T13:11:14.000Z</time>
      </trkpt>
      <trkpt lat="45.39405" lon="5.73323">
        <ele>469</ele>
        <time>2016-03-30T13:11:15.000Z</time>
      </trkpt>
      <trkpt lat="45.39407" lon="5.73337">
        <ele>467</ele>
        <time>2016-03-30T13:11:16.000Z</time>
      </trkpt>
      <trkpt lat="45.39411" lon="5.73351">
        <ele>465</ele>
        <time>2016-03-30T13:11:17.000Z</time>
      </trkpt>
      <trkpt lat="45.39414" lon="5.73366">
        <ele>465</ele>
        <time>2016-03-30T13:11:18.000Z</time>
      </trkpt>
      <trkpt lat="45.39418" lon="5.7338">
        <ele>465</ele>
        <time>2016-03-30T13:11:19.000Z</time>
      </trkpt>
      <trkpt lat="45.39423" lon="5.73391">
        <ele>465</ele>
        <time>2016-03-30T13:11:20.000Z</time>
      </trkpt>
      <trkpt lat="45.39426" lon="5.73405">
        <ele>463</ele>
        <time>2016-03-30T13:11:21.000Z</time>
      </trkpt>
      <trkpt lat="45.39429" lon="5.73418">
        <ele>465</ele>
        <time>2016-03-30T13:11:22.000Z</time>
      </trkpt>
      <trkpt lat="45.39433" lon="5.73432">
        <ele>464</ele>
        <time>2016-03-30T13:11:23.000Z</time>
      </trkpt>
      <trkpt lat="45.39436" lon="5.73444">
        <ele>464</ele>
        <time>2016-03-30T13:11:24.000Z</time>
      </trkpt>
      <trkpt lat="45.39441" lon="5.73457">
        <ele>464</ele>
        <time>2016-03-30T13:11:25.000Z</time>
      </trkpt>
      <trkpt lat="45.39444" lon="5.73469">
        <ele>464</ele>
        <time>2016-03-30T13:11:26.000Z</time>
      </trkpt>
      <trkpt lat="45.39448" lon="5.73481">
        <ele>463</ele>
        <time>2016-03-30T13:11:27.000Z</time>
      </trkpt>
      <trkpt lat="45.39459" lon="5.735">
        <ele>461</ele>
        <time>2016-03-30T13:11:29.000Z</time>
      </trkpt>
      <trkpt lat="45.39468" lon="5.73505">
        <ele>463</ele>
        <time>2016-03-30T13:11:30.000Z</time>
      </trkpt>
      <trkpt lat="45.39478" lon="5.73509">
        <ele>461</ele>
        <time>2016-03-30T13:11:31.000Z</time>
      </trkpt>
      <trkpt lat="45.39488" lon="5.73512">
        <ele>464</ele>
        <time>2016-03-30T13:11:32.000Z</time>
      </trkpt>
      <trkpt lat="45.39497" lon="5.73514">
        <ele>462</ele>
        <time>2016-03-30T13:11:33.000Z</time>
      </trkpt>
      <trkpt lat="45.39506" lon="5.73516">
        <ele>460</ele>
        <time>2016-03-30T13:11:34.000Z</time>
      </trkpt>
      <trkpt lat="45.39516" lon="5.73517">
        <ele>457</ele>
        <time>2016-03-30T13:11:35.000Z</time>
      </trkpt>
      <trkpt lat="45.39526" lon="5.73519">
        <ele>457</ele>
        <time>2016-03-30T13:11:36.000Z</time>
      </trkpt>
      <trkpt lat="45.39544" lon="5.73526">
        <ele>454</ele>
        <time>2016-03-30T13:11:38.000Z</time>
      </trkpt>
      <trkpt lat="45.39553" lon="5.73532">
        <ele>455</ele>
        <time>2016-03-30T13:11:39.000Z</time>
      </trkpt>
      <trkpt lat="45.39562" lon="5.7354">
        <ele>456</ele>
        <time>2016-03-30T13:11:40.000Z</time>
      </trkpt>
      <trkpt lat="45.39571" lon="5.73548">
        <ele>456</ele>
        <time>2016-03-30T13:11:41.000Z</time>
      </trkpt>
      <trkpt lat="45.39581" lon="5.73558">
        <ele>458</ele>
        <time>2016-03-30T13:11:42.000Z</time>
      </trkpt>
      <trkpt lat="45.39591" lon="5.73565">
        <ele>459</ele>
        <time>2016-03-30T13:11:43.000Z</time>
      </trkpt>
      <trkpt lat="45.396" lon="5.73575">
        <ele>459</ele>
        <time>2016-03-30T13:11:44.000Z</time>
      </trkpt>
      <trkpt lat="45.3961" lon="5.73583">
        <ele>457</ele>
        <time>2016-03-30T13:11:45.000Z</time>
      </trkpt>
      <trkpt lat="45.39618" lon="5.7359">
        <ele>456</ele>
        <time>2016-03-30T13:11:46.000Z</time>
      </trkpt>
      <trkpt lat="45.39627" lon="5.73598">
        <ele>455</ele>
        <time>2016-03-30T13:11:47.000Z</time>
      </trkpt>
      <trkpt lat="45.39636" lon="5.73606">
        <ele>454</ele>
        <time>2016-03-30T13:11:48.000Z</time>
      </trkpt>
      <trkpt lat="45.39646" lon="5.73615">
        <ele>453</ele>
        <time>2016-03-30T13:11:49.000Z</time>
      </trkpt>
      <trkpt lat="45.39655" lon="5.73625">
        <ele>453</ele>
        <time>2016-03-30T13:11:50.000Z</time>
      </trkpt>
      <trkpt lat="45.39665" lon="5.73632">
        <ele>453</ele>
        <time>2016-03-30T13:11:51.000Z</time>
      </trkpt>
      <trkpt lat="45.39674" lon="5.73636">
        <ele>453</ele>
        <time>2016-03-30T13:11:52.000Z</time>
      </trkpt>
      <trkpt lat="45.39684" lon="5.73641">
        <ele>453</ele>
        <time>2016-03-30T13:11:53.000Z</time>
      </trkpt>
      <trkpt lat="45.39694" lon="5.73645">
        <ele>453</ele>
        <time>2016-03-30T13:11:54.000Z</time>
      </trkpt>
      <trkpt lat="45.39707" lon="5.73639">
        <ele>456</ele>
        <time>2016-03-30T13:11:56.000Z</time>
      </trkpt>
      <trkpt lat="45.39721" lon="5.73628">
        <ele>457</ele>
        <time>2016-03-30T13:11:58.000Z</time>
      </trkpt>
      <trkpt lat="45.39732" lon="5.7361">
        <ele>457</ele>
        <time>2016-03-30T13:12:00.000Z</time>
      </trkpt>
      <trkpt lat="45.39745" lon="5.73594">
        <ele>456</ele>
        <time>2016-03-30T13:12:02.000Z</time>
      </trkpt>
      <trkpt lat="45.39754" lon="5.73577">
        <ele>456</ele>
        <time>2016-03-30T13:12:04.000Z</time>
      </trkpt>
      <trkpt lat="45.39754" lon="5.73555">
        <ele>456</ele>
        <time>2016-03-30T13:12:06.000Z</time>
      </trkpt>
      <trkpt lat="45.3975" lon="5.73529">
        <ele>456</ele>
        <time>2016-03-30T13:12:08.000Z</time>
      </trkpt>
      <trkpt lat="45.39746" lon="5.73508">
        <ele>456</ele>
        <time>2016-03-30T13:12:10.000Z</time>
      </trkpt>
      <trkpt lat="45.39745" lon="5.73494">
        <ele>456</ele>
        <time>2016-03-30T13:12:12.000Z</time>
      </trkpt>
      <trkpt lat="45.39749" lon="5.73478">
        <ele>455</ele>
        <time>2016-03-30T13:12:15.000Z</time>
      </trkpt>
      <trkpt lat="45.39756" lon="5.73469">
        <ele>456</ele>
        <time>2016-03-30T13:12:17.000Z</time>
      </trkpt>
      <trkpt lat="45.39764" lon="5.73458">
        <ele>457</ele>
        <time>2016-03-30T13:12:19.000Z</time>
      </trkpt>
      <trkpt lat="45.39772" lon="5.73446">
        <ele>457</ele>
        <time>2016-03-30T13:12:21.000Z</time>
      </trkpt>
      <trkpt lat="45.39778" lon="5.73434">
        <ele>458</ele>
        <time>2016-03-30T13:12:23.000Z</time>
      </trkpt>
      <trkpt lat="45.39776" lon="5.73415">
        <ele>457</ele>
        <time>2016-03-30T13:12:26.000Z</time>
      </trkpt>
      <trkpt lat="45.39769" lon="5.73402">
        <ele>458</ele>
        <time>2016-03-30T13:12:28.000Z</time>
      </trkpt>
      <trkpt lat="45.39761" lon="5.73392">
        <ele>456</ele>
        <time>2016-03-30T13:12:30.000Z</time>
      </trkpt>
      <trkpt lat="45.39754" lon="5.7338">
        <ele>457</ele>
        <time>2016-03-30T13:12:32.000Z</time>
      </trkpt>
      <trkpt lat="45.39745" lon="5.7337">
        <ele>457</ele>
        <time>2016-03-30T13:12:34.000Z</time>
      </trkpt>
      <trkpt lat="45.39736" lon="5.73356">
        <ele>456</ele>
        <time>2016-03-30T13:12:36.000Z</time>
      </trkpt>
      <trkpt lat="45.39729" lon="5.73344">
        <ele>455</ele>
        <time>2016-03-30T13:12:38.000Z</time>
      </trkpt>
      <trkpt lat="45.39723" lon="5.73332">
        <ele>456</ele>
        <time>2016-03-30T13:12:40.000Z</time>
      </trkpt>
      <trkpt lat="45.39715" lon="5.73324">
        <ele>454</ele>
        <time>2016-03-30T13:12:44.000Z</time>
      </trkpt>
      <trkpt lat="45.39722" lon="5.73337">
        <ele>454</ele>
        <time>2016-03-30T13:12:47.000Z</time>
      </trkpt>
      <trkpt lat="45.39729" lon="5.73347">
        <ele>454</ele>
        <time>2016-03-30T13:12:49.000Z</time>
      </trkpt>
      <trkpt lat="45.39737" lon="5.73359">
        <ele>454</ele>
        <time>2016-03-30T13:12:51.000Z</time>
      </trkpt>
      <trkpt lat="45.39747" lon="5.73368">
        <ele>454</ele>
        <time>2016-03-30T13:12:53.000Z</time>
      </trkpt>
      <trkpt lat="45.39755" lon="5.73377">
        <ele>453</ele>
        <time>2016-03-30T13:12:55.000Z</time>
      </trkpt>
      <trkpt lat="45.39764" lon="5.73392">
        <ele>452</ele>
        <time>2016-03-30T13:12:57.000Z</time>
      </trkpt>
      <trkpt lat="45.39773" lon="5.73405">
        <ele>453</ele>
        <time>2016-03-30T13:12:59.000Z</time>
      </trkpt>
      <trkpt lat="45.39778" lon="5.73419">
        <ele>453</ele>
        <time>2016-03-30T13:13:01.000Z</time>
      </trkpt>
      <trkpt lat="45.39776" lon="5.73435">
        <ele>452</ele>
        <time>2016-03-30T13:13:03.000Z</time>
      </trkpt>
      <trkpt lat="45.39769" lon="5.73448">
        <ele>452</ele>
        <time>2016-03-30T13:13:05.000Z</time>
      </trkpt>
      <trkpt lat="45.39759" lon="5.73461">
        <ele>452</ele>
        <time>2016-03-30T13:13:07.000Z</time>
      </trkpt>
      <trkpt lat="45.39751" lon="5.73471">
        <ele>450</ele>
        <time>2016-03-30T13:13:09.000Z</time>
      </trkpt>
      <trkpt lat="45.39742" lon="5.73473">
        <ele>449</ele>
        <time>2016-03-30T13:13:11.000Z</time>
      </trkpt>
      <trkpt lat="45.39728" lon="5.73471">
        <ele>449</ele>
        <time>2016-03-30T13:13:13.000Z</time>
      </trkpt>
      <trkpt lat="45.39717" lon="5.73468">
        <ele>450</ele>
        <time>2016-03-30T13:13:15.000Z</time>
      </trkpt>
      <trkpt lat="45.39705" lon="5.73472">
        <ele>450</ele>
        <time>2016-03-30T13:13:17.000Z</time>
      </trkpt>
      <trkpt lat="45.39694" lon="5.73482">
        <ele>451</ele>
        <time>2016-03-30T13:13:19.000Z</time>
      </trkpt>
      <trkpt lat="45.39686" lon="5.73497">
        <ele>450</ele>
        <time>2016-03-30T13:13:21.000Z</time>
      </trkpt>
      <trkpt lat="45.39676" lon="5.73512">
        <ele>448</ele>
        <time>2016-03-30T13:13:23.000Z</time>
      </trkpt>
      <trkpt lat="45.39668" lon="5.73529">
        <ele>447</ele>
        <time>2016-03-30T13:13:25.000Z</time>
      </trkpt>
      <trkpt lat="45.3966" lon="5.73545">
        <ele>446</ele>
        <time>2016-03-30T13:13:27.000Z</time>
      </trkpt>
      <trkpt lat="45.39651" lon="5.73559">
        <ele>446</ele>
        <time>2016-03-30T13:13:29.000Z</time>
      </trkpt>
      <trkpt lat="45.39645" lon="5.73573">
        <ele>446</ele>
        <time>2016-03-30T13:13:31.000Z</time>
      </trkpt>
      <trkpt lat="45.39639" lon="5.73583">
        <ele>447</ele>
        <time>2016-03-30T13:13:33.000Z</time>
      </trkpt>
      <trkpt lat="45.39632" lon="5.73593">
        <ele>451</ele>
        <time>2016-03-30T13:13:38.000Z</time>
      </trkpt>
      <trkpt lat="45.39611" lon="5.73578">
        <ele>454</ele>
        <time>2016-03-30T13:13:47.000Z</time>
      </trkpt>
      <trkpt lat="45.39603" lon="5.73572">
        <ele>454</ele>
        <time>2016-03-30T13:13:48.000Z</time>
      </trkpt>
      <trkpt lat="45.39595" lon="5.73566">
        <ele>453</ele>
        <time>2016-03-30T13:13:49.000Z</time>
      </trkpt>
      <trkpt lat="45.39587" lon="5.7356">
        <ele>453</ele>
        <time>2016-03-30T13:13:50.000Z</time>
      </trkpt>
      <trkpt lat="45.39573" lon="5.73548">
        <ele>453</ele>
        <time>2016-03-30T13:13:52.000Z</time>
      </trkpt>
      <trkpt lat="45.39565" lon="5.7354">
        <ele>454</ele>
        <time>2016-03-30T13:13:53.000Z</time>
      </trkpt>
      <trkpt lat="45.39558" lon="5.73533">
        <ele>453</ele>
        <time>2016-03-30T13:13:54.000Z</time>
      </trkpt>
      <trkpt lat="45.39549" lon="5.73527">
        <ele>453</ele>
        <time>2016-03-30T13:13:55.000Z</time>
      </trkpt>
      <trkpt lat="45.39541" lon="5.73523">
        <ele>453</ele>
        <time>2016-03-30T13:13:56.000Z</time>
      </trkpt>
      <trkpt lat="45.39531" lon="5.7352">
        <ele>452</ele>
        <time>2016-03-30T13:13:57.000Z</time>
      </trkpt>
      <trkpt lat="45.39522" lon="5.73519">
        <ele>452</ele>
        <time>2016-03-30T13:13:58.000Z</time>
      </trkpt>
      <trkpt lat="45.39512" lon="5.73517">
        <ele>453</ele>
        <time>2016-03-30T13:13:59.000Z</time>
      </trkpt>
      <trkpt lat="45.39503" lon="5.73514">
        <ele>453</ele>
        <time>2016-03-30T13:14:00.000Z</time>
      </trkpt>
      <trkpt lat="45.39486" lon="5.73511">
        <ele>454</ele>
        <time>2016-03-30T13:14:02.000Z</time>
      </trkpt>
      <trkpt lat="45.39473" lon="5.73505">
        <ele>453</ele>
        <time>2016-03-30T13:14:04.000Z</time>
      </trkpt>
      <trkpt lat="45.3946" lon="5.73494">
        <ele>453</ele>
        <time>2016-03-30T13:14:06.000Z</time>
      </trkpt>
      <trkpt lat="45.39448" lon="5.73478">
        <ele>454</ele>
        <time>2016-03-30T13:14:08.000Z</time>
      </trkpt>
      <trkpt lat="45.39441" lon="5.73456">
        <ele>454</ele>
        <time>2016-03-30T13:14:10.000Z</time>
      </trkpt>
      <trkpt lat="45.39436" lon="5.73444">
        <ele>454</ele>
        <time>2016-03-30T13:14:11.000Z</time>
      </trkpt>
      <trkpt lat="45.39431" lon="5.73432">
        <ele>455</ele>
        <time>2016-03-30T13:14:12.000Z</time>
      </trkpt>
      <trkpt lat="45.39426" lon="5.7341">
        <ele>456</ele>
        <time>2016-03-30T13:14:14.000Z</time>
      </trkpt>
      <trkpt lat="45.3942" lon="5.73387">
        <ele>457</ele>
        <time>2016-03-30T13:14:16.000Z</time>
      </trkpt>
      <trkpt lat="45.39414" lon="5.73366">
        <ele>458</ele>
        <time>2016-03-30T13:14:18.000Z</time>
      </trkpt>
      <trkpt lat="45.39409" lon="5.73342">
        <ele>458</ele>
        <time>2016-03-30T13:14:20.000Z</time>
      </trkpt>
      <trkpt lat="45.39403" lon="5.7332">
        <ele>457</ele>
        <time>2016-03-30T13:14:22.000Z</time>
      </trkpt>
      <trkpt lat="45.394" lon="5.73308">
        <ele>458</ele>
        <time>2016-03-30T13:14:23.000Z</time>
      </trkpt>
      <trkpt lat="45.39396" lon="5.73296">
        <ele>458</ele>
        <time>2016-03-30T13:14:24.000Z</time>
      </trkpt>
      <trkpt lat="45.39391" lon="5.73274">
        <ele>458</ele>
        <time>2016-03-30T13:14:26.000Z</time>
      </trkpt>
      <trkpt lat="45.39386" lon="5.73254">
        <ele>459</ele>
        <time>2016-03-30T13:14:28.000Z</time>
      </trkpt>
      <trkpt lat="45.3938" lon="5.73239">
        <ele>458</ele>
        <time>2016-03-30T13:14:30.000Z</time>
      </trkpt>
      <trkpt lat="45.39374" lon="5.73225">
        <ele>459</ele>
        <time>2016-03-30T13:14:32.000Z</time>
      </trkpt>
      <trkpt lat="45.39365" lon="5.73207">
        <ele>459</ele>
        <time>2016-03-30T13:14:34.000Z</time>
      </trkpt>
      <trkpt lat="45.39356" lon="5.73188">
        <ele>459</ele>
        <time>2016-03-30T13:14:36.000Z</time>
      </trkpt>
      <trkpt lat="45.39347" lon="5.73173">
        <ele>459</ele>
        <time>2016-03-30T13:14:38.000Z</time>
      </trkpt>
      <trkpt lat="45.39337" lon="5.73158">
        <ele>460</ele>
        <time>2016-03-30T13:14:40.000Z</time>
      </trkpt>
      <trkpt lat="45.39329" lon="5.73143">
        <ele>459</ele>
        <time>2016-03-30T13:14:42.000Z</time>
      </trkpt>
      <trkpt lat="45.39316" lon="5.73127">
        <ele>459</ele>
        <time>2016-03-30T13:14:44.000Z</time>
      </trkpt>
      <trkpt lat="45.39304" lon="5.73114">
        <ele>459</ele>
        <time>2016-03-30T13:14:46.000Z</time>
      </trkpt>
      <trkpt lat="45.39294" lon="5.73102">
        <ele>459</ele>
        <time>2016-03-30T13:14:48.000Z</time>
      </trkpt>
      <trkpt lat="45.3929" lon="5.73088">
        <ele>459</ele>
        <time>2016-03-30T13:14:50.000Z</time>
      </trkpt>
      <trkpt lat="45.39279" lon="5.73081">
        <ele>459</ele>
        <time>2016-03-30T13:14:52.000Z</time>
      </trkpt>
      <trkpt lat="45.39261" lon="5.73076">
        <ele>460</ele>
        <time>2016-03-30T13:14:54.000Z</time>
      </trkpt>
      <trkpt lat="45.39244" lon="5.73066">
        <ele>460</ele>
        <time>2016-03-30T13:14:56.000Z</time>
      </trkpt>
      <trkpt lat="45.39235" lon="5.73059">
        <ele>460</ele>
        <time>2016-03-30T13:14:57.000Z</time>
      </trkpt>
      <trkpt lat="45.39225" lon="5.73052">
        <ele>460</ele>
        <time>2016-03-30T13:14:58.000Z</time>
      </trkpt>
      <trkpt lat="45.39215" lon="5.73043">
        <ele>460</ele>
        <time>2016-03-30T13:14:59.000Z</time>
      </trkpt>
      <trkpt lat="45.39205" lon="5.73035">
        <ele>460</ele>
        <time>2016-03-30T13:15:00.000Z</time>
      </trkpt>
      <trkpt lat="45.39195" lon="5.73025">
        <ele>460</ele>
        <time>2016-03-30T13:15:01.000Z</time>
      </trkpt>
      <trkpt lat="45.39183" lon="5.73015">
        <ele>460</ele>
        <time>2016-03-30T13:15:02.000Z</time>
      </trkpt>
      <trkpt lat="45.39173" lon="5.73005">
        <ele>461</ele>
        <time>2016-03-30T13:15:03.000Z</time>
      </trkpt>
      <trkpt lat="45.39163" lon="5.72996">
        <ele>461</ele>
        <time>2016-03-30T13:15:04.000Z</time>
      </trkpt>
      <trkpt lat="45.39154" lon="5.72988">
        <ele>461</ele>
        <time>2016-03-30T13:15:05.000Z</time>
      </trkpt>
      <trkpt lat="45.39144" lon="5.72979">
        <ele>461</ele>
        <time>2016-03-30T13:15:06.000Z</time>
      </trkpt>
      <trkpt lat="45.39135" lon="5.7297">
        <ele>461</ele>
        <time>2016-03-30T13:15:07.000Z</time>
      </trkpt>
      <trkpt lat="45.39125" lon="5.7296">
        <ele>461</ele>
        <time>2016-03-30T13:15:08.000Z</time>
      </trkpt>
      <trkpt lat="45.39114" lon="5.72951">
        <ele>460</ele>
        <time>2016-03-30T13:15:09.000Z</time>
      </trkpt>
      <trkpt lat="45.39105" lon="5.7294">
        <ele>461</ele>
        <time>2016-03-30T13:15:10.000Z</time>
      </trkpt>
      <trkpt lat="45.39095" lon="5.72931">
        <ele>461</ele>
        <time>2016-03-30T13:15:11.000Z</time>
      </trkpt>
      <trkpt lat="45.39084" lon="5.72922">
        <ele>463</ele>
        <time>2016-03-30T13:15:12.000Z</time>
      </trkpt>
      <trkpt lat="45.39074" lon="5.72914">
        <ele>463</ele>
        <time>2016-03-30T13:15:13.000Z</time>
      </trkpt>
      <trkpt lat="45.39064" lon="5.72907">
        <ele>464</ele>
        <time>2016-03-30T13:15:14.000Z</time>
      </trkpt>
      <trkpt lat="45.39053" lon="5.72901">
        <ele>464</ele>
        <time>2016-03-30T13:15:15.000Z</time>
      </trkpt>
      <trkpt lat="45.39043" lon="5.72894">
        <ele>463</ele>
        <time>2016-03-30T13:15:16.000Z</time>
      </trkpt>
      <trkpt lat="45.39034" lon="5.72887">
        <ele>464</ele>
        <time>2016-03-30T13:15:17.000Z</time>
      </trkpt>
      <trkpt lat="45.39024" lon="5.72882">
        <ele>465</ele>
        <time>2016-03-30T13:15:18.000Z</time>
      </trkpt>
      <trkpt lat="45.39014" lon="5.72878">
        <ele>465</ele>
        <time>2016-03-30T13:15:19.000Z</time>
      </trkpt>
      <trkpt lat="45.39002" lon="5.72876">
        <ele>464</ele>
        <time>2016-03-30T13:15:20.000Z</time>
      </trkpt>
      <trkpt lat="45.3899" lon="5.72874">
        <ele>464</ele>
        <time>2016-03-30T13:15:21.000Z</time>
      </trkpt>
      <trkpt lat="45.38976" lon="5.72872">
        <ele>464</ele>
        <time>2016-03-30T13:15:22.000Z</time>
      </trkpt>
      <trkpt lat="45.38963" lon="5.7287">
        <ele>463</ele>
        <time>2016-03-30T13:15:23.000Z</time>
      </trkpt>
      <trkpt lat="45.3895" lon="5.72868">
        <ele>463</ele>
        <time>2016-03-30T13:15:24.000Z</time>
      </trkpt>
      <trkpt lat="45.38937" lon="5.72865">
        <ele>464</ele>
        <time>2016-03-30T13:15:25.000Z</time>
      </trkpt>
      <trkpt lat="45.38924" lon="5.72864">
        <ele>464</ele>
        <time>2016-03-30T13:15:26.000Z</time>
      </trkpt>
      <trkpt lat="45.3891" lon="5.72859">
        <ele>464</ele>
        <time>2016-03-30T13:15:27.000Z</time>
      </trkpt>
      <trkpt lat="45.38899" lon="5.72856">
        <ele>463</ele>
        <time>2016-03-30T13:15:28.000Z</time>
      </trkpt>
      <trkpt lat="45.38887" lon="5.72851">
        <ele>463</ele>
        <time>2016-03-30T13:15:29.000Z</time>
      </trkpt>
      <trkpt lat="45.38878" lon="5.72846">
        <ele>463</ele>
        <time>2016-03-30T13:15:30.000Z</time>
      </trkpt>
      <trkpt lat="45.38867" lon="5.72841">
        <ele>462</ele>
        <time>2016-03-30T13:15:31.000Z</time>
      </trkpt>
      <trkpt lat="45.38857" lon="5.72838">
        <ele>462</ele>
        <time>2016-03-30T13:15:32.000Z</time>
      </trkpt>
      <trkpt lat="45.38848" lon="5.72835">
        <ele>462</ele>
        <time>2016-03-30T13:15:33.000Z</time>
      </trkpt>
      <trkpt lat="45.38834" lon="5.72825">
        <ele>463</ele>
        <time>2016-03-30T13:15:35.000Z</time>
      </trkpt>
      <trkpt lat="45.38822" lon="5.72818">
        <ele>462</ele>
        <time>2016-03-30T13:15:37.000Z</time>
      </trkpt>
      <trkpt lat="45.38815" lon="5.72808">
        <ele>462</ele>
        <time>2016-03-30T13:15:40.000Z</time>
      </trkpt>
      <trkpt lat="45.38811" lon="5.72796">
        <ele>463</ele>
        <time>2016-03-30T13:15:45.000Z</time>
      </trkpt>
      <trkpt lat="45.38815" lon="5.72771">
        <ele>463</ele>
        <time>2016-03-30T13:15:47.000Z</time>
      </trkpt>
      <trkpt lat="45.38817" lon="5.72757">
        <ele>462</ele>
        <time>2016-03-30T13:15:48.000Z</time>
      </trkpt>
      <trkpt lat="45.38819" lon="5.72742">
        <ele>462</ele>
        <time>2016-03-30T13:15:49.000Z</time>
      </trkpt>
      <trkpt lat="45.38822" lon="5.72725">
        <ele>462</ele>
        <time>2016-03-30T13:15:50.000Z</time>
      </trkpt>
      <trkpt lat="45.38825" lon="5.72706">
        <ele>461</ele>
        <time>2016-03-30T13:15:51.000Z</time>
      </trkpt>
      <trkpt lat="45.38828" lon="5.72687">
        <ele>461</ele>
        <time>2016-03-30T13:15:52.000Z</time>
      </trkpt>
      <trkpt lat="45.38829" lon="5.72667">
        <ele>461</ele>
        <time>2016-03-30T13:15:53.000Z</time>
      </trkpt>
      <trkpt lat="45.38832" lon="5.72647">
        <ele>461</ele>
        <time>2016-03-30T13:15:54.000Z</time>
      </trkpt>
      <trkpt lat="45.38836" lon="5.72627">
        <ele>461</ele>
        <time>2016-03-30T13:15:55.000Z</time>
      </trkpt>
      <trkpt lat="45.38837" lon="5.72607">
        <ele>462</ele>
        <time>2016-03-30T13:15:56.000Z</time>
      </trkpt>
      <trkpt lat="45.38841" lon="5.72587">
        <ele>461</ele>
        <time>2016-03-30T13:15:57.000Z</time>
      </trkpt>
      <trkpt lat="45.38843" lon="5.72567">
        <ele>461</ele>
        <time>2016-03-30T13:15:58.000Z</time>
      </trkpt>
      <trkpt lat="45.38846" lon="5.72546">
        <ele>461</ele>
        <time>2016-03-30T13:15:59.000Z</time>
      </trkpt>
      <trkpt lat="45.38849" lon="5.72524">
        <ele>461</ele>
        <time>2016-03-30T13:16:00.000Z</time>
      </trkpt>
      <trkpt lat="45.38852" lon="5.72504">
        <ele>461</ele>
        <time>2016-03-30T13:16:01.000Z</time>
      </trkpt>
      <trkpt lat="45.38854" lon="5.72486">
        <ele>461</ele>
        <time>2016-03-30T13:16:02.000Z</time>
      </trkpt>
      <trkpt lat="45.38856" lon="5.72469">
        <ele>460</ele>
        <time>2016-03-30T13:16:03.000Z</time>
      </trkpt>
      <trkpt lat="45.38858" lon="5.72453">
        <ele>460</ele>
        <time>2016-03-30T13:16:04.000Z</time>
      </trkpt>
      <trkpt lat="45.38859" lon="5.72435">
        <ele>461</ele>
        <time>2016-03-30T13:16:05.000Z</time>
      </trkpt>
      <trkpt lat="45.3886" lon="5.72417">
        <ele>459</ele>
        <time>2016-03-30T13:16:06.000Z</time>
      </trkpt>
      <trkpt lat="45.38861" lon="5.72396">
        <ele>458</ele>
        <time>2016-03-30T13:16:07.000Z</time>
      </trkpt>
      <trkpt lat="45.3886" lon="5.72374">
        <ele>458</ele>
        <time>2016-03-30T13:16:08.000Z</time>
      </trkpt>
      <trkpt lat="45.3886" lon="5.72355">
        <ele>458</ele>
        <time>2016-03-30T13:16:09.000Z</time>
      </trkpt>
      <trkpt lat="45.3886" lon="5.72333">
        <ele>458</ele>
        <time>2016-03-30T13:16:10.000Z</time>
      </trkpt>
      <trkpt lat="45.38859" lon="5.7231">
        <ele>459</ele>
        <time>2016-03-30T13:16:11.000Z</time>
      </trkpt>
      <trkpt lat="45.38857" lon="5.72286">
        <ele>458</ele>
        <time>2016-03-30T13:16:12.000Z</time>
      </trkpt>
      <trkpt lat="45.38855" lon="5.72262">
        <ele>458</ele>
        <time>2016-03-30T13:16:13.000Z</time>
      </trkpt>
      <trkpt lat="45.38852" lon="5.72241">
        <ele>456</ele>
        <time>2016-03-30T13:16:14.000Z</time>
      </trkpt>
      <trkpt lat="45.3885" lon="5.72216">
        <ele>457</ele>
        <time>2016-03-30T13:16:15.000Z</time>
      </trkpt>
      <trkpt lat="45.38846" lon="5.72193">
        <ele>455</ele>
        <time>2016-03-30T13:16:16.000Z</time>
      </trkpt>
      <trkpt lat="45.38842" lon="5.72169">
        <ele>454</ele>
        <time>2016-03-30T13:16:17.000Z</time>
      </trkpt>
      <trkpt lat="45.3884" lon="5.72147">
        <ele>454</ele>
        <time>2016-03-30T13:16:18.000Z</time>
      </trkpt>
      <trkpt lat="45.38836" lon="5.72124">
        <ele>454</ele>
        <time>2016-03-30T13:16:19.000Z</time>
      </trkpt>
      <trkpt lat="45.38831" lon="5.72099">
        <ele>455</ele>
        <time>2016-03-30T13:16:20.000Z</time>
      </trkpt>
      <trkpt lat="45.38825" lon="5.72075">
        <ele>455</ele>
        <time>2016-03-30T13:16:21.000Z</time>
      </trkpt>
      <trkpt lat="45.38821" lon="5.72051">
        <ele>456</ele>
        <time>2016-03-30T13:16:22.000Z</time>
      </trkpt>
      <trkpt lat="45.38816" lon="5.72028">
        <ele>456</ele>
        <time>2016-03-30T13:16:23.000Z</time>
      </trkpt>
      <trkpt lat="45.38808" lon="5.72006">
        <ele>454</ele>
        <time>2016-03-30T13:16:24.000Z</time>
      </trkpt>
      <trkpt lat="45.38801" lon="5.71984">
        <ele>455</ele>
        <time>2016-03-30T13:16:25.000Z</time>
      </trkpt>
      <trkpt lat="45.38793" lon="5.71959">
        <ele>456</ele>
        <time>2016-03-30T13:16:26.000Z</time>
      </trkpt>
      <trkpt lat="45.38785" lon="5.71937">
        <ele>455</ele>
        <time>2016-03-30T13:16:27.000Z</time>
      </trkpt>
      <trkpt lat="45.38776" lon="5.71913">
        <ele>457</ele>
        <time>2016-03-30T13:16:28.000Z</time>
      </trkpt>
      <trkpt lat="45.38767" lon="5.7189">
        <ele>457</ele>
        <time>2016-03-30T13:16:29.000Z</time>
      </trkpt>
      <trkpt lat="45.38758" lon="5.71873">
        <ele>456</ele>
        <time>2016-03-30T13:16:30.000Z</time>
      </trkpt>
      <trkpt lat="45.38748" lon="5.71851">
        <ele>457</ele>
        <time>2016-03-30T13:16:31.000Z</time>
      </trkpt>
      <trkpt lat="45.38738" lon="5.71831">
        <ele>458</ele>
        <time>2016-03-30T13:16:32.000Z</time>
      </trkpt>
      <trkpt lat="45.38729" lon="5.71813">
        <ele>456</ele>
        <time>2016-03-30T13:16:33.000Z</time>
      </trkpt>
      <trkpt lat="45.38718" lon="5.71791">
        <ele>460</ele>
        <time>2016-03-30T13:16:34.000Z</time>
      </trkpt>
      <trkpt lat="45.38707" lon="5.71769">
        <ele>461</ele>
        <time>2016-03-30T13:16:35.000Z</time>
      </trkpt>
      <trkpt lat="45.38697" lon="5.71748">
        <ele>460</ele>
        <time>2016-03-30T13:16:36.000Z</time>
      </trkpt>
      <trkpt lat="45.38688" lon="5.71728">
        <ele>460</ele>
        <time>2016-03-30T13:16:37.000Z</time>
      </trkpt>
      <trkpt lat="45.38678" lon="5.71711">
        <ele>458</ele>
        <time>2016-03-30T13:16:38.000Z</time>
      </trkpt>
      <trkpt lat="45.38668" lon="5.71689">
        <ele>457</ele>
        <time>2016-03-30T13:16:39.000Z</time>
      </trkpt>
      <trkpt lat="45.38658" lon="5.71666">
        <ele>457</ele>
        <time>2016-03-30T13:16:40.000Z</time>
      </trkpt>
      <trkpt lat="45.38649" lon="5.71643">
        <ele>459</ele>
        <time>2016-03-30T13:16:41.000Z</time>
      </trkpt>
      <trkpt lat="45.38637" lon="5.71619">
        <ele>460</ele>
        <time>2016-03-30T13:16:42.000Z</time>
      </trkpt>
      <trkpt lat="45.38626" lon="5.71599">
        <ele>459</ele>
        <time>2016-03-30T13:16:43.000Z</time>
      </trkpt>
      <trkpt lat="45.38615" lon="5.71575">
        <ele>457</ele>
        <time>2016-03-30T13:16:44.000Z</time>
      </trkpt>
      <trkpt lat="45.38602" lon="5.71551">
        <ele>457</ele>
        <time>2016-03-30T13:16:45.000Z</time>
      </trkpt>
      <trkpt lat="45.3859" lon="5.7153">
        <ele>456</ele>
        <time>2016-03-30T13:16:46.000Z</time>
      </trkpt>
      <trkpt lat="45.38578" lon="5.71506">
        <ele>455</ele>
        <time>2016-03-30T13:16:47.000Z</time>
      </trkpt>
      <trkpt lat="45.38567" lon="5.71481">
        <ele>456</ele>
        <time>2016-03-30T13:16:48.000Z</time>
      </trkpt>
      <trkpt lat="45.38554" lon="5.71457">
        <ele>455</ele>
        <time>2016-03-30T13:16:49.000Z</time>
      </trkpt>
      <trkpt lat="45.38542" lon="5.71433">
        <ele>456</ele>
        <time>2016-03-30T13:16:50.000Z</time>
      </trkpt>
      <trkpt lat="45.38528" lon="5.71409">
        <ele>457</ele>
        <time>2016-03-30T13:16:51.000Z</time>
      </trkpt>
      <trkpt lat="45.38517" lon="5.71385">
        <ele>457</ele>
        <time>2016-03-30T13:16:52.000Z</time>
      </trkpt>
      <trkpt lat="45.38505" lon="5.7136">
        <ele>458</ele>
        <time>2016-03-30T13:16:53.000Z</time>
      </trkpt>
      <trkpt lat="45.38491" lon="5.71335">
        <ele>460</ele>
        <time>2016-03-30T13:16:54.000Z</time>
      </trkpt>
      <trkpt lat="45.3848" lon="5.71314">
        <ele>459</ele>
        <time>2016-03-30T13:16:55.000Z</time>
      </trkpt>
      <trkpt lat="45.38467" lon="5.71287">
        <ele>460</ele>
        <time>2016-03-30T13:16:56.000Z</time>
      </trkpt>
      <trkpt lat="45.38455" lon="5.71262">
        <ele>460</ele>
        <time>2016-03-30T13:16:57.000Z</time>
      </trkpt>
      <trkpt lat="45.38445" lon="5.71237">
        <ele>461</ele>
        <time>2016-03-30T13:16:58.000Z</time>
      </trkpt>
      <trkpt lat="45.38435" lon="5.71219">
        <ele>460</ele>
        <time>2016-03-30T13:16:59.000Z</time>
      </trkpt>
      <trkpt lat="45.38424" lon="5.71194">
        <ele>460</ele>
        <time>2016-03-30T13:17:00.000Z</time>
      </trkpt>
      <trkpt lat="45.38412" lon="5.7117">
        <ele>459</ele>
        <time>2016-03-30T13:17:01.000Z</time>
      </trkpt>
      <trkpt lat="45.38403" lon="5.7115">
        <ele>455</ele>
        <time>2016-03-30T13:17:02.000Z</time>
      </trkpt>
      <trkpt lat="45.38392" lon="5.71127">
        <ele>454</ele>
        <time>2016-03-30T13:17:03.000Z</time>
      </trkpt>
      <trkpt lat="45.3838" lon="5.71103">
        <ele>454</ele>
        <time>2016-03-30T13:17:04.000Z</time>
      </trkpt>
      <trkpt lat="45.3837" lon="5.71082">
        <ele>453</ele>
        <time>2016-03-30T13:17:05.000Z</time>
      </trkpt>
      <trkpt lat="45.38358" lon="5.7106">
        <ele>454</ele>
        <time>2016-03-30T13:17:06.000Z</time>
      </trkpt>
      <trkpt lat="45.38345" lon="5.71036">
        <ele>455</ele>
        <time>2016-03-30T13:17:07.000Z</time>
      </trkpt>
      <trkpt lat="45.38332" lon="5.71014">
        <ele>456</ele>
        <time>2016-03-30T13:17:08.000Z</time>
      </trkpt>
      <trkpt lat="45.38318" lon="5.70992">
        <ele>457</ele>
        <time>2016-03-30T13:17:09.000Z</time>
      </trkpt>
      <trkpt lat="45.38306" lon="5.70971">
        <ele>457</ele>
        <time>2016-03-30T13:17:10.000Z</time>
      </trkpt>
      <trkpt lat="45.38294" lon="5.70947">
        <ele>456</ele>
        <time>2016-03-30T13:17:11.000Z</time>
      </trkpt>
      <trkpt lat="45.38283" lon="5.70923">
        <ele>455</ele>
        <time>2016-03-30T13:17:12.000Z</time>
      </trkpt>
      <trkpt lat="45.38273" lon="5.70899">
        <ele>455</ele>
        <time>2016-03-30T13:17:13.000Z</time>
      </trkpt>
      <trkpt lat="45.38262" lon="5.70875">
        <ele>454</ele>
        <time>2016-03-30T13:17:14.000Z</time>
      </trkpt>
      <trkpt lat="45.38252" lon="5.70853">
        <ele>451</ele>
        <time>2016-03-30T13:17:15.000Z</time>
      </trkpt>
      <trkpt lat="45.38241" lon="5.70828">
        <ele>452</ele>
        <time>2016-03-30T13:17:16.000Z</time>
      </trkpt>
      <trkpt lat="45.3823" lon="5.70807">
        <ele>452</ele>
        <time>2016-03-30T13:17:17.000Z</time>
      </trkpt>
      <trkpt lat="45.38218" lon="5.70787">
        <ele>451</ele>
        <time>2016-03-30T13:17:18.000Z</time>
      </trkpt>
      <trkpt lat="45.38204" lon="5.70769">
        <ele>452</ele>
        <time>2016-03-30T13:17:19.000Z</time>
      </trkpt>
      <trkpt lat="45.38188" lon="5.70752">
        <ele>452</ele>
        <time>2016-03-30T13:17:20.000Z</time>
      </trkpt>
      <trkpt lat="45.38174" lon="5.70735">
        <ele>452</ele>
        <time>2016-03-30T13:17:21.000Z</time>
      </trkpt>
      <trkpt lat="45.38157" lon="5.70721">
        <ele>452</ele>
        <time>2016-03-30T13:17:22.000Z</time>
      </trkpt>
      <trkpt lat="45.38142" lon="5.70704">
        <ele>452</ele>
        <time>2016-03-30T13:17:23.000Z</time>
      </trkpt>
      <trkpt lat="45.38127" lon="5.70685">
        <ele>454</ele>
        <time>2016-03-30T13:17:24.000Z</time>
      </trkpt>
      <trkpt lat="45.38112" lon="5.70669">
        <ele>455</ele>
        <time>2016-03-30T13:17:25.000Z</time>
      </trkpt>
      <trkpt lat="45.38099" lon="5.70645">
        <ele>456</ele>
        <time>2016-03-30T13:17:26.000Z</time>
      </trkpt>
      <trkpt lat="45.38092" lon="5.70617">
        <ele>456</ele>
        <time>2016-03-30T13:17:27.000Z</time>
      </trkpt>
      <trkpt lat="45.38079" lon="5.70592">
        <ele>456</ele>
        <time>2016-03-30T13:17:28.000Z</time>
      </trkpt>
      <trkpt lat="45.38067" lon="5.70566">
        <ele>456</ele>
        <time>2016-03-30T13:17:29.000Z</time>
      </trkpt>
      <trkpt lat="45.38056" lon="5.70543">
        <ele>457</ele>
        <time>2016-03-30T13:17:30.000Z</time>
      </trkpt>
      <trkpt lat="45.38046" lon="5.70523">
        <ele>456</ele>
        <time>2016-03-30T13:17:31.000Z</time>
      </trkpt>
      <trkpt lat="45.38038" lon="5.70502">
        <ele>455</ele>
        <time>2016-03-30T13:17:32.000Z</time>
      </trkpt>
      <trkpt lat="45.38028" lon="5.70482">
        <ele>455</ele>
        <time>2016-03-30T13:17:33.000Z</time>
      </trkpt>
      <trkpt lat="45.3802" lon="5.70468">
        <ele>453</ele>
        <time>2016-03-30T13:17:34.000Z</time>
      </trkpt>
      <trkpt lat="45.38012" lon="5.70448">
        <ele>454</ele>
        <time>2016-03-30T13:17:35.000Z</time>
      </trkpt>
      <trkpt lat="45.38004" lon="5.70427">
        <ele>453</ele>
        <time>2016-03-30T13:17:36.000Z</time>
      </trkpt>
      <trkpt lat="45.37996" lon="5.70406">
        <ele>453</ele>
        <time>2016-03-30T13:17:37.000Z</time>
      </trkpt>
      <trkpt lat="45.37986" lon="5.70386">
        <ele>453</ele>
        <time>2016-03-30T13:17:38.000Z</time>
      </trkpt>
      <trkpt lat="45.37977" lon="5.70364">
        <ele>454</ele>
        <time>2016-03-30T13:17:39.000Z</time>
      </trkpt>
      <trkpt lat="45.3797" lon="5.70341">
        <ele>454</ele>
        <time>2016-03-30T13:17:40.000Z</time>
      </trkpt>
      <trkpt lat="45.37961" lon="5.70319">
        <ele>454</ele>
        <time>2016-03-30T13:17:41.000Z</time>
      </trkpt>
      <trkpt lat="45.37955" lon="5.70296">
        <ele>454</ele>
        <time>2016-03-30T13:17:42.000Z</time>
      </trkpt>
      <trkpt lat="45.37947" lon="5.70272">
        <ele>454</ele>
        <time>2016-03-30T13:17:43.000Z</time>
      </trkpt>
      <trkpt lat="45.37946" lon="5.70256">
        <ele>455</ele>
        <time>2016-03-30T13:17:44.000Z</time>
      </trkpt>
      <trkpt lat="45.37941" lon="5.70234">
        <ele>456</ele>
        <time>2016-03-30T13:17:45.000Z</time>
      </trkpt>
      <trkpt lat="45.37933" lon="5.70211">
        <ele>456</ele>
        <time>2016-03-30T13:17:46.000Z</time>
      </trkpt>
      <trkpt lat="45.37927" lon="5.70191">
        <ele>456</ele>
        <time>2016-03-30T13:17:47.000Z</time>
      </trkpt>
      <trkpt lat="45.3792" lon="5.70171">
        <ele>458</ele>
        <time>2016-03-30T13:17:48.000Z</time>
      </trkpt>
      <trkpt lat="45.37912" lon="5.7015">
        <ele>460</ele>
        <time>2016-03-30T13:17:49.000Z</time>
      </trkpt>
      <trkpt lat="45.37904" lon="5.70131">
        <ele>460</ele>
        <time>2016-03-30T13:17:50.000Z</time>
      </trkpt>
      <trkpt lat="45.37893" lon="5.70112">
        <ele>459</ele>
        <time>2016-03-30T13:17:51.000Z</time>
      </trkpt>
      <trkpt lat="45.37883" lon="5.70095">
        <ele>458</ele>
        <time>2016-03-30T13:17:52.000Z</time>
      </trkpt>
      <trkpt lat="45.37872" lon="5.70077">
        <ele>457</ele>
        <time>2016-03-30T13:17:53.000Z</time>
      </trkpt>
      <trkpt lat="45.37862" lon="5.7006">
        <ele>459</ele>
        <time>2016-03-30T13:17:54.000Z</time>
      </trkpt>
      <trkpt lat="45.37851" lon="5.70041">
        <ele>461</ele>
        <time>2016-03-30T13:17:55.000Z</time>
      </trkpt>
      <trkpt lat="45.37842" lon="5.70025">
        <ele>458</ele>
        <time>2016-03-30T13:17:56.000Z</time>
      </trkpt>
      <trkpt lat="45.37831" lon="5.70008">
        <ele>459</ele>
        <time>2016-03-30T13:17:57.000Z</time>
      </trkpt>
      <trkpt lat="45.37822" lon="5.69988">
        <ele>458</ele>
        <time>2016-03-30T13:17:58.000Z</time>
      </trkpt>
      <trkpt lat="45.37812" lon="5.69972">
        <ele>458</ele>
        <time>2016-03-30T13:17:59.000Z</time>
      </trkpt>
      <trkpt lat="45.37802" lon="5.69954">
        <ele>457</ele>
        <time>2016-03-30T13:18:00.000Z</time>
      </trkpt>
      <trkpt lat="45.37791" lon="5.69935">
        <ele>458</ele>
        <time>2016-03-30T13:18:01.000Z</time>
      </trkpt>
      <trkpt lat="45.3778" lon="5.69916">
        <ele>457</ele>
        <time>2016-03-30T13:18:02.000Z</time>
      </trkpt>
      <trkpt lat="45.3777" lon="5.69901">
        <ele>455</ele>
        <time>2016-03-30T13:18:03.000Z</time>
      </trkpt>
      <trkpt lat="45.37759" lon="5.69878">
        <ele>457</ele>
        <time>2016-03-30T13:18:04.000Z</time>
      </trkpt>
      <trkpt lat="45.37748" lon="5.69864">
        <ele>456</ele>
        <time>2016-03-30T13:18:05.000Z</time>
      </trkpt>
      <trkpt lat="45.37737" lon="5.69845">
        <ele>457</ele>
        <time>2016-03-30T13:18:06.000Z</time>
      </trkpt>
      <trkpt lat="45.37725" lon="5.69829">
        <ele>458</ele>
        <time>2016-03-30T13:18:07.000Z</time>
      </trkpt>
      <trkpt lat="45.37711" lon="5.69817">
        <ele>459</ele>
        <time>2016-03-30T13:18:08.000Z</time>
      </trkpt>
      <trkpt lat="45.37697" lon="5.69805">
        <ele>459</ele>
        <time>2016-03-30T13:18:09.000Z</time>
      </trkpt>
      <trkpt lat="45.37684" lon="5.69795">
        <ele>461</ele>
        <time>2016-03-30T13:18:10.000Z</time>
      </trkpt>
      <trkpt lat="45.37671" lon="5.69786">
        <ele>461</ele>
        <time>2016-03-30T13:18:11.000Z</time>
      </trkpt>
      <trkpt lat="45.3766" lon="5.6978">
        <ele>461</ele>
        <time>2016-03-30T13:18:12.000Z</time>
      </trkpt>
      <trkpt lat="45.37647" lon="5.69774">
        <ele>464</ele>
        <time>2016-03-30T13:18:13.000Z</time>
      </trkpt>
      <trkpt lat="45.37631" lon="5.69765">
        <ele>461</ele>
        <time>2016-03-30T13:18:15.000Z</time>
      </trkpt>
      <trkpt lat="45.37615" lon="5.69756">
        <ele>463</ele>
        <time>2016-03-30T13:18:17.000Z</time>
      </trkpt>
      <trkpt lat="45.37606" lon="5.69753">
        <ele>463</ele>
        <time>2016-03-30T13:18:18.000Z</time>
      </trkpt>
      <trkpt lat="45.37592" lon="5.69746">
        <ele>463</ele>
        <time>2016-03-30T13:18:21.000Z</time>
      </trkpt>
      <trkpt lat="45.37583" lon="5.69745">
        <ele>464</ele>
        <time>2016-03-30T13:18:22.000Z</time>
      </trkpt>
      <trkpt lat="45.37568" lon="5.69737">
        <ele>465</ele>
        <time>2016-03-30T13:18:24.000Z</time>
      </trkpt>
      <trkpt lat="45.37552" lon="5.69726">
        <ele>466</ele>
        <time>2016-03-30T13:18:26.000Z</time>
      </trkpt>
      <trkpt lat="45.37541" lon="5.69723">
        <ele>467</ele>
        <time>2016-03-30T13:18:27.000Z</time>
      </trkpt>
      <trkpt lat="45.37534" lon="5.69714">
        <ele>464</ele>
        <time>2016-03-30T13:18:29.000Z</time>
      </trkpt>
      <trkpt lat="45.37516" lon="5.69707">
        <ele>464</ele>
        <time>2016-03-30T13:18:31.000Z</time>
      </trkpt>
      <trkpt lat="45.37507" lon="5.69704">
        <ele>465</ele>
        <time>2016-03-30T13:18:32.000Z</time>
      </trkpt>
      <trkpt lat="45.3749" lon="5.69698">
        <ele>464</ele>
        <time>2016-03-30T13:18:34.000Z</time>
      </trkpt>
      <trkpt lat="45.37481" lon="5.69695">
        <ele>463</ele>
        <time>2016-03-30T13:18:36.000Z</time>
      </trkpt>
      <trkpt lat="45.37469" lon="5.69693">
        <ele>460</ele>
        <time>2016-03-30T13:18:40.000Z</time>
      </trkpt>
      <trkpt lat="45.37452" lon="5.69689">
        <ele>462</ele>
        <time>2016-03-30T13:18:42.000Z</time>
      </trkpt>
      <trkpt lat="45.37443" lon="5.69685">
        <ele>463</ele>
        <time>2016-03-30T13:18:43.000Z</time>
      </trkpt>
      <trkpt lat="45.37434" lon="5.69682">
        <ele>462</ele>
        <time>2016-03-30T13:18:44.000Z</time>
      </trkpt>
      <trkpt lat="45.37424" lon="5.69677">
        <ele>462</ele>
        <time>2016-03-30T13:18:45.000Z</time>
      </trkpt>
      <trkpt lat="45.37414" lon="5.69672">
        <ele>462</ele>
        <time>2016-03-30T13:18:46.000Z</time>
      </trkpt>
      <trkpt lat="45.37404" lon="5.69665">
        <ele>461</ele>
        <time>2016-03-30T13:18:47.000Z</time>
      </trkpt>
      <trkpt lat="45.37395" lon="5.69657">
        <ele>461</ele>
        <time>2016-03-30T13:18:48.000Z</time>
      </trkpt>
      <trkpt lat="45.37386" lon="5.69649">
        <ele>461</ele>
        <time>2016-03-30T13:18:49.000Z</time>
      </trkpt>
      <trkpt lat="45.37376" lon="5.69639">
        <ele>461</ele>
        <time>2016-03-30T13:18:50.000Z</time>
      </trkpt>
      <trkpt lat="45.37367" lon="5.69629">
        <ele>461</ele>
        <time>2016-03-30T13:18:51.000Z</time>
      </trkpt>
      <trkpt lat="45.37359" lon="5.69619">
        <ele>460</ele>
        <time>2016-03-30T13:18:52.000Z</time>
      </trkpt>
      <trkpt lat="45.37351" lon="5.69608">
        <ele>460</ele>
        <time>2016-03-30T13:18:53.000Z</time>
      </trkpt>
      <trkpt lat="45.37343" lon="5.69595">
        <ele>460</ele>
        <time>2016-03-30T13:18:54.000Z</time>
      </trkpt>
      <trkpt lat="45.37335" lon="5.6958">
        <ele>461</ele>
        <time>2016-03-30T13:18:55.000Z</time>
      </trkpt>
      <trkpt lat="45.37326" lon="5.69565">
        <ele>461</ele>
        <time>2016-03-30T13:18:56.000Z</time>
      </trkpt>
      <trkpt lat="45.37317" lon="5.69549">
        <ele>461</ele>
        <time>2016-03-30T13:18:57.000Z</time>
      </trkpt>
      <trkpt lat="45.37307" lon="5.69533">
        <ele>461</ele>
        <time>2016-03-30T13:18:58.000Z</time>
      </trkpt>
      <trkpt lat="45.37298" lon="5.69517">
        <ele>461</ele>
        <time>2016-03-30T13:18:59.000Z</time>
      </trkpt>
      <trkpt lat="45.37288" lon="5.69499">
        <ele>461</ele>
        <time>2016-03-30T13:19:00.000Z</time>
      </trkpt>
      <trkpt lat="45.37277" lon="5.69482">
        <ele>461</ele>
        <time>2016-03-30T13:19:01.000Z</time>
      </trkpt>
      <trkpt lat="45.37266" lon="5.69463">
        <ele>460</ele>
        <time>2016-03-30T13:19:02.000Z</time>
      </trkpt>
      <trkpt lat="45.37255" lon="5.69442">
        <ele>460</ele>
        <time>2016-03-30T13:19:03.000Z</time>
      </trkpt>
      <trkpt lat="45.37244" lon="5.69421">
        <ele>459</ele>
        <time>2016-03-30T13:19:04.000Z</time>
      </trkpt>
      <trkpt lat="45.37233" lon="5.69399">
        <ele>459</ele>
        <time>2016-03-30T13:19:05.000Z</time>
      </trkpt>
      <trkpt lat="45.37223" lon="5.69375">
        <ele>459</ele>
        <time>2016-03-30T13:19:06.000Z</time>
      </trkpt>
      <trkpt lat="45.37214" lon="5.6935">
        <ele>460</ele>
        <time>2016-03-30T13:19:07.000Z</time>
      </trkpt>
      <trkpt lat="45.37203" lon="5.69325">
        <ele>459</ele>
        <time>2016-03-30T13:19:08.000Z</time>
      </trkpt>
      <trkpt lat="45.37194" lon="5.69298">
        <ele>461</ele>
        <time>2016-03-30T13:19:09.000Z</time>
      </trkpt>
      <trkpt lat="45.37187" lon="5.69271">
        <ele>460</ele>
        <time>2016-03-30T13:19:10.000Z</time>
      </trkpt>
      <trkpt lat="45.37181" lon="5.69244">
        <ele>459</ele>
        <time>2016-03-30T13:19:11.000Z</time>
      </trkpt>
      <trkpt lat="45.37175" lon="5.69218">
        <ele>459</ele>
        <time>2016-03-30T13:19:12.000Z</time>
      </trkpt>
      <trkpt lat="45.3717" lon="5.69191">
        <ele>458</ele>
        <time>2016-03-30T13:19:13.000Z</time>
      </trkpt>
      <trkpt lat="45.37169" lon="5.69159">
        <ele>459</ele>
        <time>2016-03-30T13:19:14.000Z</time>
      </trkpt>
      <trkpt lat="45.3717" lon="5.69125">
        <ele>460</ele>
        <time>2016-03-30T13:19:15.000Z</time>
      </trkpt>
      <trkpt lat="45.37169" lon="5.69092">
        <ele>460</ele>
        <time>2016-03-30T13:19:16.000Z</time>
      </trkpt>
      <trkpt lat="45.37167" lon="5.69061">
        <ele>460</ele>
        <time>2016-03-30T13:19:17.000Z</time>
      </trkpt>
      <trkpt lat="45.37162" lon="5.6903">
        <ele>459</ele>
        <time>2016-03-30T13:19:18.000Z</time>
      </trkpt>
      <trkpt lat="45.37146" lon="5.68996">
        <ele>458</ele>
        <time>2016-03-30T13:19:19.000Z</time>
      </trkpt>
      <trkpt lat="45.37138" lon="5.6897">
        <ele>458</ele>
        <time>2016-03-30T13:19:20.000Z</time>
      </trkpt>
      <trkpt lat="45.37127" lon="5.68944">
        <ele>459</ele>
        <time>2016-03-30T13:19:21.000Z</time>
      </trkpt>
      <trkpt lat="45.37117" lon="5.68919">
        <ele>460</ele>
        <time>2016-03-30T13:19:22.000Z</time>
      </trkpt>
      <trkpt lat="45.37105" lon="5.68893">
        <ele>461</ele>
        <time>2016-03-30T13:19:23.000Z</time>
      </trkpt>
      <trkpt lat="45.37094" lon="5.68868">
        <ele>462</ele>
        <time>2016-03-30T13:19:24.000Z</time>
      </trkpt>
      <trkpt lat="45.3708" lon="5.68845">
        <ele>463</ele>
        <time>2016-03-30T13:19:25.000Z</time>
      </trkpt>
      <trkpt lat="45.37065" lon="5.68825">
        <ele>463</ele>
        <time>2016-03-30T13:19:26.000Z</time>
      </trkpt>
      <trkpt lat="45.3705" lon="5.68805">
        <ele>464</ele>
        <time>2016-03-30T13:19:27.000Z</time>
      </trkpt>
      <trkpt lat="45.37034" lon="5.68785">
        <ele>464</ele>
        <time>2016-03-30T13:19:28.000Z</time>
      </trkpt>
      <trkpt lat="45.37017" lon="5.68767">
        <ele>465</ele>
        <time>2016-03-30T13:19:29.000Z</time>
      </trkpt>
      <trkpt lat="45.37" lon="5.6875">
        <ele>466</ele>
        <time>2016-03-30T13:19:30.000Z</time>
      </trkpt>
      <trkpt lat="45.36982" lon="5.68733">
        <ele>466</ele>
        <time>2016-03-30T13:19:31.000Z</time>
      </trkpt>
      <trkpt lat="45.36965" lon="5.68718">
        <ele>467</ele>
        <time>2016-03-30T13:19:32.000Z</time>
      </trkpt>
      <trkpt lat="45.36946" lon="5.68705">
        <ele>467</ele>
        <time>2016-03-30T13:19:33.000Z</time>
      </trkpt>
      <trkpt lat="45.36928" lon="5.68691">
        <ele>468</ele>
        <time>2016-03-30T13:19:34.000Z</time>
      </trkpt>
      <trkpt lat="45.3691" lon="5.68676">
        <ele>469</ele>
        <time>2016-03-30T13:19:35.000Z</time>
      </trkpt>
      <trkpt lat="45.36891" lon="5.68662">
        <ele>469</ele>
        <time>2016-03-30T13:19:36.000Z</time>
      </trkpt>
      <trkpt lat="45.36873" lon="5.68647">
        <ele>470</ele>
        <time>2016-03-30T13:19:37.000Z</time>
      </trkpt>
      <trkpt lat="45.36855" lon="5.68632">
        <ele>470</ele>
        <time>2016-03-30T13:19:38.000Z</time>
      </trkpt>
      <trkpt lat="45.36837" lon="5.68619">
        <ele>470</ele>
        <time>2016-03-30T13:19:39.000Z</time>
      </trkpt>
      <trkpt lat="45.36818" lon="5.68605">
        <ele>470</ele>
        <time>2016-03-30T13:19:40.000Z</time>
      </trkpt>
      <trkpt lat="45.368" lon="5.68592">
        <ele>470</ele>
        <time>2016-03-30T13:19:41.000Z</time>
      </trkpt>
      <trkpt lat="45.36779" lon="5.68581">
        <ele>471</ele>
        <time>2016-03-30T13:19:42.000Z</time>
      </trkpt>
      <trkpt lat="45.36758" lon="5.68571">
        <ele>474</ele>
        <time>2016-03-30T13:19:43.000Z</time>
      </trkpt>
      <trkpt lat="45.36741" lon="5.68562">
        <ele>474</ele>
        <time>2016-03-30T13:19:44.000Z</time>
      </trkpt>
      <trkpt lat="45.36723" lon="5.68552">
        <ele>474</ele>
        <time>2016-03-30T13:19:45.000Z</time>
      </trkpt>
      <trkpt lat="45.36705" lon="5.68541">
        <ele>474</ele>
        <time>2016-03-30T13:19:46.000Z</time>
      </trkpt>
      <trkpt lat="45.36689" lon="5.68526">
        <ele>474</ele>
        <time>2016-03-30T13:19:47.000Z</time>
      </trkpt>
      <trkpt lat="45.36673" lon="5.6851">
        <ele>474</ele>
        <time>2016-03-30T13:19:48.000Z</time>
      </trkpt>
      <trkpt lat="45.36657" lon="5.68493">
        <ele>475</ele>
        <time>2016-03-30T13:19:49.000Z</time>
      </trkpt>
      <trkpt lat="45.36643" lon="5.68476">
        <ele>475</ele>
        <time>2016-03-30T13:19:50.000Z</time>
      </trkpt>
      <trkpt lat="45.36626" lon="5.6846">
        <ele>476</ele>
        <time>2016-03-30T13:19:51.000Z</time>
      </trkpt>
      <trkpt lat="45.3661" lon="5.68442">
        <ele>476</ele>
        <time>2016-03-30T13:19:52.000Z</time>
      </trkpt>
      <trkpt lat="45.36594" lon="5.68425">
        <ele>476</ele>
        <time>2016-03-30T13:19:53.000Z</time>
      </trkpt>
      <trkpt lat="45.36579" lon="5.68409">
        <ele>476</ele>
        <time>2016-03-30T13:19:54.000Z</time>
      </trkpt>
      <trkpt lat="45.36564" lon="5.68391">
        <ele>476</ele>
        <time>2016-03-30T13:19:55.000Z</time>
      </trkpt>
      <trkpt lat="45.36548" lon="5.68374">
        <ele>477</ele>
        <time>2016-03-30T13:19:56.000Z</time>
      </trkpt>
      <trkpt lat="45.36529" lon="5.68356">
        <ele>480</ele>
        <time>2016-03-30T13:19:57.000Z</time>
      </trkpt>
      <trkpt lat="45.36514" lon="5.6834">
        <ele>481</ele>
        <time>2016-03-30T13:19:58.000Z</time>
      </trkpt>
      <trkpt lat="45.36497" lon="5.68323">
        <ele>482</ele>
        <time>2016-03-30T13:19:59.000Z</time>
      </trkpt>
      <trkpt lat="45.36482" lon="5.68305">
        <ele>482</ele>
        <time>2016-03-30T13:20:00.000Z</time>
      </trkpt>
      <trkpt lat="45.36466" lon="5.68288">
        <ele>482</ele>
        <time>2016-03-30T13:20:01.000Z</time>
      </trkpt>
      <trkpt lat="45.36451" lon="5.68272">
        <ele>482</ele>
        <time>2016-03-30T13:20:02.000Z</time>
      </trkpt>
      <trkpt lat="45.36437" lon="5.68254">
        <ele>483</ele>
        <time>2016-03-30T13:20:03.000Z</time>
      </trkpt>
      <trkpt lat="45.36422" lon="5.68236">
        <ele>484</ele>
        <time>2016-03-30T13:20:04.000Z</time>
      </trkpt>
      <trkpt lat="45.36403" lon="5.6822">
        <ele>486</ele>
        <time>2016-03-30T13:20:05.000Z</time>
      </trkpt>
      <trkpt lat="45.36388" lon="5.68203">
        <ele>486</ele>
        <time>2016-03-30T13:20:06.000Z</time>
      </trkpt>
      <trkpt lat="45.36372" lon="5.68187">
        <ele>487</ele>
        <time>2016-03-30T13:20:07.000Z</time>
      </trkpt>
      <trkpt lat="45.36359" lon="5.68171">
        <ele>487</ele>
        <time>2016-03-30T13:20:08.000Z</time>
      </trkpt>
      <trkpt lat="45.36346" lon="5.68153">
        <ele>487</ele>
        <time>2016-03-30T13:20:09.000Z</time>
      </trkpt>
      <trkpt lat="45.36336" lon="5.68133">
        <ele>488</ele>
        <time>2016-03-30T13:20:10.000Z</time>
      </trkpt>
      <trkpt lat="45.36326" lon="5.68112">
        <ele>489</ele>
        <time>2016-03-30T13:20:11.000Z</time>
      </trkpt>
      <trkpt lat="45.36318" lon="5.6809">
        <ele>490</ele>
        <time>2016-03-30T13:20:12.000Z</time>
      </trkpt>
      <trkpt lat="45.36309" lon="5.68067">
        <ele>492</ele>
        <time>2016-03-30T13:20:13.000Z</time>
      </trkpt>
      <trkpt lat="45.36302" lon="5.68047">
        <ele>492</ele>
        <time>2016-03-30T13:20:14.000Z</time>
      </trkpt>
      <trkpt lat="45.36295" lon="5.68027">
        <ele>492</ele>
        <time>2016-03-30T13:20:15.000Z</time>
      </trkpt>
      <trkpt lat="45.36289" lon="5.6801">
        <ele>493</ele>
        <time>2016-03-30T13:20:16.000Z</time>
      </trkpt>
      <trkpt lat="45.36284" lon="5.67993">
        <ele>492</ele>
        <time>2016-03-30T13:20:17.000Z</time>
      </trkpt>
      <trkpt lat="45.36282" lon="5.67978">
        <ele>492</ele>
        <time>2016-03-30T13:20:18.000Z</time>
      </trkpt>
      <trkpt lat="45.3628" lon="5.67964">
        <ele>492</ele>
        <time>2016-03-30T13:20:19.000Z</time>
      </trkpt>
      <trkpt lat="45.36283" lon="5.6794">
        <ele>492</ele>
        <time>2016-03-30T13:20:21.000Z</time>
      </trkpt>
      <trkpt lat="45.36285" lon="5.67915">
        <ele>490</ele>
        <time>2016-03-30T13:20:23.000Z</time>
      </trkpt>
      <trkpt lat="45.36283" lon="5.67901">
        <ele>490</ele>
        <time>2016-03-30T13:20:24.000Z</time>
      </trkpt>
      <trkpt lat="45.36277" lon="5.67888">
        <ele>490</ele>
        <time>2016-03-30T13:20:25.000Z</time>
      </trkpt>
      <trkpt lat="45.36269" lon="5.67875">
        <ele>490</ele>
        <time>2016-03-30T13:20:26.000Z</time>
      </trkpt>
      <trkpt lat="45.36262" lon="5.67864">
        <ele>490</ele>
        <time>2016-03-30T13:20:27.000Z</time>
      </trkpt>
      <trkpt lat="45.36245" lon="5.67857">
        <ele>492</ele>
        <time>2016-03-30T13:20:28.000Z</time>
      </trkpt>
      <trkpt lat="45.3623" lon="5.6785">
        <ele>492</ele>
        <time>2016-03-30T13:20:29.000Z</time>
      </trkpt>
      <trkpt lat="45.36214" lon="5.67843">
        <ele>493</ele>
        <time>2016-03-30T13:20:30.000Z</time>
      </trkpt>
      <trkpt lat="45.36199" lon="5.67832">
        <ele>493</ele>
        <time>2016-03-30T13:20:31.000Z</time>
      </trkpt>
      <trkpt lat="45.36183" lon="5.67821">
        <ele>493</ele>
        <time>2016-03-30T13:20:32.000Z</time>
      </trkpt>
      <trkpt lat="45.36169" lon="5.67808">
        <ele>492</ele>
        <time>2016-03-30T13:20:33.000Z</time>
      </trkpt>
      <trkpt lat="45.36155" lon="5.6779">
        <ele>493</ele>
        <time>2016-03-30T13:20:34.000Z</time>
      </trkpt>
      <trkpt lat="45.36142" lon="5.6777">
        <ele>493</ele>
        <time>2016-03-30T13:20:35.000Z</time>
      </trkpt>
      <trkpt lat="45.3613" lon="5.6775">
        <ele>493</ele>
        <time>2016-03-30T13:20:36.000Z</time>
      </trkpt>
      <trkpt lat="45.36116" lon="5.67731">
        <ele>494</ele>
        <time>2016-03-30T13:20:37.000Z</time>
      </trkpt>
      <trkpt lat="45.36102" lon="5.67711">
        <ele>494</ele>
        <time>2016-03-30T13:20:38.000Z</time>
      </trkpt>
      <trkpt lat="45.36087" lon="5.67695">
        <ele>495</ele>
        <time>2016-03-30T13:20:39.000Z</time>
      </trkpt>
      <trkpt lat="45.36068" lon="5.67682">
        <ele>495</ele>
        <time>2016-03-30T13:20:40.000Z</time>
      </trkpt>
      <trkpt lat="45.36049" lon="5.6767">
        <ele>495</ele>
        <time>2016-03-30T13:20:41.000Z</time>
      </trkpt>
      <trkpt lat="45.36028" lon="5.67657">
        <ele>495</ele>
        <time>2016-03-30T13:20:42.000Z</time>
      </trkpt>
      <trkpt lat="45.36009" lon="5.67649">
        <ele>495</ele>
        <time>2016-03-30T13:20:43.000Z</time>
      </trkpt>
      <trkpt lat="45.35991" lon="5.67637">
        <ele>495</ele>
        <time>2016-03-30T13:20:44.000Z</time>
      </trkpt>
      <trkpt lat="45.35972" lon="5.67625">
        <ele>495</ele>
        <time>2016-03-30T13:20:45.000Z</time>
      </trkpt>
      <trkpt lat="45.35952" lon="5.67614">
        <ele>496</ele>
        <time>2016-03-30T13:20:46.000Z</time>
      </trkpt>
      <trkpt lat="45.35933" lon="5.67601">
        <ele>497</ele>
        <time>2016-03-30T13:20:47.000Z</time>
      </trkpt>
      <trkpt lat="45.35914" lon="5.67588">
        <ele>500</ele>
        <time>2016-03-30T13:20:48.000Z</time>
      </trkpt>
      <trkpt lat="45.35897" lon="5.67576">
        <ele>500</ele>
        <time>2016-03-30T13:20:49.000Z</time>
      </trkpt>
      <trkpt lat="45.3588" lon="5.67567">
        <ele>501</ele>
        <time>2016-03-30T13:20:50.000Z</time>
      </trkpt>
      <trkpt lat="45.35861" lon="5.67559">
        <ele>502</ele>
        <time>2016-03-30T13:20:51.000Z</time>
      </trkpt>
      <trkpt lat="45.35843" lon="5.6755">
        <ele>502</ele>
        <time>2016-03-30T13:20:52.000Z</time>
      </trkpt>
      <trkpt lat="45.35827" lon="5.67543">
        <ele>503</ele>
        <time>2016-03-30T13:20:53.000Z</time>
      </trkpt>
      <trkpt lat="45.3581" lon="5.67534">
        <ele>503</ele>
        <time>2016-03-30T13:20:54.000Z</time>
      </trkpt>
      <trkpt lat="45.35793" lon="5.67525">
        <ele>503</ele>
        <time>2016-03-30T13:20:55.000Z</time>
      </trkpt>
      <trkpt lat="45.35779" lon="5.67515">
        <ele>503</ele>
        <time>2016-03-30T13:20:56.000Z</time>
      </trkpt>
      <trkpt lat="45.35761" lon="5.67502">
        <ele>505</ele>
        <time>2016-03-30T13:20:57.000Z</time>
      </trkpt>
      <trkpt lat="45.35746" lon="5.67486">
        <ele>506</ele>
        <time>2016-03-30T13:20:58.000Z</time>
      </trkpt>
      <trkpt lat="45.35731" lon="5.67474">
        <ele>506</ele>
        <time>2016-03-30T13:20:59.000Z</time>
      </trkpt>
      <trkpt lat="45.3572" lon="5.67458">
        <ele>505</ele>
        <time>2016-03-30T13:21:00.000Z</time>
      </trkpt>
      <trkpt lat="45.35706" lon="5.67441">
        <ele>507</ele>
        <time>2016-03-30T13:21:01.000Z</time>
      </trkpt>
      <trkpt lat="45.35692" lon="5.67426">
        <ele>507</ele>
        <time>2016-03-30T13:21:02.000Z</time>
      </trkpt>
      <trkpt lat="45.35677" lon="5.67411">
        <ele>507</ele>
        <time>2016-03-30T13:21:03.000Z</time>
      </trkpt>
      <trkpt lat="45.35662" lon="5.67398">
        <ele>508</ele>
        <time>2016-03-30T13:21:04.000Z</time>
      </trkpt>
      <trkpt lat="45.35645" lon="5.67386">
        <ele>508</ele>
        <time>2016-03-30T13:21:05.000Z</time>
      </trkpt>
      <trkpt lat="45.35629" lon="5.67371">
        <ele>509</ele>
        <time>2016-03-30T13:21:06.000Z</time>
      </trkpt>
      <trkpt lat="45.35614" lon="5.6736">
        <ele>510</ele>
        <time>2016-03-30T13:21:07.000Z</time>
      </trkpt>
      <trkpt lat="45.356" lon="5.67346">
        <ele>511</ele>
        <time>2016-03-30T13:21:08.000Z</time>
      </trkpt>
      <trkpt lat="45.35582" lon="5.67334">
        <ele>513</ele>
        <time>2016-03-30T13:21:09.000Z</time>
      </trkpt>
      <trkpt lat="45.35566" lon="5.67325">
        <ele>513</ele>
        <time>2016-03-30T13:21:10.000Z</time>
      </trkpt>
      <trkpt lat="45.35549" lon="5.67315">
        <ele>514</ele>
        <time>2016-03-30T13:21:11.000Z</time>
      </trkpt>
      <trkpt lat="45.35532" lon="5.67304">
        <ele>517</ele>
        <time>2016-03-30T13:21:12.000Z</time>
      </trkpt>
      <trkpt lat="45.35518" lon="5.6729">
        <ele>518</ele>
        <time>2016-03-30T13:21:13.000Z</time>
      </trkpt>
      <trkpt lat="45.35503" lon="5.67278">
        <ele>520</ele>
        <time>2016-03-30T13:21:14.000Z</time>
      </trkpt>
      <trkpt lat="45.35487" lon="5.67266">
        <ele>520</ele>
        <time>2016-03-30T13:21:15.000Z</time>
      </trkpt>
      <trkpt lat="45.35471" lon="5.67254">
        <ele>521</ele>
        <time>2016-03-30T13:21:16.000Z</time>
      </trkpt>
      <trkpt lat="45.35455" lon="5.67245">
        <ele>523</ele>
        <time>2016-03-30T13:21:17.000Z</time>
      </trkpt>
      <trkpt lat="45.35436" lon="5.67236">
        <ele>524</ele>
        <time>2016-03-30T13:21:18.000Z</time>
      </trkpt>
      <trkpt lat="45.35418" lon="5.67229">
        <ele>524</ele>
        <time>2016-03-30T13:21:19.000Z</time>
      </trkpt>
      <trkpt lat="45.354" lon="5.67225">
        <ele>524</ele>
        <time>2016-03-30T13:21:20.000Z</time>
      </trkpt>
      <trkpt lat="45.35383" lon="5.6722">
        <ele>526</ele>
        <time>2016-03-30T13:21:21.000Z</time>
      </trkpt>
      <trkpt lat="45.35365" lon="5.67216">
        <ele>526</ele>
        <time>2016-03-30T13:21:22.000Z</time>
      </trkpt>
      <trkpt lat="45.35347" lon="5.67214">
        <ele>527</ele>
        <time>2016-03-30T13:21:23.000Z</time>
      </trkpt>
      <trkpt lat="45.35328" lon="5.67212">
        <ele>528</ele>
        <time>2016-03-30T13:21:24.000Z</time>
      </trkpt>
      <trkpt lat="45.3531" lon="5.67212">
        <ele>527</ele>
        <time>2016-03-30T13:21:25.000Z</time>
      </trkpt>
      <trkpt lat="45.35293" lon="5.67209">
        <ele>528</ele>
        <time>2016-03-30T13:21:26.000Z</time>
      </trkpt>
      <trkpt lat="45.35275" lon="5.67205">
        <ele>527</ele>
        <time>2016-03-30T13:21:27.000Z</time>
      </trkpt>
      <trkpt lat="45.35257" lon="5.672">
        <ele>526</ele>
        <time>2016-03-30T13:21:28.000Z</time>
      </trkpt>
      <trkpt lat="45.35239" lon="5.67194">
        <ele>527</ele>
        <time>2016-03-30T13:21:29.000Z</time>
      </trkpt>
      <trkpt lat="45.35222" lon="5.67185">
        <ele>527</ele>
        <time>2016-03-30T13:21:30.000Z</time>
      </trkpt>
      <trkpt lat="45.35205" lon="5.67176">
        <ele>527</ele>
        <time>2016-03-30T13:21:31.000Z</time>
      </trkpt>
      <trkpt lat="45.3519" lon="5.67165">
        <ele>528</ele>
        <time>2016-03-30T13:21:32.000Z</time>
      </trkpt>
      <trkpt lat="45.35177" lon="5.67153">
        <ele>528</ele>
        <time>2016-03-30T13:21:33.000Z</time>
      </trkpt>
      <trkpt lat="45.35162" lon="5.6714">
        <ele>529</ele>
        <time>2016-03-30T13:21:34.000Z</time>
      </trkpt>
      <trkpt lat="45.35149" lon="5.67128">
        <ele>528</ele>
        <time>2016-03-30T13:21:35.000Z</time>
      </trkpt>
      <trkpt lat="45.35134" lon="5.67113">
        <ele>529</ele>
        <time>2016-03-30T13:21:36.000Z</time>
      </trkpt>
      <trkpt lat="45.35119" lon="5.67101">
        <ele>530</ele>
        <time>2016-03-30T13:21:37.000Z</time>
      </trkpt>
      <trkpt lat="45.35105" lon="5.67087">
        <ele>531</ele>
        <time>2016-03-30T13:21:38.000Z</time>
      </trkpt>
      <trkpt lat="45.35091" lon="5.67073">
        <ele>532</ele>
        <time>2016-03-30T13:21:39.000Z</time>
      </trkpt>
      <trkpt lat="45.35082" lon="5.67058">
        <ele>531</ele>
        <time>2016-03-30T13:21:40.000Z</time>
      </trkpt>
      <trkpt lat="45.35069" lon="5.6704">
        <ele>533</ele>
        <time>2016-03-30T13:21:41.000Z</time>
      </trkpt>
      <trkpt lat="45.35059" lon="5.67019">
        <ele>534</ele>
        <time>2016-03-30T13:21:42.000Z</time>
      </trkpt>
      <trkpt lat="45.35048" lon="5.66996">
        <ele>535</ele>
        <time>2016-03-30T13:21:43.000Z</time>
      </trkpt>
      <trkpt lat="45.35038" lon="5.66975">
        <ele>535</ele>
        <time>2016-03-30T13:21:44.000Z</time>
      </trkpt>
      <trkpt lat="45.35026" lon="5.66954">
        <ele>536</ele>
        <time>2016-03-30T13:21:45.000Z</time>
      </trkpt>
      <trkpt lat="45.35015" lon="5.66934">
        <ele>537</ele>
        <time>2016-03-30T13:21:46.000Z</time>
      </trkpt>
      <trkpt lat="45.35003" lon="5.66915">
        <ele>537</ele>
        <time>2016-03-30T13:21:47.000Z</time>
      </trkpt>
      <trkpt lat="45.34986" lon="5.669">
        <ele>538</ele>
        <time>2016-03-30T13:21:48.000Z</time>
      </trkpt>
      <trkpt lat="45.34969" lon="5.66887">
        <ele>539</ele>
        <time>2016-03-30T13:21:49.000Z</time>
      </trkpt>
      <trkpt lat="45.34951" lon="5.66876">
        <ele>539</ele>
        <time>2016-03-30T13:21:50.000Z</time>
      </trkpt>
      <trkpt lat="45.34934" lon="5.66865">
        <ele>540</ele>
        <time>2016-03-30T13:21:51.000Z</time>
      </trkpt>
      <trkpt lat="45.34917" lon="5.66856">
        <ele>540</ele>
        <time>2016-03-30T13:21:52.000Z</time>
      </trkpt>
      <trkpt lat="45.34902" lon="5.66847">
        <ele>542</ele>
        <time>2016-03-30T13:21:53.000Z</time>
      </trkpt>
      <trkpt lat="45.34885" lon="5.6684">
        <ele>543</ele>
        <time>2016-03-30T13:21:54.000Z</time>
      </trkpt>
      <trkpt lat="45.34868" lon="5.66836">
        <ele>544</ele>
        <time>2016-03-30T13:21:55.000Z</time>
      </trkpt>
      <trkpt lat="45.34851" lon="5.66834">
        <ele>544</ele>
        <time>2016-03-30T13:21:56.000Z</time>
      </trkpt>
      <trkpt lat="45.34833" lon="5.66831">
        <ele>545</ele>
        <time>2016-03-30T13:21:57.000Z</time>
      </trkpt>
      <trkpt lat="45.34816" lon="5.66828">
        <ele>545</ele>
        <time>2016-03-30T13:21:58.000Z</time>
      </trkpt>
      <trkpt lat="45.34795" lon="5.66826">
        <ele>546</ele>
        <time>2016-03-30T13:21:59.000Z</time>
      </trkpt>
      <trkpt lat="45.34776" lon="5.66821">
        <ele>548</ele>
        <time>2016-03-30T13:22:00.000Z</time>
      </trkpt>
      <trkpt lat="45.34758" lon="5.66816">
        <ele>549</ele>
        <time>2016-03-30T13:22:01.000Z</time>
      </trkpt>
      <trkpt lat="45.34742" lon="5.66809">
        <ele>548</ele>
        <time>2016-03-30T13:22:02.000Z</time>
      </trkpt>
      <trkpt lat="45.34724" lon="5.66802">
        <ele>548</ele>
        <time>2016-03-30T13:22:03.000Z</time>
      </trkpt>
      <trkpt lat="45.34706" lon="5.66795">
        <ele>548</ele>
        <time>2016-03-30T13:22:04.000Z</time>
      </trkpt>
      <trkpt lat="45.34689" lon="5.66784">
        <ele>546</ele>
        <time>2016-03-30T13:22:05.000Z</time>
      </trkpt>
      <trkpt lat="45.34671" lon="5.66776">
        <ele>547</ele>
        <time>2016-03-30T13:22:06.000Z</time>
      </trkpt>
      <trkpt lat="45.34653" lon="5.6677">
        <ele>548</ele>
        <time>2016-03-30T13:22:07.000Z</time>
      </trkpt>
      <trkpt lat="45.34635" lon="5.66766">
        <ele>548</ele>
        <time>2016-03-30T13:22:08.000Z</time>
      </trkpt>
      <trkpt lat="45.34616" lon="5.66763">
        <ele>547</ele>
        <time>2016-03-30T13:22:09.000Z</time>
      </trkpt>
      <trkpt lat="45.34599" lon="5.66762">
        <ele>548</ele>
        <time>2016-03-30T13:22:10.000Z</time>
      </trkpt>
      <trkpt lat="45.3458" lon="5.66761">
        <ele>549</ele>
        <time>2016-03-30T13:22:11.000Z</time>
      </trkpt>
      <trkpt lat="45.34563" lon="5.66757">
        <ele>550</ele>
        <time>2016-03-30T13:22:12.000Z</time>
      </trkpt>
      <trkpt lat="45.34544" lon="5.66753">
        <ele>550</ele>
        <time>2016-03-30T13:22:13.000Z</time>
      </trkpt>
      <trkpt lat="45.34524" lon="5.6675">
        <ele>550</ele>
        <time>2016-03-30T13:22:14.000Z</time>
      </trkpt>
      <trkpt lat="45.34506" lon="5.6674">
        <ele>550</ele>
        <time>2016-03-30T13:22:15.000Z</time>
      </trkpt>
      <trkpt lat="45.3449" lon="5.66729">
        <ele>552</ele>
        <time>2016-03-30T13:22:16.000Z</time>
      </trkpt>
      <trkpt lat="45.34475" lon="5.6672">
        <ele>552</ele>
        <time>2016-03-30T13:22:17.000Z</time>
      </trkpt>
      <trkpt lat="45.34458" lon="5.6671">
        <ele>553</ele>
        <time>2016-03-30T13:22:18.000Z</time>
      </trkpt>
      <trkpt lat="45.3444" lon="5.66699">
        <ele>554</ele>
        <time>2016-03-30T13:22:19.000Z</time>
      </trkpt>
      <trkpt lat="45.34421" lon="5.66691">
        <ele>555</ele>
        <time>2016-03-30T13:22:20.000Z</time>
      </trkpt>
      <trkpt lat="45.34405" lon="5.6668">
        <ele>555</ele>
        <time>2016-03-30T13:22:21.000Z</time>
      </trkpt>
      <trkpt lat="45.34388" lon="5.66669">
        <ele>555</ele>
        <time>2016-03-30T13:22:22.000Z</time>
      </trkpt>
      <trkpt lat="45.34366" lon="5.66663">
        <ele>555</ele>
        <time>2016-03-30T13:22:23.000Z</time>
      </trkpt>
      <trkpt lat="45.34358" lon="5.66641">
        <ele>555</ele>
        <time>2016-03-30T13:22:24.000Z</time>
      </trkpt>
      <trkpt lat="45.34343" lon="5.66632">
        <ele>558</ele>
        <time>2016-03-30T13:22:25.000Z</time>
      </trkpt>
      <trkpt lat="45.34328" lon="5.66623">
        <ele>562</ele>
        <time>2016-03-30T13:22:26.000Z</time>
      </trkpt>
      <trkpt lat="45.34318" lon="5.66606">
        <ele>564</ele>
        <time>2016-03-30T13:22:27.000Z</time>
      </trkpt>
      <trkpt lat="45.34304" lon="5.66591">
        <ele>567</ele>
        <time>2016-03-30T13:22:28.000Z</time>
      </trkpt>
      <trkpt lat="45.3429" lon="5.66573">
        <ele>567</ele>
        <time>2016-03-30T13:22:29.000Z</time>
      </trkpt>
      <trkpt lat="45.34276" lon="5.66559">
        <ele>570</ele>
        <time>2016-03-30T13:22:30.000Z</time>
      </trkpt>
      <trkpt lat="45.34263" lon="5.66545">
        <ele>571</ele>
        <time>2016-03-30T13:22:31.000Z</time>
      </trkpt>
      <trkpt lat="45.3425" lon="5.66532">
        <ele>571</ele>
        <time>2016-03-30T13:22:32.000Z</time>
      </trkpt>
      <trkpt lat="45.34237" lon="5.66517">
        <ele>570</ele>
        <time>2016-03-30T13:22:33.000Z</time>
      </trkpt>
      <trkpt lat="45.34221" lon="5.66507">
        <ele>571</ele>
        <time>2016-03-30T13:22:34.000Z</time>
      </trkpt>
      <trkpt lat="45.34206" lon="5.66492">
        <ele>572</ele>
        <time>2016-03-30T13:22:35.000Z</time>
      </trkpt>
      <trkpt lat="45.34191" lon="5.66482">
        <ele>573</ele>
        <time>2016-03-30T13:22:36.000Z</time>
      </trkpt>
      <trkpt lat="45.34172" lon="5.66471">
        <ele>574</ele>
        <time>2016-03-30T13:22:37.000Z</time>
      </trkpt>
      <trkpt lat="45.34156" lon="5.66457">
        <ele>574</ele>
        <time>2016-03-30T13:22:38.000Z</time>
      </trkpt>
      <trkpt lat="45.34139" lon="5.66443">
        <ele>576</ele>
        <time>2016-03-30T13:22:39.000Z</time>
      </trkpt>
      <trkpt lat="45.34123" lon="5.66428">
        <ele>578</ele>
        <time>2016-03-30T13:22:40.000Z</time>
      </trkpt>
      <trkpt lat="45.34109" lon="5.66414">
        <ele>577</ele>
        <time>2016-03-30T13:22:41.000Z</time>
      </trkpt>
      <trkpt lat="45.34094" lon="5.66401">
        <ele>578</ele>
        <time>2016-03-30T13:22:42.000Z</time>
      </trkpt>
      <trkpt lat="45.34078" lon="5.66387">
        <ele>578</ele>
        <time>2016-03-30T13:22:43.000Z</time>
      </trkpt>
      <trkpt lat="45.34063" lon="5.66374">
        <ele>577</ele>
        <time>2016-03-30T13:22:44.000Z</time>
      </trkpt>
      <trkpt lat="45.34047" lon="5.66362">
        <ele>578</ele>
        <time>2016-03-30T13:22:45.000Z</time>
      </trkpt>
      <trkpt lat="45.34032" lon="5.66352">
        <ele>580</ele>
        <time>2016-03-30T13:22:46.000Z</time>
      </trkpt>
      <trkpt lat="45.34018" lon="5.66341">
        <ele>581</ele>
        <time>2016-03-30T13:22:47.000Z</time>
      </trkpt>
      <trkpt lat="45.34005" lon="5.66326">
        <ele>582</ele>
        <time>2016-03-30T13:22:48.000Z</time>
      </trkpt>
      <trkpt lat="45.33992" lon="5.66312">
        <ele>585</ele>
        <time>2016-03-30T13:22:49.000Z</time>
      </trkpt>
      <trkpt lat="45.33979" lon="5.66296">
        <ele>586</ele>
        <time>2016-03-30T13:22:50.000Z</time>
      </trkpt>
      <trkpt lat="45.33965" lon="5.66281">
        <ele>585</ele>
        <time>2016-03-30T13:22:51.000Z</time>
      </trkpt>
      <trkpt lat="45.33952" lon="5.66267">
        <ele>586</ele>
        <time>2016-03-30T13:22:52.000Z</time>
      </trkpt>
      <trkpt lat="45.33934" lon="5.66253">
        <ele>590</ele>
        <time>2016-03-30T13:22:53.000Z</time>
      </trkpt>
      <trkpt lat="45.33923" lon="5.6624">
        <ele>589</ele>
        <time>2016-03-30T13:22:54.000Z</time>
      </trkpt>
      <trkpt lat="45.33907" lon="5.66227">
        <ele>590</ele>
        <time>2016-03-30T13:22:55.000Z</time>
      </trkpt>
      <trkpt lat="45.3389" lon="5.66213">
        <ele>594</ele>
        <time>2016-03-30T13:22:56.000Z</time>
      </trkpt>
      <trkpt lat="45.33873" lon="5.66202">
        <ele>595</ele>
        <time>2016-03-30T13:22:57.000Z</time>
      </trkpt>
      <trkpt lat="45.33856" lon="5.66193">
        <ele>597</ele>
        <time>2016-03-30T13:22:58.000Z</time>
      </trkpt>
      <trkpt lat="45.3384" lon="5.66185">
        <ele>599</ele>
        <time>2016-03-30T13:22:59.000Z</time>
      </trkpt>
      <trkpt lat="45.33823" lon="5.66179">
        <ele>601</ele>
        <time>2016-03-30T13:23:00.000Z</time>
      </trkpt>
      <trkpt lat="45.33807" lon="5.66174">
        <ele>603</ele>
        <time>2016-03-30T13:23:01.000Z</time>
      </trkpt>
      <trkpt lat="45.33791" lon="5.6617">
        <ele>604</ele>
        <time>2016-03-30T13:23:02.000Z</time>
      </trkpt>
      <trkpt lat="45.33775" lon="5.66164">
        <ele>606</ele>
        <time>2016-03-30T13:23:03.000Z</time>
      </trkpt>
      <trkpt lat="45.33759" lon="5.66157">
        <ele>606</ele>
        <time>2016-03-30T13:23:04.000Z</time>
      </trkpt>
      <trkpt lat="45.33742" lon="5.66148">
        <ele>606</ele>
        <time>2016-03-30T13:23:05.000Z</time>
      </trkpt>
      <trkpt lat="45.33726" lon="5.66137">
        <ele>607</ele>
        <time>2016-03-30T13:23:06.000Z</time>
      </trkpt>
      <trkpt lat="45.33721" lon="5.66115">
        <ele>608</ele>
        <time>2016-03-30T13:23:07.000Z</time>
      </trkpt>
      <trkpt lat="45.33712" lon="5.66094">
        <ele>609</ele>
        <time>2016-03-30T13:23:08.000Z</time>
      </trkpt>
      <trkpt lat="45.33704" lon="5.66078">
        <ele>609</ele>
        <time>2016-03-30T13:23:09.000Z</time>
      </trkpt>
      <trkpt lat="45.33695" lon="5.66061">
        <ele>610</ele>
        <time>2016-03-30T13:23:10.000Z</time>
      </trkpt>
      <trkpt lat="45.33687" lon="5.66046">
        <ele>610</ele>
        <time>2016-03-30T13:23:11.000Z</time>
      </trkpt>
      <trkpt lat="45.33679" lon="5.66032">
        <ele>610</ele>
        <time>2016-03-30T13:23:12.000Z</time>
      </trkpt>
      <trkpt lat="45.33671" lon="5.66018">
        <ele>611</ele>
        <time>2016-03-30T13:23:13.000Z</time>
      </trkpt>
      <trkpt lat="45.33661" lon="5.66004">
        <ele>613</ele>
        <time>2016-03-30T13:23:14.000Z</time>
      </trkpt>
      <trkpt lat="45.33649" lon="5.65991">
        <ele>614</ele>
        <time>2016-03-30T13:23:15.000Z</time>
      </trkpt>
      <trkpt lat="45.33636" lon="5.65982">
        <ele>616</ele>
        <time>2016-03-30T13:23:16.000Z</time>
      </trkpt>
      <trkpt lat="45.33621" lon="5.65973">
        <ele>616</ele>
        <time>2016-03-30T13:23:17.000Z</time>
      </trkpt>
      <trkpt lat="45.33606" lon="5.65964">
        <ele>616</ele>
        <time>2016-03-30T13:23:18.000Z</time>
      </trkpt>
      <trkpt lat="45.3359" lon="5.65958">
        <ele>617</ele>
        <time>2016-03-30T13:23:19.000Z</time>
      </trkpt>
      <trkpt lat="45.33576" lon="5.6595">
        <ele>617</ele>
        <time>2016-03-30T13:23:20.000Z</time>
      </trkpt>
      <trkpt lat="45.33559" lon="5.65945">
        <ele>618</ele>
        <time>2016-03-30T13:23:21.000Z</time>
      </trkpt>
      <trkpt lat="45.33542" lon="5.65941">
        <ele>618</ele>
        <time>2016-03-30T13:23:22.000Z</time>
      </trkpt>
      <trkpt lat="45.33527" lon="5.65933">
        <ele>619</ele>
        <time>2016-03-30T13:23:23.000Z</time>
      </trkpt>
      <trkpt lat="45.33511" lon="5.65928">
        <ele>620</ele>
        <time>2016-03-30T13:23:24.000Z</time>
      </trkpt>
      <trkpt lat="45.33494" lon="5.65924">
        <ele>620</ele>
        <time>2016-03-30T13:23:25.000Z</time>
      </trkpt>
      <trkpt lat="45.33476" lon="5.65921">
        <ele>620</ele>
        <time>2016-03-30T13:23:26.000Z</time>
      </trkpt>
      <trkpt lat="45.33458" lon="5.65918">
        <ele>621</ele>
        <time>2016-03-30T13:23:27.000Z</time>
      </trkpt>
      <trkpt lat="45.3344" lon="5.65917">
        <ele>621</ele>
        <time>2016-03-30T13:23:28.000Z</time>
      </trkpt>
      <trkpt lat="45.33422" lon="5.65917">
        <ele>623</ele>
        <time>2016-03-30T13:23:29.000Z</time>
      </trkpt>
      <trkpt lat="45.33405" lon="5.65915">
        <ele>623</ele>
        <time>2016-03-30T13:23:30.000Z</time>
      </trkpt>
      <trkpt lat="45.33387" lon="5.65914">
        <ele>624</ele>
        <time>2016-03-30T13:23:31.000Z</time>
      </trkpt>
      <trkpt lat="45.33371" lon="5.6591">
        <ele>626</ele>
        <time>2016-03-30T13:23:32.000Z</time>
      </trkpt>
      <trkpt lat="45.33354" lon="5.65908">
        <ele>627</ele>
        <time>2016-03-30T13:23:33.000Z</time>
      </trkpt>
      <trkpt lat="45.33337" lon="5.65905">
        <ele>627</ele>
        <time>2016-03-30T13:23:34.000Z</time>
      </trkpt>
      <trkpt lat="45.3332" lon="5.65901">
        <ele>628</ele>
        <time>2016-03-30T13:23:35.000Z</time>
      </trkpt>
      <trkpt lat="45.33302" lon="5.65894">
        <ele>629</ele>
        <time>2016-03-30T13:23:36.000Z</time>
      </trkpt>
      <trkpt lat="45.33284" lon="5.65888">
        <ele>631</ele>
        <time>2016-03-30T13:23:37.000Z</time>
      </trkpt>
      <trkpt lat="45.33268" lon="5.65881">
        <ele>632</ele>
        <time>2016-03-30T13:23:38.000Z</time>
      </trkpt>
      <trkpt lat="45.3325" lon="5.65873">
        <ele>632</ele>
        <time>2016-03-30T13:23:39.000Z</time>
      </trkpt>
      <trkpt lat="45.33233" lon="5.65866">
        <ele>633</ele>
        <time>2016-03-30T13:23:40.000Z</time>
      </trkpt>
      <trkpt lat="45.33217" lon="5.65859">
        <ele>634</ele>
        <time>2016-03-30T13:23:41.000Z</time>
      </trkpt>
      <trkpt lat="45.332" lon="5.65852">
        <ele>635</ele>
        <time>2016-03-30T13:23:42.000Z</time>
      </trkpt>
      <trkpt lat="45.33184" lon="5.65847">
        <ele>635</ele>
        <time>2016-03-30T13:23:43.000Z</time>
      </trkpt>
      <trkpt lat="45.33168" lon="5.65843">
        <ele>636</ele>
        <time>2016-03-30T13:23:44.000Z</time>
      </trkpt>
      <trkpt lat="45.33152" lon="5.65842">
        <ele>637</ele>
        <time>2016-03-30T13:23:45.000Z</time>
      </trkpt>
      <trkpt lat="45.33136" lon="5.65842">
        <ele>636</ele>
        <time>2016-03-30T13:23:46.000Z</time>
      </trkpt>
      <trkpt lat="45.3312" lon="5.65839">
        <ele>637</ele>
        <time>2016-03-30T13:23:47.000Z</time>
      </trkpt>
      <trkpt lat="45.33104" lon="5.65835">
        <ele>637</ele>
        <time>2016-03-30T13:23:48.000Z</time>
      </trkpt>
      <trkpt lat="45.33089" lon="5.6583">
        <ele>637</ele>
        <time>2016-03-30T13:23:49.000Z</time>
      </trkpt>
      <trkpt lat="45.33075" lon="5.65826">
        <ele>637</ele>
        <time>2016-03-30T13:23:50.000Z</time>
      </trkpt>
      <trkpt lat="45.33061" lon="5.65821">
        <ele>637</ele>
        <time>2016-03-30T13:23:51.000Z</time>
      </trkpt>
      <trkpt lat="45.33048" lon="5.65817">
        <ele>637</ele>
        <time>2016-03-30T13:23:52.000Z</time>
      </trkpt>
      <trkpt lat="45.33036" lon="5.65814">
        <ele>637</ele>
        <time>2016-03-30T13:23:53.000Z</time>
      </trkpt>
      <trkpt lat="45.33023" lon="5.65813">
        <ele>637</ele>
        <time>2016-03-30T13:23:54.000Z</time>
      </trkpt>
      <trkpt lat="45.3301" lon="5.65814">
        <ele>637</ele>
        <time>2016-03-30T13:23:55.000Z</time>
      </trkpt>
      <trkpt lat="45.32996" lon="5.65817">
        <ele>638</ele>
        <time>2016-03-30T13:23:56.000Z</time>
      </trkpt>
      <trkpt lat="45.32983" lon="5.65821">
        <ele>638</ele>
        <time>2016-03-30T13:23:57.000Z</time>
      </trkpt>
      <trkpt lat="45.32972" lon="5.65824">
        <ele>638</ele>
        <time>2016-03-30T13:23:58.000Z</time>
      </trkpt>
      <trkpt lat="45.3296" lon="5.65825">
        <ele>638</ele>
        <time>2016-03-30T13:23:59.000Z</time>
      </trkpt>
      <trkpt lat="45.32949" lon="5.65823">
        <ele>639</ele>
        <time>2016-03-30T13:24:00.000Z</time>
      </trkpt>
      <trkpt lat="45.32939" lon="5.6582">
        <ele>639</ele>
        <time>2016-03-30T13:24:01.000Z</time>
      </trkpt>
      <trkpt lat="45.32929" lon="5.65817">
        <ele>638</ele>
        <time>2016-03-30T13:24:02.000Z</time>
      </trkpt>
      <trkpt lat="45.32917" lon="5.65812">
        <ele>637</ele>
        <time>2016-03-30T13:24:03.000Z</time>
      </trkpt>
      <trkpt lat="45.32904" lon="5.65799">
        <ele>637</ele>
        <time>2016-03-30T13:24:04.000Z</time>
      </trkpt>
      <trkpt lat="45.32895" lon="5.65781">
        <ele>636</ele>
        <time>2016-03-30T13:24:05.000Z</time>
      </trkpt>
      <trkpt lat="45.32884" lon="5.65766">
        <ele>635</ele>
        <time>2016-03-30T13:24:06.000Z</time>
      </trkpt>
      <trkpt lat="45.32871" lon="5.65757">
        <ele>634</ele>
        <time>2016-03-30T13:24:07.000Z</time>
      </trkpt>
      <trkpt lat="45.3286" lon="5.65746">
        <ele>633</ele>
        <time>2016-03-30T13:24:08.000Z</time>
      </trkpt>
      <trkpt lat="45.32849" lon="5.65736">
        <ele>632</ele>
        <time>2016-03-30T13:24:09.000Z</time>
      </trkpt>
      <trkpt lat="45.32836" lon="5.65727">
        <ele>630</ele>
        <time>2016-03-30T13:24:10.000Z</time>
      </trkpt>
      <trkpt lat="45.32824" lon="5.65718">
        <ele>629</ele>
        <time>2016-03-30T13:24:11.000Z</time>
      </trkpt>
      <trkpt lat="45.32809" lon="5.65707">
        <ele>629</ele>
        <time>2016-03-30T13:24:12.000Z</time>
      </trkpt>
      <trkpt lat="45.32793" lon="5.65696">
        <ele>627</ele>
        <time>2016-03-30T13:24:13.000Z</time>
      </trkpt>
      <trkpt lat="45.32778" lon="5.65688">
        <ele>627</ele>
        <time>2016-03-30T13:24:14.000Z</time>
      </trkpt>
      <trkpt lat="45.32763" lon="5.65682">
        <ele>627</ele>
        <time>2016-03-30T13:24:15.000Z</time>
      </trkpt>
      <trkpt lat="45.32746" lon="5.65679">
        <ele>625</ele>
        <time>2016-03-30T13:24:16.000Z</time>
      </trkpt>
      <trkpt lat="45.32731" lon="5.65677">
        <ele>624</ele>
        <time>2016-03-30T13:24:17.000Z</time>
      </trkpt>
      <trkpt lat="45.32716" lon="5.65673">
        <ele>622</ele>
        <time>2016-03-30T13:24:18.000Z</time>
      </trkpt>
      <trkpt lat="45.32699" lon="5.65674">
        <ele>621</ele>
        <time>2016-03-30T13:24:19.000Z</time>
      </trkpt>
      <trkpt lat="45.32669" lon="5.6567">
        <ele>619</ele>
        <time>2016-03-30T13:24:21.000Z</time>
      </trkpt>
      <trkpt lat="45.32654" lon="5.65664">
        <ele>618</ele>
        <time>2016-03-30T13:24:22.000Z</time>
      </trkpt>
      <trkpt lat="45.32637" lon="5.65659">
        <ele>618</ele>
        <time>2016-03-30T13:24:23.000Z</time>
      </trkpt>
      <trkpt lat="45.3262" lon="5.65652">
        <ele>616</ele>
        <time>2016-03-30T13:24:24.000Z</time>
      </trkpt>
      <trkpt lat="45.32603" lon="5.65644">
        <ele>614</ele>
        <time>2016-03-30T13:24:25.000Z</time>
      </trkpt>
      <trkpt lat="45.32585" lon="5.65635">
        <ele>614</ele>
        <time>2016-03-30T13:24:26.000Z</time>
      </trkpt>
      <trkpt lat="45.32569" lon="5.65626">
        <ele>611</ele>
        <time>2016-03-30T13:24:27.000Z</time>
      </trkpt>
      <trkpt lat="45.32553" lon="5.65617">
        <ele>611</ele>
        <time>2016-03-30T13:24:28.000Z</time>
      </trkpt>
      <trkpt lat="45.32536" lon="5.6561">
        <ele>610</ele>
        <time>2016-03-30T13:24:29.000Z</time>
      </trkpt>
      <trkpt lat="45.32518" lon="5.65603">
        <ele>608</ele>
        <time>2016-03-30T13:24:30.000Z</time>
      </trkpt>
      <trkpt lat="45.32505" lon="5.65595">
        <ele>606</ele>
        <time>2016-03-30T13:24:31.000Z</time>
      </trkpt>
      <trkpt lat="45.32489" lon="5.65587">
        <ele>605</ele>
        <time>2016-03-30T13:24:32.000Z</time>
      </trkpt>
      <trkpt lat="45.32475" lon="5.65575">
        <ele>604</ele>
        <time>2016-03-30T13:24:33.000Z</time>
      </trkpt>
      <trkpt lat="45.32461" lon="5.65564">
        <ele>603</ele>
        <time>2016-03-30T13:24:34.000Z</time>
      </trkpt>
      <trkpt lat="45.32447" lon="5.65552">
        <ele>603</ele>
        <time>2016-03-30T13:24:35.000Z</time>
      </trkpt>
      <trkpt lat="45.32433" lon="5.65541">
        <ele>603</ele>
        <time>2016-03-30T13:24:36.000Z</time>
      </trkpt>
      <trkpt lat="45.32418" lon="5.65532">
        <ele>603</ele>
        <time>2016-03-30T13:24:37.000Z</time>
      </trkpt>
      <trkpt lat="45.32407" lon="5.65526">
        <ele>601</ele>
        <time>2016-03-30T13:24:38.000Z</time>
      </trkpt>
      <trkpt lat="45.32394" lon="5.6552">
        <ele>600</ele>
        <time>2016-03-30T13:24:39.000Z</time>
      </trkpt>
      <trkpt lat="45.32381" lon="5.65514">
        <ele>600</ele>
        <time>2016-03-30T13:24:40.000Z</time>
      </trkpt>
      <trkpt lat="45.32367" lon="5.65506">
        <ele>599</ele>
        <time>2016-03-30T13:24:41.000Z</time>
      </trkpt>
      <trkpt lat="45.3236" lon="5.6549">
        <ele>596</ele>
        <time>2016-03-30T13:24:42.000Z</time>
      </trkpt>
      <trkpt lat="45.32351" lon="5.65475">
        <ele>595</ele>
        <time>2016-03-30T13:24:43.000Z</time>
      </trkpt>
      <trkpt lat="45.32339" lon="5.65462">
        <ele>594</ele>
        <time>2016-03-30T13:24:44.000Z</time>
      </trkpt>
      <trkpt lat="45.32327" lon="5.65451">
        <ele>593</ele>
        <time>2016-03-30T13:24:45.000Z</time>
      </trkpt>
      <trkpt lat="45.32315" lon="5.65442">
        <ele>591</ele>
        <time>2016-03-30T13:24:46.000Z</time>
      </trkpt>
      <trkpt lat="45.32301" lon="5.65433">
        <ele>589</ele>
        <time>2016-03-30T13:24:47.000Z</time>
      </trkpt>
      <trkpt lat="45.32289" lon="5.65424">
        <ele>587</ele>
        <time>2016-03-30T13:24:48.000Z</time>
      </trkpt>
      <trkpt lat="45.32277" lon="5.65416">
        <ele>585</ele>
        <time>2016-03-30T13:24:49.000Z</time>
      </trkpt>
      <trkpt lat="45.32264" lon="5.65408">
        <ele>584</ele>
        <time>2016-03-30T13:24:50.000Z</time>
      </trkpt>
      <trkpt lat="45.32249" lon="5.654">
        <ele>583</ele>
        <time>2016-03-30T13:24:51.000Z</time>
      </trkpt>
      <trkpt lat="45.32233" lon="5.65394">
        <ele>583</ele>
        <time>2016-03-30T13:24:52.000Z</time>
      </trkpt>
      <trkpt lat="45.32216" lon="5.65387">
        <ele>581</ele>
        <time>2016-03-30T13:24:53.000Z</time>
      </trkpt>
      <trkpt lat="45.32201" lon="5.65382">
        <ele>579</ele>
        <time>2016-03-30T13:24:54.000Z</time>
      </trkpt>
      <trkpt lat="45.32187" lon="5.65379">
        <ele>577</ele>
        <time>2016-03-30T13:24:55.000Z</time>
      </trkpt>
      <trkpt lat="45.32172" lon="5.65376">
        <ele>576</ele>
        <time>2016-03-30T13:24:56.000Z</time>
      </trkpt>
      <trkpt lat="45.32157" lon="5.65374">
        <ele>575</ele>
        <time>2016-03-30T13:24:57.000Z</time>
      </trkpt>
      <trkpt lat="45.32142" lon="5.65371">
        <ele>573</ele>
        <time>2016-03-30T13:24:58.000Z</time>
      </trkpt>
      <trkpt lat="45.32126" lon="5.65368">
        <ele>572</ele>
        <time>2016-03-30T13:24:59.000Z</time>
      </trkpt>
      <trkpt lat="45.3211" lon="5.65366">
        <ele>572</ele>
        <time>2016-03-30T13:25:00.000Z</time>
      </trkpt>
      <trkpt lat="45.32095" lon="5.65363">
        <ele>570</ele>
        <time>2016-03-30T13:25:01.000Z</time>
      </trkpt>
      <trkpt lat="45.32081" lon="5.65359">
        <ele>569</ele>
        <time>2016-03-30T13:25:02.000Z</time>
      </trkpt>
      <trkpt lat="45.32066" lon="5.65353">
        <ele>567</ele>
        <time>2016-03-30T13:25:03.000Z</time>
      </trkpt>
      <trkpt lat="45.32051" lon="5.65348">
        <ele>567</ele>
        <time>2016-03-30T13:25:04.000Z</time>
      </trkpt>
      <trkpt lat="45.32035" lon="5.65344">
        <ele>565</ele>
        <time>2016-03-30T13:25:05.000Z</time>
      </trkpt>
      <trkpt lat="45.32019" lon="5.65338">
        <ele>564</ele>
        <time>2016-03-30T13:25:06.000Z</time>
      </trkpt>
      <trkpt lat="45.32002" lon="5.65331">
        <ele>562</ele>
        <time>2016-03-30T13:25:07.000Z</time>
      </trkpt>
      <trkpt lat="45.31984" lon="5.65324">
        <ele>562</ele>
        <time>2016-03-30T13:25:08.000Z</time>
      </trkpt>
      <trkpt lat="45.31966" lon="5.65315">
        <ele>562</ele>
        <time>2016-03-30T13:25:09.000Z</time>
      </trkpt>
      <trkpt lat="45.31944" lon="5.65306">
        <ele>561</ele>
        <time>2016-03-30T13:25:10.000Z</time>
      </trkpt>
      <trkpt lat="45.31924" lon="5.65299">
        <ele>561</ele>
        <time>2016-03-30T13:25:11.000Z</time>
      </trkpt>
      <trkpt lat="45.31907" lon="5.65293">
        <ele>561</ele>
        <time>2016-03-30T13:25:12.000Z</time>
      </trkpt>
      <trkpt lat="45.3189" lon="5.65289">
        <ele>560</ele>
        <time>2016-03-30T13:25:13.000Z</time>
      </trkpt>
      <trkpt lat="45.31875" lon="5.65286">
        <ele>558</ele>
        <time>2016-03-30T13:25:14.000Z</time>
      </trkpt>
      <trkpt lat="45.31858" lon="5.65284">
        <ele>558</ele>
        <time>2016-03-30T13:25:15.000Z</time>
      </trkpt>
      <trkpt lat="45.31843" lon="5.65279">
        <ele>557</ele>
        <time>2016-03-30T13:25:16.000Z</time>
      </trkpt>
      <trkpt lat="45.31827" lon="5.65273">
        <ele>557</ele>
        <time>2016-03-30T13:25:17.000Z</time>
      </trkpt>
      <trkpt lat="45.3181" lon="5.65266">
        <ele>555</ele>
        <time>2016-03-30T13:25:18.000Z</time>
      </trkpt>
      <trkpt lat="45.31795" lon="5.65259">
        <ele>554</ele>
        <time>2016-03-30T13:25:19.000Z</time>
      </trkpt>
      <trkpt lat="45.31778" lon="5.65251">
        <ele>555</ele>
        <time>2016-03-30T13:25:20.000Z</time>
      </trkpt>
      <trkpt lat="45.3176" lon="5.65242">
        <ele>554</ele>
        <time>2016-03-30T13:25:21.000Z</time>
      </trkpt>
      <trkpt lat="45.31746" lon="5.65231">
        <ele>555</ele>
        <time>2016-03-30T13:25:22.000Z</time>
      </trkpt>
      <trkpt lat="45.31731" lon="5.6522">
        <ele>554</ele>
        <time>2016-03-30T13:25:23.000Z</time>
      </trkpt>
      <trkpt lat="45.31717" lon="5.65213">
        <ele>552</ele>
        <time>2016-03-30T13:25:24.000Z</time>
      </trkpt>
      <trkpt lat="45.31701" lon="5.652">
        <ele>553</ele>
        <time>2016-03-30T13:25:25.000Z</time>
      </trkpt>
      <trkpt lat="45.31686" lon="5.65187">
        <ele>552</ele>
        <time>2016-03-30T13:25:26.000Z</time>
      </trkpt>
      <trkpt lat="45.31674" lon="5.65174">
        <ele>549</ele>
        <time>2016-03-30T13:25:27.000Z</time>
      </trkpt>
      <trkpt lat="45.31658" lon="5.65164">
        <ele>548</ele>
        <time>2016-03-30T13:25:28.000Z</time>
      </trkpt>
      <trkpt lat="45.31641" lon="5.65155">
        <ele>547</ele>
        <time>2016-03-30T13:25:29.000Z</time>
      </trkpt>
      <trkpt lat="45.31625" lon="5.65146">
        <ele>545</ele>
        <time>2016-03-30T13:25:30.000Z</time>
      </trkpt>
      <trkpt lat="45.31608" lon="5.65136">
        <ele>544</ele>
        <time>2016-03-30T13:25:31.000Z</time>
      </trkpt>
      <trkpt lat="45.31592" lon="5.65127">
        <ele>543</ele>
        <time>2016-03-30T13:25:32.000Z</time>
      </trkpt>
      <trkpt lat="45.31577" lon="5.65116">
        <ele>542</ele>
        <time>2016-03-30T13:25:33.000Z</time>
      </trkpt>
      <trkpt lat="45.31562" lon="5.65105">
        <ele>541</ele>
        <time>2016-03-30T13:25:34.000Z</time>
      </trkpt>
      <trkpt lat="45.31546" lon="5.65094">
        <ele>541</ele>
        <time>2016-03-30T13:25:35.000Z</time>
      </trkpt>
      <trkpt lat="45.31531" lon="5.65082">
        <ele>541</ele>
        <time>2016-03-30T13:25:36.000Z</time>
      </trkpt>
      <trkpt lat="45.31516" lon="5.65068">
        <ele>542</ele>
        <time>2016-03-30T13:25:37.000Z</time>
      </trkpt>
      <trkpt lat="45.315" lon="5.65057">
        <ele>541</ele>
        <time>2016-03-30T13:25:38.000Z</time>
      </trkpt>
      <trkpt lat="45.31483" lon="5.65048">
        <ele>541</ele>
        <time>2016-03-30T13:25:39.000Z</time>
      </trkpt>
      <trkpt lat="45.31469" lon="5.65038">
        <ele>541</ele>
        <time>2016-03-30T13:25:40.000Z</time>
      </trkpt>
      <trkpt lat="45.31455" lon="5.65028">
        <ele>541</ele>
        <time>2016-03-30T13:25:41.000Z</time>
      </trkpt>
      <trkpt lat="45.31439" lon="5.65019">
        <ele>542</ele>
        <time>2016-03-30T13:25:42.000Z</time>
      </trkpt>
      <trkpt lat="45.31426" lon="5.65007">
        <ele>541</ele>
        <time>2016-03-30T13:25:43.000Z</time>
      </trkpt>
      <trkpt lat="45.31416" lon="5.64994">
        <ele>539</ele>
        <time>2016-03-30T13:25:44.000Z</time>
      </trkpt>
      <trkpt lat="45.31402" lon="5.64982">
        <ele>539</ele>
        <time>2016-03-30T13:25:45.000Z</time>
      </trkpt>
      <trkpt lat="45.31391" lon="5.6496">
        <ele>540</ele>
        <time>2016-03-30T13:25:46.000Z</time>
      </trkpt>
      <trkpt lat="45.31379" lon="5.64939">
        <ele>540</ele>
        <time>2016-03-30T13:25:47.000Z</time>
      </trkpt>
      <trkpt lat="45.31369" lon="5.64918">
        <ele>541</ele>
        <time>2016-03-30T13:25:48.000Z</time>
      </trkpt>
      <trkpt lat="45.3136" lon="5.64898">
        <ele>540</ele>
        <time>2016-03-30T13:25:49.000Z</time>
      </trkpt>
      <trkpt lat="45.31353" lon="5.64881">
        <ele>540</ele>
        <time>2016-03-30T13:25:50.000Z</time>
      </trkpt>
      <trkpt lat="45.31342" lon="5.64865">
        <ele>542</ele>
        <time>2016-03-30T13:25:51.000Z</time>
      </trkpt>
      <trkpt lat="45.31335" lon="5.64851">
        <ele>542</ele>
        <time>2016-03-30T13:25:52.000Z</time>
      </trkpt>
      <trkpt lat="45.31326" lon="5.64839">
        <ele>542</ele>
        <time>2016-03-30T13:25:53.000Z</time>
      </trkpt>
      <trkpt lat="45.31315" lon="5.6483">
        <ele>541</ele>
        <time>2016-03-30T13:25:54.000Z</time>
      </trkpt>
      <trkpt lat="45.31302" lon="5.64823">
        <ele>541</ele>
        <time>2016-03-30T13:25:55.000Z</time>
      </trkpt>
      <trkpt lat="45.31284" lon="5.64825">
        <ele>540</ele>
        <time>2016-03-30T13:25:56.000Z</time>
      </trkpt>
      <trkpt lat="45.31269" lon="5.64821">
        <ele>541</ele>
        <time>2016-03-30T13:25:57.000Z</time>
      </trkpt>
      <trkpt lat="45.31256" lon="5.64815">
        <ele>540</ele>
        <time>2016-03-30T13:25:58.000Z</time>
      </trkpt>
      <trkpt lat="45.31241" lon="5.64806">
        <ele>539</ele>
        <time>2016-03-30T13:25:59.000Z</time>
      </trkpt>
      <trkpt lat="45.31227" lon="5.64796">
        <ele>539</ele>
        <time>2016-03-30T13:26:00.000Z</time>
      </trkpt>
      <trkpt lat="45.31213" lon="5.64788">
        <ele>539</ele>
        <time>2016-03-30T13:26:01.000Z</time>
      </trkpt>
      <trkpt lat="45.31204" lon="5.6478">
        <ele>535</ele>
        <time>2016-03-30T13:26:02.000Z</time>
      </trkpt>
      <trkpt lat="45.31191" lon="5.64768">
        <ele>534</ele>
        <time>2016-03-30T13:26:03.000Z</time>
      </trkpt>
      <trkpt lat="45.31179" lon="5.64757">
        <ele>533</ele>
        <time>2016-03-30T13:26:04.000Z</time>
      </trkpt>
      <trkpt lat="45.31165" lon="5.64744">
        <ele>532</ele>
        <time>2016-03-30T13:26:05.000Z</time>
      </trkpt>
      <trkpt lat="45.31153" lon="5.6473">
        <ele>532</ele>
        <time>2016-03-30T13:26:06.000Z</time>
      </trkpt>
      <trkpt lat="45.31143" lon="5.64712">
        <ele>531</ele>
        <time>2016-03-30T13:26:07.000Z</time>
      </trkpt>
      <trkpt lat="45.31131" lon="5.64695">
        <ele>530</ele>
        <time>2016-03-30T13:26:08.000Z</time>
      </trkpt>
      <trkpt lat="45.31123" lon="5.64676">
        <ele>530</ele>
        <time>2016-03-30T13:26:09.000Z</time>
      </trkpt>
      <trkpt lat="45.31116" lon="5.64663">
        <ele>529</ele>
        <time>2016-03-30T13:26:10.000Z</time>
      </trkpt>
      <trkpt lat="45.31109" lon="5.64647">
        <ele>529</ele>
        <time>2016-03-30T13:26:11.000Z</time>
      </trkpt>
      <trkpt lat="45.31101" lon="5.64634">
        <ele>528</ele>
        <time>2016-03-30T13:26:12.000Z</time>
      </trkpt>
      <trkpt lat="45.31093" lon="5.64618">
        <ele>527</ele>
        <time>2016-03-30T13:26:13.000Z</time>
      </trkpt>
      <trkpt lat="45.31085" lon="5.64602">
        <ele>526</ele>
        <time>2016-03-30T13:26:14.000Z</time>
      </trkpt>
      <trkpt lat="45.31076" lon="5.64583">
        <ele>525</ele>
        <time>2016-03-30T13:26:15.000Z</time>
      </trkpt>
      <trkpt lat="45.31068" lon="5.64565">
        <ele>524</ele>
        <time>2016-03-30T13:26:16.000Z</time>
      </trkpt>
      <trkpt lat="45.3106" lon="5.64545">
        <ele>523</ele>
        <time>2016-03-30T13:26:17.000Z</time>
      </trkpt>
      <trkpt lat="45.31053" lon="5.64527">
        <ele>522</ele>
        <time>2016-03-30T13:26:18.000Z</time>
      </trkpt>
      <trkpt lat="45.31049" lon="5.64506">
        <ele>521</ele>
        <time>2016-03-30T13:26:19.000Z</time>
      </trkpt>
      <trkpt lat="45.31044" lon="5.64486">
        <ele>521</ele>
        <time>2016-03-30T13:26:20.000Z</time>
      </trkpt>
      <trkpt lat="45.31038" lon="5.64468">
        <ele>521</ele>
        <time>2016-03-30T13:26:21.000Z</time>
      </trkpt>
      <trkpt lat="45.31035" lon="5.64452">
        <ele>520</ele>
        <time>2016-03-30T13:26:22.000Z</time>
      </trkpt>
      <trkpt lat="45.31031" lon="5.64432">
        <ele>518</ele>
        <time>2016-03-30T13:26:23.000Z</time>
      </trkpt>
      <trkpt lat="45.31028" lon="5.64414">
        <ele>518</ele>
        <time>2016-03-30T13:26:24.000Z</time>
      </trkpt>
      <trkpt lat="45.31024" lon="5.64398">
        <ele>613</ele>
        <time>2016-03-30T13:26:25.000Z</time>
      </trkpt>
      <trkpt lat="45.31018" lon="5.64379">
        <ele>593</ele>
        <time>2016-03-30T13:26:26.000Z</time>
      </trkpt>
      <trkpt lat="45.31012" lon="5.6436">
        <ele>576</ele>
        <time>2016-03-30T13:26:27.000Z</time>
      </trkpt>
      <trkpt lat="45.31004" lon="5.64344">
        <ele>562</ele>
        <time>2016-03-30T13:26:28.000Z</time>
      </trkpt>
      <trkpt lat="45.30996" lon="5.64329">
        <ele>554</ele>
        <time>2016-03-30T13:26:29.000Z</time>
      </trkpt>
      <trkpt lat="45.30979" lon="5.64328">
        <ele>548</ele>
        <time>2016-03-30T13:26:30.000Z</time>
      </trkpt>
      <trkpt lat="45.30964" lon="5.64321">
        <ele>543</ele>
        <time>2016-03-30T13:26:31.000Z</time>
      </trkpt>
      <trkpt lat="45.30948" lon="5.64315">
        <ele>533</ele>
        <time>2016-03-30T13:26:32.000Z</time>
      </trkpt>
      <trkpt lat="45.30926" lon="5.64288">
        <ele>509</ele>
        <time>2016-03-30T13:26:34.000Z</time>
      </trkpt>
      <trkpt lat="45.30917" lon="5.64273">
        <ele>508</ele>
        <time>2016-03-30T13:26:35.000Z</time>
      </trkpt>
      <trkpt lat="45.30916" lon="5.64235">
        <ele>503</ele>
        <time>2016-03-30T13:26:37.000Z</time>
      </trkpt>
      <trkpt lat="45.30919" lon="5.64215">
        <ele>503</ele>
        <time>2016-03-30T13:26:38.000Z</time>
      </trkpt>
      <trkpt lat="45.30917" lon="5.64198">
        <ele>502</ele>
        <time>2016-03-30T13:26:39.000Z</time>
      </trkpt>
      <trkpt lat="45.30935" lon="5.64169">
        <ele>500</ele>
        <time>2016-03-30T13:26:41.000Z</time>
      </trkpt>
      <trkpt lat="45.30945" lon="5.64156">
        <ele>498</ele>
        <time>2016-03-30T13:26:42.000Z</time>
      </trkpt>
      <trkpt lat="45.30958" lon="5.64142">
        <ele>496</ele>
        <time>2016-03-30T13:26:43.000Z</time>
      </trkpt>
      <trkpt lat="45.30969" lon="5.64133">
        <ele>494</ele>
        <time>2016-03-30T13:26:44.000Z</time>
      </trkpt>
      <trkpt lat="45.3098" lon="5.64119">
        <ele>492</ele>
        <time>2016-03-30T13:26:45.000Z</time>
      </trkpt>
      <trkpt lat="45.30993" lon="5.64091">
        <ele>489</ele>
        <time>2016-03-30T13:26:47.000Z</time>
      </trkpt>
      <trkpt lat="45.30997" lon="5.64073">
        <ele>489</ele>
        <time>2016-03-30T13:26:48.000Z</time>
      </trkpt>
      <trkpt lat="45.30991" lon="5.64052">
        <ele>489</ele>
        <time>2016-03-30T13:26:49.000Z</time>
      </trkpt>
      <trkpt lat="45.30984" lon="5.64026">
        <ele>489</ele>
        <time>2016-03-30T13:26:50.000Z</time>
      </trkpt>
      <trkpt lat="45.30977" lon="5.64005">
        <ele>486</ele>
        <time>2016-03-30T13:26:51.000Z</time>
      </trkpt>
      <trkpt lat="45.30972" lon="5.6399">
        <ele>485</ele>
        <time>2016-03-30T13:26:52.000Z</time>
      </trkpt>
      <trkpt lat="45.30964" lon="5.63978">
        <ele>486</ele>
        <time>2016-03-30T13:26:53.000Z</time>
      </trkpt>
      <trkpt lat="45.30952" lon="5.63965">
        <ele>486</ele>
        <time>2016-03-30T13:26:54.000Z</time>
      </trkpt>
      <trkpt lat="45.30924" lon="5.63958">
        <ele>487</ele>
        <time>2016-03-30T13:26:55.000Z</time>
      </trkpt>
      <trkpt lat="45.30912" lon="5.6394">
        <ele>483</ele>
        <time>2016-03-30T13:26:56.000Z</time>
      </trkpt>
      <trkpt lat="45.30901" lon="5.63925">
        <ele>479</ele>
        <time>2016-03-30T13:26:57.000Z</time>
      </trkpt>
      <trkpt lat="45.30878" lon="5.63897">
        <ele>475</ele>
        <time>2016-03-30T13:26:59.000Z</time>
      </trkpt>
      <trkpt lat="45.30868" lon="5.63881">
        <ele>473</ele>
        <time>2016-03-30T13:27:00.000Z</time>
      </trkpt>
      <trkpt lat="45.30858" lon="5.63867">
        <ele>472</ele>
        <time>2016-03-30T13:27:01.000Z</time>
      </trkpt>
      <trkpt lat="45.30848" lon="5.63853">
        <ele>471</ele>
        <time>2016-03-30T13:27:02.000Z</time>
      </trkpt>
      <trkpt lat="45.30837" lon="5.63837">
        <ele>470</ele>
        <time>2016-03-30T13:27:03.000Z</time>
      </trkpt>
      <trkpt lat="45.30826" lon="5.63821">
        <ele>469</ele>
        <time>2016-03-30T13:27:04.000Z</time>
      </trkpt>
      <trkpt lat="45.30816" lon="5.63803">
        <ele>468</ele>
        <time>2016-03-30T13:27:05.000Z</time>
      </trkpt>
      <trkpt lat="45.30806" lon="5.63784">
        <ele>467</ele>
        <time>2016-03-30T13:27:06.000Z</time>
      </trkpt>
      <trkpt lat="45.30796" lon="5.63763">
        <ele>466</ele>
        <time>2016-03-30T13:27:07.000Z</time>
      </trkpt>
      <trkpt lat="45.30785" lon="5.63747">
        <ele>465</ele>
        <time>2016-03-30T13:27:08.000Z</time>
      </trkpt>
      <trkpt lat="45.30756" lon="5.63725">
        <ele>463</ele>
        <time>2016-03-30T13:27:10.000Z</time>
      </trkpt>
      <trkpt lat="45.30737" lon="5.6372">
        <ele>461</ele>
        <time>2016-03-30T13:27:11.000Z</time>
      </trkpt>
      <trkpt lat="45.30706" lon="5.6371">
        <ele>457</ele>
        <time>2016-03-30T13:27:13.000Z</time>
      </trkpt>
      <trkpt lat="45.30692" lon="5.63703">
        <ele>456</ele>
        <time>2016-03-30T13:27:14.000Z</time>
      </trkpt>
      <trkpt lat="45.30678" lon="5.63697">
        <ele>455</ele>
        <time>2016-03-30T13:27:15.000Z</time>
      </trkpt>
      <trkpt lat="45.30655" lon="5.63681">
        <ele>452</ele>
        <time>2016-03-30T13:27:17.000Z</time>
      </trkpt>
      <trkpt lat="45.30639" lon="5.63673">
        <ele>453</ele>
        <time>2016-03-30T13:27:18.000Z</time>
      </trkpt>
      <trkpt lat="45.30624" lon="5.63647">
        <ele>450</ele>
        <time>2016-03-30T13:27:20.000Z</time>
      </trkpt>
      <trkpt lat="45.30613" lon="5.63637">
        <ele>449</ele>
        <time>2016-03-30T13:27:21.000Z</time>
      </trkpt>
      <trkpt lat="45.30605" lon="5.63629">
        <ele>447</ele>
        <time>2016-03-30T13:27:22.000Z</time>
      </trkpt>
      <trkpt lat="45.30595" lon="5.63621">
        <ele>447</ele>
        <time>2016-03-30T13:27:23.000Z</time>
      </trkpt>
      <trkpt lat="45.30572" lon="5.63619">
        <ele>443</ele>
        <time>2016-03-30T13:27:25.000Z</time>
      </trkpt>
      <trkpt lat="45.3056" lon="5.63614">
        <ele>441</ele>
        <time>2016-03-30T13:27:26.000Z</time>
      </trkpt>
      <trkpt lat="45.30547" lon="5.63605">
        <ele>440</ele>
        <time>2016-03-30T13:27:27.000Z</time>
      </trkpt>
      <trkpt lat="45.30534" lon="5.63595">
        <ele>439</ele>
        <time>2016-03-30T13:27:28.000Z</time>
      </trkpt>
      <trkpt lat="45.30517" lon="5.63593">
        <ele>439</ele>
        <time>2016-03-30T13:27:29.000Z</time>
      </trkpt>
      <trkpt lat="45.30499" lon="5.6359">
        <ele>437</ele>
        <time>2016-03-30T13:27:30.000Z</time>
      </trkpt>
      <trkpt lat="45.30482" lon="5.63588">
        <ele>437</ele>
        <time>2016-03-30T13:27:31.000Z</time>
      </trkpt>
      <trkpt lat="45.30467" lon="5.63592">
        <ele>447</ele>
        <time>2016-03-30T13:27:32.000Z</time>
      </trkpt>
      <trkpt lat="45.30442" lon="5.63597">
        <ele>436</ele>
        <time>2016-03-30T13:27:34.000Z</time>
      </trkpt>
      <trkpt lat="45.30426" lon="5.63596">
        <ele>433</ele>
        <time>2016-03-30T13:27:35.000Z</time>
      </trkpt>
      <trkpt lat="45.3041" lon="5.63588">
        <ele>432</ele>
        <time>2016-03-30T13:27:36.000Z</time>
      </trkpt>
      <trkpt lat="45.30388" lon="5.63563">
        <ele>428</ele>
        <time>2016-03-30T13:27:38.000Z</time>
      </trkpt>
      <trkpt lat="45.30379" lon="5.63549">
        <ele>426</ele>
        <time>2016-03-30T13:27:39.000Z</time>
      </trkpt>
      <trkpt lat="45.30367" lon="5.63538">
        <ele>429</ele>
        <time>2016-03-30T13:27:40.000Z</time>
      </trkpt>
      <trkpt lat="45.30357" lon="5.6353">
        <ele>426</ele>
        <time>2016-03-30T13:27:41.000Z</time>
      </trkpt>
      <trkpt lat="45.30345" lon="5.63526">
        <ele>424</ele>
        <time>2016-03-30T13:27:42.000Z</time>
      </trkpt>
      <trkpt lat="45.30331" lon="5.63526">
        <ele>420</ele>
        <time>2016-03-30T13:27:43.000Z</time>
      </trkpt>
      <trkpt lat="45.30312" lon="5.63532">
        <ele>416</ele>
        <time>2016-03-30T13:27:44.000Z</time>
      </trkpt>
      <trkpt lat="45.30298" lon="5.63535">
        <ele>414</ele>
        <time>2016-03-30T13:27:45.000Z</time>
      </trkpt>
      <trkpt lat="45.30284" lon="5.63538">
        <ele>412</ele>
        <time>2016-03-30T13:27:46.000Z</time>
      </trkpt>
      <trkpt lat="45.30269" lon="5.63538">
        <ele>411</ele>
        <time>2016-03-30T13:27:47.000Z</time>
      </trkpt>
      <trkpt lat="45.30256" lon="5.63535">
        <ele>405</ele>
        <time>2016-03-30T13:27:48.000Z</time>
      </trkpt>
      <trkpt lat="45.30241" lon="5.63534">
        <ele>403</ele>
        <time>2016-03-30T13:27:49.000Z</time>
      </trkpt>
      <trkpt lat="45.30222" lon="5.63526">
        <ele>401</ele>
        <time>2016-03-30T13:27:50.000Z</time>
      </trkpt>
      <trkpt lat="45.30205" lon="5.6352">
        <ele>398</ele>
        <time>2016-03-30T13:27:51.000Z</time>
      </trkpt>
      <trkpt lat="45.3019" lon="5.63516">
        <ele>397</ele>
        <time>2016-03-30T13:27:52.000Z</time>
      </trkpt>
      <trkpt lat="45.30161" lon="5.63508">
        <ele>392</ele>
        <time>2016-03-30T13:27:54.000Z</time>
      </trkpt>
      <trkpt lat="45.30133" lon="5.63503">
        <ele>392</ele>
        <time>2016-03-30T13:27:56.000Z</time>
      </trkpt>
      <trkpt lat="45.30122" lon="5.63497">
        <ele>391</ele>
        <time>2016-03-30T13:27:57.000Z</time>
      </trkpt>
      <trkpt lat="45.30111" lon="5.6349">
        <ele>392</ele>
        <time>2016-03-30T13:27:58.000Z</time>
      </trkpt>
      <trkpt lat="45.30102" lon="5.63483">
        <ele>391</ele>
        <time>2016-03-30T13:27:59.000Z</time>
      </trkpt>
      <trkpt lat="45.30094" lon="5.63477">
        <ele>391</ele>
        <time>2016-03-30T13:28:00.000Z</time>
      </trkpt>
      <trkpt lat="45.30081" lon="5.63468">
        <ele>388</ele>
        <time>2016-03-30T13:28:02.000Z</time>
      </trkpt>
      <trkpt lat="45.30067" lon="5.63476">
        <ele>389</ele>
        <time>2016-03-30T13:28:04.000Z</time>
      </trkpt>
      <trkpt lat="45.30063" lon="5.63496">
        <ele>389</ele>
        <time>2016-03-30T13:28:06.000Z</time>
      </trkpt>
      <trkpt lat="45.30066" lon="5.63508">
        <ele>389</ele>
        <time>2016-03-30T13:28:07.000Z</time>
      </trkpt>
      <trkpt lat="45.30092" lon="5.63513">
        <ele>389</ele>
        <time>2016-03-30T13:28:08.000Z</time>
      </trkpt>
      <trkpt lat="45.30104" lon="5.63519">
        <ele>388</ele>
        <time>2016-03-30T13:28:09.000Z</time>
      </trkpt>
      <trkpt lat="45.30117" lon="5.63525">
        <ele>387</ele>
        <time>2016-03-30T13:28:10.000Z</time>
      </trkpt>
      <trkpt lat="45.30127" lon="5.63537">
        <ele>387</ele>
        <time>2016-03-30T13:28:11.000Z</time>
      </trkpt>
      <trkpt lat="45.30141" lon="5.63542">
        <ele>388</ele>
        <time>2016-03-30T13:28:12.000Z</time>
      </trkpt>
      <trkpt lat="45.30154" lon="5.63551">
        <ele>388</ele>
        <time>2016-03-30T13:28:13.000Z</time>
      </trkpt>
      <trkpt lat="45.30164" lon="5.63557">
        <ele>386</ele>
        <time>2016-03-30T13:28:14.000Z</time>
      </trkpt>
      <trkpt lat="45.30173" lon="5.63566">
        <ele>385</ele>
        <time>2016-03-30T13:28:15.000Z</time>
      </trkpt>
      <trkpt lat="45.30183" lon="5.63577">
        <ele>384</ele>
        <time>2016-03-30T13:28:16.000Z</time>
      </trkpt>
      <trkpt lat="45.30191" lon="5.63593">
        <ele>383</ele>
        <time>2016-03-30T13:28:17.000Z</time>
      </trkpt>
      <trkpt lat="45.302" lon="5.63606">
        <ele>383</ele>
        <time>2016-03-30T13:28:18.000Z</time>
      </trkpt>
      <trkpt lat="45.30213" lon="5.63615">
        <ele>382</ele>
        <time>2016-03-30T13:28:19.000Z</time>
      </trkpt>
      <trkpt lat="45.30224" lon="5.63619">
        <ele>383</ele>
        <time>2016-03-30T13:28:20.000Z</time>
      </trkpt>
      <trkpt lat="45.30237" lon="5.63623">
        <ele>383</ele>
        <time>2016-03-30T13:28:21.000Z</time>
      </trkpt>
      <trkpt lat="45.3025" lon="5.63621">
        <ele>383</ele>
        <time>2016-03-30T13:28:22.000Z</time>
      </trkpt>
      <trkpt lat="45.30264" lon="5.63624">
        <ele>381</ele>
        <time>2016-03-30T13:28:23.000Z</time>
      </trkpt>
      <trkpt lat="45.30273" lon="5.63629">
        <ele>382</ele>
        <time>2016-03-30T13:28:24.000Z</time>
      </trkpt>
      <trkpt lat="45.30285" lon="5.63641">
        <ele>379</ele>
        <time>2016-03-30T13:28:26.000Z</time>
      </trkpt>
      <trkpt lat="45.30283" lon="5.63671">
        <ele>376</ele>
        <time>2016-03-30T13:28:27.000Z</time>
      </trkpt>
      <trkpt lat="45.30291" lon="5.63684">
        <ele>374</ele>
        <time>2016-03-30T13:28:28.000Z</time>
      </trkpt>
      <trkpt lat="45.30298" lon="5.637">
        <ele>373</ele>
        <time>2016-03-30T13:28:29.000Z</time>
      </trkpt>
      <trkpt lat="45.30306" lon="5.63709">
        <ele>373</ele>
        <time>2016-03-30T13:28:30.000Z</time>
      </trkpt>
      <trkpt lat="45.30313" lon="5.63723">
        <ele>372</ele>
        <time>2016-03-30T13:28:31.000Z</time>
      </trkpt>
      <trkpt lat="45.30316" lon="5.63738">
        <ele>371</ele>
        <time>2016-03-30T13:28:32.000Z</time>
      </trkpt>
      <trkpt lat="45.30319" lon="5.63755">
        <ele>369</ele>
        <time>2016-03-30T13:28:33.000Z</time>
      </trkpt>
      <trkpt lat="45.30323" lon="5.63773">
        <ele>368</ele>
        <time>2016-03-30T13:28:34.000Z</time>
      </trkpt>
      <trkpt lat="45.30325" lon="5.63792">
        <ele>368</ele>
        <time>2016-03-30T13:28:35.000Z</time>
      </trkpt>
      <trkpt lat="45.3032" lon="5.63811">
        <ele>366</ele>
        <time>2016-03-30T13:28:36.000Z</time>
      </trkpt>
      <trkpt lat="45.30321" lon="5.63824">
        <ele>366</ele>
        <time>2016-03-30T13:28:37.000Z</time>
      </trkpt>
      <trkpt lat="45.30324" lon="5.63841">
        <ele>366</ele>
        <time>2016-03-30T13:28:38.000Z</time>
      </trkpt>
      <trkpt lat="45.30324" lon="5.63856">
        <ele>365</ele>
        <time>2016-03-30T13:28:39.000Z</time>
      </trkpt>
      <trkpt lat="45.30327" lon="5.63871">
        <ele>364</ele>
        <time>2016-03-30T13:28:40.000Z</time>
      </trkpt>
      <trkpt lat="45.30332" lon="5.63883">
        <ele>363</ele>
        <time>2016-03-30T13:28:41.000Z</time>
      </trkpt>
      <trkpt lat="45.30338" lon="5.63898">
        <ele>362</ele>
        <time>2016-03-30T13:28:42.000Z</time>
      </trkpt>
      <trkpt lat="45.30349" lon="5.63897">
        <ele>361</ele>
        <time>2016-03-30T13:28:43.000Z</time>
      </trkpt>
      <trkpt lat="45.30362" lon="5.63888">
        <ele>361</ele>
        <time>2016-03-30T13:28:44.000Z</time>
      </trkpt>
      <trkpt lat="45.3037" lon="5.63903">
        <ele>359</ele>
        <time>2016-03-30T13:28:46.000Z</time>
      </trkpt>
      <trkpt lat="45.30362" lon="5.63915">
        <ele>359</ele>
        <time>2016-03-30T13:28:48.000Z</time>
      </trkpt>
      <trkpt lat="45.30352" lon="5.63915">
        <ele>357</ele>
        <time>2016-03-30T13:28:49.000Z</time>
      </trkpt>
      <trkpt lat="45.30335" lon="5.63912">
        <ele>354</ele>
        <time>2016-03-30T13:28:51.000Z</time>
      </trkpt>
      <trkpt lat="45.30325" lon="5.63904">
        <ele>351</ele>
        <time>2016-03-30T13:28:52.000Z</time>
      </trkpt>
      <trkpt lat="45.30311" lon="5.63894">
        <ele>349</ele>
        <time>2016-03-30T13:28:53.000Z</time>
      </trkpt>
      <trkpt lat="45.30296" lon="5.63884">
        <ele>349</ele>
        <time>2016-03-30T13:28:54.000Z</time>
      </trkpt>
      <trkpt lat="45.30282" lon="5.63876">
        <ele>348</ele>
        <time>2016-03-30T13:28:55.000Z</time>
      </trkpt>
      <trkpt lat="45.30269" lon="5.63869">
        <ele>347</ele>
        <time>2016-03-30T13:28:56.000Z</time>
      </trkpt>
      <trkpt lat="45.30254" lon="5.63862">
        <ele>345</ele>
        <time>2016-03-30T13:28:57.000Z</time>
      </trkpt>
      <trkpt lat="45.3024" lon="5.63855">
        <ele>344</ele>
        <time>2016-03-30T13:28:58.000Z</time>
      </trkpt>
      <trkpt lat="45.30226" lon="5.63848">
        <ele>342</ele>
        <time>2016-03-30T13:28:59.000Z</time>
      </trkpt>
      <trkpt lat="45.30211" lon="5.6384">
        <ele>340</ele>
        <time>2016-03-30T13:29:00.000Z</time>
      </trkpt>
      <trkpt lat="45.30196" lon="5.63834">
        <ele>340</ele>
        <time>2016-03-30T13:29:01.000Z</time>
      </trkpt>
      <trkpt lat="45.30184" lon="5.63829">
        <ele>337</ele>
        <time>2016-03-30T13:29:02.000Z</time>
      </trkpt>
      <trkpt lat="45.30169" lon="5.63826">
        <ele>335</ele>
        <time>2016-03-30T13:29:03.000Z</time>
      </trkpt>
      <trkpt lat="45.30154" lon="5.63823">
        <ele>335</ele>
        <time>2016-03-30T13:29:04.000Z</time>
      </trkpt>
      <trkpt lat="45.30139" lon="5.6382">
        <ele>334</ele>
        <time>2016-03-30T13:29:05.000Z</time>
      </trkpt>
      <trkpt lat="45.30122" lon="5.63818">
        <ele>332</ele>
        <time>2016-03-30T13:29:06.000Z</time>
      </trkpt>
      <trkpt lat="45.30106" lon="5.63816">
        <ele>331</ele>
        <time>2016-03-30T13:29:07.000Z</time>
      </trkpt>
      <trkpt lat="45.3009" lon="5.63813">
        <ele>328</ele>
        <time>2016-03-30T13:29:08.000Z</time>
      </trkpt>
      <trkpt lat="45.30076" lon="5.6381">
        <ele>327</ele>
        <time>2016-03-30T13:29:09.000Z</time>
      </trkpt>
      <trkpt lat="45.30061" lon="5.63806">
        <ele>326</ele>
        <time>2016-03-30T13:29:10.000Z</time>
      </trkpt>
      <trkpt lat="45.30047" lon="5.63803">
        <ele>326</ele>
        <time>2016-03-30T13:29:11.000Z</time>
      </trkpt>
      <trkpt lat="45.30033" lon="5.638">
        <ele>326</ele>
        <time>2016-03-30T13:29:12.000Z</time>
      </trkpt>
      <trkpt lat="45.30019" lon="5.638">
        <ele>325</ele>
        <time>2016-03-30T13:29:13.000Z</time>
      </trkpt>
      <trkpt lat="45.30005" lon="5.638">
        <ele>326</ele>
        <time>2016-03-30T13:29:14.000Z</time>
      </trkpt>
      <trkpt lat="45.29992" lon="5.63802">
        <ele>326</ele>
        <time>2016-03-30T13:29:15.000Z</time>
      </trkpt>
      <trkpt lat="45.29982" lon="5.63805">
        <ele>324</ele>
        <time>2016-03-30T13:29:16.000Z</time>
      </trkpt>
      <trkpt lat="45.29961" lon="5.63809">
        <ele>323</ele>
        <time>2016-03-30T13:29:18.000Z</time>
      </trkpt>
      <trkpt lat="45.29949" lon="5.63807">
        <ele>322</ele>
        <time>2016-03-30T13:29:19.000Z</time>
      </trkpt>
      <trkpt lat="45.2994" lon="5.63804">
        <ele>323</ele>
        <time>2016-03-30T13:29:20.000Z</time>
      </trkpt>
      <trkpt lat="45.2993" lon="5.63803">
        <ele>321</ele>
        <time>2016-03-30T13:29:21.000Z</time>
      </trkpt>
      <trkpt lat="45.2992" lon="5.63802">
        <ele>320</ele>
        <time>2016-03-30T13:29:22.000Z</time>
      </trkpt>
      <trkpt lat="45.2991" lon="5.63799">
        <ele>318</ele>
        <time>2016-03-30T13:29:23.000Z</time>
      </trkpt>
      <trkpt lat="45.29901" lon="5.63795">
        <ele>317</ele>
        <time>2016-03-30T13:29:24.000Z</time>
      </trkpt>
      <trkpt lat="45.29892" lon="5.63791">
        <ele>315</ele>
        <time>2016-03-30T13:29:25.000Z</time>
      </trkpt>
      <trkpt lat="45.29879" lon="5.63778">
        <ele>312</ele>
        <time>2016-03-30T13:29:27.000Z</time>
      </trkpt>
      <trkpt lat="45.2987" lon="5.63765">
        <ele>312</ele>
        <time>2016-03-30T13:29:29.000Z</time>
      </trkpt>
      <trkpt lat="45.29861" lon="5.63749">
        <ele>312</ele>
        <time>2016-03-30T13:29:32.000Z</time>
      </trkpt>
      <trkpt lat="45.29852" lon="5.63734">
        <ele>312</ele>
        <time>2016-03-30T13:29:34.000Z</time>
      </trkpt>
      <trkpt lat="45.29844" lon="5.63718">
        <ele>309</ele>
        <time>2016-03-30T13:29:36.000Z</time>
      </trkpt>
      <trkpt lat="45.29834" lon="5.637">
        <ele>309</ele>
        <time>2016-03-30T13:29:38.000Z</time>
      </trkpt>
      <trkpt lat="45.29826" lon="5.63683">
        <ele>307</ele>
        <time>2016-03-30T13:29:40.000Z</time>
      </trkpt>
      <trkpt lat="45.29821" lon="5.6367">
        <ele>306</ele>
        <time>2016-03-30T13:29:42.000Z</time>
      </trkpt>
      <trkpt lat="45.29815" lon="5.63658">
        <ele>306</ele>
        <time>2016-03-30T13:29:44.000Z</time>
      </trkpt>
      <trkpt lat="45.2981" lon="5.63641">
        <ele>306</ele>
        <time>2016-03-30T13:29:46.000Z</time>
      </trkpt>
      <trkpt lat="45.29796" lon="5.63633">
        <ele>305</ele>
        <time>2016-03-30T13:29:49.000Z</time>
      </trkpt>
      <trkpt lat="45.29787" lon="5.63637">
        <ele>304</ele>
        <time>2016-03-30T13:29:51.000Z</time>
      </trkpt>
      <trkpt lat="45.29778" lon="5.63634">
        <ele>304</ele>
        <time>2016-03-30T13:29:53.000Z</time>
      </trkpt>
      <trkpt lat="45.29769" lon="5.63623">
        <ele>302</ele>
        <time>2016-03-30T13:29:55.000Z</time>
      </trkpt>
      <trkpt lat="45.29762" lon="5.63612">
        <ele>301</ele>
        <time>2016-03-30T13:29:56.000Z</time>
      </trkpt>
      <trkpt lat="45.29755" lon="5.636">
        <ele>301</ele>
        <time>2016-03-30T13:29:57.000Z</time>
      </trkpt>
      <trkpt lat="45.29748" lon="5.63589">
        <ele>301</ele>
        <time>2016-03-30T13:29:58.000Z</time>
      </trkpt>
      <trkpt lat="45.29736" lon="5.6357">
        <ele>300</ele>
        <time>2016-03-30T13:30:00.000Z</time>
      </trkpt>
      <trkpt lat="45.29728" lon="5.63561">
        <ele>299</ele>
        <time>2016-03-30T13:30:01.000Z</time>
      </trkpt>
      <trkpt lat="45.29721" lon="5.63551">
        <ele>299</ele>
        <time>2016-03-30T13:30:02.000Z</time>
      </trkpt>
      <trkpt lat="45.29713" lon="5.63543">
        <ele>299</ele>
        <time>2016-03-30T13:30:03.000Z</time>
      </trkpt>
      <trkpt lat="45.29705" lon="5.63534">
        <ele>298</ele>
        <time>2016-03-30T13:30:04.000Z</time>
      </trkpt>
      <trkpt lat="45.29697" lon="5.63526">
        <ele>297</ele>
        <time>2016-03-30T13:30:05.000Z</time>
      </trkpt>
      <trkpt lat="45.29688" lon="5.63514">
        <ele>296</ele>
        <time>2016-03-30T13:30:06.000Z</time>
      </trkpt>
      <trkpt lat="45.29679" lon="5.63503">
        <ele>296</ele>
        <time>2016-03-30T13:30:07.000Z</time>
      </trkpt>
      <trkpt lat="45.29669" lon="5.63493">
        <ele>295</ele>
        <time>2016-03-30T13:30:08.000Z</time>
      </trkpt>
      <trkpt lat="45.29657" lon="5.63483">
        <ele>295</ele>
        <time>2016-03-30T13:30:09.000Z</time>
      </trkpt>
      <trkpt lat="45.29646" lon="5.63475">
        <ele>293</ele>
        <time>2016-03-30T13:30:10.000Z</time>
      </trkpt>
      <trkpt lat="45.29635" lon="5.63467">
        <ele>293</ele>
        <time>2016-03-30T13:30:11.000Z</time>
      </trkpt>
      <trkpt lat="45.29623" lon="5.63459">
        <ele>293</ele>
        <time>2016-03-30T13:30:12.000Z</time>
      </trkpt>
      <trkpt lat="45.29611" lon="5.63451">
        <ele>293</ele>
        <time>2016-03-30T13:30:13.000Z</time>
      </trkpt>
      <trkpt lat="45.29602" lon="5.63442">
        <ele>292</ele>
        <time>2016-03-30T13:30:14.000Z</time>
      </trkpt>
      <trkpt lat="45.29592" lon="5.63435">
        <ele>292</ele>
        <time>2016-03-30T13:30:15.000Z</time>
      </trkpt>
      <trkpt lat="45.29579" lon="5.63429">
        <ele>289</ele>
        <time>2016-03-30T13:30:16.000Z</time>
      </trkpt>
      <trkpt lat="45.29564" lon="5.63415">
        <ele>287</ele>
        <time>2016-03-30T13:30:18.000Z</time>
      </trkpt>
      <trkpt lat="45.29553" lon="5.63407">
        <ele>288</ele>
        <time>2016-03-30T13:30:19.000Z</time>
      </trkpt>
      <trkpt lat="45.29543" lon="5.634">
        <ele>287</ele>
        <time>2016-03-30T13:30:20.000Z</time>
      </trkpt>
      <trkpt lat="45.29533" lon="5.63393">
        <ele>285</ele>
        <time>2016-03-30T13:30:21.000Z</time>
      </trkpt>
      <trkpt lat="45.29525" lon="5.63386">
        <ele>284</ele>
        <time>2016-03-30T13:30:22.000Z</time>
      </trkpt>
      <trkpt lat="45.29513" lon="5.63379">
        <ele>283</ele>
        <time>2016-03-30T13:30:23.000Z</time>
      </trkpt>
      <trkpt lat="45.29503" lon="5.63372">
        <ele>282</ele>
        <time>2016-03-30T13:30:24.000Z</time>
      </trkpt>
      <trkpt lat="45.29493" lon="5.63363">
        <ele>282</ele>
        <time>2016-03-30T13:30:25.000Z</time>
      </trkpt>
      <trkpt lat="45.29483" lon="5.63354">
        <ele>279</ele>
        <time>2016-03-30T13:30:26.000Z</time>
      </trkpt>
      <trkpt lat="45.29473" lon="5.63343">
        <ele>279</ele>
        <time>2016-03-30T13:30:27.000Z</time>
      </trkpt>
      <trkpt lat="45.29463" lon="5.63329">
        <ele>278</ele>
        <time>2016-03-30T13:30:28.000Z</time>
      </trkpt>
      <trkpt lat="45.29454" lon="5.63318">
        <ele>277</ele>
        <time>2016-03-30T13:30:29.000Z</time>
      </trkpt>
      <trkpt lat="45.29446" lon="5.63306">
        <ele>277</ele>
        <time>2016-03-30T13:30:30.000Z</time>
      </trkpt>
      <trkpt lat="45.29437" lon="5.63296">
        <ele>277</ele>
        <time>2016-03-30T13:30:31.000Z</time>
      </trkpt>
      <trkpt lat="45.29428" lon="5.63284">
        <ele>277</ele>
        <time>2016-03-30T13:30:32.000Z</time>
      </trkpt>
      <trkpt lat="45.29419" lon="5.63275">
        <ele>276</ele>
        <time>2016-03-30T13:30:33.000Z</time>
      </trkpt>
      <trkpt lat="45.2941" lon="5.63264">
        <ele>274</ele>
        <time>2016-03-30T13:30:34.000Z</time>
      </trkpt>
      <trkpt lat="45.29398" lon="5.63252">
        <ele>275</ele>
        <time>2016-03-30T13:30:35.000Z</time>
      </trkpt>
      <trkpt lat="45.29388" lon="5.63238">
        <ele>274</ele>
        <time>2016-03-30T13:30:36.000Z</time>
      </trkpt>
      <trkpt lat="45.29379" lon="5.63227">
        <ele>273</ele>
        <time>2016-03-30T13:30:37.000Z</time>
      </trkpt>
      <trkpt lat="45.29371" lon="5.63216">
        <ele>273</ele>
        <time>2016-03-30T13:30:38.000Z</time>
      </trkpt>
      <trkpt lat="45.29363" lon="5.63205">
        <ele>272</ele>
        <time>2016-03-30T13:30:39.000Z</time>
      </trkpt>
      <trkpt lat="45.29355" lon="5.63194">
        <ele>271</ele>
        <time>2016-03-30T13:30:40.000Z</time>
      </trkpt>
      <trkpt lat="45.29347" lon="5.63183">
        <ele>270</ele>
        <time>2016-03-30T13:30:41.000Z</time>
      </trkpt>
      <trkpt lat="45.29339" lon="5.63172">
        <ele>269</ele>
        <time>2016-03-30T13:30:42.000Z</time>
      </trkpt>
      <trkpt lat="45.29332" lon="5.63162">
        <ele>268</ele>
        <time>2016-03-30T13:30:43.000Z</time>
      </trkpt>
      <trkpt lat="45.29326" lon="5.63151">
        <ele>268</ele>
        <time>2016-03-30T13:30:44.000Z</time>
      </trkpt>
      <trkpt lat="45.29314" lon="5.63132">
        <ele>265</ele>
        <time>2016-03-30T13:30:46.000Z</time>
      </trkpt>
      <trkpt lat="45.29306" lon="5.63114">
        <ele>265</ele>
        <time>2016-03-30T13:30:48.000Z</time>
      </trkpt>
      <trkpt lat="45.293" lon="5.63101">
        <ele>265</ele>
        <time>2016-03-30T13:30:51.000Z</time>
      </trkpt>
      <trkpt lat="45.29293" lon="5.63092">
        <ele>264</ele>
        <time>2016-03-30T13:30:53.000Z</time>
      </trkpt>
      <trkpt lat="45.29284" lon="5.63103">
        <ele>263</ele>
        <time>2016-03-30T13:30:55.000Z</time>
      </trkpt>
      <trkpt lat="45.29273" lon="5.63127">
        <ele>263</ele>
        <time>2016-03-30T13:30:57.000Z</time>
      </trkpt>
      <trkpt lat="45.29267" lon="5.6314">
        <ele>264</ele>
        <time>2016-03-30T13:30:58.000Z</time>
      </trkpt>
      <trkpt lat="45.29261" lon="5.63154">
        <ele>265</ele>
        <time>2016-03-30T13:30:59.000Z</time>
      </trkpt>
      <trkpt lat="45.29254" lon="5.63169">
        <ele>264</ele>
        <time>2016-03-30T13:31:00.000Z</time>
      </trkpt>
      <trkpt lat="45.29247" lon="5.63184">
        <ele>263</ele>
        <time>2016-03-30T13:31:01.000Z</time>
      </trkpt>
      <trkpt lat="45.29239" lon="5.632">
        <ele>263</ele>
        <time>2016-03-30T13:31:02.000Z</time>
      </trkpt>
      <trkpt lat="45.29231" lon="5.63216">
        <ele>264</ele>
        <time>2016-03-30T13:31:03.000Z</time>
      </trkpt>
      <trkpt lat="45.29224" lon="5.63232">
        <ele>263</ele>
        <time>2016-03-30T13:31:04.000Z</time>
      </trkpt>
      <trkpt lat="45.29216" lon="5.63247">
        <ele>263</ele>
        <time>2016-03-30T13:31:05.000Z</time>
      </trkpt>
      <trkpt lat="45.29209" lon="5.63262">
        <ele>263</ele>
        <time>2016-03-30T13:31:06.000Z</time>
      </trkpt>
      <trkpt lat="45.29202" lon="5.63277">
        <ele>263</ele>
        <time>2016-03-30T13:31:07.000Z</time>
      </trkpt>
      <trkpt lat="45.29195" lon="5.63292">
        <ele>264</ele>
        <time>2016-03-30T13:31:08.000Z</time>
      </trkpt>
      <trkpt lat="45.29189" lon="5.63305">
        <ele>263</ele>
        <time>2016-03-30T13:31:09.000Z</time>
      </trkpt>
      <trkpt lat="45.29182" lon="5.63318">
        <ele>263</ele>
        <time>2016-03-30T13:31:10.000Z</time>
      </trkpt>
      <trkpt lat="45.29176" lon="5.6333">
        <ele>262</ele>
        <time>2016-03-30T13:31:11.000Z</time>
      </trkpt>
      <trkpt lat="45.2917" lon="5.63343">
        <ele>263</ele>
        <time>2016-03-30T13:31:12.000Z</time>
      </trkpt>
      <trkpt lat="45.29165" lon="5.63356">
        <ele>262</ele>
        <time>2016-03-30T13:31:13.000Z</time>
      </trkpt>
      <trkpt lat="45.29154" lon="5.63377">
        <ele>262</ele>
        <time>2016-03-30T13:31:15.000Z</time>
      </trkpt>
      <trkpt lat="45.29144" lon="5.63397">
        <ele>261</ele>
        <time>2016-03-30T13:31:17.000Z</time>
      </trkpt>
      <trkpt lat="45.29139" lon="5.63408">
        <ele>260</ele>
        <time>2016-03-30T13:31:18.000Z</time>
      </trkpt>
      <trkpt lat="45.29134" lon="5.63419">
        <ele>261</ele>
        <time>2016-03-30T13:31:19.000Z</time>
      </trkpt>
      <trkpt lat="45.29123" lon="5.63438">
        <ele>262</ele>
        <time>2016-03-30T13:31:21.000Z</time>
      </trkpt>
      <trkpt lat="45.29118" lon="5.6345">
        <ele>262</ele>
        <time>2016-03-30T13:31:22.000Z</time>
      </trkpt>
      <trkpt lat="45.29113" lon="5.63461">
        <ele>262</ele>
        <time>2016-03-30T13:31:23.000Z</time>
      </trkpt>
      <trkpt lat="45.29107" lon="5.63472">
        <ele>261</ele>
        <time>2016-03-30T13:31:24.000Z</time>
      </trkpt>
      <trkpt lat="45.29102" lon="5.63483">
        <ele>261</ele>
        <time>2016-03-30T13:31:25.000Z</time>
      </trkpt>
      <trkpt lat="45.29096" lon="5.63496">
        <ele>260</ele>
        <time>2016-03-30T13:31:26.000Z</time>
      </trkpt>
      <trkpt lat="45.29091" lon="5.63508">
        <ele>260</ele>
        <time>2016-03-30T13:31:27.000Z</time>
      </trkpt>
      <trkpt lat="45.29086" lon="5.63522">
        <ele>259</ele>
        <time>2016-03-30T13:31:28.000Z</time>
      </trkpt>
      <trkpt lat="45.29079" lon="5.63534">
        <ele>258</ele>
        <time>2016-03-30T13:31:29.000Z</time>
      </trkpt>
      <trkpt lat="45.29073" lon="5.63547">
        <ele>259</ele>
        <time>2016-03-30T13:31:30.000Z</time>
      </trkpt>
      <trkpt lat="45.29067" lon="5.6356">
        <ele>259</ele>
        <time>2016-03-30T13:31:31.000Z</time>
      </trkpt>
      <trkpt lat="45.29061" lon="5.63573">
        <ele>258</ele>
        <time>2016-03-30T13:31:32.000Z</time>
      </trkpt>
      <trkpt lat="45.29055" lon="5.63586">
        <ele>258</ele>
        <time>2016-03-30T13:31:33.000Z</time>
      </trkpt>
      <trkpt lat="45.29048" lon="5.63599">
        <ele>258</ele>
        <time>2016-03-30T13:31:34.000Z</time>
      </trkpt>
      <trkpt lat="45.29041" lon="5.63614">
        <ele>258</ele>
        <time>2016-03-30T13:31:35.000Z</time>
      </trkpt>
      <trkpt lat="45.29034" lon="5.63629">
        <ele>259</ele>
        <time>2016-03-30T13:31:36.000Z</time>
      </trkpt>
      <trkpt lat="45.29028" lon="5.63643">
        <ele>260</ele>
        <time>2016-03-30T13:31:37.000Z</time>
      </trkpt>
      <trkpt lat="45.2902" lon="5.63658">
        <ele>258</ele>
        <time>2016-03-30T13:31:38.000Z</time>
      </trkpt>
      <trkpt lat="45.29013" lon="5.63673">
        <ele>258</ele>
        <time>2016-03-30T13:31:39.000Z</time>
      </trkpt>
      <trkpt lat="45.29006" lon="5.63689">
        <ele>258</ele>
        <time>2016-03-30T13:31:40.000Z</time>
      </trkpt>
      <trkpt lat="45.28998" lon="5.63706">
        <ele>258</ele>
        <time>2016-03-30T13:31:41.000Z</time>
      </trkpt>
      <trkpt lat="45.2899" lon="5.63723">
        <ele>258</ele>
        <time>2016-03-30T13:31:42.000Z</time>
      </trkpt>
      <trkpt lat="45.28983" lon="5.6374">
        <ele>258</ele>
        <time>2016-03-30T13:31:43.000Z</time>
      </trkpt>
      <trkpt lat="45.28976" lon="5.63755">
        <ele>257</ele>
        <time>2016-03-30T13:31:44.000Z</time>
      </trkpt>
      <trkpt lat="45.28969" lon="5.6377">
        <ele>257</ele>
        <time>2016-03-30T13:31:45.000Z</time>
      </trkpt>
      <trkpt lat="45.28961" lon="5.63785">
        <ele>257</ele>
        <time>2016-03-30T13:31:46.000Z</time>
      </trkpt>
      <trkpt lat="45.28954" lon="5.63801">
        <ele>257</ele>
        <time>2016-03-30T13:31:47.000Z</time>
      </trkpt>
      <trkpt lat="45.28946" lon="5.63819">
        <ele>258</ele>
        <time>2016-03-30T13:31:48.000Z</time>
      </trkpt>
      <trkpt lat="45.28937" lon="5.63835">
        <ele>258</ele>
        <time>2016-03-30T13:31:49.000Z</time>
      </trkpt>
      <trkpt lat="45.28929" lon="5.63854">
        <ele>259</ele>
        <time>2016-03-30T13:31:50.000Z</time>
      </trkpt>
      <trkpt lat="45.28922" lon="5.63871">
        <ele>258</ele>
        <time>2016-03-30T13:31:51.000Z</time>
      </trkpt>
      <trkpt lat="45.28914" lon="5.63888">
        <ele>258</ele>
        <time>2016-03-30T13:31:52.000Z</time>
      </trkpt>
      <trkpt lat="45.28908" lon="5.63904">
        <ele>258</ele>
        <time>2016-03-30T13:31:53.000Z</time>
      </trkpt>
      <trkpt lat="45.28902" lon="5.63919">
        <ele>259</ele>
        <time>2016-03-30T13:31:54.000Z</time>
      </trkpt>
      <trkpt lat="45.28894" lon="5.63934">
        <ele>258</ele>
        <time>2016-03-30T13:31:55.000Z</time>
      </trkpt>
      <trkpt lat="45.28887" lon="5.63948">
        <ele>258</ele>
        <time>2016-03-30T13:31:56.000Z</time>
      </trkpt>
      <trkpt lat="45.28873" lon="5.63975">
        <ele>256</ele>
        <time>2016-03-30T13:31:58.000Z</time>
      </trkpt>
      <trkpt lat="45.28868" lon="5.63987">
        <ele>256</ele>
        <time>2016-03-30T13:31:59.000Z</time>
      </trkpt>
      <trkpt lat="45.28863" lon="5.63999">
        <ele>256</ele>
        <time>2016-03-30T13:32:00.000Z</time>
      </trkpt>
      <trkpt lat="45.28858" lon="5.6401">
        <ele>256</ele>
        <time>2016-03-30T13:32:01.000Z</time>
      </trkpt>
      <trkpt lat="45.28851" lon="5.64024">
        <ele>255</ele>
        <time>2016-03-30T13:32:02.000Z</time>
      </trkpt>
      <trkpt lat="45.28844" lon="5.64037">
        <ele>255</ele>
        <time>2016-03-30T13:32:03.000Z</time>
      </trkpt>
      <trkpt lat="45.28837" lon="5.64051">
        <ele>256</ele>
        <time>2016-03-30T13:32:04.000Z</time>
      </trkpt>
      <trkpt lat="45.28828" lon="5.64068">
        <ele>257</ele>
        <time>2016-03-30T13:32:05.000Z</time>
      </trkpt>
      <trkpt lat="45.2882" lon="5.64086">
        <ele>257</ele>
        <time>2016-03-30T13:32:06.000Z</time>
      </trkpt>
      <trkpt lat="45.28811" lon="5.64104">
        <ele>258</ele>
        <time>2016-03-30T13:32:07.000Z</time>
      </trkpt>
      <trkpt lat="45.28802" lon="5.64121">
        <ele>256</ele>
        <time>2016-03-30T13:32:08.000Z</time>
      </trkpt>
      <trkpt lat="45.28793" lon="5.64139">
        <ele>256</ele>
        <time>2016-03-30T13:32:09.000Z</time>
      </trkpt>
      <trkpt lat="45.28784" lon="5.64154">
        <ele>257</ele>
        <time>2016-03-30T13:32:10.000Z</time>
      </trkpt>
      <trkpt lat="45.28775" lon="5.64169">
        <ele>257</ele>
        <time>2016-03-30T13:32:11.000Z</time>
      </trkpt>
      <trkpt lat="45.28765" lon="5.64183">
        <ele>256</ele>
        <time>2016-03-30T13:32:12.000Z</time>
      </trkpt>
      <trkpt lat="45.28755" lon="5.64197">
        <ele>255</ele>
        <time>2016-03-30T13:32:13.000Z</time>
      </trkpt>
      <trkpt lat="45.28744" lon="5.64211">
        <ele>256</ele>
        <time>2016-03-30T13:32:14.000Z</time>
      </trkpt>
      <trkpt lat="45.28733" lon="5.64224">
        <ele>256</ele>
        <time>2016-03-30T13:32:15.000Z</time>
      </trkpt>
      <trkpt lat="45.28722" lon="5.64239">
        <ele>255</ele>
        <time>2016-03-30T13:32:16.000Z</time>
      </trkpt>
      <trkpt lat="45.28711" lon="5.64251">
        <ele>255</ele>
        <time>2016-03-30T13:32:17.000Z</time>
      </trkpt>
      <trkpt lat="45.28699" lon="5.64262">
        <ele>254</ele>
        <time>2016-03-30T13:32:18.000Z</time>
      </trkpt>
      <trkpt lat="45.28685" lon="5.64273">
        <ele>252</ele>
        <time>2016-03-30T13:32:19.000Z</time>
      </trkpt>
      <trkpt lat="45.28671" lon="5.64284">
        <ele>251</ele>
        <time>2016-03-30T13:32:20.000Z</time>
      </trkpt>
      <trkpt lat="45.28658" lon="5.64296">
        <ele>250</ele>
        <time>2016-03-30T13:32:21.000Z</time>
      </trkpt>
      <trkpt lat="45.28646" lon="5.64307">
        <ele>250</ele>
        <time>2016-03-30T13:32:22.000Z</time>
      </trkpt>
      <trkpt lat="45.2863" lon="5.6431">
        <ele>249</ele>
        <time>2016-03-30T13:32:23.000Z</time>
      </trkpt>
      <trkpt lat="45.28615" lon="5.64319">
        <ele>251</ele>
        <time>2016-03-30T13:32:24.000Z</time>
      </trkpt>
      <trkpt lat="45.28601" lon="5.6433">
        <ele>251</ele>
        <time>2016-03-30T13:32:25.000Z</time>
      </trkpt>
      <trkpt lat="45.28584" lon="5.64341">
        <ele>251</ele>
        <time>2016-03-30T13:32:26.000Z</time>
      </trkpt>
      <trkpt lat="45.28564" lon="5.6435">
        <ele>251</ele>
        <time>2016-03-30T13:32:27.000Z</time>
      </trkpt>
      <trkpt lat="45.28544" lon="5.64364">
        <ele>250</ele>
        <time>2016-03-30T13:32:28.000Z</time>
      </trkpt>
      <trkpt lat="45.28528" lon="5.64373">
        <ele>250</ele>
        <time>2016-03-30T13:32:29.000Z</time>
      </trkpt>
      <trkpt lat="45.28512" lon="5.6438">
        <ele>249</ele>
        <time>2016-03-30T13:32:30.000Z</time>
      </trkpt>
      <trkpt lat="45.28494" lon="5.64393">
        <ele>249</ele>
        <time>2016-03-30T13:32:31.000Z</time>
      </trkpt>
      <trkpt lat="45.28482" lon="5.64401">
        <ele>249</ele>
        <time>2016-03-30T13:32:32.000Z</time>
      </trkpt>
      <trkpt lat="45.28468" lon="5.64408">
        <ele>247</ele>
        <time>2016-03-30T13:32:33.000Z</time>
      </trkpt>
      <trkpt lat="45.28453" lon="5.64418">
        <ele>246</ele>
        <time>2016-03-30T13:32:34.000Z</time>
      </trkpt>
      <trkpt lat="45.28439" lon="5.64426">
        <ele>246</ele>
        <time>2016-03-30T13:32:35.000Z</time>
      </trkpt>
      <trkpt lat="45.2842" lon="5.64434">
        <ele>246</ele>
        <time>2016-03-30T13:32:36.000Z</time>
      </trkpt>
      <trkpt lat="45.284" lon="5.64446">
        <ele>246</ele>
        <time>2016-03-30T13:32:37.000Z</time>
      </trkpt>
      <trkpt lat="45.28382" lon="5.64456">
        <ele>246</ele>
        <time>2016-03-30T13:32:38.000Z</time>
      </trkpt>
      <trkpt lat="45.28366" lon="5.64467">
        <ele>245</ele>
        <time>2016-03-30T13:32:39.000Z</time>
      </trkpt>
      <trkpt lat="45.2835" lon="5.64477">
        <ele>246</ele>
        <time>2016-03-30T13:32:40.000Z</time>
      </trkpt>
      <trkpt lat="45.28336" lon="5.64484">
        <ele>245</ele>
        <time>2016-03-30T13:32:41.000Z</time>
      </trkpt>
      <trkpt lat="45.2832" lon="5.64496">
        <ele>246</ele>
        <time>2016-03-30T13:32:42.000Z</time>
      </trkpt>
      <trkpt lat="45.28304" lon="5.64506">
        <ele>246</ele>
        <time>2016-03-30T13:32:43.000Z</time>
      </trkpt>
      <trkpt lat="45.28291" lon="5.64515">
        <ele>247</ele>
        <time>2016-03-30T13:32:44.000Z</time>
      </trkpt>
      <trkpt lat="45.28277" lon="5.64524">
        <ele>248</ele>
        <time>2016-03-30T13:32:45.000Z</time>
      </trkpt>
      <trkpt lat="45.28264" lon="5.64532">
        <ele>248</ele>
        <time>2016-03-30T13:32:46.000Z</time>
      </trkpt>
      <trkpt lat="45.28252" lon="5.64539">
        <ele>250</ele>
        <time>2016-03-30T13:32:47.000Z</time>
      </trkpt>
      <trkpt lat="45.28243" lon="5.64543">
        <ele>249</ele>
        <time>2016-03-30T13:32:48.000Z</time>
      </trkpt>
      <trkpt lat="45.28231" lon="5.6455">
        <ele>249</ele>
        <time>2016-03-30T13:32:49.000Z</time>
      </trkpt>
      <trkpt lat="45.28219" lon="5.64556">
        <ele>250</ele>
        <time>2016-03-30T13:32:50.000Z</time>
      </trkpt>
      <trkpt lat="45.28208" lon="5.64563">
        <ele>251</ele>
        <time>2016-03-30T13:32:51.000Z</time>
      </trkpt>
      <trkpt lat="45.28199" lon="5.64569">
        <ele>251</ele>
        <time>2016-03-30T13:32:52.000Z</time>
      </trkpt>
      <trkpt lat="45.28188" lon="5.64575">
        <ele>251</ele>
        <time>2016-03-30T13:32:53.000Z</time>
      </trkpt>
      <trkpt lat="45.28178" lon="5.64582">
        <ele>252</ele>
        <time>2016-03-30T13:32:54.000Z</time>
      </trkpt>
      <trkpt lat="45.28168" lon="5.64588">
        <ele>253</ele>
        <time>2016-03-30T13:32:55.000Z</time>
      </trkpt>
      <trkpt lat="45.28157" lon="5.64593">
        <ele>254</ele>
        <time>2016-03-30T13:32:56.000Z</time>
      </trkpt>
      <trkpt lat="45.28148" lon="5.64599">
        <ele>254</ele>
        <time>2016-03-30T13:32:57.000Z</time>
      </trkpt>
      <trkpt lat="45.28132" lon="5.64608">
        <ele>255</ele>
        <time>2016-03-30T13:32:59.000Z</time>
      </trkpt>
      <trkpt lat="45.28122" lon="5.64613">
        <ele>257</ele>
        <time>2016-03-30T13:33:00.000Z</time>
      </trkpt>
      <trkpt lat="45.28113" lon="5.64618">
        <ele>258</ele>
        <time>2016-03-30T13:33:01.000Z</time>
      </trkpt>
      <trkpt lat="45.28102" lon="5.64624">
        <ele>258</ele>
        <time>2016-03-30T13:33:02.000Z</time>
      </trkpt>
      <trkpt lat="45.28091" lon="5.64631">
        <ele>259</ele>
        <time>2016-03-30T13:33:03.000Z</time>
      </trkpt>
      <trkpt lat="45.2808" lon="5.64638">
        <ele>259</ele>
        <time>2016-03-30T13:33:04.000Z</time>
      </trkpt>
      <trkpt lat="45.2807" lon="5.64644">
        <ele>259</ele>
        <time>2016-03-30T13:33:05.000Z</time>
      </trkpt>
      <trkpt lat="45.2806" lon="5.6465">
        <ele>260</ele>
        <time>2016-03-30T13:33:06.000Z</time>
      </trkpt>
      <trkpt lat="45.2805" lon="5.64655">
        <ele>261</ele>
        <time>2016-03-30T13:33:07.000Z</time>
      </trkpt>
      <trkpt lat="45.2804" lon="5.6466">
        <ele>261</ele>
        <time>2016-03-30T13:33:08.000Z</time>
      </trkpt>
      <trkpt lat="45.2803" lon="5.64666">
        <ele>261</ele>
        <time>2016-03-30T13:33:09.000Z</time>
      </trkpt>
      <trkpt lat="45.2802" lon="5.64674">
        <ele>261</ele>
        <time>2016-03-30T13:33:10.000Z</time>
      </trkpt>
      <trkpt lat="45.28008" lon="5.64681">
        <ele>262</ele>
        <time>2016-03-30T13:33:11.000Z</time>
      </trkpt>
      <trkpt lat="45.27996" lon="5.64686">
        <ele>261</ele>
        <time>2016-03-30T13:33:12.000Z</time>
      </trkpt>
      <trkpt lat="45.27985" lon="5.64692">
        <ele>260</ele>
        <time>2016-03-30T13:33:13.000Z</time>
      </trkpt>
      <trkpt lat="45.27975" lon="5.64697">
        <ele>260</ele>
        <time>2016-03-30T13:33:14.000Z</time>
      </trkpt>
      <trkpt lat="45.27963" lon="5.64704">
        <ele>260</ele>
        <time>2016-03-30T13:33:15.000Z</time>
      </trkpt>
      <trkpt lat="45.2795" lon="5.64709">
        <ele>261</ele>
        <time>2016-03-30T13:33:16.000Z</time>
      </trkpt>
      <trkpt lat="45.27938" lon="5.64717">
        <ele>260</ele>
        <time>2016-03-30T13:33:17.000Z</time>
      </trkpt>
      <trkpt lat="45.2793" lon="5.64722">
        <ele>261</ele>
        <time>2016-03-30T13:33:18.000Z</time>
      </trkpt>
      <trkpt lat="45.27921" lon="5.64731">
        <ele>261</ele>
        <time>2016-03-30T13:33:19.000Z</time>
      </trkpt>
      <trkpt lat="45.27911" lon="5.64741">
        <ele>262</ele>
        <time>2016-03-30T13:33:20.000Z</time>
      </trkpt>
      <trkpt lat="45.27901" lon="5.64747">
        <ele>263</ele>
        <time>2016-03-30T13:33:21.000Z</time>
      </trkpt>
      <trkpt lat="45.2789" lon="5.64753">
        <ele>264</ele>
        <time>2016-03-30T13:33:22.000Z</time>
      </trkpt>
      <trkpt lat="45.2788" lon="5.64758">
        <ele>263</ele>
        <time>2016-03-30T13:33:23.000Z</time>
      </trkpt>
      <trkpt lat="45.27871" lon="5.64765">
        <ele>263</ele>
        <time>2016-03-30T13:33:24.000Z</time>
      </trkpt>
      <trkpt lat="45.27853" lon="5.64775">
        <ele>264</ele>
        <time>2016-03-30T13:33:26.000Z</time>
      </trkpt>
      <trkpt lat="45.27839" lon="5.64783">
        <ele>265</ele>
        <time>2016-03-30T13:33:28.000Z</time>
      </trkpt>
      <trkpt lat="45.27828" lon="5.64789">
        <ele>264</ele>
        <time>2016-03-30T13:33:30.000Z</time>
      </trkpt>
      <trkpt lat="45.27818" lon="5.64794">
        <ele>264</ele>
        <time>2016-03-30T13:33:32.000Z</time>
      </trkpt>
      <trkpt lat="45.27807" lon="5.648">
        <ele>265</ele>
        <time>2016-03-30T13:33:34.000Z</time>
      </trkpt>
      <trkpt lat="45.27796" lon="5.64806">
        <ele>264</ele>
        <time>2016-03-30T13:33:36.000Z</time>
      </trkpt>
      <trkpt lat="45.27782" lon="5.64815">
        <ele>264</ele>
        <time>2016-03-30T13:33:38.000Z</time>
      </trkpt>
      <trkpt lat="45.27767" lon="5.64823">
        <ele>263</ele>
        <time>2016-03-30T13:33:40.000Z</time>
      </trkpt>
      <trkpt lat="45.27758" lon="5.64829">
        <ele>263</ele>
        <time>2016-03-30T13:33:41.000Z</time>
      </trkpt>
      <trkpt lat="45.27749" lon="5.64834">
        <ele>264</ele>
        <time>2016-03-30T13:33:42.000Z</time>
      </trkpt>
      <trkpt lat="45.27739" lon="5.64838">
        <ele>263</ele>
        <time>2016-03-30T13:33:43.000Z</time>
      </trkpt>
      <trkpt lat="45.27729" lon="5.64844">
        <ele>263</ele>
        <time>2016-03-30T13:33:44.000Z</time>
      </trkpt>
      <trkpt lat="45.27719" lon="5.6485">
        <ele>263</ele>
        <time>2016-03-30T13:33:45.000Z</time>
      </trkpt>
      <trkpt lat="45.27709" lon="5.64856">
        <ele>263</ele>
        <time>2016-03-30T13:33:46.000Z</time>
      </trkpt>
      <trkpt lat="45.27699" lon="5.64862">
        <ele>263</ele>
        <time>2016-03-30T13:33:47.000Z</time>
      </trkpt>
      <trkpt lat="45.27688" lon="5.64868">
        <ele>262</ele>
        <time>2016-03-30T13:33:48.000Z</time>
      </trkpt>
      <trkpt lat="45.27677" lon="5.64876">
        <ele>262</ele>
        <time>2016-03-30T13:33:49.000Z</time>
      </trkpt>
      <trkpt lat="45.27665" lon="5.64883">
        <ele>261</ele>
        <time>2016-03-30T13:33:50.000Z</time>
      </trkpt>
      <trkpt lat="45.27654" lon="5.64889">
        <ele>261</ele>
        <time>2016-03-30T13:33:51.000Z</time>
      </trkpt>
      <trkpt lat="45.27642" lon="5.64896">
        <ele>259</ele>
        <time>2016-03-30T13:33:52.000Z</time>
      </trkpt>
      <trkpt lat="45.2763" lon="5.64904">
        <ele>258</ele>
        <time>2016-03-30T13:33:53.000Z</time>
      </trkpt>
      <trkpt lat="45.27615" lon="5.64913">
        <ele>258</ele>
        <time>2016-03-30T13:33:54.000Z</time>
      </trkpt>
      <trkpt lat="45.27603" lon="5.6492">
        <ele>257</ele>
        <time>2016-03-30T13:33:55.000Z</time>
      </trkpt>
      <trkpt lat="45.27589" lon="5.64928">
        <ele>257</ele>
        <time>2016-03-30T13:33:56.000Z</time>
      </trkpt>
      <trkpt lat="45.27575" lon="5.64937">
        <ele>256</ele>
        <time>2016-03-30T13:33:57.000Z</time>
      </trkpt>
      <trkpt lat="45.27562" lon="5.64944">
        <ele>255</ele>
        <time>2016-03-30T13:33:58.000Z</time>
      </trkpt>
      <trkpt lat="45.2755" lon="5.64952">
        <ele>254</ele>
        <time>2016-03-30T13:33:59.000Z</time>
      </trkpt>
      <trkpt lat="45.27538" lon="5.6496">
        <ele>254</ele>
        <time>2016-03-30T13:34:00.000Z</time>
      </trkpt>
      <trkpt lat="45.27526" lon="5.64966">
        <ele>253</ele>
        <time>2016-03-30T13:34:01.000Z</time>
      </trkpt>
      <trkpt lat="45.27514" lon="5.64972">
        <ele>253</ele>
        <time>2016-03-30T13:34:02.000Z</time>
      </trkpt>
      <trkpt lat="45.27499" lon="5.64979">
        <ele>252</ele>
        <time>2016-03-30T13:34:03.000Z</time>
      </trkpt>
      <trkpt lat="45.27488" lon="5.64986">
        <ele>252</ele>
        <time>2016-03-30T13:34:04.000Z</time>
      </trkpt>
      <trkpt lat="45.27478" lon="5.64992">
        <ele>251</ele>
        <time>2016-03-30T13:34:05.000Z</time>
      </trkpt>
      <trkpt lat="45.27467" lon="5.64998">
        <ele>252</ele>
        <time>2016-03-30T13:34:06.000Z</time>
      </trkpt>
      <trkpt lat="45.27456" lon="5.65005">
        <ele>252</ele>
        <time>2016-03-30T13:34:07.000Z</time>
      </trkpt>
      <trkpt lat="45.27444" lon="5.65013">
        <ele>252</ele>
        <time>2016-03-30T13:34:08.000Z</time>
      </trkpt>
      <trkpt lat="45.27432" lon="5.6502">
        <ele>252</ele>
        <time>2016-03-30T13:34:09.000Z</time>
      </trkpt>
      <trkpt lat="45.27419" lon="5.65027">
        <ele>251</ele>
        <time>2016-03-30T13:34:10.000Z</time>
      </trkpt>
      <trkpt lat="45.27407" lon="5.65034">
        <ele>251</ele>
        <time>2016-03-30T13:34:11.000Z</time>
      </trkpt>
      <trkpt lat="45.27396" lon="5.6504">
        <ele>251</ele>
        <time>2016-03-30T13:34:12.000Z</time>
      </trkpt>
      <trkpt lat="45.27386" lon="5.65045">
        <ele>251</ele>
        <time>2016-03-30T13:34:13.000Z</time>
      </trkpt>
      <trkpt lat="45.27375" lon="5.65051">
        <ele>251</ele>
        <time>2016-03-30T13:34:14.000Z</time>
      </trkpt>
      <trkpt lat="45.27363" lon="5.65057">
        <ele>250</ele>
        <time>2016-03-30T13:34:15.000Z</time>
      </trkpt>
      <trkpt lat="45.27352" lon="5.65063">
        <ele>250</ele>
        <time>2016-03-30T13:34:16.000Z</time>
      </trkpt>
      <trkpt lat="45.2734" lon="5.65069">
        <ele>250</ele>
        <time>2016-03-30T13:34:17.000Z</time>
      </trkpt>
      <trkpt lat="45.27329" lon="5.65075">
        <ele>250</ele>
        <time>2016-03-30T13:34:18.000Z</time>
      </trkpt>
      <trkpt lat="45.27316" lon="5.65083">
        <ele>250</ele>
        <time>2016-03-30T13:34:19.000Z</time>
      </trkpt>
      <trkpt lat="45.27304" lon="5.6509">
        <ele>249</ele>
        <time>2016-03-30T13:34:20.000Z</time>
      </trkpt>
      <trkpt lat="45.27292" lon="5.65096">
        <ele>249</ele>
        <time>2016-03-30T13:34:21.000Z</time>
      </trkpt>
      <trkpt lat="45.27281" lon="5.65103">
        <ele>250</ele>
        <time>2016-03-30T13:34:22.000Z</time>
      </trkpt>
      <trkpt lat="45.27271" lon="5.65111">
        <ele>250</ele>
        <time>2016-03-30T13:34:23.000Z</time>
      </trkpt>
      <trkpt lat="45.27261" lon="5.65117">
        <ele>249</ele>
        <time>2016-03-30T13:34:24.000Z</time>
      </trkpt>
      <trkpt lat="45.2725" lon="5.65124">
        <ele>250</ele>
        <time>2016-03-30T13:34:25.000Z</time>
      </trkpt>
      <trkpt lat="45.27239" lon="5.6513">
        <ele>250</ele>
        <time>2016-03-30T13:34:26.000Z</time>
      </trkpt>
      <trkpt lat="45.27226" lon="5.65137">
        <ele>251</ele>
        <time>2016-03-30T13:34:27.000Z</time>
      </trkpt>
      <trkpt lat="45.27214" lon="5.65142">
        <ele>250</ele>
        <time>2016-03-30T13:34:28.000Z</time>
      </trkpt>
      <trkpt lat="45.27202" lon="5.65148">
        <ele>249</ele>
        <time>2016-03-30T13:34:29.000Z</time>
      </trkpt>
      <trkpt lat="45.27188" lon="5.65154">
        <ele>249</ele>
        <time>2016-03-30T13:34:30.000Z</time>
      </trkpt>
      <trkpt lat="45.27175" lon="5.65161">
        <ele>247</ele>
        <time>2016-03-30T13:34:31.000Z</time>
      </trkpt>
      <trkpt lat="45.27163" lon="5.65167">
        <ele>246</ele>
        <time>2016-03-30T13:34:32.000Z</time>
      </trkpt>
      <trkpt lat="45.2715" lon="5.65175">
        <ele>246</ele>
        <time>2016-03-30T13:34:33.000Z</time>
      </trkpt>
      <trkpt lat="45.27138" lon="5.65183">
        <ele>247</ele>
        <time>2016-03-30T13:34:34.000Z</time>
      </trkpt>
      <trkpt lat="45.27128" lon="5.65192">
        <ele>246</ele>
        <time>2016-03-30T13:34:35.000Z</time>
      </trkpt>
      <trkpt lat="45.27115" lon="5.65201">
        <ele>247</ele>
        <time>2016-03-30T13:34:36.000Z</time>
      </trkpt>
      <trkpt lat="45.271" lon="5.6521">
        <ele>247</ele>
        <time>2016-03-30T13:34:37.000Z</time>
      </trkpt>
      <trkpt lat="45.27084" lon="5.65217">
        <ele>248</ele>
        <time>2016-03-30T13:34:38.000Z</time>
      </trkpt>
      <trkpt lat="45.27071" lon="5.65227">
        <ele>248</ele>
        <time>2016-03-30T13:34:39.000Z</time>
      </trkpt>
      <trkpt lat="45.27054" lon="5.65237">
        <ele>249</ele>
        <time>2016-03-30T13:34:40.000Z</time>
      </trkpt>
      <trkpt lat="45.27038" lon="5.65245">
        <ele>250</ele>
        <time>2016-03-30T13:34:41.000Z</time>
      </trkpt>
      <trkpt lat="45.27023" lon="5.65254">
        <ele>250</ele>
        <time>2016-03-30T13:34:42.000Z</time>
      </trkpt>
      <trkpt lat="45.27008" lon="5.65262">
        <ele>250</ele>
        <time>2016-03-30T13:34:43.000Z</time>
      </trkpt>
      <trkpt lat="45.26992" lon="5.65271">
        <ele>249</ele>
        <time>2016-03-30T13:34:44.000Z</time>
      </trkpt>
      <trkpt lat="45.26976" lon="5.65281">
        <ele>249</ele>
        <time>2016-03-30T13:34:45.000Z</time>
      </trkpt>
      <trkpt lat="45.2696" lon="5.65289">
        <ele>249</ele>
        <time>2016-03-30T13:34:46.000Z</time>
      </trkpt>
      <trkpt lat="45.26946" lon="5.65297">
        <ele>247</ele>
        <time>2016-03-30T13:34:47.000Z</time>
      </trkpt>
      <trkpt lat="45.26932" lon="5.65306">
        <ele>248</ele>
        <time>2016-03-30T13:34:48.000Z</time>
      </trkpt>
      <trkpt lat="45.26917" lon="5.65316">
        <ele>249</ele>
        <time>2016-03-30T13:34:49.000Z</time>
      </trkpt>
      <trkpt lat="45.26902" lon="5.65324">
        <ele>249</ele>
        <time>2016-03-30T13:34:50.000Z</time>
      </trkpt>
      <trkpt lat="45.26887" lon="5.65334">
        <ele>249</ele>
        <time>2016-03-30T13:34:51.000Z</time>
      </trkpt>
      <trkpt lat="45.26872" lon="5.65341">
        <ele>247</ele>
        <time>2016-03-30T13:34:52.000Z</time>
      </trkpt>
      <trkpt lat="45.26857" lon="5.6535">
        <ele>247</ele>
        <time>2016-03-30T13:34:53.000Z</time>
      </trkpt>
      <trkpt lat="45.26844" lon="5.65358">
        <ele>246</ele>
        <time>2016-03-30T13:34:54.000Z</time>
      </trkpt>
      <trkpt lat="45.2683" lon="5.65366">
        <ele>246</ele>
        <time>2016-03-30T13:34:55.000Z</time>
      </trkpt>
      <trkpt lat="45.26818" lon="5.65372">
        <ele>246</ele>
        <time>2016-03-30T13:34:56.000Z</time>
      </trkpt>
      <trkpt lat="45.26805" lon="5.6538">
        <ele>247</ele>
        <time>2016-03-30T13:34:57.000Z</time>
      </trkpt>
      <trkpt lat="45.26791" lon="5.65387">
        <ele>247</ele>
        <time>2016-03-30T13:34:58.000Z</time>
      </trkpt>
      <trkpt lat="45.26777" lon="5.65396">
        <ele>246</ele>
        <time>2016-03-30T13:34:59.000Z</time>
      </trkpt>
      <trkpt lat="45.26763" lon="5.65403">
        <ele>246</ele>
        <time>2016-03-30T13:35:00.000Z</time>
      </trkpt>
      <trkpt lat="45.26749" lon="5.65412">
        <ele>246</ele>
        <time>2016-03-30T13:35:01.000Z</time>
      </trkpt>
      <trkpt lat="45.26735" lon="5.6542">
        <ele>245</ele>
        <time>2016-03-30T13:35:02.000Z</time>
      </trkpt>
      <trkpt lat="45.26723" lon="5.65427">
        <ele>246</ele>
        <time>2016-03-30T13:35:03.000Z</time>
      </trkpt>
      <trkpt lat="45.2671" lon="5.65434">
        <ele>246</ele>
        <time>2016-03-30T13:35:04.000Z</time>
      </trkpt>
      <trkpt lat="45.26696" lon="5.65442">
        <ele>247</ele>
        <time>2016-03-30T13:35:05.000Z</time>
      </trkpt>
      <trkpt lat="45.26683" lon="5.65451">
        <ele>246</ele>
        <time>2016-03-30T13:35:06.000Z</time>
      </trkpt>
      <trkpt lat="45.26669" lon="5.65459">
        <ele>247</ele>
        <time>2016-03-30T13:35:07.000Z</time>
      </trkpt>
      <trkpt lat="45.26653" lon="5.65468">
        <ele>245</ele>
        <time>2016-03-30T13:35:08.000Z</time>
      </trkpt>
      <trkpt lat="45.26637" lon="5.65476">
        <ele>244</ele>
        <time>2016-03-30T13:35:09.000Z</time>
      </trkpt>
      <trkpt lat="45.26623" lon="5.65484">
        <ele>244</ele>
        <time>2016-03-30T13:35:10.000Z</time>
      </trkpt>
      <trkpt lat="45.26609" lon="5.65493">
        <ele>243</ele>
        <time>2016-03-30T13:35:11.000Z</time>
      </trkpt>
      <trkpt lat="45.26595" lon="5.65501">
        <ele>243</ele>
        <time>2016-03-30T13:35:12.000Z</time>
      </trkpt>
      <trkpt lat="45.26583" lon="5.65506">
        <ele>243</ele>
        <time>2016-03-30T13:35:13.000Z</time>
      </trkpt>
      <trkpt lat="45.26568" lon="5.65514">
        <ele>243</ele>
        <time>2016-03-30T13:35:14.000Z</time>
      </trkpt>
      <trkpt lat="45.26553" lon="5.65523">
        <ele>242</ele>
        <time>2016-03-30T13:35:15.000Z</time>
      </trkpt>
      <trkpt lat="45.26539" lon="5.65532">
        <ele>241</ele>
        <time>2016-03-30T13:35:16.000Z</time>
      </trkpt>
      <trkpt lat="45.26526" lon="5.6554">
        <ele>242</ele>
        <time>2016-03-30T13:35:17.000Z</time>
      </trkpt>
      <trkpt lat="45.26513" lon="5.65547">
        <ele>243</ele>
        <time>2016-03-30T13:35:18.000Z</time>
      </trkpt>
      <trkpt lat="45.26499" lon="5.65556">
        <ele>243</ele>
        <time>2016-03-30T13:35:19.000Z</time>
      </trkpt>
      <trkpt lat="45.26491" lon="5.65563">
        <ele>243</ele>
        <time>2016-03-30T13:35:20.000Z</time>
      </trkpt>
      <trkpt lat="45.2648" lon="5.65571">
        <ele>243</ele>
        <time>2016-03-30T13:35:21.000Z</time>
      </trkpt>
      <trkpt lat="45.26471" lon="5.65575">
        <ele>243</ele>
        <time>2016-03-30T13:35:22.000Z</time>
      </trkpt>
      <trkpt lat="45.26447" lon="5.65583">
        <ele>242</ele>
        <time>2016-03-30T13:35:24.000Z</time>
      </trkpt>
      <trkpt lat="45.26434" lon="5.65588">
        <ele>241</ele>
        <time>2016-03-30T13:35:25.000Z</time>
      </trkpt>
      <trkpt lat="45.26426" lon="5.65596">
        <ele>242</ele>
        <time>2016-03-30T13:35:26.000Z</time>
      </trkpt>
      <trkpt lat="45.26407" lon="5.6561">
        <ele>241</ele>
        <time>2016-03-30T13:35:27.000Z</time>
      </trkpt>
      <trkpt lat="45.26394" lon="5.6562">
        <ele>242</ele>
        <time>2016-03-30T13:35:28.000Z</time>
      </trkpt>
      <trkpt lat="45.2638" lon="5.65624">
        <ele>241</ele>
        <time>2016-03-30T13:35:29.000Z</time>
      </trkpt>
      <trkpt lat="45.26363" lon="5.6563">
        <ele>240</ele>
        <time>2016-03-30T13:35:30.000Z</time>
      </trkpt>
      <trkpt lat="45.26348" lon="5.65637">
        <ele>239</ele>
        <time>2016-03-30T13:35:31.000Z</time>
      </trkpt>
      <trkpt lat="45.26335" lon="5.65647">
        <ele>240</ele>
        <time>2016-03-30T13:35:32.000Z</time>
      </trkpt>
      <trkpt lat="45.26321" lon="5.65651">
        <ele>240</ele>
        <time>2016-03-30T13:35:33.000Z</time>
      </trkpt>
      <trkpt lat="45.26307" lon="5.65666">
        <ele>240</ele>
        <time>2016-03-30T13:35:34.000Z</time>
      </trkpt>
      <trkpt lat="45.26291" lon="5.65673">
        <ele>242</ele>
        <time>2016-03-30T13:35:36.000Z</time>
      </trkpt>
      <trkpt lat="45.26276" lon="5.6568">
        <ele>241</ele>
        <time>2016-03-30T13:35:37.000Z</time>
      </trkpt>
      <trkpt lat="45.2626" lon="5.65688">
        <ele>241</ele>
        <time>2016-03-30T13:35:38.000Z</time>
      </trkpt>
      <trkpt lat="45.26247" lon="5.65696">
        <ele>240</ele>
        <time>2016-03-30T13:35:39.000Z</time>
      </trkpt>
      <trkpt lat="45.26233" lon="5.65705">
        <ele>240</ele>
        <time>2016-03-30T13:35:40.000Z</time>
      </trkpt>
      <trkpt lat="45.2622" lon="5.65713">
        <ele>239</ele>
        <time>2016-03-30T13:35:41.000Z</time>
      </trkpt>
      <trkpt lat="45.26207" lon="5.65721">
        <ele>241</ele>
        <time>2016-03-30T13:35:42.000Z</time>
      </trkpt>
      <trkpt lat="45.26195" lon="5.65729">
        <ele>240</ele>
        <time>2016-03-30T13:35:43.000Z</time>
      </trkpt>
      <trkpt lat="45.26181" lon="5.65737">
        <ele>240</ele>
        <time>2016-03-30T13:35:44.000Z</time>
      </trkpt>
      <trkpt lat="45.26168" lon="5.65744">
        <ele>239</ele>
        <time>2016-03-30T13:35:45.000Z</time>
      </trkpt>
      <trkpt lat="45.26155" lon="5.65753">
        <ele>240</ele>
        <time>2016-03-30T13:35:46.000Z</time>
      </trkpt>
      <trkpt lat="45.2614" lon="5.65762">
        <ele>241</ele>
        <time>2016-03-30T13:35:47.000Z</time>
      </trkpt>
      <trkpt lat="45.26125" lon="5.65771">
        <ele>241</ele>
        <time>2016-03-30T13:35:48.000Z</time>
      </trkpt>
      <trkpt lat="45.2611" lon="5.65779">
        <ele>241</ele>
        <time>2016-03-30T13:35:49.000Z</time>
      </trkpt>
      <trkpt lat="45.26096" lon="5.65787">
        <ele>242</ele>
        <time>2016-03-30T13:35:50.000Z</time>
      </trkpt>
      <trkpt lat="45.26084" lon="5.65795">
        <ele>243</ele>
        <time>2016-03-30T13:35:51.000Z</time>
      </trkpt>
      <trkpt lat="45.26071" lon="5.65802">
        <ele>244</ele>
        <time>2016-03-30T13:35:52.000Z</time>
      </trkpt>
      <trkpt lat="45.26057" lon="5.65811">
        <ele>245</ele>
        <time>2016-03-30T13:35:53.000Z</time>
      </trkpt>
      <trkpt lat="45.26041" lon="5.65819">
        <ele>244</ele>
        <time>2016-03-30T13:35:54.000Z</time>
      </trkpt>
      <trkpt lat="45.26025" lon="5.65827">
        <ele>244</ele>
        <time>2016-03-30T13:35:55.000Z</time>
      </trkpt>
      <trkpt lat="45.26011" lon="5.65836">
        <ele>244</ele>
        <time>2016-03-30T13:35:56.000Z</time>
      </trkpt>
      <trkpt lat="45.25994" lon="5.65845">
        <ele>245</ele>
        <time>2016-03-30T13:35:57.000Z</time>
      </trkpt>
      <trkpt lat="45.25979" lon="5.65854">
        <ele>245</ele>
        <time>2016-03-30T13:35:58.000Z</time>
      </trkpt>
      <trkpt lat="45.25965" lon="5.65863">
        <ele>245</ele>
        <time>2016-03-30T13:35:59.000Z</time>
      </trkpt>
      <trkpt lat="45.25951" lon="5.65869">
        <ele>244</ele>
        <time>2016-03-30T13:36:00.000Z</time>
      </trkpt>
      <trkpt lat="45.25939" lon="5.65876">
        <ele>244</ele>
        <time>2016-03-30T13:36:01.000Z</time>
      </trkpt>
      <trkpt lat="45.25927" lon="5.65881">
        <ele>245</ele>
        <time>2016-03-30T13:36:02.000Z</time>
      </trkpt>
      <trkpt lat="45.25915" lon="5.65889">
        <ele>245</ele>
        <time>2016-03-30T13:36:03.000Z</time>
      </trkpt>
      <trkpt lat="45.25903" lon="5.65896">
        <ele>245</ele>
        <time>2016-03-30T13:36:04.000Z</time>
      </trkpt>
      <trkpt lat="45.25891" lon="5.65903">
        <ele>246</ele>
        <time>2016-03-30T13:36:05.000Z</time>
      </trkpt>
      <trkpt lat="45.25879" lon="5.65912">
        <ele>247</ele>
        <time>2016-03-30T13:36:06.000Z</time>
      </trkpt>
      <trkpt lat="45.25867" lon="5.6592">
        <ele>247</ele>
        <time>2016-03-30T13:36:07.000Z</time>
      </trkpt>
      <trkpt lat="45.25853" lon="5.65927">
        <ele>248</ele>
        <time>2016-03-30T13:36:08.000Z</time>
      </trkpt>
      <trkpt lat="45.2584" lon="5.65936">
        <ele>248</ele>
        <time>2016-03-30T13:36:09.000Z</time>
      </trkpt>
      <trkpt lat="45.25829" lon="5.65945">
        <ele>250</ele>
        <time>2016-03-30T13:36:10.000Z</time>
      </trkpt>
      <trkpt lat="45.25816" lon="5.65953">
        <ele>250</ele>
        <time>2016-03-30T13:36:11.000Z</time>
      </trkpt>
      <trkpt lat="45.25805" lon="5.65961">
        <ele>251</ele>
        <time>2016-03-30T13:36:12.000Z</time>
      </trkpt>
      <trkpt lat="45.25791" lon="5.6597">
        <ele>251</ele>
        <time>2016-03-30T13:36:13.000Z</time>
      </trkpt>
      <trkpt lat="45.25777" lon="5.6598">
        <ele>251</ele>
        <time>2016-03-30T13:36:14.000Z</time>
      </trkpt>
      <trkpt lat="45.25765" lon="5.6599">
        <ele>250</ele>
        <time>2016-03-30T13:36:15.000Z</time>
      </trkpt>
      <trkpt lat="45.25753" lon="5.65998">
        <ele>251</ele>
        <time>2016-03-30T13:36:16.000Z</time>
      </trkpt>
      <trkpt lat="45.25742" lon="5.66005">
        <ele>251</ele>
        <time>2016-03-30T13:36:17.000Z</time>
      </trkpt>
      <trkpt lat="45.25733" lon="5.66012">
        <ele>251</ele>
        <time>2016-03-30T13:36:18.000Z</time>
      </trkpt>
      <trkpt lat="45.25723" lon="5.66018">
        <ele>252</ele>
        <time>2016-03-30T13:36:19.000Z</time>
      </trkpt>
      <trkpt lat="45.25712" lon="5.66025">
        <ele>252</ele>
        <time>2016-03-30T13:36:20.000Z</time>
      </trkpt>
      <trkpt lat="45.25702" lon="5.66032">
        <ele>251</ele>
        <time>2016-03-30T13:36:21.000Z</time>
      </trkpt>
      <trkpt lat="45.25691" lon="5.66039">
        <ele>251</ele>
        <time>2016-03-30T13:36:22.000Z</time>
      </trkpt>
      <trkpt lat="45.25679" lon="5.66046">
        <ele>251</ele>
        <time>2016-03-30T13:36:23.000Z</time>
      </trkpt>
      <trkpt lat="45.25667" lon="5.66053">
        <ele>251</ele>
        <time>2016-03-30T13:36:24.000Z</time>
      </trkpt>
      <trkpt lat="45.25656" lon="5.66059">
        <ele>251</ele>
        <time>2016-03-30T13:36:25.000Z</time>
      </trkpt>
      <trkpt lat="45.25643" lon="5.66066">
        <ele>251</ele>
        <time>2016-03-30T13:36:26.000Z</time>
      </trkpt>
      <trkpt lat="45.25631" lon="5.66072">
        <ele>250</ele>
        <time>2016-03-30T13:36:27.000Z</time>
      </trkpt>
      <trkpt lat="45.25619" lon="5.6608">
        <ele>251</ele>
        <time>2016-03-30T13:36:28.000Z</time>
      </trkpt>
      <trkpt lat="45.25607" lon="5.66088">
        <ele>251</ele>
        <time>2016-03-30T13:36:29.000Z</time>
      </trkpt>
      <trkpt lat="45.25594" lon="5.66097">
        <ele>251</ele>
        <time>2016-03-30T13:36:30.000Z</time>
      </trkpt>
      <trkpt lat="45.25583" lon="5.66104">
        <ele>251</ele>
        <time>2016-03-30T13:36:31.000Z</time>
      </trkpt>
      <trkpt lat="45.25571" lon="5.66111">
        <ele>251</ele>
        <time>2016-03-30T13:36:32.000Z</time>
      </trkpt>
      <trkpt lat="45.25562" lon="5.66117">
        <ele>251</ele>
        <time>2016-03-30T13:36:33.000Z</time>
      </trkpt>
      <trkpt lat="45.25545" lon="5.66126">
        <ele>252</ele>
        <time>2016-03-30T13:36:35.000Z</time>
      </trkpt>
      <trkpt lat="45.25534" lon="5.6613">
        <ele>252</ele>
        <time>2016-03-30T13:36:36.000Z</time>
      </trkpt>
      <trkpt lat="45.25525" lon="5.66134">
        <ele>251</ele>
        <time>2016-03-30T13:36:37.000Z</time>
      </trkpt>
      <trkpt lat="45.25516" lon="5.66139">
        <ele>251</ele>
        <time>2016-03-30T13:36:38.000Z</time>
      </trkpt>
      <trkpt lat="45.25507" lon="5.66144">
        <ele>252</ele>
        <time>2016-03-30T13:36:39.000Z</time>
      </trkpt>
      <trkpt lat="45.25498" lon="5.66149">
        <ele>252</ele>
        <time>2016-03-30T13:36:40.000Z</time>
      </trkpt>
      <trkpt lat="45.25488" lon="5.66155">
        <ele>252</ele>
        <time>2016-03-30T13:36:41.000Z</time>
      </trkpt>
      <trkpt lat="45.25477" lon="5.66162">
        <ele>253</ele>
        <time>2016-03-30T13:36:42.000Z</time>
      </trkpt>
      <trkpt lat="45.25468" lon="5.66168">
        <ele>253</ele>
        <time>2016-03-30T13:36:43.000Z</time>
      </trkpt>
      <trkpt lat="45.25459" lon="5.66174">
        <ele>253</ele>
        <time>2016-03-30T13:36:44.000Z</time>
      </trkpt>
      <trkpt lat="45.25449" lon="5.6618">
        <ele>253</ele>
        <time>2016-03-30T13:36:45.000Z</time>
      </trkpt>
      <trkpt lat="45.25438" lon="5.66188">
        <ele>253</ele>
        <time>2016-03-30T13:36:46.000Z</time>
      </trkpt>
      <trkpt lat="45.25427" lon="5.66197">
        <ele>253</ele>
        <time>2016-03-30T13:36:47.000Z</time>
      </trkpt>
      <trkpt lat="45.25415" lon="5.66206">
        <ele>253</ele>
        <time>2016-03-30T13:36:48.000Z</time>
      </trkpt>
      <trkpt lat="45.25402" lon="5.66215">
        <ele>252</ele>
        <time>2016-03-30T13:36:49.000Z</time>
      </trkpt>
      <trkpt lat="45.25391" lon="5.66222">
        <ele>253</ele>
        <time>2016-03-30T13:36:50.000Z</time>
      </trkpt>
      <trkpt lat="45.25381" lon="5.66228">
        <ele>253</ele>
        <time>2016-03-30T13:36:51.000Z</time>
      </trkpt>
      <trkpt lat="45.2537" lon="5.66234">
        <ele>252</ele>
        <time>2016-03-30T13:36:52.000Z</time>
      </trkpt>
      <trkpt lat="45.25359" lon="5.66241">
        <ele>252</ele>
        <time>2016-03-30T13:36:53.000Z</time>
      </trkpt>
      <trkpt lat="45.25348" lon="5.66249">
        <ele>252</ele>
        <time>2016-03-30T13:36:54.000Z</time>
      </trkpt>
      <trkpt lat="45.25338" lon="5.66253">
        <ele>252</ele>
        <time>2016-03-30T13:36:55.000Z</time>
      </trkpt>
      <trkpt lat="45.25328" lon="5.66258">
        <ele>252</ele>
        <time>2016-03-30T13:36:56.000Z</time>
      </trkpt>
      <trkpt lat="45.25319" lon="5.66265">
        <ele>251</ele>
        <time>2016-03-30T13:36:57.000Z</time>
      </trkpt>
      <trkpt lat="45.25308" lon="5.66274">
        <ele>251</ele>
        <time>2016-03-30T13:36:58.000Z</time>
      </trkpt>
      <trkpt lat="45.25297" lon="5.6628">
        <ele>251</ele>
        <time>2016-03-30T13:36:59.000Z</time>
      </trkpt>
      <trkpt lat="45.25288" lon="5.66287">
        <ele>250</ele>
        <time>2016-03-30T13:37:00.000Z</time>
      </trkpt>
      <trkpt lat="45.25279" lon="5.66293">
        <ele>250</ele>
        <time>2016-03-30T13:37:01.000Z</time>
      </trkpt>
      <trkpt lat="45.25263" lon="5.66302">
        <ele>251</ele>
        <time>2016-03-30T13:37:03.000Z</time>
      </trkpt>
      <trkpt lat="45.25251" lon="5.66311">
        <ele>251</ele>
        <time>2016-03-30T13:37:05.000Z</time>
      </trkpt>
      <trkpt lat="45.25242" lon="5.66319">
        <ele>251</ele>
        <time>2016-03-30T13:37:07.000Z</time>
      </trkpt>
      <trkpt lat="45.25229" lon="5.66326">
        <ele>250</ele>
        <time>2016-03-30T13:37:10.000Z</time>
      </trkpt>
      <trkpt lat="45.25219" lon="5.6633">
        <ele>253</ele>
        <time>2016-03-30T13:37:13.000Z</time>
      </trkpt>
      <trkpt lat="45.25208" lon="5.6634">
        <ele>253</ele>
        <time>2016-03-30T13:37:14.000Z</time>
      </trkpt>
      <trkpt lat="45.25196" lon="5.66347">
        <ele>252</ele>
        <time>2016-03-30T13:37:16.000Z</time>
      </trkpt>
      <trkpt lat="45.25187" lon="5.66351">
        <ele>251</ele>
        <time>2016-03-30T13:37:18.000Z</time>
      </trkpt>
      <trkpt lat="45.25181" lon="5.66363">
        <ele>252</ele>
        <time>2016-03-30T13:37:22.000Z</time>
      </trkpt>
      <trkpt lat="45.25166" lon="5.66376">
        <ele>252</ele>
        <time>2016-03-30T13:37:24.000Z</time>
      </trkpt>
      <trkpt lat="45.25157" lon="5.66383">
        <ele>252</ele>
        <time>2016-03-30T13:37:25.000Z</time>
      </trkpt>
      <trkpt lat="45.25144" lon="5.66395">
        <ele>252</ele>
        <time>2016-03-30T13:37:26.000Z</time>
      </trkpt>
      <trkpt lat="45.25132" lon="5.66406">
        <ele>253</ele>
        <time>2016-03-30T13:37:27.000Z</time>
      </trkpt>
      <trkpt lat="45.25119" lon="5.66418">
        <ele>252</ele>
        <time>2016-03-30T13:37:28.000Z</time>
      </trkpt>
      <trkpt lat="45.25106" lon="5.66429">
        <ele>251</ele>
        <time>2016-03-30T13:37:29.000Z</time>
      </trkpt>
      <trkpt lat="45.25093" lon="5.6644">
        <ele>251</ele>
        <time>2016-03-30T13:37:30.000Z</time>
      </trkpt>
      <trkpt lat="45.25081" lon="5.66451">
        <ele>251</ele>
        <time>2016-03-30T13:37:31.000Z</time>
      </trkpt>
      <trkpt lat="45.25069" lon="5.66461">
        <ele>252</ele>
        <time>2016-03-30T13:37:32.000Z</time>
      </trkpt>
      <trkpt lat="45.25057" lon="5.66473">
        <ele>252</ele>
        <time>2016-03-30T13:37:33.000Z</time>
      </trkpt>
      <trkpt lat="45.25045" lon="5.66483">
        <ele>252</ele>
        <time>2016-03-30T13:37:34.000Z</time>
      </trkpt>
      <trkpt lat="45.25034" lon="5.66493">
        <ele>252</ele>
        <time>2016-03-30T13:37:35.000Z</time>
      </trkpt>
      <trkpt lat="45.25022" lon="5.66503">
        <ele>252</ele>
        <time>2016-03-30T13:37:36.000Z</time>
      </trkpt>
      <trkpt lat="45.25011" lon="5.66512">
        <ele>252</ele>
        <time>2016-03-30T13:37:37.000Z</time>
      </trkpt>
      <trkpt lat="45.24999" lon="5.66521">
        <ele>252</ele>
        <time>2016-03-30T13:37:38.000Z</time>
      </trkpt>
      <trkpt lat="45.24988" lon="5.6653">
        <ele>251</ele>
        <time>2016-03-30T13:37:39.000Z</time>
      </trkpt>
      <trkpt lat="45.24977" lon="5.66541">
        <ele>251</ele>
        <time>2016-03-30T13:37:40.000Z</time>
      </trkpt>
      <trkpt lat="45.24966" lon="5.6655">
        <ele>252</ele>
        <time>2016-03-30T13:37:41.000Z</time>
      </trkpt>
      <trkpt lat="45.24956" lon="5.66557">
        <ele>251</ele>
        <time>2016-03-30T13:37:42.000Z</time>
      </trkpt>
      <trkpt lat="45.24947" lon="5.66565">
        <ele>251</ele>
        <time>2016-03-30T13:37:43.000Z</time>
      </trkpt>
      <trkpt lat="45.24938" lon="5.66571">
        <ele>252</ele>
        <time>2016-03-30T13:37:44.000Z</time>
      </trkpt>
      <trkpt lat="45.24924" lon="5.66582">
        <ele>251</ele>
        <time>2016-03-30T13:37:46.000Z</time>
      </trkpt>
      <trkpt lat="45.24913" lon="5.66589">
        <ele>251</ele>
        <time>2016-03-30T13:37:48.000Z</time>
      </trkpt>
      <trkpt lat="45.24901" lon="5.66597">
        <ele>251</ele>
        <time>2016-03-30T13:37:50.000Z</time>
      </trkpt>
      <trkpt lat="45.24889" lon="5.66604">
        <ele>251</ele>
        <time>2016-03-30T13:37:52.000Z</time>
      </trkpt>
      <trkpt lat="45.24877" lon="5.66612">
        <ele>252</ele>
        <time>2016-03-30T13:37:54.000Z</time>
      </trkpt>
      <trkpt lat="45.24863" lon="5.6662">
        <ele>253</ele>
        <time>2016-03-30T13:37:56.000Z</time>
      </trkpt>
      <trkpt lat="45.24847" lon="5.66631">
        <ele>254</ele>
        <time>2016-03-30T13:37:58.000Z</time>
      </trkpt>
      <trkpt lat="45.24838" lon="5.66637">
        <ele>254</ele>
        <time>2016-03-30T13:37:59.000Z</time>
      </trkpt>
      <trkpt lat="45.2483" lon="5.66643">
        <ele>254</ele>
        <time>2016-03-30T13:38:00.000Z</time>
      </trkpt>
      <trkpt lat="45.24815" lon="5.66652">
        <ele>252</ele>
        <time>2016-03-30T13:38:02.000Z</time>
      </trkpt>
      <trkpt lat="45.24801" lon="5.66663">
        <ele>252</ele>
        <time>2016-03-30T13:38:04.000Z</time>
      </trkpt>
      <trkpt lat="45.24786" lon="5.66674">
        <ele>250</ele>
        <time>2016-03-30T13:38:06.000Z</time>
      </trkpt>
      <trkpt lat="45.2477" lon="5.66685">
        <ele>247</ele>
        <time>2016-03-30T13:38:08.000Z</time>
      </trkpt>
      <trkpt lat="45.24756" lon="5.66695">
        <ele>248</ele>
        <time>2016-03-30T13:38:10.000Z</time>
      </trkpt>
      <trkpt lat="45.24741" lon="5.66706">
        <ele>248</ele>
        <time>2016-03-30T13:38:12.000Z</time>
      </trkpt>
      <trkpt lat="45.24727" lon="5.66715">
        <ele>249</ele>
        <time>2016-03-30T13:38:14.000Z</time>
      </trkpt>
      <trkpt lat="45.24713" lon="5.66723">
        <ele>248</ele>
        <time>2016-03-30T13:38:16.000Z</time>
      </trkpt>
      <trkpt lat="45.24704" lon="5.6673">
        <ele>249</ele>
        <time>2016-03-30T13:38:18.000Z</time>
      </trkpt>
      <trkpt lat="45.24694" lon="5.66737">
        <ele>251</ele>
        <time>2016-03-30T13:38:20.000Z</time>
      </trkpt>
      <trkpt lat="45.24683" lon="5.66745">
        <ele>252</ele>
        <time>2016-03-30T13:38:22.000Z</time>
      </trkpt>
      <trkpt lat="45.24673" lon="5.66751">
        <ele>251</ele>
        <time>2016-03-30T13:38:24.000Z</time>
      </trkpt>
      <trkpt lat="45.24663" lon="5.66758">
        <ele>251</ele>
        <time>2016-03-30T13:38:27.000Z</time>
      </trkpt>
      <trkpt lat="45.24656" lon="5.66766">
        <ele>251</ele>
        <time>2016-03-30T13:38:31.000Z</time>
      </trkpt>
      <trkpt lat="45.24646" lon="5.66774">
        <ele>250</ele>
        <time>2016-03-30T13:38:34.000Z</time>
      </trkpt>
      <trkpt lat="45.24637" lon="5.66781">
        <ele>251</ele>
        <time>2016-03-30T13:38:36.000Z</time>
      </trkpt>
      <trkpt lat="45.24622" lon="5.66794">
        <ele>252</ele>
        <time>2016-03-30T13:38:38.000Z</time>
      </trkpt>
      <trkpt lat="45.24606" lon="5.66807">
        <ele>252</ele>
        <time>2016-03-30T13:38:40.000Z</time>
      </trkpt>
      <trkpt lat="45.24597" lon="5.66814">
        <ele>252</ele>
        <time>2016-03-30T13:38:41.000Z</time>
      </trkpt>
      <trkpt lat="45.24588" lon="5.66821">
        <ele>252</ele>
        <time>2016-03-30T13:38:42.000Z</time>
      </trkpt>
      <trkpt lat="45.24573" lon="5.66833">
        <ele>252</ele>
        <time>2016-03-30T13:38:44.000Z</time>
      </trkpt>
      <trkpt lat="45.24561" lon="5.66843">
        <ele>251</ele>
        <time>2016-03-30T13:38:46.000Z</time>
      </trkpt>
      <trkpt lat="45.2455" lon="5.66852">
        <ele>251</ele>
        <time>2016-03-30T13:38:48.000Z</time>
      </trkpt>
      <trkpt lat="45.24539" lon="5.6686">
        <ele>251</ele>
        <time>2016-03-30T13:38:50.000Z</time>
      </trkpt>
      <trkpt lat="45.24528" lon="5.6687">
        <ele>252</ele>
        <time>2016-03-30T13:38:52.000Z</time>
      </trkpt>
      <trkpt lat="45.2452" lon="5.66878">
        <ele>252</ele>
        <time>2016-03-30T13:38:54.000Z</time>
      </trkpt>
      <trkpt lat="45.24511" lon="5.66885">
        <ele>254</ele>
        <time>2016-03-30T13:38:57.000Z</time>
      </trkpt>
      <trkpt lat="45.24503" lon="5.66892">
        <ele>256</ele>
        <time>2016-03-30T13:39:00.000Z</time>
      </trkpt>
      <trkpt lat="45.24492" lon="5.66904">
        <ele>257</ele>
        <time>2016-03-30T13:39:03.000Z</time>
      </trkpt>
      <trkpt lat="45.24485" lon="5.66914">
        <ele>258</ele>
        <time>2016-03-30T13:39:04.000Z</time>
      </trkpt>
      <trkpt lat="45.24476" lon="5.66919">
        <ele>259</ele>
        <time>2016-03-30T13:39:05.000Z</time>
      </trkpt>
      <trkpt lat="45.24466" lon="5.66924">
        <ele>259</ele>
        <time>2016-03-30T13:39:06.000Z</time>
      </trkpt>
      <trkpt lat="45.24453" lon="5.66935">
        <ele>259</ele>
        <time>2016-03-30T13:39:08.000Z</time>
      </trkpt>
      <trkpt lat="45.2444" lon="5.66944">
        <ele>257</ele>
        <time>2016-03-30T13:39:10.000Z</time>
      </trkpt>
      <trkpt lat="45.24426" lon="5.66955">
        <ele>256</ele>
        <time>2016-03-30T13:39:12.000Z</time>
      </trkpt>
      <trkpt lat="45.24418" lon="5.66961">
        <ele>256</ele>
        <time>2016-03-30T13:39:13.000Z</time>
      </trkpt>
      <trkpt lat="45.24409" lon="5.66967">
        <ele>256</ele>
        <time>2016-03-30T13:39:14.000Z</time>
      </trkpt>
      <trkpt lat="45.24394" lon="5.66978">
        <ele>257</ele>
        <time>2016-03-30T13:39:16.000Z</time>
      </trkpt>
      <trkpt lat="45.24386" lon="5.66985">
        <ele>257</ele>
        <time>2016-03-30T13:39:17.000Z</time>
      </trkpt>
      <trkpt lat="45.24372" lon="5.66996">
        <ele>256</ele>
        <time>2016-03-30T13:39:19.000Z</time>
      </trkpt>
      <trkpt lat="45.24359" lon="5.67006">
        <ele>256</ele>
        <time>2016-03-30T13:39:21.000Z</time>
      </trkpt>
      <trkpt lat="45.24347" lon="5.67016">
        <ele>256</ele>
        <time>2016-03-30T13:39:23.000Z</time>
      </trkpt>
      <trkpt lat="45.24339" lon="5.67021">
        <ele>255</ele>
        <time>2016-03-30T13:39:24.000Z</time>
      </trkpt>
      <trkpt lat="45.24327" lon="5.67029">
        <ele>255</ele>
        <time>2016-03-30T13:39:26.000Z</time>
      </trkpt>
      <trkpt lat="45.24311" lon="5.67035">
        <ele>256</ele>
        <time>2016-03-30T13:39:28.000Z</time>
      </trkpt>
      <trkpt lat="45.24298" lon="5.67042">
        <ele>258</ele>
        <time>2016-03-30T13:39:30.000Z</time>
      </trkpt>
      <trkpt lat="45.24287" lon="5.67051">
        <ele>258</ele>
        <time>2016-03-30T13:39:32.000Z</time>
      </trkpt>
      <trkpt lat="45.24277" lon="5.67055">
        <ele>258</ele>
        <time>2016-03-30T13:39:34.000Z</time>
      </trkpt>
      <trkpt lat="45.24267" lon="5.67044">
        <ele>256</ele>
        <time>2016-03-30T13:39:36.000Z</time>
      </trkpt>
      <trkpt lat="45.24261" lon="5.67033">
        <ele>256</ele>
        <time>2016-03-30T13:39:37.000Z</time>
      </trkpt>
      <trkpt lat="45.24255" lon="5.67021">
        <ele>256</ele>
        <time>2016-03-30T13:39:38.000Z</time>
      </trkpt>
      <trkpt lat="45.24249" lon="5.67006">
        <ele>256</ele>
        <time>2016-03-30T13:39:39.000Z</time>
      </trkpt>
      <trkpt lat="45.24244" lon="5.66992">
        <ele>256</ele>
        <time>2016-03-30T13:39:40.000Z</time>
      </trkpt>
      <trkpt lat="45.24238" lon="5.66978">
        <ele>257</ele>
        <time>2016-03-30T13:39:41.000Z</time>
      </trkpt>
      <trkpt lat="45.24232" lon="5.66964">
        <ele>256</ele>
        <time>2016-03-30T13:39:42.000Z</time>
      </trkpt>
      <trkpt lat="45.24225" lon="5.66948">
        <ele>257</ele>
        <time>2016-03-30T13:39:43.000Z</time>
      </trkpt>
      <trkpt lat="45.24218" lon="5.66932">
        <ele>257</ele>
        <time>2016-03-30T13:39:44.000Z</time>
      </trkpt>
      <trkpt lat="45.24211" lon="5.66915">
        <ele>258</ele>
        <time>2016-03-30T13:39:45.000Z</time>
      </trkpt>
      <trkpt lat="45.24205" lon="5.66899">
        <ele>259</ele>
        <time>2016-03-30T13:39:46.000Z</time>
      </trkpt>
      <trkpt lat="45.24198" lon="5.66885">
        <ele>260</ele>
        <time>2016-03-30T13:39:47.000Z</time>
      </trkpt>
      <trkpt lat="45.24192" lon="5.6687">
        <ele>261</ele>
        <time>2016-03-30T13:39:48.000Z</time>
      </trkpt>
      <trkpt lat="45.24186" lon="5.66857">
        <ele>261</ele>
        <time>2016-03-30T13:39:49.000Z</time>
      </trkpt>
      <trkpt lat="45.24179" lon="5.66842">
        <ele>261</ele>
        <time>2016-03-30T13:39:50.000Z</time>
      </trkpt>
      <trkpt lat="45.24172" lon="5.66828">
        <ele>261</ele>
        <time>2016-03-30T13:39:51.000Z</time>
      </trkpt>
      <trkpt lat="45.24165" lon="5.66815">
        <ele>261</ele>
        <time>2016-03-30T13:39:52.000Z</time>
      </trkpt>
      <trkpt lat="45.24157" lon="5.66803">
        <ele>261</ele>
        <time>2016-03-30T13:39:53.000Z</time>
      </trkpt>
      <trkpt lat="45.2415" lon="5.66792">
        <ele>262</ele>
        <time>2016-03-30T13:39:54.000Z</time>
      </trkpt>
      <trkpt lat="45.24143" lon="5.66782">
        <ele>262</ele>
        <time>2016-03-30T13:39:55.000Z</time>
      </trkpt>
      <trkpt lat="45.24135" lon="5.66772">
        <ele>262</ele>
        <time>2016-03-30T13:39:56.000Z</time>
      </trkpt>
      <trkpt lat="45.24126" lon="5.66761">
        <ele>262</ele>
        <time>2016-03-30T13:39:57.000Z</time>
      </trkpt>
      <trkpt lat="45.24118" lon="5.66751">
        <ele>262</ele>
        <time>2016-03-30T13:39:58.000Z</time>
      </trkpt>
      <trkpt lat="45.24111" lon="5.66742">
        <ele>262</ele>
        <time>2016-03-30T13:39:59.000Z</time>
      </trkpt>
      <trkpt lat="45.24103" lon="5.66734">
        <ele>262</ele>
        <time>2016-03-30T13:40:00.000Z</time>
      </trkpt>
      <trkpt lat="45.24095" lon="5.66725">
        <ele>261</ele>
        <time>2016-03-30T13:40:01.000Z</time>
      </trkpt>
      <trkpt lat="45.24087" lon="5.66717">
        <ele>261</ele>
        <time>2016-03-30T13:40:02.000Z</time>
      </trkpt>
      <trkpt lat="45.24079" lon="5.66708">
        <ele>260</ele>
        <time>2016-03-30T13:40:03.000Z</time>
      </trkpt>
      <trkpt lat="45.2407" lon="5.667">
        <ele>259</ele>
        <time>2016-03-30T13:40:04.000Z</time>
      </trkpt>
      <trkpt lat="45.24062" lon="5.66693">
        <ele>259</ele>
        <time>2016-03-30T13:40:05.000Z</time>
      </trkpt>
      <trkpt lat="45.24051" lon="5.66684">
        <ele>259</ele>
        <time>2016-03-30T13:40:06.000Z</time>
      </trkpt>
      <trkpt lat="45.2404" lon="5.66675">
        <ele>259</ele>
        <time>2016-03-30T13:40:07.000Z</time>
      </trkpt>
      <trkpt lat="45.24031" lon="5.66667">
        <ele>258</ele>
        <time>2016-03-30T13:40:08.000Z</time>
      </trkpt>
      <trkpt lat="45.24022" lon="5.6666">
        <ele>258</ele>
        <time>2016-03-30T13:40:09.000Z</time>
      </trkpt>
      <trkpt lat="45.24013" lon="5.66653">
        <ele>257</ele>
        <time>2016-03-30T13:40:10.000Z</time>
      </trkpt>
      <trkpt lat="45.24006" lon="5.66645">
        <ele>257</ele>
        <time>2016-03-30T13:40:11.000Z</time>
      </trkpt>
      <trkpt lat="45.23998" lon="5.66638">
        <ele>257</ele>
        <time>2016-03-30T13:40:12.000Z</time>
      </trkpt>
      <trkpt lat="45.23983" lon="5.66627">
        <ele>257</ele>
        <time>2016-03-30T13:40:14.000Z</time>
      </trkpt>
      <trkpt lat="45.23967" lon="5.6663">
        <ele>257</ele>
        <time>2016-03-30T13:40:16.000Z</time>
      </trkpt>
      <trkpt lat="45.23962" lon="5.66642">
        <ele>256</ele>
        <time>2016-03-30T13:40:17.000Z</time>
      </trkpt>
      <trkpt lat="45.23956" lon="5.66653">
        <ele>255</ele>
        <time>2016-03-30T13:40:18.000Z</time>
      </trkpt>
      <trkpt lat="45.2395" lon="5.66665">
        <ele>256</ele>
        <time>2016-03-30T13:40:19.000Z</time>
      </trkpt>
      <trkpt lat="45.23945" lon="5.66676">
        <ele>256</ele>
        <time>2016-03-30T13:40:20.000Z</time>
      </trkpt>
      <trkpt lat="45.23937" lon="5.66687">
        <ele>256</ele>
        <time>2016-03-30T13:40:21.000Z</time>
      </trkpt>
      <trkpt lat="45.23927" lon="5.66698">
        <ele>256</ele>
        <time>2016-03-30T13:40:22.000Z</time>
      </trkpt>
      <trkpt lat="45.23916" lon="5.66709">
        <ele>256</ele>
        <time>2016-03-30T13:40:23.000Z</time>
      </trkpt>
      <trkpt lat="45.23905" lon="5.66721">
        <ele>255</ele>
        <time>2016-03-30T13:40:24.000Z</time>
      </trkpt>
      <trkpt lat="45.23894" lon="5.66734">
        <ele>255</ele>
        <time>2016-03-30T13:40:25.000Z</time>
      </trkpt>
      <trkpt lat="45.23883" lon="5.66746">
        <ele>255</ele>
        <time>2016-03-30T13:40:26.000Z</time>
      </trkpt>
      <trkpt lat="45.23874" lon="5.66757">
        <ele>255</ele>
        <time>2016-03-30T13:40:27.000Z</time>
      </trkpt>
      <trkpt lat="45.23865" lon="5.66768">
        <ele>255</ele>
        <time>2016-03-30T13:40:28.000Z</time>
      </trkpt>
      <trkpt lat="45.23856" lon="5.66777">
        <ele>255</ele>
        <time>2016-03-30T13:40:29.000Z</time>
      </trkpt>
      <trkpt lat="45.23848" lon="5.66787">
        <ele>254</ele>
        <time>2016-03-30T13:40:30.000Z</time>
      </trkpt>
      <trkpt lat="45.23839" lon="5.66795">
        <ele>254</ele>
        <time>2016-03-30T13:40:31.000Z</time>
      </trkpt>
      <trkpt lat="45.23825" lon="5.6681">
        <ele>254</ele>
        <time>2016-03-30T13:40:33.000Z</time>
      </trkpt>
      <trkpt lat="45.23814" lon="5.66823">
        <ele>254</ele>
        <time>2016-03-30T13:40:35.000Z</time>
      </trkpt>
      <trkpt lat="45.23805" lon="5.66833">
        <ele>255</ele>
        <time>2016-03-30T13:40:37.000Z</time>
      </trkpt>
      <trkpt lat="45.23797" lon="5.66842">
        <ele>255</ele>
        <time>2016-03-30T13:40:40.000Z</time>
      </trkpt>
      <trkpt lat="45.23788" lon="5.66854">
        <ele>258</ele>
        <time>2016-03-30T13:41:01.000Z</time>
      </trkpt>
      <trkpt lat="45.23779" lon="5.66863">
        <ele>256</ele>
        <time>2016-03-30T13:41:03.000Z</time>
      </trkpt>
      <trkpt lat="45.23766" lon="5.66878">
        <ele>256</ele>
        <time>2016-03-30T13:41:05.000Z</time>
      </trkpt>
      <trkpt lat="45.23758" lon="5.66886">
        <ele>255</ele>
        <time>2016-03-30T13:41:06.000Z</time>
      </trkpt>
      <trkpt lat="45.2375" lon="5.66894">
        <ele>256</ele>
        <time>2016-03-30T13:41:07.000Z</time>
      </trkpt>
      <trkpt lat="45.23742" lon="5.66902">
        <ele>256</ele>
        <time>2016-03-30T13:41:08.000Z</time>
      </trkpt>
      <trkpt lat="45.23734" lon="5.6691">
        <ele>255</ele>
        <time>2016-03-30T13:41:09.000Z</time>
      </trkpt>
      <trkpt lat="45.23724" lon="5.66919">
        <ele>255</ele>
        <time>2016-03-30T13:41:10.000Z</time>
      </trkpt>
      <trkpt lat="45.23714" lon="5.66927">
        <ele>255</ele>
        <time>2016-03-30T13:41:11.000Z</time>
      </trkpt>
      <trkpt lat="45.23705" lon="5.66933">
        <ele>255</ele>
        <time>2016-03-30T13:41:12.000Z</time>
      </trkpt>
      <trkpt lat="45.23694" lon="5.66941">
        <ele>256</ele>
        <time>2016-03-30T13:41:13.000Z</time>
      </trkpt>
      <trkpt lat="45.23681" lon="5.66948">
        <ele>256</ele>
        <time>2016-03-30T13:41:14.000Z</time>
      </trkpt>
      <trkpt lat="45.23669" lon="5.66953">
        <ele>257</ele>
        <time>2016-03-30T13:41:15.000Z</time>
      </trkpt>
      <trkpt lat="45.23657" lon="5.66957">
        <ele>256</ele>
        <time>2016-03-30T13:41:16.000Z</time>
      </trkpt>
      <trkpt lat="45.23645" lon="5.66961">
        <ele>257</ele>
        <time>2016-03-30T13:41:17.000Z</time>
      </trkpt>
      <trkpt lat="45.23632" lon="5.66963">
        <ele>256</ele>
        <time>2016-03-30T13:41:18.000Z</time>
      </trkpt>
      <trkpt lat="45.23621" lon="5.66965">
        <ele>257</ele>
        <time>2016-03-30T13:41:19.000Z</time>
      </trkpt>
      <trkpt lat="45.2361" lon="5.66966">
        <ele>257</ele>
        <time>2016-03-30T13:41:20.000Z</time>
      </trkpt>
      <trkpt lat="45.236" lon="5.66966">
        <ele>257</ele>
        <time>2016-03-30T13:41:21.000Z</time>
      </trkpt>
      <trkpt lat="45.23589" lon="5.66967">
        <ele>256</ele>
        <time>2016-03-30T13:41:22.000Z</time>
      </trkpt>
      <trkpt lat="45.23578" lon="5.66967">
        <ele>257</ele>
        <time>2016-03-30T13:41:23.000Z</time>
      </trkpt>
      <trkpt lat="45.23566" lon="5.66966">
        <ele>257</ele>
        <time>2016-03-30T13:41:24.000Z</time>
      </trkpt>
      <trkpt lat="45.23554" lon="5.66964">
        <ele>256</ele>
        <time>2016-03-30T13:41:25.000Z</time>
      </trkpt>
      <trkpt lat="45.23542" lon="5.66961">
        <ele>256</ele>
        <time>2016-03-30T13:41:26.000Z</time>
      </trkpt>
      <trkpt lat="45.23532" lon="5.66954">
        <ele>256</ele>
        <time>2016-03-30T13:41:27.000Z</time>
      </trkpt>
      <trkpt lat="45.23522" lon="5.66947">
        <ele>256</ele>
        <time>2016-03-30T13:41:28.000Z</time>
      </trkpt>
      <trkpt lat="45.23512" lon="5.66941">
        <ele>256</ele>
        <time>2016-03-30T13:41:29.000Z</time>
      </trkpt>
      <trkpt lat="45.23501" lon="5.66931">
        <ele>255</ele>
        <time>2016-03-30T13:41:30.000Z</time>
      </trkpt>
      <trkpt lat="45.23491" lon="5.66921">
        <ele>256</ele>
        <time>2016-03-30T13:41:31.000Z</time>
      </trkpt>
      <trkpt lat="45.23481" lon="5.66909">
        <ele>256</ele>
        <time>2016-03-30T13:41:32.000Z</time>
      </trkpt>
      <trkpt lat="45.23471" lon="5.66896">
        <ele>254</ele>
        <time>2016-03-30T13:41:33.000Z</time>
      </trkpt>
      <trkpt lat="45.23462" lon="5.66882">
        <ele>254</ele>
        <time>2016-03-30T13:41:34.000Z</time>
      </trkpt>
      <trkpt lat="45.23453" lon="5.66869">
        <ele>255</ele>
        <time>2016-03-30T13:41:35.000Z</time>
      </trkpt>
      <trkpt lat="45.23443" lon="5.66858">
        <ele>254</ele>
        <time>2016-03-30T13:41:36.000Z</time>
      </trkpt>
      <trkpt lat="45.23435" lon="5.66846">
        <ele>255</ele>
        <time>2016-03-30T13:41:37.000Z</time>
      </trkpt>
      <trkpt lat="45.23426" lon="5.66834">
        <ele>255</ele>
        <time>2016-03-30T13:41:38.000Z</time>
      </trkpt>
      <trkpt lat="45.23417" lon="5.66822">
        <ele>255</ele>
        <time>2016-03-30T13:41:39.000Z</time>
      </trkpt>
      <trkpt lat="45.23407" lon="5.66809">
        <ele>255</ele>
        <time>2016-03-30T13:41:40.000Z</time>
      </trkpt>
      <trkpt lat="45.23396" lon="5.66795">
        <ele>255</ele>
        <time>2016-03-30T13:41:41.000Z</time>
      </trkpt>
      <trkpt lat="45.23386" lon="5.6678">
        <ele>255</ele>
        <time>2016-03-30T13:41:42.000Z</time>
      </trkpt>
      <trkpt lat="45.23374" lon="5.66765">
        <ele>255</ele>
        <time>2016-03-30T13:41:43.000Z</time>
      </trkpt>
      <trkpt lat="45.23363" lon="5.66749">
        <ele>254</ele>
        <time>2016-03-30T13:41:44.000Z</time>
      </trkpt>
      <trkpt lat="45.23352" lon="5.66734">
        <ele>254</ele>
        <time>2016-03-30T13:41:45.000Z</time>
      </trkpt>
      <trkpt lat="45.23343" lon="5.66721">
        <ele>254</ele>
        <time>2016-03-30T13:41:46.000Z</time>
      </trkpt>
      <trkpt lat="45.23333" lon="5.66709">
        <ele>254</ele>
        <time>2016-03-30T13:41:47.000Z</time>
      </trkpt>
      <trkpt lat="45.23323" lon="5.66695">
        <ele>252</ele>
        <time>2016-03-30T13:41:48.000Z</time>
      </trkpt>
      <trkpt lat="45.23313" lon="5.6668">
        <ele>252</ele>
        <time>2016-03-30T13:41:49.000Z</time>
      </trkpt>
      <trkpt lat="45.23304" lon="5.66667">
        <ele>252</ele>
        <time>2016-03-30T13:41:50.000Z</time>
      </trkpt>
      <trkpt lat="45.23296" lon="5.66654">
        <ele>252</ele>
        <time>2016-03-30T13:41:51.000Z</time>
      </trkpt>
      <trkpt lat="45.23288" lon="5.66643">
        <ele>252</ele>
        <time>2016-03-30T13:41:52.000Z</time>
      </trkpt>
      <trkpt lat="45.2328" lon="5.66632">
        <ele>252</ele>
        <time>2016-03-30T13:41:53.000Z</time>
      </trkpt>
      <trkpt lat="45.23272" lon="5.6662">
        <ele>252</ele>
        <time>2016-03-30T13:41:54.000Z</time>
      </trkpt>
      <trkpt lat="45.23262" lon="5.66607">
        <ele>253</ele>
        <time>2016-03-30T13:41:55.000Z</time>
      </trkpt>
      <trkpt lat="45.23254" lon="5.66595">
        <ele>253</ele>
        <time>2016-03-30T13:41:56.000Z</time>
      </trkpt>
      <trkpt lat="45.23243" lon="5.66582">
        <ele>253</ele>
        <time>2016-03-30T13:41:57.000Z</time>
      </trkpt>
      <trkpt lat="45.2323" lon="5.66574">
        <ele>253</ele>
        <time>2016-03-30T13:41:58.000Z</time>
      </trkpt>
      <trkpt lat="45.23216" lon="5.66567">
        <ele>254</ele>
        <time>2016-03-30T13:41:59.000Z</time>
      </trkpt>
      <trkpt lat="45.23204" lon="5.66563">
        <ele>255</ele>
        <time>2016-03-30T13:42:00.000Z</time>
      </trkpt>
      <trkpt lat="45.23192" lon="5.6656">
        <ele>255</ele>
        <time>2016-03-30T13:42:01.000Z</time>
      </trkpt>
      <trkpt lat="45.23179" lon="5.6656">
        <ele>254</ele>
        <time>2016-03-30T13:42:02.000Z</time>
      </trkpt>
      <trkpt lat="45.23166" lon="5.66563">
        <ele>254</ele>
        <time>2016-03-30T13:42:03.000Z</time>
      </trkpt>
      <trkpt lat="45.23154" lon="5.66567">
        <ele>254</ele>
        <time>2016-03-30T13:42:04.000Z</time>
      </trkpt>
      <trkpt lat="45.23143" lon="5.66572">
        <ele>254</ele>
        <time>2016-03-30T13:42:05.000Z</time>
      </trkpt>
      <trkpt lat="45.23132" lon="5.66577">
        <ele>254</ele>
        <time>2016-03-30T13:42:06.000Z</time>
      </trkpt>
      <trkpt lat="45.23121" lon="5.66584">
        <ele>254</ele>
        <time>2016-03-30T13:42:07.000Z</time>
      </trkpt>
      <trkpt lat="45.2311" lon="5.66591">
        <ele>254</ele>
        <time>2016-03-30T13:42:08.000Z</time>
      </trkpt>
      <trkpt lat="45.231" lon="5.66596">
        <ele>254</ele>
        <time>2016-03-30T13:42:09.000Z</time>
      </trkpt>
      <trkpt lat="45.2309" lon="5.66602">
        <ele>254</ele>
        <time>2016-03-30T13:42:10.000Z</time>
      </trkpt>
      <trkpt lat="45.23081" lon="5.66607">
        <ele>254</ele>
        <time>2016-03-30T13:42:11.000Z</time>
      </trkpt>
      <trkpt lat="45.23072" lon="5.66614">
        <ele>253</ele>
        <time>2016-03-30T13:42:12.000Z</time>
      </trkpt>
      <trkpt lat="45.2306" lon="5.66622">
        <ele>252</ele>
        <time>2016-03-30T13:42:13.000Z</time>
      </trkpt>
      <trkpt lat="45.23048" lon="5.66629">
        <ele>253</ele>
        <time>2016-03-30T13:42:14.000Z</time>
      </trkpt>
      <trkpt lat="45.23036" lon="5.66638">
        <ele>252</ele>
        <time>2016-03-30T13:42:15.000Z</time>
      </trkpt>
      <trkpt lat="45.23026" lon="5.66647">
        <ele>254</ele>
        <time>2016-03-30T13:42:16.000Z</time>
      </trkpt>
      <trkpt lat="45.23012" lon="5.66655">
        <ele>255</ele>
        <time>2016-03-30T13:42:17.000Z</time>
      </trkpt>
      <trkpt lat="45.22998" lon="5.66663">
        <ele>254</ele>
        <time>2016-03-30T13:42:18.000Z</time>
      </trkpt>
      <trkpt lat="45.22984" lon="5.66671">
        <ele>254</ele>
        <time>2016-03-30T13:42:19.000Z</time>
      </trkpt>
      <trkpt lat="45.22971" lon="5.6668">
        <ele>253</ele>
        <time>2016-03-30T13:42:20.000Z</time>
      </trkpt>
      <trkpt lat="45.22957" lon="5.66688">
        <ele>253</ele>
        <time>2016-03-30T13:42:21.000Z</time>
      </trkpt>
      <trkpt lat="45.22942" lon="5.66698">
        <ele>253</ele>
        <time>2016-03-30T13:42:22.000Z</time>
      </trkpt>
      <trkpt lat="45.22925" lon="5.66709">
        <ele>253</ele>
        <time>2016-03-30T13:42:23.000Z</time>
      </trkpt>
      <trkpt lat="45.2291" lon="5.6672">
        <ele>252</ele>
        <time>2016-03-30T13:42:24.000Z</time>
      </trkpt>
      <trkpt lat="45.22896" lon="5.66729">
        <ele>252</ele>
        <time>2016-03-30T13:42:25.000Z</time>
      </trkpt>
      <trkpt lat="45.22884" lon="5.66739">
        <ele>253</ele>
        <time>2016-03-30T13:42:26.000Z</time>
      </trkpt>
      <trkpt lat="45.22871" lon="5.66747">
        <ele>253</ele>
        <time>2016-03-30T13:42:27.000Z</time>
      </trkpt>
      <trkpt lat="45.22862" lon="5.66755">
        <ele>253</ele>
        <time>2016-03-30T13:42:28.000Z</time>
      </trkpt>
      <trkpt lat="45.22851" lon="5.66765">
        <ele>254</ele>
        <time>2016-03-30T13:42:29.000Z</time>
      </trkpt>
      <trkpt lat="45.22839" lon="5.66774">
        <ele>254</ele>
        <time>2016-03-30T13:42:30.000Z</time>
      </trkpt>
      <trkpt lat="45.22826" lon="5.66785">
        <ele>254</ele>
        <time>2016-03-30T13:42:31.000Z</time>
      </trkpt>
      <trkpt lat="45.22815" lon="5.66796">
        <ele>254</ele>
        <time>2016-03-30T13:42:32.000Z</time>
      </trkpt>
      <trkpt lat="45.22804" lon="5.66806">
        <ele>254</ele>
        <time>2016-03-30T13:42:33.000Z</time>
      </trkpt>
      <trkpt lat="45.22794" lon="5.66814">
        <ele>254</ele>
        <time>2016-03-30T13:42:34.000Z</time>
      </trkpt>
      <trkpt lat="45.22785" lon="5.66822">
        <ele>254</ele>
        <time>2016-03-30T13:42:35.000Z</time>
      </trkpt>
      <trkpt lat="45.22776" lon="5.66829">
        <ele>255</ele>
        <time>2016-03-30T13:42:36.000Z</time>
      </trkpt>
      <trkpt lat="45.22767" lon="5.66836">
        <ele>255</ele>
        <time>2016-03-30T13:42:37.000Z</time>
      </trkpt>
      <trkpt lat="45.22759" lon="5.66842">
        <ele>255</ele>
        <time>2016-03-30T13:42:38.000Z</time>
      </trkpt>
      <trkpt lat="45.2275" lon="5.66849">
        <ele>255</ele>
        <time>2016-03-30T13:42:39.000Z</time>
      </trkpt>
      <trkpt lat="45.22741" lon="5.66856">
        <ele>255</ele>
        <time>2016-03-30T13:42:40.000Z</time>
      </trkpt>
      <trkpt lat="45.22732" lon="5.66863">
        <ele>255</ele>
        <time>2016-03-30T13:42:41.000Z</time>
      </trkpt>
      <trkpt lat="45.22723" lon="5.6687">
        <ele>255</ele>
        <time>2016-03-30T13:42:42.000Z</time>
      </trkpt>
      <trkpt lat="45.22712" lon="5.6688">
        <ele>256</ele>
        <time>2016-03-30T13:42:44.000Z</time>
      </trkpt>
      <trkpt lat="45.22703" lon="5.66889">
        <ele>256</ele>
        <time>2016-03-30T13:42:46.000Z</time>
      </trkpt>
      <trkpt lat="45.2269" lon="5.66901">
        <ele>256</ele>
        <time>2016-03-30T13:42:48.000Z</time>
      </trkpt>
      <trkpt lat="45.22681" lon="5.66908">
        <ele>257</ele>
        <time>2016-03-30T13:42:49.000Z</time>
      </trkpt>
      <trkpt lat="45.22672" lon="5.66917">
        <ele>257</ele>
        <time>2016-03-30T13:42:50.000Z</time>
      </trkpt>
      <trkpt lat="45.22661" lon="5.66926">
        <ele>257</ele>
        <time>2016-03-30T13:42:51.000Z</time>
      </trkpt>
      <trkpt lat="45.2265" lon="5.66935">
        <ele>257</ele>
        <time>2016-03-30T13:42:52.000Z</time>
      </trkpt>
      <trkpt lat="45.2264" lon="5.66943">
        <ele>257</ele>
        <time>2016-03-30T13:42:53.000Z</time>
      </trkpt>
      <trkpt lat="45.2263" lon="5.66951">
        <ele>257</ele>
        <time>2016-03-30T13:42:54.000Z</time>
      </trkpt>
      <trkpt lat="45.2262" lon="5.66959">
        <ele>257</ele>
        <time>2016-03-30T13:42:55.000Z</time>
      </trkpt>
      <trkpt lat="45.22611" lon="5.66968">
        <ele>257</ele>
        <time>2016-03-30T13:42:56.000Z</time>
      </trkpt>
      <trkpt lat="45.22601" lon="5.66975">
        <ele>258</ele>
        <time>2016-03-30T13:42:57.000Z</time>
      </trkpt>
      <trkpt lat="45.22593" lon="5.66984">
        <ele>257</ele>
        <time>2016-03-30T13:42:58.000Z</time>
      </trkpt>
      <trkpt lat="45.22584" lon="5.66992">
        <ele>257</ele>
        <time>2016-03-30T13:42:59.000Z</time>
      </trkpt>
      <trkpt lat="45.22575" lon="5.67">
        <ele>257</ele>
        <time>2016-03-30T13:43:00.000Z</time>
      </trkpt>
      <trkpt lat="45.22568" lon="5.67008">
        <ele>257</ele>
        <time>2016-03-30T13:43:01.000Z</time>
      </trkpt>
      <trkpt lat="45.22556" lon="5.67027">
        <ele>257</ele>
        <time>2016-03-30T13:43:03.000Z</time>
      </trkpt>
      <trkpt lat="45.2255" lon="5.67038">
        <ele>258</ele>
        <time>2016-03-30T13:43:04.000Z</time>
      </trkpt>
      <trkpt lat="45.22543" lon="5.67049">
        <ele>258</ele>
        <time>2016-03-30T13:43:05.000Z</time>
      </trkpt>
      <trkpt lat="45.2253" lon="5.67066">
        <ele>259</ele>
        <time>2016-03-30T13:43:07.000Z</time>
      </trkpt>
      <trkpt lat="45.22523" lon="5.67076">
        <ele>259</ele>
        <time>2016-03-30T13:43:08.000Z</time>
      </trkpt>
      <trkpt lat="45.22516" lon="5.67086">
        <ele>259</ele>
        <time>2016-03-30T13:43:09.000Z</time>
      </trkpt>
      <trkpt lat="45.22509" lon="5.67095">
        <ele>259</ele>
        <time>2016-03-30T13:43:10.000Z</time>
      </trkpt>
      <trkpt lat="45.22498" lon="5.67112">
        <ele>259</ele>
        <time>2016-03-30T13:43:12.000Z</time>
      </trkpt>
      <trkpt lat="45.22488" lon="5.67128">
        <ele>258</ele>
        <time>2016-03-30T13:43:14.000Z</time>
      </trkpt>
      <trkpt lat="45.22479" lon="5.67143">
        <ele>259</ele>
        <time>2016-03-30T13:43:16.000Z</time>
      </trkpt>
      <trkpt lat="45.2247" lon="5.6716">
        <ele>259</ele>
        <time>2016-03-30T13:43:18.000Z</time>
      </trkpt>
      <trkpt lat="45.22463" lon="5.67173">
        <ele>257</ele>
        <time>2016-03-30T13:43:20.000Z</time>
      </trkpt>
      <trkpt lat="45.22458" lon="5.67184">
        <ele>258</ele>
        <time>2016-03-30T13:43:22.000Z</time>
      </trkpt>
      <trkpt lat="45.2245" lon="5.672">
        <ele>258</ele>
        <time>2016-03-30T13:43:24.000Z</time>
      </trkpt>
      <trkpt lat="45.2244" lon="5.67216">
        <ele>257</ele>
        <time>2016-03-30T13:43:26.000Z</time>
      </trkpt>
      <trkpt lat="45.22428" lon="5.67236">
        <ele>254</ele>
        <time>2016-03-30T13:43:28.000Z</time>
      </trkpt>
      <trkpt lat="45.22423" lon="5.67248">
        <ele>254</ele>
        <time>2016-03-30T13:43:29.000Z</time>
      </trkpt>
      <trkpt lat="45.22417" lon="5.6726">
        <ele>253</ele>
        <time>2016-03-30T13:43:30.000Z</time>
      </trkpt>
      <trkpt lat="45.2241" lon="5.67274">
        <ele>255</ele>
        <time>2016-03-30T13:43:31.000Z</time>
      </trkpt>
      <trkpt lat="45.22403" lon="5.67289">
        <ele>256</ele>
        <time>2016-03-30T13:43:32.000Z</time>
      </trkpt>
      <trkpt lat="45.22395" lon="5.67302">
        <ele>256</ele>
        <time>2016-03-30T13:43:33.000Z</time>
      </trkpt>
      <trkpt lat="45.22389" lon="5.67315">
        <ele>256</ele>
        <time>2016-03-30T13:43:34.000Z</time>
      </trkpt>
      <trkpt lat="45.22383" lon="5.67326">
        <ele>255</ele>
        <time>2016-03-30T13:43:35.000Z</time>
      </trkpt>
      <trkpt lat="45.22377" lon="5.67337">
        <ele>255</ele>
        <time>2016-03-30T13:43:36.000Z</time>
      </trkpt>
      <trkpt lat="45.22363" lon="5.67348">
        <ele>255</ele>
        <time>2016-03-30T13:43:38.000Z</time>
      </trkpt>
      <trkpt lat="45.22353" lon="5.67365">
        <ele>255</ele>
        <time>2016-03-30T13:43:40.000Z</time>
      </trkpt>
      <trkpt lat="45.22348" lon="5.67385">
        <ele>254</ele>
        <time>2016-03-30T13:43:42.000Z</time>
      </trkpt>
      <trkpt lat="45.22341" lon="5.67408">
        <ele>253</ele>
        <time>2016-03-30T13:43:44.000Z</time>
      </trkpt>
      <trkpt lat="45.22335" lon="5.67421">
        <ele>253</ele>
        <time>2016-03-30T13:43:45.000Z</time>
      </trkpt>
      <trkpt lat="45.22329" lon="5.67432">
        <ele>254</ele>
        <time>2016-03-30T13:43:46.000Z</time>
      </trkpt>
      <trkpt lat="45.22322" lon="5.67444">
        <ele>253</ele>
        <time>2016-03-30T13:43:47.000Z</time>
      </trkpt>
      <trkpt lat="45.22316" lon="5.67454">
        <ele>254</ele>
        <time>2016-03-30T13:43:48.000Z</time>
      </trkpt>
      <trkpt lat="45.2231" lon="5.67466">
        <ele>253</ele>
        <time>2016-03-30T13:43:49.000Z</time>
      </trkpt>
      <trkpt lat="45.22303" lon="5.67475">
        <ele>253</ele>
        <time>2016-03-30T13:43:50.000Z</time>
      </trkpt>
      <trkpt lat="45.2229" lon="5.67493">
        <ele>254</ele>
        <time>2016-03-30T13:43:52.000Z</time>
      </trkpt>
      <trkpt lat="45.22284" lon="5.67502">
        <ele>253</ele>
        <time>2016-03-30T13:43:53.000Z</time>
      </trkpt>
      <trkpt lat="45.22277" lon="5.67511">
        <ele>253</ele>
        <time>2016-03-30T13:43:54.000Z</time>
      </trkpt>
      <trkpt lat="45.22269" lon="5.6752">
        <ele>254</ele>
        <time>2016-03-30T13:43:55.000Z</time>
      </trkpt>
      <trkpt lat="45.22261" lon="5.6753">
        <ele>254</ele>
        <time>2016-03-30T13:43:56.000Z</time>
      </trkpt>
      <trkpt lat="45.22253" lon="5.67539">
        <ele>254</ele>
        <time>2016-03-30T13:43:57.000Z</time>
      </trkpt>
      <trkpt lat="45.22245" lon="5.67548">
        <ele>254</ele>
        <time>2016-03-30T13:43:58.000Z</time>
      </trkpt>
      <trkpt lat="45.22231" lon="5.67565">
        <ele>255</ele>
        <time>2016-03-30T13:44:00.000Z</time>
      </trkpt>
      <trkpt lat="45.22223" lon="5.67574">
        <ele>257</ele>
        <time>2016-03-30T13:44:01.000Z</time>
      </trkpt>
      <trkpt lat="45.22215" lon="5.67581">
        <ele>256</ele>
        <time>2016-03-30T13:44:02.000Z</time>
      </trkpt>
      <trkpt lat="45.22207" lon="5.67588">
        <ele>255</ele>
        <time>2016-03-30T13:44:03.000Z</time>
      </trkpt>
      <trkpt lat="45.22199" lon="5.67596">
        <ele>255</ele>
        <time>2016-03-30T13:44:04.000Z</time>
      </trkpt>
      <trkpt lat="45.22191" lon="5.67604">
        <ele>255</ele>
        <time>2016-03-30T13:44:05.000Z</time>
      </trkpt>
      <trkpt lat="45.22183" lon="5.67614">
        <ele>255</ele>
        <time>2016-03-30T13:44:06.000Z</time>
      </trkpt>
      <trkpt lat="45.22174" lon="5.67624">
        <ele>254</ele>
        <time>2016-03-30T13:44:07.000Z</time>
      </trkpt>
      <trkpt lat="45.22165" lon="5.67634">
        <ele>254</ele>
        <time>2016-03-30T13:44:08.000Z</time>
      </trkpt>
      <trkpt lat="45.22157" lon="5.67643">
        <ele>254</ele>
        <time>2016-03-30T13:44:09.000Z</time>
      </trkpt>
      <trkpt lat="45.22144" lon="5.67659">
        <ele>254</ele>
        <time>2016-03-30T13:44:11.000Z</time>
      </trkpt>
      <trkpt lat="45.22137" lon="5.67667">
        <ele>254</ele>
        <time>2016-03-30T13:44:12.000Z</time>
      </trkpt>
      <trkpt lat="45.22125" lon="5.67682">
        <ele>255</ele>
        <time>2016-03-30T13:44:14.000Z</time>
      </trkpt>
      <trkpt lat="45.22111" lon="5.67697">
        <ele>255</ele>
        <time>2016-03-30T13:44:16.000Z</time>
      </trkpt>
      <trkpt lat="45.22101" lon="5.67707">
        <ele>255</ele>
        <time>2016-03-30T13:44:17.000Z</time>
      </trkpt>
      <trkpt lat="45.22089" lon="5.67721">
        <ele>255</ele>
        <time>2016-03-30T13:44:18.000Z</time>
      </trkpt>
      <trkpt lat="45.22072" lon="5.67736">
        <ele>254</ele>
        <time>2016-03-30T13:44:19.000Z</time>
      </trkpt>
      <trkpt lat="45.22055" lon="5.67756">
        <ele>254</ele>
        <time>2016-03-30T13:44:20.000Z</time>
      </trkpt>
      <trkpt lat="45.22042" lon="5.67771">
        <ele>254</ele>
        <time>2016-03-30T13:44:21.000Z</time>
      </trkpt>
      <trkpt lat="45.22031" lon="5.67784">
        <ele>253</ele>
        <time>2016-03-30T13:44:22.000Z</time>
      </trkpt>
      <trkpt lat="45.2202" lon="5.67797">
        <ele>253</ele>
        <time>2016-03-30T13:44:23.000Z</time>
      </trkpt>
      <trkpt lat="45.22009" lon="5.67809">
        <ele>253</ele>
        <time>2016-03-30T13:44:24.000Z</time>
      </trkpt>
      <trkpt lat="45.21999" lon="5.67822">
        <ele>253</ele>
        <time>2016-03-30T13:44:25.000Z</time>
      </trkpt>
      <trkpt lat="45.21988" lon="5.67833">
        <ele>252</ele>
        <time>2016-03-30T13:44:26.000Z</time>
      </trkpt>
      <trkpt lat="45.21977" lon="5.67844">
        <ele>252</ele>
        <time>2016-03-30T13:44:27.000Z</time>
      </trkpt>
      <trkpt lat="45.21969" lon="5.67854">
        <ele>252</ele>
        <time>2016-03-30T13:44:28.000Z</time>
      </trkpt>
      <trkpt lat="45.21961" lon="5.67862">
        <ele>252</ele>
        <time>2016-03-30T13:44:29.000Z</time>
      </trkpt>
      <trkpt lat="45.21947" lon="5.67877">
        <ele>254</ele>
        <time>2016-03-30T13:44:31.000Z</time>
      </trkpt>
      <trkpt lat="45.21935" lon="5.67888">
        <ele>254</ele>
        <time>2016-03-30T13:44:33.000Z</time>
      </trkpt>
      <trkpt lat="45.21924" lon="5.67898">
        <ele>254</ele>
        <time>2016-03-30T13:44:35.000Z</time>
      </trkpt>
      <trkpt lat="45.2191" lon="5.67902">
        <ele>254</ele>
        <time>2016-03-30T13:44:37.000Z</time>
      </trkpt>
      <trkpt lat="45.21904" lon="5.67916">
        <ele>254</ele>
        <time>2016-03-30T13:44:39.000Z</time>
      </trkpt>
      <trkpt lat="45.21905" lon="5.67931">
        <ele>254</ele>
        <time>2016-03-30T13:44:41.000Z</time>
      </trkpt>
      <trkpt lat="45.21913" lon="5.67941">
        <ele>255</ele>
        <time>2016-03-30T13:44:43.000Z</time>
      </trkpt>
      <trkpt lat="45.21927" lon="5.67947">
        <ele>256</ele>
        <time>2016-03-30T13:44:45.000Z</time>
      </trkpt>
      <trkpt lat="45.21937" lon="5.67961">
        <ele>255</ele>
        <time>2016-03-30T13:44:47.000Z</time>
      </trkpt>
      <trkpt lat="45.21949" lon="5.6798">
        <ele>254</ele>
        <time>2016-03-30T13:44:49.000Z</time>
      </trkpt>
      <trkpt lat="45.21956" lon="5.67989">
        <ele>255</ele>
        <time>2016-03-30T13:44:50.000Z</time>
      </trkpt>
      <trkpt lat="45.21962" lon="5.67999">
        <ele>255</ele>
        <time>2016-03-30T13:44:51.000Z</time>
      </trkpt>
      <trkpt lat="45.2197" lon="5.6801">
        <ele>254</ele>
        <time>2016-03-30T13:44:52.000Z</time>
      </trkpt>
      <trkpt lat="45.21978" lon="5.68023">
        <ele>255</ele>
        <time>2016-03-30T13:44:53.000Z</time>
      </trkpt>
      <trkpt lat="45.21987" lon="5.68036">
        <ele>256</ele>
        <time>2016-03-30T13:44:54.000Z</time>
      </trkpt>
      <trkpt lat="45.21996" lon="5.68049">
        <ele>255</ele>
        <time>2016-03-30T13:44:55.000Z</time>
      </trkpt>
      <trkpt lat="45.22005" lon="5.68062">
        <ele>255</ele>
        <time>2016-03-30T13:44:56.000Z</time>
      </trkpt>
      <trkpt lat="45.22012" lon="5.68074">
        <ele>254</ele>
        <time>2016-03-30T13:44:57.000Z</time>
      </trkpt>
      <trkpt lat="45.2202" lon="5.68086">
        <ele>253</ele>
        <time>2016-03-30T13:44:58.000Z</time>
      </trkpt>
      <trkpt lat="45.22028" lon="5.68096">
        <ele>254</ele>
        <time>2016-03-30T13:44:59.000Z</time>
      </trkpt>
      <trkpt lat="45.22036" lon="5.68105">
        <ele>255</ele>
        <time>2016-03-30T13:45:00.000Z</time>
      </trkpt>
      <trkpt lat="45.22043" lon="5.68113">
        <ele>255</ele>
        <time>2016-03-30T13:45:01.000Z</time>
      </trkpt>
      <trkpt lat="45.22057" lon="5.68127">
        <ele>257</ele>
        <time>2016-03-30T13:45:03.000Z</time>
      </trkpt>
      <trkpt lat="45.2207" lon="5.6814">
        <ele>256</ele>
        <time>2016-03-30T13:45:05.000Z</time>
      </trkpt>
      <trkpt lat="45.22083" lon="5.68151">
        <ele>256</ele>
        <time>2016-03-30T13:45:07.000Z</time>
      </trkpt>
      <trkpt lat="45.22098" lon="5.68158">
        <ele>256</ele>
        <time>2016-03-30T13:45:09.000Z</time>
      </trkpt>
      <trkpt lat="45.22115" lon="5.68168">
        <ele>256</ele>
        <time>2016-03-30T13:45:11.000Z</time>
      </trkpt>
      <trkpt lat="45.22125" lon="5.68176">
        <ele>256</ele>
        <time>2016-03-30T13:45:12.000Z</time>
      </trkpt>
      <trkpt lat="45.22134" lon="5.68182">
        <ele>256</ele>
        <time>2016-03-30T13:45:13.000Z</time>
      </trkpt>
      <trkpt lat="45.2215" lon="5.68192">
        <ele>256</ele>
        <time>2016-03-30T13:45:15.000Z</time>
      </trkpt>
      <trkpt lat="45.22158" lon="5.68198">
        <ele>257</ele>
        <time>2016-03-30T13:45:16.000Z</time>
      </trkpt>
      <trkpt lat="45.22167" lon="5.68204">
        <ele>256</ele>
        <time>2016-03-30T13:45:17.000Z</time>
      </trkpt>
      <trkpt lat="45.22175" lon="5.6821">
        <ele>257</ele>
        <time>2016-03-30T13:45:18.000Z</time>
      </trkpt>
      <trkpt lat="45.22184" lon="5.68215">
        <ele>257</ele>
        <time>2016-03-30T13:45:19.000Z</time>
      </trkpt>
      <trkpt lat="45.222" lon="5.68225">
        <ele>256</ele>
        <time>2016-03-30T13:45:21.000Z</time>
      </trkpt>
      <trkpt lat="45.22215" lon="5.68235">
        <ele>256</ele>
        <time>2016-03-30T13:45:23.000Z</time>
      </trkpt>
      <trkpt lat="45.22228" lon="5.68241">
        <ele>257</ele>
        <time>2016-03-30T13:45:25.000Z</time>
      </trkpt>
      <trkpt lat="45.22236" lon="5.68247">
        <ele>256</ele>
        <time>2016-03-30T13:45:27.000Z</time>
      </trkpt>
      <trkpt lat="45.22244" lon="5.68253">
        <ele>258</ele>
        <time>2016-03-30T13:45:31.000Z</time>
      </trkpt>
      <trkpt lat="45.2225" lon="5.68263">
        <ele>257</ele>
        <time>2016-03-30T13:45:39.000Z</time>
      </trkpt>
      <trkpt lat="45.22252" lon="5.68284">
        <ele>255</ele>
        <time>2016-03-30T13:45:41.000Z</time>
      </trkpt>
      <trkpt lat="45.22254" lon="5.68301">
        <ele>253</ele>
        <time>2016-03-30T13:45:42.000Z</time>
      </trkpt>
      <trkpt lat="45.22255" lon="5.68317">
        <ele>253</ele>
        <time>2016-03-30T13:45:43.000Z</time>
      </trkpt>
      <trkpt lat="45.22256" lon="5.68337">
        <ele>252</ele>
        <time>2016-03-30T13:45:44.000Z</time>
      </trkpt>
      <trkpt lat="45.22259" lon="5.68354">
        <ele>253</ele>
        <time>2016-03-30T13:45:45.000Z</time>
      </trkpt>
      <trkpt lat="45.22261" lon="5.68371">
        <ele>252</ele>
        <time>2016-03-30T13:45:46.000Z</time>
      </trkpt>
      <trkpt lat="45.22268" lon="5.68392">
        <ele>253</ele>
        <time>2016-03-30T13:45:48.000Z</time>
      </trkpt>
      <trkpt lat="45.22273" lon="5.68414">
        <ele>254</ele>
        <time>2016-03-30T13:45:50.000Z</time>
      </trkpt>
      <trkpt lat="45.22276" lon="5.68433">
        <ele>254</ele>
        <time>2016-03-30T13:45:52.000Z</time>
      </trkpt>
      <trkpt lat="45.22279" lon="5.6845">
        <ele>253</ele>
        <time>2016-03-30T13:45:54.000Z</time>
      </trkpt>
      <trkpt lat="45.22284" lon="5.68469">
        <ele>253</ele>
        <time>2016-03-30T13:45:56.000Z</time>
      </trkpt>
      <trkpt lat="45.22288" lon="5.68489">
        <ele>252</ele>
        <time>2016-03-30T13:45:58.000Z</time>
      </trkpt>
      <trkpt lat="45.22292" lon="5.68501">
        <ele>252</ele>
        <time>2016-03-30T13:45:59.000Z</time>
      </trkpt>
      <trkpt lat="45.22296" lon="5.68524">
        <ele>254</ele>
        <time>2016-03-30T13:46:01.000Z</time>
      </trkpt>
      <trkpt lat="45.223" lon="5.68538">
        <ele>254</ele>
        <time>2016-03-30T13:46:02.000Z</time>
      </trkpt>
      <trkpt lat="45.22306" lon="5.68562">
        <ele>251</ele>
        <time>2016-03-30T13:46:04.000Z</time>
      </trkpt>
      <trkpt lat="45.22309" lon="5.68576">
        <ele>251</ele>
        <time>2016-03-30T13:46:05.000Z</time>
      </trkpt>
      <trkpt lat="45.22314" lon="5.68596">
        <ele>249</ele>
        <time>2016-03-30T13:46:07.000Z</time>
      </trkpt>
      <trkpt lat="45.22319" lon="5.68619">
        <ele>249</ele>
        <time>2016-03-30T13:46:09.000Z</time>
      </trkpt>
      <trkpt lat="45.22323" lon="5.68642">
        <ele>249</ele>
        <time>2016-03-30T13:46:11.000Z</time>
      </trkpt>
      <trkpt lat="45.22326" lon="5.68654">
        <ele>249</ele>
        <time>2016-03-30T13:46:12.000Z</time>
      </trkpt>
      <trkpt lat="45.22334" lon="5.68677">
        <ele>251</ele>
        <time>2016-03-30T13:46:14.000Z</time>
      </trkpt>
      <trkpt lat="45.22337" lon="5.68696">
        <ele>251</ele>
        <time>2016-03-30T13:46:16.000Z</time>
      </trkpt>
      <trkpt lat="45.22341" lon="5.68713">
        <ele>250</ele>
        <time>2016-03-30T13:46:18.000Z</time>
      </trkpt>
      <trkpt lat="45.22345" lon="5.68728">
        <ele>250</ele>
        <time>2016-03-30T13:46:20.000Z</time>
      </trkpt>
      <trkpt lat="45.22347" lon="5.68745">
        <ele>251</ele>
        <time>2016-03-30T13:46:22.000Z</time>
      </trkpt>
      <trkpt lat="45.22352" lon="5.68769">
        <ele>253</ele>
        <time>2016-03-30T13:46:24.000Z</time>
      </trkpt>
      <trkpt lat="45.22354" lon="5.68785">
        <ele>254</ele>
        <time>2016-03-30T13:46:26.000Z</time>
      </trkpt>
      <trkpt lat="45.22358" lon="5.688">
        <ele>256</ele>
        <time>2016-03-30T13:46:28.000Z</time>
      </trkpt>
      <trkpt lat="45.22361" lon="5.68815">
        <ele>257</ele>
        <time>2016-03-30T13:47:38.000Z</time>
      </trkpt>
      <trkpt lat="45.22358" lon="5.68837">
        <ele>255</ele>
        <time>2016-03-30T13:47:41.000Z</time>
      </trkpt>
      <trkpt lat="45.22342" lon="5.68847">
        <ele>255</ele>
        <time>2016-03-30T13:47:43.000Z</time>
      </trkpt>
      <trkpt lat="45.22334" lon="5.68854">
        <ele>254</ele>
        <time>2016-03-30T13:47:45.000Z</time>
      </trkpt>
      <trkpt lat="45.22326" lon="5.68864">
        <ele>259</ele>
        <time>2016-03-30T13:47:48.000Z</time>
      </trkpt>
      <trkpt lat="45.22316" lon="5.68865">
        <ele>253</ele>
        <time>2016-03-30T13:48:06.000Z</time>
      </trkpt>
      <trkpt lat="45.22306" lon="5.68876">
        <ele>255</ele>
        <time>2016-03-30T13:48:09.000Z</time>
      </trkpt>
      <trkpt lat="45.22294" lon="5.68889">
        <ele>255</ele>
        <time>2016-03-30T13:48:12.000Z</time>
      </trkpt>
      <trkpt lat="45.22282" lon="5.689">
        <ele>256</ele>
        <time>2016-03-30T13:48:14.000Z</time>
      </trkpt>
      <trkpt lat="45.22267" lon="5.68912">
        <ele>254</ele>
        <time>2016-03-30T13:48:16.000Z</time>
      </trkpt>
      <trkpt lat="45.22259" lon="5.6892">
        <ele>254</ele>
        <time>2016-03-30T13:48:17.000Z</time>
      </trkpt>
      <trkpt lat="45.22251" lon="5.68927">
        <ele>254</ele>
        <time>2016-03-30T13:48:18.000Z</time>
      </trkpt>
      <trkpt lat="45.22242" lon="5.68934">
        <ele>254</ele>
        <time>2016-03-30T13:48:19.000Z</time>
      </trkpt>
      <trkpt lat="45.22234" lon="5.68941">
        <ele>254</ele>
        <time>2016-03-30T13:48:20.000Z</time>
      </trkpt>
      <trkpt lat="45.22226" lon="5.68948">
        <ele>254</ele>
        <time>2016-03-30T13:48:21.000Z</time>
      </trkpt>
      <trkpt lat="45.22219" lon="5.68954">
        <ele>255</ele>
        <time>2016-03-30T13:48:22.000Z</time>
      </trkpt>
      <trkpt lat="45.22211" lon="5.68962">
        <ele>255</ele>
        <time>2016-03-30T13:48:23.000Z</time>
      </trkpt>
      <trkpt lat="45.22198" lon="5.68974">
        <ele>255</ele>
        <time>2016-03-30T13:48:25.000Z</time>
      </trkpt>
      <trkpt lat="45.22189" lon="5.68978">
        <ele>255</ele>
        <time>2016-03-30T13:48:27.000Z</time>
      </trkpt>
      <trkpt lat="45.2218" lon="5.68945">
        <ele>251</ele>
        <time>2016-03-30T13:54:03.000Z</time>
      </trkpt>
    </trkseg>
  </trk>
</gpx>